<?xml version="1.0" encoding="UTF-8" standalone="no" ?>
<gpx xmlns="http://www.topografix.com/GPX/1/1" xmlns:xsi="http://www.w3.org/2001/XMLSchema-instance" xsi:schemaLocation="http://www.topografix.com/GPX/1/1 http://www.topografix.com/GPX/1/1/gpx.xsd" version="1.1" creator="VisuGPX - https://www.visugpx.com">
  <metadata>
    <name>Afternoon Ride</name>
    <desc><![CDATA[Randonnée de 3 jours, deuxième jour, un peu plus tranquille après les 126 km de la veille et la soirée arrosée post confinement entre amis. :)]]></desc>
  </metadata>
  <trk>
    <name><![CDATA[Afternoon Ride]]></name>
    <trkseg>
      <trkpt lat="47.25329" lon="6.4692">
        <ele>597.4</ele>
        <time>2020-05-22T13:35:02Z</time>
      </trkpt>
      <trkpt lat="47.25329" lon="6.46922">
        <ele>597.6</ele>
        <time>2020-05-22T13:35:03Z</time>
      </trkpt>
      <trkpt lat="47.25329" lon="6.46925">
        <ele>597.6</ele>
        <time>2020-05-22T13:35:04Z</time>
      </trkpt>
      <trkpt lat="47.25329" lon="6.46927">
        <ele>598</ele>
        <time>2020-05-22T13:35:05Z</time>
      </trkpt>
      <trkpt lat="47.25328" lon="6.4693">
        <ele>598</ele>
        <time>2020-05-22T13:35:06Z</time>
      </trkpt>
      <trkpt lat="47.25328" lon="6.46932">
        <ele>598.2</ele>
        <time>2020-05-22T13:35:07Z</time>
      </trkpt>
      <trkpt lat="47.25327" lon="6.46934">
        <ele>598.2</ele>
        <time>2020-05-22T13:35:08Z</time>
      </trkpt>
      <trkpt lat="47.25327" lon="6.46936">
        <ele>598.6</ele>
        <time>2020-05-22T13:35:09Z</time>
      </trkpt>
      <trkpt lat="47.25327" lon="6.46939">
        <ele>598.6</ele>
        <time>2020-05-22T13:35:10Z</time>
      </trkpt>
      <trkpt lat="47.25327" lon="6.46941">
        <ele>598.8</ele>
        <time>2020-05-22T13:35:11Z</time>
      </trkpt>
      <trkpt lat="47.25327" lon="6.46944">
        <ele>598.8</ele>
        <time>2020-05-22T13:35:12Z</time>
      </trkpt>
      <trkpt lat="47.25327" lon="6.46946">
        <ele>599.2</ele>
        <time>2020-05-22T13:35:13Z</time>
      </trkpt>
      <trkpt lat="47.25326" lon="6.46949">
        <ele>599.2</ele>
        <time>2020-05-22T13:35:14Z</time>
      </trkpt>
      <trkpt lat="47.25326" lon="6.46951">
        <ele>599.4</ele>
        <time>2020-05-22T13:35:15Z</time>
      </trkpt>
      <trkpt lat="47.25326" lon="6.46953">
        <ele>599.4</ele>
        <time>2020-05-22T13:35:16Z</time>
      </trkpt>
      <trkpt lat="47.25325" lon="6.46956">
        <ele>599.6</ele>
        <time>2020-05-22T13:35:17Z</time>
      </trkpt>
      <trkpt lat="47.25325" lon="6.46958">
        <ele>599.6</ele>
        <time>2020-05-22T13:35:18Z</time>
      </trkpt>
      <trkpt lat="47.25325" lon="6.46961">
        <ele>600</ele>
        <time>2020-05-22T13:35:19Z</time>
      </trkpt>
      <trkpt lat="47.25325" lon="6.46963">
        <ele>600</ele>
        <time>2020-05-22T13:35:20Z</time>
      </trkpt>
      <trkpt lat="47.25324" lon="6.46966">
        <ele>600.2</ele>
        <time>2020-05-22T13:35:21Z</time>
      </trkpt>
      <trkpt lat="47.25324" lon="6.46968">
        <ele>600.2</ele>
        <time>2020-05-22T13:35:22Z</time>
      </trkpt>
      <trkpt lat="47.25324" lon="6.46971">
        <ele>600.6</ele>
        <time>2020-05-22T13:35:23Z</time>
      </trkpt>
      <trkpt lat="47.25323" lon="6.46974">
        <ele>600.6</ele>
        <time>2020-05-22T13:35:24Z</time>
      </trkpt>
      <trkpt lat="47.25323" lon="6.46976">
        <ele>600.8</ele>
        <time>2020-05-22T13:35:25Z</time>
      </trkpt>
      <trkpt lat="47.25322" lon="6.46979">
        <ele>600.8</ele>
        <time>2020-05-22T13:35:26Z</time>
      </trkpt>
      <trkpt lat="47.25322" lon="6.46981">
        <ele>601.2</ele>
        <time>2020-05-22T13:35:27Z</time>
      </trkpt>
      <trkpt lat="47.25322" lon="6.46984">
        <ele>601.2</ele>
        <time>2020-05-22T13:35:28Z</time>
      </trkpt>
      <trkpt lat="47.25322" lon="6.46986">
        <ele>601.2</ele>
        <time>2020-05-22T13:35:29Z</time>
      </trkpt>
      <trkpt lat="47.25322" lon="6.46989">
        <ele>601.4</ele>
        <time>2020-05-22T13:35:30Z</time>
      </trkpt>
      <trkpt lat="47.25321" lon="6.46991">
        <ele>601.6</ele>
        <time>2020-05-22T13:35:31Z</time>
      </trkpt>
      <trkpt lat="47.25321" lon="6.46994">
        <ele>601.6</ele>
        <time>2020-05-22T13:35:32Z</time>
      </trkpt>
      <trkpt lat="47.25321" lon="6.46996">
        <ele>602</ele>
        <time>2020-05-22T13:35:33Z</time>
      </trkpt>
      <trkpt lat="47.25321" lon="6.46998">
        <ele>602</ele>
        <time>2020-05-22T13:35:34Z</time>
      </trkpt>
      <trkpt lat="47.2532" lon="6.47001">
        <ele>602</ele>
        <time>2020-05-22T13:35:35Z</time>
      </trkpt>
      <trkpt lat="47.2532" lon="6.47004">
        <ele>602.2</ele>
        <time>2020-05-22T13:35:36Z</time>
      </trkpt>
      <trkpt lat="47.2532" lon="6.47006">
        <ele>602.2</ele>
        <time>2020-05-22T13:35:37Z</time>
      </trkpt>
      <trkpt lat="47.25319" lon="6.47009">
        <ele>602.2</ele>
        <time>2020-05-22T13:35:38Z</time>
      </trkpt>
      <trkpt lat="47.25319" lon="6.47011">
        <ele>602.6</ele>
        <time>2020-05-22T13:35:39Z</time>
      </trkpt>
      <trkpt lat="47.25318" lon="6.47014">
        <ele>602.6</ele>
        <time>2020-05-22T13:35:40Z</time>
      </trkpt>
      <trkpt lat="47.25317" lon="6.47016">
        <ele>602.6</ele>
        <time>2020-05-22T13:35:41Z</time>
      </trkpt>
      <trkpt lat="47.25317" lon="6.47018">
        <ele>602.8</ele>
        <time>2020-05-22T13:35:42Z</time>
      </trkpt>
      <trkpt lat="47.25316" lon="6.47021">
        <ele>602.8</ele>
        <time>2020-05-22T13:35:43Z</time>
      </trkpt>
      <trkpt lat="47.25316" lon="6.47024">
        <ele>603</ele>
        <time>2020-05-22T13:35:44Z</time>
      </trkpt>
      <trkpt lat="47.25316" lon="6.47026">
        <ele>603</ele>
        <time>2020-05-22T13:35:45Z</time>
      </trkpt>
      <trkpt lat="47.25315" lon="6.47028">
        <ele>603.2</ele>
        <time>2020-05-22T13:35:46Z</time>
      </trkpt>
      <trkpt lat="47.25315" lon="6.47031">
        <ele>603.2</ele>
        <time>2020-05-22T13:35:47Z</time>
      </trkpt>
      <trkpt lat="47.25314" lon="6.47033">
        <ele>603.2</ele>
        <time>2020-05-22T13:35:48Z</time>
      </trkpt>
      <trkpt lat="47.25314" lon="6.47035">
        <ele>603.6</ele>
        <time>2020-05-22T13:35:49Z</time>
      </trkpt>
      <trkpt lat="47.25314" lon="6.47038">
        <ele>603.6</ele>
        <time>2020-05-22T13:35:50Z</time>
      </trkpt>
      <trkpt lat="47.25313" lon="6.4704">
        <ele>603.8</ele>
        <time>2020-05-22T13:35:51Z</time>
      </trkpt>
      <trkpt lat="47.25313" lon="6.47042">
        <ele>603.8</ele>
        <time>2020-05-22T13:35:52Z</time>
      </trkpt>
      <trkpt lat="47.25312" lon="6.47044">
        <ele>604</ele>
        <time>2020-05-22T13:35:53Z</time>
      </trkpt>
      <trkpt lat="47.25312" lon="6.47047">
        <ele>604</ele>
        <time>2020-05-22T13:35:54Z</time>
      </trkpt>
      <trkpt lat="47.25312" lon="6.47049">
        <ele>604.2</ele>
        <time>2020-05-22T13:35:55Z</time>
      </trkpt>
      <trkpt lat="47.25311" lon="6.47051">
        <ele>604.2</ele>
        <time>2020-05-22T13:35:56Z</time>
      </trkpt>
      <trkpt lat="47.25311" lon="6.47054">
        <ele>604.4</ele>
        <time>2020-05-22T13:35:57Z</time>
      </trkpt>
      <trkpt lat="47.25311" lon="6.47054">
        <ele>604.4</ele>
        <time>2020-05-22T13:35:58Z</time>
      </trkpt>
      <trkpt lat="47.25311" lon="6.47058">
        <ele>604.8</ele>
        <time>2020-05-22T13:35:59Z</time>
      </trkpt>
      <trkpt lat="47.2531" lon="6.47061">
        <ele>604.8</ele>
        <time>2020-05-22T13:36:00Z</time>
      </trkpt>
      <trkpt lat="47.2531" lon="6.47063">
        <ele>605</ele>
        <time>2020-05-22T13:36:01Z</time>
      </trkpt>
      <trkpt lat="47.2531" lon="6.47066">
        <ele>605</ele>
        <time>2020-05-22T13:36:02Z</time>
      </trkpt>
      <trkpt lat="47.2531" lon="6.47068">
        <ele>605.4</ele>
        <time>2020-05-22T13:36:03Z</time>
      </trkpt>
      <trkpt lat="47.25309" lon="6.47071">
        <ele>605.4</ele>
        <time>2020-05-22T13:36:04Z</time>
      </trkpt>
      <trkpt lat="47.25309" lon="6.47073">
        <ele>605.8</ele>
        <time>2020-05-22T13:36:05Z</time>
      </trkpt>
      <trkpt lat="47.25308" lon="6.47076">
        <ele>605.8</ele>
        <time>2020-05-22T13:36:06Z</time>
      </trkpt>
      <trkpt lat="47.25308" lon="6.47078">
        <ele>606</ele>
        <time>2020-05-22T13:36:07Z</time>
      </trkpt>
      <trkpt lat="47.25308" lon="6.47081">
        <ele>606</ele>
        <time>2020-05-22T13:36:08Z</time>
      </trkpt>
      <trkpt lat="47.25307" lon="6.47083">
        <ele>606.4</ele>
        <time>2020-05-22T13:36:09Z</time>
      </trkpt>
      <trkpt lat="47.25307" lon="6.47085">
        <ele>606.4</ele>
        <time>2020-05-22T13:36:10Z</time>
      </trkpt>
      <trkpt lat="47.25306" lon="6.47088">
        <ele>606.6</ele>
        <time>2020-05-22T13:36:11Z</time>
      </trkpt>
      <trkpt lat="47.25306" lon="6.4709">
        <ele>606.6</ele>
        <time>2020-05-22T13:36:12Z</time>
      </trkpt>
      <trkpt lat="47.25306" lon="6.47093">
        <ele>607</ele>
        <time>2020-05-22T13:36:13Z</time>
      </trkpt>
      <trkpt lat="47.25305" lon="6.47095">
        <ele>607</ele>
        <time>2020-05-22T13:36:14Z</time>
      </trkpt>
      <trkpt lat="47.25305" lon="6.47097">
        <ele>607.2</ele>
        <time>2020-05-22T13:36:15Z</time>
      </trkpt>
      <trkpt lat="47.25305" lon="6.471">
        <ele>607.2</ele>
        <time>2020-05-22T13:36:16Z</time>
      </trkpt>
      <trkpt lat="47.25304" lon="6.47102">
        <ele>607.6</ele>
        <time>2020-05-22T13:36:17Z</time>
      </trkpt>
      <trkpt lat="47.25304" lon="6.47104">
        <ele>607.6</ele>
        <time>2020-05-22T13:36:18Z</time>
      </trkpt>
      <trkpt lat="47.25304" lon="6.47106">
        <ele>607.8</ele>
        <time>2020-05-22T13:36:19Z</time>
      </trkpt>
      <trkpt lat="47.25303" lon="6.47109">
        <ele>607.8</ele>
        <time>2020-05-22T13:36:20Z</time>
      </trkpt>
      <trkpt lat="47.25303" lon="6.47111">
        <ele>608.2</ele>
        <time>2020-05-22T13:36:21Z</time>
      </trkpt>
      <trkpt lat="47.25303" lon="6.47113">
        <ele>608.2</ele>
        <time>2020-05-22T13:36:22Z</time>
      </trkpt>
      <trkpt lat="47.25302" lon="6.47116">
        <ele>608.4</ele>
        <time>2020-05-22T13:36:23Z</time>
      </trkpt>
      <trkpt lat="47.25302" lon="6.47118">
        <ele>608.4</ele>
        <time>2020-05-22T13:36:24Z</time>
      </trkpt>
      <trkpt lat="47.25301" lon="6.4712">
        <ele>608.8</ele>
        <time>2020-05-22T13:36:25Z</time>
      </trkpt>
      <trkpt lat="47.253" lon="6.47123">
        <ele>609</ele>
        <time>2020-05-22T13:36:26Z</time>
      </trkpt>
      <trkpt lat="47.253" lon="6.47125">
        <ele>609</ele>
        <time>2020-05-22T13:36:27Z</time>
      </trkpt>
      <trkpt lat="47.253" lon="6.47127">
        <ele>609.2</ele>
        <time>2020-05-22T13:36:28Z</time>
      </trkpt>
      <trkpt lat="47.253" lon="6.47129">
        <ele>609.2</ele>
        <time>2020-05-22T13:36:29Z</time>
      </trkpt>
      <trkpt lat="47.25299" lon="6.47131">
        <ele>609.6</ele>
        <time>2020-05-22T13:36:30Z</time>
      </trkpt>
      <trkpt lat="47.25299" lon="6.47134">
        <ele>609.6</ele>
        <time>2020-05-22T13:36:31Z</time>
      </trkpt>
      <trkpt lat="47.25298" lon="6.47136">
        <ele>609.8</ele>
        <time>2020-05-22T13:36:32Z</time>
      </trkpt>
      <trkpt lat="47.25298" lon="6.47138">
        <ele>609.8</ele>
        <time>2020-05-22T13:36:33Z</time>
      </trkpt>
      <trkpt lat="47.25297" lon="6.47141">
        <ele>609.8</ele>
        <time>2020-05-22T13:36:34Z</time>
      </trkpt>
      <trkpt lat="47.25296" lon="6.47143">
        <ele>610</ele>
        <time>2020-05-22T13:36:35Z</time>
      </trkpt>
      <trkpt lat="47.25296" lon="6.47146">
        <ele>610</ele>
        <time>2020-05-22T13:36:36Z</time>
      </trkpt>
      <trkpt lat="47.25295" lon="6.47148">
        <ele>610.4</ele>
        <time>2020-05-22T13:36:37Z</time>
      </trkpt>
      <trkpt lat="47.25295" lon="6.47151">
        <ele>610.4</ele>
        <time>2020-05-22T13:36:38Z</time>
      </trkpt>
      <trkpt lat="47.25294" lon="6.47153">
        <ele>610.6</ele>
        <time>2020-05-22T13:36:39Z</time>
      </trkpt>
      <trkpt lat="47.25294" lon="6.47156">
        <ele>610.6</ele>
        <time>2020-05-22T13:36:40Z</time>
      </trkpt>
      <trkpt lat="47.25293" lon="6.47158">
        <ele>611</ele>
        <time>2020-05-22T13:36:41Z</time>
      </trkpt>
      <trkpt lat="47.25293" lon="6.47161">
        <ele>611</ele>
        <time>2020-05-22T13:36:42Z</time>
      </trkpt>
      <trkpt lat="47.25292" lon="6.47163">
        <ele>611.2</ele>
        <time>2020-05-22T13:36:43Z</time>
      </trkpt>
      <trkpt lat="47.25291" lon="6.47166">
        <ele>611.2</ele>
        <time>2020-05-22T13:36:44Z</time>
      </trkpt>
      <trkpt lat="47.25291" lon="6.47168">
        <ele>611.4</ele>
        <time>2020-05-22T13:36:45Z</time>
      </trkpt>
      <trkpt lat="47.2529" lon="6.4717">
        <ele>611.4</ele>
        <time>2020-05-22T13:36:46Z</time>
      </trkpt>
      <trkpt lat="47.25289" lon="6.47173">
        <ele>611.6</ele>
        <time>2020-05-22T13:36:47Z</time>
      </trkpt>
      <trkpt lat="47.25288" lon="6.47175">
        <ele>611.6</ele>
        <time>2020-05-22T13:36:48Z</time>
      </trkpt>
      <trkpt lat="47.25288" lon="6.47177">
        <ele>612</ele>
        <time>2020-05-22T13:36:49Z</time>
      </trkpt>
      <trkpt lat="47.25287" lon="6.47179">
        <ele>612</ele>
        <time>2020-05-22T13:36:50Z</time>
      </trkpt>
      <trkpt lat="47.25286" lon="6.4718">
        <ele>612.2</ele>
        <time>2020-05-22T13:36:51Z</time>
      </trkpt>
      <trkpt lat="47.25286" lon="6.47182">
        <ele>612.2</ele>
        <time>2020-05-22T13:36:52Z</time>
      </trkpt>
      <trkpt lat="47.25285" lon="6.47184">
        <ele>612.6</ele>
        <time>2020-05-22T13:36:53Z</time>
      </trkpt>
      <trkpt lat="47.25284" lon="6.47186">
        <ele>612.6</ele>
        <time>2020-05-22T13:36:54Z</time>
      </trkpt>
      <trkpt lat="47.25283" lon="6.47188">
        <ele>612.8</ele>
        <time>2020-05-22T13:36:55Z</time>
      </trkpt>
      <trkpt lat="47.25282" lon="6.4719">
        <ele>612.8</ele>
        <time>2020-05-22T13:36:56Z</time>
      </trkpt>
      <trkpt lat="47.25282" lon="6.47192">
        <ele>613.2</ele>
        <time>2020-05-22T13:36:57Z</time>
      </trkpt>
      <trkpt lat="47.25281" lon="6.47194">
        <ele>613.2</ele>
        <time>2020-05-22T13:36:58Z</time>
      </trkpt>
      <trkpt lat="47.2528" lon="6.47196">
        <ele>613.4</ele>
        <time>2020-05-22T13:36:59Z</time>
      </trkpt>
      <trkpt lat="47.25279" lon="6.47198">
        <ele>613.4</ele>
        <time>2020-05-22T13:37:00Z</time>
      </trkpt>
      <trkpt lat="47.25278" lon="6.472">
        <ele>613.4</ele>
        <time>2020-05-22T13:37:01Z</time>
      </trkpt>
      <trkpt lat="47.25277" lon="6.47202">
        <ele>613.8</ele>
        <time>2020-05-22T13:37:02Z</time>
      </trkpt>
      <trkpt lat="47.25276" lon="6.47204">
        <ele>614</ele>
        <time>2020-05-22T13:37:03Z</time>
      </trkpt>
      <trkpt lat="47.25276" lon="6.47206">
        <ele>614</ele>
        <time>2020-05-22T13:37:04Z</time>
      </trkpt>
      <trkpt lat="47.25275" lon="6.47208">
        <ele>614.2</ele>
        <time>2020-05-22T13:37:05Z</time>
      </trkpt>
      <trkpt lat="47.25274" lon="6.47211">
        <ele>614.2</ele>
        <time>2020-05-22T13:37:06Z</time>
      </trkpt>
      <trkpt lat="47.25273" lon="6.47213">
        <ele>614.4</ele>
        <time>2020-05-22T13:37:07Z</time>
      </trkpt>
      <trkpt lat="47.25272" lon="6.47215">
        <ele>614.4</ele>
        <time>2020-05-22T13:37:08Z</time>
      </trkpt>
      <trkpt lat="47.2527" lon="6.47216">
        <ele>614.6</ele>
        <time>2020-05-22T13:37:09Z</time>
      </trkpt>
      <trkpt lat="47.25269" lon="6.47218">
        <ele>614.6</ele>
        <time>2020-05-22T13:37:10Z</time>
      </trkpt>
      <trkpt lat="47.25269" lon="6.4722">
        <ele>614.8</ele>
        <time>2020-05-22T13:37:11Z</time>
      </trkpt>
      <trkpt lat="47.25268" lon="6.47222">
        <ele>614.8</ele>
        <time>2020-05-22T13:37:12Z</time>
      </trkpt>
      <trkpt lat="47.25267" lon="6.47224">
        <ele>615</ele>
        <time>2020-05-22T13:37:13Z</time>
      </trkpt>
      <trkpt lat="47.25266" lon="6.47226">
        <ele>615</ele>
        <time>2020-05-22T13:37:14Z</time>
      </trkpt>
      <trkpt lat="47.25265" lon="6.47228">
        <ele>615.4</ele>
        <time>2020-05-22T13:37:15Z</time>
      </trkpt>
      <trkpt lat="47.25264" lon="6.4723">
        <ele>615.4</ele>
        <time>2020-05-22T13:37:16Z</time>
      </trkpt>
      <trkpt lat="47.25263" lon="6.47232">
        <ele>615.4</ele>
        <time>2020-05-22T13:37:17Z</time>
      </trkpt>
      <trkpt lat="47.25262" lon="6.47234">
        <ele>615.6</ele>
        <time>2020-05-22T13:37:18Z</time>
      </trkpt>
      <trkpt lat="47.25262" lon="6.47236">
        <ele>615.6</ele>
        <time>2020-05-22T13:37:19Z</time>
      </trkpt>
      <trkpt lat="47.25261" lon="6.47238">
        <ele>615.6</ele>
        <time>2020-05-22T13:37:20Z</time>
      </trkpt>
      <trkpt lat="47.25261" lon="6.4724">
        <ele>615.8</ele>
        <time>2020-05-22T13:37:21Z</time>
      </trkpt>
      <trkpt lat="47.2526" lon="6.47242">
        <ele>615.8</ele>
        <time>2020-05-22T13:37:22Z</time>
      </trkpt>
      <trkpt lat="47.25259" lon="6.47244">
        <ele>616.2</ele>
        <time>2020-05-22T13:37:23Z</time>
      </trkpt>
      <trkpt lat="47.25258" lon="6.47246">
        <ele>616.2</ele>
        <time>2020-05-22T13:37:24Z</time>
      </trkpt>
      <trkpt lat="47.25257" lon="6.47248">
        <ele>616.4</ele>
        <time>2020-05-22T13:37:25Z</time>
      </trkpt>
      <trkpt lat="47.25257" lon="6.4725">
        <ele>616.4</ele>
        <time>2020-05-22T13:37:26Z</time>
      </trkpt>
      <trkpt lat="47.25255" lon="6.47251">
        <ele>616.6</ele>
        <time>2020-05-22T13:37:27Z</time>
      </trkpt>
      <trkpt lat="47.25254" lon="6.47253">
        <ele>616.6</ele>
        <time>2020-05-22T13:37:28Z</time>
      </trkpt>
      <trkpt lat="47.25254" lon="6.47255">
        <ele>617</ele>
        <time>2020-05-22T13:37:29Z</time>
      </trkpt>
      <trkpt lat="47.25253" lon="6.47257">
        <ele>617</ele>
        <time>2020-05-22T13:37:30Z</time>
      </trkpt>
      <trkpt lat="47.25252" lon="6.47259">
        <ele>617</ele>
        <time>2020-05-22T13:37:31Z</time>
      </trkpt>
      <trkpt lat="47.25251" lon="6.47262">
        <ele>617.2</ele>
        <time>2020-05-22T13:37:32Z</time>
      </trkpt>
      <trkpt lat="47.25251" lon="6.47264">
        <ele>617.2</ele>
        <time>2020-05-22T13:37:33Z</time>
      </trkpt>
      <trkpt lat="47.2525" lon="6.47266">
        <ele>617.6</ele>
        <time>2020-05-22T13:37:34Z</time>
      </trkpt>
      <trkpt lat="47.2525" lon="6.47268">
        <ele>617.6</ele>
        <time>2020-05-22T13:37:35Z</time>
      </trkpt>
      <trkpt lat="47.25248" lon="6.47271">
        <ele>617.8</ele>
        <time>2020-05-22T13:37:36Z</time>
      </trkpt>
      <trkpt lat="47.25248" lon="6.47273">
        <ele>617.8</ele>
        <time>2020-05-22T13:37:37Z</time>
      </trkpt>
      <trkpt lat="47.25247" lon="6.47275">
        <ele>618.2</ele>
        <time>2020-05-22T13:37:38Z</time>
      </trkpt>
      <trkpt lat="47.25246" lon="6.47277">
        <ele>618.2</ele>
        <time>2020-05-22T13:37:39Z</time>
      </trkpt>
      <trkpt lat="47.25246" lon="6.4728">
        <ele>618.4</ele>
        <time>2020-05-22T13:37:40Z</time>
      </trkpt>
      <trkpt lat="47.25245" lon="6.47282">
        <ele>618.4</ele>
        <time>2020-05-22T13:37:41Z</time>
      </trkpt>
      <trkpt lat="47.25245" lon="6.47284">
        <ele>618.8</ele>
        <time>2020-05-22T13:37:42Z</time>
      </trkpt>
      <trkpt lat="47.25245" lon="6.47287">
        <ele>618.8</ele>
        <time>2020-05-22T13:37:43Z</time>
      </trkpt>
      <trkpt lat="47.25244" lon="6.47289">
        <ele>619.2</ele>
        <time>2020-05-22T13:37:44Z</time>
      </trkpt>
      <trkpt lat="47.25244" lon="6.47291">
        <ele>619.2</ele>
        <time>2020-05-22T13:37:45Z</time>
      </trkpt>
      <trkpt lat="47.25244" lon="6.47294">
        <ele>619.4</ele>
        <time>2020-05-22T13:37:46Z</time>
      </trkpt>
      <trkpt lat="47.25244" lon="6.47296">
        <ele>619.4</ele>
        <time>2020-05-22T13:37:47Z</time>
      </trkpt>
      <trkpt lat="47.25243" lon="6.47298">
        <ele>619.6</ele>
        <time>2020-05-22T13:37:48Z</time>
      </trkpt>
      <trkpt lat="47.25243" lon="6.47301">
        <ele>619.6</ele>
        <time>2020-05-22T13:37:49Z</time>
      </trkpt>
      <trkpt lat="47.25243" lon="6.47303">
        <ele>619.8</ele>
        <time>2020-05-22T13:37:50Z</time>
      </trkpt>
      <trkpt lat="47.25243" lon="6.47306">
        <ele>619.8</ele>
        <time>2020-05-22T13:37:51Z</time>
      </trkpt>
      <trkpt lat="47.25243" lon="6.47308">
        <ele>620</ele>
        <time>2020-05-22T13:37:52Z</time>
      </trkpt>
      <trkpt lat="47.25242" lon="6.4731">
        <ele>620</ele>
        <time>2020-05-22T13:37:53Z</time>
      </trkpt>
      <trkpt lat="47.25242" lon="6.47313">
        <ele>620.4</ele>
        <time>2020-05-22T13:37:54Z</time>
      </trkpt>
      <trkpt lat="47.25242" lon="6.47315">
        <ele>620.4</ele>
        <time>2020-05-22T13:37:55Z</time>
      </trkpt>
      <trkpt lat="47.25242" lon="6.47318">
        <ele>620.8</ele>
        <time>2020-05-22T13:37:56Z</time>
      </trkpt>
      <trkpt lat="47.25242" lon="6.4732">
        <ele>620.8</ele>
        <time>2020-05-22T13:37:57Z</time>
      </trkpt>
      <trkpt lat="47.25242" lon="6.47323">
        <ele>621</ele>
        <time>2020-05-22T13:37:58Z</time>
      </trkpt>
      <trkpt lat="47.25242" lon="6.47325">
        <ele>621</ele>
        <time>2020-05-22T13:37:59Z</time>
      </trkpt>
      <trkpt lat="47.25241" lon="6.47328">
        <ele>621.4</ele>
        <time>2020-05-22T13:38:00Z</time>
      </trkpt>
      <trkpt lat="47.25241" lon="6.4733">
        <ele>621.4</ele>
        <time>2020-05-22T13:38:01Z</time>
      </trkpt>
      <trkpt lat="47.25241" lon="6.47333">
        <ele>621.6</ele>
        <time>2020-05-22T13:38:02Z</time>
      </trkpt>
      <trkpt lat="47.25241" lon="6.47335">
        <ele>621.6</ele>
        <time>2020-05-22T13:38:03Z</time>
      </trkpt>
      <trkpt lat="47.25241" lon="6.47338">
        <ele>621.6</ele>
        <time>2020-05-22T13:38:04Z</time>
      </trkpt>
      <trkpt lat="47.25242" lon="6.4734">
        <ele>622</ele>
        <time>2020-05-22T13:38:05Z</time>
      </trkpt>
      <trkpt lat="47.25242" lon="6.47343">
        <ele>622</ele>
        <time>2020-05-22T13:38:06Z</time>
      </trkpt>
      <trkpt lat="47.25242" lon="6.47345">
        <ele>622.2</ele>
        <time>2020-05-22T13:38:07Z</time>
      </trkpt>
      <trkpt lat="47.25242" lon="6.47348">
        <ele>622.2</ele>
        <time>2020-05-22T13:38:08Z</time>
      </trkpt>
      <trkpt lat="47.25243" lon="6.4735">
        <ele>622.4</ele>
        <time>2020-05-22T13:38:09Z</time>
      </trkpt>
      <trkpt lat="47.25243" lon="6.47353">
        <ele>622.4</ele>
        <time>2020-05-22T13:38:10Z</time>
      </trkpt>
      <trkpt lat="47.25243" lon="6.47355">
        <ele>622.8</ele>
        <time>2020-05-22T13:38:11Z</time>
      </trkpt>
      <trkpt lat="47.25243" lon="6.47358">
        <ele>622.8</ele>
        <time>2020-05-22T13:38:12Z</time>
      </trkpt>
      <trkpt lat="47.25243" lon="6.4736">
        <ele>623</ele>
        <time>2020-05-22T13:38:13Z</time>
      </trkpt>
      <trkpt lat="47.25243" lon="6.47362">
        <ele>623</ele>
        <time>2020-05-22T13:38:14Z</time>
      </trkpt>
      <trkpt lat="47.25244" lon="6.47365">
        <ele>623.4</ele>
        <time>2020-05-22T13:38:15Z</time>
      </trkpt>
      <trkpt lat="47.25244" lon="6.47367">
        <ele>623.4</ele>
        <time>2020-05-22T13:38:16Z</time>
      </trkpt>
      <trkpt lat="47.25245" lon="6.47369">
        <ele>623.6</ele>
        <time>2020-05-22T13:38:17Z</time>
      </trkpt>
      <trkpt lat="47.25245" lon="6.47371">
        <ele>623.6</ele>
        <time>2020-05-22T13:38:18Z</time>
      </trkpt>
      <trkpt lat="47.25246" lon="6.47374">
        <ele>623.8</ele>
        <time>2020-05-22T13:38:19Z</time>
      </trkpt>
      <trkpt lat="47.25246" lon="6.47376">
        <ele>623.8</ele>
        <time>2020-05-22T13:38:20Z</time>
      </trkpt>
      <trkpt lat="47.25246" lon="6.47378">
        <ele>624</ele>
        <time>2020-05-22T13:38:21Z</time>
      </trkpt>
      <trkpt lat="47.25247" lon="6.47381">
        <ele>624</ele>
        <time>2020-05-22T13:38:22Z</time>
      </trkpt>
      <trkpt lat="47.25247" lon="6.47383">
        <ele>624.4</ele>
        <time>2020-05-22T13:38:23Z</time>
      </trkpt>
      <trkpt lat="47.25248" lon="6.47385">
        <ele>624.6</ele>
        <time>2020-05-22T13:38:24Z</time>
      </trkpt>
      <trkpt lat="47.25248" lon="6.47387">
        <ele>624.6</ele>
        <time>2020-05-22T13:38:25Z</time>
      </trkpt>
      <trkpt lat="47.25248" lon="6.47389">
        <ele>624.6</ele>
        <time>2020-05-22T13:38:26Z</time>
      </trkpt>
      <trkpt lat="47.25249" lon="6.47392">
        <ele>624.8</ele>
        <time>2020-05-22T13:38:27Z</time>
      </trkpt>
      <trkpt lat="47.25249" lon="6.47394">
        <ele>624.8</ele>
        <time>2020-05-22T13:38:28Z</time>
      </trkpt>
      <trkpt lat="47.25249" lon="6.47396">
        <ele>625.2</ele>
        <time>2020-05-22T13:38:29Z</time>
      </trkpt>
      <trkpt lat="47.2525" lon="6.47398">
        <ele>625.2</ele>
        <time>2020-05-22T13:38:30Z</time>
      </trkpt>
      <trkpt lat="47.2525" lon="6.474">
        <ele>625.4</ele>
        <time>2020-05-22T13:38:31Z</time>
      </trkpt>
      <trkpt lat="47.2525" lon="6.47402">
        <ele>625.4</ele>
        <time>2020-05-22T13:38:32Z</time>
      </trkpt>
      <trkpt lat="47.25251" lon="6.47405">
        <ele>625.8</ele>
        <time>2020-05-22T13:38:33Z</time>
      </trkpt>
      <trkpt lat="47.25251" lon="6.47407">
        <ele>625.8</ele>
        <time>2020-05-22T13:38:34Z</time>
      </trkpt>
      <trkpt lat="47.25251" lon="6.47409">
        <ele>626</ele>
        <time>2020-05-22T13:38:35Z</time>
      </trkpt>
      <trkpt lat="47.25251" lon="6.47412">
        <ele>626</ele>
        <time>2020-05-22T13:38:36Z</time>
      </trkpt>
      <trkpt lat="47.25252" lon="6.47414">
        <ele>626</ele>
        <time>2020-05-22T13:38:37Z</time>
      </trkpt>
      <trkpt lat="47.25252" lon="6.47416">
        <ele>626.2</ele>
        <time>2020-05-22T13:38:38Z</time>
      </trkpt>
      <trkpt lat="47.25253" lon="6.47418">
        <ele>626.2</ele>
        <time>2020-05-22T13:38:39Z</time>
      </trkpt>
      <trkpt lat="47.25254" lon="6.4742">
        <ele>626.2</ele>
        <time>2020-05-22T13:38:40Z</time>
      </trkpt>
      <trkpt lat="47.25254" lon="6.47423">
        <ele>626.6</ele>
        <time>2020-05-22T13:38:41Z</time>
      </trkpt>
      <trkpt lat="47.25255" lon="6.47425">
        <ele>626.6</ele>
        <time>2020-05-22T13:38:42Z</time>
      </trkpt>
      <trkpt lat="47.25256" lon="6.47427">
        <ele>626.8</ele>
        <time>2020-05-22T13:38:43Z</time>
      </trkpt>
      <trkpt lat="47.25256" lon="6.4743">
        <ele>626.8</ele>
        <time>2020-05-22T13:38:44Z</time>
      </trkpt>
      <trkpt lat="47.25257" lon="6.47432">
        <ele>627</ele>
        <time>2020-05-22T13:38:45Z</time>
      </trkpt>
      <trkpt lat="47.25258" lon="6.47434">
        <ele>627</ele>
        <time>2020-05-22T13:38:46Z</time>
      </trkpt>
      <trkpt lat="47.25259" lon="6.47436">
        <ele>627.2</ele>
        <time>2020-05-22T13:38:47Z</time>
      </trkpt>
      <trkpt lat="47.25259" lon="6.47438">
        <ele>627.2</ele>
        <time>2020-05-22T13:38:48Z</time>
      </trkpt>
      <trkpt lat="47.2526" lon="6.4744">
        <ele>627.4</ele>
        <time>2020-05-22T13:38:49Z</time>
      </trkpt>
      <trkpt lat="47.25261" lon="6.47442">
        <ele>627.4</ele>
        <time>2020-05-22T13:38:50Z</time>
      </trkpt>
      <trkpt lat="47.25261" lon="6.47445">
        <ele>627.4</ele>
        <time>2020-05-22T13:38:51Z</time>
      </trkpt>
      <trkpt lat="47.25262" lon="6.47447">
        <ele>627.6</ele>
        <time>2020-05-22T13:38:52Z</time>
      </trkpt>
      <trkpt lat="47.25263" lon="6.47449">
        <ele>627.6</ele>
        <time>2020-05-22T13:38:53Z</time>
      </trkpt>
      <trkpt lat="47.25264" lon="6.47451">
        <ele>627.6</ele>
        <time>2020-05-22T13:38:54Z</time>
      </trkpt>
      <trkpt lat="47.25264" lon="6.47453">
        <ele>628</ele>
        <time>2020-05-22T13:38:55Z</time>
      </trkpt>
      <trkpt lat="47.25265" lon="6.47455">
        <ele>628</ele>
        <time>2020-05-22T13:38:56Z</time>
      </trkpt>
      <trkpt lat="47.25265" lon="6.47457">
        <ele>628.2</ele>
        <time>2020-05-22T13:38:57Z</time>
      </trkpt>
      <trkpt lat="47.25266" lon="6.4746">
        <ele>628.2</ele>
        <time>2020-05-22T13:38:58Z</time>
      </trkpt>
      <trkpt lat="47.25266" lon="6.47462">
        <ele>628.4</ele>
        <time>2020-05-22T13:38:59Z</time>
      </trkpt>
      <trkpt lat="47.25266" lon="6.47464">
        <ele>628.4</ele>
        <time>2020-05-22T13:39:00Z</time>
      </trkpt>
      <trkpt lat="47.25266" lon="6.47466">
        <ele>628.4</ele>
        <time>2020-05-22T13:39:01Z</time>
      </trkpt>
      <trkpt lat="47.25267" lon="6.47469">
        <ele>628.8</ele>
        <time>2020-05-22T13:39:02Z</time>
      </trkpt>
      <trkpt lat="47.25267" lon="6.47471">
        <ele>628.8</ele>
        <time>2020-05-22T13:39:03Z</time>
      </trkpt>
      <trkpt lat="47.25268" lon="6.47473">
        <ele>629</ele>
        <time>2020-05-22T13:39:04Z</time>
      </trkpt>
      <trkpt lat="47.25268" lon="6.47475">
        <ele>629</ele>
        <time>2020-05-22T13:39:05Z</time>
      </trkpt>
      <trkpt lat="47.25269" lon="6.47478">
        <ele>629.2</ele>
        <time>2020-05-22T13:39:06Z</time>
      </trkpt>
      <trkpt lat="47.2527" lon="6.4748">
        <ele>629.2</ele>
        <time>2020-05-22T13:39:07Z</time>
      </trkpt>
      <trkpt lat="47.25271" lon="6.47483">
        <ele>629.6</ele>
        <time>2020-05-22T13:39:08Z</time>
      </trkpt>
      <trkpt lat="47.25271" lon="6.47485">
        <ele>629.6</ele>
        <time>2020-05-22T13:39:09Z</time>
      </trkpt>
      <trkpt lat="47.25272" lon="6.47488">
        <ele>629.8</ele>
        <time>2020-05-22T13:39:10Z</time>
      </trkpt>
      <trkpt lat="47.25273" lon="6.4749">
        <ele>629.8</ele>
        <time>2020-05-22T13:39:11Z</time>
      </trkpt>
      <trkpt lat="47.25274" lon="6.47492">
        <ele>630.2</ele>
        <time>2020-05-22T13:39:12Z</time>
      </trkpt>
      <trkpt lat="47.25274" lon="6.47495">
        <ele>630.2</ele>
        <time>2020-05-22T13:39:13Z</time>
      </trkpt>
      <trkpt lat="47.25275" lon="6.47497">
        <ele>630.4</ele>
        <time>2020-05-22T13:39:14Z</time>
      </trkpt>
      <trkpt lat="47.25275" lon="6.47499">
        <ele>630.4</ele>
        <time>2020-05-22T13:39:15Z</time>
      </trkpt>
      <trkpt lat="47.25276" lon="6.47502">
        <ele>630.6</ele>
        <time>2020-05-22T13:39:16Z</time>
      </trkpt>
      <trkpt lat="47.25277" lon="6.47504">
        <ele>630.6</ele>
        <time>2020-05-22T13:39:17Z</time>
      </trkpt>
      <trkpt lat="47.25278" lon="6.47506">
        <ele>631</ele>
        <time>2020-05-22T13:39:18Z</time>
      </trkpt>
      <trkpt lat="47.25278" lon="6.47508">
        <ele>631</ele>
        <time>2020-05-22T13:39:19Z</time>
      </trkpt>
      <trkpt lat="47.25279" lon="6.47511">
        <ele>631.2</ele>
        <time>2020-05-22T13:39:20Z</time>
      </trkpt>
      <trkpt lat="47.2528" lon="6.47513">
        <ele>631.2</ele>
        <time>2020-05-22T13:39:21Z</time>
      </trkpt>
      <trkpt lat="47.2528" lon="6.47515">
        <ele>631.4</ele>
        <time>2020-05-22T13:39:22Z</time>
      </trkpt>
      <trkpt lat="47.25281" lon="6.47518">
        <ele>631.4</ele>
        <time>2020-05-22T13:39:23Z</time>
      </trkpt>
      <trkpt lat="47.25281" lon="6.4752">
        <ele>631.8</ele>
        <time>2020-05-22T13:39:24Z</time>
      </trkpt>
      <trkpt lat="47.25282" lon="6.47522">
        <ele>631.8</ele>
        <time>2020-05-22T13:39:25Z</time>
      </trkpt>
      <trkpt lat="47.25282" lon="6.47524">
        <ele>632</ele>
        <time>2020-05-22T13:39:26Z</time>
      </trkpt>
      <trkpt lat="47.25283" lon="6.47527">
        <ele>632</ele>
        <time>2020-05-22T13:39:27Z</time>
      </trkpt>
      <trkpt lat="47.25284" lon="6.47529">
        <ele>632.4</ele>
        <time>2020-05-22T13:39:28Z</time>
      </trkpt>
      <trkpt lat="47.25284" lon="6.47531">
        <ele>632.4</ele>
        <time>2020-05-22T13:39:29Z</time>
      </trkpt>
      <trkpt lat="47.25284" lon="6.47534">
        <ele>632.8</ele>
        <time>2020-05-22T13:39:30Z</time>
      </trkpt>
      <trkpt lat="47.25285" lon="6.47536">
        <ele>632.8</ele>
        <time>2020-05-22T13:39:31Z</time>
      </trkpt>
      <trkpt lat="47.25286" lon="6.47538">
        <ele>633</ele>
        <time>2020-05-22T13:39:32Z</time>
      </trkpt>
      <trkpt lat="47.25286" lon="6.47541">
        <ele>633</ele>
        <time>2020-05-22T13:39:33Z</time>
      </trkpt>
      <trkpt lat="47.25287" lon="6.47543">
        <ele>633.2</ele>
        <time>2020-05-22T13:39:34Z</time>
      </trkpt>
      <trkpt lat="47.25288" lon="6.47546">
        <ele>633.2</ele>
        <time>2020-05-22T13:39:35Z</time>
      </trkpt>
      <trkpt lat="47.25288" lon="6.47548">
        <ele>633.6</ele>
        <time>2020-05-22T13:39:36Z</time>
      </trkpt>
      <trkpt lat="47.2529" lon="6.47551">
        <ele>633.6</ele>
        <time>2020-05-22T13:39:37Z</time>
      </trkpt>
      <trkpt lat="47.25291" lon="6.47554">
        <ele>633.8</ele>
        <time>2020-05-22T13:39:38Z</time>
      </trkpt>
      <trkpt lat="47.25292" lon="6.47556">
        <ele>633.8</ele>
        <time>2020-05-22T13:39:39Z</time>
      </trkpt>
      <trkpt lat="47.25292" lon="6.47559">
        <ele>634.2</ele>
        <time>2020-05-22T13:39:40Z</time>
      </trkpt>
      <trkpt lat="47.25293" lon="6.47562">
        <ele>634.2</ele>
        <time>2020-05-22T13:39:41Z</time>
      </trkpt>
      <trkpt lat="47.25294" lon="6.47564">
        <ele>634.4</ele>
        <time>2020-05-22T13:39:42Z</time>
      </trkpt>
      <trkpt lat="47.25295" lon="6.47567">
        <ele>634.4</ele>
        <time>2020-05-22T13:39:43Z</time>
      </trkpt>
      <trkpt lat="47.25296" lon="6.4757">
        <ele>634.6</ele>
        <time>2020-05-22T13:39:44Z</time>
      </trkpt>
      <trkpt lat="47.25297" lon="6.47572">
        <ele>634.6</ele>
        <time>2020-05-22T13:39:45Z</time>
      </trkpt>
      <trkpt lat="47.25297" lon="6.47575">
        <ele>635</ele>
        <time>2020-05-22T13:39:46Z</time>
      </trkpt>
      <trkpt lat="47.25298" lon="6.47577">
        <ele>635</ele>
        <time>2020-05-22T13:39:47Z</time>
      </trkpt>
      <trkpt lat="47.25298" lon="6.4758">
        <ele>635.2</ele>
        <time>2020-05-22T13:39:48Z</time>
      </trkpt>
      <trkpt lat="47.25299" lon="6.47582">
        <ele>635.2</ele>
        <time>2020-05-22T13:39:49Z</time>
      </trkpt>
      <trkpt lat="47.25299" lon="6.47585">
        <ele>635.6</ele>
        <time>2020-05-22T13:39:50Z</time>
      </trkpt>
      <trkpt lat="47.253" lon="6.47588">
        <ele>635.6</ele>
        <time>2020-05-22T13:39:51Z</time>
      </trkpt>
      <trkpt lat="47.25301" lon="6.4759">
        <ele>635.8</ele>
        <time>2020-05-22T13:39:52Z</time>
      </trkpt>
      <trkpt lat="47.25302" lon="6.47592">
        <ele>635.8</ele>
        <time>2020-05-22T13:39:53Z</time>
      </trkpt>
      <trkpt lat="47.25303" lon="6.47595">
        <ele>636</ele>
        <time>2020-05-22T13:39:54Z</time>
      </trkpt>
      <trkpt lat="47.25303" lon="6.47597">
        <ele>636</ele>
        <time>2020-05-22T13:39:55Z</time>
      </trkpt>
      <trkpt lat="47.25304" lon="6.476">
        <ele>636.2</ele>
        <time>2020-05-22T13:39:56Z</time>
      </trkpt>
      <trkpt lat="47.25305" lon="6.47602">
        <ele>636.2</ele>
        <time>2020-05-22T13:39:57Z</time>
      </trkpt>
      <trkpt lat="47.25306" lon="6.47604">
        <ele>636.4</ele>
        <time>2020-05-22T13:39:58Z</time>
      </trkpt>
      <trkpt lat="47.25306" lon="6.47607">
        <ele>636.4</ele>
        <time>2020-05-22T13:39:59Z</time>
      </trkpt>
      <trkpt lat="47.25307" lon="6.47609">
        <ele>636.8</ele>
        <time>2020-05-22T13:40:00Z</time>
      </trkpt>
      <trkpt lat="47.25308" lon="6.47611">
        <ele>636.8</ele>
        <time>2020-05-22T13:40:01Z</time>
      </trkpt>
      <trkpt lat="47.25309" lon="6.47614">
        <ele>636.8</ele>
        <time>2020-05-22T13:40:02Z</time>
      </trkpt>
      <trkpt lat="47.2531" lon="6.47616">
        <ele>637</ele>
        <time>2020-05-22T13:40:03Z</time>
      </trkpt>
      <trkpt lat="47.25311" lon="6.47618">
        <ele>637</ele>
        <time>2020-05-22T13:40:04Z</time>
      </trkpt>
      <trkpt lat="47.25311" lon="6.4762">
        <ele>637.2</ele>
        <time>2020-05-22T13:40:05Z</time>
      </trkpt>
      <trkpt lat="47.25312" lon="6.47622">
        <ele>637.2</ele>
        <time>2020-05-22T13:40:06Z</time>
      </trkpt>
      <trkpt lat="47.25313" lon="6.47624">
        <ele>637.6</ele>
        <time>2020-05-22T13:40:07Z</time>
      </trkpt>
      <trkpt lat="47.25314" lon="6.47626">
        <ele>637.6</ele>
        <time>2020-05-22T13:40:08Z</time>
      </trkpt>
      <trkpt lat="47.25315" lon="6.47628">
        <ele>637.8</ele>
        <time>2020-05-22T13:40:09Z</time>
      </trkpt>
      <trkpt lat="47.25315" lon="6.47631">
        <ele>637.8</ele>
        <time>2020-05-22T13:40:10Z</time>
      </trkpt>
      <trkpt lat="47.25316" lon="6.47633">
        <ele>638</ele>
        <time>2020-05-22T13:40:11Z</time>
      </trkpt>
      <trkpt lat="47.25317" lon="6.47635">
        <ele>638</ele>
        <time>2020-05-22T13:40:12Z</time>
      </trkpt>
      <trkpt lat="47.25318" lon="6.47637">
        <ele>638.4</ele>
        <time>2020-05-22T13:40:13Z</time>
      </trkpt>
      <trkpt lat="47.25319" lon="6.4764">
        <ele>638.4</ele>
        <time>2020-05-22T13:40:14Z</time>
      </trkpt>
      <trkpt lat="47.25319" lon="6.47642">
        <ele>638.6</ele>
        <time>2020-05-22T13:40:15Z</time>
      </trkpt>
      <trkpt lat="47.2532" lon="6.47644">
        <ele>638.6</ele>
        <time>2020-05-22T13:40:16Z</time>
      </trkpt>
      <trkpt lat="47.2532" lon="6.47647">
        <ele>639</ele>
        <time>2020-05-22T13:40:17Z</time>
      </trkpt>
      <trkpt lat="47.25321" lon="6.47649">
        <ele>639</ele>
        <time>2020-05-22T13:40:18Z</time>
      </trkpt>
      <trkpt lat="47.25322" lon="6.47651">
        <ele>639.2</ele>
        <time>2020-05-22T13:40:19Z</time>
      </trkpt>
      <trkpt lat="47.25323" lon="6.47653">
        <ele>639.2</ele>
        <time>2020-05-22T13:40:20Z</time>
      </trkpt>
      <trkpt lat="47.25323" lon="6.47655">
        <ele>639.4</ele>
        <time>2020-05-22T13:40:21Z</time>
      </trkpt>
      <trkpt lat="47.25324" lon="6.47657">
        <ele>639.4</ele>
        <time>2020-05-22T13:40:22Z</time>
      </trkpt>
      <trkpt lat="47.25325" lon="6.47659">
        <ele>639.6</ele>
        <time>2020-05-22T13:40:23Z</time>
      </trkpt>
      <trkpt lat="47.25325" lon="6.47661">
        <ele>639.6</ele>
        <time>2020-05-22T13:40:24Z</time>
      </trkpt>
      <trkpt lat="47.25326" lon="6.47664">
        <ele>640</ele>
        <time>2020-05-22T13:40:25Z</time>
      </trkpt>
      <trkpt lat="47.25327" lon="6.47666">
        <ele>640</ele>
        <time>2020-05-22T13:40:26Z</time>
      </trkpt>
      <trkpt lat="47.25328" lon="6.47668">
        <ele>640.2</ele>
        <time>2020-05-22T13:40:27Z</time>
      </trkpt>
      <trkpt lat="47.25329" lon="6.4767">
        <ele>640.2</ele>
        <time>2020-05-22T13:40:28Z</time>
      </trkpt>
      <trkpt lat="47.2533" lon="6.47672">
        <ele>640.4</ele>
        <time>2020-05-22T13:40:29Z</time>
      </trkpt>
      <trkpt lat="47.25331" lon="6.47675">
        <ele>640.4</ele>
        <time>2020-05-22T13:40:30Z</time>
      </trkpt>
      <trkpt lat="47.25332" lon="6.47677">
        <ele>640.4</ele>
        <time>2020-05-22T13:40:31Z</time>
      </trkpt>
      <trkpt lat="47.25332" lon="6.47679">
        <ele>640.6</ele>
        <time>2020-05-22T13:40:32Z</time>
      </trkpt>
      <trkpt lat="47.25333" lon="6.47681">
        <ele>640.6</ele>
        <time>2020-05-22T13:40:33Z</time>
      </trkpt>
      <trkpt lat="47.25334" lon="6.47683">
        <ele>641</ele>
        <time>2020-05-22T13:40:34Z</time>
      </trkpt>
      <trkpt lat="47.25335" lon="6.47685">
        <ele>641</ele>
        <time>2020-05-22T13:40:35Z</time>
      </trkpt>
      <trkpt lat="47.25335" lon="6.47687">
        <ele>641.2</ele>
        <time>2020-05-22T13:40:36Z</time>
      </trkpt>
      <trkpt lat="47.25336" lon="6.4769">
        <ele>641.2</ele>
        <time>2020-05-22T13:40:37Z</time>
      </trkpt>
      <trkpt lat="47.25336" lon="6.47692">
        <ele>641.4</ele>
        <time>2020-05-22T13:40:38Z</time>
      </trkpt>
      <trkpt lat="47.25337" lon="6.47695">
        <ele>641.4</ele>
        <time>2020-05-22T13:40:39Z</time>
      </trkpt>
      <trkpt lat="47.25338" lon="6.47697">
        <ele>641.6</ele>
        <time>2020-05-22T13:40:40Z</time>
      </trkpt>
      <trkpt lat="47.25339" lon="6.477">
        <ele>641.6</ele>
        <time>2020-05-22T13:40:41Z</time>
      </trkpt>
      <trkpt lat="47.25339" lon="6.47702">
        <ele>641.6</ele>
        <time>2020-05-22T13:40:42Z</time>
      </trkpt>
      <trkpt lat="47.2534" lon="6.47704">
        <ele>642</ele>
        <time>2020-05-22T13:40:43Z</time>
      </trkpt>
      <trkpt lat="47.25341" lon="6.47706">
        <ele>642</ele>
        <time>2020-05-22T13:40:44Z</time>
      </trkpt>
      <trkpt lat="47.25342" lon="6.47709">
        <ele>642.2</ele>
        <time>2020-05-22T13:40:45Z</time>
      </trkpt>
      <trkpt lat="47.25342" lon="6.47711">
        <ele>642.2</ele>
        <time>2020-05-22T13:40:46Z</time>
      </trkpt>
      <trkpt lat="47.25343" lon="6.47713">
        <ele>642.4</ele>
        <time>2020-05-22T13:40:47Z</time>
      </trkpt>
      <trkpt lat="47.25343" lon="6.47716">
        <ele>642.6</ele>
        <time>2020-05-22T13:40:48Z</time>
      </trkpt>
      <trkpt lat="47.25344" lon="6.47718">
        <ele>642.6</ele>
        <time>2020-05-22T13:40:49Z</time>
      </trkpt>
      <trkpt lat="47.25345" lon="6.47721">
        <ele>643</ele>
        <time>2020-05-22T13:40:50Z</time>
      </trkpt>
      <trkpt lat="47.25346" lon="6.47723">
        <ele>643</ele>
        <time>2020-05-22T13:40:51Z</time>
      </trkpt>
      <trkpt lat="47.25346" lon="6.47725">
        <ele>643.2</ele>
        <time>2020-05-22T13:40:52Z</time>
      </trkpt>
      <trkpt lat="47.25347" lon="6.47728">
        <ele>643.2</ele>
        <time>2020-05-22T13:40:53Z</time>
      </trkpt>
      <trkpt lat="47.25347" lon="6.4773">
        <ele>643.4</ele>
        <time>2020-05-22T13:40:54Z</time>
      </trkpt>
      <trkpt lat="47.25348" lon="6.47733">
        <ele>643.4</ele>
        <time>2020-05-22T13:40:55Z</time>
      </trkpt>
      <trkpt lat="47.25348" lon="6.47735">
        <ele>643.6</ele>
        <time>2020-05-22T13:40:56Z</time>
      </trkpt>
      <trkpt lat="47.25349" lon="6.47738">
        <ele>643.6</ele>
        <time>2020-05-22T13:40:57Z</time>
      </trkpt>
      <trkpt lat="47.2535" lon="6.4774">
        <ele>644</ele>
        <time>2020-05-22T13:40:58Z</time>
      </trkpt>
      <trkpt lat="47.2535" lon="6.47743">
        <ele>644</ele>
        <time>2020-05-22T13:40:59Z</time>
      </trkpt>
      <trkpt lat="47.25351" lon="6.47745">
        <ele>644</ele>
        <time>2020-05-22T13:41:00Z</time>
      </trkpt>
      <trkpt lat="47.25352" lon="6.47748">
        <ele>644.2</ele>
        <time>2020-05-22T13:41:01Z</time>
      </trkpt>
      <trkpt lat="47.25352" lon="6.4775">
        <ele>644.2</ele>
        <time>2020-05-22T13:41:02Z</time>
      </trkpt>
      <trkpt lat="47.25353" lon="6.47753">
        <ele>644.6</ele>
        <time>2020-05-22T13:41:03Z</time>
      </trkpt>
      <trkpt lat="47.25354" lon="6.47755">
        <ele>644.6</ele>
        <time>2020-05-22T13:41:04Z</time>
      </trkpt>
      <trkpt lat="47.25355" lon="6.47758">
        <ele>645</ele>
        <time>2020-05-22T13:41:05Z</time>
      </trkpt>
      <trkpt lat="47.25356" lon="6.4776">
        <ele>645</ele>
        <time>2020-05-22T13:41:06Z</time>
      </trkpt>
      <trkpt lat="47.25357" lon="6.47763">
        <ele>645.2</ele>
        <time>2020-05-22T13:41:07Z</time>
      </trkpt>
      <trkpt lat="47.25358" lon="6.47765">
        <ele>645.2</ele>
        <time>2020-05-22T13:41:08Z</time>
      </trkpt>
      <trkpt lat="47.25358" lon="6.47768">
        <ele>645.4</ele>
        <time>2020-05-22T13:41:09Z</time>
      </trkpt>
      <trkpt lat="47.25359" lon="6.4777">
        <ele>645.4</ele>
        <time>2020-05-22T13:41:10Z</time>
      </trkpt>
      <trkpt lat="47.2536" lon="6.47773">
        <ele>645.6</ele>
        <time>2020-05-22T13:41:11Z</time>
      </trkpt>
      <trkpt lat="47.25361" lon="6.47776">
        <ele>645.8</ele>
        <time>2020-05-22T13:41:12Z</time>
      </trkpt>
      <trkpt lat="47.25362" lon="6.47778">
        <ele>645.8</ele>
        <time>2020-05-22T13:41:13Z</time>
      </trkpt>
      <trkpt lat="47.25363" lon="6.4778">
        <ele>646.2</ele>
        <time>2020-05-22T13:41:14Z</time>
      </trkpt>
      <trkpt lat="47.25364" lon="6.47783">
        <ele>646.2</ele>
        <time>2020-05-22T13:41:15Z</time>
      </trkpt>
      <trkpt lat="47.25364" lon="6.47786">
        <ele>646.4</ele>
        <time>2020-05-22T13:41:16Z</time>
      </trkpt>
      <trkpt lat="47.25365" lon="6.47788">
        <ele>646.4</ele>
        <time>2020-05-22T13:41:17Z</time>
      </trkpt>
      <trkpt lat="47.25366" lon="6.47791">
        <ele>646.8</ele>
        <time>2020-05-22T13:41:18Z</time>
      </trkpt>
      <trkpt lat="47.25367" lon="6.47793">
        <ele>646.8</ele>
        <time>2020-05-22T13:41:19Z</time>
      </trkpt>
      <trkpt lat="47.25368" lon="6.47796">
        <ele>647</ele>
        <time>2020-05-22T13:41:20Z</time>
      </trkpt>
      <trkpt lat="47.25369" lon="6.47798">
        <ele>647</ele>
        <time>2020-05-22T13:41:21Z</time>
      </trkpt>
      <trkpt lat="47.2537" lon="6.47801">
        <ele>647.4</ele>
        <time>2020-05-22T13:41:22Z</time>
      </trkpt>
      <trkpt lat="47.2537" lon="6.47804">
        <ele>647.4</ele>
        <time>2020-05-22T13:41:23Z</time>
      </trkpt>
      <trkpt lat="47.25371" lon="6.47806">
        <ele>647.6</ele>
        <time>2020-05-22T13:41:24Z</time>
      </trkpt>
      <trkpt lat="47.25372" lon="6.47808">
        <ele>647.6</ele>
        <time>2020-05-22T13:41:25Z</time>
      </trkpt>
      <trkpt lat="47.25372" lon="6.47811">
        <ele>647.8</ele>
        <time>2020-05-22T13:41:26Z</time>
      </trkpt>
      <trkpt lat="47.25373" lon="6.47813">
        <ele>647.8</ele>
        <time>2020-05-22T13:41:27Z</time>
      </trkpt>
      <trkpt lat="47.25374" lon="6.47816">
        <ele>648</ele>
        <time>2020-05-22T13:41:28Z</time>
      </trkpt>
      <trkpt lat="47.25375" lon="6.47818">
        <ele>648</ele>
        <time>2020-05-22T13:41:29Z</time>
      </trkpt>
      <trkpt lat="47.25376" lon="6.47821">
        <ele>648.2</ele>
        <time>2020-05-22T13:41:30Z</time>
      </trkpt>
      <trkpt lat="47.25376" lon="6.47823">
        <ele>648.2</ele>
        <time>2020-05-22T13:41:31Z</time>
      </trkpt>
      <trkpt lat="47.25377" lon="6.47826">
        <ele>648.4</ele>
        <time>2020-05-22T13:41:32Z</time>
      </trkpt>
      <trkpt lat="47.25377" lon="6.47828">
        <ele>648.4</ele>
        <time>2020-05-22T13:41:33Z</time>
      </trkpt>
      <trkpt lat="47.25378" lon="6.47831">
        <ele>648.8</ele>
        <time>2020-05-22T13:41:34Z</time>
      </trkpt>
      <trkpt lat="47.2538" lon="6.47833">
        <ele>648.8</ele>
        <time>2020-05-22T13:41:35Z</time>
      </trkpt>
      <trkpt lat="47.2538" lon="6.47836">
        <ele>649</ele>
        <time>2020-05-22T13:41:36Z</time>
      </trkpt>
      <trkpt lat="47.25381" lon="6.47838">
        <ele>649</ele>
        <time>2020-05-22T13:41:37Z</time>
      </trkpt>
      <trkpt lat="47.25382" lon="6.47841">
        <ele>649.4</ele>
        <time>2020-05-22T13:41:38Z</time>
      </trkpt>
      <trkpt lat="47.25383" lon="6.47844">
        <ele>649.6</ele>
        <time>2020-05-22T13:41:39Z</time>
      </trkpt>
      <trkpt lat="47.25383" lon="6.47847">
        <ele>649.8</ele>
        <time>2020-05-22T13:41:40Z</time>
      </trkpt>
      <trkpt lat="47.25384" lon="6.47849">
        <ele>649.8</ele>
        <time>2020-05-22T13:41:41Z</time>
      </trkpt>
      <trkpt lat="47.25385" lon="6.47852">
        <ele>650.2</ele>
        <time>2020-05-22T13:41:42Z</time>
      </trkpt>
      <trkpt lat="47.25386" lon="6.47854">
        <ele>650.2</ele>
        <time>2020-05-22T13:41:43Z</time>
      </trkpt>
      <trkpt lat="47.25387" lon="6.47856">
        <ele>650.6</ele>
        <time>2020-05-22T13:41:44Z</time>
      </trkpt>
      <trkpt lat="47.25388" lon="6.47859">
        <ele>650.8</ele>
        <time>2020-05-22T13:41:45Z</time>
      </trkpt>
      <trkpt lat="47.25388" lon="6.47862">
        <ele>651</ele>
        <time>2020-05-22T13:41:46Z</time>
      </trkpt>
      <trkpt lat="47.25389" lon="6.47864">
        <ele>651</ele>
        <time>2020-05-22T13:41:47Z</time>
      </trkpt>
      <trkpt lat="47.2539" lon="6.47866">
        <ele>651.2</ele>
        <time>2020-05-22T13:41:48Z</time>
      </trkpt>
      <trkpt lat="47.25391" lon="6.47869">
        <ele>651.2</ele>
        <time>2020-05-22T13:41:49Z</time>
      </trkpt>
      <trkpt lat="47.25392" lon="6.47871">
        <ele>651.6</ele>
        <time>2020-05-22T13:41:50Z</time>
      </trkpt>
      <trkpt lat="47.25393" lon="6.47873">
        <ele>651.6</ele>
        <time>2020-05-22T13:41:51Z</time>
      </trkpt>
      <trkpt lat="47.25394" lon="6.47876">
        <ele>651.8</ele>
        <time>2020-05-22T13:41:52Z</time>
      </trkpt>
      <trkpt lat="47.25395" lon="6.47878">
        <ele>651.8</ele>
        <time>2020-05-22T13:41:53Z</time>
      </trkpt>
      <trkpt lat="47.25396" lon="6.4788">
        <ele>651.8</ele>
        <time>2020-05-22T13:41:54Z</time>
      </trkpt>
      <trkpt lat="47.25397" lon="6.47882">
        <ele>652</ele>
        <time>2020-05-22T13:41:55Z</time>
      </trkpt>
      <trkpt lat="47.25398" lon="6.47885">
        <ele>652</ele>
        <time>2020-05-22T13:41:56Z</time>
      </trkpt>
      <trkpt lat="47.25399" lon="6.47887">
        <ele>652.2</ele>
        <time>2020-05-22T13:41:57Z</time>
      </trkpt>
      <trkpt lat="47.25399" lon="6.47889">
        <ele>652.2</ele>
        <time>2020-05-22T13:41:58Z</time>
      </trkpt>
      <trkpt lat="47.254" lon="6.47891">
        <ele>652.2</ele>
        <time>2020-05-22T13:41:59Z</time>
      </trkpt>
      <trkpt lat="47.25401" lon="6.47893">
        <ele>652.4</ele>
        <time>2020-05-22T13:42:00Z</time>
      </trkpt>
      <trkpt lat="47.25402" lon="6.47895">
        <ele>652.4</ele>
        <time>2020-05-22T13:42:01Z</time>
      </trkpt>
      <trkpt lat="47.25402" lon="6.47898">
        <ele>652.4</ele>
        <time>2020-05-22T13:42:02Z</time>
      </trkpt>
      <trkpt lat="47.25403" lon="6.479">
        <ele>652.6</ele>
        <time>2020-05-22T13:42:03Z</time>
      </trkpt>
      <trkpt lat="47.25403" lon="6.47902">
        <ele>652.6</ele>
        <time>2020-05-22T13:42:04Z</time>
      </trkpt>
      <trkpt lat="47.25404" lon="6.47904">
        <ele>652.8</ele>
        <time>2020-05-22T13:42:05Z</time>
      </trkpt>
      <trkpt lat="47.25405" lon="6.47906">
        <ele>652.8</ele>
        <time>2020-05-22T13:42:06Z</time>
      </trkpt>
      <trkpt lat="47.25406" lon="6.47909">
        <ele>653.2</ele>
        <time>2020-05-22T13:42:07Z</time>
      </trkpt>
      <trkpt lat="47.25406" lon="6.47911">
        <ele>653.2</ele>
        <time>2020-05-22T13:42:08Z</time>
      </trkpt>
      <trkpt lat="47.25407" lon="6.47913">
        <ele>653.4</ele>
        <time>2020-05-22T13:42:09Z</time>
      </trkpt>
      <trkpt lat="47.25408" lon="6.47916">
        <ele>653.4</ele>
        <time>2020-05-22T13:42:10Z</time>
      </trkpt>
      <trkpt lat="47.25409" lon="6.47918">
        <ele>653.8</ele>
        <time>2020-05-22T13:42:11Z</time>
      </trkpt>
      <trkpt lat="47.2541" lon="6.4792">
        <ele>654</ele>
        <time>2020-05-22T13:42:12Z</time>
      </trkpt>
      <trkpt lat="47.25411" lon="6.47923">
        <ele>654</ele>
        <time>2020-05-22T13:42:13Z</time>
      </trkpt>
      <trkpt lat="47.25411" lon="6.47925">
        <ele>654.4</ele>
        <time>2020-05-22T13:42:14Z</time>
      </trkpt>
      <trkpt lat="47.25412" lon="6.47927">
        <ele>654.4</ele>
        <time>2020-05-22T13:42:15Z</time>
      </trkpt>
      <trkpt lat="47.25413" lon="6.47929">
        <ele>654.8</ele>
        <time>2020-05-22T13:42:16Z</time>
      </trkpt>
      <trkpt lat="47.25414" lon="6.47932">
        <ele>654.8</ele>
        <time>2020-05-22T13:42:17Z</time>
      </trkpt>
      <trkpt lat="47.25415" lon="6.47934">
        <ele>655.2</ele>
        <time>2020-05-22T13:42:18Z</time>
      </trkpt>
      <trkpt lat="47.25416" lon="6.47936">
        <ele>655.2</ele>
        <time>2020-05-22T13:42:19Z</time>
      </trkpt>
      <trkpt lat="47.25417" lon="6.47938">
        <ele>655.4</ele>
        <time>2020-05-22T13:42:20Z</time>
      </trkpt>
      <trkpt lat="47.25418" lon="6.47941">
        <ele>655.4</ele>
        <time>2020-05-22T13:42:21Z</time>
      </trkpt>
      <trkpt lat="47.25419" lon="6.47943">
        <ele>655.6</ele>
        <time>2020-05-22T13:42:22Z</time>
      </trkpt>
      <trkpt lat="47.2542" lon="6.47945">
        <ele>655.6</ele>
        <time>2020-05-22T13:42:23Z</time>
      </trkpt>
      <trkpt lat="47.2542" lon="6.47947">
        <ele>656</ele>
        <time>2020-05-22T13:42:24Z</time>
      </trkpt>
      <trkpt lat="47.25422" lon="6.47949">
        <ele>656</ele>
        <time>2020-05-22T13:42:25Z</time>
      </trkpt>
      <trkpt lat="47.25423" lon="6.47951">
        <ele>656.2</ele>
        <time>2020-05-22T13:42:26Z</time>
      </trkpt>
      <trkpt lat="47.25423" lon="6.47953">
        <ele>656.2</ele>
        <time>2020-05-22T13:42:27Z</time>
      </trkpt>
      <trkpt lat="47.25424" lon="6.47956">
        <ele>656.4</ele>
        <time>2020-05-22T13:42:28Z</time>
      </trkpt>
      <trkpt lat="47.25424" lon="6.47958">
        <ele>656.4</ele>
        <time>2020-05-22T13:42:29Z</time>
      </trkpt>
      <trkpt lat="47.25425" lon="6.4796">
        <ele>656.4</ele>
        <time>2020-05-22T13:42:30Z</time>
      </trkpt>
      <trkpt lat="47.25426" lon="6.47962">
        <ele>656.8</ele>
        <time>2020-05-22T13:42:31Z</time>
      </trkpt>
      <trkpt lat="47.25426" lon="6.47965">
        <ele>656.8</ele>
        <time>2020-05-22T13:42:32Z</time>
      </trkpt>
      <trkpt lat="47.25427" lon="6.47967">
        <ele>656.8</ele>
        <time>2020-05-22T13:42:33Z</time>
      </trkpt>
      <trkpt lat="47.25427" lon="6.47969">
        <ele>657</ele>
        <time>2020-05-22T13:42:34Z</time>
      </trkpt>
      <trkpt lat="47.25428" lon="6.47971">
        <ele>657</ele>
        <time>2020-05-22T13:42:35Z</time>
      </trkpt>
      <trkpt lat="47.25428" lon="6.47973">
        <ele>657.4</ele>
        <time>2020-05-22T13:42:36Z</time>
      </trkpt>
      <trkpt lat="47.25429" lon="6.47975">
        <ele>657.4</ele>
        <time>2020-05-22T13:42:37Z</time>
      </trkpt>
      <trkpt lat="47.2543" lon="6.47977">
        <ele>657.8</ele>
        <time>2020-05-22T13:42:38Z</time>
      </trkpt>
      <trkpt lat="47.2543" lon="6.4798">
        <ele>657.8</ele>
        <time>2020-05-22T13:42:39Z</time>
      </trkpt>
      <trkpt lat="47.2543" lon="6.47982">
        <ele>658</ele>
        <time>2020-05-22T13:42:40Z</time>
      </trkpt>
      <trkpt lat="47.25431" lon="6.47985">
        <ele>658</ele>
        <time>2020-05-22T13:42:41Z</time>
      </trkpt>
      <trkpt lat="47.25431" lon="6.47988">
        <ele>658.2</ele>
        <time>2020-05-22T13:42:42Z</time>
      </trkpt>
      <trkpt lat="47.25431" lon="6.4799">
        <ele>658.2</ele>
        <time>2020-05-22T13:42:43Z</time>
      </trkpt>
      <trkpt lat="47.25431" lon="6.47993">
        <ele>658.6</ele>
        <time>2020-05-22T13:42:44Z</time>
      </trkpt>
      <trkpt lat="47.25432" lon="6.47996">
        <ele>658.6</ele>
        <time>2020-05-22T13:42:45Z</time>
      </trkpt>
      <trkpt lat="47.25432" lon="6.47998">
        <ele>658.8</ele>
        <time>2020-05-22T13:42:46Z</time>
      </trkpt>
      <trkpt lat="47.25432" lon="6.48001">
        <ele>658.8</ele>
        <time>2020-05-22T13:42:47Z</time>
      </trkpt>
      <trkpt lat="47.25433" lon="6.48003">
        <ele>659</ele>
        <time>2020-05-22T13:42:48Z</time>
      </trkpt>
      <trkpt lat="47.25433" lon="6.48006">
        <ele>659</ele>
        <time>2020-05-22T13:42:49Z</time>
      </trkpt>
      <trkpt lat="47.25433" lon="6.48009">
        <ele>659.2</ele>
        <time>2020-05-22T13:42:50Z</time>
      </trkpt>
      <trkpt lat="47.25433" lon="6.48011">
        <ele>659.2</ele>
        <time>2020-05-22T13:42:51Z</time>
      </trkpt>
      <trkpt lat="47.25433" lon="6.48014">
        <ele>659.2</ele>
        <time>2020-05-22T13:42:52Z</time>
      </trkpt>
      <trkpt lat="47.25433" lon="6.48016">
        <ele>659.2</ele>
        <time>2020-05-22T13:42:53Z</time>
      </trkpt>
      <trkpt lat="47.25433" lon="6.48019">
        <ele>659.6</ele>
        <time>2020-05-22T13:42:54Z</time>
      </trkpt>
      <trkpt lat="47.25433" lon="6.48021">
        <ele>659.6</ele>
        <time>2020-05-22T13:42:55Z</time>
      </trkpt>
      <trkpt lat="47.25433" lon="6.48024">
        <ele>659.6</ele>
        <time>2020-05-22T13:42:56Z</time>
      </trkpt>
      <trkpt lat="47.25433" lon="6.48026">
        <ele>659.8</ele>
        <time>2020-05-22T13:42:57Z</time>
      </trkpt>
      <trkpt lat="47.25434" lon="6.48029">
        <ele>659.8</ele>
        <time>2020-05-22T13:42:58Z</time>
      </trkpt>
      <trkpt lat="47.25434" lon="6.48031">
        <ele>659.8</ele>
        <time>2020-05-22T13:42:59Z</time>
      </trkpt>
      <trkpt lat="47.25434" lon="6.48034">
        <ele>660</ele>
        <time>2020-05-22T13:43:00Z</time>
      </trkpt>
      <trkpt lat="47.25435" lon="6.48037">
        <ele>660</ele>
        <time>2020-05-22T13:43:01Z</time>
      </trkpt>
      <trkpt lat="47.25435" lon="6.48039">
        <ele>660</ele>
        <time>2020-05-22T13:43:02Z</time>
      </trkpt>
      <trkpt lat="47.25435" lon="6.48041">
        <ele>660.4</ele>
        <time>2020-05-22T13:43:03Z</time>
      </trkpt>
      <trkpt lat="47.25435" lon="6.48043">
        <ele>660.4</ele>
        <time>2020-05-22T13:43:04Z</time>
      </trkpt>
      <trkpt lat="47.25435" lon="6.48045">
        <ele>660.6</ele>
        <time>2020-05-22T13:43:05Z</time>
      </trkpt>
      <trkpt lat="47.25435" lon="6.48048">
        <ele>660.6</ele>
        <time>2020-05-22T13:43:06Z</time>
      </trkpt>
      <trkpt lat="47.25435" lon="6.4805">
        <ele>661</ele>
        <time>2020-05-22T13:43:07Z</time>
      </trkpt>
      <trkpt lat="47.25436" lon="6.48052">
        <ele>661</ele>
        <time>2020-05-22T13:43:08Z</time>
      </trkpt>
      <trkpt lat="47.25436" lon="6.48054">
        <ele>661.2</ele>
        <time>2020-05-22T13:43:09Z</time>
      </trkpt>
      <trkpt lat="47.25436" lon="6.48057">
        <ele>661.2</ele>
        <time>2020-05-22T13:43:10Z</time>
      </trkpt>
      <trkpt lat="47.25436" lon="6.48059">
        <ele>661.6</ele>
        <time>2020-05-22T13:43:11Z</time>
      </trkpt>
      <trkpt lat="47.25436" lon="6.48061">
        <ele>661.6</ele>
        <time>2020-05-22T13:43:12Z</time>
      </trkpt>
      <trkpt lat="47.25436" lon="6.48063">
        <ele>661.8</ele>
        <time>2020-05-22T13:43:13Z</time>
      </trkpt>
      <trkpt lat="47.25436" lon="6.48066">
        <ele>661.8</ele>
        <time>2020-05-22T13:43:14Z</time>
      </trkpt>
      <trkpt lat="47.25436" lon="6.48068">
        <ele>662.2</ele>
        <time>2020-05-22T13:43:15Z</time>
      </trkpt>
      <trkpt lat="47.25436" lon="6.48071">
        <ele>662.2</ele>
        <time>2020-05-22T13:43:16Z</time>
      </trkpt>
      <trkpt lat="47.25436" lon="6.48074">
        <ele>662.4</ele>
        <time>2020-05-22T13:43:17Z</time>
      </trkpt>
      <trkpt lat="47.25436" lon="6.48077">
        <ele>662.4</ele>
        <time>2020-05-22T13:43:18Z</time>
      </trkpt>
      <trkpt lat="47.25436" lon="6.48079">
        <ele>662.6</ele>
        <time>2020-05-22T13:43:19Z</time>
      </trkpt>
      <trkpt lat="47.25436" lon="6.48082">
        <ele>662.6</ele>
        <time>2020-05-22T13:43:20Z</time>
      </trkpt>
      <trkpt lat="47.25435" lon="6.48085">
        <ele>662.6</ele>
        <time>2020-05-22T13:43:21Z</time>
      </trkpt>
      <trkpt lat="47.25435" lon="6.48088">
        <ele>662.8</ele>
        <time>2020-05-22T13:43:22Z</time>
      </trkpt>
      <trkpt lat="47.25435" lon="6.4809">
        <ele>662.8</ele>
        <time>2020-05-22T13:43:23Z</time>
      </trkpt>
      <trkpt lat="47.25435" lon="6.48093">
        <ele>663</ele>
        <time>2020-05-22T13:43:24Z</time>
      </trkpt>
      <trkpt lat="47.25435" lon="6.48096">
        <ele>663</ele>
        <time>2020-05-22T13:43:25Z</time>
      </trkpt>
      <trkpt lat="47.25435" lon="6.48098">
        <ele>663</ele>
        <time>2020-05-22T13:43:26Z</time>
      </trkpt>
      <trkpt lat="47.25434" lon="6.48101">
        <ele>663.4</ele>
        <time>2020-05-22T13:43:27Z</time>
      </trkpt>
      <trkpt lat="47.25434" lon="6.48103">
        <ele>663.4</ele>
        <time>2020-05-22T13:43:28Z</time>
      </trkpt>
      <trkpt lat="47.25434" lon="6.48106">
        <ele>663.6</ele>
        <time>2020-05-22T13:43:29Z</time>
      </trkpt>
      <trkpt lat="47.25433" lon="6.48108">
        <ele>663.6</ele>
        <time>2020-05-22T13:43:30Z</time>
      </trkpt>
      <trkpt lat="47.25433" lon="6.48111">
        <ele>663.8</ele>
        <time>2020-05-22T13:43:31Z</time>
      </trkpt>
      <trkpt lat="47.25433" lon="6.48114">
        <ele>663.8</ele>
        <time>2020-05-22T13:43:32Z</time>
      </trkpt>
      <trkpt lat="47.25433" lon="6.48117">
        <ele>663.8</ele>
        <time>2020-05-22T13:43:33Z</time>
      </trkpt>
      <trkpt lat="47.25432" lon="6.4812">
        <ele>664</ele>
        <time>2020-05-22T13:43:34Z</time>
      </trkpt>
      <trkpt lat="47.25432" lon="6.48123">
        <ele>664</ele>
        <time>2020-05-22T13:43:35Z</time>
      </trkpt>
      <trkpt lat="47.25432" lon="6.48126">
        <ele>664.2</ele>
        <time>2020-05-22T13:43:36Z</time>
      </trkpt>
      <trkpt lat="47.25431" lon="6.48129">
        <ele>664.2</ele>
        <time>2020-05-22T13:43:37Z</time>
      </trkpt>
      <trkpt lat="47.25431" lon="6.48131">
        <ele>664.6</ele>
        <time>2020-05-22T13:43:38Z</time>
      </trkpt>
      <trkpt lat="47.25431" lon="6.48134">
        <ele>664.6</ele>
        <time>2020-05-22T13:43:39Z</time>
      </trkpt>
      <trkpt lat="47.2543" lon="6.48137">
        <ele>665</ele>
        <time>2020-05-22T13:43:40Z</time>
      </trkpt>
      <trkpt lat="47.2543" lon="6.4814">
        <ele>665</ele>
        <time>2020-05-22T13:43:41Z</time>
      </trkpt>
      <trkpt lat="47.25429" lon="6.48142">
        <ele>665.4</ele>
        <time>2020-05-22T13:43:42Z</time>
      </trkpt>
      <trkpt lat="47.25428" lon="6.48145">
        <ele>665.4</ele>
        <time>2020-05-22T13:43:43Z</time>
      </trkpt>
      <trkpt lat="47.25427" lon="6.48147">
        <ele>665.8</ele>
        <time>2020-05-22T13:43:44Z</time>
      </trkpt>
      <trkpt lat="47.25427" lon="6.4815">
        <ele>665.8</ele>
        <time>2020-05-22T13:43:45Z</time>
      </trkpt>
      <trkpt lat="47.25426" lon="6.48153">
        <ele>666</ele>
        <time>2020-05-22T13:43:46Z</time>
      </trkpt>
      <trkpt lat="47.25425" lon="6.48155">
        <ele>666</ele>
        <time>2020-05-22T13:43:47Z</time>
      </trkpt>
      <trkpt lat="47.25425" lon="6.48158">
        <ele>666</ele>
        <time>2020-05-22T13:43:48Z</time>
      </trkpt>
      <trkpt lat="47.25423" lon="6.4816">
        <ele>666.2</ele>
        <time>2020-05-22T13:43:49Z</time>
      </trkpt>
      <trkpt lat="47.25422" lon="6.48162">
        <ele>666.2</ele>
        <time>2020-05-22T13:43:50Z</time>
      </trkpt>
      <trkpt lat="47.25421" lon="6.48164">
        <ele>666.4</ele>
        <time>2020-05-22T13:43:51Z</time>
      </trkpt>
      <trkpt lat="47.25419" lon="6.48166">
        <ele>666.4</ele>
        <time>2020-05-22T13:43:52Z</time>
      </trkpt>
      <trkpt lat="47.25417" lon="6.48168">
        <ele>666.4</ele>
        <time>2020-05-22T13:43:53Z</time>
      </trkpt>
      <trkpt lat="47.25415" lon="6.4817">
        <ele>666.8</ele>
        <time>2020-05-22T13:43:54Z</time>
      </trkpt>
      <trkpt lat="47.25414" lon="6.48171">
        <ele>666.8</ele>
        <time>2020-05-22T13:43:55Z</time>
      </trkpt>
      <trkpt lat="47.25412" lon="6.48172">
        <ele>667</ele>
        <time>2020-05-22T13:43:56Z</time>
      </trkpt>
      <trkpt lat="47.2541" lon="6.48173">
        <ele>667</ele>
        <time>2020-05-22T13:43:57Z</time>
      </trkpt>
      <trkpt lat="47.25408" lon="6.48173">
        <ele>667</ele>
        <time>2020-05-22T13:43:58Z</time>
      </trkpt>
      <trkpt lat="47.25406" lon="6.48174">
        <ele>667.4</ele>
        <time>2020-05-22T13:43:59Z</time>
      </trkpt>
      <trkpt lat="47.25404" lon="6.48174">
        <ele>667.4</ele>
        <time>2020-05-22T13:44:00Z</time>
      </trkpt>
      <trkpt lat="47.25402" lon="6.48174">
        <ele>667.6</ele>
        <time>2020-05-22T13:44:01Z</time>
      </trkpt>
      <trkpt lat="47.254" lon="6.48174">
        <ele>667.6</ele>
        <time>2020-05-22T13:44:02Z</time>
      </trkpt>
      <trkpt lat="47.25398" lon="6.48174">
        <ele>667.8</ele>
        <time>2020-05-22T13:44:03Z</time>
      </trkpt>
      <trkpt lat="47.25396" lon="6.48173">
        <ele>667.8</ele>
        <time>2020-05-22T13:44:04Z</time>
      </trkpt>
      <trkpt lat="47.25394" lon="6.48172">
        <ele>668</ele>
        <time>2020-05-22T13:44:05Z</time>
      </trkpt>
      <trkpt lat="47.25393" lon="6.48171">
        <ele>668</ele>
        <time>2020-05-22T13:44:06Z</time>
      </trkpt>
      <trkpt lat="47.25391" lon="6.4817">
        <ele>668.4</ele>
        <time>2020-05-22T13:44:07Z</time>
      </trkpt>
      <trkpt lat="47.25389" lon="6.48169">
        <ele>668.6</ele>
        <time>2020-05-22T13:44:08Z</time>
      </trkpt>
      <trkpt lat="47.25388" lon="6.48168">
        <ele>668.6</ele>
        <time>2020-05-22T13:44:09Z</time>
      </trkpt>
      <trkpt lat="47.25386" lon="6.48166">
        <ele>669</ele>
        <time>2020-05-22T13:44:10Z</time>
      </trkpt>
      <trkpt lat="47.25385" lon="6.48164">
        <ele>669</ele>
        <time>2020-05-22T13:44:11Z</time>
      </trkpt>
      <trkpt lat="47.25384" lon="6.48162">
        <ele>669.2</ele>
        <time>2020-05-22T13:44:12Z</time>
      </trkpt>
      <trkpt lat="47.25383" lon="6.4816">
        <ele>669.2</ele>
        <time>2020-05-22T13:44:13Z</time>
      </trkpt>
      <trkpt lat="47.25382" lon="6.48158">
        <ele>669.4</ele>
        <time>2020-05-22T13:44:14Z</time>
      </trkpt>
      <trkpt lat="47.25381" lon="6.48155">
        <ele>669.4</ele>
        <time>2020-05-22T13:44:15Z</time>
      </trkpt>
      <trkpt lat="47.2538" lon="6.48153">
        <ele>669.4</ele>
        <time>2020-05-22T13:44:16Z</time>
      </trkpt>
      <trkpt lat="47.25379" lon="6.4815">
        <ele>669.4</ele>
        <time>2020-05-22T13:44:17Z</time>
      </trkpt>
      <trkpt lat="47.25378" lon="6.48148">
        <ele>669.8</ele>
        <time>2020-05-22T13:44:18Z</time>
      </trkpt>
      <trkpt lat="47.25378" lon="6.48145">
        <ele>669.8</ele>
        <time>2020-05-22T13:44:19Z</time>
      </trkpt>
      <trkpt lat="47.25377" lon="6.48143">
        <ele>669.8</ele>
        <time>2020-05-22T13:44:20Z</time>
      </trkpt>
      <trkpt lat="47.25377" lon="6.4814">
        <ele>670.2</ele>
        <time>2020-05-22T13:44:21Z</time>
      </trkpt>
      <trkpt lat="47.25376" lon="6.48137">
        <ele>670.2</ele>
        <time>2020-05-22T13:44:22Z</time>
      </trkpt>
      <trkpt lat="47.25376" lon="6.48134">
        <ele>670.2</ele>
        <time>2020-05-22T13:44:23Z</time>
      </trkpt>
      <trkpt lat="47.25375" lon="6.48131">
        <ele>670.4</ele>
        <time>2020-05-22T13:44:24Z</time>
      </trkpt>
      <trkpt lat="47.25375" lon="6.48128">
        <ele>670.4</ele>
        <time>2020-05-22T13:44:25Z</time>
      </trkpt>
      <trkpt lat="47.25374" lon="6.48126">
        <ele>670.4</ele>
        <time>2020-05-22T13:44:26Z</time>
      </trkpt>
      <trkpt lat="47.25374" lon="6.48123">
        <ele>670.4</ele>
        <time>2020-05-22T13:44:27Z</time>
      </trkpt>
      <trkpt lat="47.25373" lon="6.4812">
        <ele>670.4</ele>
        <time>2020-05-22T13:44:28Z</time>
      </trkpt>
      <trkpt lat="47.25373" lon="6.48117">
        <ele>670.4</ele>
        <time>2020-05-22T13:44:29Z</time>
      </trkpt>
      <trkpt lat="47.25373" lon="6.48113">
        <ele>670.4</ele>
        <time>2020-05-22T13:44:30Z</time>
      </trkpt>
      <trkpt lat="47.25372" lon="6.48109">
        <ele>670.6</ele>
        <time>2020-05-22T13:44:31Z</time>
      </trkpt>
      <trkpt lat="47.25372" lon="6.48106">
        <ele>670.6</ele>
        <time>2020-05-22T13:44:32Z</time>
      </trkpt>
      <trkpt lat="47.25371" lon="6.48102">
        <ele>670.6</ele>
        <time>2020-05-22T13:44:33Z</time>
      </trkpt>
      <trkpt lat="47.2537" lon="6.48098">
        <ele>670.6</ele>
        <time>2020-05-22T13:44:34Z</time>
      </trkpt>
      <trkpt lat="47.2537" lon="6.48093">
        <ele>670.6</ele>
        <time>2020-05-22T13:44:35Z</time>
      </trkpt>
      <trkpt lat="47.25369" lon="6.48089">
        <ele>670.8</ele>
        <time>2020-05-22T13:44:36Z</time>
      </trkpt>
      <trkpt lat="47.25368" lon="6.48085">
        <ele>670.8</ele>
        <time>2020-05-22T13:44:37Z</time>
      </trkpt>
      <trkpt lat="47.25366" lon="6.48081">
        <ele>670.8</ele>
        <time>2020-05-22T13:44:38Z</time>
      </trkpt>
      <trkpt lat="47.25365" lon="6.48077">
        <ele>671.2</ele>
        <time>2020-05-22T13:44:39Z</time>
      </trkpt>
      <trkpt lat="47.25364" lon="6.48073">
        <ele>671.4</ele>
        <time>2020-05-22T13:44:40Z</time>
      </trkpt>
      <trkpt lat="47.25362" lon="6.4807">
        <ele>671.6</ele>
        <time>2020-05-22T13:44:41Z</time>
      </trkpt>
      <trkpt lat="47.2536" lon="6.48066">
        <ele>671.6</ele>
        <time>2020-05-22T13:44:42Z</time>
      </trkpt>
      <trkpt lat="47.25358" lon="6.48063">
        <ele>671.8</ele>
        <time>2020-05-22T13:44:43Z</time>
      </trkpt>
      <trkpt lat="47.25356" lon="6.48061">
        <ele>671.8</ele>
        <time>2020-05-22T13:44:44Z</time>
      </trkpt>
      <trkpt lat="47.25353" lon="6.48059">
        <ele>671.8</ele>
        <time>2020-05-22T13:44:45Z</time>
      </trkpt>
      <trkpt lat="47.25351" lon="6.48057">
        <ele>671.8</ele>
        <time>2020-05-22T13:44:46Z</time>
      </trkpt>
      <trkpt lat="47.25349" lon="6.48055">
        <ele>672.2</ele>
        <time>2020-05-22T13:44:47Z</time>
      </trkpt>
      <trkpt lat="47.25347" lon="6.48054">
        <ele>672.4</ele>
        <time>2020-05-22T13:44:48Z</time>
      </trkpt>
      <trkpt lat="47.25345" lon="6.48053">
        <ele>672.4</ele>
        <time>2020-05-22T13:44:49Z</time>
      </trkpt>
      <trkpt lat="47.25343" lon="6.48053">
        <ele>672.4</ele>
        <time>2020-05-22T13:44:50Z</time>
      </trkpt>
      <trkpt lat="47.25341" lon="6.48052">
        <ele>672.4</ele>
        <time>2020-05-22T13:44:51Z</time>
      </trkpt>
      <trkpt lat="47.25339" lon="6.48052">
        <ele>672.4</ele>
        <time>2020-05-22T13:44:52Z</time>
      </trkpt>
      <trkpt lat="47.25338" lon="6.48052">
        <ele>672.4</ele>
        <time>2020-05-22T13:44:53Z</time>
      </trkpt>
      <trkpt lat="47.25336" lon="6.48052">
        <ele>672.6</ele>
        <time>2020-05-22T13:44:54Z</time>
      </trkpt>
      <trkpt lat="47.25334" lon="6.48053">
        <ele>672.6</ele>
        <time>2020-05-22T13:44:55Z</time>
      </trkpt>
      <trkpt lat="47.25332" lon="6.48053">
        <ele>673</ele>
        <time>2020-05-22T13:44:56Z</time>
      </trkpt>
      <trkpt lat="47.2533" lon="6.48054">
        <ele>673</ele>
        <time>2020-05-22T13:44:57Z</time>
      </trkpt>
      <trkpt lat="47.25329" lon="6.48055">
        <ele>673.2</ele>
        <time>2020-05-22T13:44:58Z</time>
      </trkpt>
      <trkpt lat="47.25327" lon="6.48056">
        <ele>673.2</ele>
        <time>2020-05-22T13:44:59Z</time>
      </trkpt>
      <trkpt lat="47.25326" lon="6.48057">
        <ele>673.2</ele>
        <time>2020-05-22T13:45:00Z</time>
      </trkpt>
      <trkpt lat="47.25324" lon="6.48059">
        <ele>673.6</ele>
        <time>2020-05-22T13:45:01Z</time>
      </trkpt>
      <trkpt lat="47.25323" lon="6.4806">
        <ele>673.6</ele>
        <time>2020-05-22T13:45:02Z</time>
      </trkpt>
      <trkpt lat="47.25322" lon="6.48062">
        <ele>674</ele>
        <time>2020-05-22T13:45:03Z</time>
      </trkpt>
      <trkpt lat="47.2532" lon="6.48063">
        <ele>674.2</ele>
        <time>2020-05-22T13:45:04Z</time>
      </trkpt>
      <trkpt lat="47.25319" lon="6.48065">
        <ele>674.2</ele>
        <time>2020-05-22T13:45:05Z</time>
      </trkpt>
      <trkpt lat="47.25318" lon="6.48067">
        <ele>674.4</ele>
        <time>2020-05-22T13:45:06Z</time>
      </trkpt>
      <trkpt lat="47.25318" lon="6.48069">
        <ele>674.4</ele>
        <time>2020-05-22T13:45:07Z</time>
      </trkpt>
      <trkpt lat="47.25317" lon="6.48072">
        <ele>674.8</ele>
        <time>2020-05-22T13:45:08Z</time>
      </trkpt>
      <trkpt lat="47.25316" lon="6.48074">
        <ele>674.8</ele>
        <time>2020-05-22T13:45:09Z</time>
      </trkpt>
      <trkpt lat="47.25316" lon="6.48076">
        <ele>675</ele>
        <time>2020-05-22T13:45:10Z</time>
      </trkpt>
      <trkpt lat="47.25315" lon="6.48079">
        <ele>675</ele>
        <time>2020-05-22T13:45:11Z</time>
      </trkpt>
      <trkpt lat="47.25315" lon="6.48082">
        <ele>675.2</ele>
        <time>2020-05-22T13:45:12Z</time>
      </trkpt>
      <trkpt lat="47.25315" lon="6.48084">
        <ele>675.2</ele>
        <time>2020-05-22T13:45:13Z</time>
      </trkpt>
      <trkpt lat="47.25314" lon="6.48087">
        <ele>675.4</ele>
        <time>2020-05-22T13:45:14Z</time>
      </trkpt>
      <trkpt lat="47.25314" lon="6.4809">
        <ele>675.4</ele>
        <time>2020-05-22T13:45:15Z</time>
      </trkpt>
      <trkpt lat="47.25314" lon="6.48092">
        <ele>675.8</ele>
        <time>2020-05-22T13:45:16Z</time>
      </trkpt>
      <trkpt lat="47.25314" lon="6.48095">
        <ele>675.8</ele>
        <time>2020-05-22T13:45:17Z</time>
      </trkpt>
      <trkpt lat="47.25314" lon="6.48097">
        <ele>676</ele>
        <time>2020-05-22T13:45:18Z</time>
      </trkpt>
      <trkpt lat="47.25314" lon="6.481">
        <ele>676</ele>
        <time>2020-05-22T13:45:19Z</time>
      </trkpt>
      <trkpt lat="47.25314" lon="6.48103">
        <ele>676.4</ele>
        <time>2020-05-22T13:45:20Z</time>
      </trkpt>
      <trkpt lat="47.25314" lon="6.48106">
        <ele>676.4</ele>
        <time>2020-05-22T13:45:21Z</time>
      </trkpt>
      <trkpt lat="47.25314" lon="6.48108">
        <ele>676.6</ele>
        <time>2020-05-22T13:45:22Z</time>
      </trkpt>
      <trkpt lat="47.25314" lon="6.48111">
        <ele>676.6</ele>
        <time>2020-05-22T13:45:23Z</time>
      </trkpt>
      <trkpt lat="47.25314" lon="6.48114">
        <ele>676.8</ele>
        <time>2020-05-22T13:45:24Z</time>
      </trkpt>
      <trkpt lat="47.25314" lon="6.48116">
        <ele>676.8</ele>
        <time>2020-05-22T13:45:25Z</time>
      </trkpt>
      <trkpt lat="47.25315" lon="6.48119">
        <ele>677</ele>
        <time>2020-05-22T13:45:26Z</time>
      </trkpt>
      <trkpt lat="47.25315" lon="6.48121">
        <ele>677</ele>
        <time>2020-05-22T13:45:27Z</time>
      </trkpt>
      <trkpt lat="47.25315" lon="6.48124">
        <ele>677</ele>
        <time>2020-05-22T13:45:28Z</time>
      </trkpt>
      <trkpt lat="47.25315" lon="6.48127">
        <ele>677</ele>
        <time>2020-05-22T13:45:29Z</time>
      </trkpt>
      <trkpt lat="47.25315" lon="6.48129">
        <ele>677.4</ele>
        <time>2020-05-22T13:45:30Z</time>
      </trkpt>
      <trkpt lat="47.25315" lon="6.48132">
        <ele>677.4</ele>
        <time>2020-05-22T13:45:31Z</time>
      </trkpt>
      <trkpt lat="47.25316" lon="6.48135">
        <ele>677.4</ele>
        <time>2020-05-22T13:45:32Z</time>
      </trkpt>
      <trkpt lat="47.25316" lon="6.48137">
        <ele>677.4</ele>
        <time>2020-05-22T13:45:33Z</time>
      </trkpt>
      <trkpt lat="47.25316" lon="6.4814">
        <ele>677.6</ele>
        <time>2020-05-22T13:45:34Z</time>
      </trkpt>
      <trkpt lat="47.25316" lon="6.48142">
        <ele>677.6</ele>
        <time>2020-05-22T13:45:35Z</time>
      </trkpt>
      <trkpt lat="47.25316" lon="6.48145">
        <ele>677.8</ele>
        <time>2020-05-22T13:45:36Z</time>
      </trkpt>
      <trkpt lat="47.25316" lon="6.48147">
        <ele>677.8</ele>
        <time>2020-05-22T13:45:37Z</time>
      </trkpt>
      <trkpt lat="47.25316" lon="6.4815">
        <ele>678</ele>
        <time>2020-05-22T13:45:38Z</time>
      </trkpt>
      <trkpt lat="47.25316" lon="6.48153">
        <ele>678</ele>
        <time>2020-05-22T13:45:39Z</time>
      </trkpt>
      <trkpt lat="47.25316" lon="6.48155">
        <ele>678.2</ele>
        <time>2020-05-22T13:45:40Z</time>
      </trkpt>
      <trkpt lat="47.25316" lon="6.48158">
        <ele>678.2</ele>
        <time>2020-05-22T13:45:41Z</time>
      </trkpt>
      <trkpt lat="47.25317" lon="6.48161">
        <ele>678.6</ele>
        <time>2020-05-22T13:45:42Z</time>
      </trkpt>
      <trkpt lat="47.25317" lon="6.48164">
        <ele>678.6</ele>
        <time>2020-05-22T13:45:43Z</time>
      </trkpt>
      <trkpt lat="47.25317" lon="6.48167">
        <ele>678.6</ele>
        <time>2020-05-22T13:45:44Z</time>
      </trkpt>
      <trkpt lat="47.25317" lon="6.4817">
        <ele>678.8</ele>
        <time>2020-05-22T13:45:45Z</time>
      </trkpt>
      <trkpt lat="47.25317" lon="6.48173">
        <ele>678.8</ele>
        <time>2020-05-22T13:45:46Z</time>
      </trkpt>
      <trkpt lat="47.25317" lon="6.48176">
        <ele>679</ele>
        <time>2020-05-22T13:45:47Z</time>
      </trkpt>
      <trkpt lat="47.25317" lon="6.48179">
        <ele>679</ele>
        <time>2020-05-22T13:45:48Z</time>
      </trkpt>
      <trkpt lat="47.25318" lon="6.48182">
        <ele>679</ele>
        <time>2020-05-22T13:45:49Z</time>
      </trkpt>
      <trkpt lat="47.25318" lon="6.48185">
        <ele>679.2</ele>
        <time>2020-05-22T13:45:50Z</time>
      </trkpt>
      <trkpt lat="47.25318" lon="6.48188">
        <ele>679.2</ele>
        <time>2020-05-22T13:45:51Z</time>
      </trkpt>
      <trkpt lat="47.25318" lon="6.48191">
        <ele>679.6</ele>
        <time>2020-05-22T13:45:52Z</time>
      </trkpt>
      <trkpt lat="47.25319" lon="6.48194">
        <ele>679.6</ele>
        <time>2020-05-22T13:45:53Z</time>
      </trkpt>
      <trkpt lat="47.25319" lon="6.48196">
        <ele>680</ele>
        <time>2020-05-22T13:45:54Z</time>
      </trkpt>
      <trkpt lat="47.25319" lon="6.48199">
        <ele>680</ele>
        <time>2020-05-22T13:45:55Z</time>
      </trkpt>
      <trkpt lat="47.25319" lon="6.48202">
        <ele>680.2</ele>
        <time>2020-05-22T13:45:56Z</time>
      </trkpt>
      <trkpt lat="47.25319" lon="6.48205">
        <ele>680.2</ele>
        <time>2020-05-22T13:45:57Z</time>
      </trkpt>
      <trkpt lat="47.25319" lon="6.48207">
        <ele>680.6</ele>
        <time>2020-05-22T13:45:58Z</time>
      </trkpt>
      <trkpt lat="47.25319" lon="6.4821">
        <ele>680.6</ele>
        <time>2020-05-22T13:45:59Z</time>
      </trkpt>
      <trkpt lat="47.25319" lon="6.48213">
        <ele>680.8</ele>
        <time>2020-05-22T13:46:00Z</time>
      </trkpt>
      <trkpt lat="47.25319" lon="6.48215">
        <ele>681</ele>
        <time>2020-05-22T13:46:01Z</time>
      </trkpt>
      <trkpt lat="47.25319" lon="6.48218">
        <ele>681</ele>
        <time>2020-05-22T13:46:02Z</time>
      </trkpt>
      <trkpt lat="47.25319" lon="6.48221">
        <ele>681</ele>
        <time>2020-05-22T13:46:03Z</time>
      </trkpt>
      <trkpt lat="47.25319" lon="6.48223">
        <ele>681.4</ele>
        <time>2020-05-22T13:46:04Z</time>
      </trkpt>
      <trkpt lat="47.25319" lon="6.48226">
        <ele>681.4</ele>
        <time>2020-05-22T13:46:05Z</time>
      </trkpt>
      <trkpt lat="47.25319" lon="6.48229">
        <ele>681.6</ele>
        <time>2020-05-22T13:46:06Z</time>
      </trkpt>
      <trkpt lat="47.25319" lon="6.48231">
        <ele>681.6</ele>
        <time>2020-05-22T13:46:07Z</time>
      </trkpt>
      <trkpt lat="47.25319" lon="6.48234">
        <ele>681.8</ele>
        <time>2020-05-22T13:46:08Z</time>
      </trkpt>
      <trkpt lat="47.25319" lon="6.48236">
        <ele>681.8</ele>
        <time>2020-05-22T13:46:09Z</time>
      </trkpt>
      <trkpt lat="47.25319" lon="6.48239">
        <ele>681.8</ele>
        <time>2020-05-22T13:46:10Z</time>
      </trkpt>
      <trkpt lat="47.25319" lon="6.48242">
        <ele>682.2</ele>
        <time>2020-05-22T13:46:11Z</time>
      </trkpt>
      <trkpt lat="47.25319" lon="6.48244">
        <ele>682.2</ele>
        <time>2020-05-22T13:46:12Z</time>
      </trkpt>
      <trkpt lat="47.25319" lon="6.48247">
        <ele>682.4</ele>
        <time>2020-05-22T13:46:13Z</time>
      </trkpt>
      <trkpt lat="47.25319" lon="6.4825">
        <ele>682.4</ele>
        <time>2020-05-22T13:46:14Z</time>
      </trkpt>
      <trkpt lat="47.25319" lon="6.48252">
        <ele>682.6</ele>
        <time>2020-05-22T13:46:15Z</time>
      </trkpt>
      <trkpt lat="47.25319" lon="6.48255">
        <ele>682.6</ele>
        <time>2020-05-22T13:46:16Z</time>
      </trkpt>
      <trkpt lat="47.25319" lon="6.48258">
        <ele>683</ele>
        <time>2020-05-22T13:46:17Z</time>
      </trkpt>
      <trkpt lat="47.25319" lon="6.48261">
        <ele>683</ele>
        <time>2020-05-22T13:46:18Z</time>
      </trkpt>
      <trkpt lat="47.25318" lon="6.48264">
        <ele>683.2</ele>
        <time>2020-05-22T13:46:19Z</time>
      </trkpt>
      <trkpt lat="47.25319" lon="6.48266">
        <ele>683.2</ele>
        <time>2020-05-22T13:46:20Z</time>
      </trkpt>
      <trkpt lat="47.25319" lon="6.48269">
        <ele>683.2</ele>
        <time>2020-05-22T13:46:21Z</time>
      </trkpt>
      <trkpt lat="47.25318" lon="6.48272">
        <ele>683.4</ele>
        <time>2020-05-22T13:46:22Z</time>
      </trkpt>
      <trkpt lat="47.25318" lon="6.48275">
        <ele>683.4</ele>
        <time>2020-05-22T13:46:23Z</time>
      </trkpt>
      <trkpt lat="47.25318" lon="6.48278">
        <ele>683.8</ele>
        <time>2020-05-22T13:46:24Z</time>
      </trkpt>
      <trkpt lat="47.25317" lon="6.48281">
        <ele>683.8</ele>
        <time>2020-05-22T13:46:25Z</time>
      </trkpt>
      <trkpt lat="47.25317" lon="6.48284">
        <ele>684</ele>
        <time>2020-05-22T13:46:26Z</time>
      </trkpt>
      <trkpt lat="47.25317" lon="6.48287">
        <ele>684</ele>
        <time>2020-05-22T13:46:27Z</time>
      </trkpt>
      <trkpt lat="47.25317" lon="6.4829">
        <ele>684</ele>
        <time>2020-05-22T13:46:28Z</time>
      </trkpt>
      <trkpt lat="47.25317" lon="6.48293">
        <ele>684.2</ele>
        <time>2020-05-22T13:46:29Z</time>
      </trkpt>
      <trkpt lat="47.25318" lon="6.48296">
        <ele>684.2</ele>
        <time>2020-05-22T13:46:30Z</time>
      </trkpt>
      <trkpt lat="47.25318" lon="6.48299">
        <ele>684.2</ele>
        <time>2020-05-22T13:46:31Z</time>
      </trkpt>
      <trkpt lat="47.25318" lon="6.48302">
        <ele>684.2</ele>
        <time>2020-05-22T13:46:32Z</time>
      </trkpt>
      <trkpt lat="47.25319" lon="6.48304">
        <ele>684.4</ele>
        <time>2020-05-22T13:46:33Z</time>
      </trkpt>
      <trkpt lat="47.25319" lon="6.48307">
        <ele>684.4</ele>
        <time>2020-05-22T13:46:34Z</time>
      </trkpt>
      <trkpt lat="47.2532" lon="6.4831">
        <ele>684.4</ele>
        <time>2020-05-22T13:46:35Z</time>
      </trkpt>
      <trkpt lat="47.25321" lon="6.48312">
        <ele>684.8</ele>
        <time>2020-05-22T13:46:36Z</time>
      </trkpt>
      <trkpt lat="47.25321" lon="6.48315">
        <ele>684.8</ele>
        <time>2020-05-22T13:46:37Z</time>
      </trkpt>
      <trkpt lat="47.25322" lon="6.48317">
        <ele>684.8</ele>
        <time>2020-05-22T13:46:38Z</time>
      </trkpt>
      <trkpt lat="47.25322" lon="6.4832">
        <ele>685</ele>
        <time>2020-05-22T13:46:39Z</time>
      </trkpt>
      <trkpt lat="47.25323" lon="6.48322">
        <ele>685</ele>
        <time>2020-05-22T13:46:40Z</time>
      </trkpt>
      <trkpt lat="47.25323" lon="6.48325">
        <ele>685</ele>
        <time>2020-05-22T13:46:41Z</time>
      </trkpt>
      <trkpt lat="47.25324" lon="6.48327">
        <ele>685.4</ele>
        <time>2020-05-22T13:46:42Z</time>
      </trkpt>
      <trkpt lat="47.25324" lon="6.48329">
        <ele>685.6</ele>
        <time>2020-05-22T13:46:43Z</time>
      </trkpt>
      <trkpt lat="47.25325" lon="6.48332">
        <ele>685.6</ele>
        <time>2020-05-22T13:46:44Z</time>
      </trkpt>
      <trkpt lat="47.25325" lon="6.48334">
        <ele>686</ele>
        <time>2020-05-22T13:46:45Z</time>
      </trkpt>
      <trkpt lat="47.25325" lon="6.48336">
        <ele>686</ele>
        <time>2020-05-22T13:46:46Z</time>
      </trkpt>
      <trkpt lat="47.25325" lon="6.48339">
        <ele>686.2</ele>
        <time>2020-05-22T13:46:47Z</time>
      </trkpt>
      <trkpt lat="47.25326" lon="6.48341">
        <ele>686.2</ele>
        <time>2020-05-22T13:46:48Z</time>
      </trkpt>
      <trkpt lat="47.25326" lon="6.48344">
        <ele>686.6</ele>
        <time>2020-05-22T13:46:49Z</time>
      </trkpt>
      <trkpt lat="47.25327" lon="6.48346">
        <ele>686.8</ele>
        <time>2020-05-22T13:46:50Z</time>
      </trkpt>
      <trkpt lat="47.25327" lon="6.48348">
        <ele>686.8</ele>
        <time>2020-05-22T13:46:51Z</time>
      </trkpt>
      <trkpt lat="47.25328" lon="6.48351">
        <ele>687</ele>
        <time>2020-05-22T13:46:52Z</time>
      </trkpt>
      <trkpt lat="47.25328" lon="6.48353">
        <ele>687</ele>
        <time>2020-05-22T13:46:53Z</time>
      </trkpt>
      <trkpt lat="47.25329" lon="6.48355">
        <ele>687.4</ele>
        <time>2020-05-22T13:46:54Z</time>
      </trkpt>
      <trkpt lat="47.25329" lon="6.48357">
        <ele>687.6</ele>
        <time>2020-05-22T13:46:55Z</time>
      </trkpt>
      <trkpt lat="47.2533" lon="6.4836">
        <ele>687.8</ele>
        <time>2020-05-22T13:46:56Z</time>
      </trkpt>
      <trkpt lat="47.2533" lon="6.48362">
        <ele>687.8</ele>
        <time>2020-05-22T13:46:57Z</time>
      </trkpt>
      <trkpt lat="47.2533" lon="6.48365">
        <ele>688</ele>
        <time>2020-05-22T13:46:58Z</time>
      </trkpt>
      <trkpt lat="47.25331" lon="6.48367">
        <ele>688</ele>
        <time>2020-05-22T13:46:59Z</time>
      </trkpt>
      <trkpt lat="47.25332" lon="6.48369">
        <ele>688</ele>
        <time>2020-05-22T13:47:00Z</time>
      </trkpt>
      <trkpt lat="47.25332" lon="6.48372">
        <ele>688.2</ele>
        <time>2020-05-22T13:47:01Z</time>
      </trkpt>
      <trkpt lat="47.25333" lon="6.48374">
        <ele>688.2</ele>
        <time>2020-05-22T13:47:02Z</time>
      </trkpt>
      <trkpt lat="47.25333" lon="6.48377">
        <ele>688.6</ele>
        <time>2020-05-22T13:47:03Z</time>
      </trkpt>
      <trkpt lat="47.25334" lon="6.48379">
        <ele>688.6</ele>
        <time>2020-05-22T13:47:04Z</time>
      </trkpt>
      <trkpt lat="47.25334" lon="6.48382">
        <ele>688.6</ele>
        <time>2020-05-22T13:47:05Z</time>
      </trkpt>
      <trkpt lat="47.25335" lon="6.48385">
        <ele>688.8</ele>
        <time>2020-05-22T13:47:06Z</time>
      </trkpt>
      <trkpt lat="47.25335" lon="6.48387">
        <ele>688.8</ele>
        <time>2020-05-22T13:47:07Z</time>
      </trkpt>
      <trkpt lat="47.25336" lon="6.4839">
        <ele>689</ele>
        <time>2020-05-22T13:47:08Z</time>
      </trkpt>
      <trkpt lat="47.25336" lon="6.48393">
        <ele>689</ele>
        <time>2020-05-22T13:47:09Z</time>
      </trkpt>
      <trkpt lat="47.25336" lon="6.48396">
        <ele>689.4</ele>
        <time>2020-05-22T13:47:10Z</time>
      </trkpt>
      <trkpt lat="47.25337" lon="6.48398">
        <ele>689.4</ele>
        <time>2020-05-22T13:47:11Z</time>
      </trkpt>
      <trkpt lat="47.25337" lon="6.48401">
        <ele>689.6</ele>
        <time>2020-05-22T13:47:12Z</time>
      </trkpt>
      <trkpt lat="47.25337" lon="6.48404">
        <ele>689.6</ele>
        <time>2020-05-22T13:47:13Z</time>
      </trkpt>
      <trkpt lat="47.25337" lon="6.48407">
        <ele>690</ele>
        <time>2020-05-22T13:47:14Z</time>
      </trkpt>
      <trkpt lat="47.25337" lon="6.48409">
        <ele>690</ele>
        <time>2020-05-22T13:47:15Z</time>
      </trkpt>
      <trkpt lat="47.25338" lon="6.48412">
        <ele>690.2</ele>
        <time>2020-05-22T13:47:16Z</time>
      </trkpt>
      <trkpt lat="47.25338" lon="6.48415">
        <ele>690.2</ele>
        <time>2020-05-22T13:47:17Z</time>
      </trkpt>
      <trkpt lat="47.25338" lon="6.48418">
        <ele>690.6</ele>
        <time>2020-05-22T13:47:18Z</time>
      </trkpt>
      <trkpt lat="47.25338" lon="6.48421">
        <ele>690.6</ele>
        <time>2020-05-22T13:47:19Z</time>
      </trkpt>
      <trkpt lat="47.25339" lon="6.48424">
        <ele>691</ele>
        <time>2020-05-22T13:47:20Z</time>
      </trkpt>
      <trkpt lat="47.25339" lon="6.48427">
        <ele>691</ele>
        <time>2020-05-22T13:47:21Z</time>
      </trkpt>
      <trkpt lat="47.25339" lon="6.4843">
        <ele>691.2</ele>
        <time>2020-05-22T13:47:22Z</time>
      </trkpt>
      <trkpt lat="47.25339" lon="6.48432">
        <ele>691.2</ele>
        <time>2020-05-22T13:47:23Z</time>
      </trkpt>
      <trkpt lat="47.25339" lon="6.48435">
        <ele>691.6</ele>
        <time>2020-05-22T13:47:24Z</time>
      </trkpt>
      <trkpt lat="47.25339" lon="6.48438">
        <ele>691.6</ele>
        <time>2020-05-22T13:47:25Z</time>
      </trkpt>
      <trkpt lat="47.25339" lon="6.48441">
        <ele>691.6</ele>
        <time>2020-05-22T13:47:26Z</time>
      </trkpt>
      <trkpt lat="47.25339" lon="6.48443">
        <ele>691.8</ele>
        <time>2020-05-22T13:47:27Z</time>
      </trkpt>
      <trkpt lat="47.25339" lon="6.48446">
        <ele>691.8</ele>
        <time>2020-05-22T13:47:28Z</time>
      </trkpt>
      <trkpt lat="47.25339" lon="6.48449">
        <ele>692</ele>
        <time>2020-05-22T13:47:29Z</time>
      </trkpt>
      <trkpt lat="47.25339" lon="6.48452">
        <ele>692</ele>
        <time>2020-05-22T13:47:30Z</time>
      </trkpt>
      <trkpt lat="47.25339" lon="6.48454">
        <ele>692</ele>
        <time>2020-05-22T13:47:31Z</time>
      </trkpt>
      <trkpt lat="47.25339" lon="6.48457">
        <ele>692.2</ele>
        <time>2020-05-22T13:47:32Z</time>
      </trkpt>
      <trkpt lat="47.25339" lon="6.4846">
        <ele>692.2</ele>
        <time>2020-05-22T13:47:33Z</time>
      </trkpt>
      <trkpt lat="47.25339" lon="6.48463">
        <ele>692.2</ele>
        <time>2020-05-22T13:47:34Z</time>
      </trkpt>
      <trkpt lat="47.25338" lon="6.48466">
        <ele>692.4</ele>
        <time>2020-05-22T13:47:35Z</time>
      </trkpt>
      <trkpt lat="47.25338" lon="6.48469">
        <ele>692.4</ele>
        <time>2020-05-22T13:47:36Z</time>
      </trkpt>
      <trkpt lat="47.25337" lon="6.48471">
        <ele>692.8</ele>
        <time>2020-05-22T13:47:37Z</time>
      </trkpt>
      <trkpt lat="47.25337" lon="6.48474">
        <ele>693</ele>
        <time>2020-05-22T13:47:38Z</time>
      </trkpt>
      <trkpt lat="47.25336" lon="6.48477">
        <ele>693</ele>
        <time>2020-05-22T13:47:39Z</time>
      </trkpt>
      <trkpt lat="47.25335" lon="6.4848">
        <ele>693.4</ele>
        <time>2020-05-22T13:47:40Z</time>
      </trkpt>
      <trkpt lat="47.25334" lon="6.48483">
        <ele>693.6</ele>
        <time>2020-05-22T13:47:41Z</time>
      </trkpt>
      <trkpt lat="47.25334" lon="6.48486">
        <ele>693.6</ele>
        <time>2020-05-22T13:47:42Z</time>
      </trkpt>
      <trkpt lat="47.25333" lon="6.48488">
        <ele>693.8</ele>
        <time>2020-05-22T13:47:43Z</time>
      </trkpt>
      <trkpt lat="47.25333" lon="6.48491">
        <ele>693.8</ele>
        <time>2020-05-22T13:47:44Z</time>
      </trkpt>
      <trkpt lat="47.25332" lon="6.48493">
        <ele>694</ele>
        <time>2020-05-22T13:47:45Z</time>
      </trkpt>
      <trkpt lat="47.25332" lon="6.48496">
        <ele>694</ele>
        <time>2020-05-22T13:47:46Z</time>
      </trkpt>
      <trkpt lat="47.25331" lon="6.48498">
        <ele>694.4</ele>
        <time>2020-05-22T13:47:47Z</time>
      </trkpt>
      <trkpt lat="47.2533" lon="6.48501">
        <ele>694.4</ele>
        <time>2020-05-22T13:47:48Z</time>
      </trkpt>
      <trkpt lat="47.2533" lon="6.48503">
        <ele>694.6</ele>
        <time>2020-05-22T13:47:49Z</time>
      </trkpt>
      <trkpt lat="47.25329" lon="6.48506">
        <ele>694.6</ele>
        <time>2020-05-22T13:47:50Z</time>
      </trkpt>
      <trkpt lat="47.25328" lon="6.48509">
        <ele>695</ele>
        <time>2020-05-22T13:47:51Z</time>
      </trkpt>
      <trkpt lat="47.25328" lon="6.48511">
        <ele>695</ele>
        <time>2020-05-22T13:47:52Z</time>
      </trkpt>
      <trkpt lat="47.25327" lon="6.48514">
        <ele>695.2</ele>
        <time>2020-05-22T13:47:53Z</time>
      </trkpt>
      <trkpt lat="47.25327" lon="6.48517">
        <ele>695.2</ele>
        <time>2020-05-22T13:47:54Z</time>
      </trkpt>
      <trkpt lat="47.25326" lon="6.48519">
        <ele>695.6</ele>
        <time>2020-05-22T13:47:55Z</time>
      </trkpt>
      <trkpt lat="47.25326" lon="6.48522">
        <ele>695.6</ele>
        <time>2020-05-22T13:47:56Z</time>
      </trkpt>
      <trkpt lat="47.25325" lon="6.48524">
        <ele>696</ele>
        <time>2020-05-22T13:47:57Z</time>
      </trkpt>
      <trkpt lat="47.25324" lon="6.48527">
        <ele>696</ele>
        <time>2020-05-22T13:47:58Z</time>
      </trkpt>
      <trkpt lat="47.25324" lon="6.48529">
        <ele>696.2</ele>
        <time>2020-05-22T13:47:59Z</time>
      </trkpt>
      <trkpt lat="47.25323" lon="6.48532">
        <ele>696.2</ele>
        <time>2020-05-22T13:48:00Z</time>
      </trkpt>
      <trkpt lat="47.25323" lon="6.48534">
        <ele>696.6</ele>
        <time>2020-05-22T13:48:01Z</time>
      </trkpt>
      <trkpt lat="47.25322" lon="6.48536">
        <ele>696.6</ele>
        <time>2020-05-22T13:48:02Z</time>
      </trkpt>
      <trkpt lat="47.25321" lon="6.48538">
        <ele>696.6</ele>
        <time>2020-05-22T13:48:03Z</time>
      </trkpt>
      <trkpt lat="47.2532" lon="6.4854">
        <ele>696.8</ele>
        <time>2020-05-22T13:48:04Z</time>
      </trkpt>
      <trkpt lat="47.2532" lon="6.48543">
        <ele>696.8</ele>
        <time>2020-05-22T13:48:05Z</time>
      </trkpt>
      <trkpt lat="47.25319" lon="6.48545">
        <ele>696.8</ele>
        <time>2020-05-22T13:48:06Z</time>
      </trkpt>
      <trkpt lat="47.25318" lon="6.48547">
        <ele>696.8</ele>
        <time>2020-05-22T13:48:07Z</time>
      </trkpt>
      <trkpt lat="47.25317" lon="6.4855">
        <ele>697</ele>
        <time>2020-05-22T13:48:08Z</time>
      </trkpt>
      <trkpt lat="47.25316" lon="6.48553">
        <ele>697</ele>
        <time>2020-05-22T13:48:09Z</time>
      </trkpt>
      <trkpt lat="47.25315" lon="6.48555">
        <ele>697</ele>
        <time>2020-05-22T13:48:10Z</time>
      </trkpt>
      <trkpt lat="47.25314" lon="6.48558">
        <ele>697</ele>
        <time>2020-05-22T13:48:11Z</time>
      </trkpt>
      <trkpt lat="47.25313" lon="6.4856">
        <ele>697</ele>
        <time>2020-05-22T13:48:12Z</time>
      </trkpt>
      <trkpt lat="47.25313" lon="6.48563">
        <ele>697.2</ele>
        <time>2020-05-22T13:48:13Z</time>
      </trkpt>
      <trkpt lat="47.25312" lon="6.48565">
        <ele>697.2</ele>
        <time>2020-05-22T13:48:14Z</time>
      </trkpt>
      <trkpt lat="47.25311" lon="6.48567">
        <ele>697.2</ele>
        <time>2020-05-22T13:48:15Z</time>
      </trkpt>
      <trkpt lat="47.2531" lon="6.4857">
        <ele>697.2</ele>
        <time>2020-05-22T13:48:16Z</time>
      </trkpt>
      <trkpt lat="47.25309" lon="6.48573">
        <ele>697.4</ele>
        <time>2020-05-22T13:48:17Z</time>
      </trkpt>
      <trkpt lat="47.25308" lon="6.48575">
        <ele>697.4</ele>
        <time>2020-05-22T13:48:18Z</time>
      </trkpt>
      <trkpt lat="47.25308" lon="6.48578">
        <ele>697.4</ele>
        <time>2020-05-22T13:48:19Z</time>
      </trkpt>
      <trkpt lat="47.25307" lon="6.48581">
        <ele>697.4</ele>
        <time>2020-05-22T13:48:20Z</time>
      </trkpt>
      <trkpt lat="47.25306" lon="6.48585">
        <ele>697.4</ele>
        <time>2020-05-22T13:48:21Z</time>
      </trkpt>
      <trkpt lat="47.25305" lon="6.48588">
        <ele>697.4</ele>
        <time>2020-05-22T13:48:22Z</time>
      </trkpt>
      <trkpt lat="47.25304" lon="6.48592">
        <ele>697.4</ele>
        <time>2020-05-22T13:48:23Z</time>
      </trkpt>
      <trkpt lat="47.25303" lon="6.48596">
        <ele>697.4</ele>
        <time>2020-05-22T13:48:24Z</time>
      </trkpt>
      <trkpt lat="47.25302" lon="6.486">
        <ele>697.4</ele>
        <time>2020-05-22T13:48:25Z</time>
      </trkpt>
      <trkpt lat="47.25301" lon="6.48604">
        <ele>697.4</ele>
        <time>2020-05-22T13:48:26Z</time>
      </trkpt>
      <trkpt lat="47.253" lon="6.4861">
        <ele>697.4</ele>
        <time>2020-05-22T13:48:27Z</time>
      </trkpt>
      <trkpt lat="47.25299" lon="6.48615">
        <ele>697.4</ele>
        <time>2020-05-22T13:48:28Z</time>
      </trkpt>
      <trkpt lat="47.25298" lon="6.4862">
        <ele>697.4</ele>
        <time>2020-05-22T13:48:29Z</time>
      </trkpt>
      <trkpt lat="47.25297" lon="6.48626">
        <ele>697.4</ele>
        <time>2020-05-22T13:48:30Z</time>
      </trkpt>
      <trkpt lat="47.25295" lon="6.48632">
        <ele>697.2</ele>
        <time>2020-05-22T13:48:31Z</time>
      </trkpt>
      <trkpt lat="47.25294" lon="6.48639">
        <ele>697.2</ele>
        <time>2020-05-22T13:48:32Z</time>
      </trkpt>
      <trkpt lat="47.25293" lon="6.48645">
        <ele>697.2</ele>
        <time>2020-05-22T13:48:33Z</time>
      </trkpt>
      <trkpt lat="47.25292" lon="6.48652">
        <ele>697.2</ele>
        <time>2020-05-22T13:48:34Z</time>
      </trkpt>
      <trkpt lat="47.2529" lon="6.4866">
        <ele>697</ele>
        <time>2020-05-22T13:48:35Z</time>
      </trkpt>
      <trkpt lat="47.25289" lon="6.48667">
        <ele>697</ele>
        <time>2020-05-22T13:48:36Z</time>
      </trkpt>
      <trkpt lat="47.25287" lon="6.48674">
        <ele>697</ele>
        <time>2020-05-22T13:48:37Z</time>
      </trkpt>
      <trkpt lat="47.25286" lon="6.48681">
        <ele>697</ele>
        <time>2020-05-22T13:48:38Z</time>
      </trkpt>
      <trkpt lat="47.25284" lon="6.48688">
        <ele>697</ele>
        <time>2020-05-22T13:48:39Z</time>
      </trkpt>
      <trkpt lat="47.25283" lon="6.48695">
        <ele>697</ele>
        <time>2020-05-22T13:48:40Z</time>
      </trkpt>
      <trkpt lat="47.25282" lon="6.48702">
        <ele>697</ele>
        <time>2020-05-22T13:48:41Z</time>
      </trkpt>
      <trkpt lat="47.2528" lon="6.48709">
        <ele>697</ele>
        <time>2020-05-22T13:48:42Z</time>
      </trkpt>
      <trkpt lat="47.25279" lon="6.48716">
        <ele>697.2</ele>
        <time>2020-05-22T13:48:43Z</time>
      </trkpt>
      <trkpt lat="47.25277" lon="6.48722">
        <ele>697.2</ele>
        <time>2020-05-22T13:48:44Z</time>
      </trkpt>
      <trkpt lat="47.25276" lon="6.48728">
        <ele>697.6</ele>
        <time>2020-05-22T13:48:45Z</time>
      </trkpt>
      <trkpt lat="47.25275" lon="6.48734">
        <ele>697.6</ele>
        <time>2020-05-22T13:48:46Z</time>
      </trkpt>
      <trkpt lat="47.25274" lon="6.48739">
        <ele>697.8</ele>
        <time>2020-05-22T13:48:47Z</time>
      </trkpt>
      <trkpt lat="47.25273" lon="6.48744">
        <ele>697.8</ele>
        <time>2020-05-22T13:48:48Z</time>
      </trkpt>
      <trkpt lat="47.25272" lon="6.48748">
        <ele>698</ele>
        <time>2020-05-22T13:48:49Z</time>
      </trkpt>
      <trkpt lat="47.25271" lon="6.48753">
        <ele>698</ele>
        <time>2020-05-22T13:48:50Z</time>
      </trkpt>
      <trkpt lat="47.2527" lon="6.48757">
        <ele>698.4</ele>
        <time>2020-05-22T13:48:51Z</time>
      </trkpt>
      <trkpt lat="47.25269" lon="6.48761">
        <ele>698.6</ele>
        <time>2020-05-22T13:48:52Z</time>
      </trkpt>
      <trkpt lat="47.25269" lon="6.48765">
        <ele>698.6</ele>
        <time>2020-05-22T13:48:53Z</time>
      </trkpt>
      <trkpt lat="47.25268" lon="6.48769">
        <ele>698.8</ele>
        <time>2020-05-22T13:48:54Z</time>
      </trkpt>
      <trkpt lat="47.25267" lon="6.48774">
        <ele>698.8</ele>
        <time>2020-05-22T13:48:55Z</time>
      </trkpt>
      <trkpt lat="47.25266" lon="6.48778">
        <ele>698.8</ele>
        <time>2020-05-22T13:48:56Z</time>
      </trkpt>
      <trkpt lat="47.25265" lon="6.48782">
        <ele>699</ele>
        <time>2020-05-22T13:48:57Z</time>
      </trkpt>
      <trkpt lat="47.25264" lon="6.48787">
        <ele>699</ele>
        <time>2020-05-22T13:48:58Z</time>
      </trkpt>
      <trkpt lat="47.25264" lon="6.48791">
        <ele>699</ele>
        <time>2020-05-22T13:48:59Z</time>
      </trkpt>
      <trkpt lat="47.25263" lon="6.48796">
        <ele>699.2</ele>
        <time>2020-05-22T13:49:00Z</time>
      </trkpt>
      <trkpt lat="47.25262" lon="6.488">
        <ele>699.2</ele>
        <time>2020-05-22T13:49:01Z</time>
      </trkpt>
      <trkpt lat="47.25261" lon="6.48805">
        <ele>699.6</ele>
        <time>2020-05-22T13:49:02Z</time>
      </trkpt>
      <trkpt lat="47.25261" lon="6.48809">
        <ele>699.6</ele>
        <time>2020-05-22T13:49:03Z</time>
      </trkpt>
      <trkpt lat="47.2526" lon="6.48813">
        <ele>699.6</ele>
        <time>2020-05-22T13:49:04Z</time>
      </trkpt>
      <trkpt lat="47.25259" lon="6.48818">
        <ele>699.8</ele>
        <time>2020-05-22T13:49:05Z</time>
      </trkpt>
      <trkpt lat="47.25259" lon="6.48822">
        <ele>699.8</ele>
        <time>2020-05-22T13:49:06Z</time>
      </trkpt>
      <trkpt lat="47.25258" lon="6.48827">
        <ele>700</ele>
        <time>2020-05-22T13:49:07Z</time>
      </trkpt>
      <trkpt lat="47.25257" lon="6.48832">
        <ele>700</ele>
        <time>2020-05-22T13:49:08Z</time>
      </trkpt>
      <trkpt lat="47.25256" lon="6.48836">
        <ele>700</ele>
        <time>2020-05-22T13:49:09Z</time>
      </trkpt>
      <trkpt lat="47.25256" lon="6.48841">
        <ele>700</ele>
        <time>2020-05-22T13:49:10Z</time>
      </trkpt>
      <trkpt lat="47.25255" lon="6.48846">
        <ele>700</ele>
        <time>2020-05-22T13:49:11Z</time>
      </trkpt>
      <trkpt lat="47.25255" lon="6.48852">
        <ele>700.2</ele>
        <time>2020-05-22T13:49:12Z</time>
      </trkpt>
      <trkpt lat="47.25254" lon="6.48857">
        <ele>700.2</ele>
        <time>2020-05-22T13:49:13Z</time>
      </trkpt>
      <trkpt lat="47.25254" lon="6.48863">
        <ele>700.2</ele>
        <time>2020-05-22T13:49:14Z</time>
      </trkpt>
      <trkpt lat="47.25253" lon="6.48869">
        <ele>700.2</ele>
        <time>2020-05-22T13:49:15Z</time>
      </trkpt>
      <trkpt lat="47.25253" lon="6.48875">
        <ele>700.2</ele>
        <time>2020-05-22T13:49:16Z</time>
      </trkpt>
      <trkpt lat="47.25252" lon="6.48881">
        <ele>700.2</ele>
        <time>2020-05-22T13:49:17Z</time>
      </trkpt>
      <trkpt lat="47.25252" lon="6.48887">
        <ele>700.2</ele>
        <time>2020-05-22T13:49:18Z</time>
      </trkpt>
      <trkpt lat="47.25252" lon="6.48894">
        <ele>700.2</ele>
        <time>2020-05-22T13:49:19Z</time>
      </trkpt>
      <trkpt lat="47.25251" lon="6.489">
        <ele>700.2</ele>
        <time>2020-05-22T13:49:20Z</time>
      </trkpt>
      <trkpt lat="47.25251" lon="6.48907">
        <ele>700.2</ele>
        <time>2020-05-22T13:49:21Z</time>
      </trkpt>
      <trkpt lat="47.25251" lon="6.48914">
        <ele>700.2</ele>
        <time>2020-05-22T13:49:22Z</time>
      </trkpt>
      <trkpt lat="47.2525" lon="6.48922">
        <ele>700</ele>
        <time>2020-05-22T13:49:23Z</time>
      </trkpt>
      <trkpt lat="47.2525" lon="6.48929">
        <ele>700</ele>
        <time>2020-05-22T13:49:24Z</time>
      </trkpt>
      <trkpt lat="47.25249" lon="6.48937">
        <ele>700</ele>
        <time>2020-05-22T13:49:25Z</time>
      </trkpt>
      <trkpt lat="47.25249" lon="6.48945">
        <ele>700</ele>
        <time>2020-05-22T13:49:26Z</time>
      </trkpt>
      <trkpt lat="47.25248" lon="6.48954">
        <ele>699.6</ele>
        <time>2020-05-22T13:49:27Z</time>
      </trkpt>
      <trkpt lat="47.25247" lon="6.48963">
        <ele>699.6</ele>
        <time>2020-05-22T13:49:28Z</time>
      </trkpt>
      <trkpt lat="47.25246" lon="6.48972">
        <ele>699.4</ele>
        <time>2020-05-22T13:49:29Z</time>
      </trkpt>
      <trkpt lat="47.25246" lon="6.48982">
        <ele>699.4</ele>
        <time>2020-05-22T13:49:30Z</time>
      </trkpt>
      <trkpt lat="47.25245" lon="6.48992">
        <ele>699.4</ele>
        <time>2020-05-22T13:49:31Z</time>
      </trkpt>
      <trkpt lat="47.25244" lon="6.49002">
        <ele>699.2</ele>
        <time>2020-05-22T13:49:32Z</time>
      </trkpt>
      <trkpt lat="47.25243" lon="6.49012">
        <ele>699.2</ele>
        <time>2020-05-22T13:49:33Z</time>
      </trkpt>
      <trkpt lat="47.25243" lon="6.49021">
        <ele>699.2</ele>
        <time>2020-05-22T13:49:34Z</time>
      </trkpt>
      <trkpt lat="47.25242" lon="6.49031">
        <ele>699.2</ele>
        <time>2020-05-22T13:49:35Z</time>
      </trkpt>
      <trkpt lat="47.25241" lon="6.4904">
        <ele>699.2</ele>
        <time>2020-05-22T13:49:36Z</time>
      </trkpt>
      <trkpt lat="47.2524" lon="6.49049">
        <ele>699</ele>
        <time>2020-05-22T13:49:37Z</time>
      </trkpt>
      <trkpt lat="47.2524" lon="6.49058">
        <ele>698.8</ele>
        <time>2020-05-22T13:49:38Z</time>
      </trkpt>
      <trkpt lat="47.25239" lon="6.49066">
        <ele>698.8</ele>
        <time>2020-05-22T13:49:39Z</time>
      </trkpt>
      <trkpt lat="47.25239" lon="6.49075">
        <ele>698.4</ele>
        <time>2020-05-22T13:49:40Z</time>
      </trkpt>
      <trkpt lat="47.25238" lon="6.49083">
        <ele>698.4</ele>
        <time>2020-05-22T13:49:41Z</time>
      </trkpt>
      <trkpt lat="47.25238" lon="6.49092">
        <ele>698.2</ele>
        <time>2020-05-22T13:49:42Z</time>
      </trkpt>
      <trkpt lat="47.25238" lon="6.491">
        <ele>698.2</ele>
        <time>2020-05-22T13:49:43Z</time>
      </trkpt>
      <trkpt lat="47.25237" lon="6.49108">
        <ele>698</ele>
        <time>2020-05-22T13:49:44Z</time>
      </trkpt>
      <trkpt lat="47.25237" lon="6.49117">
        <ele>698</ele>
        <time>2020-05-22T13:49:45Z</time>
      </trkpt>
      <trkpt lat="47.25236" lon="6.49125">
        <ele>698</ele>
        <time>2020-05-22T13:49:46Z</time>
      </trkpt>
      <trkpt lat="47.25235" lon="6.49133">
        <ele>698</ele>
        <time>2020-05-22T13:49:47Z</time>
      </trkpt>
      <trkpt lat="47.25235" lon="6.49141">
        <ele>698</ele>
        <time>2020-05-22T13:49:48Z</time>
      </trkpt>
      <trkpt lat="47.25234" lon="6.49149">
        <ele>698</ele>
        <time>2020-05-22T13:49:49Z</time>
      </trkpt>
      <trkpt lat="47.25234" lon="6.49157">
        <ele>698</ele>
        <time>2020-05-22T13:49:50Z</time>
      </trkpt>
      <trkpt lat="47.25233" lon="6.49165">
        <ele>698</ele>
        <time>2020-05-22T13:49:51Z</time>
      </trkpt>
      <trkpt lat="47.25233" lon="6.49172">
        <ele>698</ele>
        <time>2020-05-22T13:49:52Z</time>
      </trkpt>
      <trkpt lat="47.25233" lon="6.4918">
        <ele>698</ele>
        <time>2020-05-22T13:49:53Z</time>
      </trkpt>
      <trkpt lat="47.25232" lon="6.49188">
        <ele>697.8</ele>
        <time>2020-05-22T13:49:54Z</time>
      </trkpt>
      <trkpt lat="47.25232" lon="6.49195">
        <ele>697.8</ele>
        <time>2020-05-22T13:49:55Z</time>
      </trkpt>
      <trkpt lat="47.25232" lon="6.49203">
        <ele>697.8</ele>
        <time>2020-05-22T13:49:56Z</time>
      </trkpt>
      <trkpt lat="47.25232" lon="6.4921">
        <ele>697.8</ele>
        <time>2020-05-22T13:49:57Z</time>
      </trkpt>
      <trkpt lat="47.25231" lon="6.49218">
        <ele>697.8</ele>
        <time>2020-05-22T13:49:58Z</time>
      </trkpt>
      <trkpt lat="47.25231" lon="6.49225">
        <ele>697.8</ele>
        <time>2020-05-22T13:49:59Z</time>
      </trkpt>
      <trkpt lat="47.25231" lon="6.49233">
        <ele>697.8</ele>
        <time>2020-05-22T13:50:00Z</time>
      </trkpt>
      <trkpt lat="47.2523" lon="6.4924">
        <ele>697.8</ele>
        <time>2020-05-22T13:50:01Z</time>
      </trkpt>
      <trkpt lat="47.2523" lon="6.49248">
        <ele>697.8</ele>
        <time>2020-05-22T13:50:02Z</time>
      </trkpt>
      <trkpt lat="47.2523" lon="6.49256">
        <ele>697.8</ele>
        <time>2020-05-22T13:50:03Z</time>
      </trkpt>
      <trkpt lat="47.25229" lon="6.49264">
        <ele>697.8</ele>
        <time>2020-05-22T13:50:04Z</time>
      </trkpt>
      <trkpt lat="47.25229" lon="6.49272">
        <ele>697.8</ele>
        <time>2020-05-22T13:50:05Z</time>
      </trkpt>
      <trkpt lat="47.25228" lon="6.49281">
        <ele>697.8</ele>
        <time>2020-05-22T13:50:06Z</time>
      </trkpt>
      <trkpt lat="47.25228" lon="6.49289">
        <ele>697.6</ele>
        <time>2020-05-22T13:50:07Z</time>
      </trkpt>
      <trkpt lat="47.25227" lon="6.49298">
        <ele>697.4</ele>
        <time>2020-05-22T13:50:08Z</time>
      </trkpt>
      <trkpt lat="47.25227" lon="6.49307">
        <ele>697.4</ele>
        <time>2020-05-22T13:50:09Z</time>
      </trkpt>
      <trkpt lat="47.25227" lon="6.49315">
        <ele>697</ele>
        <time>2020-05-22T13:50:10Z</time>
      </trkpt>
      <trkpt lat="47.25226" lon="6.49324">
        <ele>697</ele>
        <time>2020-05-22T13:50:11Z</time>
      </trkpt>
      <trkpt lat="47.25226" lon="6.49333">
        <ele>696.8</ele>
        <time>2020-05-22T13:50:12Z</time>
      </trkpt>
      <trkpt lat="47.25225" lon="6.49342">
        <ele>696.8</ele>
        <time>2020-05-22T13:50:13Z</time>
      </trkpt>
      <trkpt lat="47.25225" lon="6.49352">
        <ele>696.8</ele>
        <time>2020-05-22T13:50:14Z</time>
      </trkpt>
      <trkpt lat="47.25224" lon="6.49361">
        <ele>696.8</ele>
        <time>2020-05-22T13:50:15Z</time>
      </trkpt>
      <trkpt lat="47.25224" lon="6.4937">
        <ele>696.8</ele>
        <time>2020-05-22T13:50:16Z</time>
      </trkpt>
      <trkpt lat="47.25223" lon="6.49379">
        <ele>696.8</ele>
        <time>2020-05-22T13:50:17Z</time>
      </trkpt>
      <trkpt lat="47.25222" lon="6.49389">
        <ele>697.2</ele>
        <time>2020-05-22T13:50:18Z</time>
      </trkpt>
      <trkpt lat="47.25222" lon="6.49398">
        <ele>697.2</ele>
        <time>2020-05-22T13:50:19Z</time>
      </trkpt>
      <trkpt lat="47.25221" lon="6.49408">
        <ele>696.6</ele>
        <time>2020-05-22T13:50:20Z</time>
      </trkpt>
      <trkpt lat="47.25221" lon="6.49417">
        <ele>696.4</ele>
        <time>2020-05-22T13:50:21Z</time>
      </trkpt>
      <trkpt lat="47.2522" lon="6.49427">
        <ele>696</ele>
        <time>2020-05-22T13:50:22Z</time>
      </trkpt>
      <trkpt lat="47.2522" lon="6.49437">
        <ele>696</ele>
        <time>2020-05-22T13:50:23Z</time>
      </trkpt>
      <trkpt lat="47.25219" lon="6.49446">
        <ele>696</ele>
        <time>2020-05-22T13:50:24Z</time>
      </trkpt>
      <trkpt lat="47.25219" lon="6.49456">
        <ele>696</ele>
        <time>2020-05-22T13:50:25Z</time>
      </trkpt>
      <trkpt lat="47.25218" lon="6.49466">
        <ele>695.8</ele>
        <time>2020-05-22T13:50:26Z</time>
      </trkpt>
      <trkpt lat="47.25218" lon="6.49476">
        <ele>695.6</ele>
        <time>2020-05-22T13:50:27Z</time>
      </trkpt>
      <trkpt lat="47.25217" lon="6.49486">
        <ele>695.2</ele>
        <time>2020-05-22T13:50:28Z</time>
      </trkpt>
      <trkpt lat="47.25217" lon="6.49496">
        <ele>695.2</ele>
        <time>2020-05-22T13:50:29Z</time>
      </trkpt>
      <trkpt lat="47.25216" lon="6.49506">
        <ele>695</ele>
        <time>2020-05-22T13:50:30Z</time>
      </trkpt>
      <trkpt lat="47.25216" lon="6.49516">
        <ele>695</ele>
        <time>2020-05-22T13:50:31Z</time>
      </trkpt>
      <trkpt lat="47.25215" lon="6.49526">
        <ele>694.6</ele>
        <time>2020-05-22T13:50:32Z</time>
      </trkpt>
      <trkpt lat="47.25215" lon="6.49535">
        <ele>694.6</ele>
        <time>2020-05-22T13:50:33Z</time>
      </trkpt>
      <trkpt lat="47.25214" lon="6.49545">
        <ele>694.4</ele>
        <time>2020-05-22T13:50:34Z</time>
      </trkpt>
      <trkpt lat="47.25214" lon="6.49554">
        <ele>694.4</ele>
        <time>2020-05-22T13:50:35Z</time>
      </trkpt>
      <trkpt lat="47.25213" lon="6.49564">
        <ele>694.4</ele>
        <time>2020-05-22T13:50:36Z</time>
      </trkpt>
      <trkpt lat="47.25213" lon="6.49572">
        <ele>694.4</ele>
        <time>2020-05-22T13:50:37Z</time>
      </trkpt>
      <trkpt lat="47.25212" lon="6.49581">
        <ele>694.4</ele>
        <time>2020-05-22T13:50:38Z</time>
      </trkpt>
      <trkpt lat="47.25212" lon="6.49589">
        <ele>694.4</ele>
        <time>2020-05-22T13:50:39Z</time>
      </trkpt>
      <trkpt lat="47.25212" lon="6.49597">
        <ele>694.6</ele>
        <time>2020-05-22T13:50:40Z</time>
      </trkpt>
      <trkpt lat="47.25211" lon="6.49605">
        <ele>694.6</ele>
        <time>2020-05-22T13:50:41Z</time>
      </trkpt>
      <trkpt lat="47.25211" lon="6.49613">
        <ele>694.8</ele>
        <time>2020-05-22T13:50:42Z</time>
      </trkpt>
      <trkpt lat="47.2521" lon="6.4962">
        <ele>694.8</ele>
        <time>2020-05-22T13:50:43Z</time>
      </trkpt>
      <trkpt lat="47.2521" lon="6.49628">
        <ele>695</ele>
        <time>2020-05-22T13:50:44Z</time>
      </trkpt>
      <trkpt lat="47.25209" lon="6.49635">
        <ele>695</ele>
        <time>2020-05-22T13:50:45Z</time>
      </trkpt>
      <trkpt lat="47.25209" lon="6.49642">
        <ele>695</ele>
        <time>2020-05-22T13:50:46Z</time>
      </trkpt>
      <trkpt lat="47.25208" lon="6.49649">
        <ele>695.2</ele>
        <time>2020-05-22T13:50:47Z</time>
      </trkpt>
      <trkpt lat="47.25208" lon="6.49656">
        <ele>695.2</ele>
        <time>2020-05-22T13:50:48Z</time>
      </trkpt>
      <trkpt lat="47.25208" lon="6.49662">
        <ele>695.2</ele>
        <time>2020-05-22T13:50:49Z</time>
      </trkpt>
      <trkpt lat="47.25207" lon="6.49669">
        <ele>695.6</ele>
        <time>2020-05-22T13:50:50Z</time>
      </trkpt>
      <trkpt lat="47.25207" lon="6.49675">
        <ele>695.6</ele>
        <time>2020-05-22T13:50:51Z</time>
      </trkpt>
      <trkpt lat="47.25206" lon="6.49682">
        <ele>695.6</ele>
        <time>2020-05-22T13:50:52Z</time>
      </trkpt>
      <trkpt lat="47.25206" lon="6.49688">
        <ele>695.8</ele>
        <time>2020-05-22T13:50:53Z</time>
      </trkpt>
      <trkpt lat="47.25206" lon="6.49694">
        <ele>695.8</ele>
        <time>2020-05-22T13:50:54Z</time>
      </trkpt>
      <trkpt lat="47.25205" lon="6.497">
        <ele>695.8</ele>
        <time>2020-05-22T13:50:55Z</time>
      </trkpt>
      <trkpt lat="47.25205" lon="6.49706">
        <ele>696</ele>
        <time>2020-05-22T13:50:56Z</time>
      </trkpt>
      <trkpt lat="47.25204" lon="6.49712">
        <ele>696</ele>
        <time>2020-05-22T13:50:57Z</time>
      </trkpt>
      <trkpt lat="47.25204" lon="6.49718">
        <ele>696.2</ele>
        <time>2020-05-22T13:50:58Z</time>
      </trkpt>
      <trkpt lat="47.25204" lon="6.49724">
        <ele>696.2</ele>
        <time>2020-05-22T13:50:59Z</time>
      </trkpt>
      <trkpt lat="47.25203" lon="6.49729">
        <ele>696.4</ele>
        <time>2020-05-22T13:51:00Z</time>
      </trkpt>
      <trkpt lat="47.25203" lon="6.49735">
        <ele>696.4</ele>
        <time>2020-05-22T13:51:01Z</time>
      </trkpt>
      <trkpt lat="47.25203" lon="6.49741">
        <ele>696.8</ele>
        <time>2020-05-22T13:51:02Z</time>
      </trkpt>
      <trkpt lat="47.25203" lon="6.49747">
        <ele>696.8</ele>
        <time>2020-05-22T13:51:03Z</time>
      </trkpt>
      <trkpt lat="47.25203" lon="6.49752">
        <ele>696.8</ele>
        <time>2020-05-22T13:51:04Z</time>
      </trkpt>
      <trkpt lat="47.25202" lon="6.49758">
        <ele>697</ele>
        <time>2020-05-22T13:51:05Z</time>
      </trkpt>
      <trkpt lat="47.25202" lon="6.49764">
        <ele>697</ele>
        <time>2020-05-22T13:51:06Z</time>
      </trkpt>
      <trkpt lat="47.25202" lon="6.49769">
        <ele>697.2</ele>
        <time>2020-05-22T13:51:07Z</time>
      </trkpt>
      <trkpt lat="47.25201" lon="6.49775">
        <ele>697.2</ele>
        <time>2020-05-22T13:51:08Z</time>
      </trkpt>
      <trkpt lat="47.25201" lon="6.4978">
        <ele>697.2</ele>
        <time>2020-05-22T13:51:09Z</time>
      </trkpt>
      <trkpt lat="47.252" lon="6.49785">
        <ele>697.2</ele>
        <time>2020-05-22T13:51:10Z</time>
      </trkpt>
      <trkpt lat="47.252" lon="6.49791">
        <ele>697.6</ele>
        <time>2020-05-22T13:51:11Z</time>
      </trkpt>
      <trkpt lat="47.252" lon="6.49796">
        <ele>697.6</ele>
        <time>2020-05-22T13:51:12Z</time>
      </trkpt>
      <trkpt lat="47.252" lon="6.49802">
        <ele>697.6</ele>
        <time>2020-05-22T13:51:13Z</time>
      </trkpt>
      <trkpt lat="47.25199" lon="6.49807">
        <ele>697.6</ele>
        <time>2020-05-22T13:51:14Z</time>
      </trkpt>
      <trkpt lat="47.25199" lon="6.49813">
        <ele>697.8</ele>
        <time>2020-05-22T13:51:15Z</time>
      </trkpt>
      <trkpt lat="47.25199" lon="6.49818">
        <ele>697.8</ele>
        <time>2020-05-22T13:51:16Z</time>
      </trkpt>
      <trkpt lat="47.25199" lon="6.49823">
        <ele>698</ele>
        <time>2020-05-22T13:51:17Z</time>
      </trkpt>
      <trkpt lat="47.25198" lon="6.49829">
        <ele>698</ele>
        <time>2020-05-22T13:51:18Z</time>
      </trkpt>
      <trkpt lat="47.25198" lon="6.49834">
        <ele>698</ele>
        <time>2020-05-22T13:51:19Z</time>
      </trkpt>
      <trkpt lat="47.25198" lon="6.4984">
        <ele>698.2</ele>
        <time>2020-05-22T13:51:20Z</time>
      </trkpt>
      <trkpt lat="47.25198" lon="6.49845">
        <ele>698.2</ele>
        <time>2020-05-22T13:51:21Z</time>
      </trkpt>
      <trkpt lat="47.25197" lon="6.4985">
        <ele>698.2</ele>
        <time>2020-05-22T13:51:22Z</time>
      </trkpt>
      <trkpt lat="47.25197" lon="6.49856">
        <ele>698.2</ele>
        <time>2020-05-22T13:51:23Z</time>
      </trkpt>
      <trkpt lat="47.25197" lon="6.49861">
        <ele>698.4</ele>
        <time>2020-05-22T13:51:24Z</time>
      </trkpt>
      <trkpt lat="47.25196" lon="6.49867">
        <ele>698.4</ele>
        <time>2020-05-22T13:51:25Z</time>
      </trkpt>
      <trkpt lat="47.25196" lon="6.49873">
        <ele>698.4</ele>
        <time>2020-05-22T13:51:26Z</time>
      </trkpt>
      <trkpt lat="47.25195" lon="6.49878">
        <ele>698.4</ele>
        <time>2020-05-22T13:51:27Z</time>
      </trkpt>
      <trkpt lat="47.25195" lon="6.49884">
        <ele>698.4</ele>
        <time>2020-05-22T13:51:28Z</time>
      </trkpt>
      <trkpt lat="47.25195" lon="6.4989">
        <ele>698.4</ele>
        <time>2020-05-22T13:51:29Z</time>
      </trkpt>
      <trkpt lat="47.25195" lon="6.49896">
        <ele>698.8</ele>
        <time>2020-05-22T13:51:30Z</time>
      </trkpt>
      <trkpt lat="47.25194" lon="6.49901">
        <ele>698.8</ele>
        <time>2020-05-22T13:51:31Z</time>
      </trkpt>
      <trkpt lat="47.25194" lon="6.49907">
        <ele>698.8</ele>
        <time>2020-05-22T13:51:32Z</time>
      </trkpt>
      <trkpt lat="47.25194" lon="6.49913">
        <ele>698.8</ele>
        <time>2020-05-22T13:51:33Z</time>
      </trkpt>
      <trkpt lat="47.25193" lon="6.49918">
        <ele>698.8</ele>
        <time>2020-05-22T13:51:34Z</time>
      </trkpt>
      <trkpt lat="47.25193" lon="6.49924">
        <ele>699</ele>
        <time>2020-05-22T13:51:35Z</time>
      </trkpt>
      <trkpt lat="47.25193" lon="6.49929">
        <ele>699</ele>
        <time>2020-05-22T13:51:36Z</time>
      </trkpt>
      <trkpt lat="47.25193" lon="6.49935">
        <ele>699</ele>
        <time>2020-05-22T13:51:37Z</time>
      </trkpt>
      <trkpt lat="47.25192" lon="6.49941">
        <ele>699</ele>
        <time>2020-05-22T13:51:38Z</time>
      </trkpt>
      <trkpt lat="47.25192" lon="6.49946">
        <ele>699</ele>
        <time>2020-05-22T13:51:39Z</time>
      </trkpt>
      <trkpt lat="47.25192" lon="6.49952">
        <ele>699</ele>
        <time>2020-05-22T13:51:40Z</time>
      </trkpt>
      <trkpt lat="47.25191" lon="6.49958">
        <ele>699</ele>
        <time>2020-05-22T13:51:41Z</time>
      </trkpt>
      <trkpt lat="47.25191" lon="6.49965">
        <ele>699</ele>
        <time>2020-05-22T13:51:42Z</time>
      </trkpt>
      <trkpt lat="47.2519" lon="6.49971">
        <ele>699</ele>
        <time>2020-05-22T13:51:43Z</time>
      </trkpt>
      <trkpt lat="47.2519" lon="6.49977">
        <ele>699.2</ele>
        <time>2020-05-22T13:51:44Z</time>
      </trkpt>
      <trkpt lat="47.25189" lon="6.49984">
        <ele>699.2</ele>
        <time>2020-05-22T13:51:45Z</time>
      </trkpt>
      <trkpt lat="47.25189" lon="6.4999">
        <ele>699.4</ele>
        <time>2020-05-22T13:51:46Z</time>
      </trkpt>
      <trkpt lat="47.25189" lon="6.49997">
        <ele>699.4</ele>
        <time>2020-05-22T13:51:47Z</time>
      </trkpt>
      <trkpt lat="47.25189" lon="6.50004">
        <ele>699.4</ele>
        <time>2020-05-22T13:51:48Z</time>
      </trkpt>
      <trkpt lat="47.25188" lon="6.50011">
        <ele>699.4</ele>
        <time>2020-05-22T13:51:49Z</time>
      </trkpt>
      <trkpt lat="47.25188" lon="6.50018">
        <ele>699.6</ele>
        <time>2020-05-22T13:51:50Z</time>
      </trkpt>
      <trkpt lat="47.25187" lon="6.50025">
        <ele>699.6</ele>
        <time>2020-05-22T13:51:51Z</time>
      </trkpt>
      <trkpt lat="47.25187" lon="6.50032">
        <ele>699.6</ele>
        <time>2020-05-22T13:51:52Z</time>
      </trkpt>
      <trkpt lat="47.25187" lon="6.50039">
        <ele>699.6</ele>
        <time>2020-05-22T13:51:53Z</time>
      </trkpt>
      <trkpt lat="47.25186" lon="6.50046">
        <ele>699.4</ele>
        <time>2020-05-22T13:51:54Z</time>
      </trkpt>
      <trkpt lat="47.25186" lon="6.50053">
        <ele>699.4</ele>
        <time>2020-05-22T13:51:55Z</time>
      </trkpt>
      <trkpt lat="47.25186" lon="6.5006">
        <ele>699.4</ele>
        <time>2020-05-22T13:51:56Z</time>
      </trkpt>
      <trkpt lat="47.25185" lon="6.50067">
        <ele>699.4</ele>
        <time>2020-05-22T13:51:57Z</time>
      </trkpt>
      <trkpt lat="47.25185" lon="6.50075">
        <ele>699.4</ele>
        <time>2020-05-22T13:51:58Z</time>
      </trkpt>
      <trkpt lat="47.25184" lon="6.50082">
        <ele>699.2</ele>
        <time>2020-05-22T13:51:59Z</time>
      </trkpt>
      <trkpt lat="47.25184" lon="6.50089">
        <ele>699.2</ele>
        <time>2020-05-22T13:52:00Z</time>
      </trkpt>
      <trkpt lat="47.25183" lon="6.50097">
        <ele>699.2</ele>
        <time>2020-05-22T13:52:01Z</time>
      </trkpt>
      <trkpt lat="47.25183" lon="6.50104">
        <ele>699.2</ele>
        <time>2020-05-22T13:52:02Z</time>
      </trkpt>
      <trkpt lat="47.25183" lon="6.50112">
        <ele>699.2</ele>
        <time>2020-05-22T13:52:03Z</time>
      </trkpt>
      <trkpt lat="47.25182" lon="6.50119">
        <ele>699.2</ele>
        <time>2020-05-22T13:52:04Z</time>
      </trkpt>
      <trkpt lat="47.25182" lon="6.50126">
        <ele>699.2</ele>
        <time>2020-05-22T13:52:05Z</time>
      </trkpt>
      <trkpt lat="47.25182" lon="6.50134">
        <ele>699.2</ele>
        <time>2020-05-22T13:52:06Z</time>
      </trkpt>
      <trkpt lat="47.25181" lon="6.50141">
        <ele>699.2</ele>
        <time>2020-05-22T13:52:07Z</time>
      </trkpt>
      <trkpt lat="47.25181" lon="6.50148">
        <ele>699.2</ele>
        <time>2020-05-22T13:52:08Z</time>
      </trkpt>
      <trkpt lat="47.2518" lon="6.50155">
        <ele>699.2</ele>
        <time>2020-05-22T13:52:09Z</time>
      </trkpt>
      <trkpt lat="47.2518" lon="6.50161">
        <ele>699.4</ele>
        <time>2020-05-22T13:52:10Z</time>
      </trkpt>
      <trkpt lat="47.25179" lon="6.50168">
        <ele>699.4</ele>
        <time>2020-05-22T13:52:11Z</time>
      </trkpt>
      <trkpt lat="47.25179" lon="6.50175">
        <ele>699.4</ele>
        <time>2020-05-22T13:52:12Z</time>
      </trkpt>
      <trkpt lat="47.25178" lon="6.50181">
        <ele>699.8</ele>
        <time>2020-05-22T13:52:13Z</time>
      </trkpt>
      <trkpt lat="47.25178" lon="6.50187">
        <ele>700</ele>
        <time>2020-05-22T13:52:14Z</time>
      </trkpt>
      <trkpt lat="47.25178" lon="6.50193">
        <ele>700</ele>
        <time>2020-05-22T13:52:15Z</time>
      </trkpt>
      <trkpt lat="47.25177" lon="6.502">
        <ele>700.2</ele>
        <time>2020-05-22T13:52:16Z</time>
      </trkpt>
      <trkpt lat="47.25177" lon="6.50206">
        <ele>700.2</ele>
        <time>2020-05-22T13:52:17Z</time>
      </trkpt>
      <trkpt lat="47.25177" lon="6.50212">
        <ele>700.6</ele>
        <time>2020-05-22T13:52:18Z</time>
      </trkpt>
      <trkpt lat="47.25176" lon="6.50218">
        <ele>700.6</ele>
        <time>2020-05-22T13:52:19Z</time>
      </trkpt>
      <trkpt lat="47.25176" lon="6.50224">
        <ele>700.8</ele>
        <time>2020-05-22T13:52:20Z</time>
      </trkpt>
      <trkpt lat="47.25176" lon="6.5023">
        <ele>700.8</ele>
        <time>2020-05-22T13:52:21Z</time>
      </trkpt>
      <trkpt lat="47.25175" lon="6.50236">
        <ele>700.8</ele>
        <time>2020-05-22T13:52:22Z</time>
      </trkpt>
      <trkpt lat="47.25175" lon="6.50242">
        <ele>700.8</ele>
        <time>2020-05-22T13:52:23Z</time>
      </trkpt>
      <trkpt lat="47.25175" lon="6.50248">
        <ele>701</ele>
        <time>2020-05-22T13:52:24Z</time>
      </trkpt>
      <trkpt lat="47.25175" lon="6.50254">
        <ele>701</ele>
        <time>2020-05-22T13:52:25Z</time>
      </trkpt>
      <trkpt lat="47.25175" lon="6.5026">
        <ele>701</ele>
        <time>2020-05-22T13:52:26Z</time>
      </trkpt>
      <trkpt lat="47.25174" lon="6.50266">
        <ele>701</ele>
        <time>2020-05-22T13:52:27Z</time>
      </trkpt>
      <trkpt lat="47.25174" lon="6.50272">
        <ele>701.2</ele>
        <time>2020-05-22T13:52:28Z</time>
      </trkpt>
      <trkpt lat="47.25174" lon="6.50278">
        <ele>701.2</ele>
        <time>2020-05-22T13:52:29Z</time>
      </trkpt>
      <trkpt lat="47.25173" lon="6.50283">
        <ele>701.2</ele>
        <time>2020-05-22T13:52:30Z</time>
      </trkpt>
      <trkpt lat="47.25173" lon="6.50289">
        <ele>701.6</ele>
        <time>2020-05-22T13:52:31Z</time>
      </trkpt>
      <trkpt lat="47.25172" lon="6.50295">
        <ele>701.6</ele>
        <time>2020-05-22T13:52:32Z</time>
      </trkpt>
      <trkpt lat="47.25172" lon="6.50301">
        <ele>701.8</ele>
        <time>2020-05-22T13:52:33Z</time>
      </trkpt>
      <trkpt lat="47.25172" lon="6.50306">
        <ele>701.8</ele>
        <time>2020-05-22T13:52:34Z</time>
      </trkpt>
      <trkpt lat="47.25171" lon="6.50312">
        <ele>701.8</ele>
        <time>2020-05-22T13:52:35Z</time>
      </trkpt>
      <trkpt lat="47.25171" lon="6.50318">
        <ele>702</ele>
        <time>2020-05-22T13:52:36Z</time>
      </trkpt>
      <trkpt lat="47.25171" lon="6.50323">
        <ele>702</ele>
        <time>2020-05-22T13:52:37Z</time>
      </trkpt>
      <trkpt lat="47.2517" lon="6.50329">
        <ele>702</ele>
        <time>2020-05-22T13:52:38Z</time>
      </trkpt>
      <trkpt lat="47.2517" lon="6.50335">
        <ele>702</ele>
        <time>2020-05-22T13:52:39Z</time>
      </trkpt>
      <trkpt lat="47.25169" lon="6.50341">
        <ele>702</ele>
        <time>2020-05-22T13:52:40Z</time>
      </trkpt>
      <trkpt lat="47.25169" lon="6.50347">
        <ele>702.2</ele>
        <time>2020-05-22T13:52:41Z</time>
      </trkpt>
      <trkpt lat="47.25168" lon="6.50353">
        <ele>702.2</ele>
        <time>2020-05-22T13:52:42Z</time>
      </trkpt>
      <trkpt lat="47.25168" lon="6.50359">
        <ele>702.2</ele>
        <time>2020-05-22T13:52:43Z</time>
      </trkpt>
      <trkpt lat="47.25167" lon="6.50365">
        <ele>702.2</ele>
        <time>2020-05-22T13:52:44Z</time>
      </trkpt>
      <trkpt lat="47.25167" lon="6.5037">
        <ele>702.2</ele>
        <time>2020-05-22T13:52:45Z</time>
      </trkpt>
      <trkpt lat="47.25167" lon="6.50376">
        <ele>702.6</ele>
        <time>2020-05-22T13:52:46Z</time>
      </trkpt>
      <trkpt lat="47.25166" lon="6.50382">
        <ele>702.6</ele>
        <time>2020-05-22T13:52:47Z</time>
      </trkpt>
      <trkpt lat="47.25166" lon="6.50387">
        <ele>702.8</ele>
        <time>2020-05-22T13:52:48Z</time>
      </trkpt>
      <trkpt lat="47.25165" lon="6.50393">
        <ele>702.8</ele>
        <time>2020-05-22T13:52:49Z</time>
      </trkpt>
      <trkpt lat="47.25165" lon="6.50398">
        <ele>702.8</ele>
        <time>2020-05-22T13:52:50Z</time>
      </trkpt>
      <trkpt lat="47.25165" lon="6.50403">
        <ele>703</ele>
        <time>2020-05-22T13:52:51Z</time>
      </trkpt>
      <trkpt lat="47.25164" lon="6.50409">
        <ele>703</ele>
        <time>2020-05-22T13:52:52Z</time>
      </trkpt>
      <trkpt lat="47.25164" lon="6.50414">
        <ele>703.2</ele>
        <time>2020-05-22T13:52:53Z</time>
      </trkpt>
      <trkpt lat="47.25164" lon="6.50419">
        <ele>703.2</ele>
        <time>2020-05-22T13:52:54Z</time>
      </trkpt>
      <trkpt lat="47.25163" lon="6.50424">
        <ele>703.4</ele>
        <time>2020-05-22T13:52:55Z</time>
      </trkpt>
      <trkpt lat="47.25163" lon="6.50429">
        <ele>703.4</ele>
        <time>2020-05-22T13:52:56Z</time>
      </trkpt>
      <trkpt lat="47.25162" lon="6.50433">
        <ele>703.8</ele>
        <time>2020-05-22T13:52:57Z</time>
      </trkpt>
      <trkpt lat="47.25162" lon="6.50438">
        <ele>703.8</ele>
        <time>2020-05-22T13:52:58Z</time>
      </trkpt>
      <trkpt lat="47.25162" lon="6.50443">
        <ele>704</ele>
        <time>2020-05-22T13:52:59Z</time>
      </trkpt>
      <trkpt lat="47.25162" lon="6.50447">
        <ele>704</ele>
        <time>2020-05-22T13:53:00Z</time>
      </trkpt>
      <trkpt lat="47.25161" lon="6.50452">
        <ele>704.4</ele>
        <time>2020-05-22T13:53:01Z</time>
      </trkpt>
      <trkpt lat="47.25161" lon="6.50457">
        <ele>704.4</ele>
        <time>2020-05-22T13:53:02Z</time>
      </trkpt>
      <trkpt lat="47.2516" lon="6.50462">
        <ele>704.6</ele>
        <time>2020-05-22T13:53:03Z</time>
      </trkpt>
      <trkpt lat="47.2516" lon="6.50466">
        <ele>704.6</ele>
        <time>2020-05-22T13:53:04Z</time>
      </trkpt>
      <trkpt lat="47.25159" lon="6.50471">
        <ele>704.6</ele>
        <time>2020-05-22T13:53:05Z</time>
      </trkpt>
      <trkpt lat="47.25158" lon="6.50476">
        <ele>704.8</ele>
        <time>2020-05-22T13:53:06Z</time>
      </trkpt>
      <trkpt lat="47.25157" lon="6.50481">
        <ele>704.8</ele>
        <time>2020-05-22T13:53:07Z</time>
      </trkpt>
      <trkpt lat="47.25156" lon="6.50485">
        <ele>705</ele>
        <time>2020-05-22T13:53:08Z</time>
      </trkpt>
      <trkpt lat="47.25156" lon="6.5049">
        <ele>705</ele>
        <time>2020-05-22T13:53:09Z</time>
      </trkpt>
      <trkpt lat="47.25155" lon="6.50495">
        <ele>705</ele>
        <time>2020-05-22T13:53:10Z</time>
      </trkpt>
      <trkpt lat="47.25154" lon="6.505">
        <ele>705</ele>
        <time>2020-05-22T13:53:11Z</time>
      </trkpt>
      <trkpt lat="47.25154" lon="6.50505">
        <ele>705</ele>
        <time>2020-05-22T13:53:12Z</time>
      </trkpt>
      <trkpt lat="47.25153" lon="6.50509">
        <ele>705.2</ele>
        <time>2020-05-22T13:53:13Z</time>
      </trkpt>
      <trkpt lat="47.25152" lon="6.50514">
        <ele>705.2</ele>
        <time>2020-05-22T13:53:14Z</time>
      </trkpt>
      <trkpt lat="47.25151" lon="6.50519">
        <ele>705.4</ele>
        <time>2020-05-22T13:53:15Z</time>
      </trkpt>
      <trkpt lat="47.2515" lon="6.50523">
        <ele>705.4</ele>
        <time>2020-05-22T13:53:16Z</time>
      </trkpt>
      <trkpt lat="47.25149" lon="6.50528">
        <ele>705.8</ele>
        <time>2020-05-22T13:53:17Z</time>
      </trkpt>
      <trkpt lat="47.25149" lon="6.50532">
        <ele>705.8</ele>
        <time>2020-05-22T13:53:18Z</time>
      </trkpt>
      <trkpt lat="47.25148" lon="6.50536">
        <ele>706</ele>
        <time>2020-05-22T13:53:19Z</time>
      </trkpt>
      <trkpt lat="47.25147" lon="6.50539">
        <ele>706</ele>
        <time>2020-05-22T13:53:20Z</time>
      </trkpt>
      <trkpt lat="47.25146" lon="6.50543">
        <ele>706.2</ele>
        <time>2020-05-22T13:53:21Z</time>
      </trkpt>
      <trkpt lat="47.25146" lon="6.50547">
        <ele>706.2</ele>
        <time>2020-05-22T13:53:22Z</time>
      </trkpt>
      <trkpt lat="47.25145" lon="6.50551">
        <ele>706.6</ele>
        <time>2020-05-22T13:53:23Z</time>
      </trkpt>
      <trkpt lat="47.25145" lon="6.50554">
        <ele>706.6</ele>
        <time>2020-05-22T13:53:24Z</time>
      </trkpt>
      <trkpt lat="47.25144" lon="6.50557">
        <ele>706.8</ele>
        <time>2020-05-22T13:53:25Z</time>
      </trkpt>
      <trkpt lat="47.25143" lon="6.5056">
        <ele>706.8</ele>
        <time>2020-05-22T13:53:26Z</time>
      </trkpt>
      <trkpt lat="47.25143" lon="6.50563">
        <ele>707.2</ele>
        <time>2020-05-22T13:53:27Z</time>
      </trkpt>
      <trkpt lat="47.25142" lon="6.50566">
        <ele>707.2</ele>
        <time>2020-05-22T13:53:28Z</time>
      </trkpt>
      <trkpt lat="47.25141" lon="6.5057">
        <ele>707.4</ele>
        <time>2020-05-22T13:53:29Z</time>
      </trkpt>
      <trkpt lat="47.2514" lon="6.50573">
        <ele>707.4</ele>
        <time>2020-05-22T13:53:30Z</time>
      </trkpt>
      <trkpt lat="47.2514" lon="6.50576">
        <ele>707.8</ele>
        <time>2020-05-22T13:53:31Z</time>
      </trkpt>
      <trkpt lat="47.2514" lon="6.50579">
        <ele>708</ele>
        <time>2020-05-22T13:53:32Z</time>
      </trkpt>
      <trkpt lat="47.25139" lon="6.50582">
        <ele>708.4</ele>
        <time>2020-05-22T13:53:33Z</time>
      </trkpt>
      <trkpt lat="47.25139" lon="6.50585">
        <ele>708.6</ele>
        <time>2020-05-22T13:53:34Z</time>
      </trkpt>
      <trkpt lat="47.25139" lon="6.50588">
        <ele>708.6</ele>
        <time>2020-05-22T13:53:35Z</time>
      </trkpt>
      <trkpt lat="47.25138" lon="6.50591">
        <ele>709</ele>
        <time>2020-05-22T13:53:36Z</time>
      </trkpt>
      <trkpt lat="47.25138" lon="6.50595">
        <ele>709.2</ele>
        <time>2020-05-22T13:53:37Z</time>
      </trkpt>
      <trkpt lat="47.25137" lon="6.50598">
        <ele>709.2</ele>
        <time>2020-05-22T13:53:38Z</time>
      </trkpt>
      <trkpt lat="47.25137" lon="6.50601">
        <ele>709.6</ele>
        <time>2020-05-22T13:53:39Z</time>
      </trkpt>
      <trkpt lat="47.25136" lon="6.50604">
        <ele>709.8</ele>
        <time>2020-05-22T13:53:40Z</time>
      </trkpt>
      <trkpt lat="47.25135" lon="6.50607">
        <ele>710</ele>
        <time>2020-05-22T13:53:41Z</time>
      </trkpt>
      <trkpt lat="47.25135" lon="6.5061">
        <ele>710</ele>
        <time>2020-05-22T13:53:42Z</time>
      </trkpt>
      <trkpt lat="47.25134" lon="6.50613">
        <ele>710.4</ele>
        <time>2020-05-22T13:53:43Z</time>
      </trkpt>
      <trkpt lat="47.25133" lon="6.50616">
        <ele>710.4</ele>
        <time>2020-05-22T13:53:44Z</time>
      </trkpt>
      <trkpt lat="47.25133" lon="6.50619">
        <ele>710.8</ele>
        <time>2020-05-22T13:53:45Z</time>
      </trkpt>
      <trkpt lat="47.25132" lon="6.50622">
        <ele>710.8</ele>
        <time>2020-05-22T13:53:46Z</time>
      </trkpt>
      <trkpt lat="47.25131" lon="6.50625">
        <ele>711</ele>
        <time>2020-05-22T13:53:47Z</time>
      </trkpt>
      <trkpt lat="47.2513" lon="6.50628">
        <ele>711</ele>
        <time>2020-05-22T13:53:48Z</time>
      </trkpt>
      <trkpt lat="47.2513" lon="6.50631">
        <ele>711.4</ele>
        <time>2020-05-22T13:53:49Z</time>
      </trkpt>
      <trkpt lat="47.25129" lon="6.50634">
        <ele>711.4</ele>
        <time>2020-05-22T13:53:50Z</time>
      </trkpt>
      <trkpt lat="47.25129" lon="6.50637">
        <ele>711.6</ele>
        <time>2020-05-22T13:53:51Z</time>
      </trkpt>
      <trkpt lat="47.25128" lon="6.5064">
        <ele>711.6</ele>
        <time>2020-05-22T13:53:52Z</time>
      </trkpt>
      <trkpt lat="47.25127" lon="6.50643">
        <ele>711.8</ele>
        <time>2020-05-22T13:53:53Z</time>
      </trkpt>
      <trkpt lat="47.25126" lon="6.50646">
        <ele>711.8</ele>
        <time>2020-05-22T13:53:54Z</time>
      </trkpt>
      <trkpt lat="47.25125" lon="6.50649">
        <ele>712</ele>
        <time>2020-05-22T13:53:55Z</time>
      </trkpt>
      <trkpt lat="47.25123" lon="6.50652">
        <ele>712</ele>
        <time>2020-05-22T13:53:56Z</time>
      </trkpt>
      <trkpt lat="47.25121" lon="6.50654">
        <ele>712.2</ele>
        <time>2020-05-22T13:53:57Z</time>
      </trkpt>
      <trkpt lat="47.25121" lon="6.50654">
        <ele>712.2</ele>
        <time>2020-05-22T13:53:58Z</time>
      </trkpt>
      <trkpt lat="47.25118" lon="6.50658">
        <ele>712.6</ele>
        <time>2020-05-22T13:53:59Z</time>
      </trkpt>
      <trkpt lat="47.25116" lon="6.5066">
        <ele>712.6</ele>
        <time>2020-05-22T13:54:00Z</time>
      </trkpt>
      <trkpt lat="47.25114" lon="6.50662">
        <ele>712.8</ele>
        <time>2020-05-22T13:54:01Z</time>
      </trkpt>
      <trkpt lat="47.25111" lon="6.50663">
        <ele>712.8</ele>
        <time>2020-05-22T13:54:02Z</time>
      </trkpt>
      <trkpt lat="47.2511" lon="6.50664">
        <ele>712.8</ele>
        <time>2020-05-22T13:54:03Z</time>
      </trkpt>
      <trkpt lat="47.25108" lon="6.50664">
        <ele>713.2</ele>
        <time>2020-05-22T13:54:04Z</time>
      </trkpt>
      <trkpt lat="47.25105" lon="6.50665">
        <ele>713.2</ele>
        <time>2020-05-22T13:54:05Z</time>
      </trkpt>
      <trkpt lat="47.25103" lon="6.50665">
        <ele>713.4</ele>
        <time>2020-05-22T13:54:06Z</time>
      </trkpt>
      <trkpt lat="47.25101" lon="6.50666">
        <ele>713.4</ele>
        <time>2020-05-22T13:54:07Z</time>
      </trkpt>
      <trkpt lat="47.25098" lon="6.50666">
        <ele>713.4</ele>
        <time>2020-05-22T13:54:08Z</time>
      </trkpt>
      <trkpt lat="47.25095" lon="6.50667">
        <ele>713.4</ele>
        <time>2020-05-22T13:54:09Z</time>
      </trkpt>
      <trkpt lat="47.25092" lon="6.50668">
        <ele>713.2</ele>
        <time>2020-05-22T13:54:10Z</time>
      </trkpt>
      <trkpt lat="47.25089" lon="6.50669">
        <ele>713.2</ele>
        <time>2020-05-22T13:54:11Z</time>
      </trkpt>
      <trkpt lat="47.25086" lon="6.5067">
        <ele>713.2</ele>
        <time>2020-05-22T13:54:12Z</time>
      </trkpt>
      <trkpt lat="47.25083" lon="6.5067">
        <ele>713.4</ele>
        <time>2020-05-22T13:54:13Z</time>
      </trkpt>
      <trkpt lat="47.2508" lon="6.50671">
        <ele>713.4</ele>
        <time>2020-05-22T13:54:14Z</time>
      </trkpt>
      <trkpt lat="47.25077" lon="6.50672">
        <ele>713.4</ele>
        <time>2020-05-22T13:54:15Z</time>
      </trkpt>
      <trkpt lat="47.25074" lon="6.50673">
        <ele>713.6</ele>
        <time>2020-05-22T13:54:16Z</time>
      </trkpt>
      <trkpt lat="47.2507" lon="6.50675">
        <ele>713.6</ele>
        <time>2020-05-22T13:54:17Z</time>
      </trkpt>
      <trkpt lat="47.25067" lon="6.50676">
        <ele>713.8</ele>
        <time>2020-05-22T13:54:18Z</time>
      </trkpt>
      <trkpt lat="47.25064" lon="6.50677">
        <ele>713.8</ele>
        <time>2020-05-22T13:54:19Z</time>
      </trkpt>
      <trkpt lat="47.25061" lon="6.50678">
        <ele>713.8</ele>
        <time>2020-05-22T13:54:20Z</time>
      </trkpt>
      <trkpt lat="47.25058" lon="6.50679">
        <ele>713.8</ele>
        <time>2020-05-22T13:54:21Z</time>
      </trkpt>
      <trkpt lat="47.25055" lon="6.50681">
        <ele>713.8</ele>
        <time>2020-05-22T13:54:22Z</time>
      </trkpt>
      <trkpt lat="47.25052" lon="6.50683">
        <ele>714</ele>
        <time>2020-05-22T13:54:23Z</time>
      </trkpt>
      <trkpt lat="47.25049" lon="6.50684">
        <ele>714</ele>
        <time>2020-05-22T13:54:24Z</time>
      </trkpt>
      <trkpt lat="47.25046" lon="6.50686">
        <ele>714</ele>
        <time>2020-05-22T13:54:25Z</time>
      </trkpt>
      <trkpt lat="47.25042" lon="6.50687">
        <ele>714</ele>
        <time>2020-05-22T13:54:26Z</time>
      </trkpt>
      <trkpt lat="47.25039" lon="6.50689">
        <ele>714</ele>
        <time>2020-05-22T13:54:27Z</time>
      </trkpt>
      <trkpt lat="47.25036" lon="6.5069">
        <ele>714.4</ele>
        <time>2020-05-22T13:54:28Z</time>
      </trkpt>
      <trkpt lat="47.25033" lon="6.50692">
        <ele>714.4</ele>
        <time>2020-05-22T13:54:29Z</time>
      </trkpt>
      <trkpt lat="47.25029" lon="6.50694">
        <ele>714.4</ele>
        <time>2020-05-22T13:54:30Z</time>
      </trkpt>
      <trkpt lat="47.25026" lon="6.50695">
        <ele>714.4</ele>
        <time>2020-05-22T13:54:31Z</time>
      </trkpt>
      <trkpt lat="47.25022" lon="6.50697">
        <ele>714.4</ele>
        <time>2020-05-22T13:54:32Z</time>
      </trkpt>
      <trkpt lat="47.25019" lon="6.50699">
        <ele>714.4</ele>
        <time>2020-05-22T13:54:33Z</time>
      </trkpt>
      <trkpt lat="47.25015" lon="6.50701">
        <ele>714.4</ele>
        <time>2020-05-22T13:54:34Z</time>
      </trkpt>
      <trkpt lat="47.25011" lon="6.50702">
        <ele>714.4</ele>
        <time>2020-05-22T13:54:35Z</time>
      </trkpt>
      <trkpt lat="47.25008" lon="6.50704">
        <ele>714.4</ele>
        <time>2020-05-22T13:54:36Z</time>
      </trkpt>
      <trkpt lat="47.25004" lon="6.50706">
        <ele>714.6</ele>
        <time>2020-05-22T13:54:37Z</time>
      </trkpt>
      <trkpt lat="47.25001" lon="6.50708">
        <ele>714.6</ele>
        <time>2020-05-22T13:54:38Z</time>
      </trkpt>
      <trkpt lat="47.24997" lon="6.5071">
        <ele>714.6</ele>
        <time>2020-05-22T13:54:39Z</time>
      </trkpt>
      <trkpt lat="47.24993" lon="6.50713">
        <ele>714.8</ele>
        <time>2020-05-22T13:54:40Z</time>
      </trkpt>
      <trkpt lat="47.24989" lon="6.50715">
        <ele>714.8</ele>
        <time>2020-05-22T13:54:41Z</time>
      </trkpt>
      <trkpt lat="47.24986" lon="6.50718">
        <ele>714.8</ele>
        <time>2020-05-22T13:54:42Z</time>
      </trkpt>
      <trkpt lat="47.24982" lon="6.50721">
        <ele>714.8</ele>
        <time>2020-05-22T13:54:43Z</time>
      </trkpt>
      <trkpt lat="47.24978" lon="6.50725">
        <ele>714.8</ele>
        <time>2020-05-22T13:54:44Z</time>
      </trkpt>
      <trkpt lat="47.24974" lon="6.50729">
        <ele>714.6</ele>
        <time>2020-05-22T13:54:45Z</time>
      </trkpt>
      <trkpt lat="47.2497" lon="6.50734">
        <ele>714.4</ele>
        <time>2020-05-22T13:54:46Z</time>
      </trkpt>
      <trkpt lat="47.24965" lon="6.5074">
        <ele>714.4</ele>
        <time>2020-05-22T13:54:47Z</time>
      </trkpt>
      <trkpt lat="47.24961" lon="6.50746">
        <ele>714.2</ele>
        <time>2020-05-22T13:54:48Z</time>
      </trkpt>
      <trkpt lat="47.24956" lon="6.50752">
        <ele>714.2</ele>
        <time>2020-05-22T13:54:49Z</time>
      </trkpt>
      <trkpt lat="47.24951" lon="6.50759">
        <ele>713.8</ele>
        <time>2020-05-22T13:54:50Z</time>
      </trkpt>
      <trkpt lat="47.24945" lon="6.50766">
        <ele>713.8</ele>
        <time>2020-05-22T13:54:51Z</time>
      </trkpt>
      <trkpt lat="47.2494" lon="6.50773">
        <ele>713.6</ele>
        <time>2020-05-22T13:54:52Z</time>
      </trkpt>
      <trkpt lat="47.24935" lon="6.5078">
        <ele>713.6</ele>
        <time>2020-05-22T13:54:53Z</time>
      </trkpt>
      <trkpt lat="47.2493" lon="6.50787">
        <ele>713.4</ele>
        <time>2020-05-22T13:54:54Z</time>
      </trkpt>
      <trkpt lat="47.24924" lon="6.50794">
        <ele>713.4</ele>
        <time>2020-05-22T13:54:55Z</time>
      </trkpt>
      <trkpt lat="47.24919" lon="6.50802">
        <ele>713.4</ele>
        <time>2020-05-22T13:54:56Z</time>
      </trkpt>
      <trkpt lat="47.24913" lon="6.5081">
        <ele>713.2</ele>
        <time>2020-05-22T13:54:57Z</time>
      </trkpt>
      <trkpt lat="47.24908" lon="6.50817">
        <ele>713.2</ele>
        <time>2020-05-22T13:54:58Z</time>
      </trkpt>
      <trkpt lat="47.24902" lon="6.50824">
        <ele>713</ele>
        <time>2020-05-22T13:54:59Z</time>
      </trkpt>
      <trkpt lat="47.24897" lon="6.50832">
        <ele>713</ele>
        <time>2020-05-22T13:55:00Z</time>
      </trkpt>
      <trkpt lat="47.24892" lon="6.50839">
        <ele>712.6</ele>
        <time>2020-05-22T13:55:01Z</time>
      </trkpt>
      <trkpt lat="47.24886" lon="6.50846">
        <ele>712.6</ele>
        <time>2020-05-22T13:55:02Z</time>
      </trkpt>
      <trkpt lat="47.24881" lon="6.50854">
        <ele>712.6</ele>
        <time>2020-05-22T13:55:03Z</time>
      </trkpt>
      <trkpt lat="47.24876" lon="6.50861">
        <ele>712.6</ele>
        <time>2020-05-22T13:55:04Z</time>
      </trkpt>
      <trkpt lat="47.24871" lon="6.50868">
        <ele>712.6</ele>
        <time>2020-05-22T13:55:05Z</time>
      </trkpt>
      <trkpt lat="47.24866" lon="6.50874">
        <ele>712.6</ele>
        <time>2020-05-22T13:55:06Z</time>
      </trkpt>
      <trkpt lat="47.2486" lon="6.50881">
        <ele>712.6</ele>
        <time>2020-05-22T13:55:07Z</time>
      </trkpt>
      <trkpt lat="47.24855" lon="6.50888">
        <ele>712.6</ele>
        <time>2020-05-22T13:55:08Z</time>
      </trkpt>
      <trkpt lat="47.2485" lon="6.50894">
        <ele>712.6</ele>
        <time>2020-05-22T13:55:09Z</time>
      </trkpt>
      <trkpt lat="47.24845" lon="6.509">
        <ele>712.6</ele>
        <time>2020-05-22T13:55:10Z</time>
      </trkpt>
      <trkpt lat="47.2484" lon="6.50906">
        <ele>712.6</ele>
        <time>2020-05-22T13:55:11Z</time>
      </trkpt>
      <trkpt lat="47.24834" lon="6.50912">
        <ele>712.6</ele>
        <time>2020-05-22T13:55:12Z</time>
      </trkpt>
      <trkpt lat="47.24829" lon="6.50918">
        <ele>712.4</ele>
        <time>2020-05-22T13:55:13Z</time>
      </trkpt>
      <trkpt lat="47.24824" lon="6.50924">
        <ele>712.4</ele>
        <time>2020-05-22T13:55:14Z</time>
      </trkpt>
      <trkpt lat="47.24818" lon="6.5093">
        <ele>712.4</ele>
        <time>2020-05-22T13:55:15Z</time>
      </trkpt>
      <trkpt lat="47.24812" lon="6.50936">
        <ele>712.2</ele>
        <time>2020-05-22T13:55:16Z</time>
      </trkpt>
      <trkpt lat="47.24806" lon="6.50941">
        <ele>712.2</ele>
        <time>2020-05-22T13:55:17Z</time>
      </trkpt>
      <trkpt lat="47.248" lon="6.50947">
        <ele>711.8</ele>
        <time>2020-05-22T13:55:18Z</time>
      </trkpt>
      <trkpt lat="47.24794" lon="6.50952">
        <ele>711.8</ele>
        <time>2020-05-22T13:55:19Z</time>
      </trkpt>
      <trkpt lat="47.24788" lon="6.50958">
        <ele>711.8</ele>
        <time>2020-05-22T13:55:20Z</time>
      </trkpt>
      <trkpt lat="47.24782" lon="6.50963">
        <ele>711.6</ele>
        <time>2020-05-22T13:55:21Z</time>
      </trkpt>
      <trkpt lat="47.24776" lon="6.50968">
        <ele>711.6</ele>
        <time>2020-05-22T13:55:22Z</time>
      </trkpt>
      <trkpt lat="47.2477" lon="6.50973">
        <ele>711.2</ele>
        <time>2020-05-22T13:55:23Z</time>
      </trkpt>
      <trkpt lat="47.24764" lon="6.50979">
        <ele>711.2</ele>
        <time>2020-05-22T13:55:24Z</time>
      </trkpt>
      <trkpt lat="47.24758" lon="6.50984">
        <ele>711</ele>
        <time>2020-05-22T13:55:25Z</time>
      </trkpt>
      <trkpt lat="47.24751" lon="6.50988">
        <ele>711</ele>
        <time>2020-05-22T13:55:26Z</time>
      </trkpt>
      <trkpt lat="47.24745" lon="6.50994">
        <ele>710.8</ele>
        <time>2020-05-22T13:55:27Z</time>
      </trkpt>
      <trkpt lat="47.24739" lon="6.50998">
        <ele>710.8</ele>
        <time>2020-05-22T13:55:28Z</time>
      </trkpt>
      <trkpt lat="47.24733" lon="6.51003">
        <ele>710.8</ele>
        <time>2020-05-22T13:55:29Z</time>
      </trkpt>
      <trkpt lat="47.24727" lon="6.51007">
        <ele>710.4</ele>
        <time>2020-05-22T13:55:30Z</time>
      </trkpt>
      <trkpt lat="47.2472" lon="6.51011">
        <ele>710.4</ele>
        <time>2020-05-22T13:55:31Z</time>
      </trkpt>
      <trkpt lat="47.24714" lon="6.51014">
        <ele>710.2</ele>
        <time>2020-05-22T13:55:32Z</time>
      </trkpt>
      <trkpt lat="47.24708" lon="6.51018">
        <ele>710.2</ele>
        <time>2020-05-22T13:55:33Z</time>
      </trkpt>
      <trkpt lat="47.24702" lon="6.51021">
        <ele>710.2</ele>
        <time>2020-05-22T13:55:34Z</time>
      </trkpt>
      <trkpt lat="47.24696" lon="6.51025">
        <ele>710.2</ele>
        <time>2020-05-22T13:55:35Z</time>
      </trkpt>
      <trkpt lat="47.2469" lon="6.51029">
        <ele>710.2</ele>
        <time>2020-05-22T13:55:36Z</time>
      </trkpt>
      <trkpt lat="47.24684" lon="6.51033">
        <ele>710.2</ele>
        <time>2020-05-22T13:55:37Z</time>
      </trkpt>
      <trkpt lat="47.24679" lon="6.51037">
        <ele>710.2</ele>
        <time>2020-05-22T13:55:38Z</time>
      </trkpt>
      <trkpt lat="47.24673" lon="6.5104">
        <ele>710.2</ele>
        <time>2020-05-22T13:55:39Z</time>
      </trkpt>
      <trkpt lat="47.24667" lon="6.51044">
        <ele>710.4</ele>
        <time>2020-05-22T13:55:40Z</time>
      </trkpt>
      <trkpt lat="47.24662" lon="6.51048">
        <ele>710.4</ele>
        <time>2020-05-22T13:55:41Z</time>
      </trkpt>
      <trkpt lat="47.24656" lon="6.51052">
        <ele>710.4</ele>
        <time>2020-05-22T13:55:42Z</time>
      </trkpt>
      <trkpt lat="47.24651" lon="6.51056">
        <ele>710.4</ele>
        <time>2020-05-22T13:55:43Z</time>
      </trkpt>
      <trkpt lat="47.24646" lon="6.51061">
        <ele>710.4</ele>
        <time>2020-05-22T13:55:44Z</time>
      </trkpt>
      <trkpt lat="47.24641" lon="6.51065">
        <ele>710.4</ele>
        <time>2020-05-22T13:55:45Z</time>
      </trkpt>
      <trkpt lat="47.24636" lon="6.5107">
        <ele>710.4</ele>
        <time>2020-05-22T13:55:46Z</time>
      </trkpt>
      <trkpt lat="47.24631" lon="6.51074">
        <ele>710.8</ele>
        <time>2020-05-22T13:55:47Z</time>
      </trkpt>
      <trkpt lat="47.24627" lon="6.51079">
        <ele>710.8</ele>
        <time>2020-05-22T13:55:48Z</time>
      </trkpt>
      <trkpt lat="47.24622" lon="6.51083">
        <ele>711.2</ele>
        <time>2020-05-22T13:55:49Z</time>
      </trkpt>
      <trkpt lat="47.24618" lon="6.51088">
        <ele>711.2</ele>
        <time>2020-05-22T13:55:50Z</time>
      </trkpt>
      <trkpt lat="47.24614" lon="6.51092">
        <ele>711.4</ele>
        <time>2020-05-22T13:55:51Z</time>
      </trkpt>
      <trkpt lat="47.2461" lon="6.51096">
        <ele>711.6</ele>
        <time>2020-05-22T13:55:52Z</time>
      </trkpt>
      <trkpt lat="47.24607" lon="6.51101">
        <ele>712</ele>
        <time>2020-05-22T13:55:53Z</time>
      </trkpt>
      <trkpt lat="47.24603" lon="6.51105">
        <ele>712.2</ele>
        <time>2020-05-22T13:55:54Z</time>
      </trkpt>
      <trkpt lat="47.246" lon="6.51109">
        <ele>712.2</ele>
        <time>2020-05-22T13:55:55Z</time>
      </trkpt>
      <trkpt lat="47.24597" lon="6.51113">
        <ele>712.6</ele>
        <time>2020-05-22T13:55:56Z</time>
      </trkpt>
      <trkpt lat="47.24594" lon="6.51117">
        <ele>712.6</ele>
        <time>2020-05-22T13:55:57Z</time>
      </trkpt>
      <trkpt lat="47.24591" lon="6.51121">
        <ele>712.8</ele>
        <time>2020-05-22T13:55:58Z</time>
      </trkpt>
      <trkpt lat="47.24588" lon="6.51125">
        <ele>712.8</ele>
        <time>2020-05-22T13:55:59Z</time>
      </trkpt>
      <trkpt lat="47.24585" lon="6.5113">
        <ele>712.8</ele>
        <time>2020-05-22T13:56:00Z</time>
      </trkpt>
      <trkpt lat="47.24582" lon="6.51134">
        <ele>712.8</ele>
        <time>2020-05-22T13:56:01Z</time>
      </trkpt>
      <trkpt lat="47.24578" lon="6.51139">
        <ele>712.8</ele>
        <time>2020-05-22T13:56:02Z</time>
      </trkpt>
      <trkpt lat="47.24575" lon="6.51145">
        <ele>712.8</ele>
        <time>2020-05-22T13:56:03Z</time>
      </trkpt>
      <trkpt lat="47.24571" lon="6.5115">
        <ele>712.8</ele>
        <time>2020-05-22T13:56:04Z</time>
      </trkpt>
      <trkpt lat="47.24568" lon="6.51156">
        <ele>712.4</ele>
        <time>2020-05-22T13:56:05Z</time>
      </trkpt>
      <trkpt lat="47.24564" lon="6.51162">
        <ele>712.4</ele>
        <time>2020-05-22T13:56:06Z</time>
      </trkpt>
      <trkpt lat="47.2456" lon="6.51169">
        <ele>712.2</ele>
        <time>2020-05-22T13:56:07Z</time>
      </trkpt>
      <trkpt lat="47.24556" lon="6.51176">
        <ele>712.2</ele>
        <time>2020-05-22T13:56:08Z</time>
      </trkpt>
      <trkpt lat="47.24551" lon="6.51183">
        <ele>712</ele>
        <time>2020-05-22T13:56:09Z</time>
      </trkpt>
      <trkpt lat="47.24547" lon="6.5119">
        <ele>712</ele>
        <time>2020-05-22T13:56:10Z</time>
      </trkpt>
      <trkpt lat="47.24542" lon="6.51198">
        <ele>711.8</ele>
        <time>2020-05-22T13:56:11Z</time>
      </trkpt>
      <trkpt lat="47.24538" lon="6.51206">
        <ele>711.8</ele>
        <time>2020-05-22T13:56:12Z</time>
      </trkpt>
      <trkpt lat="47.24533" lon="6.51214">
        <ele>711.4</ele>
        <time>2020-05-22T13:56:13Z</time>
      </trkpt>
      <trkpt lat="47.24528" lon="6.51222">
        <ele>711.4</ele>
        <time>2020-05-22T13:56:14Z</time>
      </trkpt>
      <trkpt lat="47.24523" lon="6.5123">
        <ele>711.2</ele>
        <time>2020-05-22T13:56:15Z</time>
      </trkpt>
      <trkpt lat="47.24518" lon="6.51238">
        <ele>711.2</ele>
        <time>2020-05-22T13:56:16Z</time>
      </trkpt>
      <trkpt lat="47.24514" lon="6.51246">
        <ele>711</ele>
        <time>2020-05-22T13:56:17Z</time>
      </trkpt>
      <trkpt lat="47.24509" lon="6.51254">
        <ele>710.8</ele>
        <time>2020-05-22T13:56:18Z</time>
      </trkpt>
      <trkpt lat="47.24504" lon="6.51262">
        <ele>710.8</ele>
        <time>2020-05-22T13:56:19Z</time>
      </trkpt>
      <trkpt lat="47.24499" lon="6.5127">
        <ele>710.4</ele>
        <time>2020-05-22T13:56:20Z</time>
      </trkpt>
      <trkpt lat="47.24494" lon="6.51278">
        <ele>710.4</ele>
        <time>2020-05-22T13:56:21Z</time>
      </trkpt>
      <trkpt lat="47.24489" lon="6.51285">
        <ele>710.2</ele>
        <time>2020-05-22T13:56:22Z</time>
      </trkpt>
      <trkpt lat="47.24484" lon="6.51293">
        <ele>710.2</ele>
        <time>2020-05-22T13:56:23Z</time>
      </trkpt>
      <trkpt lat="47.24478" lon="6.513">
        <ele>710.2</ele>
        <time>2020-05-22T13:56:24Z</time>
      </trkpt>
      <trkpt lat="47.24473" lon="6.51307">
        <ele>710.2</ele>
        <time>2020-05-22T13:56:25Z</time>
      </trkpt>
      <trkpt lat="47.24468" lon="6.51314">
        <ele>710</ele>
        <time>2020-05-22T13:56:26Z</time>
      </trkpt>
      <trkpt lat="47.24462" lon="6.51321">
        <ele>710</ele>
        <time>2020-05-22T13:56:27Z</time>
      </trkpt>
      <trkpt lat="47.24457" lon="6.51328">
        <ele>710</ele>
        <time>2020-05-22T13:56:28Z</time>
      </trkpt>
      <trkpt lat="47.24451" lon="6.51334">
        <ele>710</ele>
        <time>2020-05-22T13:56:29Z</time>
      </trkpt>
      <trkpt lat="47.24446" lon="6.51341">
        <ele>710</ele>
        <time>2020-05-22T13:56:30Z</time>
      </trkpt>
      <trkpt lat="47.24441" lon="6.51348">
        <ele>710</ele>
        <time>2020-05-22T13:56:31Z</time>
      </trkpt>
      <trkpt lat="47.24436" lon="6.51356">
        <ele>710</ele>
        <time>2020-05-22T13:56:32Z</time>
      </trkpt>
      <trkpt lat="47.24431" lon="6.51363">
        <ele>710</ele>
        <time>2020-05-22T13:56:33Z</time>
      </trkpt>
      <trkpt lat="47.24426" lon="6.51371">
        <ele>710</ele>
        <time>2020-05-22T13:56:34Z</time>
      </trkpt>
      <trkpt lat="47.24422" lon="6.51378">
        <ele>710</ele>
        <time>2020-05-22T13:56:35Z</time>
      </trkpt>
      <trkpt lat="47.24418" lon="6.51386">
        <ele>710</ele>
        <time>2020-05-22T13:56:36Z</time>
      </trkpt>
      <trkpt lat="47.24413" lon="6.51393">
        <ele>710</ele>
        <time>2020-05-22T13:56:37Z</time>
      </trkpt>
      <trkpt lat="47.24409" lon="6.51401">
        <ele>710</ele>
        <time>2020-05-22T13:56:38Z</time>
      </trkpt>
      <trkpt lat="47.24405" lon="6.51409">
        <ele>710</ele>
        <time>2020-05-22T13:56:39Z</time>
      </trkpt>
      <trkpt lat="47.24401" lon="6.51417">
        <ele>710</ele>
        <time>2020-05-22T13:56:40Z</time>
      </trkpt>
      <trkpt lat="47.24397" lon="6.51425">
        <ele>710</ele>
        <time>2020-05-22T13:56:41Z</time>
      </trkpt>
      <trkpt lat="47.24393" lon="6.51434">
        <ele>710</ele>
        <time>2020-05-22T13:56:42Z</time>
      </trkpt>
      <trkpt lat="47.2439" lon="6.51442">
        <ele>710</ele>
        <time>2020-05-22T13:56:43Z</time>
      </trkpt>
      <trkpt lat="47.24386" lon="6.51451">
        <ele>710</ele>
        <time>2020-05-22T13:56:44Z</time>
      </trkpt>
      <trkpt lat="47.24383" lon="6.51459">
        <ele>710</ele>
        <time>2020-05-22T13:56:45Z</time>
      </trkpt>
      <trkpt lat="47.24379" lon="6.51467">
        <ele>710</ele>
        <time>2020-05-22T13:56:46Z</time>
      </trkpt>
      <trkpt lat="47.24375" lon="6.51476">
        <ele>710</ele>
        <time>2020-05-22T13:56:47Z</time>
      </trkpt>
      <trkpt lat="47.24372" lon="6.51485">
        <ele>710</ele>
        <time>2020-05-22T13:56:48Z</time>
      </trkpt>
      <trkpt lat="47.24368" lon="6.51493">
        <ele>710</ele>
        <time>2020-05-22T13:56:49Z</time>
      </trkpt>
      <trkpt lat="47.24364" lon="6.51501">
        <ele>710</ele>
        <time>2020-05-22T13:56:50Z</time>
      </trkpt>
      <trkpt lat="47.2436" lon="6.51509">
        <ele>710</ele>
        <time>2020-05-22T13:56:51Z</time>
      </trkpt>
      <trkpt lat="47.24356" lon="6.51518">
        <ele>710</ele>
        <time>2020-05-22T13:56:52Z</time>
      </trkpt>
      <trkpt lat="47.24353" lon="6.51526">
        <ele>710</ele>
        <time>2020-05-22T13:56:53Z</time>
      </trkpt>
      <trkpt lat="47.2435" lon="6.51535">
        <ele>710</ele>
        <time>2020-05-22T13:56:54Z</time>
      </trkpt>
      <trkpt lat="47.24346" lon="6.51543">
        <ele>710</ele>
        <time>2020-05-22T13:56:55Z</time>
      </trkpt>
      <trkpt lat="47.24343" lon="6.51551">
        <ele>710</ele>
        <time>2020-05-22T13:56:56Z</time>
      </trkpt>
      <trkpt lat="47.2434" lon="6.51559">
        <ele>709.6</ele>
        <time>2020-05-22T13:56:57Z</time>
      </trkpt>
      <trkpt lat="47.24336" lon="6.51566">
        <ele>709.6</ele>
        <time>2020-05-22T13:56:58Z</time>
      </trkpt>
      <trkpt lat="47.24332" lon="6.51573">
        <ele>709.6</ele>
        <time>2020-05-22T13:56:59Z</time>
      </trkpt>
      <trkpt lat="47.24329" lon="6.51581">
        <ele>709.6</ele>
        <time>2020-05-22T13:57:00Z</time>
      </trkpt>
      <trkpt lat="47.24325" lon="6.51588">
        <ele>709.6</ele>
        <time>2020-05-22T13:57:01Z</time>
      </trkpt>
      <trkpt lat="47.24322" lon="6.51595">
        <ele>709.6</ele>
        <time>2020-05-22T13:57:02Z</time>
      </trkpt>
      <trkpt lat="47.24319" lon="6.51602">
        <ele>709.6</ele>
        <time>2020-05-22T13:57:03Z</time>
      </trkpt>
      <trkpt lat="47.24316" lon="6.51609">
        <ele>710</ele>
        <time>2020-05-22T13:57:04Z</time>
      </trkpt>
      <trkpt lat="47.24314" lon="6.51616">
        <ele>710</ele>
        <time>2020-05-22T13:57:05Z</time>
      </trkpt>
      <trkpt lat="47.24311" lon="6.51623">
        <ele>710</ele>
        <time>2020-05-22T13:57:06Z</time>
      </trkpt>
      <trkpt lat="47.2431" lon="6.5163">
        <ele>710.2</ele>
        <time>2020-05-22T13:57:07Z</time>
      </trkpt>
      <trkpt lat="47.24309" lon="6.51638">
        <ele>710.2</ele>
        <time>2020-05-22T13:57:08Z</time>
      </trkpt>
      <trkpt lat="47.24308" lon="6.51645">
        <ele>710.2</ele>
        <time>2020-05-22T13:57:09Z</time>
      </trkpt>
      <trkpt lat="47.24307" lon="6.51653">
        <ele>710.2</ele>
        <time>2020-05-22T13:57:10Z</time>
      </trkpt>
      <trkpt lat="47.24307" lon="6.51661">
        <ele>710.2</ele>
        <time>2020-05-22T13:57:11Z</time>
      </trkpt>
      <trkpt lat="47.24307" lon="6.51668">
        <ele>710.2</ele>
        <time>2020-05-22T13:57:12Z</time>
      </trkpt>
      <trkpt lat="47.24307" lon="6.51676">
        <ele>710.2</ele>
        <time>2020-05-22T13:57:13Z</time>
      </trkpt>
      <trkpt lat="47.24308" lon="6.51685">
        <ele>710.2</ele>
        <time>2020-05-22T13:57:14Z</time>
      </trkpt>
      <trkpt lat="47.24308" lon="6.51693">
        <ele>710.2</ele>
        <time>2020-05-22T13:57:15Z</time>
      </trkpt>
      <trkpt lat="47.24309" lon="6.51701">
        <ele>710.2</ele>
        <time>2020-05-22T13:57:16Z</time>
      </trkpt>
      <trkpt lat="47.2431" lon="6.5171">
        <ele>710.4</ele>
        <time>2020-05-22T13:57:17Z</time>
      </trkpt>
      <trkpt lat="47.24311" lon="6.51719">
        <ele>710.4</ele>
        <time>2020-05-22T13:57:18Z</time>
      </trkpt>
      <trkpt lat="47.24311" lon="6.51728">
        <ele>710.4</ele>
        <time>2020-05-22T13:57:19Z</time>
      </trkpt>
      <trkpt lat="47.24312" lon="6.51738">
        <ele>710.4</ele>
        <time>2020-05-22T13:57:20Z</time>
      </trkpt>
      <trkpt lat="47.24312" lon="6.51747">
        <ele>710.4</ele>
        <time>2020-05-22T13:57:21Z</time>
      </trkpt>
      <trkpt lat="47.24312" lon="6.51756">
        <ele>710.4</ele>
        <time>2020-05-22T13:57:22Z</time>
      </trkpt>
      <trkpt lat="47.24312" lon="6.51765">
        <ele>710.4</ele>
        <time>2020-05-22T13:57:23Z</time>
      </trkpt>
      <trkpt lat="47.24313" lon="6.51774">
        <ele>710.2</ele>
        <time>2020-05-22T13:57:24Z</time>
      </trkpt>
      <trkpt lat="47.24313" lon="6.51784">
        <ele>710.2</ele>
        <time>2020-05-22T13:57:25Z</time>
      </trkpt>
      <trkpt lat="47.24313" lon="6.51793">
        <ele>710</ele>
        <time>2020-05-22T13:57:26Z</time>
      </trkpt>
      <trkpt lat="47.24313" lon="6.51802">
        <ele>710</ele>
        <time>2020-05-22T13:57:27Z</time>
      </trkpt>
      <trkpt lat="47.24313" lon="6.51811">
        <ele>710</ele>
        <time>2020-05-22T13:57:28Z</time>
      </trkpt>
      <trkpt lat="47.24313" lon="6.5182">
        <ele>710</ele>
        <time>2020-05-22T13:57:29Z</time>
      </trkpt>
      <trkpt lat="47.24313" lon="6.5183">
        <ele>710</ele>
        <time>2020-05-22T13:57:30Z</time>
      </trkpt>
      <trkpt lat="47.24313" lon="6.51839">
        <ele>710</ele>
        <time>2020-05-22T13:57:31Z</time>
      </trkpt>
      <trkpt lat="47.24312" lon="6.51848">
        <ele>710</ele>
        <time>2020-05-22T13:57:32Z</time>
      </trkpt>
      <trkpt lat="47.2431" lon="6.51858">
        <ele>710</ele>
        <time>2020-05-22T13:57:33Z</time>
      </trkpt>
      <trkpt lat="47.24309" lon="6.51867">
        <ele>709.6</ele>
        <time>2020-05-22T13:57:34Z</time>
      </trkpt>
      <trkpt lat="47.24306" lon="6.51877">
        <ele>709.4</ele>
        <time>2020-05-22T13:57:35Z</time>
      </trkpt>
      <trkpt lat="47.24304" lon="6.51887">
        <ele>709</ele>
        <time>2020-05-22T13:57:36Z</time>
      </trkpt>
      <trkpt lat="47.24301" lon="6.51898">
        <ele>708.6</ele>
        <time>2020-05-22T13:57:37Z</time>
      </trkpt>
      <trkpt lat="47.24298" lon="6.51909">
        <ele>708.2</ele>
        <time>2020-05-22T13:57:38Z</time>
      </trkpt>
      <trkpt lat="47.24295" lon="6.51921">
        <ele>707.8</ele>
        <time>2020-05-22T13:57:39Z</time>
      </trkpt>
      <trkpt lat="47.2429" lon="6.51933">
        <ele>707.2</ele>
        <time>2020-05-22T13:57:40Z</time>
      </trkpt>
      <trkpt lat="47.24285" lon="6.51945">
        <ele>707</ele>
        <time>2020-05-22T13:57:41Z</time>
      </trkpt>
      <trkpt lat="47.24279" lon="6.51957">
        <ele>706.6</ele>
        <time>2020-05-22T13:57:42Z</time>
      </trkpt>
      <trkpt lat="47.24273" lon="6.51969">
        <ele>706.4</ele>
        <time>2020-05-22T13:57:43Z</time>
      </trkpt>
      <trkpt lat="47.24265" lon="6.51981">
        <ele>706</ele>
        <time>2020-05-22T13:57:44Z</time>
      </trkpt>
      <trkpt lat="47.24257" lon="6.51992">
        <ele>705.6</ele>
        <time>2020-05-22T13:57:45Z</time>
      </trkpt>
      <trkpt lat="47.2425" lon="6.52003">
        <ele>705.2</ele>
        <time>2020-05-22T13:57:46Z</time>
      </trkpt>
      <trkpt lat="47.24243" lon="6.52013">
        <ele>705</ele>
        <time>2020-05-22T13:57:47Z</time>
      </trkpt>
      <trkpt lat="47.24236" lon="6.52023">
        <ele>704.4</ele>
        <time>2020-05-22T13:57:48Z</time>
      </trkpt>
      <trkpt lat="47.2423" lon="6.52034">
        <ele>704</ele>
        <time>2020-05-22T13:57:49Z</time>
      </trkpt>
      <trkpt lat="47.24224" lon="6.52044">
        <ele>703.8</ele>
        <time>2020-05-22T13:57:50Z</time>
      </trkpt>
      <trkpt lat="47.24218" lon="6.52055">
        <ele>703.6</ele>
        <time>2020-05-22T13:57:51Z</time>
      </trkpt>
      <trkpt lat="47.24212" lon="6.52064">
        <ele>703.6</ele>
        <time>2020-05-22T13:57:52Z</time>
      </trkpt>
      <trkpt lat="47.24207" lon="6.52074">
        <ele>703.6</ele>
        <time>2020-05-22T13:57:53Z</time>
      </trkpt>
      <trkpt lat="47.24202" lon="6.52083">
        <ele>703.6</ele>
        <time>2020-05-22T13:57:54Z</time>
      </trkpt>
      <trkpt lat="47.24197" lon="6.52092">
        <ele>703.6</ele>
        <time>2020-05-22T13:57:55Z</time>
      </trkpt>
      <trkpt lat="47.24193" lon="6.52101">
        <ele>703.6</ele>
        <time>2020-05-22T13:57:56Z</time>
      </trkpt>
      <trkpt lat="47.24188" lon="6.52109">
        <ele>703.6</ele>
        <time>2020-05-22T13:57:57Z</time>
      </trkpt>
      <trkpt lat="47.24183" lon="6.52117">
        <ele>703.8</ele>
        <time>2020-05-22T13:57:58Z</time>
      </trkpt>
      <trkpt lat="47.24179" lon="6.52125">
        <ele>703.8</ele>
        <time>2020-05-22T13:57:59Z</time>
      </trkpt>
      <trkpt lat="47.24174" lon="6.52132">
        <ele>703.8</ele>
        <time>2020-05-22T13:58:00Z</time>
      </trkpt>
      <trkpt lat="47.2417" lon="6.5214">
        <ele>704.2</ele>
        <time>2020-05-22T13:58:01Z</time>
      </trkpt>
      <trkpt lat="47.24165" lon="6.52147">
        <ele>704.2</ele>
        <time>2020-05-22T13:58:02Z</time>
      </trkpt>
      <trkpt lat="47.24161" lon="6.52154">
        <ele>704.2</ele>
        <time>2020-05-22T13:58:03Z</time>
      </trkpt>
      <trkpt lat="47.24157" lon="6.52161">
        <ele>704.4</ele>
        <time>2020-05-22T13:58:04Z</time>
      </trkpt>
      <trkpt lat="47.24152" lon="6.52168">
        <ele>704.4</ele>
        <time>2020-05-22T13:58:05Z</time>
      </trkpt>
      <trkpt lat="47.24148" lon="6.52175">
        <ele>704.4</ele>
        <time>2020-05-22T13:58:06Z</time>
      </trkpt>
      <trkpt lat="47.24144" lon="6.52181">
        <ele>704.4</ele>
        <time>2020-05-22T13:58:07Z</time>
      </trkpt>
      <trkpt lat="47.24139" lon="6.52188">
        <ele>704.4</ele>
        <time>2020-05-22T13:58:08Z</time>
      </trkpt>
      <trkpt lat="47.24135" lon="6.52194">
        <ele>704.4</ele>
        <time>2020-05-22T13:58:09Z</time>
      </trkpt>
      <trkpt lat="47.24131" lon="6.522">
        <ele>704.4</ele>
        <time>2020-05-22T13:58:10Z</time>
      </trkpt>
      <trkpt lat="47.24126" lon="6.52206">
        <ele>704.4</ele>
        <time>2020-05-22T13:58:11Z</time>
      </trkpt>
      <trkpt lat="47.24122" lon="6.52213">
        <ele>704.4</ele>
        <time>2020-05-22T13:58:12Z</time>
      </trkpt>
      <trkpt lat="47.24117" lon="6.52219">
        <ele>704.4</ele>
        <time>2020-05-22T13:58:13Z</time>
      </trkpt>
      <trkpt lat="47.24113" lon="6.52225">
        <ele>704.4</ele>
        <time>2020-05-22T13:58:14Z</time>
      </trkpt>
      <trkpt lat="47.24108" lon="6.52231">
        <ele>704.4</ele>
        <time>2020-05-22T13:58:15Z</time>
      </trkpt>
      <trkpt lat="47.24103" lon="6.52237">
        <ele>704.4</ele>
        <time>2020-05-22T13:58:16Z</time>
      </trkpt>
      <trkpt lat="47.24099" lon="6.52243">
        <ele>704.4</ele>
        <time>2020-05-22T13:58:17Z</time>
      </trkpt>
      <trkpt lat="47.24094" lon="6.52249">
        <ele>704.4</ele>
        <time>2020-05-22T13:58:18Z</time>
      </trkpt>
      <trkpt lat="47.2409" lon="6.52254">
        <ele>704.6</ele>
        <time>2020-05-22T13:58:19Z</time>
      </trkpt>
      <trkpt lat="47.24085" lon="6.5226">
        <ele>704.6</ele>
        <time>2020-05-22T13:58:20Z</time>
      </trkpt>
      <trkpt lat="47.2408" lon="6.52265">
        <ele>704.6</ele>
        <time>2020-05-22T13:58:21Z</time>
      </trkpt>
      <trkpt lat="47.24076" lon="6.52271">
        <ele>705</ele>
        <time>2020-05-22T13:58:22Z</time>
      </trkpt>
      <trkpt lat="47.24071" lon="6.52276">
        <ele>705</ele>
        <time>2020-05-22T13:58:23Z</time>
      </trkpt>
      <trkpt lat="47.24067" lon="6.52281">
        <ele>705.2</ele>
        <time>2020-05-22T13:58:24Z</time>
      </trkpt>
      <trkpt lat="47.24063" lon="6.52286">
        <ele>705.4</ele>
        <time>2020-05-22T13:58:25Z</time>
      </trkpt>
      <trkpt lat="47.2406" lon="6.5229">
        <ele>705.4</ele>
        <time>2020-05-22T13:58:26Z</time>
      </trkpt>
      <trkpt lat="47.24056" lon="6.52294">
        <ele>705.8</ele>
        <time>2020-05-22T13:58:27Z</time>
      </trkpt>
      <trkpt lat="47.24053" lon="6.52299">
        <ele>705.8</ele>
        <time>2020-05-22T13:58:28Z</time>
      </trkpt>
      <trkpt lat="47.24049" lon="6.52303">
        <ele>706</ele>
        <time>2020-05-22T13:58:29Z</time>
      </trkpt>
      <trkpt lat="47.24046" lon="6.52307">
        <ele>706</ele>
        <time>2020-05-22T13:58:30Z</time>
      </trkpt>
      <trkpt lat="47.24042" lon="6.52312">
        <ele>706</ele>
        <time>2020-05-22T13:58:31Z</time>
      </trkpt>
      <trkpt lat="47.24039" lon="6.52316">
        <ele>706.2</ele>
        <time>2020-05-22T13:58:32Z</time>
      </trkpt>
      <trkpt lat="47.24035" lon="6.52321">
        <ele>706.2</ele>
        <time>2020-05-22T13:58:33Z</time>
      </trkpt>
      <trkpt lat="47.24031" lon="6.52327">
        <ele>706.2</ele>
        <time>2020-05-22T13:58:34Z</time>
      </trkpt>
      <trkpt lat="47.24027" lon="6.52332">
        <ele>706.6</ele>
        <time>2020-05-22T13:58:35Z</time>
      </trkpt>
      <trkpt lat="47.24023" lon="6.52337">
        <ele>706.6</ele>
        <time>2020-05-22T13:58:36Z</time>
      </trkpt>
      <trkpt lat="47.24018" lon="6.52342">
        <ele>706.6</ele>
        <time>2020-05-22T13:58:37Z</time>
      </trkpt>
      <trkpt lat="47.24014" lon="6.52347">
        <ele>706.6</ele>
        <time>2020-05-22T13:58:38Z</time>
      </trkpt>
      <trkpt lat="47.2401" lon="6.52352">
        <ele>706.6</ele>
        <time>2020-05-22T13:58:39Z</time>
      </trkpt>
      <trkpt lat="47.24005" lon="6.52357">
        <ele>706.6</ele>
        <time>2020-05-22T13:58:40Z</time>
      </trkpt>
      <trkpt lat="47.24" lon="6.52361">
        <ele>706.2</ele>
        <time>2020-05-22T13:58:41Z</time>
      </trkpt>
      <trkpt lat="47.23996" lon="6.52365">
        <ele>706.2</ele>
        <time>2020-05-22T13:58:42Z</time>
      </trkpt>
      <trkpt lat="47.23991" lon="6.5237">
        <ele>706.2</ele>
        <time>2020-05-22T13:58:43Z</time>
      </trkpt>
      <trkpt lat="47.23986" lon="6.52374">
        <ele>706.2</ele>
        <time>2020-05-22T13:58:44Z</time>
      </trkpt>
      <trkpt lat="47.23982" lon="6.52378">
        <ele>706.2</ele>
        <time>2020-05-22T13:58:45Z</time>
      </trkpt>
      <trkpt lat="47.23977" lon="6.52382">
        <ele>706.2</ele>
        <time>2020-05-22T13:58:46Z</time>
      </trkpt>
      <trkpt lat="47.23972" lon="6.52386">
        <ele>706.2</ele>
        <time>2020-05-22T13:58:47Z</time>
      </trkpt>
      <trkpt lat="47.23968" lon="6.5239">
        <ele>706.2</ele>
        <time>2020-05-22T13:58:48Z</time>
      </trkpt>
      <trkpt lat="47.23963" lon="6.52394">
        <ele>706.2</ele>
        <time>2020-05-22T13:58:49Z</time>
      </trkpt>
      <trkpt lat="47.23959" lon="6.52397">
        <ele>706.2</ele>
        <time>2020-05-22T13:58:50Z</time>
      </trkpt>
      <trkpt lat="47.23954" lon="6.524">
        <ele>706.2</ele>
        <time>2020-05-22T13:58:51Z</time>
      </trkpt>
      <trkpt lat="47.2395" lon="6.52404">
        <ele>706.2</ele>
        <time>2020-05-22T13:58:52Z</time>
      </trkpt>
      <trkpt lat="47.23946" lon="6.52407">
        <ele>706.2</ele>
        <time>2020-05-22T13:58:53Z</time>
      </trkpt>
      <trkpt lat="47.23941" lon="6.52411">
        <ele>706.2</ele>
        <time>2020-05-22T13:58:54Z</time>
      </trkpt>
      <trkpt lat="47.23937" lon="6.52415">
        <ele>706.2</ele>
        <time>2020-05-22T13:58:55Z</time>
      </trkpt>
      <trkpt lat="47.23932" lon="6.52419">
        <ele>706.2</ele>
        <time>2020-05-22T13:58:56Z</time>
      </trkpt>
      <trkpt lat="47.23928" lon="6.52423">
        <ele>706.2</ele>
        <time>2020-05-22T13:58:57Z</time>
      </trkpt>
      <trkpt lat="47.23924" lon="6.52427">
        <ele>706.2</ele>
        <time>2020-05-22T13:58:58Z</time>
      </trkpt>
      <trkpt lat="47.2392" lon="6.52432">
        <ele>706.4</ele>
        <time>2020-05-22T13:58:59Z</time>
      </trkpt>
      <trkpt lat="47.23916" lon="6.52436">
        <ele>706.4</ele>
        <time>2020-05-22T13:59:00Z</time>
      </trkpt>
      <trkpt lat="47.23911" lon="6.52441">
        <ele>706.4</ele>
        <time>2020-05-22T13:59:01Z</time>
      </trkpt>
      <trkpt lat="47.23907" lon="6.52446">
        <ele>706.4</ele>
        <time>2020-05-22T13:59:02Z</time>
      </trkpt>
      <trkpt lat="47.23903" lon="6.52451">
        <ele>706.4</ele>
        <time>2020-05-22T13:59:03Z</time>
      </trkpt>
      <trkpt lat="47.23899" lon="6.52456">
        <ele>706.4</ele>
        <time>2020-05-22T13:59:04Z</time>
      </trkpt>
      <trkpt lat="47.23895" lon="6.52461">
        <ele>706.4</ele>
        <time>2020-05-22T13:59:05Z</time>
      </trkpt>
      <trkpt lat="47.23891" lon="6.52466">
        <ele>706.6</ele>
        <time>2020-05-22T13:59:06Z</time>
      </trkpt>
      <trkpt lat="47.23887" lon="6.52471">
        <ele>706.6</ele>
        <time>2020-05-22T13:59:07Z</time>
      </trkpt>
      <trkpt lat="47.23883" lon="6.52476">
        <ele>706.6</ele>
        <time>2020-05-22T13:59:08Z</time>
      </trkpt>
      <trkpt lat="47.23879" lon="6.52482">
        <ele>706.8</ele>
        <time>2020-05-22T13:59:09Z</time>
      </trkpt>
      <trkpt lat="47.23875" lon="6.52487">
        <ele>706.8</ele>
        <time>2020-05-22T13:59:10Z</time>
      </trkpt>
      <trkpt lat="47.23871" lon="6.52492">
        <ele>706.8</ele>
        <time>2020-05-22T13:59:11Z</time>
      </trkpt>
      <trkpt lat="47.23867" lon="6.52497">
        <ele>706.8</ele>
        <time>2020-05-22T13:59:12Z</time>
      </trkpt>
      <trkpt lat="47.23863" lon="6.52502">
        <ele>706.8</ele>
        <time>2020-05-22T13:59:13Z</time>
      </trkpt>
      <trkpt lat="47.23859" lon="6.52507">
        <ele>706.8</ele>
        <time>2020-05-22T13:59:14Z</time>
      </trkpt>
      <trkpt lat="47.23855" lon="6.52513">
        <ele>706.8</ele>
        <time>2020-05-22T13:59:15Z</time>
      </trkpt>
      <trkpt lat="47.23851" lon="6.52518">
        <ele>707.2</ele>
        <time>2020-05-22T13:59:16Z</time>
      </trkpt>
      <trkpt lat="47.23847" lon="6.52523">
        <ele>707.2</ele>
        <time>2020-05-22T13:59:17Z</time>
      </trkpt>
      <trkpt lat="47.23843" lon="6.52528">
        <ele>707.2</ele>
        <time>2020-05-22T13:59:18Z</time>
      </trkpt>
      <trkpt lat="47.23839" lon="6.52533">
        <ele>707.4</ele>
        <time>2020-05-22T13:59:19Z</time>
      </trkpt>
      <trkpt lat="47.23834" lon="6.52538">
        <ele>707.4</ele>
        <time>2020-05-22T13:59:20Z</time>
      </trkpt>
      <trkpt lat="47.2383" lon="6.52543">
        <ele>707.4</ele>
        <time>2020-05-22T13:59:21Z</time>
      </trkpt>
      <trkpt lat="47.23826" lon="6.52548">
        <ele>707.6</ele>
        <time>2020-05-22T13:59:22Z</time>
      </trkpt>
      <trkpt lat="47.23822" lon="6.52553">
        <ele>707.6</ele>
        <time>2020-05-22T13:59:23Z</time>
      </trkpt>
      <trkpt lat="47.23818" lon="6.52558">
        <ele>707.6</ele>
        <time>2020-05-22T13:59:24Z</time>
      </trkpt>
      <trkpt lat="47.23815" lon="6.52562">
        <ele>707.8</ele>
        <time>2020-05-22T13:59:25Z</time>
      </trkpt>
      <trkpt lat="47.23811" lon="6.52567">
        <ele>707.8</ele>
        <time>2020-05-22T13:59:26Z</time>
      </trkpt>
      <trkpt lat="47.23807" lon="6.52571">
        <ele>708</ele>
        <time>2020-05-22T13:59:27Z</time>
      </trkpt>
      <trkpt lat="47.23803" lon="6.52575">
        <ele>708.2</ele>
        <time>2020-05-22T13:59:28Z</time>
      </trkpt>
      <trkpt lat="47.23799" lon="6.5258">
        <ele>708.2</ele>
        <time>2020-05-22T13:59:29Z</time>
      </trkpt>
      <trkpt lat="47.23796" lon="6.52584">
        <ele>708.6</ele>
        <time>2020-05-22T13:59:30Z</time>
      </trkpt>
      <trkpt lat="47.23792" lon="6.52589">
        <ele>708.6</ele>
        <time>2020-05-22T13:59:31Z</time>
      </trkpt>
      <trkpt lat="47.23788" lon="6.52593">
        <ele>708.6</ele>
        <time>2020-05-22T13:59:32Z</time>
      </trkpt>
      <trkpt lat="47.23785" lon="6.52597">
        <ele>708.8</ele>
        <time>2020-05-22T13:59:33Z</time>
      </trkpt>
      <trkpt lat="47.23781" lon="6.52601">
        <ele>708.8</ele>
        <time>2020-05-22T13:59:34Z</time>
      </trkpt>
      <trkpt lat="47.23777" lon="6.52605">
        <ele>709.2</ele>
        <time>2020-05-22T13:59:35Z</time>
      </trkpt>
      <trkpt lat="47.23774" lon="6.52609">
        <ele>709.2</ele>
        <time>2020-05-22T13:59:36Z</time>
      </trkpt>
      <trkpt lat="47.2377" lon="6.52613">
        <ele>709.2</ele>
        <time>2020-05-22T13:59:37Z</time>
      </trkpt>
      <trkpt lat="47.23767" lon="6.52616">
        <ele>709.4</ele>
        <time>2020-05-22T13:59:38Z</time>
      </trkpt>
      <trkpt lat="47.23763" lon="6.5262">
        <ele>709.4</ele>
        <time>2020-05-22T13:59:39Z</time>
      </trkpt>
      <trkpt lat="47.23759" lon="6.52624">
        <ele>709.4</ele>
        <time>2020-05-22T13:59:40Z</time>
      </trkpt>
      <trkpt lat="47.23756" lon="6.52627">
        <ele>709.8</ele>
        <time>2020-05-22T13:59:41Z</time>
      </trkpt>
      <trkpt lat="47.23752" lon="6.5263">
        <ele>709.8</ele>
        <time>2020-05-22T13:59:42Z</time>
      </trkpt>
      <trkpt lat="47.23749" lon="6.52634">
        <ele>710</ele>
        <time>2020-05-22T13:59:43Z</time>
      </trkpt>
      <trkpt lat="47.23745" lon="6.52637">
        <ele>710</ele>
        <time>2020-05-22T13:59:44Z</time>
      </trkpt>
      <trkpt lat="47.23741" lon="6.52639">
        <ele>710</ele>
        <time>2020-05-22T13:59:45Z</time>
      </trkpt>
      <trkpt lat="47.23737" lon="6.52642">
        <ele>710</ele>
        <time>2020-05-22T13:59:46Z</time>
      </trkpt>
      <trkpt lat="47.23733" lon="6.52645">
        <ele>710</ele>
        <time>2020-05-22T13:59:47Z</time>
      </trkpt>
      <trkpt lat="47.23729" lon="6.52649">
        <ele>710</ele>
        <time>2020-05-22T13:59:48Z</time>
      </trkpt>
      <trkpt lat="47.23725" lon="6.52652">
        <ele>710</ele>
        <time>2020-05-22T13:59:49Z</time>
      </trkpt>
      <trkpt lat="47.23721" lon="6.52656">
        <ele>710</ele>
        <time>2020-05-22T13:59:50Z</time>
      </trkpt>
      <trkpt lat="47.23716" lon="6.5266">
        <ele>709.8</ele>
        <time>2020-05-22T13:59:51Z</time>
      </trkpt>
      <trkpt lat="47.23711" lon="6.52663">
        <ele>709.8</ele>
        <time>2020-05-22T13:59:52Z</time>
      </trkpt>
      <trkpt lat="47.23706" lon="6.52668">
        <ele>709.8</ele>
        <time>2020-05-22T13:59:53Z</time>
      </trkpt>
      <trkpt lat="47.23702" lon="6.52672">
        <ele>709.6</ele>
        <time>2020-05-22T13:59:54Z</time>
      </trkpt>
      <trkpt lat="47.23696" lon="6.52676">
        <ele>709.6</ele>
        <time>2020-05-22T13:59:55Z</time>
      </trkpt>
      <trkpt lat="47.23692" lon="6.5268">
        <ele>709.2</ele>
        <time>2020-05-22T13:59:56Z</time>
      </trkpt>
      <trkpt lat="47.23688" lon="6.52683">
        <ele>709.2</ele>
        <time>2020-05-22T13:59:57Z</time>
      </trkpt>
      <trkpt lat="47.23684" lon="6.52685">
        <ele>708.8</ele>
        <time>2020-05-22T13:59:58Z</time>
      </trkpt>
      <trkpt lat="47.23681" lon="6.52687">
        <ele>708.8</ele>
        <time>2020-05-22T13:59:59Z</time>
      </trkpt>
      <trkpt lat="47.23678" lon="6.52689">
        <ele>708.4</ele>
        <time>2020-05-22T14:00:00Z</time>
      </trkpt>
      <trkpt lat="47.23675" lon="6.52692">
        <ele>708.4</ele>
        <time>2020-05-22T14:00:01Z</time>
      </trkpt>
      <trkpt lat="47.23672" lon="6.52696">
        <ele>708</ele>
        <time>2020-05-22T14:00:02Z</time>
      </trkpt>
      <trkpt lat="47.23668" lon="6.527">
        <ele>708</ele>
        <time>2020-05-22T14:00:03Z</time>
      </trkpt>
      <trkpt lat="47.23665" lon="6.52704">
        <ele>707.8</ele>
        <time>2020-05-22T14:00:04Z</time>
      </trkpt>
      <trkpt lat="47.23661" lon="6.52708">
        <ele>707.8</ele>
        <time>2020-05-22T14:00:05Z</time>
      </trkpt>
      <trkpt lat="47.23657" lon="6.52713">
        <ele>707.8</ele>
        <time>2020-05-22T14:00:06Z</time>
      </trkpt>
      <trkpt lat="47.23653" lon="6.52718">
        <ele>707.8</ele>
        <time>2020-05-22T14:00:07Z</time>
      </trkpt>
      <trkpt lat="47.23649" lon="6.52724">
        <ele>707.8</ele>
        <time>2020-05-22T14:00:08Z</time>
      </trkpt>
      <trkpt lat="47.23645" lon="6.5273">
        <ele>707.6</ele>
        <time>2020-05-22T14:00:09Z</time>
      </trkpt>
      <trkpt lat="47.23642" lon="6.52736">
        <ele>707.6</ele>
        <time>2020-05-22T14:00:10Z</time>
      </trkpt>
      <trkpt lat="47.23638" lon="6.52742">
        <ele>707.6</ele>
        <time>2020-05-22T14:00:11Z</time>
      </trkpt>
      <trkpt lat="47.23634" lon="6.52749">
        <ele>707.6</ele>
        <time>2020-05-22T14:00:12Z</time>
      </trkpt>
      <trkpt lat="47.2363" lon="6.52756">
        <ele>707.6</ele>
        <time>2020-05-22T14:00:13Z</time>
      </trkpt>
      <trkpt lat="47.23626" lon="6.52763">
        <ele>707.4</ele>
        <time>2020-05-22T14:00:14Z</time>
      </trkpt>
      <trkpt lat="47.23622" lon="6.52771">
        <ele>707.4</ele>
        <time>2020-05-22T14:00:15Z</time>
      </trkpt>
      <trkpt lat="47.23618" lon="6.52778">
        <ele>707</ele>
        <time>2020-05-22T14:00:16Z</time>
      </trkpt>
      <trkpt lat="47.23613" lon="6.52785">
        <ele>707</ele>
        <time>2020-05-22T14:00:17Z</time>
      </trkpt>
      <trkpt lat="47.23607" lon="6.52792">
        <ele>706.8</ele>
        <time>2020-05-22T14:00:18Z</time>
      </trkpt>
      <trkpt lat="47.236" lon="6.52798">
        <ele>706.8</ele>
        <time>2020-05-22T14:00:19Z</time>
      </trkpt>
      <trkpt lat="47.23593" lon="6.52802">
        <ele>706.4</ele>
        <time>2020-05-22T14:00:20Z</time>
      </trkpt>
      <trkpt lat="47.23586" lon="6.52806">
        <ele>706</ele>
        <time>2020-05-22T14:00:21Z</time>
      </trkpt>
      <trkpt lat="47.23578" lon="6.5281">
        <ele>705.6</ele>
        <time>2020-05-22T14:00:22Z</time>
      </trkpt>
      <trkpt lat="47.2357" lon="6.52814">
        <ele>705.4</ele>
        <time>2020-05-22T14:00:23Z</time>
      </trkpt>
      <trkpt lat="47.23562" lon="6.52818">
        <ele>705.2</ele>
        <time>2020-05-22T14:00:24Z</time>
      </trkpt>
      <trkpt lat="47.23554" lon="6.52823">
        <ele>704.8</ele>
        <time>2020-05-22T14:00:25Z</time>
      </trkpt>
      <trkpt lat="47.23546" lon="6.52829">
        <ele>704.4</ele>
        <time>2020-05-22T14:00:26Z</time>
      </trkpt>
      <trkpt lat="47.23539" lon="6.52838">
        <ele>704</ele>
        <time>2020-05-22T14:00:27Z</time>
      </trkpt>
      <trkpt lat="47.23532" lon="6.52848">
        <ele>703.8</ele>
        <time>2020-05-22T14:00:28Z</time>
      </trkpt>
      <trkpt lat="47.23528" lon="6.5286">
        <ele>703.6</ele>
        <time>2020-05-22T14:00:29Z</time>
      </trkpt>
      <trkpt lat="47.23524" lon="6.52872">
        <ele>703.2</ele>
        <time>2020-05-22T14:00:30Z</time>
      </trkpt>
      <trkpt lat="47.2352" lon="6.52885">
        <ele>703</ele>
        <time>2020-05-22T14:00:31Z</time>
      </trkpt>
      <trkpt lat="47.23518" lon="6.52899">
        <ele>702.6</ele>
        <time>2020-05-22T14:00:32Z</time>
      </trkpt>
      <trkpt lat="47.23515" lon="6.52912">
        <ele>702.2</ele>
        <time>2020-05-22T14:00:33Z</time>
      </trkpt>
      <trkpt lat="47.23512" lon="6.52926">
        <ele>701.8</ele>
        <time>2020-05-22T14:00:34Z</time>
      </trkpt>
      <trkpt lat="47.23508" lon="6.5294">
        <ele>701.4</ele>
        <time>2020-05-22T14:00:35Z</time>
      </trkpt>
      <trkpt lat="47.23504" lon="6.52953">
        <ele>701</ele>
        <time>2020-05-22T14:00:36Z</time>
      </trkpt>
      <trkpt lat="47.235" lon="6.52966">
        <ele>700.8</ele>
        <time>2020-05-22T14:00:37Z</time>
      </trkpt>
      <trkpt lat="47.23496" lon="6.52979">
        <ele>700.4</ele>
        <time>2020-05-22T14:00:38Z</time>
      </trkpt>
      <trkpt lat="47.2349" lon="6.5299">
        <ele>700</ele>
        <time>2020-05-22T14:00:39Z</time>
      </trkpt>
      <trkpt lat="47.23483" lon="6.53001">
        <ele>699.6</ele>
        <time>2020-05-22T14:00:40Z</time>
      </trkpt>
      <trkpt lat="47.23476" lon="6.53012">
        <ele>699.4</ele>
        <time>2020-05-22T14:00:41Z</time>
      </trkpt>
      <trkpt lat="47.23468" lon="6.53021">
        <ele>699.4</ele>
        <time>2020-05-22T14:00:42Z</time>
      </trkpt>
      <trkpt lat="47.2346" lon="6.53029">
        <ele>699.4</ele>
        <time>2020-05-22T14:00:43Z</time>
      </trkpt>
      <trkpt lat="47.23451" lon="6.53037">
        <ele>699.4</ele>
        <time>2020-05-22T14:00:44Z</time>
      </trkpt>
      <trkpt lat="47.23443" lon="6.53043">
        <ele>699</ele>
        <time>2020-05-22T14:00:45Z</time>
      </trkpt>
      <trkpt lat="47.23436" lon="6.53048">
        <ele>699</ele>
        <time>2020-05-22T14:00:46Z</time>
      </trkpt>
      <trkpt lat="47.23428" lon="6.53055">
        <ele>698.6</ele>
        <time>2020-05-22T14:00:47Z</time>
      </trkpt>
      <trkpt lat="47.23421" lon="6.53061">
        <ele>698.6</ele>
        <time>2020-05-22T14:00:48Z</time>
      </trkpt>
      <trkpt lat="47.23414" lon="6.53067">
        <ele>698.6</ele>
        <time>2020-05-22T14:00:49Z</time>
      </trkpt>
      <trkpt lat="47.23407" lon="6.53073">
        <ele>698.6</ele>
        <time>2020-05-22T14:00:50Z</time>
      </trkpt>
      <trkpt lat="47.234" lon="6.53079">
        <ele>698.6</ele>
        <time>2020-05-22T14:00:51Z</time>
      </trkpt>
      <trkpt lat="47.23393" lon="6.53085">
        <ele>698.2</ele>
        <time>2020-05-22T14:00:52Z</time>
      </trkpt>
      <trkpt lat="47.23387" lon="6.53091">
        <ele>698.2</ele>
        <time>2020-05-22T14:00:53Z</time>
      </trkpt>
      <trkpt lat="47.2338" lon="6.53097">
        <ele>698.2</ele>
        <time>2020-05-22T14:00:54Z</time>
      </trkpt>
      <trkpt lat="47.23373" lon="6.53103">
        <ele>698</ele>
        <time>2020-05-22T14:00:55Z</time>
      </trkpt>
      <trkpt lat="47.23366" lon="6.53109">
        <ele>698</ele>
        <time>2020-05-22T14:00:56Z</time>
      </trkpt>
      <trkpt lat="47.23359" lon="6.53114">
        <ele>697.6</ele>
        <time>2020-05-22T14:00:57Z</time>
      </trkpt>
      <trkpt lat="47.23352" lon="6.53119">
        <ele>697.2</ele>
        <time>2020-05-22T14:00:58Z</time>
      </trkpt>
      <trkpt lat="47.23345" lon="6.53123">
        <ele>697</ele>
        <time>2020-05-22T14:00:59Z</time>
      </trkpt>
      <trkpt lat="47.23338" lon="6.53127">
        <ele>697</ele>
        <time>2020-05-22T14:01:00Z</time>
      </trkpt>
      <trkpt lat="47.2333" lon="6.53129">
        <ele>696.6</ele>
        <time>2020-05-22T14:01:01Z</time>
      </trkpt>
      <trkpt lat="47.23323" lon="6.5313">
        <ele>696.6</ele>
        <time>2020-05-22T14:01:02Z</time>
      </trkpt>
      <trkpt lat="47.23315" lon="6.5313">
        <ele>696.4</ele>
        <time>2020-05-22T14:01:03Z</time>
      </trkpt>
      <trkpt lat="47.23308" lon="6.53129">
        <ele>696.4</ele>
        <time>2020-05-22T14:01:04Z</time>
      </trkpt>
      <trkpt lat="47.23301" lon="6.53127">
        <ele>696.4</ele>
        <time>2020-05-22T14:01:05Z</time>
      </trkpt>
      <trkpt lat="47.23294" lon="6.53126">
        <ele>696.4</ele>
        <time>2020-05-22T14:01:06Z</time>
      </trkpt>
      <trkpt lat="47.23288" lon="6.53125">
        <ele>696.4</ele>
        <time>2020-05-22T14:01:07Z</time>
      </trkpt>
      <trkpt lat="47.23281" lon="6.53124">
        <ele>696.4</ele>
        <time>2020-05-22T14:01:08Z</time>
      </trkpt>
      <trkpt lat="47.23274" lon="6.53125">
        <ele>696.2</ele>
        <time>2020-05-22T14:01:09Z</time>
      </trkpt>
      <trkpt lat="47.23268" lon="6.53126">
        <ele>696.2</ele>
        <time>2020-05-22T14:01:10Z</time>
      </trkpt>
      <trkpt lat="47.23261" lon="6.53127">
        <ele>696.2</ele>
        <time>2020-05-22T14:01:11Z</time>
      </trkpt>
      <trkpt lat="47.23255" lon="6.5313">
        <ele>696.2</ele>
        <time>2020-05-22T14:01:12Z</time>
      </trkpt>
      <trkpt lat="47.23248" lon="6.53132">
        <ele>696.2</ele>
        <time>2020-05-22T14:01:13Z</time>
      </trkpt>
      <trkpt lat="47.23242" lon="6.53134">
        <ele>696.2</ele>
        <time>2020-05-22T14:01:14Z</time>
      </trkpt>
      <trkpt lat="47.23236" lon="6.53137">
        <ele>696.2</ele>
        <time>2020-05-22T14:01:15Z</time>
      </trkpt>
      <trkpt lat="47.2323" lon="6.5314">
        <ele>696.2</ele>
        <time>2020-05-22T14:01:16Z</time>
      </trkpt>
      <trkpt lat="47.23225" lon="6.53143">
        <ele>696.2</ele>
        <time>2020-05-22T14:01:17Z</time>
      </trkpt>
      <trkpt lat="47.23219" lon="6.53147">
        <ele>696.2</ele>
        <time>2020-05-22T14:01:18Z</time>
      </trkpt>
      <trkpt lat="47.23214" lon="6.5315">
        <ele>696.2</ele>
        <time>2020-05-22T14:01:19Z</time>
      </trkpt>
      <trkpt lat="47.2321" lon="6.53154">
        <ele>696.2</ele>
        <time>2020-05-22T14:01:20Z</time>
      </trkpt>
      <trkpt lat="47.23205" lon="6.53157">
        <ele>696.6</ele>
        <time>2020-05-22T14:01:21Z</time>
      </trkpt>
      <trkpt lat="47.23201" lon="6.5316">
        <ele>696.6</ele>
        <time>2020-05-22T14:01:22Z</time>
      </trkpt>
      <trkpt lat="47.23197" lon="6.53164">
        <ele>696.8</ele>
        <time>2020-05-22T14:01:23Z</time>
      </trkpt>
      <trkpt lat="47.23194" lon="6.53167">
        <ele>696.8</ele>
        <time>2020-05-22T14:01:24Z</time>
      </trkpt>
      <trkpt lat="47.2319" lon="6.5317">
        <ele>697</ele>
        <time>2020-05-22T14:01:25Z</time>
      </trkpt>
      <trkpt lat="47.23186" lon="6.53173">
        <ele>697</ele>
        <time>2020-05-22T14:01:26Z</time>
      </trkpt>
      <trkpt lat="47.23182" lon="6.53177">
        <ele>697.4</ele>
        <time>2020-05-22T14:01:27Z</time>
      </trkpt>
      <trkpt lat="47.23177" lon="6.5318">
        <ele>697.4</ele>
        <time>2020-05-22T14:01:28Z</time>
      </trkpt>
      <trkpt lat="47.23173" lon="6.53184">
        <ele>697.4</ele>
        <time>2020-05-22T14:01:29Z</time>
      </trkpt>
      <trkpt lat="47.23169" lon="6.53187">
        <ele>697.4</ele>
        <time>2020-05-22T14:01:30Z</time>
      </trkpt>
      <trkpt lat="47.23164" lon="6.53191">
        <ele>697.6</ele>
        <time>2020-05-22T14:01:31Z</time>
      </trkpt>
      <trkpt lat="47.2316" lon="6.53195">
        <ele>697.6</ele>
        <time>2020-05-22T14:01:32Z</time>
      </trkpt>
      <trkpt lat="47.23155" lon="6.53198">
        <ele>697.6</ele>
        <time>2020-05-22T14:01:33Z</time>
      </trkpt>
      <trkpt lat="47.23151" lon="6.53202">
        <ele>697.6</ele>
        <time>2020-05-22T14:01:34Z</time>
      </trkpt>
      <trkpt lat="47.23146" lon="6.53206">
        <ele>697.6</ele>
        <time>2020-05-22T14:01:35Z</time>
      </trkpt>
      <trkpt lat="47.23142" lon="6.5321">
        <ele>697.6</ele>
        <time>2020-05-22T14:01:36Z</time>
      </trkpt>
      <trkpt lat="47.23137" lon="6.53213">
        <ele>697.6</ele>
        <time>2020-05-22T14:01:37Z</time>
      </trkpt>
      <trkpt lat="47.23133" lon="6.53217">
        <ele>697.6</ele>
        <time>2020-05-22T14:01:38Z</time>
      </trkpt>
      <trkpt lat="47.23128" lon="6.53221">
        <ele>697.6</ele>
        <time>2020-05-22T14:01:39Z</time>
      </trkpt>
      <trkpt lat="47.23124" lon="6.53225">
        <ele>697.8</ele>
        <time>2020-05-22T14:01:40Z</time>
      </trkpt>
      <trkpt lat="47.2312" lon="6.53229">
        <ele>697.8</ele>
        <time>2020-05-22T14:01:41Z</time>
      </trkpt>
      <trkpt lat="47.23117" lon="6.53232">
        <ele>697.8</ele>
        <time>2020-05-22T14:01:42Z</time>
      </trkpt>
      <trkpt lat="47.23113" lon="6.53236">
        <ele>698</ele>
        <time>2020-05-22T14:01:43Z</time>
      </trkpt>
      <trkpt lat="47.23109" lon="6.5324">
        <ele>698</ele>
        <time>2020-05-22T14:01:44Z</time>
      </trkpt>
      <trkpt lat="47.23105" lon="6.53244">
        <ele>698</ele>
        <time>2020-05-22T14:01:45Z</time>
      </trkpt>
      <trkpt lat="47.231" lon="6.53248">
        <ele>698</ele>
        <time>2020-05-22T14:01:46Z</time>
      </trkpt>
      <trkpt lat="47.23095" lon="6.53252">
        <ele>698</ele>
        <time>2020-05-22T14:01:47Z</time>
      </trkpt>
      <trkpt lat="47.2309" lon="6.53257">
        <ele>698</ele>
        <time>2020-05-22T14:01:48Z</time>
      </trkpt>
      <trkpt lat="47.23085" lon="6.53261">
        <ele>698</ele>
        <time>2020-05-22T14:01:49Z</time>
      </trkpt>
      <trkpt lat="47.2308" lon="6.53265">
        <ele>698</ele>
        <time>2020-05-22T14:01:50Z</time>
      </trkpt>
      <trkpt lat="47.23074" lon="6.53269">
        <ele>698</ele>
        <time>2020-05-22T14:01:51Z</time>
      </trkpt>
      <trkpt lat="47.23069" lon="6.53274">
        <ele>698</ele>
        <time>2020-05-22T14:01:52Z</time>
      </trkpt>
      <trkpt lat="47.23063" lon="6.53278">
        <ele>698</ele>
        <time>2020-05-22T14:01:53Z</time>
      </trkpt>
      <trkpt lat="47.23058" lon="6.53281">
        <ele>698</ele>
        <time>2020-05-22T14:01:54Z</time>
      </trkpt>
      <trkpt lat="47.23052" lon="6.53284">
        <ele>698</ele>
        <time>2020-05-22T14:01:55Z</time>
      </trkpt>
      <trkpt lat="47.23047" lon="6.53287">
        <ele>698</ele>
        <time>2020-05-22T14:01:56Z</time>
      </trkpt>
      <trkpt lat="47.23041" lon="6.5329">
        <ele>698</ele>
        <time>2020-05-22T14:01:57Z</time>
      </trkpt>
      <trkpt lat="47.23036" lon="6.53293">
        <ele>698</ele>
        <time>2020-05-22T14:01:58Z</time>
      </trkpt>
      <trkpt lat="47.23031" lon="6.53295">
        <ele>698.4</ele>
        <time>2020-05-22T14:01:59Z</time>
      </trkpt>
      <trkpt lat="47.23026" lon="6.53297">
        <ele>698.4</ele>
        <time>2020-05-22T14:02:00Z</time>
      </trkpt>
      <trkpt lat="47.23021" lon="6.53298">
        <ele>698.6</ele>
        <time>2020-05-22T14:02:01Z</time>
      </trkpt>
      <trkpt lat="47.23017" lon="6.533">
        <ele>698.6</ele>
        <time>2020-05-22T14:02:02Z</time>
      </trkpt>
      <trkpt lat="47.23012" lon="6.53302">
        <ele>698.6</ele>
        <time>2020-05-22T14:02:03Z</time>
      </trkpt>
      <trkpt lat="47.23008" lon="6.53303">
        <ele>698.6</ele>
        <time>2020-05-22T14:02:04Z</time>
      </trkpt>
      <trkpt lat="47.23003" lon="6.53305">
        <ele>698.6</ele>
        <time>2020-05-22T14:02:05Z</time>
      </trkpt>
      <trkpt lat="47.22998" lon="6.53306">
        <ele>698.6</ele>
        <time>2020-05-22T14:02:06Z</time>
      </trkpt>
      <trkpt lat="47.22993" lon="6.53308">
        <ele>698.6</ele>
        <time>2020-05-22T14:02:07Z</time>
      </trkpt>
      <trkpt lat="47.22988" lon="6.53309">
        <ele>698.6</ele>
        <time>2020-05-22T14:02:08Z</time>
      </trkpt>
      <trkpt lat="47.22983" lon="6.53311">
        <ele>698.6</ele>
        <time>2020-05-22T14:02:09Z</time>
      </trkpt>
      <trkpt lat="47.22977" lon="6.53313">
        <ele>698.6</ele>
        <time>2020-05-22T14:02:10Z</time>
      </trkpt>
      <trkpt lat="47.22971" lon="6.53315">
        <ele>698.6</ele>
        <time>2020-05-22T14:02:11Z</time>
      </trkpt>
      <trkpt lat="47.22965" lon="6.53317">
        <ele>698.4</ele>
        <time>2020-05-22T14:02:12Z</time>
      </trkpt>
      <trkpt lat="47.22959" lon="6.53319">
        <ele>698.4</ele>
        <time>2020-05-22T14:02:13Z</time>
      </trkpt>
      <trkpt lat="47.22953" lon="6.53322">
        <ele>698</ele>
        <time>2020-05-22T14:02:14Z</time>
      </trkpt>
      <trkpt lat="47.22947" lon="6.53324">
        <ele>698</ele>
        <time>2020-05-22T14:02:15Z</time>
      </trkpt>
      <trkpt lat="47.2294" lon="6.53326">
        <ele>698</ele>
        <time>2020-05-22T14:02:16Z</time>
      </trkpt>
      <trkpt lat="47.22934" lon="6.53329">
        <ele>697.8</ele>
        <time>2020-05-22T14:02:17Z</time>
      </trkpt>
      <trkpt lat="47.22928" lon="6.53331">
        <ele>697.8</ele>
        <time>2020-05-22T14:02:18Z</time>
      </trkpt>
      <trkpt lat="47.22921" lon="6.53333">
        <ele>697.8</ele>
        <time>2020-05-22T14:02:19Z</time>
      </trkpt>
      <trkpt lat="47.22915" lon="6.53335">
        <ele>697.8</ele>
        <time>2020-05-22T14:02:20Z</time>
      </trkpt>
      <trkpt lat="47.22909" lon="6.53337">
        <ele>697.6</ele>
        <time>2020-05-22T14:02:21Z</time>
      </trkpt>
      <trkpt lat="47.22902" lon="6.53339">
        <ele>697.6</ele>
        <time>2020-05-22T14:02:22Z</time>
      </trkpt>
      <trkpt lat="47.22896" lon="6.53341">
        <ele>697.6</ele>
        <time>2020-05-22T14:02:23Z</time>
      </trkpt>
      <trkpt lat="47.2289" lon="6.53343">
        <ele>697.2</ele>
        <time>2020-05-22T14:02:24Z</time>
      </trkpt>
      <trkpt lat="47.22884" lon="6.53345">
        <ele>697.2</ele>
        <time>2020-05-22T14:02:25Z</time>
      </trkpt>
      <trkpt lat="47.22877" lon="6.53348">
        <ele>697.2</ele>
        <time>2020-05-22T14:02:26Z</time>
      </trkpt>
      <trkpt lat="47.22871" lon="6.5335">
        <ele>697.2</ele>
        <time>2020-05-22T14:02:27Z</time>
      </trkpt>
      <trkpt lat="47.22865" lon="6.53352">
        <ele>697.2</ele>
        <time>2020-05-22T14:02:28Z</time>
      </trkpt>
      <trkpt lat="47.22858" lon="6.53355">
        <ele>697.2</ele>
        <time>2020-05-22T14:02:29Z</time>
      </trkpt>
      <trkpt lat="47.22852" lon="6.53357">
        <ele>697</ele>
        <time>2020-05-22T14:02:30Z</time>
      </trkpt>
      <trkpt lat="47.22846" lon="6.5336">
        <ele>697</ele>
        <time>2020-05-22T14:02:31Z</time>
      </trkpt>
      <trkpt lat="47.22839" lon="6.53363">
        <ele>697</ele>
        <time>2020-05-22T14:02:32Z</time>
      </trkpt>
      <trkpt lat="47.22833" lon="6.53366">
        <ele>697</ele>
        <time>2020-05-22T14:02:33Z</time>
      </trkpt>
      <trkpt lat="47.22827" lon="6.53369">
        <ele>697</ele>
        <time>2020-05-22T14:02:34Z</time>
      </trkpt>
      <trkpt lat="47.22821" lon="6.53372">
        <ele>697</ele>
        <time>2020-05-22T14:02:35Z</time>
      </trkpt>
      <trkpt lat="47.22815" lon="6.53375">
        <ele>696.8</ele>
        <time>2020-05-22T14:02:36Z</time>
      </trkpt>
      <trkpt lat="47.2281" lon="6.53379">
        <ele>696.8</ele>
        <time>2020-05-22T14:02:37Z</time>
      </trkpt>
      <trkpt lat="47.22804" lon="6.53382">
        <ele>696.8</ele>
        <time>2020-05-22T14:02:38Z</time>
      </trkpt>
      <trkpt lat="47.22799" lon="6.53386">
        <ele>696.8</ele>
        <time>2020-05-22T14:02:39Z</time>
      </trkpt>
      <trkpt lat="47.22794" lon="6.5339">
        <ele>696.8</ele>
        <time>2020-05-22T14:02:40Z</time>
      </trkpt>
      <trkpt lat="47.22789" lon="6.53394">
        <ele>696.8</ele>
        <time>2020-05-22T14:02:41Z</time>
      </trkpt>
      <trkpt lat="47.22784" lon="6.53398">
        <ele>696.8</ele>
        <time>2020-05-22T14:02:42Z</time>
      </trkpt>
      <trkpt lat="47.22779" lon="6.53402">
        <ele>696.8</ele>
        <time>2020-05-22T14:02:43Z</time>
      </trkpt>
      <trkpt lat="47.22775" lon="6.53407">
        <ele>696.8</ele>
        <time>2020-05-22T14:02:44Z</time>
      </trkpt>
      <trkpt lat="47.22771" lon="6.53412">
        <ele>696.8</ele>
        <time>2020-05-22T14:02:45Z</time>
      </trkpt>
      <trkpt lat="47.22767" lon="6.53416">
        <ele>697</ele>
        <time>2020-05-22T14:02:46Z</time>
      </trkpt>
      <trkpt lat="47.22764" lon="6.53421">
        <ele>697.2</ele>
        <time>2020-05-22T14:02:47Z</time>
      </trkpt>
      <trkpt lat="47.2276" lon="6.53425">
        <ele>697.4</ele>
        <time>2020-05-22T14:02:48Z</time>
      </trkpt>
      <trkpt lat="47.22757" lon="6.5343">
        <ele>697.6</ele>
        <time>2020-05-22T14:02:49Z</time>
      </trkpt>
      <trkpt lat="47.22755" lon="6.53434">
        <ele>697.6</ele>
        <time>2020-05-22T14:02:50Z</time>
      </trkpt>
      <trkpt lat="47.22752" lon="6.53438">
        <ele>698</ele>
        <time>2020-05-22T14:02:51Z</time>
      </trkpt>
      <trkpt lat="47.2275" lon="6.53442">
        <ele>698.2</ele>
        <time>2020-05-22T14:02:52Z</time>
      </trkpt>
      <trkpt lat="47.22748" lon="6.53446">
        <ele>698.4</ele>
        <time>2020-05-22T14:02:53Z</time>
      </trkpt>
      <trkpt lat="47.22746" lon="6.5345">
        <ele>698.4</ele>
        <time>2020-05-22T14:02:54Z</time>
      </trkpt>
      <trkpt lat="47.22744" lon="6.53453">
        <ele>698.8</ele>
        <time>2020-05-22T14:02:55Z</time>
      </trkpt>
      <trkpt lat="47.22743" lon="6.53457">
        <ele>698.8</ele>
        <time>2020-05-22T14:02:56Z</time>
      </trkpt>
      <trkpt lat="47.22741" lon="6.53461">
        <ele>699</ele>
        <time>2020-05-22T14:02:57Z</time>
      </trkpt>
      <trkpt lat="47.22739" lon="6.53465">
        <ele>699</ele>
        <time>2020-05-22T14:02:58Z</time>
      </trkpt>
      <trkpt lat="47.22738" lon="6.53469">
        <ele>699</ele>
        <time>2020-05-22T14:02:59Z</time>
      </trkpt>
      <trkpt lat="47.22736" lon="6.53472">
        <ele>699.4</ele>
        <time>2020-05-22T14:03:00Z</time>
      </trkpt>
      <trkpt lat="47.22734" lon="6.53475">
        <ele>699.4</ele>
        <time>2020-05-22T14:03:01Z</time>
      </trkpt>
      <trkpt lat="47.22732" lon="6.53479">
        <ele>699.4</ele>
        <time>2020-05-22T14:03:02Z</time>
      </trkpt>
      <trkpt lat="47.22731" lon="6.53482">
        <ele>699.4</ele>
        <time>2020-05-22T14:03:03Z</time>
      </trkpt>
      <trkpt lat="47.22729" lon="6.53486">
        <ele>699.4</ele>
        <time>2020-05-22T14:03:04Z</time>
      </trkpt>
      <trkpt lat="47.22727" lon="6.53489">
        <ele>699.6</ele>
        <time>2020-05-22T14:03:05Z</time>
      </trkpt>
      <trkpt lat="47.22725" lon="6.53493">
        <ele>699.6</ele>
        <time>2020-05-22T14:03:06Z</time>
      </trkpt>
      <trkpt lat="47.22723" lon="6.53496">
        <ele>699.6</ele>
        <time>2020-05-22T14:03:07Z</time>
      </trkpt>
      <trkpt lat="47.22721" lon="6.53499">
        <ele>699.6</ele>
        <time>2020-05-22T14:03:08Z</time>
      </trkpt>
      <trkpt lat="47.22719" lon="6.53503">
        <ele>699.6</ele>
        <time>2020-05-22T14:03:09Z</time>
      </trkpt>
      <trkpt lat="47.22717" lon="6.53507">
        <ele>699.6</ele>
        <time>2020-05-22T14:03:10Z</time>
      </trkpt>
      <trkpt lat="47.22714" lon="6.5351">
        <ele>699.6</ele>
        <time>2020-05-22T14:03:11Z</time>
      </trkpt>
      <trkpt lat="47.22712" lon="6.53514">
        <ele>699.6</ele>
        <time>2020-05-22T14:03:12Z</time>
      </trkpt>
      <trkpt lat="47.22709" lon="6.53517">
        <ele>699.4</ele>
        <time>2020-05-22T14:03:13Z</time>
      </trkpt>
      <trkpt lat="47.22707" lon="6.5352">
        <ele>699.4</ele>
        <time>2020-05-22T14:03:14Z</time>
      </trkpt>
      <trkpt lat="47.22705" lon="6.53524">
        <ele>699.4</ele>
        <time>2020-05-22T14:03:15Z</time>
      </trkpt>
      <trkpt lat="47.22702" lon="6.53527">
        <ele>699.4</ele>
        <time>2020-05-22T14:03:16Z</time>
      </trkpt>
      <trkpt lat="47.227" lon="6.5353">
        <ele>699.4</ele>
        <time>2020-05-22T14:03:17Z</time>
      </trkpt>
      <trkpt lat="47.22697" lon="6.53534">
        <ele>699.4</ele>
        <time>2020-05-22T14:03:18Z</time>
      </trkpt>
      <trkpt lat="47.22694" lon="6.53537">
        <ele>699.4</ele>
        <time>2020-05-22T14:03:19Z</time>
      </trkpt>
      <trkpt lat="47.22691" lon="6.53541">
        <ele>699.4</ele>
        <time>2020-05-22T14:03:20Z</time>
      </trkpt>
      <trkpt lat="47.22688" lon="6.53545">
        <ele>699.4</ele>
        <time>2020-05-22T14:03:21Z</time>
      </trkpt>
      <trkpt lat="47.22686" lon="6.53549">
        <ele>699.4</ele>
        <time>2020-05-22T14:03:22Z</time>
      </trkpt>
      <trkpt lat="47.22683" lon="6.53553">
        <ele>699.4</ele>
        <time>2020-05-22T14:03:23Z</time>
      </trkpt>
      <trkpt lat="47.22679" lon="6.53557">
        <ele>699.4</ele>
        <time>2020-05-22T14:03:24Z</time>
      </trkpt>
      <trkpt lat="47.22676" lon="6.53561">
        <ele>699.4</ele>
        <time>2020-05-22T14:03:25Z</time>
      </trkpt>
      <trkpt lat="47.22673" lon="6.53565">
        <ele>699.4</ele>
        <time>2020-05-22T14:03:26Z</time>
      </trkpt>
      <trkpt lat="47.2267" lon="6.53569">
        <ele>699.4</ele>
        <time>2020-05-22T14:03:27Z</time>
      </trkpt>
      <trkpt lat="47.22666" lon="6.53574">
        <ele>699.6</ele>
        <time>2020-05-22T14:03:28Z</time>
      </trkpt>
      <trkpt lat="47.22663" lon="6.53578">
        <ele>699.6</ele>
        <time>2020-05-22T14:03:29Z</time>
      </trkpt>
      <trkpt lat="47.2266" lon="6.53582">
        <ele>699.6</ele>
        <time>2020-05-22T14:03:30Z</time>
      </trkpt>
      <trkpt lat="47.22657" lon="6.53586">
        <ele>699.8</ele>
        <time>2020-05-22T14:03:31Z</time>
      </trkpt>
      <trkpt lat="47.22653" lon="6.53591">
        <ele>699.8</ele>
        <time>2020-05-22T14:03:32Z</time>
      </trkpt>
      <trkpt lat="47.2265" lon="6.53595">
        <ele>699.8</ele>
        <time>2020-05-22T14:03:33Z</time>
      </trkpt>
      <trkpt lat="47.22646" lon="6.536">
        <ele>699.8</ele>
        <time>2020-05-22T14:03:34Z</time>
      </trkpt>
      <trkpt lat="47.22642" lon="6.53604">
        <ele>699.8</ele>
        <time>2020-05-22T14:03:35Z</time>
      </trkpt>
      <trkpt lat="47.22639" lon="6.53608">
        <ele>699.8</ele>
        <time>2020-05-22T14:03:36Z</time>
      </trkpt>
      <trkpt lat="47.22635" lon="6.53613">
        <ele>699.8</ele>
        <time>2020-05-22T14:03:37Z</time>
      </trkpt>
      <trkpt lat="47.22631" lon="6.53617">
        <ele>699.8</ele>
        <time>2020-05-22T14:03:38Z</time>
      </trkpt>
      <trkpt lat="47.22628" lon="6.53622">
        <ele>699.8</ele>
        <time>2020-05-22T14:03:39Z</time>
      </trkpt>
      <trkpt lat="47.22624" lon="6.53627">
        <ele>699.8</ele>
        <time>2020-05-22T14:03:40Z</time>
      </trkpt>
      <trkpt lat="47.22621" lon="6.53632">
        <ele>699.8</ele>
        <time>2020-05-22T14:03:41Z</time>
      </trkpt>
      <trkpt lat="47.22617" lon="6.53636">
        <ele>699.8</ele>
        <time>2020-05-22T14:03:42Z</time>
      </trkpt>
      <trkpt lat="47.22614" lon="6.53641">
        <ele>699.8</ele>
        <time>2020-05-22T14:03:43Z</time>
      </trkpt>
      <trkpt lat="47.2261" lon="6.53645">
        <ele>699.8</ele>
        <time>2020-05-22T14:03:44Z</time>
      </trkpt>
      <trkpt lat="47.22606" lon="6.53649">
        <ele>699.8</ele>
        <time>2020-05-22T14:03:45Z</time>
      </trkpt>
      <trkpt lat="47.22603" lon="6.53653">
        <ele>699.8</ele>
        <time>2020-05-22T14:03:46Z</time>
      </trkpt>
      <trkpt lat="47.22599" lon="6.53658">
        <ele>700.2</ele>
        <time>2020-05-22T14:03:47Z</time>
      </trkpt>
      <trkpt lat="47.22596" lon="6.53663">
        <ele>700.2</ele>
        <time>2020-05-22T14:03:48Z</time>
      </trkpt>
      <trkpt lat="47.22593" lon="6.53667">
        <ele>700.2</ele>
        <time>2020-05-22T14:03:49Z</time>
      </trkpt>
      <trkpt lat="47.2259" lon="6.53671">
        <ele>700.4</ele>
        <time>2020-05-22T14:03:50Z</time>
      </trkpt>
      <trkpt lat="47.22588" lon="6.53675">
        <ele>700.4</ele>
        <time>2020-05-22T14:03:51Z</time>
      </trkpt>
      <trkpt lat="47.22585" lon="6.53679">
        <ele>700.6</ele>
        <time>2020-05-22T14:03:52Z</time>
      </trkpt>
      <trkpt lat="47.22583" lon="6.53683">
        <ele>700.6</ele>
        <time>2020-05-22T14:03:53Z</time>
      </trkpt>
      <trkpt lat="47.2258" lon="6.53687">
        <ele>700.6</ele>
        <time>2020-05-22T14:03:54Z</time>
      </trkpt>
      <trkpt lat="47.22578" lon="6.53691">
        <ele>701</ele>
        <time>2020-05-22T14:03:55Z</time>
      </trkpt>
      <trkpt lat="47.22576" lon="6.53695">
        <ele>701</ele>
        <time>2020-05-22T14:03:56Z</time>
      </trkpt>
      <trkpt lat="47.22574" lon="6.53699">
        <ele>701</ele>
        <time>2020-05-22T14:03:57Z</time>
      </trkpt>
      <trkpt lat="47.22571" lon="6.53702">
        <ele>701.2</ele>
        <time>2020-05-22T14:03:58Z</time>
      </trkpt>
      <trkpt lat="47.22569" lon="6.53706">
        <ele>701.2</ele>
        <time>2020-05-22T14:03:59Z</time>
      </trkpt>
      <trkpt lat="47.22567" lon="6.5371">
        <ele>701.2</ele>
        <time>2020-05-22T14:04:00Z</time>
      </trkpt>
      <trkpt lat="47.22565" lon="6.53714">
        <ele>701.2</ele>
        <time>2020-05-22T14:04:01Z</time>
      </trkpt>
      <trkpt lat="47.22563" lon="6.53718">
        <ele>701.6</ele>
        <time>2020-05-22T14:04:02Z</time>
      </trkpt>
      <trkpt lat="47.2256" lon="6.53722">
        <ele>701.6</ele>
        <time>2020-05-22T14:04:03Z</time>
      </trkpt>
      <trkpt lat="47.22558" lon="6.53726">
        <ele>701.6</ele>
        <time>2020-05-22T14:04:04Z</time>
      </trkpt>
      <trkpt lat="47.22556" lon="6.5373">
        <ele>701.8</ele>
        <time>2020-05-22T14:04:05Z</time>
      </trkpt>
      <trkpt lat="47.22553" lon="6.53734">
        <ele>701.8</ele>
        <time>2020-05-22T14:04:06Z</time>
      </trkpt>
      <trkpt lat="47.22551" lon="6.53738">
        <ele>701.8</ele>
        <time>2020-05-22T14:04:07Z</time>
      </trkpt>
      <trkpt lat="47.22548" lon="6.53742">
        <ele>702.2</ele>
        <time>2020-05-22T14:04:08Z</time>
      </trkpt>
      <trkpt lat="47.22546" lon="6.53746">
        <ele>702.4</ele>
        <time>2020-05-22T14:04:09Z</time>
      </trkpt>
      <trkpt lat="47.22544" lon="6.5375">
        <ele>702.4</ele>
        <time>2020-05-22T14:04:10Z</time>
      </trkpt>
      <trkpt lat="47.22542" lon="6.53754">
        <ele>702.4</ele>
        <time>2020-05-22T14:04:11Z</time>
      </trkpt>
      <trkpt lat="47.22539" lon="6.53758">
        <ele>702.6</ele>
        <time>2020-05-22T14:04:12Z</time>
      </trkpt>
      <trkpt lat="47.22537" lon="6.53762">
        <ele>702.6</ele>
        <time>2020-05-22T14:04:13Z</time>
      </trkpt>
      <trkpt lat="47.22535" lon="6.53765">
        <ele>703</ele>
        <time>2020-05-22T14:04:14Z</time>
      </trkpt>
      <trkpt lat="47.22533" lon="6.53769">
        <ele>703</ele>
        <time>2020-05-22T14:04:15Z</time>
      </trkpt>
      <trkpt lat="47.22531" lon="6.53773">
        <ele>703</ele>
        <time>2020-05-22T14:04:16Z</time>
      </trkpt>
      <trkpt lat="47.22528" lon="6.53777">
        <ele>703.2</ele>
        <time>2020-05-22T14:04:17Z</time>
      </trkpt>
      <trkpt lat="47.22526" lon="6.53781">
        <ele>703.2</ele>
        <time>2020-05-22T14:04:18Z</time>
      </trkpt>
      <trkpt lat="47.22524" lon="6.53785">
        <ele>703.2</ele>
        <time>2020-05-22T14:04:19Z</time>
      </trkpt>
      <trkpt lat="47.22522" lon="6.53789">
        <ele>703.4</ele>
        <time>2020-05-22T14:04:20Z</time>
      </trkpt>
      <trkpt lat="47.22519" lon="6.53793">
        <ele>703.4</ele>
        <time>2020-05-22T14:04:21Z</time>
      </trkpt>
      <trkpt lat="47.22517" lon="6.53797">
        <ele>703.6</ele>
        <time>2020-05-22T14:04:22Z</time>
      </trkpt>
      <trkpt lat="47.22515" lon="6.538">
        <ele>703.6</ele>
        <time>2020-05-22T14:04:23Z</time>
      </trkpt>
      <trkpt lat="47.22514" lon="6.53804">
        <ele>704</ele>
        <time>2020-05-22T14:04:24Z</time>
      </trkpt>
      <trkpt lat="47.22512" lon="6.53807">
        <ele>704</ele>
        <time>2020-05-22T14:04:25Z</time>
      </trkpt>
      <trkpt lat="47.2251" lon="6.5381">
        <ele>704.2</ele>
        <time>2020-05-22T14:04:26Z</time>
      </trkpt>
      <trkpt lat="47.22509" lon="6.53813">
        <ele>704.2</ele>
        <time>2020-05-22T14:04:27Z</time>
      </trkpt>
      <trkpt lat="47.22507" lon="6.53817">
        <ele>704.4</ele>
        <time>2020-05-22T14:04:28Z</time>
      </trkpt>
      <trkpt lat="47.22505" lon="6.5382">
        <ele>704.4</ele>
        <time>2020-05-22T14:04:29Z</time>
      </trkpt>
      <trkpt lat="47.22503" lon="6.53823">
        <ele>704.8</ele>
        <time>2020-05-22T14:04:30Z</time>
      </trkpt>
      <trkpt lat="47.22501" lon="6.53826">
        <ele>705</ele>
        <time>2020-05-22T14:04:31Z</time>
      </trkpt>
      <trkpt lat="47.22499" lon="6.53828">
        <ele>705</ele>
        <time>2020-05-22T14:04:32Z</time>
      </trkpt>
      <trkpt lat="47.22497" lon="6.53831">
        <ele>705.4</ele>
        <time>2020-05-22T14:04:33Z</time>
      </trkpt>
      <trkpt lat="47.22496" lon="6.53834">
        <ele>705.4</ele>
        <time>2020-05-22T14:04:34Z</time>
      </trkpt>
      <trkpt lat="47.22494" lon="6.53836">
        <ele>705.8</ele>
        <time>2020-05-22T14:04:35Z</time>
      </trkpt>
      <trkpt lat="47.22492" lon="6.53839">
        <ele>705.8</ele>
        <time>2020-05-22T14:04:36Z</time>
      </trkpt>
      <trkpt lat="47.2249" lon="6.53841">
        <ele>706.2</ele>
        <time>2020-05-22T14:04:37Z</time>
      </trkpt>
      <trkpt lat="47.22488" lon="6.53843">
        <ele>706.2</ele>
        <time>2020-05-22T14:04:38Z</time>
      </trkpt>
      <trkpt lat="47.22486" lon="6.53846">
        <ele>706.4</ele>
        <time>2020-05-22T14:04:39Z</time>
      </trkpt>
      <trkpt lat="47.22483" lon="6.53847">
        <ele>706.4</ele>
        <time>2020-05-22T14:04:40Z</time>
      </trkpt>
      <trkpt lat="47.22481" lon="6.53849">
        <ele>706.4</ele>
        <time>2020-05-22T14:04:41Z</time>
      </trkpt>
      <trkpt lat="47.22479" lon="6.53851">
        <ele>706.4</ele>
        <time>2020-05-22T14:04:42Z</time>
      </trkpt>
      <trkpt lat="47.22476" lon="6.53853">
        <ele>706.6</ele>
        <time>2020-05-22T14:04:43Z</time>
      </trkpt>
      <trkpt lat="47.22474" lon="6.53855">
        <ele>706.6</ele>
        <time>2020-05-22T14:04:44Z</time>
      </trkpt>
      <trkpt lat="47.22471" lon="6.53857">
        <ele>706.6</ele>
        <time>2020-05-22T14:04:45Z</time>
      </trkpt>
      <trkpt lat="47.22469" lon="6.53858">
        <ele>706.6</ele>
        <time>2020-05-22T14:04:46Z</time>
      </trkpt>
      <trkpt lat="47.22466" lon="6.5386">
        <ele>706.6</ele>
        <time>2020-05-22T14:04:47Z</time>
      </trkpt>
      <trkpt lat="47.22464" lon="6.53862">
        <ele>706.8</ele>
        <time>2020-05-22T14:04:48Z</time>
      </trkpt>
      <trkpt lat="47.22461" lon="6.53863">
        <ele>706.8</ele>
        <time>2020-05-22T14:04:49Z</time>
      </trkpt>
      <trkpt lat="47.22458" lon="6.53864">
        <ele>706.8</ele>
        <time>2020-05-22T14:04:50Z</time>
      </trkpt>
      <trkpt lat="47.22455" lon="6.53866">
        <ele>706.8</ele>
        <time>2020-05-22T14:04:51Z</time>
      </trkpt>
      <trkpt lat="47.22452" lon="6.53868">
        <ele>706.8</ele>
        <time>2020-05-22T14:04:52Z</time>
      </trkpt>
      <trkpt lat="47.22449" lon="6.53869">
        <ele>707.2</ele>
        <time>2020-05-22T14:04:53Z</time>
      </trkpt>
      <trkpt lat="47.22446" lon="6.53871">
        <ele>707.2</ele>
        <time>2020-05-22T14:04:54Z</time>
      </trkpt>
      <trkpt lat="47.22442" lon="6.53873">
        <ele>707.2</ele>
        <time>2020-05-22T14:04:55Z</time>
      </trkpt>
      <trkpt lat="47.22439" lon="6.53875">
        <ele>707.2</ele>
        <time>2020-05-22T14:04:56Z</time>
      </trkpt>
      <trkpt lat="47.22435" lon="6.53876">
        <ele>707.2</ele>
        <time>2020-05-22T14:04:57Z</time>
      </trkpt>
      <trkpt lat="47.22431" lon="6.53878">
        <ele>707.2</ele>
        <time>2020-05-22T14:04:58Z</time>
      </trkpt>
      <trkpt lat="47.22428" lon="6.5388">
        <ele>707.4</ele>
        <time>2020-05-22T14:04:59Z</time>
      </trkpt>
      <trkpt lat="47.22424" lon="6.53882">
        <ele>707.4</ele>
        <time>2020-05-22T14:05:00Z</time>
      </trkpt>
      <trkpt lat="47.2242" lon="6.53883">
        <ele>707.4</ele>
        <time>2020-05-22T14:05:01Z</time>
      </trkpt>
      <trkpt lat="47.22416" lon="6.53885">
        <ele>707.6</ele>
        <time>2020-05-22T14:05:02Z</time>
      </trkpt>
      <trkpt lat="47.22412" lon="6.53887">
        <ele>707.6</ele>
        <time>2020-05-22T14:05:03Z</time>
      </trkpt>
      <trkpt lat="47.22408" lon="6.53889">
        <ele>707.6</ele>
        <time>2020-05-22T14:05:04Z</time>
      </trkpt>
      <trkpt lat="47.22405" lon="6.5389">
        <ele>707.6</ele>
        <time>2020-05-22T14:05:05Z</time>
      </trkpt>
      <trkpt lat="47.22401" lon="6.53892">
        <ele>707.6</ele>
        <time>2020-05-22T14:05:06Z</time>
      </trkpt>
      <trkpt lat="47.22397" lon="6.53894">
        <ele>707.6</ele>
        <time>2020-05-22T14:05:07Z</time>
      </trkpt>
      <trkpt lat="47.22393" lon="6.53896">
        <ele>707.6</ele>
        <time>2020-05-22T14:05:08Z</time>
      </trkpt>
      <trkpt lat="47.22389" lon="6.53898">
        <ele>707.6</ele>
        <time>2020-05-22T14:05:09Z</time>
      </trkpt>
      <trkpt lat="47.22386" lon="6.53899">
        <ele>707.8</ele>
        <time>2020-05-22T14:05:10Z</time>
      </trkpt>
      <trkpt lat="47.22382" lon="6.53901">
        <ele>707.8</ele>
        <time>2020-05-22T14:05:11Z</time>
      </trkpt>
      <trkpt lat="47.22378" lon="6.53903">
        <ele>707.8</ele>
        <time>2020-05-22T14:05:12Z</time>
      </trkpt>
      <trkpt lat="47.22374" lon="6.53905">
        <ele>707.8</ele>
        <time>2020-05-22T14:05:13Z</time>
      </trkpt>
      <trkpt lat="47.2237" lon="6.53907">
        <ele>707.8</ele>
        <time>2020-05-22T14:05:14Z</time>
      </trkpt>
      <trkpt lat="47.22366" lon="6.53909">
        <ele>708.2</ele>
        <time>2020-05-22T14:05:15Z</time>
      </trkpt>
      <trkpt lat="47.22363" lon="6.53911">
        <ele>708.2</ele>
        <time>2020-05-22T14:05:16Z</time>
      </trkpt>
      <trkpt lat="47.22359" lon="6.53913">
        <ele>708.2</ele>
        <time>2020-05-22T14:05:17Z</time>
      </trkpt>
      <trkpt lat="47.22355" lon="6.53915">
        <ele>708.2</ele>
        <time>2020-05-22T14:05:18Z</time>
      </trkpt>
      <trkpt lat="47.22351" lon="6.53916">
        <ele>708.4</ele>
        <time>2020-05-22T14:05:19Z</time>
      </trkpt>
      <trkpt lat="47.22348" lon="6.53918">
        <ele>708.4</ele>
        <time>2020-05-22T14:05:20Z</time>
      </trkpt>
      <trkpt lat="47.22344" lon="6.5392">
        <ele>708.4</ele>
        <time>2020-05-22T14:05:21Z</time>
      </trkpt>
      <trkpt lat="47.22341" lon="6.53922">
        <ele>708.6</ele>
        <time>2020-05-22T14:05:22Z</time>
      </trkpt>
      <trkpt lat="47.22338" lon="6.53924">
        <ele>708.6</ele>
        <time>2020-05-22T14:05:23Z</time>
      </trkpt>
      <trkpt lat="47.22334" lon="6.53925">
        <ele>708.6</ele>
        <time>2020-05-22T14:05:24Z</time>
      </trkpt>
      <trkpt lat="47.22331" lon="6.53927">
        <ele>708.6</ele>
        <time>2020-05-22T14:05:25Z</time>
      </trkpt>
      <trkpt lat="47.22327" lon="6.53928">
        <ele>708.6</ele>
        <time>2020-05-22T14:05:26Z</time>
      </trkpt>
      <trkpt lat="47.22324" lon="6.5393">
        <ele>708.8</ele>
        <time>2020-05-22T14:05:27Z</time>
      </trkpt>
      <trkpt lat="47.22321" lon="6.53932">
        <ele>708.8</ele>
        <time>2020-05-22T14:05:28Z</time>
      </trkpt>
      <trkpt lat="47.22317" lon="6.53934">
        <ele>708.8</ele>
        <time>2020-05-22T14:05:29Z</time>
      </trkpt>
      <trkpt lat="47.22314" lon="6.53936">
        <ele>708.8</ele>
        <time>2020-05-22T14:05:30Z</time>
      </trkpt>
      <trkpt lat="47.2231" lon="6.53937">
        <ele>709.2</ele>
        <time>2020-05-22T14:05:31Z</time>
      </trkpt>
      <trkpt lat="47.22307" lon="6.53939">
        <ele>709.2</ele>
        <time>2020-05-22T14:05:32Z</time>
      </trkpt>
      <trkpt lat="47.22303" lon="6.5394">
        <ele>709.2</ele>
        <time>2020-05-22T14:05:33Z</time>
      </trkpt>
      <trkpt lat="47.223" lon="6.53942">
        <ele>709.2</ele>
        <time>2020-05-22T14:05:34Z</time>
      </trkpt>
      <trkpt lat="47.22297" lon="6.53943">
        <ele>709.4</ele>
        <time>2020-05-22T14:05:35Z</time>
      </trkpt>
      <trkpt lat="47.22294" lon="6.53945">
        <ele>709.4</ele>
        <time>2020-05-22T14:05:36Z</time>
      </trkpt>
      <trkpt lat="47.22291" lon="6.53946">
        <ele>709.8</ele>
        <time>2020-05-22T14:05:37Z</time>
      </trkpt>
      <trkpt lat="47.22288" lon="6.53948">
        <ele>709.8</ele>
        <time>2020-05-22T14:05:38Z</time>
      </trkpt>
      <trkpt lat="47.22285" lon="6.53949">
        <ele>709.8</ele>
        <time>2020-05-22T14:05:39Z</time>
      </trkpt>
      <trkpt lat="47.22282" lon="6.5395">
        <ele>710</ele>
        <time>2020-05-22T14:05:40Z</time>
      </trkpt>
      <trkpt lat="47.22279" lon="6.53951">
        <ele>710</ele>
        <time>2020-05-22T14:05:41Z</time>
      </trkpt>
      <trkpt lat="47.22276" lon="6.53953">
        <ele>710</ele>
        <time>2020-05-22T14:05:42Z</time>
      </trkpt>
      <trkpt lat="47.22274" lon="6.53954">
        <ele>710</ele>
        <time>2020-05-22T14:05:43Z</time>
      </trkpt>
      <trkpt lat="47.22271" lon="6.53955">
        <ele>710.2</ele>
        <time>2020-05-22T14:05:44Z</time>
      </trkpt>
      <trkpt lat="47.22269" lon="6.53957">
        <ele>710.2</ele>
        <time>2020-05-22T14:05:45Z</time>
      </trkpt>
      <trkpt lat="47.22266" lon="6.53958">
        <ele>710.6</ele>
        <time>2020-05-22T14:05:46Z</time>
      </trkpt>
      <trkpt lat="47.22263" lon="6.53959">
        <ele>710.6</ele>
        <time>2020-05-22T14:05:47Z</time>
      </trkpt>
      <trkpt lat="47.22261" lon="6.5396">
        <ele>711</ele>
        <time>2020-05-22T14:05:48Z</time>
      </trkpt>
      <trkpt lat="47.22258" lon="6.53962">
        <ele>711</ele>
        <time>2020-05-22T14:05:49Z</time>
      </trkpt>
      <trkpt lat="47.22255" lon="6.53964">
        <ele>711</ele>
        <time>2020-05-22T14:05:50Z</time>
      </trkpt>
      <trkpt lat="47.22252" lon="6.53965">
        <ele>711.4</ele>
        <time>2020-05-22T14:05:51Z</time>
      </trkpt>
      <trkpt lat="47.2225" lon="6.53966">
        <ele>711.4</ele>
        <time>2020-05-22T14:05:52Z</time>
      </trkpt>
      <trkpt lat="47.22247" lon="6.53968">
        <ele>711.6</ele>
        <time>2020-05-22T14:05:53Z</time>
      </trkpt>
      <trkpt lat="47.22244" lon="6.53969">
        <ele>711.6</ele>
        <time>2020-05-22T14:05:54Z</time>
      </trkpt>
      <trkpt lat="47.22241" lon="6.5397">
        <ele>711.6</ele>
        <time>2020-05-22T14:05:55Z</time>
      </trkpt>
      <trkpt lat="47.22238" lon="6.53971">
        <ele>711.8</ele>
        <time>2020-05-22T14:05:56Z</time>
      </trkpt>
      <trkpt lat="47.22235" lon="6.53973">
        <ele>711.8</ele>
        <time>2020-05-22T14:05:57Z</time>
      </trkpt>
      <trkpt lat="47.22233" lon="6.53974">
        <ele>711.8</ele>
        <time>2020-05-22T14:05:58Z</time>
      </trkpt>
      <trkpt lat="47.2223" lon="6.53975">
        <ele>711.8</ele>
        <time>2020-05-22T14:05:59Z</time>
      </trkpt>
      <trkpt lat="47.22227" lon="6.53977">
        <ele>712</ele>
        <time>2020-05-22T14:06:00Z</time>
      </trkpt>
      <trkpt lat="47.22224" lon="6.53978">
        <ele>712</ele>
        <time>2020-05-22T14:06:01Z</time>
      </trkpt>
      <trkpt lat="47.22221" lon="6.5398">
        <ele>712</ele>
        <time>2020-05-22T14:06:02Z</time>
      </trkpt>
      <trkpt lat="47.22219" lon="6.53981">
        <ele>712.2</ele>
        <time>2020-05-22T14:06:03Z</time>
      </trkpt>
      <trkpt lat="47.22216" lon="6.53982">
        <ele>712.2</ele>
        <time>2020-05-22T14:06:04Z</time>
      </trkpt>
      <trkpt lat="47.22213" lon="6.53983">
        <ele>712.4</ele>
        <time>2020-05-22T14:06:05Z</time>
      </trkpt>
      <trkpt lat="47.2221" lon="6.53985">
        <ele>712.4</ele>
        <time>2020-05-22T14:06:06Z</time>
      </trkpt>
      <trkpt lat="47.22208" lon="6.53986">
        <ele>712.4</ele>
        <time>2020-05-22T14:06:07Z</time>
      </trkpt>
      <trkpt lat="47.22205" lon="6.53987">
        <ele>712.4</ele>
        <time>2020-05-22T14:06:08Z</time>
      </trkpt>
      <trkpt lat="47.22202" lon="6.53988">
        <ele>712.4</ele>
        <time>2020-05-22T14:06:09Z</time>
      </trkpt>
      <trkpt lat="47.22199" lon="6.53989">
        <ele>712.8</ele>
        <time>2020-05-22T14:06:10Z</time>
      </trkpt>
      <trkpt lat="47.22196" lon="6.5399">
        <ele>712.8</ele>
        <time>2020-05-22T14:06:11Z</time>
      </trkpt>
      <trkpt lat="47.22193" lon="6.53991">
        <ele>713</ele>
        <time>2020-05-22T14:06:12Z</time>
      </trkpt>
      <trkpt lat="47.2219" lon="6.53992">
        <ele>713</ele>
        <time>2020-05-22T14:06:13Z</time>
      </trkpt>
      <trkpt lat="47.22187" lon="6.53993">
        <ele>713</ele>
        <time>2020-05-22T14:06:14Z</time>
      </trkpt>
      <trkpt lat="47.22184" lon="6.53995">
        <ele>712.8</ele>
        <time>2020-05-22T14:06:15Z</time>
      </trkpt>
      <trkpt lat="47.22181" lon="6.53997">
        <ele>712.8</ele>
        <time>2020-05-22T14:06:16Z</time>
      </trkpt>
      <trkpt lat="47.22178" lon="6.53998">
        <ele>712.8</ele>
        <time>2020-05-22T14:06:17Z</time>
      </trkpt>
      <trkpt lat="47.22174" lon="6.53999">
        <ele>712.8</ele>
        <time>2020-05-22T14:06:18Z</time>
      </trkpt>
      <trkpt lat="47.22171" lon="6.54">
        <ele>712.8</ele>
        <time>2020-05-22T14:06:19Z</time>
      </trkpt>
      <trkpt lat="47.22167" lon="6.54002">
        <ele>712.8</ele>
        <time>2020-05-22T14:06:20Z</time>
      </trkpt>
      <trkpt lat="47.22163" lon="6.54003">
        <ele>712.8</ele>
        <time>2020-05-22T14:06:21Z</time>
      </trkpt>
      <trkpt lat="47.2216" lon="6.54005">
        <ele>712.6</ele>
        <time>2020-05-22T14:06:22Z</time>
      </trkpt>
      <trkpt lat="47.22156" lon="6.54007">
        <ele>712.6</ele>
        <time>2020-05-22T14:06:23Z</time>
      </trkpt>
      <trkpt lat="47.22152" lon="6.54008">
        <ele>712.6</ele>
        <time>2020-05-22T14:06:24Z</time>
      </trkpt>
      <trkpt lat="47.22148" lon="6.5401">
        <ele>712.6</ele>
        <time>2020-05-22T14:06:25Z</time>
      </trkpt>
      <trkpt lat="47.22144" lon="6.54012">
        <ele>712.6</ele>
        <time>2020-05-22T14:06:26Z</time>
      </trkpt>
      <trkpt lat="47.22141" lon="6.54014">
        <ele>712.4</ele>
        <time>2020-05-22T14:06:27Z</time>
      </trkpt>
      <trkpt lat="47.22137" lon="6.54017">
        <ele>712.4</ele>
        <time>2020-05-22T14:06:28Z</time>
      </trkpt>
      <trkpt lat="47.22133" lon="6.54019">
        <ele>712.4</ele>
        <time>2020-05-22T14:06:29Z</time>
      </trkpt>
      <trkpt lat="47.22129" lon="6.54021">
        <ele>712.4</ele>
        <time>2020-05-22T14:06:30Z</time>
      </trkpt>
      <trkpt lat="47.22125" lon="6.54023">
        <ele>712.4</ele>
        <time>2020-05-22T14:06:31Z</time>
      </trkpt>
      <trkpt lat="47.22121" lon="6.54025">
        <ele>712.4</ele>
        <time>2020-05-22T14:06:32Z</time>
      </trkpt>
      <trkpt lat="47.22117" lon="6.54027">
        <ele>712.4</ele>
        <time>2020-05-22T14:06:33Z</time>
      </trkpt>
      <trkpt lat="47.22113" lon="6.5403">
        <ele>712.4</ele>
        <time>2020-05-22T14:06:34Z</time>
      </trkpt>
      <trkpt lat="47.22109" lon="6.54032">
        <ele>712.4</ele>
        <time>2020-05-22T14:06:35Z</time>
      </trkpt>
      <trkpt lat="47.22105" lon="6.54035">
        <ele>712.4</ele>
        <time>2020-05-22T14:06:36Z</time>
      </trkpt>
      <trkpt lat="47.22101" lon="6.54038">
        <ele>712.4</ele>
        <time>2020-05-22T14:06:37Z</time>
      </trkpt>
      <trkpt lat="47.22096" lon="6.54041">
        <ele>712.4</ele>
        <time>2020-05-22T14:06:38Z</time>
      </trkpt>
      <trkpt lat="47.22092" lon="6.54044">
        <ele>712.4</ele>
        <time>2020-05-22T14:06:39Z</time>
      </trkpt>
      <trkpt lat="47.22087" lon="6.54047">
        <ele>712.4</ele>
        <time>2020-05-22T14:06:40Z</time>
      </trkpt>
      <trkpt lat="47.22082" lon="6.5405">
        <ele>712.4</ele>
        <time>2020-05-22T14:06:41Z</time>
      </trkpt>
      <trkpt lat="47.22077" lon="6.54053">
        <ele>712</ele>
        <time>2020-05-22T14:06:42Z</time>
      </trkpt>
      <trkpt lat="47.22072" lon="6.54057">
        <ele>712</ele>
        <time>2020-05-22T14:06:43Z</time>
      </trkpt>
      <trkpt lat="47.22067" lon="6.54061">
        <ele>711.8</ele>
        <time>2020-05-22T14:06:44Z</time>
      </trkpt>
      <trkpt lat="47.22063" lon="6.54065">
        <ele>711.8</ele>
        <time>2020-05-22T14:06:45Z</time>
      </trkpt>
      <trkpt lat="47.22058" lon="6.54069">
        <ele>711.6</ele>
        <time>2020-05-22T14:06:46Z</time>
      </trkpt>
      <trkpt lat="47.22053" lon="6.54073">
        <ele>711.6</ele>
        <time>2020-05-22T14:06:47Z</time>
      </trkpt>
      <trkpt lat="47.22048" lon="6.54076">
        <ele>711.6</ele>
        <time>2020-05-22T14:06:48Z</time>
      </trkpt>
      <trkpt lat="47.22043" lon="6.5408">
        <ele>711.4</ele>
        <time>2020-05-22T14:06:49Z</time>
      </trkpt>
      <trkpt lat="47.22038" lon="6.54084">
        <ele>711.4</ele>
        <time>2020-05-22T14:06:50Z</time>
      </trkpt>
      <trkpt lat="47.22034" lon="6.54088">
        <ele>711.4</ele>
        <time>2020-05-22T14:06:51Z</time>
      </trkpt>
      <trkpt lat="47.22029" lon="6.54092">
        <ele>711.4</ele>
        <time>2020-05-22T14:06:52Z</time>
      </trkpt>
      <trkpt lat="47.22024" lon="6.54096">
        <ele>711.4</ele>
        <time>2020-05-22T14:06:53Z</time>
      </trkpt>
      <trkpt lat="47.22019" lon="6.541">
        <ele>711.4</ele>
        <time>2020-05-22T14:06:54Z</time>
      </trkpt>
      <trkpt lat="47.22015" lon="6.54104">
        <ele>711.4</ele>
        <time>2020-05-22T14:06:55Z</time>
      </trkpt>
      <trkpt lat="47.2201" lon="6.54107">
        <ele>711.2</ele>
        <time>2020-05-22T14:06:56Z</time>
      </trkpt>
      <trkpt lat="47.22006" lon="6.54111">
        <ele>711.2</ele>
        <time>2020-05-22T14:06:57Z</time>
      </trkpt>
      <trkpt lat="47.22001" lon="6.54115">
        <ele>711.2</ele>
        <time>2020-05-22T14:06:58Z</time>
      </trkpt>
      <trkpt lat="47.21997" lon="6.54119">
        <ele>710.8</ele>
        <time>2020-05-22T14:06:59Z</time>
      </trkpt>
      <trkpt lat="47.21993" lon="6.54122">
        <ele>710.8</ele>
        <time>2020-05-22T14:07:00Z</time>
      </trkpt>
      <trkpt lat="47.21989" lon="6.54125">
        <ele>710.8</ele>
        <time>2020-05-22T14:07:01Z</time>
      </trkpt>
      <trkpt lat="47.21984" lon="6.54129">
        <ele>710.8</ele>
        <time>2020-05-22T14:07:02Z</time>
      </trkpt>
      <trkpt lat="47.2198" lon="6.54133">
        <ele>710.8</ele>
        <time>2020-05-22T14:07:03Z</time>
      </trkpt>
      <trkpt lat="47.21976" lon="6.54137">
        <ele>710.8</ele>
        <time>2020-05-22T14:07:04Z</time>
      </trkpt>
      <trkpt lat="47.21971" lon="6.54141">
        <ele>710.6</ele>
        <time>2020-05-22T14:07:05Z</time>
      </trkpt>
      <trkpt lat="47.21967" lon="6.54145">
        <ele>710.6</ele>
        <time>2020-05-22T14:07:06Z</time>
      </trkpt>
      <trkpt lat="47.21962" lon="6.54149">
        <ele>710.6</ele>
        <time>2020-05-22T14:07:07Z</time>
      </trkpt>
      <trkpt lat="47.21957" lon="6.54153">
        <ele>710.4</ele>
        <time>2020-05-22T14:07:08Z</time>
      </trkpt>
      <trkpt lat="47.21953" lon="6.54156">
        <ele>710.4</ele>
        <time>2020-05-22T14:07:09Z</time>
      </trkpt>
      <trkpt lat="47.21948" lon="6.5416">
        <ele>710.4</ele>
        <time>2020-05-22T14:07:10Z</time>
      </trkpt>
      <trkpt lat="47.21943" lon="6.54164">
        <ele>710.4</ele>
        <time>2020-05-22T14:07:11Z</time>
      </trkpt>
      <trkpt lat="47.21938" lon="6.54168">
        <ele>710</ele>
        <time>2020-05-22T14:07:12Z</time>
      </trkpt>
      <trkpt lat="47.21933" lon="6.54172">
        <ele>709.8</ele>
        <time>2020-05-22T14:07:13Z</time>
      </trkpt>
      <trkpt lat="47.21928" lon="6.54176">
        <ele>709.6</ele>
        <time>2020-05-22T14:07:14Z</time>
      </trkpt>
      <trkpt lat="47.21923" lon="6.5418">
        <ele>709.6</ele>
        <time>2020-05-22T14:07:15Z</time>
      </trkpt>
      <trkpt lat="47.21918" lon="6.54185">
        <ele>709.2</ele>
        <time>2020-05-22T14:07:16Z</time>
      </trkpt>
      <trkpt lat="47.21913" lon="6.5419">
        <ele>709</ele>
        <time>2020-05-22T14:07:17Z</time>
      </trkpt>
      <trkpt lat="47.21907" lon="6.54195">
        <ele>708.6</ele>
        <time>2020-05-22T14:07:18Z</time>
      </trkpt>
      <trkpt lat="47.21902" lon="6.542">
        <ele>708.4</ele>
        <time>2020-05-22T14:07:19Z</time>
      </trkpt>
      <trkpt lat="47.21896" lon="6.54205">
        <ele>708</ele>
        <time>2020-05-22T14:07:20Z</time>
      </trkpt>
      <trkpt lat="47.21891" lon="6.54212">
        <ele>707.8</ele>
        <time>2020-05-22T14:07:21Z</time>
      </trkpt>
      <trkpt lat="47.21887" lon="6.54219">
        <ele>707.8</ele>
        <time>2020-05-22T14:07:22Z</time>
      </trkpt>
      <trkpt lat="47.21882" lon="6.54226">
        <ele>707.6</ele>
        <time>2020-05-22T14:07:23Z</time>
      </trkpt>
      <trkpt lat="47.21878" lon="6.54233">
        <ele>707.4</ele>
        <time>2020-05-22T14:07:24Z</time>
      </trkpt>
      <trkpt lat="47.21874" lon="6.5424">
        <ele>707.4</ele>
        <time>2020-05-22T14:07:25Z</time>
      </trkpt>
      <trkpt lat="47.2187" lon="6.54247">
        <ele>707.2</ele>
        <time>2020-05-22T14:07:26Z</time>
      </trkpt>
      <trkpt lat="47.21866" lon="6.54253">
        <ele>707.2</ele>
        <time>2020-05-22T14:07:27Z</time>
      </trkpt>
      <trkpt lat="47.21863" lon="6.54259">
        <ele>707.2</ele>
        <time>2020-05-22T14:07:28Z</time>
      </trkpt>
      <trkpt lat="47.2186" lon="6.54265">
        <ele>706.8</ele>
        <time>2020-05-22T14:07:29Z</time>
      </trkpt>
      <trkpt lat="47.21857" lon="6.5427">
        <ele>706.8</ele>
        <time>2020-05-22T14:07:30Z</time>
      </trkpt>
      <trkpt lat="47.21854" lon="6.54274">
        <ele>706.8</ele>
        <time>2020-05-22T14:07:31Z</time>
      </trkpt>
      <trkpt lat="47.21852" lon="6.54278">
        <ele>706.6</ele>
        <time>2020-05-22T14:07:32Z</time>
      </trkpt>
      <trkpt lat="47.2185" lon="6.54281">
        <ele>706.6</ele>
        <time>2020-05-22T14:07:33Z</time>
      </trkpt>
      <trkpt lat="47.21848" lon="6.54284">
        <ele>706.6</ele>
        <time>2020-05-22T14:07:34Z</time>
      </trkpt>
      <trkpt lat="47.21846" lon="6.54286">
        <ele>706.4</ele>
        <time>2020-05-22T14:07:35Z</time>
      </trkpt>
      <trkpt lat="47.21844" lon="6.54288">
        <ele>706.4</ele>
        <time>2020-05-22T14:07:36Z</time>
      </trkpt>
      <trkpt lat="47.21841" lon="6.54288">
        <ele>706.4</ele>
        <time>2020-05-22T14:07:37Z</time>
      </trkpt>
      <trkpt lat="47.21838" lon="6.54287">
        <ele>706.4</ele>
        <time>2020-05-22T14:07:38Z</time>
      </trkpt>
      <trkpt lat="47.21835" lon="6.54285">
        <ele>706.4</ele>
        <time>2020-05-22T14:07:39Z</time>
      </trkpt>
      <trkpt lat="47.21833" lon="6.54283">
        <ele>706.4</ele>
        <time>2020-05-22T14:07:40Z</time>
      </trkpt>
      <trkpt lat="47.2183" lon="6.5428">
        <ele>706.4</ele>
        <time>2020-05-22T14:07:41Z</time>
      </trkpt>
      <trkpt lat="47.21827" lon="6.54278">
        <ele>706.4</ele>
        <time>2020-05-22T14:07:42Z</time>
      </trkpt>
      <trkpt lat="47.21824" lon="6.54275">
        <ele>706.4</ele>
        <time>2020-05-22T14:07:43Z</time>
      </trkpt>
      <trkpt lat="47.2182" lon="6.54273">
        <ele>706.4</ele>
        <time>2020-05-22T14:07:44Z</time>
      </trkpt>
      <trkpt lat="47.21817" lon="6.54271">
        <ele>706.4</ele>
        <time>2020-05-22T14:07:45Z</time>
      </trkpt>
      <trkpt lat="47.21814" lon="6.54268">
        <ele>706.4</ele>
        <time>2020-05-22T14:07:46Z</time>
      </trkpt>
      <trkpt lat="47.21811" lon="6.54266">
        <ele>706.4</ele>
        <time>2020-05-22T14:07:47Z</time>
      </trkpt>
      <trkpt lat="47.21807" lon="6.54264">
        <ele>706.4</ele>
        <time>2020-05-22T14:07:48Z</time>
      </trkpt>
      <trkpt lat="47.21804" lon="6.54262">
        <ele>706.4</ele>
        <time>2020-05-22T14:07:49Z</time>
      </trkpt>
      <trkpt lat="47.218" lon="6.5426">
        <ele>706.4</ele>
        <time>2020-05-22T14:07:50Z</time>
      </trkpt>
      <trkpt lat="47.21797" lon="6.54258">
        <ele>706.4</ele>
        <time>2020-05-22T14:07:51Z</time>
      </trkpt>
      <trkpt lat="47.21794" lon="6.54256">
        <ele>706.4</ele>
        <time>2020-05-22T14:07:52Z</time>
      </trkpt>
      <trkpt lat="47.2179" lon="6.54253">
        <ele>706.6</ele>
        <time>2020-05-22T14:07:53Z</time>
      </trkpt>
      <trkpt lat="47.21787" lon="6.54251">
        <ele>706.6</ele>
        <time>2020-05-22T14:07:54Z</time>
      </trkpt>
      <trkpt lat="47.21783" lon="6.54249">
        <ele>706.6</ele>
        <time>2020-05-22T14:07:55Z</time>
      </trkpt>
      <trkpt lat="47.2178" lon="6.54247">
        <ele>706.6</ele>
        <time>2020-05-22T14:07:56Z</time>
      </trkpt>
      <trkpt lat="47.21776" lon="6.54246">
        <ele>706.8</ele>
        <time>2020-05-22T14:07:57Z</time>
      </trkpt>
      <trkpt lat="47.21773" lon="6.54245">
        <ele>706.8</ele>
        <time>2020-05-22T14:07:58Z</time>
      </trkpt>
      <trkpt lat="47.21769" lon="6.54245">
        <ele>706.8</ele>
        <time>2020-05-22T14:07:59Z</time>
      </trkpt>
      <trkpt lat="47.21765" lon="6.54244">
        <ele>706.8</ele>
        <time>2020-05-22T14:08:00Z</time>
      </trkpt>
      <trkpt lat="47.21761" lon="6.54243">
        <ele>706.8</ele>
        <time>2020-05-22T14:08:01Z</time>
      </trkpt>
      <trkpt lat="47.21758" lon="6.54241">
        <ele>706.8</ele>
        <time>2020-05-22T14:08:02Z</time>
      </trkpt>
      <trkpt lat="47.21755" lon="6.54239">
        <ele>706.8</ele>
        <time>2020-05-22T14:08:03Z</time>
      </trkpt>
      <trkpt lat="47.21752" lon="6.54236">
        <ele>706.8</ele>
        <time>2020-05-22T14:08:04Z</time>
      </trkpt>
      <trkpt lat="47.21749" lon="6.54234">
        <ele>707</ele>
        <time>2020-05-22T14:08:05Z</time>
      </trkpt>
      <trkpt lat="47.21746" lon="6.54231">
        <ele>707</ele>
        <time>2020-05-22T14:08:06Z</time>
      </trkpt>
      <trkpt lat="47.21744" lon="6.54228">
        <ele>707</ele>
        <time>2020-05-22T14:08:07Z</time>
      </trkpt>
      <trkpt lat="47.21742" lon="6.54225">
        <ele>706.8</ele>
        <time>2020-05-22T14:08:08Z</time>
      </trkpt>
      <trkpt lat="47.21739" lon="6.54222">
        <ele>706.8</ele>
        <time>2020-05-22T14:08:09Z</time>
      </trkpt>
      <trkpt lat="47.21737" lon="6.5422">
        <ele>706.8</ele>
        <time>2020-05-22T14:08:10Z</time>
      </trkpt>
      <trkpt lat="47.21735" lon="6.54218">
        <ele>706.6</ele>
        <time>2020-05-22T14:08:11Z</time>
      </trkpt>
      <trkpt lat="47.21733" lon="6.54218">
        <ele>706.6</ele>
        <time>2020-05-22T14:08:12Z</time>
      </trkpt>
      <trkpt lat="47.21731" lon="6.5422">
        <ele>706.6</ele>
        <time>2020-05-22T14:08:13Z</time>
      </trkpt>
      <trkpt lat="47.21731" lon="6.54223">
        <ele>706.2</ele>
        <time>2020-05-22T14:08:14Z</time>
      </trkpt>
      <trkpt lat="47.21731" lon="6.54226">
        <ele>706.2</ele>
        <time>2020-05-22T14:08:15Z</time>
      </trkpt>
      <trkpt lat="47.21732" lon="6.54229">
        <ele>706.2</ele>
        <time>2020-05-22T14:08:16Z</time>
      </trkpt>
      <trkpt lat="47.21733" lon="6.54231">
        <ele>706.2</ele>
        <time>2020-05-22T14:08:17Z</time>
      </trkpt>
      <trkpt lat="47.21735" lon="6.54233">
        <ele>706.2</ele>
        <time>2020-05-22T14:08:18Z</time>
      </trkpt>
      <trkpt lat="47.21736" lon="6.54236">
        <ele>706.2</ele>
        <time>2020-05-22T14:08:19Z</time>
      </trkpt>
      <trkpt lat="47.21737" lon="6.54238">
        <ele>706.2</ele>
        <time>2020-05-22T14:08:20Z</time>
      </trkpt>
      <trkpt lat="47.21737" lon="6.5424">
        <ele>706.2</ele>
        <time>2020-05-22T14:08:21Z</time>
      </trkpt>
      <trkpt lat="47.21737" lon="6.54242">
        <ele>706</ele>
        <time>2020-05-22T14:08:22Z</time>
      </trkpt>
      <trkpt lat="47.21737" lon="6.54243">
        <ele>706</ele>
        <time>2020-05-22T14:08:23Z</time>
      </trkpt>
      <trkpt lat="47.21737" lon="6.54243">
        <ele>706</ele>
        <time>2020-05-22T14:08:24Z</time>
      </trkpt>
      <trkpt lat="47.21733" lon="6.54261">
        <ele>706.2</ele>
        <time>2020-05-22T14:09:10Z</time>
      </trkpt>
      <trkpt lat="47.21732" lon="6.54262">
        <ele>706.2</ele>
        <time>2020-05-22T14:09:11Z</time>
      </trkpt>
      <trkpt lat="47.21732" lon="6.54263">
        <ele>706.2</ele>
        <time>2020-05-22T14:09:12Z</time>
      </trkpt>
      <trkpt lat="47.21731" lon="6.54265">
        <ele>706.2</ele>
        <time>2020-05-22T14:09:13Z</time>
      </trkpt>
      <trkpt lat="47.21731" lon="6.54266">
        <ele>706.2</ele>
        <time>2020-05-22T14:09:14Z</time>
      </trkpt>
      <trkpt lat="47.21731" lon="6.54267">
        <ele>706.2</ele>
        <time>2020-05-22T14:09:15Z</time>
      </trkpt>
      <trkpt lat="47.21731" lon="6.54269">
        <ele>706.4</ele>
        <time>2020-05-22T14:09:16Z</time>
      </trkpt>
      <trkpt lat="47.21732" lon="6.54271">
        <ele>706.4</ele>
        <time>2020-05-22T14:09:17Z</time>
      </trkpt>
      <trkpt lat="47.21732" lon="6.54272">
        <ele>706.4</ele>
        <time>2020-05-22T14:09:18Z</time>
      </trkpt>
      <trkpt lat="47.21731" lon="6.54273">
        <ele>706.4</ele>
        <time>2020-05-22T14:09:19Z</time>
      </trkpt>
      <trkpt lat="47.21731" lon="6.54274">
        <ele>706.4</ele>
        <time>2020-05-22T14:09:20Z</time>
      </trkpt>
      <trkpt lat="47.21731" lon="6.54275">
        <ele>706.4</ele>
        <time>2020-05-22T14:09:21Z</time>
      </trkpt>
      <trkpt lat="47.2173" lon="6.54277">
        <ele>706.4</ele>
        <time>2020-05-22T14:09:22Z</time>
      </trkpt>
      <trkpt lat="47.21729" lon="6.54279">
        <ele>706.4</ele>
        <time>2020-05-22T14:09:23Z</time>
      </trkpt>
      <trkpt lat="47.21728" lon="6.5428">
        <ele>706.4</ele>
        <time>2020-05-22T14:09:24Z</time>
      </trkpt>
      <trkpt lat="47.21728" lon="6.54281">
        <ele>706.4</ele>
        <time>2020-05-22T14:09:25Z</time>
      </trkpt>
      <trkpt lat="47.21727" lon="6.54282">
        <ele>706.4</ele>
        <time>2020-05-22T14:09:26Z</time>
      </trkpt>
      <trkpt lat="47.21726" lon="6.54283">
        <ele>706.4</ele>
        <time>2020-05-22T14:09:27Z</time>
      </trkpt>
      <trkpt lat="47.21726" lon="6.54285">
        <ele>706.4</ele>
        <time>2020-05-22T14:09:28Z</time>
      </trkpt>
      <trkpt lat="47.21725" lon="6.54287">
        <ele>706.4</ele>
        <time>2020-05-22T14:09:29Z</time>
      </trkpt>
      <trkpt lat="47.21725" lon="6.54289">
        <ele>706.4</ele>
        <time>2020-05-22T14:09:30Z</time>
      </trkpt>
      <trkpt lat="47.21725" lon="6.5429">
        <ele>706.4</ele>
        <time>2020-05-22T14:09:31Z</time>
      </trkpt>
      <trkpt lat="47.21725" lon="6.54292">
        <ele>706.4</ele>
        <time>2020-05-22T14:09:32Z</time>
      </trkpt>
      <trkpt lat="47.21725" lon="6.54293">
        <ele>706.4</ele>
        <time>2020-05-22T14:09:33Z</time>
      </trkpt>
      <trkpt lat="47.21725" lon="6.54294">
        <ele>706.4</ele>
        <time>2020-05-22T14:09:34Z</time>
      </trkpt>
      <trkpt lat="47.21725" lon="6.54295">
        <ele>706.4</ele>
        <time>2020-05-22T14:09:35Z</time>
      </trkpt>
      <trkpt lat="47.21726" lon="6.54296">
        <ele>706.4</ele>
        <time>2020-05-22T14:09:36Z</time>
      </trkpt>
      <trkpt lat="47.21726" lon="6.54297">
        <ele>706.4</ele>
        <time>2020-05-22T14:09:37Z</time>
      </trkpt>
      <trkpt lat="47.21726" lon="6.54299">
        <ele>706.2</ele>
        <time>2020-05-22T14:09:38Z</time>
      </trkpt>
      <trkpt lat="47.21726" lon="6.54299">
        <ele>706.2</ele>
        <time>2020-05-22T14:09:39Z</time>
      </trkpt>
      <trkpt lat="47.21727" lon="6.54298">
        <ele>706.2</ele>
        <time>2020-05-22T14:09:40Z</time>
      </trkpt>
      <trkpt lat="47.21728" lon="6.54299">
        <ele>706.2</ele>
        <time>2020-05-22T14:09:41Z</time>
      </trkpt>
      <trkpt lat="47.21728" lon="6.543">
        <ele>706.2</ele>
        <time>2020-05-22T14:09:42Z</time>
      </trkpt>
      <trkpt lat="47.21727" lon="6.543">
        <ele>706.2</ele>
        <time>2020-05-22T14:09:43Z</time>
      </trkpt>
      <trkpt lat="47.21727" lon="6.54301">
        <ele>706.2</ele>
        <time>2020-05-22T14:09:44Z</time>
      </trkpt>
      <trkpt lat="47.21727" lon="6.54303">
        <ele>706.2</ele>
        <time>2020-05-22T14:09:45Z</time>
      </trkpt>
      <trkpt lat="47.21727" lon="6.54303">
        <ele>706.4</ele>
        <time>2020-05-22T14:09:46Z</time>
      </trkpt>
      <trkpt lat="47.21727" lon="6.54305">
        <ele>706.4</ele>
        <time>2020-05-22T14:09:47Z</time>
      </trkpt>
      <trkpt lat="47.21728" lon="6.54306">
        <ele>706.4</ele>
        <time>2020-05-22T14:09:48Z</time>
      </trkpt>
      <trkpt lat="47.21728" lon="6.54307">
        <ele>706.4</ele>
        <time>2020-05-22T14:09:49Z</time>
      </trkpt>
      <trkpt lat="47.21729" lon="6.54307">
        <ele>706.4</ele>
        <time>2020-05-22T14:09:50Z</time>
      </trkpt>
      <trkpt lat="47.21729" lon="6.54307">
        <ele>706.4</ele>
        <time>2020-05-22T14:09:51Z</time>
      </trkpt>
      <trkpt lat="47.21729" lon="6.54308">
        <ele>706.4</ele>
        <time>2020-05-22T14:09:52Z</time>
      </trkpt>
      <trkpt lat="47.21728" lon="6.54316">
        <ele>706.2</ele>
        <time>2020-05-22T14:09:56Z</time>
      </trkpt>
      <trkpt lat="47.21728" lon="6.54318">
        <ele>706.2</ele>
        <time>2020-05-22T14:09:57Z</time>
      </trkpt>
      <trkpt lat="47.21728" lon="6.54321">
        <ele>706.2</ele>
        <time>2020-05-22T14:09:58Z</time>
      </trkpt>
      <trkpt lat="47.21728" lon="6.54324">
        <ele>706.2</ele>
        <time>2020-05-22T14:09:59Z</time>
      </trkpt>
      <trkpt lat="47.21728" lon="6.54325">
        <ele>706.2</ele>
        <time>2020-05-22T14:10:00Z</time>
      </trkpt>
      <trkpt lat="47.21729" lon="6.54327">
        <ele>706</ele>
        <time>2020-05-22T14:10:01Z</time>
      </trkpt>
      <trkpt lat="47.21729" lon="6.54329">
        <ele>706</ele>
        <time>2020-05-22T14:10:02Z</time>
      </trkpt>
      <trkpt lat="47.21729" lon="6.54331">
        <ele>706</ele>
        <time>2020-05-22T14:10:03Z</time>
      </trkpt>
      <trkpt lat="47.2173" lon="6.54332">
        <ele>706</ele>
        <time>2020-05-22T14:10:04Z</time>
      </trkpt>
      <trkpt lat="47.21729" lon="6.54334">
        <ele>706</ele>
        <time>2020-05-22T14:10:05Z</time>
      </trkpt>
      <trkpt lat="47.21728" lon="6.54336">
        <ele>706.2</ele>
        <time>2020-05-22T14:10:06Z</time>
      </trkpt>
      <trkpt lat="47.21728" lon="6.54339">
        <ele>706.2</ele>
        <time>2020-05-22T14:10:07Z</time>
      </trkpt>
      <trkpt lat="47.21728" lon="6.54341">
        <ele>706.2</ele>
        <time>2020-05-22T14:10:08Z</time>
      </trkpt>
      <trkpt lat="47.21728" lon="6.54343">
        <ele>706.2</ele>
        <time>2020-05-22T14:10:09Z</time>
      </trkpt>
      <trkpt lat="47.21728" lon="6.54346">
        <ele>706.2</ele>
        <time>2020-05-22T14:10:10Z</time>
      </trkpt>
      <trkpt lat="47.21728" lon="6.54348">
        <ele>706.2</ele>
        <time>2020-05-22T14:10:11Z</time>
      </trkpt>
      <trkpt lat="47.21727" lon="6.5435">
        <ele>706.2</ele>
        <time>2020-05-22T14:10:12Z</time>
      </trkpt>
      <trkpt lat="47.21726" lon="6.5435">
        <ele>706.2</ele>
        <time>2020-05-22T14:10:13Z</time>
      </trkpt>
      <trkpt lat="47.21726" lon="6.54349">
        <ele>706.2</ele>
        <time>2020-05-22T14:10:14Z</time>
      </trkpt>
      <trkpt lat="47.21725" lon="6.54349">
        <ele>706.2</ele>
        <time>2020-05-22T14:10:15Z</time>
      </trkpt>
      <trkpt lat="47.21725" lon="6.54348">
        <ele>706.2</ele>
        <time>2020-05-22T14:10:16Z</time>
      </trkpt>
      <trkpt lat="47.21724" lon="6.54348">
        <ele>706.2</ele>
        <time>2020-05-22T14:10:17Z</time>
      </trkpt>
      <trkpt lat="47.21724" lon="6.54348">
        <ele>706.2</ele>
        <time>2020-05-22T14:10:18Z</time>
      </trkpt>
      <trkpt lat="47.21724" lon="6.54347">
        <ele>706.2</ele>
        <time>2020-05-22T14:10:19Z</time>
      </trkpt>
      <trkpt lat="47.21723" lon="6.54347">
        <ele>706.2</ele>
        <time>2020-05-22T14:10:20Z</time>
      </trkpt>
      <trkpt lat="47.21723" lon="6.54346">
        <ele>706.2</ele>
        <time>2020-05-22T14:10:21Z</time>
      </trkpt>
      <trkpt lat="47.21722" lon="6.54346">
        <ele>706.2</ele>
        <time>2020-05-22T14:10:22Z</time>
      </trkpt>
      <trkpt lat="47.21722" lon="6.54345">
        <ele>706.2</ele>
        <time>2020-05-22T14:10:23Z</time>
      </trkpt>
      <trkpt lat="47.21721" lon="6.54345">
        <ele>705.8</ele>
        <time>2020-05-22T14:10:24Z</time>
      </trkpt>
      <trkpt lat="47.21721" lon="6.54344">
        <ele>705.8</ele>
        <time>2020-05-22T14:10:25Z</time>
      </trkpt>
      <trkpt lat="47.21721" lon="6.54344">
        <ele>705.8</ele>
        <time>2020-05-22T14:10:26Z</time>
      </trkpt>
      <trkpt lat="47.2172" lon="6.54344">
        <ele>705.8</ele>
        <time>2020-05-22T14:10:27Z</time>
      </trkpt>
      <trkpt lat="47.2172" lon="6.54343">
        <ele>705.8</ele>
        <time>2020-05-22T14:10:28Z</time>
      </trkpt>
      <trkpt lat="47.21719" lon="6.54343">
        <ele>705.8</ele>
        <time>2020-05-22T14:10:29Z</time>
      </trkpt>
      <trkpt lat="47.21719" lon="6.54338">
        <ele>705.8</ele>
        <time>2020-05-22T14:10:30Z</time>
      </trkpt>
      <trkpt lat="47.2172" lon="6.54334">
        <ele>705.8</ele>
        <time>2020-05-22T14:10:31Z</time>
      </trkpt>
      <trkpt lat="47.21737" lon="6.54242">
        <ele>707.2</ele>
        <time>2020-05-22T14:19:38Z</time>
      </trkpt>
      <trkpt lat="47.21737" lon="6.54241">
        <ele>707.2</ele>
        <time>2020-05-22T14:19:39Z</time>
      </trkpt>
      <trkpt lat="47.21738" lon="6.54241">
        <ele>707.2</ele>
        <time>2020-05-22T14:19:40Z</time>
      </trkpt>
      <trkpt lat="47.21736" lon="6.54237">
        <ele>707.2</ele>
        <time>2020-05-22T14:19:49Z</time>
      </trkpt>
      <trkpt lat="47.21735" lon="6.54236">
        <ele>707.2</ele>
        <time>2020-05-22T14:19:50Z</time>
      </trkpt>
      <trkpt lat="47.21734" lon="6.54234">
        <ele>707.2</ele>
        <time>2020-05-22T14:19:51Z</time>
      </trkpt>
      <trkpt lat="47.21733" lon="6.54232">
        <ele>707.2</ele>
        <time>2020-05-22T14:19:52Z</time>
      </trkpt>
      <trkpt lat="47.21732" lon="6.5423">
        <ele>707.2</ele>
        <time>2020-05-22T14:19:53Z</time>
      </trkpt>
      <trkpt lat="47.21732" lon="6.54227">
        <ele>707.4</ele>
        <time>2020-05-22T14:19:54Z</time>
      </trkpt>
      <trkpt lat="47.21731" lon="6.54225">
        <ele>707.4</ele>
        <time>2020-05-22T14:19:55Z</time>
      </trkpt>
      <trkpt lat="47.2173" lon="6.54221">
        <ele>707.4</ele>
        <time>2020-05-22T14:19:56Z</time>
      </trkpt>
      <trkpt lat="47.2173" lon="6.54218">
        <ele>707.4</ele>
        <time>2020-05-22T14:19:57Z</time>
      </trkpt>
      <trkpt lat="47.2173" lon="6.54214">
        <ele>707.4</ele>
        <time>2020-05-22T14:19:58Z</time>
      </trkpt>
      <trkpt lat="47.2173" lon="6.54211">
        <ele>707.4</ele>
        <time>2020-05-22T14:19:59Z</time>
      </trkpt>
      <trkpt lat="47.21729" lon="6.54207">
        <ele>707.4</ele>
        <time>2020-05-22T14:20:00Z</time>
      </trkpt>
      <trkpt lat="47.21727" lon="6.54204">
        <ele>707.4</ele>
        <time>2020-05-22T14:20:01Z</time>
      </trkpt>
      <trkpt lat="47.21725" lon="6.54202">
        <ele>707.4</ele>
        <time>2020-05-22T14:20:02Z</time>
      </trkpt>
      <trkpt lat="47.21723" lon="6.542">
        <ele>707.4</ele>
        <time>2020-05-22T14:20:03Z</time>
      </trkpt>
      <trkpt lat="47.21721" lon="6.54197">
        <ele>707.4</ele>
        <time>2020-05-22T14:20:04Z</time>
      </trkpt>
      <trkpt lat="47.21719" lon="6.54195">
        <ele>707.4</ele>
        <time>2020-05-22T14:20:05Z</time>
      </trkpt>
      <trkpt lat="47.21716" lon="6.54192">
        <ele>707.4</ele>
        <time>2020-05-22T14:20:06Z</time>
      </trkpt>
      <trkpt lat="47.21714" lon="6.5419">
        <ele>707.4</ele>
        <time>2020-05-22T14:20:07Z</time>
      </trkpt>
      <trkpt lat="47.21712" lon="6.54187">
        <ele>707.2</ele>
        <time>2020-05-22T14:20:08Z</time>
      </trkpt>
      <trkpt lat="47.21709" lon="6.54185">
        <ele>707.2</ele>
        <time>2020-05-22T14:20:09Z</time>
      </trkpt>
      <trkpt lat="47.21707" lon="6.54182">
        <ele>707.2</ele>
        <time>2020-05-22T14:20:10Z</time>
      </trkpt>
      <trkpt lat="47.21704" lon="6.54179">
        <ele>707.2</ele>
        <time>2020-05-22T14:20:11Z</time>
      </trkpt>
      <trkpt lat="47.21702" lon="6.54176">
        <ele>707.2</ele>
        <time>2020-05-22T14:20:12Z</time>
      </trkpt>
      <trkpt lat="47.21699" lon="6.54173">
        <ele>707.2</ele>
        <time>2020-05-22T14:20:13Z</time>
      </trkpt>
      <trkpt lat="47.21696" lon="6.5417">
        <ele>707.2</ele>
        <time>2020-05-22T14:20:14Z</time>
      </trkpt>
      <trkpt lat="47.21693" lon="6.54166">
        <ele>707.2</ele>
        <time>2020-05-22T14:20:15Z</time>
      </trkpt>
      <trkpt lat="47.2169" lon="6.54163">
        <ele>707</ele>
        <time>2020-05-22T14:20:16Z</time>
      </trkpt>
      <trkpt lat="47.21687" lon="6.54159">
        <ele>707</ele>
        <time>2020-05-22T14:20:17Z</time>
      </trkpt>
      <trkpt lat="47.21684" lon="6.54155">
        <ele>707</ele>
        <time>2020-05-22T14:20:18Z</time>
      </trkpt>
      <trkpt lat="47.2168" lon="6.54152">
        <ele>706.8</ele>
        <time>2020-05-22T14:20:19Z</time>
      </trkpt>
      <trkpt lat="47.21677" lon="6.54148">
        <ele>706.8</ele>
        <time>2020-05-22T14:20:20Z</time>
      </trkpt>
      <trkpt lat="47.21673" lon="6.54144">
        <ele>706.8</ele>
        <time>2020-05-22T14:20:21Z</time>
      </trkpt>
      <trkpt lat="47.2167" lon="6.5414">
        <ele>706.6</ele>
        <time>2020-05-22T14:20:22Z</time>
      </trkpt>
      <trkpt lat="47.21666" lon="6.54137">
        <ele>706.6</ele>
        <time>2020-05-22T14:20:23Z</time>
      </trkpt>
      <trkpt lat="47.21662" lon="6.54133">
        <ele>706.2</ele>
        <time>2020-05-22T14:20:24Z</time>
      </trkpt>
      <trkpt lat="47.21658" lon="6.54129">
        <ele>706.2</ele>
        <time>2020-05-22T14:20:25Z</time>
      </trkpt>
      <trkpt lat="47.21655" lon="6.54125">
        <ele>706.2</ele>
        <time>2020-05-22T14:20:26Z</time>
      </trkpt>
      <trkpt lat="47.21651" lon="6.54121">
        <ele>706.2</ele>
        <time>2020-05-22T14:20:27Z</time>
      </trkpt>
      <trkpt lat="47.21647" lon="6.54117">
        <ele>706.2</ele>
        <time>2020-05-22T14:20:28Z</time>
      </trkpt>
      <trkpt lat="47.21643" lon="6.54112">
        <ele>706.2</ele>
        <time>2020-05-22T14:20:29Z</time>
      </trkpt>
      <trkpt lat="47.21639" lon="6.54108">
        <ele>706</ele>
        <time>2020-05-22T14:20:30Z</time>
      </trkpt>
      <trkpt lat="47.21635" lon="6.54104">
        <ele>706</ele>
        <time>2020-05-22T14:20:31Z</time>
      </trkpt>
      <trkpt lat="47.21631" lon="6.541">
        <ele>706</ele>
        <time>2020-05-22T14:20:32Z</time>
      </trkpt>
      <trkpt lat="47.21627" lon="6.54096">
        <ele>706</ele>
        <time>2020-05-22T14:20:33Z</time>
      </trkpt>
      <trkpt lat="47.21623" lon="6.54092">
        <ele>705.6</ele>
        <time>2020-05-22T14:20:34Z</time>
      </trkpt>
      <trkpt lat="47.21619" lon="6.54087">
        <ele>705.6</ele>
        <time>2020-05-22T14:20:35Z</time>
      </trkpt>
      <trkpt lat="47.21615" lon="6.54083">
        <ele>705.4</ele>
        <time>2020-05-22T14:20:36Z</time>
      </trkpt>
      <trkpt lat="47.21611" lon="6.54078">
        <ele>705.4</ele>
        <time>2020-05-22T14:20:37Z</time>
      </trkpt>
      <trkpt lat="47.21607" lon="6.54074">
        <ele>705.4</ele>
        <time>2020-05-22T14:20:38Z</time>
      </trkpt>
      <trkpt lat="47.21603" lon="6.54069">
        <ele>705.4</ele>
        <time>2020-05-22T14:20:39Z</time>
      </trkpt>
      <trkpt lat="47.21599" lon="6.54065">
        <ele>705.2</ele>
        <time>2020-05-22T14:20:40Z</time>
      </trkpt>
      <trkpt lat="47.21595" lon="6.5406">
        <ele>705.2</ele>
        <time>2020-05-22T14:20:41Z</time>
      </trkpt>
      <trkpt lat="47.21591" lon="6.54055">
        <ele>705.2</ele>
        <time>2020-05-22T14:20:42Z</time>
      </trkpt>
      <trkpt lat="47.21586" lon="6.5405">
        <ele>705.2</ele>
        <time>2020-05-22T14:20:43Z</time>
      </trkpt>
      <trkpt lat="47.21582" lon="6.54045">
        <ele>704.8</ele>
        <time>2020-05-22T14:20:44Z</time>
      </trkpt>
      <trkpt lat="47.21578" lon="6.5404">
        <ele>704.8</ele>
        <time>2020-05-22T14:20:45Z</time>
      </trkpt>
      <trkpt lat="47.21573" lon="6.54035">
        <ele>704.6</ele>
        <time>2020-05-22T14:20:46Z</time>
      </trkpt>
      <trkpt lat="47.21569" lon="6.5403">
        <ele>704.6</ele>
        <time>2020-05-22T14:20:47Z</time>
      </trkpt>
      <trkpt lat="47.21564" lon="6.54025">
        <ele>704.6</ele>
        <time>2020-05-22T14:20:48Z</time>
      </trkpt>
      <trkpt lat="47.2156" lon="6.5402">
        <ele>704.2</ele>
        <time>2020-05-22T14:20:49Z</time>
      </trkpt>
      <trkpt lat="47.21555" lon="6.54015">
        <ele>704</ele>
        <time>2020-05-22T14:20:50Z</time>
      </trkpt>
      <trkpt lat="47.21551" lon="6.54009">
        <ele>704</ele>
        <time>2020-05-22T14:20:51Z</time>
      </trkpt>
      <trkpt lat="47.21547" lon="6.54004">
        <ele>703.6</ele>
        <time>2020-05-22T14:20:52Z</time>
      </trkpt>
      <trkpt lat="47.21543" lon="6.53998">
        <ele>703.4</ele>
        <time>2020-05-22T14:20:53Z</time>
      </trkpt>
      <trkpt lat="47.21539" lon="6.53993">
        <ele>703.2</ele>
        <time>2020-05-22T14:20:54Z</time>
      </trkpt>
      <trkpt lat="47.21536" lon="6.53988">
        <ele>703.2</ele>
        <time>2020-05-22T14:20:55Z</time>
      </trkpt>
      <trkpt lat="47.21532" lon="6.53983">
        <ele>702.8</ele>
        <time>2020-05-22T14:20:56Z</time>
      </trkpt>
      <trkpt lat="47.21529" lon="6.53978">
        <ele>702.6</ele>
        <time>2020-05-22T14:20:57Z</time>
      </trkpt>
      <trkpt lat="47.21529" lon="6.53978">
        <ele>702.4</ele>
        <time>2020-05-22T14:20:58Z</time>
      </trkpt>
      <trkpt lat="47.21522" lon="6.53968">
        <ele>702.2</ele>
        <time>2020-05-22T14:20:59Z</time>
      </trkpt>
      <trkpt lat="47.21519" lon="6.53963">
        <ele>702.2</ele>
        <time>2020-05-22T14:21:00Z</time>
      </trkpt>
      <trkpt lat="47.21516" lon="6.53959">
        <ele>701.8</ele>
        <time>2020-05-22T14:21:01Z</time>
      </trkpt>
      <trkpt lat="47.21512" lon="6.53954">
        <ele>701.8</ele>
        <time>2020-05-22T14:21:02Z</time>
      </trkpt>
      <trkpt lat="47.21509" lon="6.53949">
        <ele>701.6</ele>
        <time>2020-05-22T14:21:03Z</time>
      </trkpt>
      <trkpt lat="47.21506" lon="6.53943">
        <ele>701.6</ele>
        <time>2020-05-22T14:21:04Z</time>
      </trkpt>
      <trkpt lat="47.21503" lon="6.53937">
        <ele>701.6</ele>
        <time>2020-05-22T14:21:05Z</time>
      </trkpt>
      <trkpt lat="47.215" lon="6.53931">
        <ele>701.4</ele>
        <time>2020-05-22T14:21:06Z</time>
      </trkpt>
      <trkpt lat="47.21496" lon="6.53925">
        <ele>701.4</ele>
        <time>2020-05-22T14:21:07Z</time>
      </trkpt>
      <trkpt lat="47.21493" lon="6.53918">
        <ele>701.4</ele>
        <time>2020-05-22T14:21:08Z</time>
      </trkpt>
      <trkpt lat="47.2149" lon="6.53912">
        <ele>701.4</ele>
        <time>2020-05-22T14:21:09Z</time>
      </trkpt>
      <trkpt lat="47.21487" lon="6.53906">
        <ele>701.4</ele>
        <time>2020-05-22T14:21:10Z</time>
      </trkpt>
      <trkpt lat="47.21484" lon="6.53901">
        <ele>701.4</ele>
        <time>2020-05-22T14:21:11Z</time>
      </trkpt>
      <trkpt lat="47.21481" lon="6.53896">
        <ele>701.4</ele>
        <time>2020-05-22T14:21:12Z</time>
      </trkpt>
      <trkpt lat="47.21479" lon="6.53891">
        <ele>701.4</ele>
        <time>2020-05-22T14:21:13Z</time>
      </trkpt>
      <trkpt lat="47.21476" lon="6.53887">
        <ele>701.4</ele>
        <time>2020-05-22T14:21:14Z</time>
      </trkpt>
      <trkpt lat="47.21474" lon="6.53883">
        <ele>701.4</ele>
        <time>2020-05-22T14:21:15Z</time>
      </trkpt>
      <trkpt lat="47.21472" lon="6.53879">
        <ele>701.4</ele>
        <time>2020-05-22T14:21:16Z</time>
      </trkpt>
      <trkpt lat="47.21471" lon="6.53875">
        <ele>701.6</ele>
        <time>2020-05-22T14:21:17Z</time>
      </trkpt>
      <trkpt lat="47.21469" lon="6.53872">
        <ele>701.6</ele>
        <time>2020-05-22T14:21:18Z</time>
      </trkpt>
      <trkpt lat="47.21467" lon="6.53869">
        <ele>702</ele>
        <time>2020-05-22T14:21:19Z</time>
      </trkpt>
      <trkpt lat="47.21466" lon="6.53866">
        <ele>702</ele>
        <time>2020-05-22T14:21:20Z</time>
      </trkpt>
      <trkpt lat="47.21464" lon="6.53863">
        <ele>702.2</ele>
        <time>2020-05-22T14:21:21Z</time>
      </trkpt>
      <trkpt lat="47.21462" lon="6.5386">
        <ele>702.2</ele>
        <time>2020-05-22T14:21:22Z</time>
      </trkpt>
      <trkpt lat="47.21461" lon="6.53857">
        <ele>702.4</ele>
        <time>2020-05-22T14:21:23Z</time>
      </trkpt>
      <trkpt lat="47.21459" lon="6.53854">
        <ele>702.4</ele>
        <time>2020-05-22T14:21:24Z</time>
      </trkpt>
      <trkpt lat="47.21458" lon="6.53851">
        <ele>702.6</ele>
        <time>2020-05-22T14:21:25Z</time>
      </trkpt>
      <trkpt lat="47.21456" lon="6.53848">
        <ele>702.8</ele>
        <time>2020-05-22T14:21:26Z</time>
      </trkpt>
      <trkpt lat="47.21454" lon="6.53844">
        <ele>702.8</ele>
        <time>2020-05-22T14:21:27Z</time>
      </trkpt>
      <trkpt lat="47.21453" lon="6.53841">
        <ele>703.2</ele>
        <time>2020-05-22T14:21:28Z</time>
      </trkpt>
      <trkpt lat="47.21451" lon="6.53837">
        <ele>703.2</ele>
        <time>2020-05-22T14:21:29Z</time>
      </trkpt>
      <trkpt lat="47.21449" lon="6.53834">
        <ele>703.4</ele>
        <time>2020-05-22T14:21:30Z</time>
      </trkpt>
      <trkpt lat="47.21447" lon="6.53831">
        <ele>703.4</ele>
        <time>2020-05-22T14:21:31Z</time>
      </trkpt>
      <trkpt lat="47.21446" lon="6.53828">
        <ele>703.8</ele>
        <time>2020-05-22T14:21:32Z</time>
      </trkpt>
      <trkpt lat="47.21444" lon="6.53825">
        <ele>704</ele>
        <time>2020-05-22T14:21:33Z</time>
      </trkpt>
      <trkpt lat="47.21443" lon="6.53822">
        <ele>704.2</ele>
        <time>2020-05-22T14:21:34Z</time>
      </trkpt>
      <trkpt lat="47.21442" lon="6.53819">
        <ele>704.2</ele>
        <time>2020-05-22T14:21:35Z</time>
      </trkpt>
      <trkpt lat="47.2144" lon="6.53817">
        <ele>704.6</ele>
        <time>2020-05-22T14:21:36Z</time>
      </trkpt>
      <trkpt lat="47.21439" lon="6.53814">
        <ele>704.6</ele>
        <time>2020-05-22T14:21:37Z</time>
      </trkpt>
      <trkpt lat="47.21437" lon="6.53811">
        <ele>704.8</ele>
        <time>2020-05-22T14:21:38Z</time>
      </trkpt>
      <trkpt lat="47.21436" lon="6.53808">
        <ele>704.8</ele>
        <time>2020-05-22T14:21:39Z</time>
      </trkpt>
      <trkpt lat="47.21435" lon="6.53805">
        <ele>705.2</ele>
        <time>2020-05-22T14:21:40Z</time>
      </trkpt>
      <trkpt lat="47.21433" lon="6.53803">
        <ele>705.2</ele>
        <time>2020-05-22T14:21:41Z</time>
      </trkpt>
      <trkpt lat="47.21431" lon="6.538">
        <ele>705.4</ele>
        <time>2020-05-22T14:21:42Z</time>
      </trkpt>
      <trkpt lat="47.2143" lon="6.53797">
        <ele>705.6</ele>
        <time>2020-05-22T14:21:43Z</time>
      </trkpt>
      <trkpt lat="47.21428" lon="6.53794">
        <ele>705.6</ele>
        <time>2020-05-22T14:21:44Z</time>
      </trkpt>
      <trkpt lat="47.21427" lon="6.53791">
        <ele>705.8</ele>
        <time>2020-05-22T14:21:45Z</time>
      </trkpt>
      <trkpt lat="47.21425" lon="6.53788">
        <ele>705.8</ele>
        <time>2020-05-22T14:21:46Z</time>
      </trkpt>
      <trkpt lat="47.21424" lon="6.53786">
        <ele>706.2</ele>
        <time>2020-05-22T14:21:47Z</time>
      </trkpt>
      <trkpt lat="47.21422" lon="6.53783">
        <ele>706.2</ele>
        <time>2020-05-22T14:21:48Z</time>
      </trkpt>
      <trkpt lat="47.21421" lon="6.5378">
        <ele>706.6</ele>
        <time>2020-05-22T14:21:49Z</time>
      </trkpt>
      <trkpt lat="47.21419" lon="6.53777">
        <ele>706.6</ele>
        <time>2020-05-22T14:21:50Z</time>
      </trkpt>
      <trkpt lat="47.21418" lon="6.53774">
        <ele>706.8</ele>
        <time>2020-05-22T14:21:51Z</time>
      </trkpt>
      <trkpt lat="47.21417" lon="6.53771">
        <ele>706.8</ele>
        <time>2020-05-22T14:21:52Z</time>
      </trkpt>
      <trkpt lat="47.21416" lon="6.53768">
        <ele>707</ele>
        <time>2020-05-22T14:21:53Z</time>
      </trkpt>
      <trkpt lat="47.21414" lon="6.53766">
        <ele>707</ele>
        <time>2020-05-22T14:21:54Z</time>
      </trkpt>
      <trkpt lat="47.21412" lon="6.53763">
        <ele>707</ele>
        <time>2020-05-22T14:21:55Z</time>
      </trkpt>
      <trkpt lat="47.21411" lon="6.5376">
        <ele>707.4</ele>
        <time>2020-05-22T14:21:56Z</time>
      </trkpt>
      <trkpt lat="47.21409" lon="6.53757">
        <ele>707.4</ele>
        <time>2020-05-22T14:21:57Z</time>
      </trkpt>
      <trkpt lat="47.21408" lon="6.53754">
        <ele>707.4</ele>
        <time>2020-05-22T14:21:58Z</time>
      </trkpt>
      <trkpt lat="47.21406" lon="6.5375">
        <ele>707.6</ele>
        <time>2020-05-22T14:21:59Z</time>
      </trkpt>
      <trkpt lat="47.21404" lon="6.53747">
        <ele>707.6</ele>
        <time>2020-05-22T14:22:00Z</time>
      </trkpt>
      <trkpt lat="47.21402" lon="6.53744">
        <ele>707.8</ele>
        <time>2020-05-22T14:22:01Z</time>
      </trkpt>
      <trkpt lat="47.21401" lon="6.53741">
        <ele>707.8</ele>
        <time>2020-05-22T14:22:02Z</time>
      </trkpt>
      <trkpt lat="47.21399" lon="6.53737">
        <ele>708</ele>
        <time>2020-05-22T14:22:03Z</time>
      </trkpt>
      <trkpt lat="47.21397" lon="6.53734">
        <ele>708</ele>
        <time>2020-05-22T14:22:04Z</time>
      </trkpt>
      <trkpt lat="47.21395" lon="6.53731">
        <ele>708</ele>
        <time>2020-05-22T14:22:05Z</time>
      </trkpt>
      <trkpt lat="47.21393" lon="6.53728">
        <ele>708.2</ele>
        <time>2020-05-22T14:22:06Z</time>
      </trkpt>
      <trkpt lat="47.21392" lon="6.53724">
        <ele>708.2</ele>
        <time>2020-05-22T14:22:07Z</time>
      </trkpt>
      <trkpt lat="47.21391" lon="6.53721">
        <ele>708.6</ele>
        <time>2020-05-22T14:22:08Z</time>
      </trkpt>
      <trkpt lat="47.21389" lon="6.53717">
        <ele>708.6</ele>
        <time>2020-05-22T14:22:09Z</time>
      </trkpt>
      <trkpt lat="47.21387" lon="6.53714">
        <ele>708.6</ele>
        <time>2020-05-22T14:22:10Z</time>
      </trkpt>
      <trkpt lat="47.21386" lon="6.53711">
        <ele>708.8</ele>
        <time>2020-05-22T14:22:11Z</time>
      </trkpt>
      <trkpt lat="47.21384" lon="6.53707">
        <ele>708.8</ele>
        <time>2020-05-22T14:22:12Z</time>
      </trkpt>
      <trkpt lat="47.21383" lon="6.53704">
        <ele>708.8</ele>
        <time>2020-05-22T14:22:13Z</time>
      </trkpt>
      <trkpt lat="47.21381" lon="6.53701">
        <ele>708.8</ele>
        <time>2020-05-22T14:22:14Z</time>
      </trkpt>
      <trkpt lat="47.2138" lon="6.53698">
        <ele>709</ele>
        <time>2020-05-22T14:22:15Z</time>
      </trkpt>
      <trkpt lat="47.21378" lon="6.53695">
        <ele>709</ele>
        <time>2020-05-22T14:22:16Z</time>
      </trkpt>
      <trkpt lat="47.21376" lon="6.53692">
        <ele>709.2</ele>
        <time>2020-05-22T14:22:17Z</time>
      </trkpt>
      <trkpt lat="47.21375" lon="6.53688">
        <ele>709.2</ele>
        <time>2020-05-22T14:22:18Z</time>
      </trkpt>
      <trkpt lat="47.21373" lon="6.53685">
        <ele>709.2</ele>
        <time>2020-05-22T14:22:19Z</time>
      </trkpt>
      <trkpt lat="47.21372" lon="6.53682">
        <ele>709.4</ele>
        <time>2020-05-22T14:22:20Z</time>
      </trkpt>
      <trkpt lat="47.2137" lon="6.53679">
        <ele>709.4</ele>
        <time>2020-05-22T14:22:21Z</time>
      </trkpt>
      <trkpt lat="47.21369" lon="6.53675">
        <ele>709.4</ele>
        <time>2020-05-22T14:22:22Z</time>
      </trkpt>
      <trkpt lat="47.21367" lon="6.53672">
        <ele>709.8</ele>
        <time>2020-05-22T14:22:23Z</time>
      </trkpt>
      <trkpt lat="47.21366" lon="6.53668">
        <ele>709.8</ele>
        <time>2020-05-22T14:22:24Z</time>
      </trkpt>
      <trkpt lat="47.21364" lon="6.53665">
        <ele>709.8</ele>
        <time>2020-05-22T14:22:25Z</time>
      </trkpt>
      <trkpt lat="47.21363" lon="6.53662">
        <ele>709.8</ele>
        <time>2020-05-22T14:22:26Z</time>
      </trkpt>
      <trkpt lat="47.21361" lon="6.53658">
        <ele>709.8</ele>
        <time>2020-05-22T14:22:27Z</time>
      </trkpt>
      <trkpt lat="47.2136" lon="6.53655">
        <ele>709.8</ele>
        <time>2020-05-22T14:22:28Z</time>
      </trkpt>
      <trkpt lat="47.21358" lon="6.53651">
        <ele>710.2</ele>
        <time>2020-05-22T14:22:29Z</time>
      </trkpt>
      <trkpt lat="47.21357" lon="6.53648">
        <ele>710.2</ele>
        <time>2020-05-22T14:22:30Z</time>
      </trkpt>
      <trkpt lat="47.21355" lon="6.53645">
        <ele>710.2</ele>
        <time>2020-05-22T14:22:31Z</time>
      </trkpt>
      <trkpt lat="47.21353" lon="6.53641">
        <ele>710.2</ele>
        <time>2020-05-22T14:22:32Z</time>
      </trkpt>
      <trkpt lat="47.21351" lon="6.53638">
        <ele>710.4</ele>
        <time>2020-05-22T14:22:33Z</time>
      </trkpt>
      <trkpt lat="47.21349" lon="6.53634">
        <ele>710.4</ele>
        <time>2020-05-22T14:22:34Z</time>
      </trkpt>
      <trkpt lat="47.21347" lon="6.5363">
        <ele>710.4</ele>
        <time>2020-05-22T14:22:35Z</time>
      </trkpt>
      <trkpt lat="47.21346" lon="6.53627">
        <ele>710.4</ele>
        <time>2020-05-22T14:22:36Z</time>
      </trkpt>
      <trkpt lat="47.21344" lon="6.53623">
        <ele>710.4</ele>
        <time>2020-05-22T14:22:37Z</time>
      </trkpt>
      <trkpt lat="47.21342" lon="6.53619">
        <ele>710.4</ele>
        <time>2020-05-22T14:22:38Z</time>
      </trkpt>
      <trkpt lat="47.2134" lon="6.53616">
        <ele>710.6</ele>
        <time>2020-05-22T14:22:39Z</time>
      </trkpt>
      <trkpt lat="47.21339" lon="6.53612">
        <ele>710.6</ele>
        <time>2020-05-22T14:22:40Z</time>
      </trkpt>
      <trkpt lat="47.21337" lon="6.53609">
        <ele>710.6</ele>
        <time>2020-05-22T14:22:41Z</time>
      </trkpt>
      <trkpt lat="47.21335" lon="6.53605">
        <ele>710.6</ele>
        <time>2020-05-22T14:22:42Z</time>
      </trkpt>
      <trkpt lat="47.21334" lon="6.53602">
        <ele>711</ele>
        <time>2020-05-22T14:22:43Z</time>
      </trkpt>
      <trkpt lat="47.21332" lon="6.53598">
        <ele>711</ele>
        <time>2020-05-22T14:22:44Z</time>
      </trkpt>
      <trkpt lat="47.2133" lon="6.53594">
        <ele>711</ele>
        <time>2020-05-22T14:22:45Z</time>
      </trkpt>
      <trkpt lat="47.21329" lon="6.5359">
        <ele>711.2</ele>
        <time>2020-05-22T14:22:46Z</time>
      </trkpt>
      <trkpt lat="47.21327" lon="6.53586">
        <ele>711.2</ele>
        <time>2020-05-22T14:22:47Z</time>
      </trkpt>
      <trkpt lat="47.21326" lon="6.53583">
        <ele>711.2</ele>
        <time>2020-05-22T14:22:48Z</time>
      </trkpt>
      <trkpt lat="47.21324" lon="6.5358">
        <ele>711.4</ele>
        <time>2020-05-22T14:22:49Z</time>
      </trkpt>
      <trkpt lat="47.21322" lon="6.53576">
        <ele>711.4</ele>
        <time>2020-05-22T14:22:50Z</time>
      </trkpt>
      <trkpt lat="47.21321" lon="6.53572">
        <ele>711.4</ele>
        <time>2020-05-22T14:22:51Z</time>
      </trkpt>
      <trkpt lat="47.21319" lon="6.53569">
        <ele>711.6</ele>
        <time>2020-05-22T14:22:52Z</time>
      </trkpt>
      <trkpt lat="47.21317" lon="6.53565">
        <ele>711.6</ele>
        <time>2020-05-22T14:22:53Z</time>
      </trkpt>
      <trkpt lat="47.21316" lon="6.53561">
        <ele>711.6</ele>
        <time>2020-05-22T14:22:54Z</time>
      </trkpt>
      <trkpt lat="47.21314" lon="6.53558">
        <ele>711.6</ele>
        <time>2020-05-22T14:22:55Z</time>
      </trkpt>
      <trkpt lat="47.21312" lon="6.53554">
        <ele>711.8</ele>
        <time>2020-05-22T14:22:56Z</time>
      </trkpt>
      <trkpt lat="47.21311" lon="6.53551">
        <ele>711.8</ele>
        <time>2020-05-22T14:22:57Z</time>
      </trkpt>
      <trkpt lat="47.21309" lon="6.53547">
        <ele>711.8</ele>
        <time>2020-05-22T14:22:58Z</time>
      </trkpt>
      <trkpt lat="47.21308" lon="6.53543">
        <ele>711.8</ele>
        <time>2020-05-22T14:22:59Z</time>
      </trkpt>
      <trkpt lat="47.21306" lon="6.5354">
        <ele>711.8</ele>
        <time>2020-05-22T14:23:00Z</time>
      </trkpt>
      <trkpt lat="47.21305" lon="6.53536">
        <ele>712</ele>
        <time>2020-05-22T14:23:01Z</time>
      </trkpt>
      <trkpt lat="47.21303" lon="6.53532">
        <ele>712</ele>
        <time>2020-05-22T14:23:02Z</time>
      </trkpt>
      <trkpt lat="47.21302" lon="6.53529">
        <ele>712</ele>
        <time>2020-05-22T14:23:03Z</time>
      </trkpt>
      <trkpt lat="47.21301" lon="6.53525">
        <ele>712.4</ele>
        <time>2020-05-22T14:23:04Z</time>
      </trkpt>
      <trkpt lat="47.21299" lon="6.53521">
        <ele>712.4</ele>
        <time>2020-05-22T14:23:05Z</time>
      </trkpt>
      <trkpt lat="47.21298" lon="6.53517">
        <ele>712.4</ele>
        <time>2020-05-22T14:23:06Z</time>
      </trkpt>
      <trkpt lat="47.21297" lon="6.53513">
        <ele>712.4</ele>
        <time>2020-05-22T14:23:07Z</time>
      </trkpt>
      <trkpt lat="47.21296" lon="6.53509">
        <ele>712.6</ele>
        <time>2020-05-22T14:23:08Z</time>
      </trkpt>
      <trkpt lat="47.21294" lon="6.53504">
        <ele>712.6</ele>
        <time>2020-05-22T14:23:09Z</time>
      </trkpt>
      <trkpt lat="47.21293" lon="6.535">
        <ele>712.6</ele>
        <time>2020-05-22T14:23:10Z</time>
      </trkpt>
      <trkpt lat="47.21292" lon="6.53495">
        <ele>712.6</ele>
        <time>2020-05-22T14:23:11Z</time>
      </trkpt>
      <trkpt lat="47.2129" lon="6.53491">
        <ele>712.6</ele>
        <time>2020-05-22T14:23:12Z</time>
      </trkpt>
      <trkpt lat="47.21289" lon="6.53487">
        <ele>712.8</ele>
        <time>2020-05-22T14:23:13Z</time>
      </trkpt>
      <trkpt lat="47.21288" lon="6.53483">
        <ele>712.8</ele>
        <time>2020-05-22T14:23:14Z</time>
      </trkpt>
      <trkpt lat="47.21287" lon="6.53478">
        <ele>712.8</ele>
        <time>2020-05-22T14:23:15Z</time>
      </trkpt>
      <trkpt lat="47.21286" lon="6.53474">
        <ele>712.8</ele>
        <time>2020-05-22T14:23:16Z</time>
      </trkpt>
      <trkpt lat="47.21285" lon="6.5347">
        <ele>713.2</ele>
        <time>2020-05-22T14:23:17Z</time>
      </trkpt>
      <trkpt lat="47.21284" lon="6.53466">
        <ele>713.2</ele>
        <time>2020-05-22T14:23:18Z</time>
      </trkpt>
      <trkpt lat="47.21283" lon="6.53463">
        <ele>713.2</ele>
        <time>2020-05-22T14:23:19Z</time>
      </trkpt>
      <trkpt lat="47.21281" lon="6.53459">
        <ele>713.2</ele>
        <time>2020-05-22T14:23:20Z</time>
      </trkpt>
      <trkpt lat="47.2128" lon="6.53455">
        <ele>713.6</ele>
        <time>2020-05-22T14:23:21Z</time>
      </trkpt>
      <trkpt lat="47.21279" lon="6.53451">
        <ele>713.6</ele>
        <time>2020-05-22T14:23:22Z</time>
      </trkpt>
      <trkpt lat="47.21278" lon="6.53448">
        <ele>713.6</ele>
        <time>2020-05-22T14:23:23Z</time>
      </trkpt>
      <trkpt lat="47.21277" lon="6.53444">
        <ele>713.8</ele>
        <time>2020-05-22T14:23:24Z</time>
      </trkpt>
      <trkpt lat="47.21277" lon="6.53444">
        <ele>713.8</ele>
        <time>2020-05-22T14:23:25Z</time>
      </trkpt>
      <trkpt lat="47.21273" lon="6.53437">
        <ele>713.8</ele>
        <time>2020-05-22T14:23:26Z</time>
      </trkpt>
      <trkpt lat="47.21272" lon="6.53433">
        <ele>713.8</ele>
        <time>2020-05-22T14:23:27Z</time>
      </trkpt>
      <trkpt lat="47.2127" lon="6.5343">
        <ele>713.8</ele>
        <time>2020-05-22T14:23:28Z</time>
      </trkpt>
      <trkpt lat="47.21268" lon="6.53426">
        <ele>713.8</ele>
        <time>2020-05-22T14:23:29Z</time>
      </trkpt>
      <trkpt lat="47.21266" lon="6.53422">
        <ele>714</ele>
        <time>2020-05-22T14:23:30Z</time>
      </trkpt>
      <trkpt lat="47.21264" lon="6.53419">
        <ele>714</ele>
        <time>2020-05-22T14:23:31Z</time>
      </trkpt>
      <trkpt lat="47.21263" lon="6.53415">
        <ele>714</ele>
        <time>2020-05-22T14:23:32Z</time>
      </trkpt>
      <trkpt lat="47.21261" lon="6.53411">
        <ele>714</ele>
        <time>2020-05-22T14:23:33Z</time>
      </trkpt>
      <trkpt lat="47.21259" lon="6.53408">
        <ele>714</ele>
        <time>2020-05-22T14:23:34Z</time>
      </trkpt>
      <trkpt lat="47.21257" lon="6.53404">
        <ele>714.2</ele>
        <time>2020-05-22T14:23:35Z</time>
      </trkpt>
      <trkpt lat="47.21256" lon="6.53401">
        <ele>714.2</ele>
        <time>2020-05-22T14:23:36Z</time>
      </trkpt>
      <trkpt lat="47.21254" lon="6.53398">
        <ele>714.2</ele>
        <time>2020-05-22T14:23:37Z</time>
      </trkpt>
      <trkpt lat="47.21252" lon="6.53395">
        <ele>714.2</ele>
        <time>2020-05-22T14:23:38Z</time>
      </trkpt>
      <trkpt lat="47.2125" lon="6.53392">
        <ele>714.6</ele>
        <time>2020-05-22T14:23:39Z</time>
      </trkpt>
      <trkpt lat="47.21248" lon="6.53389">
        <ele>714.6</ele>
        <time>2020-05-22T14:23:40Z</time>
      </trkpt>
      <trkpt lat="47.21246" lon="6.53386">
        <ele>714.6</ele>
        <time>2020-05-22T14:23:41Z</time>
      </trkpt>
      <trkpt lat="47.21243" lon="6.53384">
        <ele>714.6</ele>
        <time>2020-05-22T14:23:42Z</time>
      </trkpt>
      <trkpt lat="47.21241" lon="6.53381">
        <ele>714.6</ele>
        <time>2020-05-22T14:23:43Z</time>
      </trkpt>
      <trkpt lat="47.21239" lon="6.53378">
        <ele>714.6</ele>
        <time>2020-05-22T14:23:44Z</time>
      </trkpt>
      <trkpt lat="47.21237" lon="6.53376">
        <ele>714.6</ele>
        <time>2020-05-22T14:23:45Z</time>
      </trkpt>
      <trkpt lat="47.21235" lon="6.53373">
        <ele>714.6</ele>
        <time>2020-05-22T14:23:46Z</time>
      </trkpt>
      <trkpt lat="47.21232" lon="6.53371">
        <ele>714.6</ele>
        <time>2020-05-22T14:23:47Z</time>
      </trkpt>
      <trkpt lat="47.21231" lon="6.53369">
        <ele>714.6</ele>
        <time>2020-05-22T14:23:48Z</time>
      </trkpt>
      <trkpt lat="47.21229" lon="6.53367">
        <ele>714.6</ele>
        <time>2020-05-22T14:23:49Z</time>
      </trkpt>
      <trkpt lat="47.21228" lon="6.53365">
        <ele>714.6</ele>
        <time>2020-05-22T14:23:50Z</time>
      </trkpt>
      <trkpt lat="47.21227" lon="6.53365">
        <ele>714.6</ele>
        <time>2020-05-22T14:23:51Z</time>
      </trkpt>
      <trkpt lat="47.21227" lon="6.53364">
        <ele>714.6</ele>
        <time>2020-05-22T14:23:52Z</time>
      </trkpt>
      <trkpt lat="47.21223" lon="6.53362">
        <ele>714.8</ele>
        <time>2020-05-22T14:24:36Z</time>
      </trkpt>
      <trkpt lat="47.21221" lon="6.53361">
        <ele>715</ele>
        <time>2020-05-22T14:24:37Z</time>
      </trkpt>
      <trkpt lat="47.21219" lon="6.5336">
        <ele>715</ele>
        <time>2020-05-22T14:24:38Z</time>
      </trkpt>
      <trkpt lat="47.21217" lon="6.53358">
        <ele>715</ele>
        <time>2020-05-22T14:24:39Z</time>
      </trkpt>
      <trkpt lat="47.21214" lon="6.53355">
        <ele>715</ele>
        <time>2020-05-22T14:24:40Z</time>
      </trkpt>
      <trkpt lat="47.21211" lon="6.53353">
        <ele>715</ele>
        <time>2020-05-22T14:24:41Z</time>
      </trkpt>
      <trkpt lat="47.21208" lon="6.5335">
        <ele>715.2</ele>
        <time>2020-05-22T14:24:42Z</time>
      </trkpt>
      <trkpt lat="47.21205" lon="6.53347">
        <ele>715.2</ele>
        <time>2020-05-22T14:24:43Z</time>
      </trkpt>
      <trkpt lat="47.21202" lon="6.53345">
        <ele>715.2</ele>
        <time>2020-05-22T14:24:44Z</time>
      </trkpt>
      <trkpt lat="47.21199" lon="6.53342">
        <ele>715.2</ele>
        <time>2020-05-22T14:24:45Z</time>
      </trkpt>
      <trkpt lat="47.21195" lon="6.53339">
        <ele>715.2</ele>
        <time>2020-05-22T14:24:46Z</time>
      </trkpt>
      <trkpt lat="47.21192" lon="6.53337">
        <ele>715.2</ele>
        <time>2020-05-22T14:24:47Z</time>
      </trkpt>
      <trkpt lat="47.21189" lon="6.53334">
        <ele>715.2</ele>
        <time>2020-05-22T14:24:48Z</time>
      </trkpt>
      <trkpt lat="47.21185" lon="6.53331">
        <ele>715.2</ele>
        <time>2020-05-22T14:24:49Z</time>
      </trkpt>
      <trkpt lat="47.21182" lon="6.53328">
        <ele>715.2</ele>
        <time>2020-05-22T14:24:50Z</time>
      </trkpt>
      <trkpt lat="47.21178" lon="6.53325">
        <ele>715.2</ele>
        <time>2020-05-22T14:24:51Z</time>
      </trkpt>
      <trkpt lat="47.21175" lon="6.53322">
        <ele>715.2</ele>
        <time>2020-05-22T14:24:52Z</time>
      </trkpt>
      <trkpt lat="47.21171" lon="6.53319">
        <ele>715.2</ele>
        <time>2020-05-22T14:24:53Z</time>
      </trkpt>
      <trkpt lat="47.21168" lon="6.53316">
        <ele>715.2</ele>
        <time>2020-05-22T14:24:54Z</time>
      </trkpt>
      <trkpt lat="47.21164" lon="6.53313">
        <ele>715.2</ele>
        <time>2020-05-22T14:24:55Z</time>
      </trkpt>
      <trkpt lat="47.2116" lon="6.53309">
        <ele>715.2</ele>
        <time>2020-05-22T14:24:56Z</time>
      </trkpt>
      <trkpt lat="47.21156" lon="6.53306">
        <ele>715.2</ele>
        <time>2020-05-22T14:24:57Z</time>
      </trkpt>
      <trkpt lat="47.21152" lon="6.53303">
        <ele>715.2</ele>
        <time>2020-05-22T14:24:58Z</time>
      </trkpt>
      <trkpt lat="47.21148" lon="6.53299">
        <ele>715.2</ele>
        <time>2020-05-22T14:24:59Z</time>
      </trkpt>
      <trkpt lat="47.21144" lon="6.53296">
        <ele>714.8</ele>
        <time>2020-05-22T14:25:00Z</time>
      </trkpt>
      <trkpt lat="47.2114" lon="6.53292">
        <ele>714.8</ele>
        <time>2020-05-22T14:25:01Z</time>
      </trkpt>
      <trkpt lat="47.21136" lon="6.53289">
        <ele>714.8</ele>
        <time>2020-05-22T14:25:02Z</time>
      </trkpt>
      <trkpt lat="47.21132" lon="6.53285">
        <ele>714.6</ele>
        <time>2020-05-22T14:25:03Z</time>
      </trkpt>
      <trkpt lat="47.21128" lon="6.53282">
        <ele>714.6</ele>
        <time>2020-05-22T14:25:04Z</time>
      </trkpt>
      <trkpt lat="47.21124" lon="6.53278">
        <ele>714.6</ele>
        <time>2020-05-22T14:25:05Z</time>
      </trkpt>
      <trkpt lat="47.2112" lon="6.53274">
        <ele>714.6</ele>
        <time>2020-05-22T14:25:06Z</time>
      </trkpt>
      <trkpt lat="47.21115" lon="6.5327">
        <ele>714.4</ele>
        <time>2020-05-22T14:25:07Z</time>
      </trkpt>
      <trkpt lat="47.21111" lon="6.53267">
        <ele>714.4</ele>
        <time>2020-05-22T14:25:08Z</time>
      </trkpt>
      <trkpt lat="47.21107" lon="6.53263">
        <ele>714.4</ele>
        <time>2020-05-22T14:25:09Z</time>
      </trkpt>
      <trkpt lat="47.21102" lon="6.53259">
        <ele>714.4</ele>
        <time>2020-05-22T14:25:10Z</time>
      </trkpt>
      <trkpt lat="47.21098" lon="6.53255">
        <ele>714.4</ele>
        <time>2020-05-22T14:25:11Z</time>
      </trkpt>
      <trkpt lat="47.21093" lon="6.53251">
        <ele>714.4</ele>
        <time>2020-05-22T14:25:12Z</time>
      </trkpt>
      <trkpt lat="47.21089" lon="6.53248">
        <ele>714.4</ele>
        <time>2020-05-22T14:25:13Z</time>
      </trkpt>
      <trkpt lat="47.21084" lon="6.53244">
        <ele>714.4</ele>
        <time>2020-05-22T14:25:14Z</time>
      </trkpt>
      <trkpt lat="47.2108" lon="6.53239">
        <ele>714.4</ele>
        <time>2020-05-22T14:25:15Z</time>
      </trkpt>
      <trkpt lat="47.21075" lon="6.53235">
        <ele>714.2</ele>
        <time>2020-05-22T14:25:16Z</time>
      </trkpt>
      <trkpt lat="47.2107" lon="6.53231">
        <ele>714.2</ele>
        <time>2020-05-22T14:25:17Z</time>
      </trkpt>
      <trkpt lat="47.21066" lon="6.53227">
        <ele>713.8</ele>
        <time>2020-05-22T14:25:18Z</time>
      </trkpt>
      <trkpt lat="47.21061" lon="6.53223">
        <ele>713.8</ele>
        <time>2020-05-22T14:25:19Z</time>
      </trkpt>
      <trkpt lat="47.21056" lon="6.53219">
        <ele>713.8</ele>
        <time>2020-05-22T14:25:20Z</time>
      </trkpt>
      <trkpt lat="47.21052" lon="6.53215">
        <ele>713.8</ele>
        <time>2020-05-22T14:25:21Z</time>
      </trkpt>
      <trkpt lat="47.21047" lon="6.53211">
        <ele>713.8</ele>
        <time>2020-05-22T14:25:22Z</time>
      </trkpt>
      <trkpt lat="47.21043" lon="6.53207">
        <ele>713.8</ele>
        <time>2020-05-22T14:25:23Z</time>
      </trkpt>
      <trkpt lat="47.21039" lon="6.53203">
        <ele>713.8</ele>
        <time>2020-05-22T14:25:24Z</time>
      </trkpt>
      <trkpt lat="47.21034" lon="6.53198">
        <ele>713.8</ele>
        <time>2020-05-22T14:25:25Z</time>
      </trkpt>
      <trkpt lat="47.2103" lon="6.53194">
        <ele>713.6</ele>
        <time>2020-05-22T14:25:26Z</time>
      </trkpt>
      <trkpt lat="47.21025" lon="6.5319">
        <ele>713.6</ele>
        <time>2020-05-22T14:25:27Z</time>
      </trkpt>
      <trkpt lat="47.21021" lon="6.53185">
        <ele>713.4</ele>
        <time>2020-05-22T14:25:28Z</time>
      </trkpt>
      <trkpt lat="47.21016" lon="6.53181">
        <ele>713.4</ele>
        <time>2020-05-22T14:25:29Z</time>
      </trkpt>
      <trkpt lat="47.21012" lon="6.53177">
        <ele>713.4</ele>
        <time>2020-05-22T14:25:30Z</time>
      </trkpt>
      <trkpt lat="47.21007" lon="6.53172">
        <ele>713.2</ele>
        <time>2020-05-22T14:25:31Z</time>
      </trkpt>
      <trkpt lat="47.21003" lon="6.53168">
        <ele>713.2</ele>
        <time>2020-05-22T14:25:32Z</time>
      </trkpt>
      <trkpt lat="47.20998" lon="6.53163">
        <ele>713.2</ele>
        <time>2020-05-22T14:25:33Z</time>
      </trkpt>
      <trkpt lat="47.20994" lon="6.53159">
        <ele>713.2</ele>
        <time>2020-05-22T14:25:34Z</time>
      </trkpt>
      <trkpt lat="47.20989" lon="6.53154">
        <ele>713.2</ele>
        <time>2020-05-22T14:25:35Z</time>
      </trkpt>
      <trkpt lat="47.20984" lon="6.53149">
        <ele>713</ele>
        <time>2020-05-22T14:25:36Z</time>
      </trkpt>
      <trkpt lat="47.2098" lon="6.53145">
        <ele>713</ele>
        <time>2020-05-22T14:25:37Z</time>
      </trkpt>
      <trkpt lat="47.20975" lon="6.5314">
        <ele>713</ele>
        <time>2020-05-22T14:25:38Z</time>
      </trkpt>
      <trkpt lat="47.2097" lon="6.53136">
        <ele>713</ele>
        <time>2020-05-22T14:25:39Z</time>
      </trkpt>
      <trkpt lat="47.20966" lon="6.53131">
        <ele>713</ele>
        <time>2020-05-22T14:25:40Z</time>
      </trkpt>
      <trkpt lat="47.20961" lon="6.53126">
        <ele>713</ele>
        <time>2020-05-22T14:25:41Z</time>
      </trkpt>
      <trkpt lat="47.20957" lon="6.53122">
        <ele>712.6</ele>
        <time>2020-05-22T14:25:42Z</time>
      </trkpt>
      <trkpt lat="47.20952" lon="6.53118">
        <ele>712.6</ele>
        <time>2020-05-22T14:25:43Z</time>
      </trkpt>
      <trkpt lat="47.20948" lon="6.53113">
        <ele>712.4</ele>
        <time>2020-05-22T14:25:44Z</time>
      </trkpt>
      <trkpt lat="47.20943" lon="6.53108">
        <ele>712.4</ele>
        <time>2020-05-22T14:25:45Z</time>
      </trkpt>
      <trkpt lat="47.20939" lon="6.53103">
        <ele>712.2</ele>
        <time>2020-05-22T14:25:46Z</time>
      </trkpt>
      <trkpt lat="47.20934" lon="6.53097">
        <ele>712</ele>
        <time>2020-05-22T14:25:47Z</time>
      </trkpt>
      <trkpt lat="47.2093" lon="6.53091">
        <ele>712</ele>
        <time>2020-05-22T14:25:48Z</time>
      </trkpt>
      <trkpt lat="47.20926" lon="6.53085">
        <ele>711.6</ele>
        <time>2020-05-22T14:25:49Z</time>
      </trkpt>
      <trkpt lat="47.20921" lon="6.53079">
        <ele>711.6</ele>
        <time>2020-05-22T14:25:50Z</time>
      </trkpt>
      <trkpt lat="47.20916" lon="6.53073">
        <ele>711.2</ele>
        <time>2020-05-22T14:25:51Z</time>
      </trkpt>
      <trkpt lat="47.20911" lon="6.53067">
        <ele>711.2</ele>
        <time>2020-05-22T14:25:52Z</time>
      </trkpt>
      <trkpt lat="47.20907" lon="6.53061">
        <ele>711</ele>
        <time>2020-05-22T14:25:53Z</time>
      </trkpt>
      <trkpt lat="47.20902" lon="6.53054">
        <ele>711</ele>
        <time>2020-05-22T14:25:54Z</time>
      </trkpt>
      <trkpt lat="47.20897" lon="6.53048">
        <ele>710.8</ele>
        <time>2020-05-22T14:25:55Z</time>
      </trkpt>
      <trkpt lat="47.20892" lon="6.53041">
        <ele>710.8</ele>
        <time>2020-05-22T14:25:56Z</time>
      </trkpt>
      <trkpt lat="47.20887" lon="6.53035">
        <ele>710.4</ele>
        <time>2020-05-22T14:25:57Z</time>
      </trkpt>
      <trkpt lat="47.20881" lon="6.53028">
        <ele>710.4</ele>
        <time>2020-05-22T14:25:58Z</time>
      </trkpt>
      <trkpt lat="47.20876" lon="6.53022">
        <ele>710.2</ele>
        <time>2020-05-22T14:25:59Z</time>
      </trkpt>
      <trkpt lat="47.20871" lon="6.53015">
        <ele>710</ele>
        <time>2020-05-22T14:26:00Z</time>
      </trkpt>
      <trkpt lat="47.20866" lon="6.53009">
        <ele>710</ele>
        <time>2020-05-22T14:26:01Z</time>
      </trkpt>
      <trkpt lat="47.20861" lon="6.53002">
        <ele>709.8</ele>
        <time>2020-05-22T14:26:02Z</time>
      </trkpt>
      <trkpt lat="47.20855" lon="6.52996">
        <ele>709.4</ele>
        <time>2020-05-22T14:26:03Z</time>
      </trkpt>
      <trkpt lat="47.2085" lon="6.52989">
        <ele>709.2</ele>
        <time>2020-05-22T14:26:04Z</time>
      </trkpt>
      <trkpt lat="47.20845" lon="6.52982">
        <ele>709.2</ele>
        <time>2020-05-22T14:26:05Z</time>
      </trkpt>
      <trkpt lat="47.2084" lon="6.52975">
        <ele>708.8</ele>
        <time>2020-05-22T14:26:06Z</time>
      </trkpt>
      <trkpt lat="47.20835" lon="6.52968">
        <ele>708.4</ele>
        <time>2020-05-22T14:26:07Z</time>
      </trkpt>
      <trkpt lat="47.2083" lon="6.52961">
        <ele>708.2</ele>
        <time>2020-05-22T14:26:08Z</time>
      </trkpt>
      <trkpt lat="47.20825" lon="6.52953">
        <ele>708</ele>
        <time>2020-05-22T14:26:09Z</time>
      </trkpt>
      <trkpt lat="47.2082" lon="6.52946">
        <ele>708</ele>
        <time>2020-05-22T14:26:10Z</time>
      </trkpt>
      <trkpt lat="47.20815" lon="6.52938">
        <ele>707.6</ele>
        <time>2020-05-22T14:26:11Z</time>
      </trkpt>
      <trkpt lat="47.20811" lon="6.5293">
        <ele>707.4</ele>
        <time>2020-05-22T14:26:12Z</time>
      </trkpt>
      <trkpt lat="47.20806" lon="6.52922">
        <ele>707.2</ele>
        <time>2020-05-22T14:26:13Z</time>
      </trkpt>
      <trkpt lat="47.20802" lon="6.52914">
        <ele>707.2</ele>
        <time>2020-05-22T14:26:14Z</time>
      </trkpt>
      <trkpt lat="47.20797" lon="6.52906">
        <ele>707</ele>
        <time>2020-05-22T14:26:15Z</time>
      </trkpt>
      <trkpt lat="47.20793" lon="6.52897">
        <ele>707</ele>
        <time>2020-05-22T14:26:16Z</time>
      </trkpt>
      <trkpt lat="47.20789" lon="6.52889">
        <ele>706.6</ele>
        <time>2020-05-22T14:26:17Z</time>
      </trkpt>
      <trkpt lat="47.20785" lon="6.5288">
        <ele>706.6</ele>
        <time>2020-05-22T14:26:18Z</time>
      </trkpt>
      <trkpt lat="47.20782" lon="6.52871">
        <ele>706.4</ele>
        <time>2020-05-22T14:26:19Z</time>
      </trkpt>
      <trkpt lat="47.20778" lon="6.52862">
        <ele>706.2</ele>
        <time>2020-05-22T14:26:20Z</time>
      </trkpt>
      <trkpt lat="47.20775" lon="6.52854">
        <ele>706.2</ele>
        <time>2020-05-22T14:26:21Z</time>
      </trkpt>
      <trkpt lat="47.20771" lon="6.52845">
        <ele>706.2</ele>
        <time>2020-05-22T14:26:22Z</time>
      </trkpt>
      <trkpt lat="47.20767" lon="6.52836">
        <ele>706.2</ele>
        <time>2020-05-22T14:26:23Z</time>
      </trkpt>
      <trkpt lat="47.20764" lon="6.52828">
        <ele>706</ele>
        <time>2020-05-22T14:26:24Z</time>
      </trkpt>
      <trkpt lat="47.2076" lon="6.5282">
        <ele>706</ele>
        <time>2020-05-22T14:26:25Z</time>
      </trkpt>
      <trkpt lat="47.20756" lon="6.52812">
        <ele>706</ele>
        <time>2020-05-22T14:26:26Z</time>
      </trkpt>
      <trkpt lat="47.20752" lon="6.52805">
        <ele>706</ele>
        <time>2020-05-22T14:26:27Z</time>
      </trkpt>
      <trkpt lat="47.20748" lon="6.52797">
        <ele>705.8</ele>
        <time>2020-05-22T14:26:28Z</time>
      </trkpt>
      <trkpt lat="47.20744" lon="6.5279">
        <ele>705.6</ele>
        <time>2020-05-22T14:26:29Z</time>
      </trkpt>
      <trkpt lat="47.2074" lon="6.52783">
        <ele>705.2</ele>
        <time>2020-05-22T14:26:30Z</time>
      </trkpt>
      <trkpt lat="47.20736" lon="6.52776">
        <ele>705.2</ele>
        <time>2020-05-22T14:26:31Z</time>
      </trkpt>
      <trkpt lat="47.20731" lon="6.5277">
        <ele>705</ele>
        <time>2020-05-22T14:26:32Z</time>
      </trkpt>
      <trkpt lat="47.20727" lon="6.52763">
        <ele>704.6</ele>
        <time>2020-05-22T14:26:33Z</time>
      </trkpt>
      <trkpt lat="47.20722" lon="6.52757">
        <ele>704.4</ele>
        <time>2020-05-22T14:26:34Z</time>
      </trkpt>
      <trkpt lat="47.20717" lon="6.5275">
        <ele>704.4</ele>
        <time>2020-05-22T14:26:35Z</time>
      </trkpt>
      <trkpt lat="47.20713" lon="6.52744">
        <ele>704.2</ele>
        <time>2020-05-22T14:26:36Z</time>
      </trkpt>
      <trkpt lat="47.20708" lon="6.52738">
        <ele>704.2</ele>
        <time>2020-05-22T14:26:37Z</time>
      </trkpt>
      <trkpt lat="47.20703" lon="6.52732">
        <ele>704</ele>
        <time>2020-05-22T14:26:38Z</time>
      </trkpt>
      <trkpt lat="47.20698" lon="6.52726">
        <ele>704</ele>
        <time>2020-05-22T14:26:39Z</time>
      </trkpt>
      <trkpt lat="47.20693" lon="6.5272">
        <ele>703.6</ele>
        <time>2020-05-22T14:26:40Z</time>
      </trkpt>
      <trkpt lat="47.20688" lon="6.52714">
        <ele>703.6</ele>
        <time>2020-05-22T14:26:41Z</time>
      </trkpt>
      <trkpt lat="47.20683" lon="6.52708">
        <ele>703.6</ele>
        <time>2020-05-22T14:26:42Z</time>
      </trkpt>
      <trkpt lat="47.20678" lon="6.52702">
        <ele>703.6</ele>
        <time>2020-05-22T14:26:43Z</time>
      </trkpt>
      <trkpt lat="47.20673" lon="6.52697">
        <ele>703.6</ele>
        <time>2020-05-22T14:26:44Z</time>
      </trkpt>
      <trkpt lat="47.20668" lon="6.52691">
        <ele>703.4</ele>
        <time>2020-05-22T14:26:45Z</time>
      </trkpt>
      <trkpt lat="47.20664" lon="6.52685">
        <ele>703.4</ele>
        <time>2020-05-22T14:26:46Z</time>
      </trkpt>
      <trkpt lat="47.20659" lon="6.5268">
        <ele>703</ele>
        <time>2020-05-22T14:26:47Z</time>
      </trkpt>
      <trkpt lat="47.20654" lon="6.52674">
        <ele>702.8</ele>
        <time>2020-05-22T14:26:48Z</time>
      </trkpt>
      <trkpt lat="47.20649" lon="6.52668">
        <ele>702.8</ele>
        <time>2020-05-22T14:26:49Z</time>
      </trkpt>
      <trkpt lat="47.20644" lon="6.52662">
        <ele>702.8</ele>
        <time>2020-05-22T14:26:50Z</time>
      </trkpt>
      <trkpt lat="47.20639" lon="6.52656">
        <ele>702.4</ele>
        <time>2020-05-22T14:26:51Z</time>
      </trkpt>
      <trkpt lat="47.20635" lon="6.5265">
        <ele>702.4</ele>
        <time>2020-05-22T14:26:52Z</time>
      </trkpt>
      <trkpt lat="47.2063" lon="6.52645">
        <ele>702.4</ele>
        <time>2020-05-22T14:26:53Z</time>
      </trkpt>
      <trkpt lat="47.20625" lon="6.52639">
        <ele>702.4</ele>
        <time>2020-05-22T14:26:54Z</time>
      </trkpt>
      <trkpt lat="47.2062" lon="6.52633">
        <ele>702.4</ele>
        <time>2020-05-22T14:26:55Z</time>
      </trkpt>
      <trkpt lat="47.20615" lon="6.52628">
        <ele>702.4</ele>
        <time>2020-05-22T14:26:56Z</time>
      </trkpt>
      <trkpt lat="47.2061" lon="6.52622">
        <ele>702.2</ele>
        <time>2020-05-22T14:26:57Z</time>
      </trkpt>
      <trkpt lat="47.20605" lon="6.52616">
        <ele>702.2</ele>
        <time>2020-05-22T14:26:58Z</time>
      </trkpt>
      <trkpt lat="47.206" lon="6.5261">
        <ele>702.2</ele>
        <time>2020-05-22T14:26:59Z</time>
      </trkpt>
      <trkpt lat="47.20596" lon="6.52604">
        <ele>702.2</ele>
        <time>2020-05-22T14:27:00Z</time>
      </trkpt>
      <trkpt lat="47.20591" lon="6.52599">
        <ele>702.2</ele>
        <time>2020-05-22T14:27:01Z</time>
      </trkpt>
      <trkpt lat="47.20586" lon="6.52593">
        <ele>702.2</ele>
        <time>2020-05-22T14:27:02Z</time>
      </trkpt>
      <trkpt lat="47.20581" lon="6.52588">
        <ele>701.8</ele>
        <time>2020-05-22T14:27:03Z</time>
      </trkpt>
      <trkpt lat="47.20577" lon="6.52582">
        <ele>701.8</ele>
        <time>2020-05-22T14:27:04Z</time>
      </trkpt>
      <trkpt lat="47.20572" lon="6.52576">
        <ele>701.8</ele>
        <time>2020-05-22T14:27:05Z</time>
      </trkpt>
      <trkpt lat="47.20567" lon="6.5257">
        <ele>701.8</ele>
        <time>2020-05-22T14:27:06Z</time>
      </trkpt>
      <trkpt lat="47.20563" lon="6.52565">
        <ele>701.8</ele>
        <time>2020-05-22T14:27:07Z</time>
      </trkpt>
      <trkpt lat="47.20558" lon="6.5256">
        <ele>701.6</ele>
        <time>2020-05-22T14:27:08Z</time>
      </trkpt>
      <trkpt lat="47.20554" lon="6.52554">
        <ele>701.6</ele>
        <time>2020-05-22T14:27:09Z</time>
      </trkpt>
      <trkpt lat="47.20549" lon="6.52549">
        <ele>701.6</ele>
        <time>2020-05-22T14:27:10Z</time>
      </trkpt>
      <trkpt lat="47.20545" lon="6.52544">
        <ele>701.6</ele>
        <time>2020-05-22T14:27:11Z</time>
      </trkpt>
      <trkpt lat="47.2054" lon="6.52539">
        <ele>701.6</ele>
        <time>2020-05-22T14:27:12Z</time>
      </trkpt>
      <trkpt lat="47.20536" lon="6.52534">
        <ele>701.6</ele>
        <time>2020-05-22T14:27:13Z</time>
      </trkpt>
      <trkpt lat="47.20532" lon="6.52529">
        <ele>701.6</ele>
        <time>2020-05-22T14:27:14Z</time>
      </trkpt>
      <trkpt lat="47.20528" lon="6.52524">
        <ele>701.6</ele>
        <time>2020-05-22T14:27:15Z</time>
      </trkpt>
      <trkpt lat="47.20524" lon="6.52519">
        <ele>701.6</ele>
        <time>2020-05-22T14:27:16Z</time>
      </trkpt>
      <trkpt lat="47.20519" lon="6.52515">
        <ele>701.6</ele>
        <time>2020-05-22T14:27:17Z</time>
      </trkpt>
      <trkpt lat="47.20516" lon="6.5251">
        <ele>701.6</ele>
        <time>2020-05-22T14:27:18Z</time>
      </trkpt>
      <trkpt lat="47.20512" lon="6.52506">
        <ele>701.6</ele>
        <time>2020-05-22T14:27:19Z</time>
      </trkpt>
      <trkpt lat="47.20508" lon="6.52501">
        <ele>701.6</ele>
        <time>2020-05-22T14:27:20Z</time>
      </trkpt>
      <trkpt lat="47.20503" lon="6.52497">
        <ele>701.6</ele>
        <time>2020-05-22T14:27:21Z</time>
      </trkpt>
      <trkpt lat="47.20499" lon="6.52493">
        <ele>701.6</ele>
        <time>2020-05-22T14:27:22Z</time>
      </trkpt>
      <trkpt lat="47.20495" lon="6.52489">
        <ele>701.6</ele>
        <time>2020-05-22T14:27:23Z</time>
      </trkpt>
      <trkpt lat="47.20491" lon="6.52485">
        <ele>701.6</ele>
        <time>2020-05-22T14:27:24Z</time>
      </trkpt>
      <trkpt lat="47.20488" lon="6.52481">
        <ele>701.6</ele>
        <time>2020-05-22T14:27:25Z</time>
      </trkpt>
      <trkpt lat="47.20484" lon="6.52477">
        <ele>701.6</ele>
        <time>2020-05-22T14:27:26Z</time>
      </trkpt>
      <trkpt lat="47.2048" lon="6.52473">
        <ele>701.8</ele>
        <time>2020-05-22T14:27:27Z</time>
      </trkpt>
      <trkpt lat="47.20476" lon="6.5247">
        <ele>701.8</ele>
        <time>2020-05-22T14:27:28Z</time>
      </trkpt>
      <trkpt lat="47.20472" lon="6.52466">
        <ele>701.8</ele>
        <time>2020-05-22T14:27:29Z</time>
      </trkpt>
      <trkpt lat="47.20468" lon="6.52462">
        <ele>702</ele>
        <time>2020-05-22T14:27:30Z</time>
      </trkpt>
      <trkpt lat="47.20463" lon="6.52459">
        <ele>702</ele>
        <time>2020-05-22T14:27:31Z</time>
      </trkpt>
      <trkpt lat="47.20459" lon="6.52455">
        <ele>702</ele>
        <time>2020-05-22T14:27:32Z</time>
      </trkpt>
      <trkpt lat="47.20455" lon="6.52451">
        <ele>702</ele>
        <time>2020-05-22T14:27:33Z</time>
      </trkpt>
      <trkpt lat="47.20451" lon="6.52448">
        <ele>702.4</ele>
        <time>2020-05-22T14:27:34Z</time>
      </trkpt>
      <trkpt lat="47.20448" lon="6.52445">
        <ele>702.4</ele>
        <time>2020-05-22T14:27:35Z</time>
      </trkpt>
      <trkpt lat="47.20444" lon="6.52441">
        <ele>702.4</ele>
        <time>2020-05-22T14:27:36Z</time>
      </trkpt>
      <trkpt lat="47.2044" lon="6.52438">
        <ele>702.4</ele>
        <time>2020-05-22T14:27:37Z</time>
      </trkpt>
      <trkpt lat="47.20436" lon="6.52435">
        <ele>702.4</ele>
        <time>2020-05-22T14:27:38Z</time>
      </trkpt>
      <trkpt lat="47.20432" lon="6.52432">
        <ele>702.4</ele>
        <time>2020-05-22T14:27:39Z</time>
      </trkpt>
      <trkpt lat="47.20429" lon="6.52429">
        <ele>702.6</ele>
        <time>2020-05-22T14:27:40Z</time>
      </trkpt>
      <trkpt lat="47.20425" lon="6.52426">
        <ele>702.6</ele>
        <time>2020-05-22T14:27:41Z</time>
      </trkpt>
      <trkpt lat="47.20421" lon="6.52423">
        <ele>702.6</ele>
        <time>2020-05-22T14:27:42Z</time>
      </trkpt>
      <trkpt lat="47.20417" lon="6.5242">
        <ele>702.6</ele>
        <time>2020-05-22T14:27:43Z</time>
      </trkpt>
      <trkpt lat="47.20413" lon="6.52417">
        <ele>702.6</ele>
        <time>2020-05-22T14:27:44Z</time>
      </trkpt>
      <trkpt lat="47.2041" lon="6.52414">
        <ele>702.6</ele>
        <time>2020-05-22T14:27:45Z</time>
      </trkpt>
      <trkpt lat="47.20406" lon="6.52411">
        <ele>702.8</ele>
        <time>2020-05-22T14:27:46Z</time>
      </trkpt>
      <trkpt lat="47.20402" lon="6.52408">
        <ele>702.8</ele>
        <time>2020-05-22T14:27:47Z</time>
      </trkpt>
      <trkpt lat="47.20398" lon="6.52405">
        <ele>702.8</ele>
        <time>2020-05-22T14:27:48Z</time>
      </trkpt>
      <trkpt lat="47.20395" lon="6.52402">
        <ele>702.8</ele>
        <time>2020-05-22T14:27:49Z</time>
      </trkpt>
      <trkpt lat="47.20391" lon="6.52399">
        <ele>702.8</ele>
        <time>2020-05-22T14:27:50Z</time>
      </trkpt>
      <trkpt lat="47.20387" lon="6.52396">
        <ele>702.8</ele>
        <time>2020-05-22T14:27:51Z</time>
      </trkpt>
      <trkpt lat="47.20384" lon="6.52393">
        <ele>703</ele>
        <time>2020-05-22T14:27:52Z</time>
      </trkpt>
      <trkpt lat="47.2038" lon="6.5239">
        <ele>703</ele>
        <time>2020-05-22T14:27:53Z</time>
      </trkpt>
      <trkpt lat="47.20376" lon="6.52387">
        <ele>703</ele>
        <time>2020-05-22T14:27:54Z</time>
      </trkpt>
      <trkpt lat="47.20373" lon="6.52384">
        <ele>703.2</ele>
        <time>2020-05-22T14:27:55Z</time>
      </trkpt>
      <trkpt lat="47.20369" lon="6.52381">
        <ele>703.2</ele>
        <time>2020-05-22T14:27:56Z</time>
      </trkpt>
      <trkpt lat="47.20366" lon="6.52378">
        <ele>703.2</ele>
        <time>2020-05-22T14:27:57Z</time>
      </trkpt>
      <trkpt lat="47.20362" lon="6.52376">
        <ele>703.2</ele>
        <time>2020-05-22T14:27:58Z</time>
      </trkpt>
      <trkpt lat="47.20359" lon="6.52373">
        <ele>703.2</ele>
        <time>2020-05-22T14:27:59Z</time>
      </trkpt>
      <trkpt lat="47.20356" lon="6.5237">
        <ele>703.4</ele>
        <time>2020-05-22T14:28:00Z</time>
      </trkpt>
      <trkpt lat="47.20353" lon="6.52368">
        <ele>703.4</ele>
        <time>2020-05-22T14:28:01Z</time>
      </trkpt>
      <trkpt lat="47.2035" lon="6.52365">
        <ele>703.4</ele>
        <time>2020-05-22T14:28:02Z</time>
      </trkpt>
      <trkpt lat="47.20347" lon="6.52363">
        <ele>703.4</ele>
        <time>2020-05-22T14:28:03Z</time>
      </trkpt>
      <trkpt lat="47.20344" lon="6.5236">
        <ele>703.6</ele>
        <time>2020-05-22T14:28:04Z</time>
      </trkpt>
      <trkpt lat="47.20341" lon="6.52358">
        <ele>703.8</ele>
        <time>2020-05-22T14:28:05Z</time>
      </trkpt>
      <trkpt lat="47.20338" lon="6.52356">
        <ele>703.8</ele>
        <time>2020-05-22T14:28:06Z</time>
      </trkpt>
      <trkpt lat="47.20335" lon="6.52353">
        <ele>704.2</ele>
        <time>2020-05-22T14:28:07Z</time>
      </trkpt>
      <trkpt lat="47.20332" lon="6.52351">
        <ele>704.2</ele>
        <time>2020-05-22T14:28:08Z</time>
      </trkpt>
      <trkpt lat="47.20329" lon="6.52349">
        <ele>704.2</ele>
        <time>2020-05-22T14:28:09Z</time>
      </trkpt>
      <trkpt lat="47.20326" lon="6.52347">
        <ele>704.4</ele>
        <time>2020-05-22T14:28:10Z</time>
      </trkpt>
      <trkpt lat="47.20323" lon="6.52344">
        <ele>704.4</ele>
        <time>2020-05-22T14:28:11Z</time>
      </trkpt>
      <trkpt lat="47.2032" lon="6.52342">
        <ele>704.4</ele>
        <time>2020-05-22T14:28:12Z</time>
      </trkpt>
      <trkpt lat="47.20317" lon="6.52339">
        <ele>704.6</ele>
        <time>2020-05-22T14:28:13Z</time>
      </trkpt>
      <trkpt lat="47.20314" lon="6.52337">
        <ele>704.6</ele>
        <time>2020-05-22T14:28:14Z</time>
      </trkpt>
      <trkpt lat="47.20312" lon="6.52335">
        <ele>704.8</ele>
        <time>2020-05-22T14:28:15Z</time>
      </trkpt>
      <trkpt lat="47.20309" lon="6.52332">
        <ele>704.8</ele>
        <time>2020-05-22T14:28:16Z</time>
      </trkpt>
      <trkpt lat="47.20306" lon="6.5233">
        <ele>704.8</ele>
        <time>2020-05-22T14:28:17Z</time>
      </trkpt>
      <trkpt lat="47.20303" lon="6.52327">
        <ele>704.8</ele>
        <time>2020-05-22T14:28:18Z</time>
      </trkpt>
      <trkpt lat="47.203" lon="6.52325">
        <ele>704.8</ele>
        <time>2020-05-22T14:28:19Z</time>
      </trkpt>
      <trkpt lat="47.20297" lon="6.52323">
        <ele>705.2</ele>
        <time>2020-05-22T14:28:20Z</time>
      </trkpt>
      <trkpt lat="47.20294" lon="6.5232">
        <ele>705.2</ele>
        <time>2020-05-22T14:28:21Z</time>
      </trkpt>
      <trkpt lat="47.20291" lon="6.52318">
        <ele>705.4</ele>
        <time>2020-05-22T14:28:22Z</time>
      </trkpt>
      <trkpt lat="47.20289" lon="6.52315">
        <ele>705.4</ele>
        <time>2020-05-22T14:28:23Z</time>
      </trkpt>
      <trkpt lat="47.20286" lon="6.52313">
        <ele>705.8</ele>
        <time>2020-05-22T14:28:24Z</time>
      </trkpt>
      <trkpt lat="47.20283" lon="6.52311">
        <ele>705.8</ele>
        <time>2020-05-22T14:28:25Z</time>
      </trkpt>
      <trkpt lat="47.2028" lon="6.52308">
        <ele>705.8</ele>
        <time>2020-05-22T14:28:26Z</time>
      </trkpt>
      <trkpt lat="47.20278" lon="6.52306">
        <ele>706.2</ele>
        <time>2020-05-22T14:28:27Z</time>
      </trkpt>
      <trkpt lat="47.20275" lon="6.52304">
        <ele>706.2</ele>
        <time>2020-05-22T14:28:28Z</time>
      </trkpt>
      <trkpt lat="47.20272" lon="6.52302">
        <ele>706.4</ele>
        <time>2020-05-22T14:28:29Z</time>
      </trkpt>
      <trkpt lat="47.2027" lon="6.52299">
        <ele>706.4</ele>
        <time>2020-05-22T14:28:30Z</time>
      </trkpt>
      <trkpt lat="47.20267" lon="6.52297">
        <ele>706.4</ele>
        <time>2020-05-22T14:28:31Z</time>
      </trkpt>
      <trkpt lat="47.20265" lon="6.52295">
        <ele>706.8</ele>
        <time>2020-05-22T14:28:32Z</time>
      </trkpt>
      <trkpt lat="47.20262" lon="6.52293">
        <ele>706.8</ele>
        <time>2020-05-22T14:28:33Z</time>
      </trkpt>
      <trkpt lat="47.2026" lon="6.5229">
        <ele>707</ele>
        <time>2020-05-22T14:28:34Z</time>
      </trkpt>
      <trkpt lat="47.20257" lon="6.52288">
        <ele>707</ele>
        <time>2020-05-22T14:28:35Z</time>
      </trkpt>
      <trkpt lat="47.20255" lon="6.52286">
        <ele>707.2</ele>
        <time>2020-05-22T14:28:36Z</time>
      </trkpt>
      <trkpt lat="47.20252" lon="6.52283">
        <ele>707.2</ele>
        <time>2020-05-22T14:28:37Z</time>
      </trkpt>
      <trkpt lat="47.20249" lon="6.52281">
        <ele>707.4</ele>
        <time>2020-05-22T14:28:38Z</time>
      </trkpt>
      <trkpt lat="47.20247" lon="6.52278">
        <ele>707.4</ele>
        <time>2020-05-22T14:28:39Z</time>
      </trkpt>
      <trkpt lat="47.20244" lon="6.52276">
        <ele>707.4</ele>
        <time>2020-05-22T14:28:40Z</time>
      </trkpt>
      <trkpt lat="47.20242" lon="6.52273">
        <ele>707.6</ele>
        <time>2020-05-22T14:28:41Z</time>
      </trkpt>
      <trkpt lat="47.20239" lon="6.52271">
        <ele>707.6</ele>
        <time>2020-05-22T14:28:42Z</time>
      </trkpt>
      <trkpt lat="47.20237" lon="6.52268">
        <ele>708</ele>
        <time>2020-05-22T14:28:43Z</time>
      </trkpt>
      <trkpt lat="47.20234" lon="6.52266">
        <ele>708</ele>
        <time>2020-05-22T14:28:44Z</time>
      </trkpt>
      <trkpt lat="47.20232" lon="6.52263">
        <ele>708.2</ele>
        <time>2020-05-22T14:28:45Z</time>
      </trkpt>
      <trkpt lat="47.20229" lon="6.5226">
        <ele>708.4</ele>
        <time>2020-05-22T14:28:46Z</time>
      </trkpt>
      <trkpt lat="47.20227" lon="6.52257">
        <ele>708.4</ele>
        <time>2020-05-22T14:28:47Z</time>
      </trkpt>
      <trkpt lat="47.20224" lon="6.52255">
        <ele>708.6</ele>
        <time>2020-05-22T14:28:48Z</time>
      </trkpt>
      <trkpt lat="47.20221" lon="6.52252">
        <ele>708.6</ele>
        <time>2020-05-22T14:28:49Z</time>
      </trkpt>
      <trkpt lat="47.20219" lon="6.52249">
        <ele>709</ele>
        <time>2020-05-22T14:28:50Z</time>
      </trkpt>
      <trkpt lat="47.20216" lon="6.52246">
        <ele>709</ele>
        <time>2020-05-22T14:28:51Z</time>
      </trkpt>
      <trkpt lat="47.20214" lon="6.52244">
        <ele>709.4</ele>
        <time>2020-05-22T14:28:52Z</time>
      </trkpt>
      <trkpt lat="47.20211" lon="6.52241">
        <ele>709.6</ele>
        <time>2020-05-22T14:28:53Z</time>
      </trkpt>
      <trkpt lat="47.20209" lon="6.52238">
        <ele>709.6</ele>
        <time>2020-05-22T14:28:54Z</time>
      </trkpt>
      <trkpt lat="47.20206" lon="6.52235">
        <ele>710</ele>
        <time>2020-05-22T14:28:55Z</time>
      </trkpt>
      <trkpt lat="47.20204" lon="6.52233">
        <ele>710</ele>
        <time>2020-05-22T14:28:56Z</time>
      </trkpt>
      <trkpt lat="47.20201" lon="6.5223">
        <ele>710.2</ele>
        <time>2020-05-22T14:28:57Z</time>
      </trkpt>
      <trkpt lat="47.20199" lon="6.52227">
        <ele>710.4</ele>
        <time>2020-05-22T14:28:58Z</time>
      </trkpt>
      <trkpt lat="47.20197" lon="6.52224">
        <ele>710.8</ele>
        <time>2020-05-22T14:28:59Z</time>
      </trkpt>
      <trkpt lat="47.20194" lon="6.52222">
        <ele>710.8</ele>
        <time>2020-05-22T14:29:00Z</time>
      </trkpt>
      <trkpt lat="47.20192" lon="6.52219">
        <ele>711</ele>
        <time>2020-05-22T14:29:01Z</time>
      </trkpt>
      <trkpt lat="47.2019" lon="6.52216">
        <ele>711</ele>
        <time>2020-05-22T14:29:02Z</time>
      </trkpt>
      <trkpt lat="47.20188" lon="6.52214">
        <ele>711.2</ele>
        <time>2020-05-22T14:29:03Z</time>
      </trkpt>
      <trkpt lat="47.20185" lon="6.52211">
        <ele>711.2</ele>
        <time>2020-05-22T14:29:04Z</time>
      </trkpt>
      <trkpt lat="47.20183" lon="6.52208">
        <ele>711.6</ele>
        <time>2020-05-22T14:29:05Z</time>
      </trkpt>
      <trkpt lat="47.20181" lon="6.52205">
        <ele>711.6</ele>
        <time>2020-05-22T14:29:06Z</time>
      </trkpt>
      <trkpt lat="47.20179" lon="6.52202">
        <ele>712</ele>
        <time>2020-05-22T14:29:07Z</time>
      </trkpt>
      <trkpt lat="47.20176" lon="6.522">
        <ele>712.2</ele>
        <time>2020-05-22T14:29:08Z</time>
      </trkpt>
      <trkpt lat="47.20174" lon="6.52197">
        <ele>712.2</ele>
        <time>2020-05-22T14:29:09Z</time>
      </trkpt>
      <trkpt lat="47.20172" lon="6.52195">
        <ele>712.6</ele>
        <time>2020-05-22T14:29:10Z</time>
      </trkpt>
      <trkpt lat="47.2017" lon="6.52192">
        <ele>712.6</ele>
        <time>2020-05-22T14:29:11Z</time>
      </trkpt>
      <trkpt lat="47.20168" lon="6.5219">
        <ele>713</ele>
        <time>2020-05-22T14:29:12Z</time>
      </trkpt>
      <trkpt lat="47.20166" lon="6.52187">
        <ele>713.2</ele>
        <time>2020-05-22T14:29:13Z</time>
      </trkpt>
      <trkpt lat="47.20164" lon="6.52185">
        <ele>713.2</ele>
        <time>2020-05-22T14:29:14Z</time>
      </trkpt>
      <trkpt lat="47.20162" lon="6.52183">
        <ele>713.4</ele>
        <time>2020-05-22T14:29:15Z</time>
      </trkpt>
      <trkpt lat="47.20161" lon="6.52181">
        <ele>713.4</ele>
        <time>2020-05-22T14:29:16Z</time>
      </trkpt>
      <trkpt lat="47.20159" lon="6.52179">
        <ele>713.8</ele>
        <time>2020-05-22T14:29:17Z</time>
      </trkpt>
      <trkpt lat="47.20158" lon="6.52177">
        <ele>713.8</ele>
        <time>2020-05-22T14:29:18Z</time>
      </trkpt>
      <trkpt lat="47.20156" lon="6.52175">
        <ele>714</ele>
        <time>2020-05-22T14:29:19Z</time>
      </trkpt>
      <trkpt lat="47.20155" lon="6.52173">
        <ele>714</ele>
        <time>2020-05-22T14:29:20Z</time>
      </trkpt>
      <trkpt lat="47.20153" lon="6.52171">
        <ele>714</ele>
        <time>2020-05-22T14:29:21Z</time>
      </trkpt>
      <trkpt lat="47.20152" lon="6.52169">
        <ele>714.2</ele>
        <time>2020-05-22T14:29:22Z</time>
      </trkpt>
      <trkpt lat="47.2015" lon="6.52167">
        <ele>714.2</ele>
        <time>2020-05-22T14:29:23Z</time>
      </trkpt>
      <trkpt lat="47.20149" lon="6.52165">
        <ele>714.6</ele>
        <time>2020-05-22T14:29:24Z</time>
      </trkpt>
      <trkpt lat="47.20147" lon="6.52163">
        <ele>714.6</ele>
        <time>2020-05-22T14:29:25Z</time>
      </trkpt>
      <trkpt lat="47.20146" lon="6.52161">
        <ele>714.6</ele>
        <time>2020-05-22T14:29:26Z</time>
      </trkpt>
      <trkpt lat="47.20144" lon="6.52159">
        <ele>714.8</ele>
        <time>2020-05-22T14:29:27Z</time>
      </trkpt>
      <trkpt lat="47.20143" lon="6.52157">
        <ele>714.8</ele>
        <time>2020-05-22T14:29:28Z</time>
      </trkpt>
      <trkpt lat="47.20141" lon="6.52155">
        <ele>715</ele>
        <time>2020-05-22T14:29:29Z</time>
      </trkpt>
      <trkpt lat="47.20139" lon="6.52153">
        <ele>715</ele>
        <time>2020-05-22T14:29:30Z</time>
      </trkpt>
      <trkpt lat="47.20138" lon="6.5215">
        <ele>715</ele>
        <time>2020-05-22T14:29:31Z</time>
      </trkpt>
      <trkpt lat="47.20136" lon="6.52148">
        <ele>715.4</ele>
        <time>2020-05-22T14:29:32Z</time>
      </trkpt>
      <trkpt lat="47.20135" lon="6.52146">
        <ele>715.4</ele>
        <time>2020-05-22T14:29:33Z</time>
      </trkpt>
      <trkpt lat="47.20133" lon="6.52145">
        <ele>715.6</ele>
        <time>2020-05-22T14:29:34Z</time>
      </trkpt>
      <trkpt lat="47.20132" lon="6.52142">
        <ele>715.6</ele>
        <time>2020-05-22T14:29:35Z</time>
      </trkpt>
      <trkpt lat="47.2013" lon="6.5214">
        <ele>715.6</ele>
        <time>2020-05-22T14:29:36Z</time>
      </trkpt>
      <trkpt lat="47.20129" lon="6.52138">
        <ele>715.8</ele>
        <time>2020-05-22T14:29:37Z</time>
      </trkpt>
      <trkpt lat="47.20127" lon="6.52136">
        <ele>715.8</ele>
        <time>2020-05-22T14:29:38Z</time>
      </trkpt>
      <trkpt lat="47.20126" lon="6.52134">
        <ele>716</ele>
        <time>2020-05-22T14:29:39Z</time>
      </trkpt>
      <trkpt lat="47.20124" lon="6.52132">
        <ele>716.4</ele>
        <time>2020-05-22T14:29:40Z</time>
      </trkpt>
      <trkpt lat="47.20123" lon="6.5213">
        <ele>716.4</ele>
        <time>2020-05-22T14:29:41Z</time>
      </trkpt>
      <trkpt lat="47.20121" lon="6.52128">
        <ele>716.6</ele>
        <time>2020-05-22T14:29:42Z</time>
      </trkpt>
      <trkpt lat="47.20119" lon="6.52126">
        <ele>716.6</ele>
        <time>2020-05-22T14:29:43Z</time>
      </trkpt>
      <trkpt lat="47.20118" lon="6.52124">
        <ele>716.6</ele>
        <time>2020-05-22T14:29:44Z</time>
      </trkpt>
      <trkpt lat="47.20116" lon="6.52122">
        <ele>716.8</ele>
        <time>2020-05-22T14:29:45Z</time>
      </trkpt>
      <trkpt lat="47.20115" lon="6.5212">
        <ele>716.8</ele>
        <time>2020-05-22T14:29:46Z</time>
      </trkpt>
      <trkpt lat="47.20113" lon="6.52117">
        <ele>716.8</ele>
        <time>2020-05-22T14:29:47Z</time>
      </trkpt>
      <trkpt lat="47.20112" lon="6.52115">
        <ele>717.2</ele>
        <time>2020-05-22T14:29:48Z</time>
      </trkpt>
      <trkpt lat="47.2011" lon="6.52113">
        <ele>717.2</ele>
        <time>2020-05-22T14:29:49Z</time>
      </trkpt>
      <trkpt lat="47.20108" lon="6.52111">
        <ele>717.2</ele>
        <time>2020-05-22T14:29:50Z</time>
      </trkpt>
      <trkpt lat="47.20106" lon="6.52109">
        <ele>717.6</ele>
        <time>2020-05-22T14:29:51Z</time>
      </trkpt>
      <trkpt lat="47.20105" lon="6.52107">
        <ele>717.6</ele>
        <time>2020-05-22T14:29:52Z</time>
      </trkpt>
      <trkpt lat="47.20103" lon="6.52104">
        <ele>717.8</ele>
        <time>2020-05-22T14:29:53Z</time>
      </trkpt>
      <trkpt lat="47.20102" lon="6.52102">
        <ele>717.8</ele>
        <time>2020-05-22T14:29:54Z</time>
      </trkpt>
      <trkpt lat="47.201" lon="6.521">
        <ele>718.2</ele>
        <time>2020-05-22T14:29:55Z</time>
      </trkpt>
      <trkpt lat="47.20099" lon="6.52098">
        <ele>718.2</ele>
        <time>2020-05-22T14:29:56Z</time>
      </trkpt>
      <trkpt lat="47.20097" lon="6.52096">
        <ele>718.4</ele>
        <time>2020-05-22T14:29:57Z</time>
      </trkpt>
      <trkpt lat="47.20095" lon="6.52094">
        <ele>718.4</ele>
        <time>2020-05-22T14:29:58Z</time>
      </trkpt>
      <trkpt lat="47.20094" lon="6.52092">
        <ele>718.6</ele>
        <time>2020-05-22T14:29:59Z</time>
      </trkpt>
      <trkpt lat="47.20092" lon="6.5209">
        <ele>718.8</ele>
        <time>2020-05-22T14:30:00Z</time>
      </trkpt>
      <trkpt lat="47.20091" lon="6.52087">
        <ele>718.8</ele>
        <time>2020-05-22T14:30:01Z</time>
      </trkpt>
      <trkpt lat="47.2009" lon="6.52085">
        <ele>718.8</ele>
        <time>2020-05-22T14:30:02Z</time>
      </trkpt>
      <trkpt lat="47.20088" lon="6.52083">
        <ele>719.2</ele>
        <time>2020-05-22T14:30:03Z</time>
      </trkpt>
      <trkpt lat="47.20087" lon="6.52081">
        <ele>719.2</ele>
        <time>2020-05-22T14:30:04Z</time>
      </trkpt>
      <trkpt lat="47.20085" lon="6.52079">
        <ele>719.4</ele>
        <time>2020-05-22T14:30:05Z</time>
      </trkpt>
      <trkpt lat="47.20083" lon="6.52077">
        <ele>719.4</ele>
        <time>2020-05-22T14:30:06Z</time>
      </trkpt>
      <trkpt lat="47.20082" lon="6.52075">
        <ele>719.4</ele>
        <time>2020-05-22T14:30:07Z</time>
      </trkpt>
      <trkpt lat="47.2008" lon="6.52073">
        <ele>719.8</ele>
        <time>2020-05-22T14:30:08Z</time>
      </trkpt>
      <trkpt lat="47.20079" lon="6.52072">
        <ele>719.8</ele>
        <time>2020-05-22T14:30:09Z</time>
      </trkpt>
      <trkpt lat="47.20077" lon="6.52069">
        <ele>719.8</ele>
        <time>2020-05-22T14:30:10Z</time>
      </trkpt>
      <trkpt lat="47.20076" lon="6.52067">
        <ele>720.2</ele>
        <time>2020-05-22T14:30:11Z</time>
      </trkpt>
      <trkpt lat="47.20074" lon="6.52065">
        <ele>720.2</ele>
        <time>2020-05-22T14:30:12Z</time>
      </trkpt>
      <trkpt lat="47.20072" lon="6.52062">
        <ele>720.4</ele>
        <time>2020-05-22T14:30:13Z</time>
      </trkpt>
      <trkpt lat="47.20071" lon="6.5206">
        <ele>720.4</ele>
        <time>2020-05-22T14:30:14Z</time>
      </trkpt>
      <trkpt lat="47.20069" lon="6.52057">
        <ele>720.4</ele>
        <time>2020-05-22T14:30:15Z</time>
      </trkpt>
      <trkpt lat="47.20068" lon="6.52055">
        <ele>720.8</ele>
        <time>2020-05-22T14:30:16Z</time>
      </trkpt>
      <trkpt lat="47.20066" lon="6.52053">
        <ele>720.8</ele>
        <time>2020-05-22T14:30:17Z</time>
      </trkpt>
      <trkpt lat="47.20064" lon="6.5205">
        <ele>720.8</ele>
        <time>2020-05-22T14:30:18Z</time>
      </trkpt>
      <trkpt lat="47.20062" lon="6.52048">
        <ele>721</ele>
        <time>2020-05-22T14:30:19Z</time>
      </trkpt>
      <trkpt lat="47.20061" lon="6.52046">
        <ele>721</ele>
        <time>2020-05-22T14:30:20Z</time>
      </trkpt>
      <trkpt lat="47.20059" lon="6.52044">
        <ele>721.2</ele>
        <time>2020-05-22T14:30:21Z</time>
      </trkpt>
      <trkpt lat="47.20057" lon="6.52041">
        <ele>721.2</ele>
        <time>2020-05-22T14:30:22Z</time>
      </trkpt>
      <trkpt lat="47.20056" lon="6.52039">
        <ele>721.2</ele>
        <time>2020-05-22T14:30:23Z</time>
      </trkpt>
      <trkpt lat="47.20054" lon="6.52037">
        <ele>721.6</ele>
        <time>2020-05-22T14:30:24Z</time>
      </trkpt>
      <trkpt lat="47.20053" lon="6.52034">
        <ele>721.6</ele>
        <time>2020-05-22T14:30:25Z</time>
      </trkpt>
      <trkpt lat="47.20051" lon="6.52032">
        <ele>721.6</ele>
        <time>2020-05-22T14:30:26Z</time>
      </trkpt>
      <trkpt lat="47.20049" lon="6.5203">
        <ele>721.8</ele>
        <time>2020-05-22T14:30:27Z</time>
      </trkpt>
      <trkpt lat="47.20048" lon="6.52028">
        <ele>721.8</ele>
        <time>2020-05-22T14:30:28Z</time>
      </trkpt>
      <trkpt lat="47.20046" lon="6.52026">
        <ele>722</ele>
        <time>2020-05-22T14:30:29Z</time>
      </trkpt>
      <trkpt lat="47.20044" lon="6.52023">
        <ele>722</ele>
        <time>2020-05-22T14:30:30Z</time>
      </trkpt>
      <trkpt lat="47.20043" lon="6.52021">
        <ele>722.2</ele>
        <time>2020-05-22T14:30:31Z</time>
      </trkpt>
      <trkpt lat="47.20041" lon="6.52019">
        <ele>722.2</ele>
        <time>2020-05-22T14:30:32Z</time>
      </trkpt>
      <trkpt lat="47.20039" lon="6.52017">
        <ele>722.2</ele>
        <time>2020-05-22T14:30:33Z</time>
      </trkpt>
      <trkpt lat="47.20037" lon="6.52014">
        <ele>722.4</ele>
        <time>2020-05-22T14:30:34Z</time>
      </trkpt>
      <trkpt lat="47.20036" lon="6.52011">
        <ele>722.4</ele>
        <time>2020-05-22T14:30:35Z</time>
      </trkpt>
      <trkpt lat="47.20034" lon="6.52009">
        <ele>722.4</ele>
        <time>2020-05-22T14:30:36Z</time>
      </trkpt>
      <trkpt lat="47.20032" lon="6.52006">
        <ele>722.6</ele>
        <time>2020-05-22T14:30:37Z</time>
      </trkpt>
      <trkpt lat="47.2003" lon="6.52003">
        <ele>722.6</ele>
        <time>2020-05-22T14:30:38Z</time>
      </trkpt>
      <trkpt lat="47.20028" lon="6.52">
        <ele>722.8</ele>
        <time>2020-05-22T14:30:39Z</time>
      </trkpt>
      <trkpt lat="47.20026" lon="6.51998">
        <ele>722.8</ele>
        <time>2020-05-22T14:30:40Z</time>
      </trkpt>
      <trkpt lat="47.20024" lon="6.51995">
        <ele>722.8</ele>
        <time>2020-05-22T14:30:41Z</time>
      </trkpt>
      <trkpt lat="47.20022" lon="6.51992">
        <ele>723.2</ele>
        <time>2020-05-22T14:30:42Z</time>
      </trkpt>
      <trkpt lat="47.2002" lon="6.51989">
        <ele>723.2</ele>
        <time>2020-05-22T14:30:43Z</time>
      </trkpt>
      <trkpt lat="47.20018" lon="6.51986">
        <ele>723.4</ele>
        <time>2020-05-22T14:30:44Z</time>
      </trkpt>
      <trkpt lat="47.20016" lon="6.51983">
        <ele>723.4</ele>
        <time>2020-05-22T14:30:45Z</time>
      </trkpt>
      <trkpt lat="47.20014" lon="6.5198">
        <ele>723.4</ele>
        <time>2020-05-22T14:30:46Z</time>
      </trkpt>
      <trkpt lat="47.20012" lon="6.51977">
        <ele>723.6</ele>
        <time>2020-05-22T14:30:47Z</time>
      </trkpt>
      <trkpt lat="47.20011" lon="6.51974">
        <ele>723.6</ele>
        <time>2020-05-22T14:30:48Z</time>
      </trkpt>
      <trkpt lat="47.20009" lon="6.5197">
        <ele>723.6</ele>
        <time>2020-05-22T14:30:49Z</time>
      </trkpt>
      <trkpt lat="47.20007" lon="6.51967">
        <ele>723.6</ele>
        <time>2020-05-22T14:30:50Z</time>
      </trkpt>
      <trkpt lat="47.20005" lon="6.51963">
        <ele>723.8</ele>
        <time>2020-05-22T14:30:51Z</time>
      </trkpt>
      <trkpt lat="47.20003" lon="6.5196">
        <ele>723.8</ele>
        <time>2020-05-22T14:30:52Z</time>
      </trkpt>
      <trkpt lat="47.20001" lon="6.51956">
        <ele>723.8</ele>
        <time>2020-05-22T14:30:53Z</time>
      </trkpt>
      <trkpt lat="47.19999" lon="6.51952">
        <ele>723.8</ele>
        <time>2020-05-22T14:30:54Z</time>
      </trkpt>
      <trkpt lat="47.19998" lon="6.51949">
        <ele>724.2</ele>
        <time>2020-05-22T14:30:55Z</time>
      </trkpt>
      <trkpt lat="47.19996" lon="6.51945">
        <ele>724.2</ele>
        <time>2020-05-22T14:30:56Z</time>
      </trkpt>
      <trkpt lat="47.19994" lon="6.51942">
        <ele>724.2</ele>
        <time>2020-05-22T14:30:57Z</time>
      </trkpt>
      <trkpt lat="47.19992" lon="6.51938">
        <ele>724.4</ele>
        <time>2020-05-22T14:30:58Z</time>
      </trkpt>
      <trkpt lat="47.19991" lon="6.51935">
        <ele>724.4</ele>
        <time>2020-05-22T14:30:59Z</time>
      </trkpt>
      <trkpt lat="47.19989" lon="6.51931">
        <ele>724.4</ele>
        <time>2020-05-22T14:31:00Z</time>
      </trkpt>
      <trkpt lat="47.19987" lon="6.51927">
        <ele>724.4</ele>
        <time>2020-05-22T14:31:01Z</time>
      </trkpt>
      <trkpt lat="47.19985" lon="6.51923">
        <ele>724.4</ele>
        <time>2020-05-22T14:31:02Z</time>
      </trkpt>
      <trkpt lat="47.19983" lon="6.51919">
        <ele>724.4</ele>
        <time>2020-05-22T14:31:03Z</time>
      </trkpt>
      <trkpt lat="47.19982" lon="6.51915">
        <ele>724.8</ele>
        <time>2020-05-22T14:31:04Z</time>
      </trkpt>
      <trkpt lat="47.1998" lon="6.51911">
        <ele>724.8</ele>
        <time>2020-05-22T14:31:05Z</time>
      </trkpt>
      <trkpt lat="47.19978" lon="6.51907">
        <ele>724.8</ele>
        <time>2020-05-22T14:31:06Z</time>
      </trkpt>
      <trkpt lat="47.19977" lon="6.51904">
        <ele>725</ele>
        <time>2020-05-22T14:31:07Z</time>
      </trkpt>
      <trkpt lat="47.19975" lon="6.519">
        <ele>725</ele>
        <time>2020-05-22T14:31:08Z</time>
      </trkpt>
      <trkpt lat="47.19973" lon="6.51896">
        <ele>725.2</ele>
        <time>2020-05-22T14:31:09Z</time>
      </trkpt>
      <trkpt lat="47.19972" lon="6.51892">
        <ele>725.2</ele>
        <time>2020-05-22T14:31:10Z</time>
      </trkpt>
      <trkpt lat="47.1997" lon="6.51888">
        <ele>725.4</ele>
        <time>2020-05-22T14:31:11Z</time>
      </trkpt>
      <trkpt lat="47.19969" lon="6.51885">
        <ele>725.4</ele>
        <time>2020-05-22T14:31:12Z</time>
      </trkpt>
      <trkpt lat="47.19967" lon="6.51881">
        <ele>725.4</ele>
        <time>2020-05-22T14:31:13Z</time>
      </trkpt>
      <trkpt lat="47.19965" lon="6.51877">
        <ele>725.6</ele>
        <time>2020-05-22T14:31:14Z</time>
      </trkpt>
      <trkpt lat="47.19964" lon="6.51873">
        <ele>725.6</ele>
        <time>2020-05-22T14:31:15Z</time>
      </trkpt>
      <trkpt lat="47.19962" lon="6.51869">
        <ele>725.6</ele>
        <time>2020-05-22T14:31:16Z</time>
      </trkpt>
      <trkpt lat="47.19961" lon="6.51865">
        <ele>725.6</ele>
        <time>2020-05-22T14:31:17Z</time>
      </trkpt>
      <trkpt lat="47.19959" lon="6.51861">
        <ele>725.6</ele>
        <time>2020-05-22T14:31:18Z</time>
      </trkpt>
      <trkpt lat="47.19958" lon="6.51856">
        <ele>725.6</ele>
        <time>2020-05-22T14:31:19Z</time>
      </trkpt>
      <trkpt lat="47.19956" lon="6.51852">
        <ele>725.6</ele>
        <time>2020-05-22T14:31:20Z</time>
      </trkpt>
      <trkpt lat="47.19954" lon="6.51848">
        <ele>725.6</ele>
        <time>2020-05-22T14:31:21Z</time>
      </trkpt>
      <trkpt lat="47.19953" lon="6.51844">
        <ele>725.6</ele>
        <time>2020-05-22T14:31:22Z</time>
      </trkpt>
      <trkpt lat="47.19951" lon="6.5184">
        <ele>725.6</ele>
        <time>2020-05-22T14:31:23Z</time>
      </trkpt>
      <trkpt lat="47.19949" lon="6.51836">
        <ele>725.6</ele>
        <time>2020-05-22T14:31:24Z</time>
      </trkpt>
      <trkpt lat="47.19948" lon="6.51831">
        <ele>726</ele>
        <time>2020-05-22T14:31:25Z</time>
      </trkpt>
      <trkpt lat="47.19946" lon="6.51827">
        <ele>726</ele>
        <time>2020-05-22T14:31:26Z</time>
      </trkpt>
      <trkpt lat="47.19944" lon="6.51823">
        <ele>726</ele>
        <time>2020-05-22T14:31:27Z</time>
      </trkpt>
      <trkpt lat="47.19943" lon="6.51819">
        <ele>726</ele>
        <time>2020-05-22T14:31:28Z</time>
      </trkpt>
      <trkpt lat="47.19941" lon="6.51815">
        <ele>726</ele>
        <time>2020-05-22T14:31:29Z</time>
      </trkpt>
      <trkpt lat="47.19939" lon="6.51811">
        <ele>726.2</ele>
        <time>2020-05-22T14:31:30Z</time>
      </trkpt>
      <trkpt lat="47.19938" lon="6.51807">
        <ele>726.2</ele>
        <time>2020-05-22T14:31:31Z</time>
      </trkpt>
      <trkpt lat="47.19936" lon="6.51803">
        <ele>726.2</ele>
        <time>2020-05-22T14:31:32Z</time>
      </trkpt>
      <trkpt lat="47.19935" lon="6.51799">
        <ele>726.4</ele>
        <time>2020-05-22T14:31:33Z</time>
      </trkpt>
      <trkpt lat="47.19933" lon="6.51794">
        <ele>726.4</ele>
        <time>2020-05-22T14:31:34Z</time>
      </trkpt>
      <trkpt lat="47.19932" lon="6.5179">
        <ele>726.4</ele>
        <time>2020-05-22T14:31:35Z</time>
      </trkpt>
      <trkpt lat="47.1993" lon="6.51786">
        <ele>726.4</ele>
        <time>2020-05-22T14:31:36Z</time>
      </trkpt>
      <trkpt lat="47.19928" lon="6.51782">
        <ele>726.4</ele>
        <time>2020-05-22T14:31:37Z</time>
      </trkpt>
      <trkpt lat="47.19927" lon="6.51778">
        <ele>726.4</ele>
        <time>2020-05-22T14:31:38Z</time>
      </trkpt>
      <trkpt lat="47.19925" lon="6.51774">
        <ele>726.4</ele>
        <time>2020-05-22T14:31:39Z</time>
      </trkpt>
      <trkpt lat="47.19923" lon="6.51769">
        <ele>726.6</ele>
        <time>2020-05-22T14:31:40Z</time>
      </trkpt>
      <trkpt lat="47.19922" lon="6.51765">
        <ele>726.6</ele>
        <time>2020-05-22T14:31:41Z</time>
      </trkpt>
      <trkpt lat="47.19921" lon="6.5176">
        <ele>726.6</ele>
        <time>2020-05-22T14:31:42Z</time>
      </trkpt>
      <trkpt lat="47.19919" lon="6.51756">
        <ele>727</ele>
        <time>2020-05-22T14:31:43Z</time>
      </trkpt>
      <trkpt lat="47.19917" lon="6.51751">
        <ele>727</ele>
        <time>2020-05-22T14:31:44Z</time>
      </trkpt>
      <trkpt lat="47.19916" lon="6.51746">
        <ele>727</ele>
        <time>2020-05-22T14:31:45Z</time>
      </trkpt>
      <trkpt lat="47.19914" lon="6.51742">
        <ele>727</ele>
        <time>2020-05-22T14:31:46Z</time>
      </trkpt>
      <trkpt lat="47.19912" lon="6.51737">
        <ele>727.2</ele>
        <time>2020-05-22T14:31:47Z</time>
      </trkpt>
      <trkpt lat="47.1991" lon="6.51732">
        <ele>727.2</ele>
        <time>2020-05-22T14:31:48Z</time>
      </trkpt>
      <trkpt lat="47.19908" lon="6.51726">
        <ele>727.2</ele>
        <time>2020-05-22T14:31:49Z</time>
      </trkpt>
      <trkpt lat="47.19907" lon="6.51721">
        <ele>727.2</ele>
        <time>2020-05-22T14:31:50Z</time>
      </trkpt>
      <trkpt lat="47.19905" lon="6.51716">
        <ele>727.2</ele>
        <time>2020-05-22T14:31:51Z</time>
      </trkpt>
      <trkpt lat="47.19903" lon="6.5171">
        <ele>727.2</ele>
        <time>2020-05-22T14:31:52Z</time>
      </trkpt>
      <trkpt lat="47.19901" lon="6.51705">
        <ele>726.8</ele>
        <time>2020-05-22T14:31:53Z</time>
      </trkpt>
      <trkpt lat="47.19899" lon="6.51699">
        <ele>726.8</ele>
        <time>2020-05-22T14:31:54Z</time>
      </trkpt>
      <trkpt lat="47.19897" lon="6.51693">
        <ele>726.6</ele>
        <time>2020-05-22T14:31:55Z</time>
      </trkpt>
      <trkpt lat="47.19895" lon="6.51687">
        <ele>726.6</ele>
        <time>2020-05-22T14:31:56Z</time>
      </trkpt>
      <trkpt lat="47.19893" lon="6.5168">
        <ele>726.4</ele>
        <time>2020-05-22T14:31:57Z</time>
      </trkpt>
      <trkpt lat="47.1989" lon="6.51674">
        <ele>726.4</ele>
        <time>2020-05-22T14:31:58Z</time>
      </trkpt>
      <trkpt lat="47.19888" lon="6.51667">
        <ele>726</ele>
        <time>2020-05-22T14:31:59Z</time>
      </trkpt>
      <trkpt lat="47.19886" lon="6.5166">
        <ele>726</ele>
        <time>2020-05-22T14:32:00Z</time>
      </trkpt>
      <trkpt lat="47.19884" lon="6.51653">
        <ele>725.8</ele>
        <time>2020-05-22T14:32:01Z</time>
      </trkpt>
      <trkpt lat="47.19881" lon="6.51647">
        <ele>725.6</ele>
        <time>2020-05-22T14:32:02Z</time>
      </trkpt>
      <trkpt lat="47.19879" lon="6.51639">
        <ele>725.6</ele>
        <time>2020-05-22T14:32:03Z</time>
      </trkpt>
      <trkpt lat="47.19876" lon="6.51632">
        <ele>725.2</ele>
        <time>2020-05-22T14:32:04Z</time>
      </trkpt>
      <trkpt lat="47.19873" lon="6.51625">
        <ele>725.2</ele>
        <time>2020-05-22T14:32:05Z</time>
      </trkpt>
      <trkpt lat="47.19871" lon="6.51618">
        <ele>725</ele>
        <time>2020-05-22T14:32:06Z</time>
      </trkpt>
      <trkpt lat="47.19868" lon="6.5161">
        <ele>725</ele>
        <time>2020-05-22T14:32:07Z</time>
      </trkpt>
      <trkpt lat="47.19865" lon="6.51603">
        <ele>725</ele>
        <time>2020-05-22T14:32:08Z</time>
      </trkpt>
      <trkpt lat="47.19861" lon="6.51596">
        <ele>724.6</ele>
        <time>2020-05-22T14:32:09Z</time>
      </trkpt>
      <trkpt lat="47.19858" lon="6.51588">
        <ele>724.6</ele>
        <time>2020-05-22T14:32:10Z</time>
      </trkpt>
      <trkpt lat="47.19855" lon="6.51581">
        <ele>724.6</ele>
        <time>2020-05-22T14:32:11Z</time>
      </trkpt>
      <trkpt lat="47.19852" lon="6.51575">
        <ele>724.6</ele>
        <time>2020-05-22T14:32:12Z</time>
      </trkpt>
      <trkpt lat="47.19848" lon="6.51568">
        <ele>724.6</ele>
        <time>2020-05-22T14:32:13Z</time>
      </trkpt>
      <trkpt lat="47.19845" lon="6.51562">
        <ele>724.6</ele>
        <time>2020-05-22T14:32:14Z</time>
      </trkpt>
      <trkpt lat="47.19841" lon="6.51556">
        <ele>724.6</ele>
        <time>2020-05-22T14:32:15Z</time>
      </trkpt>
      <trkpt lat="47.19838" lon="6.5155">
        <ele>725</ele>
        <time>2020-05-22T14:32:16Z</time>
      </trkpt>
      <trkpt lat="47.19835" lon="6.51545">
        <ele>725</ele>
        <time>2020-05-22T14:32:17Z</time>
      </trkpt>
      <trkpt lat="47.19832" lon="6.5154">
        <ele>725.2</ele>
        <time>2020-05-22T14:32:18Z</time>
      </trkpt>
      <trkpt lat="47.19828" lon="6.51535">
        <ele>725.2</ele>
        <time>2020-05-22T14:32:19Z</time>
      </trkpt>
      <trkpt lat="47.19825" lon="6.51531">
        <ele>725.2</ele>
        <time>2020-05-22T14:32:20Z</time>
      </trkpt>
      <trkpt lat="47.19822" lon="6.51526">
        <ele>725.4</ele>
        <time>2020-05-22T14:32:21Z</time>
      </trkpt>
      <trkpt lat="47.19819" lon="6.51522">
        <ele>725.4</ele>
        <time>2020-05-22T14:32:22Z</time>
      </trkpt>
      <trkpt lat="47.19816" lon="6.51518">
        <ele>725.4</ele>
        <time>2020-05-22T14:32:23Z</time>
      </trkpt>
      <trkpt lat="47.19814" lon="6.51514">
        <ele>725.4</ele>
        <time>2020-05-22T14:32:24Z</time>
      </trkpt>
      <trkpt lat="47.19811" lon="6.51511">
        <ele>725.6</ele>
        <time>2020-05-22T14:32:25Z</time>
      </trkpt>
      <trkpt lat="47.19809" lon="6.51507">
        <ele>725.6</ele>
        <time>2020-05-22T14:32:26Z</time>
      </trkpt>
      <trkpt lat="47.19806" lon="6.51503">
        <ele>725.6</ele>
        <time>2020-05-22T14:32:27Z</time>
      </trkpt>
      <trkpt lat="47.19804" lon="6.51499">
        <ele>726</ele>
        <time>2020-05-22T14:32:28Z</time>
      </trkpt>
      <trkpt lat="47.19801" lon="6.51496">
        <ele>726</ele>
        <time>2020-05-22T14:32:29Z</time>
      </trkpt>
      <trkpt lat="47.19799" lon="6.51493">
        <ele>726.2</ele>
        <time>2020-05-22T14:32:30Z</time>
      </trkpt>
      <trkpt lat="47.19797" lon="6.51489">
        <ele>726.2</ele>
        <time>2020-05-22T14:32:31Z</time>
      </trkpt>
      <trkpt lat="47.19794" lon="6.51486">
        <ele>726.2</ele>
        <time>2020-05-22T14:32:32Z</time>
      </trkpt>
      <trkpt lat="47.19791" lon="6.51482">
        <ele>726.2</ele>
        <time>2020-05-22T14:32:33Z</time>
      </trkpt>
      <trkpt lat="47.19789" lon="6.51479">
        <ele>726.2</ele>
        <time>2020-05-22T14:32:34Z</time>
      </trkpt>
      <trkpt lat="47.19787" lon="6.51475">
        <ele>726.4</ele>
        <time>2020-05-22T14:32:35Z</time>
      </trkpt>
      <trkpt lat="47.19784" lon="6.51472">
        <ele>726.4</ele>
        <time>2020-05-22T14:32:36Z</time>
      </trkpt>
      <trkpt lat="47.19782" lon="6.51468">
        <ele>726.4</ele>
        <time>2020-05-22T14:32:37Z</time>
      </trkpt>
      <trkpt lat="47.19779" lon="6.51464">
        <ele>726.6</ele>
        <time>2020-05-22T14:32:38Z</time>
      </trkpt>
      <trkpt lat="47.19777" lon="6.51461">
        <ele>726.6</ele>
        <time>2020-05-22T14:32:39Z</time>
      </trkpt>
      <trkpt lat="47.19774" lon="6.51458">
        <ele>727</ele>
        <time>2020-05-22T14:32:40Z</time>
      </trkpt>
      <trkpt lat="47.19772" lon="6.51454">
        <ele>727</ele>
        <time>2020-05-22T14:32:41Z</time>
      </trkpt>
      <trkpt lat="47.19769" lon="6.51451">
        <ele>727</ele>
        <time>2020-05-22T14:32:42Z</time>
      </trkpt>
      <trkpt lat="47.19767" lon="6.51447">
        <ele>727</ele>
        <time>2020-05-22T14:32:43Z</time>
      </trkpt>
      <trkpt lat="47.19765" lon="6.51444">
        <ele>727</ele>
        <time>2020-05-22T14:32:44Z</time>
      </trkpt>
      <trkpt lat="47.19762" lon="6.5144">
        <ele>727</ele>
        <time>2020-05-22T14:32:45Z</time>
      </trkpt>
      <trkpt lat="47.1976" lon="6.51436">
        <ele>727</ele>
        <time>2020-05-22T14:32:46Z</time>
      </trkpt>
      <trkpt lat="47.19757" lon="6.51433">
        <ele>727</ele>
        <time>2020-05-22T14:32:47Z</time>
      </trkpt>
      <trkpt lat="47.19754" lon="6.51429">
        <ele>727</ele>
        <time>2020-05-22T14:32:48Z</time>
      </trkpt>
      <trkpt lat="47.19752" lon="6.51425">
        <ele>727</ele>
        <time>2020-05-22T14:32:49Z</time>
      </trkpt>
      <trkpt lat="47.19749" lon="6.51421">
        <ele>727</ele>
        <time>2020-05-22T14:32:50Z</time>
      </trkpt>
      <trkpt lat="47.19746" lon="6.51417">
        <ele>727</ele>
        <time>2020-05-22T14:32:51Z</time>
      </trkpt>
      <trkpt lat="47.19742" lon="6.51413">
        <ele>727</ele>
        <time>2020-05-22T14:32:52Z</time>
      </trkpt>
      <trkpt lat="47.19739" lon="6.51408">
        <ele>727</ele>
        <time>2020-05-22T14:32:53Z</time>
      </trkpt>
      <trkpt lat="47.19736" lon="6.51404">
        <ele>727</ele>
        <time>2020-05-22T14:32:54Z</time>
      </trkpt>
      <trkpt lat="47.19733" lon="6.51399">
        <ele>727</ele>
        <time>2020-05-22T14:32:55Z</time>
      </trkpt>
      <trkpt lat="47.19729" lon="6.51394">
        <ele>727</ele>
        <time>2020-05-22T14:32:56Z</time>
      </trkpt>
      <trkpt lat="47.19726" lon="6.5139">
        <ele>727.2</ele>
        <time>2020-05-22T14:32:57Z</time>
      </trkpt>
      <trkpt lat="47.19723" lon="6.51385">
        <ele>727.2</ele>
        <time>2020-05-22T14:32:58Z</time>
      </trkpt>
      <trkpt lat="47.19719" lon="6.51381">
        <ele>727.2</ele>
        <time>2020-05-22T14:32:59Z</time>
      </trkpt>
      <trkpt lat="47.19716" lon="6.51376">
        <ele>727.2</ele>
        <time>2020-05-22T14:33:00Z</time>
      </trkpt>
      <trkpt lat="47.19713" lon="6.51372">
        <ele>727</ele>
        <time>2020-05-22T14:33:01Z</time>
      </trkpt>
      <trkpt lat="47.1971" lon="6.51367">
        <ele>727</ele>
        <time>2020-05-22T14:33:02Z</time>
      </trkpt>
      <trkpt lat="47.19706" lon="6.51362">
        <ele>726.6</ele>
        <time>2020-05-22T14:33:03Z</time>
      </trkpt>
      <trkpt lat="47.19703" lon="6.51357">
        <ele>726.6</ele>
        <time>2020-05-22T14:33:04Z</time>
      </trkpt>
      <trkpt lat="47.19699" lon="6.51352">
        <ele>726.4</ele>
        <time>2020-05-22T14:33:05Z</time>
      </trkpt>
      <trkpt lat="47.19695" lon="6.51347">
        <ele>726.4</ele>
        <time>2020-05-22T14:33:06Z</time>
      </trkpt>
      <trkpt lat="47.19691" lon="6.51341">
        <ele>726.4</ele>
        <time>2020-05-22T14:33:07Z</time>
      </trkpt>
      <trkpt lat="47.19687" lon="6.51336">
        <ele>726</ele>
        <time>2020-05-22T14:33:08Z</time>
      </trkpt>
      <trkpt lat="47.19683" lon="6.5133">
        <ele>726</ele>
        <time>2020-05-22T14:33:09Z</time>
      </trkpt>
      <trkpt lat="47.19679" lon="6.51324">
        <ele>725.6</ele>
        <time>2020-05-22T14:33:10Z</time>
      </trkpt>
      <trkpt lat="47.19674" lon="6.51318">
        <ele>725.6</ele>
        <time>2020-05-22T14:33:11Z</time>
      </trkpt>
      <trkpt lat="47.1967" lon="6.51312">
        <ele>725.4</ele>
        <time>2020-05-22T14:33:12Z</time>
      </trkpt>
      <trkpt lat="47.19666" lon="6.51306">
        <ele>725.4</ele>
        <time>2020-05-22T14:33:13Z</time>
      </trkpt>
      <trkpt lat="47.19662" lon="6.51299">
        <ele>725.4</ele>
        <time>2020-05-22T14:33:14Z</time>
      </trkpt>
      <trkpt lat="47.19658" lon="6.51293">
        <ele>725</ele>
        <time>2020-05-22T14:33:15Z</time>
      </trkpt>
      <trkpt lat="47.19653" lon="6.51287">
        <ele>725</ele>
        <time>2020-05-22T14:33:16Z</time>
      </trkpt>
      <trkpt lat="47.19648" lon="6.5128">
        <ele>724.8</ele>
        <time>2020-05-22T14:33:17Z</time>
      </trkpt>
      <trkpt lat="47.19644" lon="6.51274">
        <ele>724.8</ele>
        <time>2020-05-22T14:33:18Z</time>
      </trkpt>
      <trkpt lat="47.19639" lon="6.51267">
        <ele>724.6</ele>
        <time>2020-05-22T14:33:19Z</time>
      </trkpt>
      <trkpt lat="47.19635" lon="6.5126">
        <ele>724.6</ele>
        <time>2020-05-22T14:33:20Z</time>
      </trkpt>
      <trkpt lat="47.1963" lon="6.51253">
        <ele>724.6</ele>
        <time>2020-05-22T14:33:21Z</time>
      </trkpt>
      <trkpt lat="47.19625" lon="6.51247">
        <ele>724.4</ele>
        <time>2020-05-22T14:33:22Z</time>
      </trkpt>
      <trkpt lat="47.1962" lon="6.5124">
        <ele>724.4</ele>
        <time>2020-05-22T14:33:23Z</time>
      </trkpt>
      <trkpt lat="47.19615" lon="6.51234">
        <ele>724.4</ele>
        <time>2020-05-22T14:33:24Z</time>
      </trkpt>
      <trkpt lat="47.1961" lon="6.51228">
        <ele>724.4</ele>
        <time>2020-05-22T14:33:25Z</time>
      </trkpt>
      <trkpt lat="47.19605" lon="6.51223">
        <ele>724.2</ele>
        <time>2020-05-22T14:33:26Z</time>
      </trkpt>
      <trkpt lat="47.196" lon="6.51218">
        <ele>724.2</ele>
        <time>2020-05-22T14:33:27Z</time>
      </trkpt>
      <trkpt lat="47.19595" lon="6.51213">
        <ele>724.2</ele>
        <time>2020-05-22T14:33:28Z</time>
      </trkpt>
      <trkpt lat="47.1959" lon="6.51209">
        <ele>724.2</ele>
        <time>2020-05-22T14:33:29Z</time>
      </trkpt>
      <trkpt lat="47.19586" lon="6.51204">
        <ele>724.2</ele>
        <time>2020-05-22T14:33:30Z</time>
      </trkpt>
      <trkpt lat="47.19581" lon="6.512">
        <ele>724.4</ele>
        <time>2020-05-22T14:33:31Z</time>
      </trkpt>
      <trkpt lat="47.19577" lon="6.51196">
        <ele>724.4</ele>
        <time>2020-05-22T14:33:32Z</time>
      </trkpt>
      <trkpt lat="47.19573" lon="6.51193">
        <ele>724.4</ele>
        <time>2020-05-22T14:33:33Z</time>
      </trkpt>
      <trkpt lat="47.19569" lon="6.51189">
        <ele>724.4</ele>
        <time>2020-05-22T14:33:34Z</time>
      </trkpt>
      <trkpt lat="47.19565" lon="6.51185">
        <ele>724.6</ele>
        <time>2020-05-22T14:33:35Z</time>
      </trkpt>
      <trkpt lat="47.19561" lon="6.51182">
        <ele>724.6</ele>
        <time>2020-05-22T14:33:36Z</time>
      </trkpt>
      <trkpt lat="47.19557" lon="6.51178">
        <ele>724.8</ele>
        <time>2020-05-22T14:33:37Z</time>
      </trkpt>
      <trkpt lat="47.19554" lon="6.51175">
        <ele>724.8</ele>
        <time>2020-05-22T14:33:38Z</time>
      </trkpt>
      <trkpt lat="47.1955" lon="6.51172">
        <ele>724.8</ele>
        <time>2020-05-22T14:33:39Z</time>
      </trkpt>
      <trkpt lat="47.19546" lon="6.51169">
        <ele>724.8</ele>
        <time>2020-05-22T14:33:40Z</time>
      </trkpt>
      <trkpt lat="47.19543" lon="6.51165">
        <ele>725</ele>
        <time>2020-05-22T14:33:41Z</time>
      </trkpt>
      <trkpt lat="47.19539" lon="6.51162">
        <ele>725</ele>
        <time>2020-05-22T14:33:42Z</time>
      </trkpt>
      <trkpt lat="47.19536" lon="6.51159">
        <ele>725</ele>
        <time>2020-05-22T14:33:43Z</time>
      </trkpt>
      <trkpt lat="47.19532" lon="6.51156">
        <ele>725</ele>
        <time>2020-05-22T14:33:44Z</time>
      </trkpt>
      <trkpt lat="47.19529" lon="6.51153">
        <ele>725.2</ele>
        <time>2020-05-22T14:33:45Z</time>
      </trkpt>
      <trkpt lat="47.19525" lon="6.5115">
        <ele>725.2</ele>
        <time>2020-05-22T14:33:46Z</time>
      </trkpt>
      <trkpt lat="47.19522" lon="6.51146">
        <ele>725.2</ele>
        <time>2020-05-22T14:33:47Z</time>
      </trkpt>
      <trkpt lat="47.19518" lon="6.51143">
        <ele>725.2</ele>
        <time>2020-05-22T14:33:48Z</time>
      </trkpt>
      <trkpt lat="47.19514" lon="6.5114">
        <ele>725.2</ele>
        <time>2020-05-22T14:33:49Z</time>
      </trkpt>
      <trkpt lat="47.19511" lon="6.51136">
        <ele>725.2</ele>
        <time>2020-05-22T14:33:50Z</time>
      </trkpt>
      <trkpt lat="47.19507" lon="6.51132">
        <ele>725.2</ele>
        <time>2020-05-22T14:33:51Z</time>
      </trkpt>
      <trkpt lat="47.19503" lon="6.51129">
        <ele>725.2</ele>
        <time>2020-05-22T14:33:52Z</time>
      </trkpt>
      <trkpt lat="47.19499" lon="6.51125">
        <ele>725.2</ele>
        <time>2020-05-22T14:33:53Z</time>
      </trkpt>
      <trkpt lat="47.19495" lon="6.51121">
        <ele>725.2</ele>
        <time>2020-05-22T14:33:54Z</time>
      </trkpt>
      <trkpt lat="47.19491" lon="6.51117">
        <ele>725.2</ele>
        <time>2020-05-22T14:33:55Z</time>
      </trkpt>
      <trkpt lat="47.19487" lon="6.51113">
        <ele>725.2</ele>
        <time>2020-05-22T14:33:56Z</time>
      </trkpt>
      <trkpt lat="47.19483" lon="6.51109">
        <ele>725.2</ele>
        <time>2020-05-22T14:33:57Z</time>
      </trkpt>
      <trkpt lat="47.19479" lon="6.51104">
        <ele>725</ele>
        <time>2020-05-22T14:33:58Z</time>
      </trkpt>
      <trkpt lat="47.19475" lon="6.51099">
        <ele>725</ele>
        <time>2020-05-22T14:33:59Z</time>
      </trkpt>
      <trkpt lat="47.19471" lon="6.51094">
        <ele>725</ele>
        <time>2020-05-22T14:34:00Z</time>
      </trkpt>
      <trkpt lat="47.19467" lon="6.51089">
        <ele>725</ele>
        <time>2020-05-22T14:34:01Z</time>
      </trkpt>
      <trkpt lat="47.19463" lon="6.51084">
        <ele>724.8</ele>
        <time>2020-05-22T14:34:02Z</time>
      </trkpt>
      <trkpt lat="47.19459" lon="6.51078">
        <ele>724.8</ele>
        <time>2020-05-22T14:34:03Z</time>
      </trkpt>
      <trkpt lat="47.19455" lon="6.51073">
        <ele>724.8</ele>
        <time>2020-05-22T14:34:04Z</time>
      </trkpt>
      <trkpt lat="47.19451" lon="6.51067">
        <ele>724.4</ele>
        <time>2020-05-22T14:34:05Z</time>
      </trkpt>
      <trkpt lat="47.19447" lon="6.51062">
        <ele>724.4</ele>
        <time>2020-05-22T14:34:06Z</time>
      </trkpt>
      <trkpt lat="47.19443" lon="6.51057">
        <ele>724.4</ele>
        <time>2020-05-22T14:34:07Z</time>
      </trkpt>
      <trkpt lat="47.19439" lon="6.51052">
        <ele>724.4</ele>
        <time>2020-05-22T14:34:08Z</time>
      </trkpt>
      <trkpt lat="47.19435" lon="6.51047">
        <ele>724.4</ele>
        <time>2020-05-22T14:34:09Z</time>
      </trkpt>
      <trkpt lat="47.1943" lon="6.51042">
        <ele>724.4</ele>
        <time>2020-05-22T14:34:10Z</time>
      </trkpt>
      <trkpt lat="47.19426" lon="6.51038">
        <ele>724.4</ele>
        <time>2020-05-22T14:34:11Z</time>
      </trkpt>
      <trkpt lat="47.19422" lon="6.51034">
        <ele>724.4</ele>
        <time>2020-05-22T14:34:12Z</time>
      </trkpt>
      <trkpt lat="47.19418" lon="6.5103">
        <ele>724.4</ele>
        <time>2020-05-22T14:34:13Z</time>
      </trkpt>
      <trkpt lat="47.19414" lon="6.51027">
        <ele>724.4</ele>
        <time>2020-05-22T14:34:14Z</time>
      </trkpt>
      <trkpt lat="47.1941" lon="6.51024">
        <ele>724.6</ele>
        <time>2020-05-22T14:34:15Z</time>
      </trkpt>
      <trkpt lat="47.19405" lon="6.51021">
        <ele>724.6</ele>
        <time>2020-05-22T14:34:16Z</time>
      </trkpt>
      <trkpt lat="47.19401" lon="6.51019">
        <ele>724.6</ele>
        <time>2020-05-22T14:34:17Z</time>
      </trkpt>
      <trkpt lat="47.19397" lon="6.51018">
        <ele>724.6</ele>
        <time>2020-05-22T14:34:18Z</time>
      </trkpt>
      <trkpt lat="47.19392" lon="6.51017">
        <ele>724.6</ele>
        <time>2020-05-22T14:34:19Z</time>
      </trkpt>
      <trkpt lat="47.19388" lon="6.51016">
        <ele>724.6</ele>
        <time>2020-05-22T14:34:20Z</time>
      </trkpt>
      <trkpt lat="47.19384" lon="6.51016">
        <ele>724.6</ele>
        <time>2020-05-22T14:34:21Z</time>
      </trkpt>
      <trkpt lat="47.19379" lon="6.51016">
        <ele>724.6</ele>
        <time>2020-05-22T14:34:22Z</time>
      </trkpt>
      <trkpt lat="47.19375" lon="6.51016">
        <ele>724.6</ele>
        <time>2020-05-22T14:34:23Z</time>
      </trkpt>
      <trkpt lat="47.19371" lon="6.51016">
        <ele>724.6</ele>
        <time>2020-05-22T14:34:24Z</time>
      </trkpt>
      <trkpt lat="47.19367" lon="6.51016">
        <ele>724.6</ele>
        <time>2020-05-22T14:34:25Z</time>
      </trkpt>
      <trkpt lat="47.19363" lon="6.51016">
        <ele>724.6</ele>
        <time>2020-05-22T14:34:26Z</time>
      </trkpt>
      <trkpt lat="47.19359" lon="6.51016">
        <ele>724.6</ele>
        <time>2020-05-22T14:34:27Z</time>
      </trkpt>
      <trkpt lat="47.19355" lon="6.51016">
        <ele>724.6</ele>
        <time>2020-05-22T14:34:28Z</time>
      </trkpt>
      <trkpt lat="47.19351" lon="6.51016">
        <ele>724.6</ele>
        <time>2020-05-22T14:34:29Z</time>
      </trkpt>
      <trkpt lat="47.19347" lon="6.51016">
        <ele>724.8</ele>
        <time>2020-05-22T14:34:30Z</time>
      </trkpt>
      <trkpt lat="47.19344" lon="6.51016">
        <ele>724.8</ele>
        <time>2020-05-22T14:34:31Z</time>
      </trkpt>
      <trkpt lat="47.1934" lon="6.51017">
        <ele>724.8</ele>
        <time>2020-05-22T14:34:32Z</time>
      </trkpt>
      <trkpt lat="47.19336" lon="6.51017">
        <ele>725.2</ele>
        <time>2020-05-22T14:34:33Z</time>
      </trkpt>
      <trkpt lat="47.19333" lon="6.51016">
        <ele>725.2</ele>
        <time>2020-05-22T14:34:34Z</time>
      </trkpt>
      <trkpt lat="47.19329" lon="6.51016">
        <ele>725.2</ele>
        <time>2020-05-22T14:34:35Z</time>
      </trkpt>
      <trkpt lat="47.19325" lon="6.51016">
        <ele>725.2</ele>
        <time>2020-05-22T14:34:36Z</time>
      </trkpt>
      <trkpt lat="47.19321" lon="6.51015">
        <ele>725</ele>
        <time>2020-05-22T14:34:37Z</time>
      </trkpt>
      <trkpt lat="47.19317" lon="6.51015">
        <ele>725</ele>
        <time>2020-05-22T14:34:38Z</time>
      </trkpt>
      <trkpt lat="47.19313" lon="6.51015">
        <ele>725</ele>
        <time>2020-05-22T14:34:39Z</time>
      </trkpt>
      <trkpt lat="47.19309" lon="6.51015">
        <ele>725</ele>
        <time>2020-05-22T14:34:40Z</time>
      </trkpt>
      <trkpt lat="47.19304" lon="6.51014">
        <ele>725</ele>
        <time>2020-05-22T14:34:41Z</time>
      </trkpt>
      <trkpt lat="47.193" lon="6.51014">
        <ele>725</ele>
        <time>2020-05-22T14:34:42Z</time>
      </trkpt>
      <trkpt lat="47.19295" lon="6.51013">
        <ele>725</ele>
        <time>2020-05-22T14:34:43Z</time>
      </trkpt>
      <trkpt lat="47.1929" lon="6.51013">
        <ele>725</ele>
        <time>2020-05-22T14:34:44Z</time>
      </trkpt>
      <trkpt lat="47.19285" lon="6.51013">
        <ele>725</ele>
        <time>2020-05-22T14:34:45Z</time>
      </trkpt>
      <trkpt lat="47.1928" lon="6.51013">
        <ele>724.6</ele>
        <time>2020-05-22T14:34:46Z</time>
      </trkpt>
      <trkpt lat="47.19275" lon="6.51013">
        <ele>724.6</ele>
        <time>2020-05-22T14:34:47Z</time>
      </trkpt>
      <trkpt lat="47.19269" lon="6.51013">
        <ele>724.6</ele>
        <time>2020-05-22T14:34:48Z</time>
      </trkpt>
      <trkpt lat="47.19263" lon="6.51013">
        <ele>724.6</ele>
        <time>2020-05-22T14:34:49Z</time>
      </trkpt>
      <trkpt lat="47.19257" lon="6.51013">
        <ele>724.4</ele>
        <time>2020-05-22T14:34:50Z</time>
      </trkpt>
      <trkpt lat="47.19251" lon="6.51013">
        <ele>724.2</ele>
        <time>2020-05-22T14:34:51Z</time>
      </trkpt>
      <trkpt lat="47.19244" lon="6.51013">
        <ele>724.2</ele>
        <time>2020-05-22T14:34:52Z</time>
      </trkpt>
      <trkpt lat="47.19238" lon="6.51013">
        <ele>723.6</ele>
        <time>2020-05-22T14:34:53Z</time>
      </trkpt>
      <trkpt lat="47.19231" lon="6.51013">
        <ele>723.2</ele>
        <time>2020-05-22T14:34:54Z</time>
      </trkpt>
      <trkpt lat="47.19224" lon="6.51012">
        <ele>723</ele>
        <time>2020-05-22T14:34:55Z</time>
      </trkpt>
      <trkpt lat="47.19217" lon="6.51009">
        <ele>723</ele>
        <time>2020-05-22T14:34:56Z</time>
      </trkpt>
      <trkpt lat="47.19211" lon="6.51004">
        <ele>722.8</ele>
        <time>2020-05-22T14:34:57Z</time>
      </trkpt>
      <trkpt lat="47.19206" lon="6.50997">
        <ele>722.8</ele>
        <time>2020-05-22T14:34:58Z</time>
      </trkpt>
      <trkpt lat="47.19201" lon="6.50989">
        <ele>722.8</ele>
        <time>2020-05-22T14:34:59Z</time>
      </trkpt>
      <trkpt lat="47.19198" lon="6.50979">
        <ele>722.8</ele>
        <time>2020-05-22T14:35:00Z</time>
      </trkpt>
      <trkpt lat="47.19195" lon="6.50969">
        <ele>722.4</ele>
        <time>2020-05-22T14:35:01Z</time>
      </trkpt>
      <trkpt lat="47.19192" lon="6.50959">
        <ele>722.2</ele>
        <time>2020-05-22T14:35:02Z</time>
      </trkpt>
      <trkpt lat="47.1919" lon="6.50949">
        <ele>722.2</ele>
        <time>2020-05-22T14:35:03Z</time>
      </trkpt>
      <trkpt lat="47.19188" lon="6.50938">
        <ele>721.8</ele>
        <time>2020-05-22T14:35:04Z</time>
      </trkpt>
      <trkpt lat="47.19186" lon="6.50928">
        <ele>721.6</ele>
        <time>2020-05-22T14:35:05Z</time>
      </trkpt>
      <trkpt lat="47.19184" lon="6.50918">
        <ele>721.6</ele>
        <time>2020-05-22T14:35:06Z</time>
      </trkpt>
      <trkpt lat="47.19182" lon="6.50908">
        <ele>721.2</ele>
        <time>2020-05-22T14:35:07Z</time>
      </trkpt>
      <trkpt lat="47.19181" lon="6.50898">
        <ele>721.2</ele>
        <time>2020-05-22T14:35:08Z</time>
      </trkpt>
      <trkpt lat="47.1918" lon="6.50889">
        <ele>721.2</ele>
        <time>2020-05-22T14:35:09Z</time>
      </trkpt>
      <trkpt lat="47.19179" lon="6.5088">
        <ele>721.2</ele>
        <time>2020-05-22T14:35:10Z</time>
      </trkpt>
      <trkpt lat="47.19179" lon="6.50871">
        <ele>721.2</ele>
        <time>2020-05-22T14:35:11Z</time>
      </trkpt>
      <trkpt lat="47.19179" lon="6.50862">
        <ele>721</ele>
        <time>2020-05-22T14:35:12Z</time>
      </trkpt>
      <trkpt lat="47.19178" lon="6.50853">
        <ele>721</ele>
        <time>2020-05-22T14:35:13Z</time>
      </trkpt>
      <trkpt lat="47.19178" lon="6.50845">
        <ele>721</ele>
        <time>2020-05-22T14:35:14Z</time>
      </trkpt>
      <trkpt lat="47.19178" lon="6.50837">
        <ele>721</ele>
        <time>2020-05-22T14:35:15Z</time>
      </trkpt>
      <trkpt lat="47.19178" lon="6.50829">
        <ele>720.6</ele>
        <time>2020-05-22T14:35:16Z</time>
      </trkpt>
      <trkpt lat="47.19178" lon="6.50822">
        <ele>720.4</ele>
        <time>2020-05-22T14:35:17Z</time>
      </trkpt>
      <trkpt lat="47.19178" lon="6.50814">
        <ele>720.4</ele>
        <time>2020-05-22T14:35:18Z</time>
      </trkpt>
      <trkpt lat="47.19178" lon="6.50807">
        <ele>720.4</ele>
        <time>2020-05-22T14:35:19Z</time>
      </trkpt>
      <trkpt lat="47.19178" lon="6.50799">
        <ele>720.4</ele>
        <time>2020-05-22T14:35:20Z</time>
      </trkpt>
      <trkpt lat="47.19178" lon="6.50793">
        <ele>720.6</ele>
        <time>2020-05-22T14:35:21Z</time>
      </trkpt>
      <trkpt lat="47.19178" lon="6.50786">
        <ele>720.6</ele>
        <time>2020-05-22T14:35:22Z</time>
      </trkpt>
      <trkpt lat="47.19178" lon="6.5078">
        <ele>720.6</ele>
        <time>2020-05-22T14:35:23Z</time>
      </trkpt>
      <trkpt lat="47.19178" lon="6.50773">
        <ele>720.6</ele>
        <time>2020-05-22T14:35:24Z</time>
      </trkpt>
      <trkpt lat="47.19178" lon="6.50767">
        <ele>720.6</ele>
        <time>2020-05-22T14:35:25Z</time>
      </trkpt>
      <trkpt lat="47.19177" lon="6.50761">
        <ele>720.6</ele>
        <time>2020-05-22T14:35:26Z</time>
      </trkpt>
      <trkpt lat="47.19177" lon="6.50755">
        <ele>720.6</ele>
        <time>2020-05-22T14:35:27Z</time>
      </trkpt>
      <trkpt lat="47.19177" lon="6.50749">
        <ele>720.6</ele>
        <time>2020-05-22T14:35:28Z</time>
      </trkpt>
      <trkpt lat="47.19177" lon="6.50744">
        <ele>720.6</ele>
        <time>2020-05-22T14:35:29Z</time>
      </trkpt>
      <trkpt lat="47.19177" lon="6.50738">
        <ele>720.6</ele>
        <time>2020-05-22T14:35:30Z</time>
      </trkpt>
      <trkpt lat="47.19177" lon="6.50733">
        <ele>720.6</ele>
        <time>2020-05-22T14:35:31Z</time>
      </trkpt>
      <trkpt lat="47.19177" lon="6.50728">
        <ele>720.6</ele>
        <time>2020-05-22T14:35:32Z</time>
      </trkpt>
      <trkpt lat="47.19176" lon="6.50722">
        <ele>720.6</ele>
        <time>2020-05-22T14:35:33Z</time>
      </trkpt>
      <trkpt lat="47.19176" lon="6.50717">
        <ele>720.6</ele>
        <time>2020-05-22T14:35:34Z</time>
      </trkpt>
      <trkpt lat="47.19176" lon="6.50712">
        <ele>720.6</ele>
        <time>2020-05-22T14:35:35Z</time>
      </trkpt>
      <trkpt lat="47.19175" lon="6.50707">
        <ele>720.6</ele>
        <time>2020-05-22T14:35:36Z</time>
      </trkpt>
      <trkpt lat="47.19175" lon="6.50702">
        <ele>720.8</ele>
        <time>2020-05-22T14:35:37Z</time>
      </trkpt>
      <trkpt lat="47.19174" lon="6.50697">
        <ele>721.2</ele>
        <time>2020-05-22T14:35:38Z</time>
      </trkpt>
      <trkpt lat="47.19173" lon="6.50692">
        <ele>721.2</ele>
        <time>2020-05-22T14:35:39Z</time>
      </trkpt>
      <trkpt lat="47.19173" lon="6.50687">
        <ele>721.2</ele>
        <time>2020-05-22T14:35:40Z</time>
      </trkpt>
      <trkpt lat="47.19172" lon="6.50682">
        <ele>721.4</ele>
        <time>2020-05-22T14:35:41Z</time>
      </trkpt>
      <trkpt lat="47.19171" lon="6.50678">
        <ele>721.4</ele>
        <time>2020-05-22T14:35:42Z</time>
      </trkpt>
      <trkpt lat="47.1917" lon="6.50673">
        <ele>721.4</ele>
        <time>2020-05-22T14:35:43Z</time>
      </trkpt>
      <trkpt lat="47.19169" lon="6.50668">
        <ele>721.4</ele>
        <time>2020-05-22T14:35:44Z</time>
      </trkpt>
      <trkpt lat="47.19168" lon="6.50664">
        <ele>721.8</ele>
        <time>2020-05-22T14:35:45Z</time>
      </trkpt>
      <trkpt lat="47.19166" lon="6.5066">
        <ele>721.8</ele>
        <time>2020-05-22T14:35:46Z</time>
      </trkpt>
      <trkpt lat="47.19165" lon="6.50656">
        <ele>721.8</ele>
        <time>2020-05-22T14:35:47Z</time>
      </trkpt>
      <trkpt lat="47.19163" lon="6.50653">
        <ele>722</ele>
        <time>2020-05-22T14:35:48Z</time>
      </trkpt>
      <trkpt lat="47.19162" lon="6.50649">
        <ele>722</ele>
        <time>2020-05-22T14:35:49Z</time>
      </trkpt>
      <trkpt lat="47.1916" lon="6.50645">
        <ele>722</ele>
        <time>2020-05-22T14:35:50Z</time>
      </trkpt>
      <trkpt lat="47.19159" lon="6.50641">
        <ele>722.2</ele>
        <time>2020-05-22T14:35:51Z</time>
      </trkpt>
      <trkpt lat="47.19157" lon="6.50637">
        <ele>722.2</ele>
        <time>2020-05-22T14:35:52Z</time>
      </trkpt>
      <trkpt lat="47.19155" lon="6.50633">
        <ele>722.6</ele>
        <time>2020-05-22T14:35:53Z</time>
      </trkpt>
      <trkpt lat="47.19153" lon="6.50629">
        <ele>722.6</ele>
        <time>2020-05-22T14:35:54Z</time>
      </trkpt>
      <trkpt lat="47.19151" lon="6.50626">
        <ele>722.6</ele>
        <time>2020-05-22T14:35:55Z</time>
      </trkpt>
      <trkpt lat="47.19149" lon="6.50622">
        <ele>722.8</ele>
        <time>2020-05-22T14:35:56Z</time>
      </trkpt>
      <trkpt lat="47.19147" lon="6.50618">
        <ele>722.8</ele>
        <time>2020-05-22T14:35:57Z</time>
      </trkpt>
      <trkpt lat="47.19144" lon="6.50615">
        <ele>723.2</ele>
        <time>2020-05-22T14:35:58Z</time>
      </trkpt>
      <trkpt lat="47.19142" lon="6.50612">
        <ele>723.2</ele>
        <time>2020-05-22T14:35:59Z</time>
      </trkpt>
      <trkpt lat="47.1914" lon="6.50608">
        <ele>723.4</ele>
        <time>2020-05-22T14:36:00Z</time>
      </trkpt>
      <trkpt lat="47.19137" lon="6.50605">
        <ele>723.4</ele>
        <time>2020-05-22T14:36:01Z</time>
      </trkpt>
      <trkpt lat="47.19135" lon="6.50602">
        <ele>723.6</ele>
        <time>2020-05-22T14:36:02Z</time>
      </trkpt>
      <trkpt lat="47.19133" lon="6.50599">
        <ele>723.6</ele>
        <time>2020-05-22T14:36:03Z</time>
      </trkpt>
      <trkpt lat="47.19131" lon="6.50597">
        <ele>723.8</ele>
        <time>2020-05-22T14:36:04Z</time>
      </trkpt>
      <trkpt lat="47.19128" lon="6.50594">
        <ele>723.8</ele>
        <time>2020-05-22T14:36:05Z</time>
      </trkpt>
      <trkpt lat="47.19126" lon="6.50591">
        <ele>723.8</ele>
        <time>2020-05-22T14:36:06Z</time>
      </trkpt>
      <trkpt lat="47.19124" lon="6.50589">
        <ele>724</ele>
        <time>2020-05-22T14:36:07Z</time>
      </trkpt>
      <trkpt lat="47.19121" lon="6.50586">
        <ele>724</ele>
        <time>2020-05-22T14:36:08Z</time>
      </trkpt>
      <trkpt lat="47.19119" lon="6.50583">
        <ele>724.4</ele>
        <time>2020-05-22T14:36:09Z</time>
      </trkpt>
      <trkpt lat="47.19117" lon="6.5058">
        <ele>724.4</ele>
        <time>2020-05-22T14:36:10Z</time>
      </trkpt>
      <trkpt lat="47.19115" lon="6.50578">
        <ele>724.4</ele>
        <time>2020-05-22T14:36:11Z</time>
      </trkpt>
      <trkpt lat="47.19112" lon="6.50575">
        <ele>724.6</ele>
        <time>2020-05-22T14:36:12Z</time>
      </trkpt>
      <trkpt lat="47.1911" lon="6.50573">
        <ele>724.6</ele>
        <time>2020-05-22T14:36:13Z</time>
      </trkpt>
      <trkpt lat="47.19108" lon="6.5057">
        <ele>724.8</ele>
        <time>2020-05-22T14:36:14Z</time>
      </trkpt>
      <trkpt lat="47.19106" lon="6.50567">
        <ele>724.8</ele>
        <time>2020-05-22T14:36:15Z</time>
      </trkpt>
      <trkpt lat="47.19104" lon="6.50565">
        <ele>724.8</ele>
        <time>2020-05-22T14:36:16Z</time>
      </trkpt>
      <trkpt lat="47.19102" lon="6.50562">
        <ele>725.2</ele>
        <time>2020-05-22T14:36:17Z</time>
      </trkpt>
      <trkpt lat="47.191" lon="6.5056">
        <ele>725.2</ele>
        <time>2020-05-22T14:36:18Z</time>
      </trkpt>
      <trkpt lat="47.19098" lon="6.50557">
        <ele>725.2</ele>
        <time>2020-05-22T14:36:19Z</time>
      </trkpt>
      <trkpt lat="47.19095" lon="6.50555">
        <ele>725.4</ele>
        <time>2020-05-22T14:36:20Z</time>
      </trkpt>
      <trkpt lat="47.19094" lon="6.50552">
        <ele>725.4</ele>
        <time>2020-05-22T14:36:21Z</time>
      </trkpt>
      <trkpt lat="47.19092" lon="6.50549">
        <ele>725.4</ele>
        <time>2020-05-22T14:36:22Z</time>
      </trkpt>
      <trkpt lat="47.1909" lon="6.50547">
        <ele>725.6</ele>
        <time>2020-05-22T14:36:23Z</time>
      </trkpt>
      <trkpt lat="47.19088" lon="6.50544">
        <ele>725.6</ele>
        <time>2020-05-22T14:36:24Z</time>
      </trkpt>
      <trkpt lat="47.19086" lon="6.50542">
        <ele>726</ele>
        <time>2020-05-22T14:36:25Z</time>
      </trkpt>
      <trkpt lat="47.19084" lon="6.50539">
        <ele>726</ele>
        <time>2020-05-22T14:36:26Z</time>
      </trkpt>
      <trkpt lat="47.19083" lon="6.50536">
        <ele>726</ele>
        <time>2020-05-22T14:36:27Z</time>
      </trkpt>
      <trkpt lat="47.19081" lon="6.50533">
        <ele>726</ele>
        <time>2020-05-22T14:36:28Z</time>
      </trkpt>
      <trkpt lat="47.19079" lon="6.5053">
        <ele>726.2</ele>
        <time>2020-05-22T14:36:29Z</time>
      </trkpt>
      <trkpt lat="47.19078" lon="6.50527">
        <ele>726.2</ele>
        <time>2020-05-22T14:36:30Z</time>
      </trkpt>
      <trkpt lat="47.19076" lon="6.50524">
        <ele>726.6</ele>
        <time>2020-05-22T14:36:31Z</time>
      </trkpt>
      <trkpt lat="47.19074" lon="6.5052">
        <ele>726.6</ele>
        <time>2020-05-22T14:36:32Z</time>
      </trkpt>
      <trkpt lat="47.19073" lon="6.50517">
        <ele>726.8</ele>
        <time>2020-05-22T14:36:33Z</time>
      </trkpt>
      <trkpt lat="47.19071" lon="6.50513">
        <ele>726.8</ele>
        <time>2020-05-22T14:36:34Z</time>
      </trkpt>
      <trkpt lat="47.1907" lon="6.5051">
        <ele>726.8</ele>
        <time>2020-05-22T14:36:35Z</time>
      </trkpt>
      <trkpt lat="47.19068" lon="6.50506">
        <ele>727</ele>
        <time>2020-05-22T14:36:36Z</time>
      </trkpt>
      <trkpt lat="47.19067" lon="6.50503">
        <ele>727</ele>
        <time>2020-05-22T14:36:37Z</time>
      </trkpt>
      <trkpt lat="47.19066" lon="6.505">
        <ele>727.2</ele>
        <time>2020-05-22T14:36:38Z</time>
      </trkpt>
      <trkpt lat="47.19064" lon="6.50496">
        <ele>727.4</ele>
        <time>2020-05-22T14:36:39Z</time>
      </trkpt>
      <trkpt lat="47.19063" lon="6.50493">
        <ele>727.4</ele>
        <time>2020-05-22T14:36:40Z</time>
      </trkpt>
      <trkpt lat="47.19061" lon="6.5049">
        <ele>727.6</ele>
        <time>2020-05-22T14:36:41Z</time>
      </trkpt>
      <trkpt lat="47.1906" lon="6.50486">
        <ele>727.6</ele>
        <time>2020-05-22T14:36:42Z</time>
      </trkpt>
      <trkpt lat="47.19059" lon="6.50483">
        <ele>728</ele>
        <time>2020-05-22T14:36:43Z</time>
      </trkpt>
      <trkpt lat="47.19058" lon="6.50479">
        <ele>728</ele>
        <time>2020-05-22T14:36:44Z</time>
      </trkpt>
      <trkpt lat="47.19056" lon="6.50476">
        <ele>728.2</ele>
        <time>2020-05-22T14:36:45Z</time>
      </trkpt>
      <trkpt lat="47.19055" lon="6.50473">
        <ele>728.2</ele>
        <time>2020-05-22T14:36:46Z</time>
      </trkpt>
      <trkpt lat="47.19054" lon="6.50469">
        <ele>728.2</ele>
        <time>2020-05-22T14:36:47Z</time>
      </trkpt>
      <trkpt lat="47.19052" lon="6.50466">
        <ele>728.2</ele>
        <time>2020-05-22T14:36:48Z</time>
      </trkpt>
      <trkpt lat="47.19051" lon="6.50463">
        <ele>728.6</ele>
        <time>2020-05-22T14:36:49Z</time>
      </trkpt>
      <trkpt lat="47.1905" lon="6.50459">
        <ele>728.6</ele>
        <time>2020-05-22T14:36:50Z</time>
      </trkpt>
      <trkpt lat="47.19049" lon="6.50456">
        <ele>728.8</ele>
        <time>2020-05-22T14:36:51Z</time>
      </trkpt>
      <trkpt lat="47.19047" lon="6.50452">
        <ele>729</ele>
        <time>2020-05-22T14:36:52Z</time>
      </trkpt>
      <trkpt lat="47.19046" lon="6.50449">
        <ele>729</ele>
        <time>2020-05-22T14:36:53Z</time>
      </trkpt>
      <trkpt lat="47.19045" lon="6.50445">
        <ele>729.2</ele>
        <time>2020-05-22T14:36:54Z</time>
      </trkpt>
      <trkpt lat="47.19044" lon="6.50442">
        <ele>729.2</ele>
        <time>2020-05-22T14:36:55Z</time>
      </trkpt>
      <trkpt lat="47.19043" lon="6.50439">
        <ele>729.4</ele>
        <time>2020-05-22T14:36:56Z</time>
      </trkpt>
      <trkpt lat="47.19041" lon="6.50436">
        <ele>729.4</ele>
        <time>2020-05-22T14:36:57Z</time>
      </trkpt>
      <trkpt lat="47.1904" lon="6.50432">
        <ele>729.6</ele>
        <time>2020-05-22T14:36:58Z</time>
      </trkpt>
      <trkpt lat="47.19039" lon="6.50429">
        <ele>729.6</ele>
        <time>2020-05-22T14:36:59Z</time>
      </trkpt>
      <trkpt lat="47.19038" lon="6.50426">
        <ele>729.6</ele>
        <time>2020-05-22T14:37:00Z</time>
      </trkpt>
      <trkpt lat="47.19037" lon="6.50423">
        <ele>729.8</ele>
        <time>2020-05-22T14:37:01Z</time>
      </trkpt>
      <trkpt lat="47.19036" lon="6.50419">
        <ele>729.8</ele>
        <time>2020-05-22T14:37:02Z</time>
      </trkpt>
      <trkpt lat="47.19035" lon="6.50416">
        <ele>729.8</ele>
        <time>2020-05-22T14:37:03Z</time>
      </trkpt>
      <trkpt lat="47.19034" lon="6.50413">
        <ele>730.2</ele>
        <time>2020-05-22T14:37:04Z</time>
      </trkpt>
      <trkpt lat="47.19032" lon="6.5041">
        <ele>730.2</ele>
        <time>2020-05-22T14:37:05Z</time>
      </trkpt>
      <trkpt lat="47.19031" lon="6.50407">
        <ele>730.2</ele>
        <time>2020-05-22T14:37:06Z</time>
      </trkpt>
      <trkpt lat="47.1903" lon="6.50404">
        <ele>730.6</ele>
        <time>2020-05-22T14:37:07Z</time>
      </trkpt>
      <trkpt lat="47.19029" lon="6.50401">
        <ele>730.6</ele>
        <time>2020-05-22T14:37:08Z</time>
      </trkpt>
      <trkpt lat="47.19028" lon="6.50397">
        <ele>730.6</ele>
        <time>2020-05-22T14:37:09Z</time>
      </trkpt>
      <trkpt lat="47.19027" lon="6.50394">
        <ele>730.8</ele>
        <time>2020-05-22T14:37:10Z</time>
      </trkpt>
      <trkpt lat="47.19025" lon="6.50391">
        <ele>730.8</ele>
        <time>2020-05-22T14:37:11Z</time>
      </trkpt>
      <trkpt lat="47.19024" lon="6.50388">
        <ele>731</ele>
        <time>2020-05-22T14:37:12Z</time>
      </trkpt>
      <trkpt lat="47.19023" lon="6.50384">
        <ele>731</ele>
        <time>2020-05-22T14:37:13Z</time>
      </trkpt>
      <trkpt lat="47.19022" lon="6.50381">
        <ele>731</ele>
        <time>2020-05-22T14:37:14Z</time>
      </trkpt>
      <trkpt lat="47.19021" lon="6.50378">
        <ele>731.4</ele>
        <time>2020-05-22T14:37:15Z</time>
      </trkpt>
      <trkpt lat="47.19019" lon="6.50374">
        <ele>731.4</ele>
        <time>2020-05-22T14:37:16Z</time>
      </trkpt>
      <trkpt lat="47.19018" lon="6.50371">
        <ele>731.6</ele>
        <time>2020-05-22T14:37:17Z</time>
      </trkpt>
      <trkpt lat="47.19017" lon="6.50368">
        <ele>731.6</ele>
        <time>2020-05-22T14:37:18Z</time>
      </trkpt>
      <trkpt lat="47.19016" lon="6.50364">
        <ele>731.8</ele>
        <time>2020-05-22T14:37:19Z</time>
      </trkpt>
      <trkpt lat="47.19015" lon="6.50361">
        <ele>731.8</ele>
        <time>2020-05-22T14:37:20Z</time>
      </trkpt>
      <trkpt lat="47.19013" lon="6.50358">
        <ele>731.8</ele>
        <time>2020-05-22T14:37:21Z</time>
      </trkpt>
      <trkpt lat="47.19012" lon="6.50354">
        <ele>732</ele>
        <time>2020-05-22T14:37:22Z</time>
      </trkpt>
      <trkpt lat="47.19011" lon="6.50351">
        <ele>732</ele>
        <time>2020-05-22T14:37:23Z</time>
      </trkpt>
      <trkpt lat="47.1901" lon="6.50348">
        <ele>732.4</ele>
        <time>2020-05-22T14:37:24Z</time>
      </trkpt>
      <trkpt lat="47.19008" lon="6.50345">
        <ele>732.4</ele>
        <time>2020-05-22T14:37:25Z</time>
      </trkpt>
      <trkpt lat="47.19007" lon="6.50342">
        <ele>732.6</ele>
        <time>2020-05-22T14:37:26Z</time>
      </trkpt>
      <trkpt lat="47.19005" lon="6.50338">
        <ele>732.6</ele>
        <time>2020-05-22T14:37:27Z</time>
      </trkpt>
      <trkpt lat="47.19004" lon="6.50335">
        <ele>732.8</ele>
        <time>2020-05-22T14:37:28Z</time>
      </trkpt>
      <trkpt lat="47.19002" lon="6.50332">
        <ele>732.8</ele>
        <time>2020-05-22T14:37:29Z</time>
      </trkpt>
      <trkpt lat="47.19001" lon="6.50328">
        <ele>733.2</ele>
        <time>2020-05-22T14:37:30Z</time>
      </trkpt>
      <trkpt lat="47.18999" lon="6.50325">
        <ele>733.2</ele>
        <time>2020-05-22T14:37:31Z</time>
      </trkpt>
      <trkpt lat="47.18998" lon="6.50322">
        <ele>733.4</ele>
        <time>2020-05-22T14:37:32Z</time>
      </trkpt>
      <trkpt lat="47.18996" lon="6.50318">
        <ele>733.4</ele>
        <time>2020-05-22T14:37:33Z</time>
      </trkpt>
      <trkpt lat="47.18995" lon="6.50315">
        <ele>733.6</ele>
        <time>2020-05-22T14:37:34Z</time>
      </trkpt>
      <trkpt lat="47.18993" lon="6.50311">
        <ele>733.6</ele>
        <time>2020-05-22T14:37:35Z</time>
      </trkpt>
      <trkpt lat="47.18992" lon="6.50308">
        <ele>734</ele>
        <time>2020-05-22T14:37:36Z</time>
      </trkpt>
      <trkpt lat="47.1899" lon="6.50305">
        <ele>734</ele>
        <time>2020-05-22T14:37:37Z</time>
      </trkpt>
      <trkpt lat="47.18989" lon="6.50301">
        <ele>734</ele>
        <time>2020-05-22T14:37:38Z</time>
      </trkpt>
      <trkpt lat="47.18987" lon="6.50298">
        <ele>734</ele>
        <time>2020-05-22T14:37:39Z</time>
      </trkpt>
      <trkpt lat="47.18986" lon="6.50294">
        <ele>734.2</ele>
        <time>2020-05-22T14:37:40Z</time>
      </trkpt>
      <trkpt lat="47.18984" lon="6.50291">
        <ele>734.2</ele>
        <time>2020-05-22T14:37:41Z</time>
      </trkpt>
      <trkpt lat="47.18983" lon="6.50288">
        <ele>734.2</ele>
        <time>2020-05-22T14:37:42Z</time>
      </trkpt>
      <trkpt lat="47.18981" lon="6.50285">
        <ele>734.4</ele>
        <time>2020-05-22T14:37:43Z</time>
      </trkpt>
      <trkpt lat="47.1898" lon="6.50282">
        <ele>734.4</ele>
        <time>2020-05-22T14:37:44Z</time>
      </trkpt>
      <trkpt lat="47.18979" lon="6.50279">
        <ele>734.4</ele>
        <time>2020-05-22T14:37:45Z</time>
      </trkpt>
      <trkpt lat="47.18977" lon="6.50276">
        <ele>734.6</ele>
        <time>2020-05-22T14:37:46Z</time>
      </trkpt>
      <trkpt lat="47.18976" lon="6.50273">
        <ele>734.6</ele>
        <time>2020-05-22T14:37:47Z</time>
      </trkpt>
      <trkpt lat="47.18974" lon="6.5027">
        <ele>734.6</ele>
        <time>2020-05-22T14:37:48Z</time>
      </trkpt>
      <trkpt lat="47.18973" lon="6.50267">
        <ele>735</ele>
        <time>2020-05-22T14:37:49Z</time>
      </trkpt>
      <trkpt lat="47.18971" lon="6.50263">
        <ele>735</ele>
        <time>2020-05-22T14:37:50Z</time>
      </trkpt>
      <trkpt lat="47.1897" lon="6.5026">
        <ele>735</ele>
        <time>2020-05-22T14:37:51Z</time>
      </trkpt>
      <trkpt lat="47.18968" lon="6.50257">
        <ele>735</ele>
        <time>2020-05-22T14:37:52Z</time>
      </trkpt>
      <trkpt lat="47.18967" lon="6.50254">
        <ele>735.2</ele>
        <time>2020-05-22T14:37:53Z</time>
      </trkpt>
      <trkpt lat="47.18965" lon="6.5025">
        <ele>735.2</ele>
        <time>2020-05-22T14:37:54Z</time>
      </trkpt>
      <trkpt lat="47.18964" lon="6.50247">
        <ele>735.2</ele>
        <time>2020-05-22T14:37:55Z</time>
      </trkpt>
      <trkpt lat="47.18962" lon="6.50243">
        <ele>735.4</ele>
        <time>2020-05-22T14:37:56Z</time>
      </trkpt>
      <trkpt lat="47.18961" lon="6.5024">
        <ele>735.4</ele>
        <time>2020-05-22T14:37:57Z</time>
      </trkpt>
      <trkpt lat="47.18959" lon="6.50237">
        <ele>735.4</ele>
        <time>2020-05-22T14:37:58Z</time>
      </trkpt>
      <trkpt lat="47.18957" lon="6.50233">
        <ele>735.4</ele>
        <time>2020-05-22T14:37:59Z</time>
      </trkpt>
      <trkpt lat="47.18956" lon="6.5023">
        <ele>735.6</ele>
        <time>2020-05-22T14:38:00Z</time>
      </trkpt>
      <trkpt lat="47.18954" lon="6.50226">
        <ele>735.6</ele>
        <time>2020-05-22T14:38:01Z</time>
      </trkpt>
      <trkpt lat="47.18953" lon="6.50223">
        <ele>735.6</ele>
        <time>2020-05-22T14:38:02Z</time>
      </trkpt>
      <trkpt lat="47.18951" lon="6.50219">
        <ele>736</ele>
        <time>2020-05-22T14:38:03Z</time>
      </trkpt>
      <trkpt lat="47.18949" lon="6.50215">
        <ele>736</ele>
        <time>2020-05-22T14:38:04Z</time>
      </trkpt>
      <trkpt lat="47.18948" lon="6.50212">
        <ele>736.2</ele>
        <time>2020-05-22T14:38:05Z</time>
      </trkpt>
      <trkpt lat="47.18946" lon="6.50208">
        <ele>736.2</ele>
        <time>2020-05-22T14:38:06Z</time>
      </trkpt>
      <trkpt lat="47.18944" lon="6.50204">
        <ele>736.2</ele>
        <time>2020-05-22T14:38:07Z</time>
      </trkpt>
      <trkpt lat="47.18943" lon="6.502">
        <ele>736.2</ele>
        <time>2020-05-22T14:38:08Z</time>
      </trkpt>
      <trkpt lat="47.18941" lon="6.50197">
        <ele>736.4</ele>
        <time>2020-05-22T14:38:09Z</time>
      </trkpt>
      <trkpt lat="47.18939" lon="6.50193">
        <ele>736.4</ele>
        <time>2020-05-22T14:38:10Z</time>
      </trkpt>
      <trkpt lat="47.18938" lon="6.5019">
        <ele>736.4</ele>
        <time>2020-05-22T14:38:11Z</time>
      </trkpt>
      <trkpt lat="47.18936" lon="6.50186">
        <ele>736.4</ele>
        <time>2020-05-22T14:38:12Z</time>
      </trkpt>
      <trkpt lat="47.18934" lon="6.50182">
        <ele>736.4</ele>
        <time>2020-05-22T14:38:13Z</time>
      </trkpt>
      <trkpt lat="47.18933" lon="6.50178">
        <ele>736.4</ele>
        <time>2020-05-22T14:38:14Z</time>
      </trkpt>
      <trkpt lat="47.18931" lon="6.50174">
        <ele>736.4</ele>
        <time>2020-05-22T14:38:15Z</time>
      </trkpt>
      <trkpt lat="47.18929" lon="6.5017">
        <ele>736.4</ele>
        <time>2020-05-22T14:38:16Z</time>
      </trkpt>
      <trkpt lat="47.18927" lon="6.50166">
        <ele>736.2</ele>
        <time>2020-05-22T14:38:17Z</time>
      </trkpt>
      <trkpt lat="47.18925" lon="6.50162">
        <ele>736.2</ele>
        <time>2020-05-22T14:38:18Z</time>
      </trkpt>
      <trkpt lat="47.18924" lon="6.50158">
        <ele>736.2</ele>
        <time>2020-05-22T14:38:19Z</time>
      </trkpt>
      <trkpt lat="47.18922" lon="6.50154">
        <ele>736.2</ele>
        <time>2020-05-22T14:38:20Z</time>
      </trkpt>
      <trkpt lat="47.1892" lon="6.5015">
        <ele>736.2</ele>
        <time>2020-05-22T14:38:21Z</time>
      </trkpt>
      <trkpt lat="47.18918" lon="6.50145">
        <ele>736.2</ele>
        <time>2020-05-22T14:38:22Z</time>
      </trkpt>
      <trkpt lat="47.18916" lon="6.50141">
        <ele>736.2</ele>
        <time>2020-05-22T14:38:23Z</time>
      </trkpt>
      <trkpt lat="47.18914" lon="6.50137">
        <ele>736.2</ele>
        <time>2020-05-22T14:38:24Z</time>
      </trkpt>
      <trkpt lat="47.18913" lon="6.50132">
        <ele>736.2</ele>
        <time>2020-05-22T14:38:25Z</time>
      </trkpt>
      <trkpt lat="47.18911" lon="6.50128">
        <ele>736.2</ele>
        <time>2020-05-22T14:38:26Z</time>
      </trkpt>
      <trkpt lat="47.18909" lon="6.50123">
        <ele>736.2</ele>
        <time>2020-05-22T14:38:27Z</time>
      </trkpt>
      <trkpt lat="47.18907" lon="6.50119">
        <ele>736.2</ele>
        <time>2020-05-22T14:38:28Z</time>
      </trkpt>
      <trkpt lat="47.18905" lon="6.50114">
        <ele>736.2</ele>
        <time>2020-05-22T14:38:29Z</time>
      </trkpt>
      <trkpt lat="47.18903" lon="6.50109">
        <ele>736.2</ele>
        <time>2020-05-22T14:38:30Z</time>
      </trkpt>
      <trkpt lat="47.18901" lon="6.50104">
        <ele>736.2</ele>
        <time>2020-05-22T14:38:31Z</time>
      </trkpt>
      <trkpt lat="47.18899" lon="6.50099">
        <ele>736.2</ele>
        <time>2020-05-22T14:38:32Z</time>
      </trkpt>
      <trkpt lat="47.18897" lon="6.50095">
        <ele>736.2</ele>
        <time>2020-05-22T14:38:33Z</time>
      </trkpt>
      <trkpt lat="47.18896" lon="6.5009">
        <ele>736.2</ele>
        <time>2020-05-22T14:38:34Z</time>
      </trkpt>
      <trkpt lat="47.18894" lon="6.50085">
        <ele>736.2</ele>
        <time>2020-05-22T14:38:35Z</time>
      </trkpt>
      <trkpt lat="47.18892" lon="6.5008">
        <ele>736.2</ele>
        <time>2020-05-22T14:38:36Z</time>
      </trkpt>
      <trkpt lat="47.1889" lon="6.50075">
        <ele>736.2</ele>
        <time>2020-05-22T14:38:37Z</time>
      </trkpt>
      <trkpt lat="47.18887" lon="6.5007">
        <ele>736.2</ele>
        <time>2020-05-22T14:38:38Z</time>
      </trkpt>
      <trkpt lat="47.18885" lon="6.50065">
        <ele>736.2</ele>
        <time>2020-05-22T14:38:39Z</time>
      </trkpt>
      <trkpt lat="47.18883" lon="6.50059">
        <ele>736.2</ele>
        <time>2020-05-22T14:38:40Z</time>
      </trkpt>
      <trkpt lat="47.18881" lon="6.50054">
        <ele>736.2</ele>
        <time>2020-05-22T14:38:41Z</time>
      </trkpt>
      <trkpt lat="47.18879" lon="6.50048">
        <ele>736.2</ele>
        <time>2020-05-22T14:38:42Z</time>
      </trkpt>
      <trkpt lat="47.18876" lon="6.50043">
        <ele>736.2</ele>
        <time>2020-05-22T14:38:43Z</time>
      </trkpt>
      <trkpt lat="47.18874" lon="6.50038">
        <ele>736.2</ele>
        <time>2020-05-22T14:38:44Z</time>
      </trkpt>
      <trkpt lat="47.18872" lon="6.50032">
        <ele>736.2</ele>
        <time>2020-05-22T14:38:45Z</time>
      </trkpt>
      <trkpt lat="47.18869" lon="6.50026">
        <ele>736</ele>
        <time>2020-05-22T14:38:46Z</time>
      </trkpt>
      <trkpt lat="47.18867" lon="6.5002">
        <ele>736</ele>
        <time>2020-05-22T14:38:47Z</time>
      </trkpt>
      <trkpt lat="47.18864" lon="6.50014">
        <ele>735.8</ele>
        <time>2020-05-22T14:38:48Z</time>
      </trkpt>
      <trkpt lat="47.18862" lon="6.50008">
        <ele>735.8</ele>
        <time>2020-05-22T14:38:49Z</time>
      </trkpt>
      <trkpt lat="47.18859" lon="6.50001">
        <ele>735.4</ele>
        <time>2020-05-22T14:38:50Z</time>
      </trkpt>
      <trkpt lat="47.18856" lon="6.49995">
        <ele>735.4</ele>
        <time>2020-05-22T14:38:51Z</time>
      </trkpt>
      <trkpt lat="47.18854" lon="6.49988">
        <ele>735.2</ele>
        <time>2020-05-22T14:38:52Z</time>
      </trkpt>
      <trkpt lat="47.18851" lon="6.4998">
        <ele>735.2</ele>
        <time>2020-05-22T14:38:53Z</time>
      </trkpt>
      <trkpt lat="47.18848" lon="6.49973">
        <ele>734.8</ele>
        <time>2020-05-22T14:38:54Z</time>
      </trkpt>
      <trkpt lat="47.18845" lon="6.49966">
        <ele>734.8</ele>
        <time>2020-05-22T14:38:55Z</time>
      </trkpt>
      <trkpt lat="47.18842" lon="6.49959">
        <ele>734.8</ele>
        <time>2020-05-22T14:38:56Z</time>
      </trkpt>
      <trkpt lat="47.18839" lon="6.49951">
        <ele>734.6</ele>
        <time>2020-05-22T14:38:57Z</time>
      </trkpt>
      <trkpt lat="47.18836" lon="6.49944">
        <ele>734.6</ele>
        <time>2020-05-22T14:38:58Z</time>
      </trkpt>
      <trkpt lat="47.18833" lon="6.49936">
        <ele>734.4</ele>
        <time>2020-05-22T14:38:59Z</time>
      </trkpt>
      <trkpt lat="47.1883" lon="6.49928">
        <ele>734.4</ele>
        <time>2020-05-22T14:39:00Z</time>
      </trkpt>
      <trkpt lat="47.18826" lon="6.49919">
        <ele>734.4</ele>
        <time>2020-05-22T14:39:01Z</time>
      </trkpt>
      <trkpt lat="47.18823" lon="6.49911">
        <ele>734.4</ele>
        <time>2020-05-22T14:39:02Z</time>
      </trkpt>
      <trkpt lat="47.1882" lon="6.49902">
        <ele>734.4</ele>
        <time>2020-05-22T14:39:03Z</time>
      </trkpt>
      <trkpt lat="47.18817" lon="6.49894">
        <ele>734</ele>
        <time>2020-05-22T14:39:04Z</time>
      </trkpt>
      <trkpt lat="47.18814" lon="6.49885">
        <ele>734</ele>
        <time>2020-05-22T14:39:05Z</time>
      </trkpt>
      <trkpt lat="47.18811" lon="6.49876">
        <ele>733.8</ele>
        <time>2020-05-22T14:39:06Z</time>
      </trkpt>
      <trkpt lat="47.18808" lon="6.49867">
        <ele>733.8</ele>
        <time>2020-05-22T14:39:07Z</time>
      </trkpt>
      <trkpt lat="47.18805" lon="6.49858">
        <ele>733.8</ele>
        <time>2020-05-22T14:39:08Z</time>
      </trkpt>
      <trkpt lat="47.18802" lon="6.49849">
        <ele>733.8</ele>
        <time>2020-05-22T14:39:09Z</time>
      </trkpt>
      <trkpt lat="47.18799" lon="6.4984">
        <ele>733.4</ele>
        <time>2020-05-22T14:39:10Z</time>
      </trkpt>
      <trkpt lat="47.18796" lon="6.49831">
        <ele>733.4</ele>
        <time>2020-05-22T14:39:11Z</time>
      </trkpt>
      <trkpt lat="47.18792" lon="6.49822">
        <ele>733</ele>
        <time>2020-05-22T14:39:12Z</time>
      </trkpt>
      <trkpt lat="47.18789" lon="6.49812">
        <ele>733</ele>
        <time>2020-05-22T14:39:13Z</time>
      </trkpt>
      <trkpt lat="47.18786" lon="6.49803">
        <ele>732.6</ele>
        <time>2020-05-22T14:39:14Z</time>
      </trkpt>
      <trkpt lat="47.18783" lon="6.49793">
        <ele>732.4</ele>
        <time>2020-05-22T14:39:15Z</time>
      </trkpt>
      <trkpt lat="47.1878" lon="6.49784">
        <ele>732.4</ele>
        <time>2020-05-22T14:39:16Z</time>
      </trkpt>
      <trkpt lat="47.18776" lon="6.49774">
        <ele>732</ele>
        <time>2020-05-22T14:39:17Z</time>
      </trkpt>
      <trkpt lat="47.18773" lon="6.49765">
        <ele>732</ele>
        <time>2020-05-22T14:39:18Z</time>
      </trkpt>
      <trkpt lat="47.18769" lon="6.49755">
        <ele>731.8</ele>
        <time>2020-05-22T14:39:19Z</time>
      </trkpt>
      <trkpt lat="47.18765" lon="6.49746">
        <ele>731.8</ele>
        <time>2020-05-22T14:39:20Z</time>
      </trkpt>
      <trkpt lat="47.18761" lon="6.49737">
        <ele>731.8</ele>
        <time>2020-05-22T14:39:21Z</time>
      </trkpt>
      <trkpt lat="47.18756" lon="6.49728">
        <ele>731.2</ele>
        <time>2020-05-22T14:39:22Z</time>
      </trkpt>
      <trkpt lat="47.18751" lon="6.49719">
        <ele>731.2</ele>
        <time>2020-05-22T14:39:23Z</time>
      </trkpt>
      <trkpt lat="47.18746" lon="6.4971">
        <ele>731.2</ele>
        <time>2020-05-22T14:39:24Z</time>
      </trkpt>
      <trkpt lat="47.18741" lon="6.49702">
        <ele>731.2</ele>
        <time>2020-05-22T14:39:25Z</time>
      </trkpt>
      <trkpt lat="47.18736" lon="6.49694">
        <ele>731</ele>
        <time>2020-05-22T14:39:26Z</time>
      </trkpt>
      <trkpt lat="47.1873" lon="6.49686">
        <ele>731</ele>
        <time>2020-05-22T14:39:27Z</time>
      </trkpt>
      <trkpt lat="47.18724" lon="6.49678">
        <ele>731</ele>
        <time>2020-05-22T14:39:28Z</time>
      </trkpt>
      <trkpt lat="47.18719" lon="6.49671">
        <ele>730.8</ele>
        <time>2020-05-22T14:39:29Z</time>
      </trkpt>
      <trkpt lat="47.18713" lon="6.49664">
        <ele>730.8</ele>
        <time>2020-05-22T14:39:30Z</time>
      </trkpt>
      <trkpt lat="47.18707" lon="6.49657">
        <ele>730.4</ele>
        <time>2020-05-22T14:39:31Z</time>
      </trkpt>
      <trkpt lat="47.18701" lon="6.49651">
        <ele>730.4</ele>
        <time>2020-05-22T14:39:32Z</time>
      </trkpt>
      <trkpt lat="47.18696" lon="6.49645">
        <ele>730.4</ele>
        <time>2020-05-22T14:39:33Z</time>
      </trkpt>
      <trkpt lat="47.1869" lon="6.4964">
        <ele>730</ele>
        <time>2020-05-22T14:39:34Z</time>
      </trkpt>
      <trkpt lat="47.18684" lon="6.49634">
        <ele>730</ele>
        <time>2020-05-22T14:39:35Z</time>
      </trkpt>
      <trkpt lat="47.18679" lon="6.49628">
        <ele>729.8</ele>
        <time>2020-05-22T14:39:36Z</time>
      </trkpt>
      <trkpt lat="47.18674" lon="6.49623">
        <ele>729.8</ele>
        <time>2020-05-22T14:39:37Z</time>
      </trkpt>
      <trkpt lat="47.18668" lon="6.49618">
        <ele>729.8</ele>
        <time>2020-05-22T14:39:38Z</time>
      </trkpt>
      <trkpt lat="47.18663" lon="6.49613">
        <ele>729.8</ele>
        <time>2020-05-22T14:39:39Z</time>
      </trkpt>
      <trkpt lat="47.18659" lon="6.49608">
        <ele>729.8</ele>
        <time>2020-05-22T14:39:40Z</time>
      </trkpt>
      <trkpt lat="47.18654" lon="6.49603">
        <ele>729.4</ele>
        <time>2020-05-22T14:39:41Z</time>
      </trkpt>
      <trkpt lat="47.18649" lon="6.49598">
        <ele>729.4</ele>
        <time>2020-05-22T14:39:42Z</time>
      </trkpt>
      <trkpt lat="47.18645" lon="6.49593">
        <ele>729.4</ele>
        <time>2020-05-22T14:39:43Z</time>
      </trkpt>
      <trkpt lat="47.1864" lon="6.49589">
        <ele>729.4</ele>
        <time>2020-05-22T14:39:44Z</time>
      </trkpt>
      <trkpt lat="47.18636" lon="6.49584">
        <ele>729.4</ele>
        <time>2020-05-22T14:39:45Z</time>
      </trkpt>
      <trkpt lat="47.18632" lon="6.49579">
        <ele>729.6</ele>
        <time>2020-05-22T14:39:46Z</time>
      </trkpt>
      <trkpt lat="47.18629" lon="6.49574">
        <ele>729.6</ele>
        <time>2020-05-22T14:39:47Z</time>
      </trkpt>
      <trkpt lat="47.18626" lon="6.49569">
        <ele>729.6</ele>
        <time>2020-05-22T14:39:48Z</time>
      </trkpt>
      <trkpt lat="47.18622" lon="6.49564">
        <ele>729.6</ele>
        <time>2020-05-22T14:39:49Z</time>
      </trkpt>
      <trkpt lat="47.18619" lon="6.4956">
        <ele>729.6</ele>
        <time>2020-05-22T14:39:50Z</time>
      </trkpt>
      <trkpt lat="47.18616" lon="6.49555">
        <ele>729.6</ele>
        <time>2020-05-22T14:39:51Z</time>
      </trkpt>
      <trkpt lat="47.18613" lon="6.49551">
        <ele>729.6</ele>
        <time>2020-05-22T14:39:52Z</time>
      </trkpt>
      <trkpt lat="47.1861" lon="6.49546">
        <ele>729.6</ele>
        <time>2020-05-22T14:39:53Z</time>
      </trkpt>
      <trkpt lat="47.18607" lon="6.49542">
        <ele>730</ele>
        <time>2020-05-22T14:39:54Z</time>
      </trkpt>
      <trkpt lat="47.18605" lon="6.49537">
        <ele>730</ele>
        <time>2020-05-22T14:39:55Z</time>
      </trkpt>
      <trkpt lat="47.18602" lon="6.49533">
        <ele>730</ele>
        <time>2020-05-22T14:39:56Z</time>
      </trkpt>
      <trkpt lat="47.18599" lon="6.49528">
        <ele>730</ele>
        <time>2020-05-22T14:39:57Z</time>
      </trkpt>
      <trkpt lat="47.18597" lon="6.49524">
        <ele>730</ele>
        <time>2020-05-22T14:39:58Z</time>
      </trkpt>
      <trkpt lat="47.18594" lon="6.4952">
        <ele>730.2</ele>
        <time>2020-05-22T14:39:59Z</time>
      </trkpt>
      <trkpt lat="47.18592" lon="6.49516">
        <ele>730.2</ele>
        <time>2020-05-22T14:40:00Z</time>
      </trkpt>
      <trkpt lat="47.18589" lon="6.49512">
        <ele>730.2</ele>
        <time>2020-05-22T14:40:01Z</time>
      </trkpt>
      <trkpt lat="47.18586" lon="6.49507">
        <ele>730.2</ele>
        <time>2020-05-22T14:40:02Z</time>
      </trkpt>
      <trkpt lat="47.18584" lon="6.49503">
        <ele>730.2</ele>
        <time>2020-05-22T14:40:03Z</time>
      </trkpt>
      <trkpt lat="47.18581" lon="6.49499">
        <ele>730.2</ele>
        <time>2020-05-22T14:40:04Z</time>
      </trkpt>
      <trkpt lat="47.18578" lon="6.49494">
        <ele>730.2</ele>
        <time>2020-05-22T14:40:05Z</time>
      </trkpt>
      <trkpt lat="47.18575" lon="6.4949">
        <ele>730.2</ele>
        <time>2020-05-22T14:40:06Z</time>
      </trkpt>
      <trkpt lat="47.18572" lon="6.49485">
        <ele>730.2</ele>
        <time>2020-05-22T14:40:07Z</time>
      </trkpt>
      <trkpt lat="47.1857" lon="6.4948">
        <ele>730.2</ele>
        <time>2020-05-22T14:40:08Z</time>
      </trkpt>
      <trkpt lat="47.18567" lon="6.49475">
        <ele>730.4</ele>
        <time>2020-05-22T14:40:09Z</time>
      </trkpt>
      <trkpt lat="47.18564" lon="6.4947">
        <ele>730.4</ele>
        <time>2020-05-22T14:40:10Z</time>
      </trkpt>
      <trkpt lat="47.18561" lon="6.49465">
        <ele>730.4</ele>
        <time>2020-05-22T14:40:11Z</time>
      </trkpt>
      <trkpt lat="47.18558" lon="6.4946">
        <ele>730.4</ele>
        <time>2020-05-22T14:40:12Z</time>
      </trkpt>
      <trkpt lat="47.18555" lon="6.49455">
        <ele>730.4</ele>
        <time>2020-05-22T14:40:13Z</time>
      </trkpt>
      <trkpt lat="47.18552" lon="6.4945">
        <ele>730.2</ele>
        <time>2020-05-22T14:40:14Z</time>
      </trkpt>
      <trkpt lat="47.18549" lon="6.49445">
        <ele>730.2</ele>
        <time>2020-05-22T14:40:15Z</time>
      </trkpt>
      <trkpt lat="47.18546" lon="6.4944">
        <ele>730.2</ele>
        <time>2020-05-22T14:40:16Z</time>
      </trkpt>
      <trkpt lat="47.18543" lon="6.49435">
        <ele>730.2</ele>
        <time>2020-05-22T14:40:17Z</time>
      </trkpt>
      <trkpt lat="47.18541" lon="6.4943">
        <ele>730.2</ele>
        <time>2020-05-22T14:40:18Z</time>
      </trkpt>
      <trkpt lat="47.18538" lon="6.49425">
        <ele>730.4</ele>
        <time>2020-05-22T14:40:19Z</time>
      </trkpt>
      <trkpt lat="47.18535" lon="6.4942">
        <ele>730.4</ele>
        <time>2020-05-22T14:40:20Z</time>
      </trkpt>
      <trkpt lat="47.18531" lon="6.49415">
        <ele>730.4</ele>
        <time>2020-05-22T14:40:21Z</time>
      </trkpt>
      <trkpt lat="47.18528" lon="6.49409">
        <ele>730.4</ele>
        <time>2020-05-22T14:40:22Z</time>
      </trkpt>
      <trkpt lat="47.18525" lon="6.49404">
        <ele>730.4</ele>
        <time>2020-05-22T14:40:23Z</time>
      </trkpt>
      <trkpt lat="47.18522" lon="6.49398">
        <ele>730.4</ele>
        <time>2020-05-22T14:40:24Z</time>
      </trkpt>
      <trkpt lat="47.18518" lon="6.49392">
        <ele>730.4</ele>
        <time>2020-05-22T14:40:25Z</time>
      </trkpt>
      <trkpt lat="47.18515" lon="6.49387">
        <ele>730.4</ele>
        <time>2020-05-22T14:40:26Z</time>
      </trkpt>
      <trkpt lat="47.18512" lon="6.49381">
        <ele>730.4</ele>
        <time>2020-05-22T14:40:27Z</time>
      </trkpt>
      <trkpt lat="47.18508" lon="6.49375">
        <ele>730.4</ele>
        <time>2020-05-22T14:40:28Z</time>
      </trkpt>
      <trkpt lat="47.18505" lon="6.4937">
        <ele>730.4</ele>
        <time>2020-05-22T14:40:29Z</time>
      </trkpt>
      <trkpt lat="47.18502" lon="6.49364">
        <ele>730.4</ele>
        <time>2020-05-22T14:40:30Z</time>
      </trkpt>
      <trkpt lat="47.18499" lon="6.49359">
        <ele>730.4</ele>
        <time>2020-05-22T14:40:31Z</time>
      </trkpt>
      <trkpt lat="47.18495" lon="6.49353">
        <ele>730.4</ele>
        <time>2020-05-22T14:40:32Z</time>
      </trkpt>
      <trkpt lat="47.18492" lon="6.49348">
        <ele>730.4</ele>
        <time>2020-05-22T14:40:33Z</time>
      </trkpt>
      <trkpt lat="47.18489" lon="6.49342">
        <ele>730.4</ele>
        <time>2020-05-22T14:40:34Z</time>
      </trkpt>
      <trkpt lat="47.18486" lon="6.49337">
        <ele>730.4</ele>
        <time>2020-05-22T14:40:35Z</time>
      </trkpt>
      <trkpt lat="47.18483" lon="6.49332">
        <ele>730.4</ele>
        <time>2020-05-22T14:40:36Z</time>
      </trkpt>
      <trkpt lat="47.18479" lon="6.49326">
        <ele>730.4</ele>
        <time>2020-05-22T14:40:37Z</time>
      </trkpt>
      <trkpt lat="47.18476" lon="6.49321">
        <ele>730.2</ele>
        <time>2020-05-22T14:40:38Z</time>
      </trkpt>
      <trkpt lat="47.18473" lon="6.49316">
        <ele>730.2</ele>
        <time>2020-05-22T14:40:39Z</time>
      </trkpt>
      <trkpt lat="47.1847" lon="6.4931">
        <ele>730.2</ele>
        <time>2020-05-22T14:40:40Z</time>
      </trkpt>
      <trkpt lat="47.18467" lon="6.49305">
        <ele>730.2</ele>
        <time>2020-05-22T14:40:41Z</time>
      </trkpt>
      <trkpt lat="47.18464" lon="6.49299">
        <ele>730.2</ele>
        <time>2020-05-22T14:40:42Z</time>
      </trkpt>
      <trkpt lat="47.18461" lon="6.49294">
        <ele>730.2</ele>
        <time>2020-05-22T14:40:43Z</time>
      </trkpt>
      <trkpt lat="47.18457" lon="6.49288">
        <ele>730.2</ele>
        <time>2020-05-22T14:40:44Z</time>
      </trkpt>
      <trkpt lat="47.18454" lon="6.49283">
        <ele>730.4</ele>
        <time>2020-05-22T14:40:45Z</time>
      </trkpt>
      <trkpt lat="47.18451" lon="6.49278">
        <ele>730.4</ele>
        <time>2020-05-22T14:40:46Z</time>
      </trkpt>
      <trkpt lat="47.18447" lon="6.49272">
        <ele>730.4</ele>
        <time>2020-05-22T14:40:47Z</time>
      </trkpt>
      <trkpt lat="47.18444" lon="6.49267">
        <ele>730.4</ele>
        <time>2020-05-22T14:40:48Z</time>
      </trkpt>
      <trkpt lat="47.18441" lon="6.49262">
        <ele>730.4</ele>
        <time>2020-05-22T14:40:49Z</time>
      </trkpt>
      <trkpt lat="47.18437" lon="6.49257">
        <ele>730.4</ele>
        <time>2020-05-22T14:40:50Z</time>
      </trkpt>
      <trkpt lat="47.18433" lon="6.49251">
        <ele>730.2</ele>
        <time>2020-05-22T14:40:51Z</time>
      </trkpt>
      <trkpt lat="47.18429" lon="6.49246">
        <ele>730.2</ele>
        <time>2020-05-22T14:40:52Z</time>
      </trkpt>
      <trkpt lat="47.18425" lon="6.49241">
        <ele>730</ele>
        <time>2020-05-22T14:40:53Z</time>
      </trkpt>
      <trkpt lat="47.18421" lon="6.49235">
        <ele>730</ele>
        <time>2020-05-22T14:40:54Z</time>
      </trkpt>
      <trkpt lat="47.18417" lon="6.4923">
        <ele>729.6</ele>
        <time>2020-05-22T14:40:55Z</time>
      </trkpt>
      <trkpt lat="47.18412" lon="6.49225">
        <ele>729.6</ele>
        <time>2020-05-22T14:40:56Z</time>
      </trkpt>
      <trkpt lat="47.18407" lon="6.4922">
        <ele>729.6</ele>
        <time>2020-05-22T14:40:57Z</time>
      </trkpt>
      <trkpt lat="47.18403" lon="6.49215">
        <ele>729.6</ele>
        <time>2020-05-22T14:40:58Z</time>
      </trkpt>
      <trkpt lat="47.18398" lon="6.4921">
        <ele>729.6</ele>
        <time>2020-05-22T14:40:59Z</time>
      </trkpt>
      <trkpt lat="47.18393" lon="6.49205">
        <ele>729.4</ele>
        <time>2020-05-22T14:41:00Z</time>
      </trkpt>
      <trkpt lat="47.18388" lon="6.492">
        <ele>729.4</ele>
        <time>2020-05-22T14:41:01Z</time>
      </trkpt>
      <trkpt lat="47.18383" lon="6.49195">
        <ele>729</ele>
        <time>2020-05-22T14:41:02Z</time>
      </trkpt>
      <trkpt lat="47.18377" lon="6.4919">
        <ele>728.8</ele>
        <time>2020-05-22T14:41:03Z</time>
      </trkpt>
      <trkpt lat="47.18372" lon="6.49185">
        <ele>728.6</ele>
        <time>2020-05-22T14:41:04Z</time>
      </trkpt>
      <trkpt lat="47.18366" lon="6.4918">
        <ele>728.2</ele>
        <time>2020-05-22T14:41:05Z</time>
      </trkpt>
      <trkpt lat="47.1836" lon="6.49175">
        <ele>728</ele>
        <time>2020-05-22T14:41:06Z</time>
      </trkpt>
      <trkpt lat="47.18354" lon="6.49169">
        <ele>727.6</ele>
        <time>2020-05-22T14:41:07Z</time>
      </trkpt>
      <trkpt lat="47.18348" lon="6.49164">
        <ele>727.4</ele>
        <time>2020-05-22T14:41:08Z</time>
      </trkpt>
      <trkpt lat="47.18342" lon="6.49158">
        <ele>727</ele>
        <time>2020-05-22T14:41:09Z</time>
      </trkpt>
      <trkpt lat="47.18336" lon="6.49152">
        <ele>726.8</ele>
        <time>2020-05-22T14:41:10Z</time>
      </trkpt>
      <trkpt lat="47.18329" lon="6.49146">
        <ele>726.6</ele>
        <time>2020-05-22T14:41:11Z</time>
      </trkpt>
      <trkpt lat="47.18323" lon="6.4914">
        <ele>726.6</ele>
        <time>2020-05-22T14:41:12Z</time>
      </trkpt>
      <trkpt lat="47.18317" lon="6.49134">
        <ele>726.6</ele>
        <time>2020-05-22T14:41:13Z</time>
      </trkpt>
      <trkpt lat="47.1831" lon="6.49129">
        <ele>726.4</ele>
        <time>2020-05-22T14:41:14Z</time>
      </trkpt>
      <trkpt lat="47.18304" lon="6.49123">
        <ele>726.4</ele>
        <time>2020-05-22T14:41:15Z</time>
      </trkpt>
      <trkpt lat="47.18298" lon="6.49117">
        <ele>725.8</ele>
        <time>2020-05-22T14:41:16Z</time>
      </trkpt>
      <trkpt lat="47.18291" lon="6.49111">
        <ele>725.6</ele>
        <time>2020-05-22T14:41:17Z</time>
      </trkpt>
      <trkpt lat="47.18285" lon="6.49105">
        <ele>725.4</ele>
        <time>2020-05-22T14:41:18Z</time>
      </trkpt>
      <trkpt lat="47.18279" lon="6.49099">
        <ele>725</ele>
        <time>2020-05-22T14:41:19Z</time>
      </trkpt>
      <trkpt lat="47.18272" lon="6.49093">
        <ele>724.6</ele>
        <time>2020-05-22T14:41:20Z</time>
      </trkpt>
      <trkpt lat="47.18266" lon="6.49088">
        <ele>724.4</ele>
        <time>2020-05-22T14:41:21Z</time>
      </trkpt>
      <trkpt lat="47.18259" lon="6.49082">
        <ele>724</ele>
        <time>2020-05-22T14:41:22Z</time>
      </trkpt>
      <trkpt lat="47.18253" lon="6.49076">
        <ele>723.8</ele>
        <time>2020-05-22T14:41:23Z</time>
      </trkpt>
      <trkpt lat="47.18246" lon="6.4907">
        <ele>723.4</ele>
        <time>2020-05-22T14:41:24Z</time>
      </trkpt>
      <trkpt lat="47.1824" lon="6.49064">
        <ele>723</ele>
        <time>2020-05-22T14:41:25Z</time>
      </trkpt>
      <trkpt lat="47.18233" lon="6.49058">
        <ele>722.8</ele>
        <time>2020-05-22T14:41:26Z</time>
      </trkpt>
      <trkpt lat="47.18227" lon="6.49051">
        <ele>722.4</ele>
        <time>2020-05-22T14:41:27Z</time>
      </trkpt>
      <trkpt lat="47.1822" lon="6.49045">
        <ele>722.2</ele>
        <time>2020-05-22T14:41:28Z</time>
      </trkpt>
      <trkpt lat="47.18214" lon="6.49039">
        <ele>722.2</ele>
        <time>2020-05-22T14:41:29Z</time>
      </trkpt>
      <trkpt lat="47.18207" lon="6.49033">
        <ele>722.2</ele>
        <time>2020-05-22T14:41:30Z</time>
      </trkpt>
      <trkpt lat="47.18201" lon="6.49026">
        <ele>722</ele>
        <time>2020-05-22T14:41:31Z</time>
      </trkpt>
      <trkpt lat="47.18195" lon="6.4902">
        <ele>722</ele>
        <time>2020-05-22T14:41:32Z</time>
      </trkpt>
      <trkpt lat="47.1819" lon="6.49013">
        <ele>721.6</ele>
        <time>2020-05-22T14:41:33Z</time>
      </trkpt>
      <trkpt lat="47.18184" lon="6.49007">
        <ele>721.6</ele>
        <time>2020-05-22T14:41:34Z</time>
      </trkpt>
      <trkpt lat="47.18179" lon="6.49">
        <ele>721.6</ele>
        <time>2020-05-22T14:41:35Z</time>
      </trkpt>
      <trkpt lat="47.18174" lon="6.48994">
        <ele>721.6</ele>
        <time>2020-05-22T14:41:36Z</time>
      </trkpt>
      <trkpt lat="47.18169" lon="6.48988">
        <ele>721.6</ele>
        <time>2020-05-22T14:41:37Z</time>
      </trkpt>
      <trkpt lat="47.18164" lon="6.48982">
        <ele>721.6</ele>
        <time>2020-05-22T14:41:38Z</time>
      </trkpt>
      <trkpt lat="47.1816" lon="6.48976">
        <ele>721.6</ele>
        <time>2020-05-22T14:41:39Z</time>
      </trkpt>
      <trkpt lat="47.18156" lon="6.48969">
        <ele>721.2</ele>
        <time>2020-05-22T14:41:40Z</time>
      </trkpt>
      <trkpt lat="47.18152" lon="6.48964">
        <ele>721.2</ele>
        <time>2020-05-22T14:41:41Z</time>
      </trkpt>
      <trkpt lat="47.18148" lon="6.48958">
        <ele>721.2</ele>
        <time>2020-05-22T14:41:42Z</time>
      </trkpt>
      <trkpt lat="47.18144" lon="6.48953">
        <ele>721.2</ele>
        <time>2020-05-22T14:41:43Z</time>
      </trkpt>
      <trkpt lat="47.18141" lon="6.48947">
        <ele>721.2</ele>
        <time>2020-05-22T14:41:44Z</time>
      </trkpt>
      <trkpt lat="47.18138" lon="6.48942">
        <ele>721.2</ele>
        <time>2020-05-22T14:41:45Z</time>
      </trkpt>
      <trkpt lat="47.18134" lon="6.48937">
        <ele>721.6</ele>
        <time>2020-05-22T14:41:46Z</time>
      </trkpt>
      <trkpt lat="47.18131" lon="6.48933">
        <ele>721.6</ele>
        <time>2020-05-22T14:41:47Z</time>
      </trkpt>
      <trkpt lat="47.18128" lon="6.48928">
        <ele>721.6</ele>
        <time>2020-05-22T14:41:48Z</time>
      </trkpt>
      <trkpt lat="47.18125" lon="6.48924">
        <ele>721.6</ele>
        <time>2020-05-22T14:41:49Z</time>
      </trkpt>
      <trkpt lat="47.18122" lon="6.48919">
        <ele>721.6</ele>
        <time>2020-05-22T14:41:50Z</time>
      </trkpt>
      <trkpt lat="47.18119" lon="6.48915">
        <ele>721.6</ele>
        <time>2020-05-22T14:41:51Z</time>
      </trkpt>
      <trkpt lat="47.18116" lon="6.48911">
        <ele>721.6</ele>
        <time>2020-05-22T14:41:52Z</time>
      </trkpt>
      <trkpt lat="47.18113" lon="6.48906">
        <ele>721.6</ele>
        <time>2020-05-22T14:41:53Z</time>
      </trkpt>
      <trkpt lat="47.1811" lon="6.48902">
        <ele>721.6</ele>
        <time>2020-05-22T14:41:54Z</time>
      </trkpt>
      <trkpt lat="47.18107" lon="6.48898">
        <ele>721.6</ele>
        <time>2020-05-22T14:41:55Z</time>
      </trkpt>
      <trkpt lat="47.18104" lon="6.48894">
        <ele>721.6</ele>
        <time>2020-05-22T14:41:56Z</time>
      </trkpt>
      <trkpt lat="47.18101" lon="6.4889">
        <ele>721.8</ele>
        <time>2020-05-22T14:41:57Z</time>
      </trkpt>
      <trkpt lat="47.18099" lon="6.48885">
        <ele>721.8</ele>
        <time>2020-05-22T14:41:58Z</time>
      </trkpt>
      <trkpt lat="47.18096" lon="6.48881">
        <ele>721.8</ele>
        <time>2020-05-22T14:41:59Z</time>
      </trkpt>
      <trkpt lat="47.18093" lon="6.48877">
        <ele>722</ele>
        <time>2020-05-22T14:42:00Z</time>
      </trkpt>
      <trkpt lat="47.18091" lon="6.48873">
        <ele>722.4</ele>
        <time>2020-05-22T14:42:01Z</time>
      </trkpt>
      <trkpt lat="47.18088" lon="6.48869">
        <ele>722.4</ele>
        <time>2020-05-22T14:42:02Z</time>
      </trkpt>
      <trkpt lat="47.18085" lon="6.48865">
        <ele>722.4</ele>
        <time>2020-05-22T14:42:03Z</time>
      </trkpt>
      <trkpt lat="47.18083" lon="6.48861">
        <ele>722.6</ele>
        <time>2020-05-22T14:42:04Z</time>
      </trkpt>
      <trkpt lat="47.1808" lon="6.48857">
        <ele>722.6</ele>
        <time>2020-05-22T14:42:05Z</time>
      </trkpt>
      <trkpt lat="47.18077" lon="6.48853">
        <ele>722.6</ele>
        <time>2020-05-22T14:42:06Z</time>
      </trkpt>
      <trkpt lat="47.18074" lon="6.48849">
        <ele>722.6</ele>
        <time>2020-05-22T14:42:07Z</time>
      </trkpt>
      <trkpt lat="47.18072" lon="6.48845">
        <ele>722.6</ele>
        <time>2020-05-22T14:42:08Z</time>
      </trkpt>
      <trkpt lat="47.18069" lon="6.48841">
        <ele>722.6</ele>
        <time>2020-05-22T14:42:09Z</time>
      </trkpt>
      <trkpt lat="47.18067" lon="6.48836">
        <ele>722.6</ele>
        <time>2020-05-22T14:42:10Z</time>
      </trkpt>
      <trkpt lat="47.18064" lon="6.48832">
        <ele>722.8</ele>
        <time>2020-05-22T14:42:11Z</time>
      </trkpt>
      <trkpt lat="47.18061" lon="6.48828">
        <ele>723.2</ele>
        <time>2020-05-22T14:42:12Z</time>
      </trkpt>
      <trkpt lat="47.18059" lon="6.48824">
        <ele>723.2</ele>
        <time>2020-05-22T14:42:13Z</time>
      </trkpt>
      <trkpt lat="47.18056" lon="6.4882">
        <ele>723.2</ele>
        <time>2020-05-22T14:42:14Z</time>
      </trkpt>
      <trkpt lat="47.18053" lon="6.48815">
        <ele>723.2</ele>
        <time>2020-05-22T14:42:15Z</time>
      </trkpt>
      <trkpt lat="47.1805" lon="6.4881">
        <ele>723.2</ele>
        <time>2020-05-22T14:42:16Z</time>
      </trkpt>
      <trkpt lat="47.18047" lon="6.48805">
        <ele>722.8</ele>
        <time>2020-05-22T14:42:17Z</time>
      </trkpt>
      <trkpt lat="47.18045" lon="6.488">
        <ele>722.8</ele>
        <time>2020-05-22T14:42:18Z</time>
      </trkpt>
      <trkpt lat="47.18042" lon="6.48795">
        <ele>722.8</ele>
        <time>2020-05-22T14:42:19Z</time>
      </trkpt>
      <trkpt lat="47.18039" lon="6.4879">
        <ele>722.8</ele>
        <time>2020-05-22T14:42:20Z</time>
      </trkpt>
      <trkpt lat="47.18036" lon="6.48785">
        <ele>722.8</ele>
        <time>2020-05-22T14:42:21Z</time>
      </trkpt>
      <trkpt lat="47.18034" lon="6.48779">
        <ele>722.8</ele>
        <time>2020-05-22T14:42:22Z</time>
      </trkpt>
      <trkpt lat="47.18031" lon="6.48774">
        <ele>722.8</ele>
        <time>2020-05-22T14:42:23Z</time>
      </trkpt>
      <trkpt lat="47.18028" lon="6.48768">
        <ele>722.6</ele>
        <time>2020-05-22T14:42:24Z</time>
      </trkpt>
      <trkpt lat="47.18026" lon="6.48763">
        <ele>722.6</ele>
        <time>2020-05-22T14:42:25Z</time>
      </trkpt>
      <trkpt lat="47.18023" lon="6.48757">
        <ele>722.6</ele>
        <time>2020-05-22T14:42:26Z</time>
      </trkpt>
      <trkpt lat="47.1802" lon="6.48751">
        <ele>722.6</ele>
        <time>2020-05-22T14:42:27Z</time>
      </trkpt>
      <trkpt lat="47.18017" lon="6.48746">
        <ele>722.6</ele>
        <time>2020-05-22T14:42:28Z</time>
      </trkpt>
      <trkpt lat="47.18014" lon="6.4874">
        <ele>722.6</ele>
        <time>2020-05-22T14:42:29Z</time>
      </trkpt>
      <trkpt lat="47.18011" lon="6.48734">
        <ele>722.6</ele>
        <time>2020-05-22T14:42:30Z</time>
      </trkpt>
      <trkpt lat="47.18009" lon="6.48729">
        <ele>722.6</ele>
        <time>2020-05-22T14:42:31Z</time>
      </trkpt>
      <trkpt lat="47.18006" lon="6.48723">
        <ele>722.6</ele>
        <time>2020-05-22T14:42:32Z</time>
      </trkpt>
      <trkpt lat="47.18003" lon="6.48717">
        <ele>722.6</ele>
        <time>2020-05-22T14:42:33Z</time>
      </trkpt>
      <trkpt lat="47.18" lon="6.48711">
        <ele>722.6</ele>
        <time>2020-05-22T14:42:34Z</time>
      </trkpt>
      <trkpt lat="47.17997" lon="6.48704">
        <ele>722.6</ele>
        <time>2020-05-22T14:42:35Z</time>
      </trkpt>
      <trkpt lat="47.17994" lon="6.48698">
        <ele>722.4</ele>
        <time>2020-05-22T14:42:36Z</time>
      </trkpt>
      <trkpt lat="47.17991" lon="6.48691">
        <ele>722.4</ele>
        <time>2020-05-22T14:42:37Z</time>
      </trkpt>
      <trkpt lat="47.17988" lon="6.48685">
        <ele>722.4</ele>
        <time>2020-05-22T14:42:38Z</time>
      </trkpt>
      <trkpt lat="47.17986" lon="6.48678">
        <ele>722.4</ele>
        <time>2020-05-22T14:42:39Z</time>
      </trkpt>
      <trkpt lat="47.17983" lon="6.48672">
        <ele>722.4</ele>
        <time>2020-05-22T14:42:40Z</time>
      </trkpt>
      <trkpt lat="47.1798" lon="6.48665">
        <ele>722.4</ele>
        <time>2020-05-22T14:42:41Z</time>
      </trkpt>
      <trkpt lat="47.17977" lon="6.48658">
        <ele>722.4</ele>
        <time>2020-05-22T14:42:42Z</time>
      </trkpt>
      <trkpt lat="47.17975" lon="6.48651">
        <ele>722.4</ele>
        <time>2020-05-22T14:42:43Z</time>
      </trkpt>
      <trkpt lat="47.17973" lon="6.48643">
        <ele>722.4</ele>
        <time>2020-05-22T14:42:44Z</time>
      </trkpt>
      <trkpt lat="47.17971" lon="6.48636">
        <ele>722.4</ele>
        <time>2020-05-22T14:42:45Z</time>
      </trkpt>
      <trkpt lat="47.17968" lon="6.48628">
        <ele>722.4</ele>
        <time>2020-05-22T14:42:46Z</time>
      </trkpt>
      <trkpt lat="47.17966" lon="6.48621">
        <ele>722.4</ele>
        <time>2020-05-22T14:42:47Z</time>
      </trkpt>
      <trkpt lat="47.17965" lon="6.48613">
        <ele>722.4</ele>
        <time>2020-05-22T14:42:48Z</time>
      </trkpt>
      <trkpt lat="47.17963" lon="6.48606">
        <ele>722.4</ele>
        <time>2020-05-22T14:42:49Z</time>
      </trkpt>
      <trkpt lat="47.17961" lon="6.48598">
        <ele>722.4</ele>
        <time>2020-05-22T14:42:50Z</time>
      </trkpt>
      <trkpt lat="47.1796" lon="6.4859">
        <ele>722.4</ele>
        <time>2020-05-22T14:42:51Z</time>
      </trkpt>
      <trkpt lat="47.17958" lon="6.48582">
        <ele>722.4</ele>
        <time>2020-05-22T14:42:52Z</time>
      </trkpt>
      <trkpt lat="47.17957" lon="6.48574">
        <ele>722.4</ele>
        <time>2020-05-22T14:42:53Z</time>
      </trkpt>
      <trkpt lat="47.17955" lon="6.48567">
        <ele>722.4</ele>
        <time>2020-05-22T14:42:54Z</time>
      </trkpt>
      <trkpt lat="47.17953" lon="6.48559">
        <ele>722.4</ele>
        <time>2020-05-22T14:42:55Z</time>
      </trkpt>
      <trkpt lat="47.17952" lon="6.48551">
        <ele>722.2</ele>
        <time>2020-05-22T14:42:56Z</time>
      </trkpt>
      <trkpt lat="47.1795" lon="6.48543">
        <ele>722.2</ele>
        <time>2020-05-22T14:42:57Z</time>
      </trkpt>
      <trkpt lat="47.17947" lon="6.48536">
        <ele>722.2</ele>
        <time>2020-05-22T14:42:58Z</time>
      </trkpt>
      <trkpt lat="47.17945" lon="6.48529">
        <ele>722.2</ele>
        <time>2020-05-22T14:42:59Z</time>
      </trkpt>
      <trkpt lat="47.17943" lon="6.48521">
        <ele>722.2</ele>
        <time>2020-05-22T14:43:00Z</time>
      </trkpt>
      <trkpt lat="47.1794" lon="6.48514">
        <ele>722.2</ele>
        <time>2020-05-22T14:43:01Z</time>
      </trkpt>
      <trkpt lat="47.17937" lon="6.48507">
        <ele>722.2</ele>
        <time>2020-05-22T14:43:02Z</time>
      </trkpt>
      <trkpt lat="47.17935" lon="6.485">
        <ele>722.2</ele>
        <time>2020-05-22T14:43:03Z</time>
      </trkpt>
      <trkpt lat="47.17932" lon="6.48493">
        <ele>722.2</ele>
        <time>2020-05-22T14:43:04Z</time>
      </trkpt>
      <trkpt lat="47.17929" lon="6.48486">
        <ele>722.2</ele>
        <time>2020-05-22T14:43:05Z</time>
      </trkpt>
      <trkpt lat="47.17926" lon="6.48479">
        <ele>722.2</ele>
        <time>2020-05-22T14:43:06Z</time>
      </trkpt>
      <trkpt lat="47.17923" lon="6.48473">
        <ele>722.2</ele>
        <time>2020-05-22T14:43:07Z</time>
      </trkpt>
      <trkpt lat="47.1792" lon="6.48467">
        <ele>722.2</ele>
        <time>2020-05-22T14:43:08Z</time>
      </trkpt>
      <trkpt lat="47.17917" lon="6.48461">
        <ele>722.2</ele>
        <time>2020-05-22T14:43:09Z</time>
      </trkpt>
      <trkpt lat="47.17913" lon="6.48455">
        <ele>722.2</ele>
        <time>2020-05-22T14:43:10Z</time>
      </trkpt>
      <trkpt lat="47.1791" lon="6.48449">
        <ele>722.2</ele>
        <time>2020-05-22T14:43:11Z</time>
      </trkpt>
      <trkpt lat="47.17906" lon="6.48444">
        <ele>722.2</ele>
        <time>2020-05-22T14:43:12Z</time>
      </trkpt>
      <trkpt lat="47.17902" lon="6.48438">
        <ele>722.2</ele>
        <time>2020-05-22T14:43:13Z</time>
      </trkpt>
      <trkpt lat="47.17898" lon="6.48433">
        <ele>722.2</ele>
        <time>2020-05-22T14:43:14Z</time>
      </trkpt>
      <trkpt lat="47.17895" lon="6.48428">
        <ele>722.2</ele>
        <time>2020-05-22T14:43:15Z</time>
      </trkpt>
      <trkpt lat="47.17891" lon="6.48424">
        <ele>722.2</ele>
        <time>2020-05-22T14:43:16Z</time>
      </trkpt>
      <trkpt lat="47.17887" lon="6.48419">
        <ele>722.2</ele>
        <time>2020-05-22T14:43:17Z</time>
      </trkpt>
      <trkpt lat="47.17883" lon="6.48415">
        <ele>722.4</ele>
        <time>2020-05-22T14:43:18Z</time>
      </trkpt>
      <trkpt lat="47.17879" lon="6.4841">
        <ele>722.4</ele>
        <time>2020-05-22T14:43:19Z</time>
      </trkpt>
      <trkpt lat="47.17875" lon="6.48406">
        <ele>722.4</ele>
        <time>2020-05-22T14:43:20Z</time>
      </trkpt>
      <trkpt lat="47.17871" lon="6.48402">
        <ele>722.4</ele>
        <time>2020-05-22T14:43:21Z</time>
      </trkpt>
      <trkpt lat="47.17867" lon="6.48398">
        <ele>722.4</ele>
        <time>2020-05-22T14:43:22Z</time>
      </trkpt>
      <trkpt lat="47.17863" lon="6.48395">
        <ele>722.4</ele>
        <time>2020-05-22T14:43:23Z</time>
      </trkpt>
      <trkpt lat="47.17858" lon="6.48392">
        <ele>722.4</ele>
        <time>2020-05-22T14:43:24Z</time>
      </trkpt>
      <trkpt lat="47.17854" lon="6.48388">
        <ele>722.6</ele>
        <time>2020-05-22T14:43:25Z</time>
      </trkpt>
      <trkpt lat="47.1785" lon="6.48385">
        <ele>722.6</ele>
        <time>2020-05-22T14:43:26Z</time>
      </trkpt>
      <trkpt lat="47.17846" lon="6.48382">
        <ele>722.6</ele>
        <time>2020-05-22T14:43:27Z</time>
      </trkpt>
      <trkpt lat="47.17841" lon="6.4838">
        <ele>722.6</ele>
        <time>2020-05-22T14:43:28Z</time>
      </trkpt>
      <trkpt lat="47.17837" lon="6.48378">
        <ele>722.6</ele>
        <time>2020-05-22T14:43:29Z</time>
      </trkpt>
      <trkpt lat="47.17832" lon="6.48375">
        <ele>722.8</ele>
        <time>2020-05-22T14:43:30Z</time>
      </trkpt>
      <trkpt lat="47.17828" lon="6.48374">
        <ele>722.8</ele>
        <time>2020-05-22T14:43:31Z</time>
      </trkpt>
      <trkpt lat="47.17824" lon="6.48371">
        <ele>722.8</ele>
        <time>2020-05-22T14:43:32Z</time>
      </trkpt>
      <trkpt lat="47.17819" lon="6.48369">
        <ele>722.8</ele>
        <time>2020-05-22T14:43:33Z</time>
      </trkpt>
      <trkpt lat="47.17815" lon="6.48367">
        <ele>722.8</ele>
        <time>2020-05-22T14:43:34Z</time>
      </trkpt>
      <trkpt lat="47.17811" lon="6.48365">
        <ele>722.8</ele>
        <time>2020-05-22T14:43:35Z</time>
      </trkpt>
      <trkpt lat="47.17806" lon="6.48363">
        <ele>722.8</ele>
        <time>2020-05-22T14:43:36Z</time>
      </trkpt>
      <trkpt lat="47.17802" lon="6.48361">
        <ele>722.8</ele>
        <time>2020-05-22T14:43:37Z</time>
      </trkpt>
      <trkpt lat="47.17798" lon="6.48358">
        <ele>722.8</ele>
        <time>2020-05-22T14:43:38Z</time>
      </trkpt>
      <trkpt lat="47.17794" lon="6.48356">
        <ele>722.8</ele>
        <time>2020-05-22T14:43:39Z</time>
      </trkpt>
      <trkpt lat="47.17789" lon="6.48355">
        <ele>723</ele>
        <time>2020-05-22T14:43:40Z</time>
      </trkpt>
      <trkpt lat="47.17785" lon="6.48353">
        <ele>723</ele>
        <time>2020-05-22T14:43:41Z</time>
      </trkpt>
      <trkpt lat="47.17781" lon="6.48351">
        <ele>723</ele>
        <time>2020-05-22T14:43:42Z</time>
      </trkpt>
      <trkpt lat="47.17777" lon="6.48348">
        <ele>723</ele>
        <time>2020-05-22T14:43:43Z</time>
      </trkpt>
      <trkpt lat="47.17772" lon="6.48346">
        <ele>723</ele>
        <time>2020-05-22T14:43:44Z</time>
      </trkpt>
      <trkpt lat="47.17768" lon="6.48344">
        <ele>723.4</ele>
        <time>2020-05-22T14:43:45Z</time>
      </trkpt>
      <trkpt lat="47.17764" lon="6.48342">
        <ele>723.4</ele>
        <time>2020-05-22T14:43:46Z</time>
      </trkpt>
      <trkpt lat="47.1776" lon="6.4834">
        <ele>723.4</ele>
        <time>2020-05-22T14:43:47Z</time>
      </trkpt>
      <trkpt lat="47.17756" lon="6.48338">
        <ele>723.6</ele>
        <time>2020-05-22T14:43:48Z</time>
      </trkpt>
      <trkpt lat="47.17752" lon="6.48335">
        <ele>723.6</ele>
        <time>2020-05-22T14:43:49Z</time>
      </trkpt>
      <trkpt lat="47.17748" lon="6.48333">
        <ele>723.6</ele>
        <time>2020-05-22T14:43:50Z</time>
      </trkpt>
      <trkpt lat="47.17744" lon="6.48331">
        <ele>723.6</ele>
        <time>2020-05-22T14:43:51Z</time>
      </trkpt>
      <trkpt lat="47.1774" lon="6.48328">
        <ele>723.6</ele>
        <time>2020-05-22T14:43:52Z</time>
      </trkpt>
      <trkpt lat="47.17737" lon="6.48326">
        <ele>723.6</ele>
        <time>2020-05-22T14:43:53Z</time>
      </trkpt>
      <trkpt lat="47.17733" lon="6.48323">
        <ele>723.6</ele>
        <time>2020-05-22T14:43:54Z</time>
      </trkpt>
      <trkpt lat="47.17729" lon="6.4832">
        <ele>723.6</ele>
        <time>2020-05-22T14:43:55Z</time>
      </trkpt>
      <trkpt lat="47.17725" lon="6.48318">
        <ele>723.6</ele>
        <time>2020-05-22T14:43:56Z</time>
      </trkpt>
      <trkpt lat="47.17722" lon="6.48315">
        <ele>723.6</ele>
        <time>2020-05-22T14:43:57Z</time>
      </trkpt>
      <trkpt lat="47.17718" lon="6.48313">
        <ele>723.6</ele>
        <time>2020-05-22T14:43:58Z</time>
      </trkpt>
      <trkpt lat="47.17714" lon="6.4831">
        <ele>723.8</ele>
        <time>2020-05-22T14:43:59Z</time>
      </trkpt>
      <trkpt lat="47.1771" lon="6.48308">
        <ele>723.8</ele>
        <time>2020-05-22T14:44:00Z</time>
      </trkpt>
      <trkpt lat="47.17707" lon="6.48306">
        <ele>723.8</ele>
        <time>2020-05-22T14:44:01Z</time>
      </trkpt>
      <trkpt lat="47.17703" lon="6.48303">
        <ele>723.8</ele>
        <time>2020-05-22T14:44:02Z</time>
      </trkpt>
      <trkpt lat="47.17699" lon="6.48301">
        <ele>723.8</ele>
        <time>2020-05-22T14:44:03Z</time>
      </trkpt>
      <trkpt lat="47.17696" lon="6.48299">
        <ele>724.2</ele>
        <time>2020-05-22T14:44:04Z</time>
      </trkpt>
      <trkpt lat="47.17693" lon="6.48297">
        <ele>724.2</ele>
        <time>2020-05-22T14:44:05Z</time>
      </trkpt>
      <trkpt lat="47.17689" lon="6.48294">
        <ele>724.2</ele>
        <time>2020-05-22T14:44:06Z</time>
      </trkpt>
      <trkpt lat="47.17686" lon="6.48292">
        <ele>724.2</ele>
        <time>2020-05-22T14:44:07Z</time>
      </trkpt>
      <trkpt lat="47.17682" lon="6.4829">
        <ele>724.2</ele>
        <time>2020-05-22T14:44:08Z</time>
      </trkpt>
      <trkpt lat="47.17678" lon="6.48287">
        <ele>724.2</ele>
        <time>2020-05-22T14:44:09Z</time>
      </trkpt>
      <trkpt lat="47.17675" lon="6.48285">
        <ele>724.2</ele>
        <time>2020-05-22T14:44:10Z</time>
      </trkpt>
      <trkpt lat="47.17671" lon="6.48282">
        <ele>724.2</ele>
        <time>2020-05-22T14:44:11Z</time>
      </trkpt>
      <trkpt lat="47.17667" lon="6.48279">
        <ele>724.2</ele>
        <time>2020-05-22T14:44:12Z</time>
      </trkpt>
      <trkpt lat="47.17663" lon="6.48276">
        <ele>724.2</ele>
        <time>2020-05-22T14:44:13Z</time>
      </trkpt>
      <trkpt lat="47.17659" lon="6.48274">
        <ele>724.2</ele>
        <time>2020-05-22T14:44:14Z</time>
      </trkpt>
      <trkpt lat="47.17655" lon="6.48271">
        <ele>724.2</ele>
        <time>2020-05-22T14:44:15Z</time>
      </trkpt>
      <trkpt lat="47.17651" lon="6.48268">
        <ele>724.2</ele>
        <time>2020-05-22T14:44:16Z</time>
      </trkpt>
      <trkpt lat="47.17647" lon="6.48266">
        <ele>724.2</ele>
        <time>2020-05-22T14:44:17Z</time>
      </trkpt>
      <trkpt lat="47.17643" lon="6.48263">
        <ele>724.2</ele>
        <time>2020-05-22T14:44:18Z</time>
      </trkpt>
      <trkpt lat="47.17639" lon="6.4826">
        <ele>724.4</ele>
        <time>2020-05-22T14:44:19Z</time>
      </trkpt>
      <trkpt lat="47.17636" lon="6.48258">
        <ele>724.4</ele>
        <time>2020-05-22T14:44:20Z</time>
      </trkpt>
      <trkpt lat="47.17632" lon="6.48255">
        <ele>724.4</ele>
        <time>2020-05-22T14:44:21Z</time>
      </trkpt>
      <trkpt lat="47.17628" lon="6.48253">
        <ele>724.4</ele>
        <time>2020-05-22T14:44:22Z</time>
      </trkpt>
      <trkpt lat="47.17624" lon="6.4825">
        <ele>724.4</ele>
        <time>2020-05-22T14:44:23Z</time>
      </trkpt>
      <trkpt lat="47.1762" lon="6.48248">
        <ele>724.6</ele>
        <time>2020-05-22T14:44:24Z</time>
      </trkpt>
      <trkpt lat="47.17617" lon="6.48245">
        <ele>724.6</ele>
        <time>2020-05-22T14:44:25Z</time>
      </trkpt>
      <trkpt lat="47.17613" lon="6.48243">
        <ele>724.6</ele>
        <time>2020-05-22T14:44:26Z</time>
      </trkpt>
      <trkpt lat="47.17609" lon="6.48241">
        <ele>724.8</ele>
        <time>2020-05-22T14:44:27Z</time>
      </trkpt>
      <trkpt lat="47.17605" lon="6.48239">
        <ele>724.8</ele>
        <time>2020-05-22T14:44:28Z</time>
      </trkpt>
      <trkpt lat="47.17602" lon="6.48237">
        <ele>724.8</ele>
        <time>2020-05-22T14:44:29Z</time>
      </trkpt>
      <trkpt lat="47.17598" lon="6.48235">
        <ele>724.8</ele>
        <time>2020-05-22T14:44:30Z</time>
      </trkpt>
      <trkpt lat="47.17595" lon="6.48233">
        <ele>725</ele>
        <time>2020-05-22T14:44:31Z</time>
      </trkpt>
      <trkpt lat="47.17592" lon="6.48231">
        <ele>725</ele>
        <time>2020-05-22T14:44:32Z</time>
      </trkpt>
      <trkpt lat="47.17588" lon="6.48229">
        <ele>725</ele>
        <time>2020-05-22T14:44:33Z</time>
      </trkpt>
      <trkpt lat="47.17585" lon="6.48226">
        <ele>725</ele>
        <time>2020-05-22T14:44:34Z</time>
      </trkpt>
      <trkpt lat="47.17581" lon="6.48224">
        <ele>725</ele>
        <time>2020-05-22T14:44:35Z</time>
      </trkpt>
      <trkpt lat="47.17578" lon="6.48222">
        <ele>725</ele>
        <time>2020-05-22T14:44:36Z</time>
      </trkpt>
      <trkpt lat="47.17574" lon="6.4822">
        <ele>725</ele>
        <time>2020-05-22T14:44:37Z</time>
      </trkpt>
      <trkpt lat="47.17571" lon="6.48219">
        <ele>725</ele>
        <time>2020-05-22T14:44:38Z</time>
      </trkpt>
      <trkpt lat="47.17568" lon="6.48217">
        <ele>725</ele>
        <time>2020-05-22T14:44:39Z</time>
      </trkpt>
      <trkpt lat="47.17564" lon="6.48215">
        <ele>725</ele>
        <time>2020-05-22T14:44:40Z</time>
      </trkpt>
      <trkpt lat="47.17561" lon="6.48213">
        <ele>725</ele>
        <time>2020-05-22T14:44:41Z</time>
      </trkpt>
      <trkpt lat="47.17557" lon="6.48211">
        <ele>725</ele>
        <time>2020-05-22T14:44:42Z</time>
      </trkpt>
      <trkpt lat="47.17553" lon="6.48209">
        <ele>725</ele>
        <time>2020-05-22T14:44:43Z</time>
      </trkpt>
      <trkpt lat="47.1755" lon="6.48207">
        <ele>725</ele>
        <time>2020-05-22T14:44:44Z</time>
      </trkpt>
      <trkpt lat="47.17546" lon="6.48205">
        <ele>725</ele>
        <time>2020-05-22T14:44:45Z</time>
      </trkpt>
      <trkpt lat="47.17542" lon="6.48202">
        <ele>725</ele>
        <time>2020-05-22T14:44:46Z</time>
      </trkpt>
      <trkpt lat="47.17538" lon="6.482">
        <ele>725</ele>
        <time>2020-05-22T14:44:47Z</time>
      </trkpt>
      <trkpt lat="47.17534" lon="6.48198">
        <ele>725</ele>
        <time>2020-05-22T14:44:48Z</time>
      </trkpt>
      <trkpt lat="47.1753" lon="6.48196">
        <ele>725</ele>
        <time>2020-05-22T14:44:49Z</time>
      </trkpt>
      <trkpt lat="47.17526" lon="6.48193">
        <ele>725</ele>
        <time>2020-05-22T14:44:50Z</time>
      </trkpt>
      <trkpt lat="47.17522" lon="6.48191">
        <ele>725</ele>
        <time>2020-05-22T14:44:51Z</time>
      </trkpt>
      <trkpt lat="47.17517" lon="6.48189">
        <ele>725.2</ele>
        <time>2020-05-22T14:44:52Z</time>
      </trkpt>
      <trkpt lat="47.17513" lon="6.48186">
        <ele>725.2</ele>
        <time>2020-05-22T14:44:53Z</time>
      </trkpt>
      <trkpt lat="47.17509" lon="6.48184">
        <ele>725.2</ele>
        <time>2020-05-22T14:44:54Z</time>
      </trkpt>
      <trkpt lat="47.17504" lon="6.48181">
        <ele>725.2</ele>
        <time>2020-05-22T14:44:55Z</time>
      </trkpt>
      <trkpt lat="47.17499" lon="6.48179">
        <ele>725</ele>
        <time>2020-05-22T14:44:56Z</time>
      </trkpt>
      <trkpt lat="47.17495" lon="6.48176">
        <ele>725</ele>
        <time>2020-05-22T14:44:57Z</time>
      </trkpt>
      <trkpt lat="47.1749" lon="6.48173">
        <ele>725</ele>
        <time>2020-05-22T14:44:58Z</time>
      </trkpt>
      <trkpt lat="47.17486" lon="6.48171">
        <ele>724.8</ele>
        <time>2020-05-22T14:44:59Z</time>
      </trkpt>
      <trkpt lat="47.17481" lon="6.48168">
        <ele>724.8</ele>
        <time>2020-05-22T14:45:00Z</time>
      </trkpt>
      <trkpt lat="47.17476" lon="6.48165">
        <ele>724.8</ele>
        <time>2020-05-22T14:45:01Z</time>
      </trkpt>
      <trkpt lat="47.1747" lon="6.48162">
        <ele>724.6</ele>
        <time>2020-05-22T14:45:02Z</time>
      </trkpt>
      <trkpt lat="47.17465" lon="6.48159">
        <ele>724.6</ele>
        <time>2020-05-22T14:45:03Z</time>
      </trkpt>
      <trkpt lat="47.1746" lon="6.48156">
        <ele>724.2</ele>
        <time>2020-05-22T14:45:04Z</time>
      </trkpt>
      <trkpt lat="47.17454" lon="6.48153">
        <ele>724.2</ele>
        <time>2020-05-22T14:45:05Z</time>
      </trkpt>
      <trkpt lat="47.17449" lon="6.4815">
        <ele>724</ele>
        <time>2020-05-22T14:45:06Z</time>
      </trkpt>
      <trkpt lat="47.17443" lon="6.48147">
        <ele>724</ele>
        <time>2020-05-22T14:45:07Z</time>
      </trkpt>
      <trkpt lat="47.17437" lon="6.48144">
        <ele>724</ele>
        <time>2020-05-22T14:45:08Z</time>
      </trkpt>
      <trkpt lat="47.17432" lon="6.48141">
        <ele>723.6</ele>
        <time>2020-05-22T14:45:09Z</time>
      </trkpt>
      <trkpt lat="47.17426" lon="6.48137">
        <ele>723.6</ele>
        <time>2020-05-22T14:45:10Z</time>
      </trkpt>
      <trkpt lat="47.1742" lon="6.48134">
        <ele>723.4</ele>
        <time>2020-05-22T14:45:11Z</time>
      </trkpt>
      <trkpt lat="47.17414" lon="6.4813">
        <ele>723.4</ele>
        <time>2020-05-22T14:45:12Z</time>
      </trkpt>
      <trkpt lat="47.17408" lon="6.48127">
        <ele>723.2</ele>
        <time>2020-05-22T14:45:13Z</time>
      </trkpt>
      <trkpt lat="47.17402" lon="6.48123">
        <ele>723.2</ele>
        <time>2020-05-22T14:45:14Z</time>
      </trkpt>
      <trkpt lat="47.17396" lon="6.48119">
        <ele>722.8</ele>
        <time>2020-05-22T14:45:15Z</time>
      </trkpt>
      <trkpt lat="47.1739" lon="6.48115">
        <ele>722.8</ele>
        <time>2020-05-22T14:45:16Z</time>
      </trkpt>
      <trkpt lat="47.17384" lon="6.48111">
        <ele>722.8</ele>
        <time>2020-05-22T14:45:17Z</time>
      </trkpt>
      <trkpt lat="47.17379" lon="6.48106">
        <ele>722.6</ele>
        <time>2020-05-22T14:45:18Z</time>
      </trkpt>
      <trkpt lat="47.17373" lon="6.48102">
        <ele>722.6</ele>
        <time>2020-05-22T14:45:19Z</time>
      </trkpt>
      <trkpt lat="47.17367" lon="6.48097">
        <ele>722.2</ele>
        <time>2020-05-22T14:45:20Z</time>
      </trkpt>
      <trkpt lat="47.17362" lon="6.48093">
        <ele>722.2</ele>
        <time>2020-05-22T14:45:21Z</time>
      </trkpt>
      <trkpt lat="47.17356" lon="6.48088">
        <ele>721.8</ele>
        <time>2020-05-22T14:45:22Z</time>
      </trkpt>
      <trkpt lat="47.1735" lon="6.48083">
        <ele>721.8</ele>
        <time>2020-05-22T14:45:23Z</time>
      </trkpt>
      <trkpt lat="47.17345" lon="6.48078">
        <ele>721.8</ele>
        <time>2020-05-22T14:45:24Z</time>
      </trkpt>
      <trkpt lat="47.17339" lon="6.48074">
        <ele>721.8</ele>
        <time>2020-05-22T14:45:25Z</time>
      </trkpt>
      <trkpt lat="47.17334" lon="6.48069">
        <ele>721.8</ele>
        <time>2020-05-22T14:45:26Z</time>
      </trkpt>
      <trkpt lat="47.17328" lon="6.48064">
        <ele>721.6</ele>
        <time>2020-05-22T14:45:27Z</time>
      </trkpt>
      <trkpt lat="47.17322" lon="6.48059">
        <ele>721.4</ele>
        <time>2020-05-22T14:45:28Z</time>
      </trkpt>
      <trkpt lat="47.17317" lon="6.48055">
        <ele>721.4</ele>
        <time>2020-05-22T14:45:29Z</time>
      </trkpt>
      <trkpt lat="47.17311" lon="6.4805">
        <ele>721</ele>
        <time>2020-05-22T14:45:30Z</time>
      </trkpt>
      <trkpt lat="47.17306" lon="6.48045">
        <ele>721</ele>
        <time>2020-05-22T14:45:31Z</time>
      </trkpt>
      <trkpt lat="47.173" lon="6.4804">
        <ele>720.6</ele>
        <time>2020-05-22T14:45:32Z</time>
      </trkpt>
      <trkpt lat="47.17294" lon="6.48035">
        <ele>720.6</ele>
        <time>2020-05-22T14:45:33Z</time>
      </trkpt>
      <trkpt lat="47.17289" lon="6.4803">
        <ele>720.4</ele>
        <time>2020-05-22T14:45:34Z</time>
      </trkpt>
      <trkpt lat="47.17283" lon="6.48025">
        <ele>720.4</ele>
        <time>2020-05-22T14:45:35Z</time>
      </trkpt>
      <trkpt lat="47.17277" lon="6.4802">
        <ele>720.4</ele>
        <time>2020-05-22T14:45:36Z</time>
      </trkpt>
      <trkpt lat="47.17272" lon="6.48016">
        <ele>720.2</ele>
        <time>2020-05-22T14:45:37Z</time>
      </trkpt>
      <trkpt lat="47.17266" lon="6.48011">
        <ele>720.2</ele>
        <time>2020-05-22T14:45:38Z</time>
      </trkpt>
      <trkpt lat="47.17261" lon="6.48006">
        <ele>720.2</ele>
        <time>2020-05-22T14:45:39Z</time>
      </trkpt>
      <trkpt lat="47.17255" lon="6.48002">
        <ele>720</ele>
        <time>2020-05-22T14:45:40Z</time>
      </trkpt>
      <trkpt lat="47.17249" lon="6.47997">
        <ele>720</ele>
        <time>2020-05-22T14:45:41Z</time>
      </trkpt>
      <trkpt lat="47.17244" lon="6.47992">
        <ele>719.8</ele>
        <time>2020-05-22T14:45:42Z</time>
      </trkpt>
      <trkpt lat="47.17238" lon="6.47988">
        <ele>719.8</ele>
        <time>2020-05-22T14:45:43Z</time>
      </trkpt>
      <trkpt lat="47.17232" lon="6.47983">
        <ele>719.4</ele>
        <time>2020-05-22T14:45:44Z</time>
      </trkpt>
      <trkpt lat="47.17232" lon="6.47983">
        <ele>719</ele>
        <time>2020-05-22T14:45:45Z</time>
      </trkpt>
      <trkpt lat="47.17221" lon="6.47973">
        <ele>719</ele>
        <time>2020-05-22T14:45:46Z</time>
      </trkpt>
      <trkpt lat="47.17215" lon="6.47968">
        <ele>718.8</ele>
        <time>2020-05-22T14:45:47Z</time>
      </trkpt>
      <trkpt lat="47.17209" lon="6.47963">
        <ele>718.8</ele>
        <time>2020-05-22T14:45:48Z</time>
      </trkpt>
      <trkpt lat="47.17203" lon="6.47958">
        <ele>718.4</ele>
        <time>2020-05-22T14:45:49Z</time>
      </trkpt>
      <trkpt lat="47.17196" lon="6.47953">
        <ele>718.4</ele>
        <time>2020-05-22T14:45:50Z</time>
      </trkpt>
      <trkpt lat="47.1719" lon="6.47948">
        <ele>717.8</ele>
        <time>2020-05-22T14:45:51Z</time>
      </trkpt>
      <trkpt lat="47.17184" lon="6.47943">
        <ele>717.8</ele>
        <time>2020-05-22T14:45:52Z</time>
      </trkpt>
      <trkpt lat="47.17177" lon="6.47938">
        <ele>717.6</ele>
        <time>2020-05-22T14:45:53Z</time>
      </trkpt>
      <trkpt lat="47.17171" lon="6.47933">
        <ele>717.6</ele>
        <time>2020-05-22T14:45:54Z</time>
      </trkpt>
      <trkpt lat="47.17164" lon="6.47928">
        <ele>717.2</ele>
        <time>2020-05-22T14:45:55Z</time>
      </trkpt>
      <trkpt lat="47.17158" lon="6.47922">
        <ele>716.8</ele>
        <time>2020-05-22T14:45:56Z</time>
      </trkpt>
      <trkpt lat="47.17151" lon="6.47917">
        <ele>716.4</ele>
        <time>2020-05-22T14:45:57Z</time>
      </trkpt>
      <trkpt lat="47.17144" lon="6.47911">
        <ele>716.2</ele>
        <time>2020-05-22T14:45:58Z</time>
      </trkpt>
      <trkpt lat="47.17138" lon="6.47906">
        <ele>716</ele>
        <time>2020-05-22T14:45:59Z</time>
      </trkpt>
      <trkpt lat="47.17131" lon="6.47901">
        <ele>715.8</ele>
        <time>2020-05-22T14:46:00Z</time>
      </trkpt>
      <trkpt lat="47.17124" lon="6.47895">
        <ele>715.4</ele>
        <time>2020-05-22T14:46:01Z</time>
      </trkpt>
      <trkpt lat="47.17117" lon="6.47889">
        <ele>715.2</ele>
        <time>2020-05-22T14:46:02Z</time>
      </trkpt>
      <trkpt lat="47.1711" lon="6.47884">
        <ele>715.2</ele>
        <time>2020-05-22T14:46:03Z</time>
      </trkpt>
      <trkpt lat="47.17104" lon="6.47878">
        <ele>715</ele>
        <time>2020-05-22T14:46:04Z</time>
      </trkpt>
      <trkpt lat="47.17097" lon="6.47872">
        <ele>714.6</ele>
        <time>2020-05-22T14:46:05Z</time>
      </trkpt>
      <trkpt lat="47.1709" lon="6.47866">
        <ele>714.4</ele>
        <time>2020-05-22T14:46:06Z</time>
      </trkpt>
      <trkpt lat="47.17084" lon="6.4786">
        <ele>714.4</ele>
        <time>2020-05-22T14:46:07Z</time>
      </trkpt>
      <trkpt lat="47.17077" lon="6.47854">
        <ele>714.4</ele>
        <time>2020-05-22T14:46:08Z</time>
      </trkpt>
      <trkpt lat="47.17071" lon="6.47848">
        <ele>714.2</ele>
        <time>2020-05-22T14:46:09Z</time>
      </trkpt>
      <trkpt lat="47.17065" lon="6.47842">
        <ele>714.2</ele>
        <time>2020-05-22T14:46:10Z</time>
      </trkpt>
      <trkpt lat="47.17058" lon="6.47836">
        <ele>714.2</ele>
        <time>2020-05-22T14:46:11Z</time>
      </trkpt>
      <trkpt lat="47.17052" lon="6.47829">
        <ele>714.2</ele>
        <time>2020-05-22T14:46:12Z</time>
      </trkpt>
      <trkpt lat="47.17047" lon="6.47823">
        <ele>714</ele>
        <time>2020-05-22T14:46:13Z</time>
      </trkpt>
      <trkpt lat="47.17041" lon="6.47817">
        <ele>714</ele>
        <time>2020-05-22T14:46:14Z</time>
      </trkpt>
      <trkpt lat="47.17035" lon="6.47811">
        <ele>714</ele>
        <time>2020-05-22T14:46:15Z</time>
      </trkpt>
      <trkpt lat="47.1703" lon="6.47805">
        <ele>714</ele>
        <time>2020-05-22T14:46:16Z</time>
      </trkpt>
      <trkpt lat="47.17025" lon="6.47799">
        <ele>713.8</ele>
        <time>2020-05-22T14:46:17Z</time>
      </trkpt>
      <trkpt lat="47.1702" lon="6.47794">
        <ele>713.8</ele>
        <time>2020-05-22T14:46:18Z</time>
      </trkpt>
      <trkpt lat="47.17015" lon="6.47788">
        <ele>713.8</ele>
        <time>2020-05-22T14:46:19Z</time>
      </trkpt>
      <trkpt lat="47.1701" lon="6.47782">
        <ele>713.8</ele>
        <time>2020-05-22T14:46:20Z</time>
      </trkpt>
      <trkpt lat="47.17005" lon="6.47777">
        <ele>713.8</ele>
        <time>2020-05-22T14:46:21Z</time>
      </trkpt>
      <trkpt lat="47.17" lon="6.47772">
        <ele>713.8</ele>
        <time>2020-05-22T14:46:22Z</time>
      </trkpt>
      <trkpt lat="47.16996" lon="6.47766">
        <ele>713.8</ele>
        <time>2020-05-22T14:46:23Z</time>
      </trkpt>
      <trkpt lat="47.16991" lon="6.47762">
        <ele>713.8</ele>
        <time>2020-05-22T14:46:24Z</time>
      </trkpt>
      <trkpt lat="47.16987" lon="6.47757">
        <ele>713.8</ele>
        <time>2020-05-22T14:46:25Z</time>
      </trkpt>
      <trkpt lat="47.16983" lon="6.47752">
        <ele>713.8</ele>
        <time>2020-05-22T14:46:26Z</time>
      </trkpt>
      <trkpt lat="47.16979" lon="6.47747">
        <ele>713.8</ele>
        <time>2020-05-22T14:46:27Z</time>
      </trkpt>
      <trkpt lat="47.16975" lon="6.47743">
        <ele>713.8</ele>
        <time>2020-05-22T14:46:28Z</time>
      </trkpt>
      <trkpt lat="47.16971" lon="6.47738">
        <ele>714</ele>
        <time>2020-05-22T14:46:29Z</time>
      </trkpt>
      <trkpt lat="47.16968" lon="6.47735">
        <ele>714</ele>
        <time>2020-05-22T14:46:30Z</time>
      </trkpt>
      <trkpt lat="47.16964" lon="6.47731">
        <ele>714.2</ele>
        <time>2020-05-22T14:46:31Z</time>
      </trkpt>
      <trkpt lat="47.16961" lon="6.47727">
        <ele>714.2</ele>
        <time>2020-05-22T14:46:32Z</time>
      </trkpt>
      <trkpt lat="47.16958" lon="6.47723">
        <ele>714.6</ele>
        <time>2020-05-22T14:46:33Z</time>
      </trkpt>
      <trkpt lat="47.16955" lon="6.4772">
        <ele>714.6</ele>
        <time>2020-05-22T14:46:34Z</time>
      </trkpt>
      <trkpt lat="47.16952" lon="6.47716">
        <ele>714.8</ele>
        <time>2020-05-22T14:46:35Z</time>
      </trkpt>
      <trkpt lat="47.1695" lon="6.47713">
        <ele>714.8</ele>
        <time>2020-05-22T14:46:36Z</time>
      </trkpt>
      <trkpt lat="47.16947" lon="6.4771">
        <ele>715</ele>
        <time>2020-05-22T14:46:37Z</time>
      </trkpt>
      <trkpt lat="47.16944" lon="6.47707">
        <ele>715</ele>
        <time>2020-05-22T14:46:38Z</time>
      </trkpt>
      <trkpt lat="47.16941" lon="6.47704">
        <ele>715.2</ele>
        <time>2020-05-22T14:46:39Z</time>
      </trkpt>
      <trkpt lat="47.16939" lon="6.47701">
        <ele>715.2</ele>
        <time>2020-05-22T14:46:40Z</time>
      </trkpt>
      <trkpt lat="47.16936" lon="6.47698">
        <ele>715.6</ele>
        <time>2020-05-22T14:46:41Z</time>
      </trkpt>
      <trkpt lat="47.16934" lon="6.47695">
        <ele>715.8</ele>
        <time>2020-05-22T14:46:42Z</time>
      </trkpt>
      <trkpt lat="47.16931" lon="6.47692">
        <ele>715.8</ele>
        <time>2020-05-22T14:46:43Z</time>
      </trkpt>
      <trkpt lat="47.16929" lon="6.47689">
        <ele>715.8</ele>
        <time>2020-05-22T14:46:44Z</time>
      </trkpt>
      <trkpt lat="47.16926" lon="6.47686">
        <ele>715.8</ele>
        <time>2020-05-22T14:46:45Z</time>
      </trkpt>
      <trkpt lat="47.16924" lon="6.47683">
        <ele>716</ele>
        <time>2020-05-22T14:46:46Z</time>
      </trkpt>
      <trkpt lat="47.16921" lon="6.4768">
        <ele>716</ele>
        <time>2020-05-22T14:46:47Z</time>
      </trkpt>
      <trkpt lat="47.16919" lon="6.47677">
        <ele>716</ele>
        <time>2020-05-22T14:46:48Z</time>
      </trkpt>
      <trkpt lat="47.16916" lon="6.47675">
        <ele>716.4</ele>
        <time>2020-05-22T14:46:49Z</time>
      </trkpt>
      <trkpt lat="47.16913" lon="6.47672">
        <ele>716.4</ele>
        <time>2020-05-22T14:46:50Z</time>
      </trkpt>
      <trkpt lat="47.16911" lon="6.47669">
        <ele>716.6</ele>
        <time>2020-05-22T14:46:51Z</time>
      </trkpt>
      <trkpt lat="47.16908" lon="6.47666">
        <ele>716.6</ele>
        <time>2020-05-22T14:46:52Z</time>
      </trkpt>
      <trkpt lat="47.16905" lon="6.47663">
        <ele>716.8</ele>
        <time>2020-05-22T14:46:53Z</time>
      </trkpt>
      <trkpt lat="47.16903" lon="6.4766">
        <ele>716.8</ele>
        <time>2020-05-22T14:46:54Z</time>
      </trkpt>
      <trkpt lat="47.16901" lon="6.47657">
        <ele>717</ele>
        <time>2020-05-22T14:46:55Z</time>
      </trkpt>
      <trkpt lat="47.16898" lon="6.47654">
        <ele>717</ele>
        <time>2020-05-22T14:46:56Z</time>
      </trkpt>
      <trkpt lat="47.16895" lon="6.47651">
        <ele>717.4</ele>
        <time>2020-05-22T14:46:57Z</time>
      </trkpt>
      <trkpt lat="47.16893" lon="6.47648">
        <ele>717.4</ele>
        <time>2020-05-22T14:46:58Z</time>
      </trkpt>
      <trkpt lat="47.1689" lon="6.47645">
        <ele>717.4</ele>
        <time>2020-05-22T14:46:59Z</time>
      </trkpt>
      <trkpt lat="47.16887" lon="6.47642">
        <ele>717.8</ele>
        <time>2020-05-22T14:47:00Z</time>
      </trkpt>
      <trkpt lat="47.16885" lon="6.47639">
        <ele>717.8</ele>
        <time>2020-05-22T14:47:01Z</time>
      </trkpt>
      <trkpt lat="47.16882" lon="6.47636">
        <ele>718</ele>
        <time>2020-05-22T14:47:02Z</time>
      </trkpt>
      <trkpt lat="47.16879" lon="6.47632">
        <ele>718</ele>
        <time>2020-05-22T14:47:03Z</time>
      </trkpt>
      <trkpt lat="47.16876" lon="6.47629">
        <ele>718.4</ele>
        <time>2020-05-22T14:47:04Z</time>
      </trkpt>
      <trkpt lat="47.16873" lon="6.47626">
        <ele>718.4</ele>
        <time>2020-05-22T14:47:05Z</time>
      </trkpt>
      <trkpt lat="47.1687" lon="6.47623">
        <ele>718.4</ele>
        <time>2020-05-22T14:47:06Z</time>
      </trkpt>
      <trkpt lat="47.16867" lon="6.47619">
        <ele>718.4</ele>
        <time>2020-05-22T14:47:07Z</time>
      </trkpt>
      <trkpt lat="47.16864" lon="6.47616">
        <ele>718.8</ele>
        <time>2020-05-22T14:47:08Z</time>
      </trkpt>
      <trkpt lat="47.16861" lon="6.47613">
        <ele>718.8</ele>
        <time>2020-05-22T14:47:09Z</time>
      </trkpt>
      <trkpt lat="47.16858" lon="6.47609">
        <ele>718.8</ele>
        <time>2020-05-22T14:47:10Z</time>
      </trkpt>
      <trkpt lat="47.16855" lon="6.47606">
        <ele>719.2</ele>
        <time>2020-05-22T14:47:11Z</time>
      </trkpt>
      <trkpt lat="47.16852" lon="6.47602">
        <ele>719.2</ele>
        <time>2020-05-22T14:47:12Z</time>
      </trkpt>
      <trkpt lat="47.1685" lon="6.47599">
        <ele>719.4</ele>
        <time>2020-05-22T14:47:13Z</time>
      </trkpt>
      <trkpt lat="47.16847" lon="6.47595">
        <ele>719.4</ele>
        <time>2020-05-22T14:47:14Z</time>
      </trkpt>
      <trkpt lat="47.16844" lon="6.47592">
        <ele>719.6</ele>
        <time>2020-05-22T14:47:15Z</time>
      </trkpt>
      <trkpt lat="47.16841" lon="6.47589">
        <ele>719.6</ele>
        <time>2020-05-22T14:47:16Z</time>
      </trkpt>
      <trkpt lat="47.16838" lon="6.47586">
        <ele>720</ele>
        <time>2020-05-22T14:47:17Z</time>
      </trkpt>
      <trkpt lat="47.16834" lon="6.47583">
        <ele>720</ele>
        <time>2020-05-22T14:47:18Z</time>
      </trkpt>
      <trkpt lat="47.16831" lon="6.4758">
        <ele>720</ele>
        <time>2020-05-22T14:47:19Z</time>
      </trkpt>
      <trkpt lat="47.16828" lon="6.47577">
        <ele>720.2</ele>
        <time>2020-05-22T14:47:20Z</time>
      </trkpt>
      <trkpt lat="47.16825" lon="6.47574">
        <ele>720.2</ele>
        <time>2020-05-22T14:47:21Z</time>
      </trkpt>
      <trkpt lat="47.16822" lon="6.47571">
        <ele>720.6</ele>
        <time>2020-05-22T14:47:22Z</time>
      </trkpt>
      <trkpt lat="47.16819" lon="6.47569">
        <ele>720.6</ele>
        <time>2020-05-22T14:47:23Z</time>
      </trkpt>
      <trkpt lat="47.16816" lon="6.47566">
        <ele>721</ele>
        <time>2020-05-22T14:47:24Z</time>
      </trkpt>
      <trkpt lat="47.16813" lon="6.47564">
        <ele>721</ele>
        <time>2020-05-22T14:47:25Z</time>
      </trkpt>
      <trkpt lat="47.1681" lon="6.47562">
        <ele>721.2</ele>
        <time>2020-05-22T14:47:26Z</time>
      </trkpt>
      <trkpt lat="47.16807" lon="6.47559">
        <ele>721.2</ele>
        <time>2020-05-22T14:47:27Z</time>
      </trkpt>
      <trkpt lat="47.16804" lon="6.47557">
        <ele>721.4</ele>
        <time>2020-05-22T14:47:28Z</time>
      </trkpt>
      <trkpt lat="47.16801" lon="6.47555">
        <ele>721.4</ele>
        <time>2020-05-22T14:47:29Z</time>
      </trkpt>
      <trkpt lat="47.16798" lon="6.47553">
        <ele>721.6</ele>
        <time>2020-05-22T14:47:30Z</time>
      </trkpt>
      <trkpt lat="47.16795" lon="6.47551">
        <ele>721.6</ele>
        <time>2020-05-22T14:47:31Z</time>
      </trkpt>
      <trkpt lat="47.16792" lon="6.47549">
        <ele>722</ele>
        <time>2020-05-22T14:47:32Z</time>
      </trkpt>
      <trkpt lat="47.16789" lon="6.47547">
        <ele>722</ele>
        <time>2020-05-22T14:47:33Z</time>
      </trkpt>
      <trkpt lat="47.16786" lon="6.47545">
        <ele>722</ele>
        <time>2020-05-22T14:47:34Z</time>
      </trkpt>
      <trkpt lat="47.16783" lon="6.47544">
        <ele>722.2</ele>
        <time>2020-05-22T14:47:35Z</time>
      </trkpt>
      <trkpt lat="47.1678" lon="6.47542">
        <ele>722.2</ele>
        <time>2020-05-22T14:47:36Z</time>
      </trkpt>
      <trkpt lat="47.16777" lon="6.4754">
        <ele>722.4</ele>
        <time>2020-05-22T14:47:37Z</time>
      </trkpt>
      <trkpt lat="47.16774" lon="6.47539">
        <ele>722.4</ele>
        <time>2020-05-22T14:47:38Z</time>
      </trkpt>
      <trkpt lat="47.16771" lon="6.47538">
        <ele>722.6</ele>
        <time>2020-05-22T14:47:39Z</time>
      </trkpt>
      <trkpt lat="47.16768" lon="6.47536">
        <ele>722.6</ele>
        <time>2020-05-22T14:47:40Z</time>
      </trkpt>
      <trkpt lat="47.16765" lon="6.47535">
        <ele>722.8</ele>
        <time>2020-05-22T14:47:41Z</time>
      </trkpt>
      <trkpt lat="47.16762" lon="6.47534">
        <ele>722.8</ele>
        <time>2020-05-22T14:47:42Z</time>
      </trkpt>
      <trkpt lat="47.1676" lon="6.47533">
        <ele>723.2</ele>
        <time>2020-05-22T14:47:43Z</time>
      </trkpt>
      <trkpt lat="47.16757" lon="6.47532">
        <ele>723.2</ele>
        <time>2020-05-22T14:47:44Z</time>
      </trkpt>
      <trkpt lat="47.16754" lon="6.47532">
        <ele>723.4</ele>
        <time>2020-05-22T14:47:45Z</time>
      </trkpt>
      <trkpt lat="47.16751" lon="6.47531">
        <ele>723.4</ele>
        <time>2020-05-22T14:47:46Z</time>
      </trkpt>
      <trkpt lat="47.16748" lon="6.4753">
        <ele>723.6</ele>
        <time>2020-05-22T14:47:47Z</time>
      </trkpt>
      <trkpt lat="47.16745" lon="6.47529">
        <ele>723.6</ele>
        <time>2020-05-22T14:47:48Z</time>
      </trkpt>
      <trkpt lat="47.16743" lon="6.47528">
        <ele>723.8</ele>
        <time>2020-05-22T14:47:49Z</time>
      </trkpt>
      <trkpt lat="47.1674" lon="6.47527">
        <ele>723.8</ele>
        <time>2020-05-22T14:47:50Z</time>
      </trkpt>
      <trkpt lat="47.16737" lon="6.47527">
        <ele>724.2</ele>
        <time>2020-05-22T14:47:51Z</time>
      </trkpt>
      <trkpt lat="47.16734" lon="6.47526">
        <ele>724.2</ele>
        <time>2020-05-22T14:47:52Z</time>
      </trkpt>
      <trkpt lat="47.16732" lon="6.47526">
        <ele>724.2</ele>
        <time>2020-05-22T14:47:53Z</time>
      </trkpt>
      <trkpt lat="47.16729" lon="6.47525">
        <ele>724.2</ele>
        <time>2020-05-22T14:47:54Z</time>
      </trkpt>
      <trkpt lat="47.16726" lon="6.47525">
        <ele>724.2</ele>
        <time>2020-05-22T14:47:55Z</time>
      </trkpt>
      <trkpt lat="47.16723" lon="6.47524">
        <ele>724.2</ele>
        <time>2020-05-22T14:47:56Z</time>
      </trkpt>
      <trkpt lat="47.1672" lon="6.47524">
        <ele>724.4</ele>
        <time>2020-05-22T14:47:57Z</time>
      </trkpt>
      <trkpt lat="47.16718" lon="6.47523">
        <ele>724.4</ele>
        <time>2020-05-22T14:47:58Z</time>
      </trkpt>
      <trkpt lat="47.16715" lon="6.47523">
        <ele>724.4</ele>
        <time>2020-05-22T14:47:59Z</time>
      </trkpt>
      <trkpt lat="47.16712" lon="6.47522">
        <ele>724.6</ele>
        <time>2020-05-22T14:48:00Z</time>
      </trkpt>
      <trkpt lat="47.16709" lon="6.47522">
        <ele>724.6</ele>
        <time>2020-05-22T14:48:01Z</time>
      </trkpt>
      <trkpt lat="47.16707" lon="6.47521">
        <ele>724.6</ele>
        <time>2020-05-22T14:48:02Z</time>
      </trkpt>
      <trkpt lat="47.16704" lon="6.47521">
        <ele>724.8</ele>
        <time>2020-05-22T14:48:03Z</time>
      </trkpt>
      <trkpt lat="47.16701" lon="6.4752">
        <ele>724.8</ele>
        <time>2020-05-22T14:48:04Z</time>
      </trkpt>
      <trkpt lat="47.16698" lon="6.4752">
        <ele>725.2</ele>
        <time>2020-05-22T14:48:05Z</time>
      </trkpt>
      <trkpt lat="47.16696" lon="6.4752">
        <ele>725.2</ele>
        <time>2020-05-22T14:48:06Z</time>
      </trkpt>
      <trkpt lat="47.16693" lon="6.47519">
        <ele>725.2</ele>
        <time>2020-05-22T14:48:07Z</time>
      </trkpt>
      <trkpt lat="47.1669" lon="6.47519">
        <ele>725.6</ele>
        <time>2020-05-22T14:48:08Z</time>
      </trkpt>
      <trkpt lat="47.16687" lon="6.47518">
        <ele>725.6</ele>
        <time>2020-05-22T14:48:09Z</time>
      </trkpt>
      <trkpt lat="47.16685" lon="6.47518">
        <ele>725.6</ele>
        <time>2020-05-22T14:48:10Z</time>
      </trkpt>
      <trkpt lat="47.16682" lon="6.47517">
        <ele>725.8</ele>
        <time>2020-05-22T14:48:11Z</time>
      </trkpt>
      <trkpt lat="47.1668" lon="6.47517">
        <ele>725.8</ele>
        <time>2020-05-22T14:48:12Z</time>
      </trkpt>
      <trkpt lat="47.16677" lon="6.47516">
        <ele>725.8</ele>
        <time>2020-05-22T14:48:13Z</time>
      </trkpt>
      <trkpt lat="47.16674" lon="6.47516">
        <ele>726</ele>
        <time>2020-05-22T14:48:14Z</time>
      </trkpt>
      <trkpt lat="47.16672" lon="6.47515">
        <ele>726</ele>
        <time>2020-05-22T14:48:15Z</time>
      </trkpt>
      <trkpt lat="47.16669" lon="6.47515">
        <ele>726.2</ele>
        <time>2020-05-22T14:48:16Z</time>
      </trkpt>
      <trkpt lat="47.16667" lon="6.47514">
        <ele>726.2</ele>
        <time>2020-05-22T14:48:17Z</time>
      </trkpt>
      <trkpt lat="47.16664" lon="6.47514">
        <ele>726.6</ele>
        <time>2020-05-22T14:48:18Z</time>
      </trkpt>
      <trkpt lat="47.16662" lon="6.47513">
        <ele>726.6</ele>
        <time>2020-05-22T14:48:19Z</time>
      </trkpt>
      <trkpt lat="47.1666" lon="6.47513">
        <ele>726.6</ele>
        <time>2020-05-22T14:48:20Z</time>
      </trkpt>
      <trkpt lat="47.16657" lon="6.47512">
        <ele>726.6</ele>
        <time>2020-05-22T14:48:21Z</time>
      </trkpt>
      <trkpt lat="47.16655" lon="6.47512">
        <ele>726.8</ele>
        <time>2020-05-22T14:48:22Z</time>
      </trkpt>
      <trkpt lat="47.16652" lon="6.47511">
        <ele>726.8</ele>
        <time>2020-05-22T14:48:23Z</time>
      </trkpt>
      <trkpt lat="47.1665" lon="6.4751">
        <ele>726.8</ele>
        <time>2020-05-22T14:48:24Z</time>
      </trkpt>
      <trkpt lat="47.16647" lon="6.47509">
        <ele>727</ele>
        <time>2020-05-22T14:48:25Z</time>
      </trkpt>
      <trkpt lat="47.16645" lon="6.47509">
        <ele>727</ele>
        <time>2020-05-22T14:48:26Z</time>
      </trkpt>
      <trkpt lat="47.16642" lon="6.47508">
        <ele>727</ele>
        <time>2020-05-22T14:48:27Z</time>
      </trkpt>
      <trkpt lat="47.16639" lon="6.47507">
        <ele>727.4</ele>
        <time>2020-05-22T14:48:28Z</time>
      </trkpt>
      <trkpt lat="47.16637" lon="6.47506">
        <ele>727.4</ele>
        <time>2020-05-22T14:48:29Z</time>
      </trkpt>
      <trkpt lat="47.16634" lon="6.47505">
        <ele>727.4</ele>
        <time>2020-05-22T14:48:30Z</time>
      </trkpt>
      <trkpt lat="47.16631" lon="6.47503">
        <ele>727.4</ele>
        <time>2020-05-22T14:48:31Z</time>
      </trkpt>
      <trkpt lat="47.16629" lon="6.47502">
        <ele>727.4</ele>
        <time>2020-05-22T14:48:32Z</time>
      </trkpt>
      <trkpt lat="47.16626" lon="6.47501">
        <ele>727.4</ele>
        <time>2020-05-22T14:48:33Z</time>
      </trkpt>
      <trkpt lat="47.16623" lon="6.475">
        <ele>727.6</ele>
        <time>2020-05-22T14:48:34Z</time>
      </trkpt>
      <trkpt lat="47.1662" lon="6.47498">
        <ele>727.6</ele>
        <time>2020-05-22T14:48:35Z</time>
      </trkpt>
      <trkpt lat="47.16617" lon="6.47497">
        <ele>727.6</ele>
        <time>2020-05-22T14:48:36Z</time>
      </trkpt>
      <trkpt lat="47.16615" lon="6.47495">
        <ele>727.6</ele>
        <time>2020-05-22T14:48:37Z</time>
      </trkpt>
      <trkpt lat="47.16612" lon="6.47493">
        <ele>727.6</ele>
        <time>2020-05-22T14:48:38Z</time>
      </trkpt>
      <trkpt lat="47.16609" lon="6.47492">
        <ele>727.6</ele>
        <time>2020-05-22T14:48:39Z</time>
      </trkpt>
      <trkpt lat="47.16607" lon="6.4749">
        <ele>728</ele>
        <time>2020-05-22T14:48:40Z</time>
      </trkpt>
      <trkpt lat="47.16604" lon="6.47489">
        <ele>728</ele>
        <time>2020-05-22T14:48:41Z</time>
      </trkpt>
      <trkpt lat="47.16601" lon="6.47488">
        <ele>728</ele>
        <time>2020-05-22T14:48:42Z</time>
      </trkpt>
      <trkpt lat="47.16599" lon="6.47486">
        <ele>728.2</ele>
        <time>2020-05-22T14:48:43Z</time>
      </trkpt>
      <trkpt lat="47.16596" lon="6.47485">
        <ele>728.2</ele>
        <time>2020-05-22T14:48:44Z</time>
      </trkpt>
      <trkpt lat="47.16593" lon="6.47483">
        <ele>728.2</ele>
        <time>2020-05-22T14:48:45Z</time>
      </trkpt>
      <trkpt lat="47.16591" lon="6.47481">
        <ele>728.4</ele>
        <time>2020-05-22T14:48:46Z</time>
      </trkpt>
      <trkpt lat="47.16588" lon="6.47479">
        <ele>728.4</ele>
        <time>2020-05-22T14:48:47Z</time>
      </trkpt>
      <trkpt lat="47.16585" lon="6.47477">
        <ele>728.4</ele>
        <time>2020-05-22T14:48:48Z</time>
      </trkpt>
      <trkpt lat="47.16583" lon="6.47476">
        <ele>728.8</ele>
        <time>2020-05-22T14:48:49Z</time>
      </trkpt>
      <trkpt lat="47.1658" lon="6.47474">
        <ele>728.8</ele>
        <time>2020-05-22T14:48:50Z</time>
      </trkpt>
      <trkpt lat="47.16578" lon="6.47472">
        <ele>728.8</ele>
        <time>2020-05-22T14:48:51Z</time>
      </trkpt>
      <trkpt lat="47.16575" lon="6.4747">
        <ele>729</ele>
        <time>2020-05-22T14:48:52Z</time>
      </trkpt>
      <trkpt lat="47.16572" lon="6.47468">
        <ele>729</ele>
        <time>2020-05-22T14:48:53Z</time>
      </trkpt>
      <trkpt lat="47.16569" lon="6.47466">
        <ele>729</ele>
        <time>2020-05-22T14:48:54Z</time>
      </trkpt>
      <trkpt lat="47.16566" lon="6.47464">
        <ele>729.2</ele>
        <time>2020-05-22T14:48:55Z</time>
      </trkpt>
      <trkpt lat="47.16564" lon="6.47462">
        <ele>729.2</ele>
        <time>2020-05-22T14:48:56Z</time>
      </trkpt>
      <trkpt lat="47.16561" lon="6.4746">
        <ele>729.2</ele>
        <time>2020-05-22T14:48:57Z</time>
      </trkpt>
      <trkpt lat="47.16558" lon="6.47457">
        <ele>729.2</ele>
        <time>2020-05-22T14:48:58Z</time>
      </trkpt>
      <trkpt lat="47.16555" lon="6.47455">
        <ele>729.2</ele>
        <time>2020-05-22T14:48:59Z</time>
      </trkpt>
      <trkpt lat="47.16552" lon="6.47453">
        <ele>729.2</ele>
        <time>2020-05-22T14:49:00Z</time>
      </trkpt>
      <trkpt lat="47.16548" lon="6.4745">
        <ele>729.4</ele>
        <time>2020-05-22T14:49:01Z</time>
      </trkpt>
      <trkpt lat="47.16545" lon="6.47448">
        <ele>729.4</ele>
        <time>2020-05-22T14:49:02Z</time>
      </trkpt>
      <trkpt lat="47.16542" lon="6.47446">
        <ele>729.4</ele>
        <time>2020-05-22T14:49:03Z</time>
      </trkpt>
      <trkpt lat="47.16539" lon="6.47444">
        <ele>729.4</ele>
        <time>2020-05-22T14:49:04Z</time>
      </trkpt>
      <trkpt lat="47.16536" lon="6.47441">
        <ele>729.4</ele>
        <time>2020-05-22T14:49:05Z</time>
      </trkpt>
      <trkpt lat="47.16533" lon="6.47439">
        <ele>729.6</ele>
        <time>2020-05-22T14:49:06Z</time>
      </trkpt>
      <trkpt lat="47.1653" lon="6.47437">
        <ele>729.6</ele>
        <time>2020-05-22T14:49:07Z</time>
      </trkpt>
      <trkpt lat="47.16527" lon="6.47435">
        <ele>729.6</ele>
        <time>2020-05-22T14:49:08Z</time>
      </trkpt>
      <trkpt lat="47.16524" lon="6.47432">
        <ele>729.6</ele>
        <time>2020-05-22T14:49:09Z</time>
      </trkpt>
      <trkpt lat="47.16521" lon="6.4743">
        <ele>729.6</ele>
        <time>2020-05-22T14:49:10Z</time>
      </trkpt>
      <trkpt lat="47.16518" lon="6.47428">
        <ele>729.6</ele>
        <time>2020-05-22T14:49:11Z</time>
      </trkpt>
      <trkpt lat="47.16515" lon="6.47425">
        <ele>729.8</ele>
        <time>2020-05-22T14:49:12Z</time>
      </trkpt>
      <trkpt lat="47.16512" lon="6.47423">
        <ele>729.8</ele>
        <time>2020-05-22T14:49:13Z</time>
      </trkpt>
      <trkpt lat="47.16509" lon="6.47421">
        <ele>729.8</ele>
        <time>2020-05-22T14:49:14Z</time>
      </trkpt>
      <trkpt lat="47.16506" lon="6.47418">
        <ele>729.8</ele>
        <time>2020-05-22T14:49:15Z</time>
      </trkpt>
      <trkpt lat="47.16503" lon="6.47416">
        <ele>730.2</ele>
        <time>2020-05-22T14:49:16Z</time>
      </trkpt>
      <trkpt lat="47.165" lon="6.47414">
        <ele>730.2</ele>
        <time>2020-05-22T14:49:17Z</time>
      </trkpt>
      <trkpt lat="47.16496" lon="6.47411">
        <ele>730.2</ele>
        <time>2020-05-22T14:49:18Z</time>
      </trkpt>
      <trkpt lat="47.16493" lon="6.47409">
        <ele>730.2</ele>
        <time>2020-05-22T14:49:19Z</time>
      </trkpt>
      <trkpt lat="47.1649" lon="6.47407">
        <ele>730.2</ele>
        <time>2020-05-22T14:49:20Z</time>
      </trkpt>
      <trkpt lat="47.16487" lon="6.47404">
        <ele>730.4</ele>
        <time>2020-05-22T14:49:21Z</time>
      </trkpt>
      <trkpt lat="47.16484" lon="6.47402">
        <ele>730.4</ele>
        <time>2020-05-22T14:49:22Z</time>
      </trkpt>
      <trkpt lat="47.16481" lon="6.47399">
        <ele>730.4</ele>
        <time>2020-05-22T14:49:23Z</time>
      </trkpt>
      <trkpt lat="47.16478" lon="6.47397">
        <ele>730.4</ele>
        <time>2020-05-22T14:49:24Z</time>
      </trkpt>
      <trkpt lat="47.16475" lon="6.47395">
        <ele>730.4</ele>
        <time>2020-05-22T14:49:25Z</time>
      </trkpt>
      <trkpt lat="47.16471" lon="6.47393">
        <ele>730.6</ele>
        <time>2020-05-22T14:49:26Z</time>
      </trkpt>
      <trkpt lat="47.16468" lon="6.4739">
        <ele>730.6</ele>
        <time>2020-05-22T14:49:27Z</time>
      </trkpt>
      <trkpt lat="47.16465" lon="6.47388">
        <ele>730.6</ele>
        <time>2020-05-22T14:49:28Z</time>
      </trkpt>
      <trkpt lat="47.16462" lon="6.47385">
        <ele>730.6</ele>
        <time>2020-05-22T14:49:29Z</time>
      </trkpt>
      <trkpt lat="47.16458" lon="6.47383">
        <ele>730.6</ele>
        <time>2020-05-22T14:49:30Z</time>
      </trkpt>
      <trkpt lat="47.16455" lon="6.4738">
        <ele>730.6</ele>
        <time>2020-05-22T14:49:31Z</time>
      </trkpt>
      <trkpt lat="47.16451" lon="6.47378">
        <ele>730.6</ele>
        <time>2020-05-22T14:49:32Z</time>
      </trkpt>
      <trkpt lat="47.16448" lon="6.47375">
        <ele>730.6</ele>
        <time>2020-05-22T14:49:33Z</time>
      </trkpt>
      <trkpt lat="47.16444" lon="6.47372">
        <ele>730.4</ele>
        <time>2020-05-22T14:49:34Z</time>
      </trkpt>
      <trkpt lat="47.16441" lon="6.47369">
        <ele>730.4</ele>
        <time>2020-05-22T14:49:35Z</time>
      </trkpt>
      <trkpt lat="47.16437" lon="6.47366">
        <ele>730.4</ele>
        <time>2020-05-22T14:49:36Z</time>
      </trkpt>
      <trkpt lat="47.16433" lon="6.47364">
        <ele>730.4</ele>
        <time>2020-05-22T14:49:37Z</time>
      </trkpt>
      <trkpt lat="47.16429" lon="6.47361">
        <ele>730.4</ele>
        <time>2020-05-22T14:49:38Z</time>
      </trkpt>
      <trkpt lat="47.16426" lon="6.47358">
        <ele>730.4</ele>
        <time>2020-05-22T14:49:39Z</time>
      </trkpt>
      <trkpt lat="47.16422" lon="6.47356">
        <ele>730.4</ele>
        <time>2020-05-22T14:49:40Z</time>
      </trkpt>
      <trkpt lat="47.16419" lon="6.47353">
        <ele>730.4</ele>
        <time>2020-05-22T14:49:41Z</time>
      </trkpt>
      <trkpt lat="47.16415" lon="6.47351">
        <ele>730.4</ele>
        <time>2020-05-22T14:49:42Z</time>
      </trkpt>
      <trkpt lat="47.16415" lon="6.47351">
        <ele>730.4</ele>
        <time>2020-05-22T14:49:43Z</time>
      </trkpt>
      <trkpt lat="47.16408" lon="6.47346">
        <ele>730.2</ele>
        <time>2020-05-22T14:49:44Z</time>
      </trkpt>
      <trkpt lat="47.16405" lon="6.47343">
        <ele>730.2</ele>
        <time>2020-05-22T14:49:45Z</time>
      </trkpt>
      <trkpt lat="47.16401" lon="6.4734">
        <ele>730.2</ele>
        <time>2020-05-22T14:49:46Z</time>
      </trkpt>
      <trkpt lat="47.16398" lon="6.47337">
        <ele>730.2</ele>
        <time>2020-05-22T14:49:47Z</time>
      </trkpt>
      <trkpt lat="47.16394" lon="6.47335">
        <ele>730.2</ele>
        <time>2020-05-22T14:49:48Z</time>
      </trkpt>
      <trkpt lat="47.1639" lon="6.47332">
        <ele>730.2</ele>
        <time>2020-05-22T14:49:49Z</time>
      </trkpt>
      <trkpt lat="47.16387" lon="6.47329">
        <ele>730.2</ele>
        <time>2020-05-22T14:49:50Z</time>
      </trkpt>
      <trkpt lat="47.16383" lon="6.47327">
        <ele>730.2</ele>
        <time>2020-05-22T14:49:51Z</time>
      </trkpt>
      <trkpt lat="47.16379" lon="6.47324">
        <ele>730.2</ele>
        <time>2020-05-22T14:49:52Z</time>
      </trkpt>
      <trkpt lat="47.16375" lon="6.47321">
        <ele>730.2</ele>
        <time>2020-05-22T14:49:53Z</time>
      </trkpt>
      <trkpt lat="47.16371" lon="6.47318">
        <ele>730.2</ele>
        <time>2020-05-22T14:49:54Z</time>
      </trkpt>
      <trkpt lat="47.16367" lon="6.47315">
        <ele>730.2</ele>
        <time>2020-05-22T14:49:55Z</time>
      </trkpt>
      <trkpt lat="47.16363" lon="6.47312">
        <ele>730.2</ele>
        <time>2020-05-22T14:49:56Z</time>
      </trkpt>
      <trkpt lat="47.16359" lon="6.47309">
        <ele>730.2</ele>
        <time>2020-05-22T14:49:57Z</time>
      </trkpt>
      <trkpt lat="47.16355" lon="6.47306">
        <ele>730.2</ele>
        <time>2020-05-22T14:49:58Z</time>
      </trkpt>
      <trkpt lat="47.16351" lon="6.47303">
        <ele>730.2</ele>
        <time>2020-05-22T14:49:59Z</time>
      </trkpt>
      <trkpt lat="47.16347" lon="6.473">
        <ele>730.2</ele>
        <time>2020-05-22T14:50:00Z</time>
      </trkpt>
      <trkpt lat="47.16343" lon="6.47297">
        <ele>730.2</ele>
        <time>2020-05-22T14:50:01Z</time>
      </trkpt>
      <trkpt lat="47.1634" lon="6.47294">
        <ele>730</ele>
        <time>2020-05-22T14:50:02Z</time>
      </trkpt>
      <trkpt lat="47.16336" lon="6.47291">
        <ele>730</ele>
        <time>2020-05-22T14:50:03Z</time>
      </trkpt>
      <trkpt lat="47.16332" lon="6.47289">
        <ele>730</ele>
        <time>2020-05-22T14:50:04Z</time>
      </trkpt>
      <trkpt lat="47.16328" lon="6.47286">
        <ele>730</ele>
        <time>2020-05-22T14:50:05Z</time>
      </trkpt>
      <trkpt lat="47.16324" lon="6.47283">
        <ele>730</ele>
        <time>2020-05-22T14:50:06Z</time>
      </trkpt>
      <trkpt lat="47.16321" lon="6.4728">
        <ele>730</ele>
        <time>2020-05-22T14:50:07Z</time>
      </trkpt>
      <trkpt lat="47.16317" lon="6.47278">
        <ele>730</ele>
        <time>2020-05-22T14:50:08Z</time>
      </trkpt>
      <trkpt lat="47.16313" lon="6.47276">
        <ele>730</ele>
        <time>2020-05-22T14:50:09Z</time>
      </trkpt>
      <trkpt lat="47.16309" lon="6.47274">
        <ele>730</ele>
        <time>2020-05-22T14:50:10Z</time>
      </trkpt>
      <trkpt lat="47.16305" lon="6.47272">
        <ele>730</ele>
        <time>2020-05-22T14:50:11Z</time>
      </trkpt>
      <trkpt lat="47.16302" lon="6.47269">
        <ele>730</ele>
        <time>2020-05-22T14:50:12Z</time>
      </trkpt>
      <trkpt lat="47.16298" lon="6.47267">
        <ele>730</ele>
        <time>2020-05-22T14:50:13Z</time>
      </trkpt>
      <trkpt lat="47.16295" lon="6.47264">
        <ele>730</ele>
        <time>2020-05-22T14:50:14Z</time>
      </trkpt>
      <trkpt lat="47.16292" lon="6.47262">
        <ele>730</ele>
        <time>2020-05-22T14:50:15Z</time>
      </trkpt>
      <trkpt lat="47.16289" lon="6.4726">
        <ele>730</ele>
        <time>2020-05-22T14:50:16Z</time>
      </trkpt>
      <trkpt lat="47.16286" lon="6.47258">
        <ele>730</ele>
        <time>2020-05-22T14:50:17Z</time>
      </trkpt>
      <trkpt lat="47.16283" lon="6.47255">
        <ele>729.6</ele>
        <time>2020-05-22T14:50:18Z</time>
      </trkpt>
      <trkpt lat="47.16281" lon="6.47253">
        <ele>729.6</ele>
        <time>2020-05-22T14:50:19Z</time>
      </trkpt>
      <trkpt lat="47.16278" lon="6.47251">
        <ele>729.6</ele>
        <time>2020-05-22T14:50:20Z</time>
      </trkpt>
      <trkpt lat="47.16275" lon="6.47251">
        <ele>729.6</ele>
        <time>2020-05-22T14:50:21Z</time>
      </trkpt>
      <trkpt lat="47.16273" lon="6.47253">
        <ele>729.6</ele>
        <time>2020-05-22T14:50:22Z</time>
      </trkpt>
      <trkpt lat="47.1627" lon="6.47255">
        <ele>729.4</ele>
        <time>2020-05-22T14:50:23Z</time>
      </trkpt>
      <trkpt lat="47.16268" lon="6.47259">
        <ele>729.4</ele>
        <time>2020-05-22T14:50:24Z</time>
      </trkpt>
      <trkpt lat="47.16267" lon="6.47262">
        <ele>729</ele>
        <time>2020-05-22T14:50:25Z</time>
      </trkpt>
      <trkpt lat="47.16265" lon="6.47265">
        <ele>729</ele>
        <time>2020-05-22T14:50:26Z</time>
      </trkpt>
      <trkpt lat="47.16264" lon="6.47267">
        <ele>728.8</ele>
        <time>2020-05-22T14:50:27Z</time>
      </trkpt>
      <trkpt lat="47.16262" lon="6.4727">
        <ele>728.8</ele>
        <time>2020-05-22T14:50:28Z</time>
      </trkpt>
      <trkpt lat="47.16261" lon="6.47272">
        <ele>728.4</ele>
        <time>2020-05-22T14:50:29Z</time>
      </trkpt>
      <trkpt lat="47.1626" lon="6.47273">
        <ele>728.4</ele>
        <time>2020-05-22T14:50:30Z</time>
      </trkpt>
      <trkpt lat="47.16259" lon="6.47275">
        <ele>728.2</ele>
        <time>2020-05-22T14:50:31Z</time>
      </trkpt>
      <trkpt lat="47.16258" lon="6.47276">
        <ele>728.2</ele>
        <time>2020-05-22T14:50:32Z</time>
      </trkpt>
      <trkpt lat="47.16258" lon="6.47277">
        <ele>728.2</ele>
        <time>2020-05-22T14:50:33Z</time>
      </trkpt>
      <trkpt lat="47.16258" lon="6.47277">
        <ele>728.2</ele>
        <time>2020-05-22T14:50:34Z</time>
      </trkpt>
      <trkpt lat="47.16259" lon="6.47277">
        <ele>727.8</ele>
        <time>2020-05-22T14:54:24Z</time>
      </trkpt>
      <trkpt lat="47.16261" lon="6.47278">
        <ele>727.8</ele>
        <time>2020-05-22T14:54:25Z</time>
      </trkpt>
      <trkpt lat="47.16262" lon="6.47277">
        <ele>727.8</ele>
        <time>2020-05-22T14:54:26Z</time>
      </trkpt>
      <trkpt lat="47.16263" lon="6.47277">
        <ele>727.8</ele>
        <time>2020-05-22T14:54:27Z</time>
      </trkpt>
      <trkpt lat="47.16264" lon="6.47276">
        <ele>727.8</ele>
        <time>2020-05-22T14:54:28Z</time>
      </trkpt>
      <trkpt lat="47.16265" lon="6.47274">
        <ele>727.8</ele>
        <time>2020-05-22T14:54:29Z</time>
      </trkpt>
      <trkpt lat="47.16266" lon="6.47273">
        <ele>727.8</ele>
        <time>2020-05-22T14:54:30Z</time>
      </trkpt>
      <trkpt lat="47.16267" lon="6.47272">
        <ele>727.8</ele>
        <time>2020-05-22T14:54:31Z</time>
      </trkpt>
      <trkpt lat="47.16267" lon="6.4727">
        <ele>727.8</ele>
        <time>2020-05-22T14:54:32Z</time>
      </trkpt>
      <trkpt lat="47.16268" lon="6.47269">
        <ele>727.8</ele>
        <time>2020-05-22T14:54:33Z</time>
      </trkpt>
      <trkpt lat="47.16269" lon="6.47267">
        <ele>728</ele>
        <time>2020-05-22T14:54:34Z</time>
      </trkpt>
      <trkpt lat="47.16269" lon="6.47266">
        <ele>728</ele>
        <time>2020-05-22T14:54:35Z</time>
      </trkpt>
      <trkpt lat="47.1627" lon="6.47264">
        <ele>728.2</ele>
        <time>2020-05-22T14:54:36Z</time>
      </trkpt>
      <trkpt lat="47.16271" lon="6.47263">
        <ele>728.2</ele>
        <time>2020-05-22T14:54:37Z</time>
      </trkpt>
      <trkpt lat="47.16271" lon="6.47262">
        <ele>728.2</ele>
        <time>2020-05-22T14:54:38Z</time>
      </trkpt>
      <trkpt lat="47.16272" lon="6.47261">
        <ele>728.6</ele>
        <time>2020-05-22T14:54:39Z</time>
      </trkpt>
      <trkpt lat="47.16273" lon="6.4726">
        <ele>728.6</ele>
        <time>2020-05-22T14:54:40Z</time>
      </trkpt>
      <trkpt lat="47.16274" lon="6.47259">
        <ele>728.6</ele>
        <time>2020-05-22T14:54:41Z</time>
      </trkpt>
      <trkpt lat="47.16274" lon="6.47259">
        <ele>728.6</ele>
        <time>2020-05-22T14:54:42Z</time>
      </trkpt>
      <trkpt lat="47.16277" lon="6.47252">
        <ele>729</ele>
        <time>2020-05-22T14:54:54Z</time>
      </trkpt>
      <trkpt lat="47.16278" lon="6.4725">
        <ele>729</ele>
        <time>2020-05-22T14:54:55Z</time>
      </trkpt>
      <trkpt lat="47.16278" lon="6.47248">
        <ele>729.2</ele>
        <time>2020-05-22T14:54:56Z</time>
      </trkpt>
      <trkpt lat="47.16278" lon="6.47245">
        <ele>729.2</ele>
        <time>2020-05-22T14:54:57Z</time>
      </trkpt>
      <trkpt lat="47.16277" lon="6.47243">
        <ele>729.2</ele>
        <time>2020-05-22T14:54:58Z</time>
      </trkpt>
      <trkpt lat="47.16275" lon="6.47241">
        <ele>729.2</ele>
        <time>2020-05-22T14:54:59Z</time>
      </trkpt>
      <trkpt lat="47.16273" lon="6.47239">
        <ele>729.2</ele>
        <time>2020-05-22T14:55:00Z</time>
      </trkpt>
      <trkpt lat="47.16271" lon="6.47237">
        <ele>729.2</ele>
        <time>2020-05-22T14:55:01Z</time>
      </trkpt>
      <trkpt lat="47.16269" lon="6.47235">
        <ele>729.2</ele>
        <time>2020-05-22T14:55:02Z</time>
      </trkpt>
      <trkpt lat="47.16266" lon="6.47233">
        <ele>729.2</ele>
        <time>2020-05-22T14:55:03Z</time>
      </trkpt>
      <trkpt lat="47.16264" lon="6.4723">
        <ele>729.2</ele>
        <time>2020-05-22T14:55:04Z</time>
      </trkpt>
      <trkpt lat="47.16261" lon="6.47228">
        <ele>729.2</ele>
        <time>2020-05-22T14:55:05Z</time>
      </trkpt>
      <trkpt lat="47.16258" lon="6.47225">
        <ele>729.2</ele>
        <time>2020-05-22T14:55:06Z</time>
      </trkpt>
      <trkpt lat="47.16254" lon="6.47223">
        <ele>729.2</ele>
        <time>2020-05-22T14:55:07Z</time>
      </trkpt>
      <trkpt lat="47.16251" lon="6.4722">
        <ele>729</ele>
        <time>2020-05-22T14:55:08Z</time>
      </trkpt>
      <trkpt lat="47.16248" lon="6.47217">
        <ele>729</ele>
        <time>2020-05-22T14:55:09Z</time>
      </trkpt>
      <trkpt lat="47.16245" lon="6.47214">
        <ele>729</ele>
        <time>2020-05-22T14:55:10Z</time>
      </trkpt>
      <trkpt lat="47.16242" lon="6.47211">
        <ele>729</ele>
        <time>2020-05-22T14:55:11Z</time>
      </trkpt>
      <trkpt lat="47.16238" lon="6.47207">
        <ele>729</ele>
        <time>2020-05-22T14:55:12Z</time>
      </trkpt>
      <trkpt lat="47.16235" lon="6.47204">
        <ele>729</ele>
        <time>2020-05-22T14:55:13Z</time>
      </trkpt>
      <trkpt lat="47.16231" lon="6.472">
        <ele>729</ele>
        <time>2020-05-22T14:55:14Z</time>
      </trkpt>
      <trkpt lat="47.16228" lon="6.47196">
        <ele>729</ele>
        <time>2020-05-22T14:55:15Z</time>
      </trkpt>
      <trkpt lat="47.16224" lon="6.47192">
        <ele>729</ele>
        <time>2020-05-22T14:55:16Z</time>
      </trkpt>
      <trkpt lat="47.1622" lon="6.47188">
        <ele>729</ele>
        <time>2020-05-22T14:55:17Z</time>
      </trkpt>
      <trkpt lat="47.16216" lon="6.47183">
        <ele>728.8</ele>
        <time>2020-05-22T14:55:18Z</time>
      </trkpt>
      <trkpt lat="47.16212" lon="6.47179">
        <ele>728.6</ele>
        <time>2020-05-22T14:55:19Z</time>
      </trkpt>
      <trkpt lat="47.16208" lon="6.47175">
        <ele>728.6</ele>
        <time>2020-05-22T14:55:20Z</time>
      </trkpt>
      <trkpt lat="47.16204" lon="6.4717">
        <ele>728.6</ele>
        <time>2020-05-22T14:55:21Z</time>
      </trkpt>
      <trkpt lat="47.16199" lon="6.47165">
        <ele>728.2</ele>
        <time>2020-05-22T14:55:22Z</time>
      </trkpt>
      <trkpt lat="47.16195" lon="6.4716">
        <ele>728.2</ele>
        <time>2020-05-22T14:55:23Z</time>
      </trkpt>
      <trkpt lat="47.1619" lon="6.47155">
        <ele>727.8</ele>
        <time>2020-05-22T14:55:24Z</time>
      </trkpt>
      <trkpt lat="47.16186" lon="6.4715">
        <ele>727.8</ele>
        <time>2020-05-22T14:55:25Z</time>
      </trkpt>
      <trkpt lat="47.16181" lon="6.47146">
        <ele>727.6</ele>
        <time>2020-05-22T14:55:26Z</time>
      </trkpt>
      <trkpt lat="47.16176" lon="6.4714">
        <ele>727.2</ele>
        <time>2020-05-22T14:55:27Z</time>
      </trkpt>
      <trkpt lat="47.16171" lon="6.47135">
        <ele>727.2</ele>
        <time>2020-05-22T14:55:28Z</time>
      </trkpt>
      <trkpt lat="47.16166" lon="6.4713">
        <ele>727</ele>
        <time>2020-05-22T14:55:29Z</time>
      </trkpt>
      <trkpt lat="47.16161" lon="6.47125">
        <ele>726.8</ele>
        <time>2020-05-22T14:55:30Z</time>
      </trkpt>
      <trkpt lat="47.16156" lon="6.4712">
        <ele>726.8</ele>
        <time>2020-05-22T14:55:31Z</time>
      </trkpt>
      <trkpt lat="47.16151" lon="6.47114">
        <ele>726.8</ele>
        <time>2020-05-22T14:55:32Z</time>
      </trkpt>
      <trkpt lat="47.16145" lon="6.47109">
        <ele>726.6</ele>
        <time>2020-05-22T14:55:33Z</time>
      </trkpt>
      <trkpt lat="47.1614" lon="6.47104">
        <ele>726.6</ele>
        <time>2020-05-22T14:55:34Z</time>
      </trkpt>
      <trkpt lat="47.16135" lon="6.47098">
        <ele>726.6</ele>
        <time>2020-05-22T14:55:35Z</time>
      </trkpt>
      <trkpt lat="47.1613" lon="6.47093">
        <ele>726.2</ele>
        <time>2020-05-22T14:55:36Z</time>
      </trkpt>
      <trkpt lat="47.16125" lon="6.47088">
        <ele>726.2</ele>
        <time>2020-05-22T14:55:37Z</time>
      </trkpt>
      <trkpt lat="47.16119" lon="6.47083">
        <ele>726</ele>
        <time>2020-05-22T14:55:38Z</time>
      </trkpt>
      <trkpt lat="47.16114" lon="6.47078">
        <ele>726</ele>
        <time>2020-05-22T14:55:39Z</time>
      </trkpt>
      <trkpt lat="47.16109" lon="6.47074">
        <ele>726</ele>
        <time>2020-05-22T14:55:40Z</time>
      </trkpt>
      <trkpt lat="47.16103" lon="6.4707">
        <ele>726</ele>
        <time>2020-05-22T14:55:41Z</time>
      </trkpt>
      <trkpt lat="47.16098" lon="6.47066">
        <ele>726</ele>
        <time>2020-05-22T14:55:42Z</time>
      </trkpt>
      <trkpt lat="47.16092" lon="6.47063">
        <ele>725.8</ele>
        <time>2020-05-22T14:55:43Z</time>
      </trkpt>
      <trkpt lat="47.16086" lon="6.47059">
        <ele>725.8</ele>
        <time>2020-05-22T14:55:44Z</time>
      </trkpt>
      <trkpt lat="47.16081" lon="6.47057">
        <ele>725.8</ele>
        <time>2020-05-22T14:55:45Z</time>
      </trkpt>
      <trkpt lat="47.16075" lon="6.47054">
        <ele>725.8</ele>
        <time>2020-05-22T14:55:46Z</time>
      </trkpt>
      <trkpt lat="47.16069" lon="6.47051">
        <ele>725.8</ele>
        <time>2020-05-22T14:55:47Z</time>
      </trkpt>
      <trkpt lat="47.16063" lon="6.47049">
        <ele>725.8</ele>
        <time>2020-05-22T14:55:48Z</time>
      </trkpt>
      <trkpt lat="47.16058" lon="6.47048">
        <ele>725.6</ele>
        <time>2020-05-22T14:55:49Z</time>
      </trkpt>
      <trkpt lat="47.16052" lon="6.47046">
        <ele>725.6</ele>
        <time>2020-05-22T14:55:50Z</time>
      </trkpt>
      <trkpt lat="47.16046" lon="6.47045">
        <ele>725.6</ele>
        <time>2020-05-22T14:55:51Z</time>
      </trkpt>
      <trkpt lat="47.1604" lon="6.47045">
        <ele>725.6</ele>
        <time>2020-05-22T14:55:52Z</time>
      </trkpt>
      <trkpt lat="47.16034" lon="6.47044">
        <ele>725.2</ele>
        <time>2020-05-22T14:55:53Z</time>
      </trkpt>
      <trkpt lat="47.16029" lon="6.47043">
        <ele>725.2</ele>
        <time>2020-05-22T14:55:54Z</time>
      </trkpt>
      <trkpt lat="47.16023" lon="6.47043">
        <ele>725</ele>
        <time>2020-05-22T14:55:55Z</time>
      </trkpt>
      <trkpt lat="47.16017" lon="6.47042">
        <ele>725</ele>
        <time>2020-05-22T14:55:56Z</time>
      </trkpt>
      <trkpt lat="47.16011" lon="6.47042">
        <ele>724.8</ele>
        <time>2020-05-22T14:55:57Z</time>
      </trkpt>
      <trkpt lat="47.16006" lon="6.47041">
        <ele>724.8</ele>
        <time>2020-05-22T14:55:58Z</time>
      </trkpt>
      <trkpt lat="47.16" lon="6.47041">
        <ele>724.4</ele>
        <time>2020-05-22T14:55:59Z</time>
      </trkpt>
      <trkpt lat="47.15994" lon="6.4704">
        <ele>724.4</ele>
        <time>2020-05-22T14:56:00Z</time>
      </trkpt>
      <trkpt lat="47.15989" lon="6.4704">
        <ele>724.4</ele>
        <time>2020-05-22T14:56:01Z</time>
      </trkpt>
      <trkpt lat="47.15983" lon="6.47039">
        <ele>724.2</ele>
        <time>2020-05-22T14:56:02Z</time>
      </trkpt>
      <trkpt lat="47.15977" lon="6.47039">
        <ele>724.2</ele>
        <time>2020-05-22T14:56:03Z</time>
      </trkpt>
      <trkpt lat="47.15971" lon="6.47038">
        <ele>724.2</ele>
        <time>2020-05-22T14:56:04Z</time>
      </trkpt>
      <trkpt lat="47.15966" lon="6.47037">
        <ele>724.2</ele>
        <time>2020-05-22T14:56:05Z</time>
      </trkpt>
      <trkpt lat="47.1596" lon="6.47037">
        <ele>724.2</ele>
        <time>2020-05-22T14:56:06Z</time>
      </trkpt>
      <trkpt lat="47.15954" lon="6.47036">
        <ele>724.2</ele>
        <time>2020-05-22T14:56:07Z</time>
      </trkpt>
      <trkpt lat="47.15948" lon="6.47036">
        <ele>724.2</ele>
        <time>2020-05-22T14:56:08Z</time>
      </trkpt>
      <trkpt lat="47.15942" lon="6.47035">
        <ele>724.2</ele>
        <time>2020-05-22T14:56:09Z</time>
      </trkpt>
      <trkpt lat="47.15936" lon="6.47035">
        <ele>724.2</ele>
        <time>2020-05-22T14:56:10Z</time>
      </trkpt>
      <trkpt lat="47.1593" lon="6.47034">
        <ele>724.2</ele>
        <time>2020-05-22T14:56:11Z</time>
      </trkpt>
      <trkpt lat="47.15925" lon="6.47034">
        <ele>724.2</ele>
        <time>2020-05-22T14:56:12Z</time>
      </trkpt>
      <trkpt lat="47.15919" lon="6.47033">
        <ele>724.2</ele>
        <time>2020-05-22T14:56:13Z</time>
      </trkpt>
      <trkpt lat="47.15913" lon="6.47033">
        <ele>724.2</ele>
        <time>2020-05-22T14:56:14Z</time>
      </trkpt>
      <trkpt lat="47.15907" lon="6.47032">
        <ele>724</ele>
        <time>2020-05-22T14:56:15Z</time>
      </trkpt>
      <trkpt lat="47.15901" lon="6.47032">
        <ele>724</ele>
        <time>2020-05-22T14:56:16Z</time>
      </trkpt>
      <trkpt lat="47.15895" lon="6.47031">
        <ele>723.6</ele>
        <time>2020-05-22T14:56:17Z</time>
      </trkpt>
      <trkpt lat="47.15889" lon="6.47031">
        <ele>723.6</ele>
        <time>2020-05-22T14:56:18Z</time>
      </trkpt>
      <trkpt lat="47.15883" lon="6.4703">
        <ele>723.6</ele>
        <time>2020-05-22T14:56:19Z</time>
      </trkpt>
      <trkpt lat="47.15877" lon="6.4703">
        <ele>723.6</ele>
        <time>2020-05-22T14:56:20Z</time>
      </trkpt>
      <trkpt lat="47.15871" lon="6.4703">
        <ele>723.6</ele>
        <time>2020-05-22T14:56:21Z</time>
      </trkpt>
      <trkpt lat="47.15865" lon="6.47029">
        <ele>723.4</ele>
        <time>2020-05-22T14:56:22Z</time>
      </trkpt>
      <trkpt lat="47.15859" lon="6.47029">
        <ele>723.4</ele>
        <time>2020-05-22T14:56:23Z</time>
      </trkpt>
      <trkpt lat="47.15853" lon="6.47028">
        <ele>723.4</ele>
        <time>2020-05-22T14:56:24Z</time>
      </trkpt>
      <trkpt lat="47.15848" lon="6.47028">
        <ele>723.4</ele>
        <time>2020-05-22T14:56:25Z</time>
      </trkpt>
      <trkpt lat="47.15842" lon="6.47027">
        <ele>723.2</ele>
        <time>2020-05-22T14:56:26Z</time>
      </trkpt>
      <trkpt lat="47.15836" lon="6.47027">
        <ele>723.2</ele>
        <time>2020-05-22T14:56:27Z</time>
      </trkpt>
      <trkpt lat="47.1583" lon="6.47026">
        <ele>722.8</ele>
        <time>2020-05-22T14:56:28Z</time>
      </trkpt>
      <trkpt lat="47.15824" lon="6.47025">
        <ele>722.8</ele>
        <time>2020-05-22T14:56:29Z</time>
      </trkpt>
      <trkpt lat="47.15817" lon="6.47025">
        <ele>722.8</ele>
        <time>2020-05-22T14:56:30Z</time>
      </trkpt>
      <trkpt lat="47.15811" lon="6.47024">
        <ele>722.8</ele>
        <time>2020-05-22T14:56:31Z</time>
      </trkpt>
      <trkpt lat="47.15805" lon="6.47023">
        <ele>722.6</ele>
        <time>2020-05-22T14:56:32Z</time>
      </trkpt>
      <trkpt lat="47.15799" lon="6.47022">
        <ele>722.6</ele>
        <time>2020-05-22T14:56:33Z</time>
      </trkpt>
      <trkpt lat="47.15793" lon="6.4702">
        <ele>722.6</ele>
        <time>2020-05-22T14:56:34Z</time>
      </trkpt>
      <trkpt lat="47.15787" lon="6.47019">
        <ele>722.4</ele>
        <time>2020-05-22T14:56:35Z</time>
      </trkpt>
      <trkpt lat="47.15781" lon="6.47016">
        <ele>722.4</ele>
        <time>2020-05-22T14:56:36Z</time>
      </trkpt>
      <trkpt lat="47.15774" lon="6.47013">
        <ele>722.4</ele>
        <time>2020-05-22T14:56:37Z</time>
      </trkpt>
      <trkpt lat="47.15768" lon="6.4701">
        <ele>722.4</ele>
        <time>2020-05-22T14:56:38Z</time>
      </trkpt>
      <trkpt lat="47.15762" lon="6.47006">
        <ele>722</ele>
        <time>2020-05-22T14:56:39Z</time>
      </trkpt>
      <trkpt lat="47.15756" lon="6.47001">
        <ele>722</ele>
        <time>2020-05-22T14:56:40Z</time>
      </trkpt>
      <trkpt lat="47.15751" lon="6.46995">
        <ele>722</ele>
        <time>2020-05-22T14:56:41Z</time>
      </trkpt>
      <trkpt lat="47.15746" lon="6.46989">
        <ele>721.8</ele>
        <time>2020-05-22T14:56:42Z</time>
      </trkpt>
      <trkpt lat="47.15741" lon="6.46982">
        <ele>721.8</ele>
        <time>2020-05-22T14:56:43Z</time>
      </trkpt>
      <trkpt lat="47.15736" lon="6.46974">
        <ele>721.8</ele>
        <time>2020-05-22T14:56:44Z</time>
      </trkpt>
      <trkpt lat="47.15732" lon="6.46966">
        <ele>721.8</ele>
        <time>2020-05-22T14:56:45Z</time>
      </trkpt>
      <trkpt lat="47.15728" lon="6.46958">
        <ele>721.6</ele>
        <time>2020-05-22T14:56:46Z</time>
      </trkpt>
      <trkpt lat="47.15725" lon="6.46949">
        <ele>721.6</ele>
        <time>2020-05-22T14:56:47Z</time>
      </trkpt>
      <trkpt lat="47.15722" lon="6.4694">
        <ele>721.2</ele>
        <time>2020-05-22T14:56:48Z</time>
      </trkpt>
      <trkpt lat="47.1572" lon="6.4693">
        <ele>721.2</ele>
        <time>2020-05-22T14:56:49Z</time>
      </trkpt>
      <trkpt lat="47.15718" lon="6.4692">
        <ele>720.8</ele>
        <time>2020-05-22T14:56:50Z</time>
      </trkpt>
      <trkpt lat="47.15716" lon="6.46911">
        <ele>720.4</ele>
        <time>2020-05-22T14:56:51Z</time>
      </trkpt>
      <trkpt lat="47.15714" lon="6.46901">
        <ele>720.2</ele>
        <time>2020-05-22T14:56:52Z</time>
      </trkpt>
      <trkpt lat="47.15713" lon="6.46891">
        <ele>719.8</ele>
        <time>2020-05-22T14:56:53Z</time>
      </trkpt>
      <trkpt lat="47.15712" lon="6.46881">
        <ele>719.6</ele>
        <time>2020-05-22T14:56:54Z</time>
      </trkpt>
      <trkpt lat="47.1571" lon="6.4687">
        <ele>719.2</ele>
        <time>2020-05-22T14:56:55Z</time>
      </trkpt>
      <trkpt lat="47.15709" lon="6.4686">
        <ele>719</ele>
        <time>2020-05-22T14:56:56Z</time>
      </trkpt>
      <trkpt lat="47.15708" lon="6.46849">
        <ele>718.6</ele>
        <time>2020-05-22T14:56:57Z</time>
      </trkpt>
      <trkpt lat="47.15707" lon="6.46839">
        <ele>718.4</ele>
        <time>2020-05-22T14:56:58Z</time>
      </trkpt>
      <trkpt lat="47.15705" lon="6.46828">
        <ele>718.2</ele>
        <time>2020-05-22T14:56:59Z</time>
      </trkpt>
      <trkpt lat="47.15704" lon="6.46818">
        <ele>717.8</ele>
        <time>2020-05-22T14:57:00Z</time>
      </trkpt>
      <trkpt lat="47.15703" lon="6.46807">
        <ele>717.6</ele>
        <time>2020-05-22T14:57:01Z</time>
      </trkpt>
      <trkpt lat="47.15702" lon="6.46796">
        <ele>717.6</ele>
        <time>2020-05-22T14:57:02Z</time>
      </trkpt>
      <trkpt lat="47.15701" lon="6.46785">
        <ele>717</ele>
        <time>2020-05-22T14:57:03Z</time>
      </trkpt>
      <trkpt lat="47.15701" lon="6.46773">
        <ele>716.6</ele>
        <time>2020-05-22T14:57:04Z</time>
      </trkpt>
      <trkpt lat="47.15701" lon="6.46762">
        <ele>716.2</ele>
        <time>2020-05-22T14:57:05Z</time>
      </trkpt>
      <trkpt lat="47.15701" lon="6.4675">
        <ele>715.8</ele>
        <time>2020-05-22T14:57:06Z</time>
      </trkpt>
      <trkpt lat="47.15702" lon="6.46738">
        <ele>715.6</ele>
        <time>2020-05-22T14:57:07Z</time>
      </trkpt>
      <trkpt lat="47.15703" lon="6.46726">
        <ele>715.6</ele>
        <time>2020-05-22T14:57:08Z</time>
      </trkpt>
      <trkpt lat="47.15704" lon="6.46714">
        <ele>715.2</ele>
        <time>2020-05-22T14:57:09Z</time>
      </trkpt>
      <trkpt lat="47.15706" lon="6.46702">
        <ele>715.2</ele>
        <time>2020-05-22T14:57:10Z</time>
      </trkpt>
      <trkpt lat="47.15708" lon="6.4669">
        <ele>714.8</ele>
        <time>2020-05-22T14:57:11Z</time>
      </trkpt>
      <trkpt lat="47.15711" lon="6.46678">
        <ele>714.6</ele>
        <time>2020-05-22T14:57:12Z</time>
      </trkpt>
      <trkpt lat="47.15714" lon="6.46666">
        <ele>714.4</ele>
        <time>2020-05-22T14:57:13Z</time>
      </trkpt>
      <trkpt lat="47.15717" lon="6.46655">
        <ele>714.4</ele>
        <time>2020-05-22T14:57:14Z</time>
      </trkpt>
      <trkpt lat="47.1572" lon="6.46644">
        <ele>714</ele>
        <time>2020-05-22T14:57:15Z</time>
      </trkpt>
      <trkpt lat="47.15723" lon="6.46633">
        <ele>713.4</ele>
        <time>2020-05-22T14:57:16Z</time>
      </trkpt>
      <trkpt lat="47.15727" lon="6.46622">
        <ele>713</ele>
        <time>2020-05-22T14:57:17Z</time>
      </trkpt>
      <trkpt lat="47.1573" lon="6.46611">
        <ele>712.6</ele>
        <time>2020-05-22T14:57:18Z</time>
      </trkpt>
      <trkpt lat="47.15734" lon="6.466">
        <ele>712.4</ele>
        <time>2020-05-22T14:57:19Z</time>
      </trkpt>
      <trkpt lat="47.15737" lon="6.4659">
        <ele>712</ele>
        <time>2020-05-22T14:57:20Z</time>
      </trkpt>
      <trkpt lat="47.1574" lon="6.46579">
        <ele>711.8</ele>
        <time>2020-05-22T14:57:21Z</time>
      </trkpt>
      <trkpt lat="47.15743" lon="6.46568">
        <ele>711.2</ele>
        <time>2020-05-22T14:57:22Z</time>
      </trkpt>
      <trkpt lat="47.15746" lon="6.46557">
        <ele>710.8</ele>
        <time>2020-05-22T14:57:23Z</time>
      </trkpt>
      <trkpt lat="47.15749" lon="6.46545">
        <ele>710.6</ele>
        <time>2020-05-22T14:57:24Z</time>
      </trkpt>
      <trkpt lat="47.15751" lon="6.46534">
        <ele>710.2</ele>
        <time>2020-05-22T14:57:25Z</time>
      </trkpt>
      <trkpt lat="47.15753" lon="6.46522">
        <ele>709.8</ele>
        <time>2020-05-22T14:57:26Z</time>
      </trkpt>
      <trkpt lat="47.15755" lon="6.4651">
        <ele>709.6</ele>
        <time>2020-05-22T14:57:27Z</time>
      </trkpt>
      <trkpt lat="47.15756" lon="6.46498">
        <ele>709.4</ele>
        <time>2020-05-22T14:57:28Z</time>
      </trkpt>
      <trkpt lat="47.15756" lon="6.46486">
        <ele>709</ele>
        <time>2020-05-22T14:57:29Z</time>
      </trkpt>
      <trkpt lat="47.15756" lon="6.46475">
        <ele>708.4</ele>
        <time>2020-05-22T14:57:30Z</time>
      </trkpt>
      <trkpt lat="47.15755" lon="6.46463">
        <ele>707.8</ele>
        <time>2020-05-22T14:57:31Z</time>
      </trkpt>
      <trkpt lat="47.15753" lon="6.4645">
        <ele>707.4</ele>
        <time>2020-05-22T14:57:32Z</time>
      </trkpt>
      <trkpt lat="47.15751" lon="6.46438">
        <ele>707</ele>
        <time>2020-05-22T14:57:33Z</time>
      </trkpt>
      <trkpt lat="47.15747" lon="6.46426">
        <ele>706.6</ele>
        <time>2020-05-22T14:57:34Z</time>
      </trkpt>
      <trkpt lat="47.15744" lon="6.46415">
        <ele>706.2</ele>
        <time>2020-05-22T14:57:35Z</time>
      </trkpt>
      <trkpt lat="47.15739" lon="6.46403">
        <ele>705.8</ele>
        <time>2020-05-22T14:57:36Z</time>
      </trkpt>
      <trkpt lat="47.15734" lon="6.46392">
        <ele>705.4</ele>
        <time>2020-05-22T14:57:37Z</time>
      </trkpt>
      <trkpt lat="47.15729" lon="6.46382">
        <ele>705</ele>
        <time>2020-05-22T14:57:38Z</time>
      </trkpt>
      <trkpt lat="47.15722" lon="6.46372">
        <ele>704.6</ele>
        <time>2020-05-22T14:57:39Z</time>
      </trkpt>
      <trkpt lat="47.15714" lon="6.46363">
        <ele>704</ele>
        <time>2020-05-22T14:57:40Z</time>
      </trkpt>
      <trkpt lat="47.15707" lon="6.46353">
        <ele>703.6</ele>
        <time>2020-05-22T14:57:41Z</time>
      </trkpt>
      <trkpt lat="47.157" lon="6.46344">
        <ele>703.2</ele>
        <time>2020-05-22T14:57:42Z</time>
      </trkpt>
      <trkpt lat="47.15693" lon="6.46336">
        <ele>702.8</ele>
        <time>2020-05-22T14:57:43Z</time>
      </trkpt>
      <trkpt lat="47.15686" lon="6.46326">
        <ele>702.6</ele>
        <time>2020-05-22T14:57:44Z</time>
      </trkpt>
      <trkpt lat="47.1568" lon="6.46317">
        <ele>702.2</ele>
        <time>2020-05-22T14:57:45Z</time>
      </trkpt>
      <trkpt lat="47.15674" lon="6.46308">
        <ele>702.2</ele>
        <time>2020-05-22T14:57:46Z</time>
      </trkpt>
      <trkpt lat="47.15668" lon="6.463">
        <ele>702</ele>
        <time>2020-05-22T14:57:47Z</time>
      </trkpt>
      <trkpt lat="47.15661" lon="6.46291">
        <ele>701.6</ele>
        <time>2020-05-22T14:57:48Z</time>
      </trkpt>
      <trkpt lat="47.15655" lon="6.46283">
        <ele>701.2</ele>
        <time>2020-05-22T14:57:49Z</time>
      </trkpt>
      <trkpt lat="47.15649" lon="6.46275">
        <ele>700.8</ele>
        <time>2020-05-22T14:57:50Z</time>
      </trkpt>
      <trkpt lat="47.15644" lon="6.46267">
        <ele>700.6</ele>
        <time>2020-05-22T14:57:51Z</time>
      </trkpt>
      <trkpt lat="47.15638" lon="6.46259">
        <ele>700.4</ele>
        <time>2020-05-22T14:57:52Z</time>
      </trkpt>
      <trkpt lat="47.15632" lon="6.46252">
        <ele>700.2</ele>
        <time>2020-05-22T14:57:53Z</time>
      </trkpt>
      <trkpt lat="47.15627" lon="6.46245">
        <ele>700.2</ele>
        <time>2020-05-22T14:57:54Z</time>
      </trkpt>
      <trkpt lat="47.15622" lon="6.46237">
        <ele>700</ele>
        <time>2020-05-22T14:57:55Z</time>
      </trkpt>
      <trkpt lat="47.15617" lon="6.4623">
        <ele>700</ele>
        <time>2020-05-22T14:57:56Z</time>
      </trkpt>
      <trkpt lat="47.15612" lon="6.46223">
        <ele>699.8</ele>
        <time>2020-05-22T14:57:57Z</time>
      </trkpt>
      <trkpt lat="47.15607" lon="6.46216">
        <ele>699.8</ele>
        <time>2020-05-22T14:57:58Z</time>
      </trkpt>
      <trkpt lat="47.15602" lon="6.4621">
        <ele>699.8</ele>
        <time>2020-05-22T14:57:59Z</time>
      </trkpt>
      <trkpt lat="47.15597" lon="6.46203">
        <ele>699.4</ele>
        <time>2020-05-22T14:58:00Z</time>
      </trkpt>
      <trkpt lat="47.15592" lon="6.46197">
        <ele>699.4</ele>
        <time>2020-05-22T14:58:01Z</time>
      </trkpt>
      <trkpt lat="47.15587" lon="6.46191">
        <ele>699.2</ele>
        <time>2020-05-22T14:58:02Z</time>
      </trkpt>
      <trkpt lat="47.15582" lon="6.46184">
        <ele>699.2</ele>
        <time>2020-05-22T14:58:03Z</time>
      </trkpt>
      <trkpt lat="47.15578" lon="6.46178">
        <ele>699.2</ele>
        <time>2020-05-22T14:58:04Z</time>
      </trkpt>
      <trkpt lat="47.15573" lon="6.46172">
        <ele>699</ele>
        <time>2020-05-22T14:58:05Z</time>
      </trkpt>
      <trkpt lat="47.15569" lon="6.46166">
        <ele>699</ele>
        <time>2020-05-22T14:58:06Z</time>
      </trkpt>
      <trkpt lat="47.15564" lon="6.4616">
        <ele>699</ele>
        <time>2020-05-22T14:58:07Z</time>
      </trkpt>
      <trkpt lat="47.1556" lon="6.46153">
        <ele>699</ele>
        <time>2020-05-22T14:58:08Z</time>
      </trkpt>
      <trkpt lat="47.15555" lon="6.46148">
        <ele>699</ele>
        <time>2020-05-22T14:58:09Z</time>
      </trkpt>
      <trkpt lat="47.15551" lon="6.46142">
        <ele>699</ele>
        <time>2020-05-22T14:58:10Z</time>
      </trkpt>
      <trkpt lat="47.15547" lon="6.46136">
        <ele>699</ele>
        <time>2020-05-22T14:58:11Z</time>
      </trkpt>
      <trkpt lat="47.15542" lon="6.4613">
        <ele>699</ele>
        <time>2020-05-22T14:58:12Z</time>
      </trkpt>
      <trkpt lat="47.15538" lon="6.46124">
        <ele>699</ele>
        <time>2020-05-22T14:58:13Z</time>
      </trkpt>
      <trkpt lat="47.15534" lon="6.46119">
        <ele>699</ele>
        <time>2020-05-22T14:58:14Z</time>
      </trkpt>
      <trkpt lat="47.1553" lon="6.46113">
        <ele>699</ele>
        <time>2020-05-22T14:58:15Z</time>
      </trkpt>
      <trkpt lat="47.15526" lon="6.46108">
        <ele>699.2</ele>
        <time>2020-05-22T14:58:16Z</time>
      </trkpt>
      <trkpt lat="47.15522" lon="6.46102">
        <ele>699.2</ele>
        <time>2020-05-22T14:58:17Z</time>
      </trkpt>
      <trkpt lat="47.15518" lon="6.46097">
        <ele>699.2</ele>
        <time>2020-05-22T14:58:18Z</time>
      </trkpt>
      <trkpt lat="47.15514" lon="6.46091">
        <ele>699.2</ele>
        <time>2020-05-22T14:58:19Z</time>
      </trkpt>
      <trkpt lat="47.1551" lon="6.46086">
        <ele>699.2</ele>
        <time>2020-05-22T14:58:20Z</time>
      </trkpt>
      <trkpt lat="47.15506" lon="6.46081">
        <ele>699.2</ele>
        <time>2020-05-22T14:58:21Z</time>
      </trkpt>
      <trkpt lat="47.15502" lon="6.46075">
        <ele>699.2</ele>
        <time>2020-05-22T14:58:22Z</time>
      </trkpt>
      <trkpt lat="47.15498" lon="6.4607">
        <ele>699.2</ele>
        <time>2020-05-22T14:58:23Z</time>
      </trkpt>
      <trkpt lat="47.15494" lon="6.46064">
        <ele>699.2</ele>
        <time>2020-05-22T14:58:24Z</time>
      </trkpt>
      <trkpt lat="47.15491" lon="6.46059">
        <ele>699.2</ele>
        <time>2020-05-22T14:58:25Z</time>
      </trkpt>
      <trkpt lat="47.15487" lon="6.46054">
        <ele>699.2</ele>
        <time>2020-05-22T14:58:26Z</time>
      </trkpt>
      <trkpt lat="47.15483" lon="6.46049">
        <ele>699.2</ele>
        <time>2020-05-22T14:58:27Z</time>
      </trkpt>
      <trkpt lat="47.1548" lon="6.46044">
        <ele>699.2</ele>
        <time>2020-05-22T14:58:28Z</time>
      </trkpt>
      <trkpt lat="47.15476" lon="6.4604">
        <ele>699.2</ele>
        <time>2020-05-22T14:58:29Z</time>
      </trkpt>
      <trkpt lat="47.15473" lon="6.46034">
        <ele>699.2</ele>
        <time>2020-05-22T14:58:30Z</time>
      </trkpt>
      <trkpt lat="47.15469" lon="6.46029">
        <ele>699.2</ele>
        <time>2020-05-22T14:58:31Z</time>
      </trkpt>
      <trkpt lat="47.15465" lon="6.46025">
        <ele>699.2</ele>
        <time>2020-05-22T14:58:32Z</time>
      </trkpt>
      <trkpt lat="47.15462" lon="6.4602">
        <ele>699.2</ele>
        <time>2020-05-22T14:58:33Z</time>
      </trkpt>
      <trkpt lat="47.15458" lon="6.46015">
        <ele>699.2</ele>
        <time>2020-05-22T14:58:34Z</time>
      </trkpt>
      <trkpt lat="47.15455" lon="6.4601">
        <ele>699.2</ele>
        <time>2020-05-22T14:58:35Z</time>
      </trkpt>
      <trkpt lat="47.15451" lon="6.46005">
        <ele>699.2</ele>
        <time>2020-05-22T14:58:36Z</time>
      </trkpt>
      <trkpt lat="47.15448" lon="6.46">
        <ele>699.2</ele>
        <time>2020-05-22T14:58:37Z</time>
      </trkpt>
      <trkpt lat="47.15445" lon="6.45995">
        <ele>699.2</ele>
        <time>2020-05-22T14:58:38Z</time>
      </trkpt>
      <trkpt lat="47.15441" lon="6.4599">
        <ele>699.2</ele>
        <time>2020-05-22T14:58:39Z</time>
      </trkpt>
      <trkpt lat="47.15438" lon="6.45985">
        <ele>699.2</ele>
        <time>2020-05-22T14:58:40Z</time>
      </trkpt>
      <trkpt lat="47.15435" lon="6.4598">
        <ele>699.2</ele>
        <time>2020-05-22T14:58:41Z</time>
      </trkpt>
      <trkpt lat="47.15432" lon="6.45974">
        <ele>699.2</ele>
        <time>2020-05-22T14:58:42Z</time>
      </trkpt>
      <trkpt lat="47.15429" lon="6.45969">
        <ele>699.2</ele>
        <time>2020-05-22T14:58:43Z</time>
      </trkpt>
      <trkpt lat="47.15426" lon="6.45963">
        <ele>699.2</ele>
        <time>2020-05-22T14:58:44Z</time>
      </trkpt>
      <trkpt lat="47.15423" lon="6.45957">
        <ele>699.2</ele>
        <time>2020-05-22T14:58:45Z</time>
      </trkpt>
      <trkpt lat="47.1542" lon="6.45952">
        <ele>699.2</ele>
        <time>2020-05-22T14:58:46Z</time>
      </trkpt>
      <trkpt lat="47.15418" lon="6.45946">
        <ele>699.2</ele>
        <time>2020-05-22T14:58:47Z</time>
      </trkpt>
      <trkpt lat="47.15415" lon="6.4594">
        <ele>699.2</ele>
        <time>2020-05-22T14:58:48Z</time>
      </trkpt>
      <trkpt lat="47.15413" lon="6.45934">
        <ele>699.2</ele>
        <time>2020-05-22T14:58:49Z</time>
      </trkpt>
      <trkpt lat="47.1541" lon="6.45928">
        <ele>699.2</ele>
        <time>2020-05-22T14:58:50Z</time>
      </trkpt>
      <trkpt lat="47.15408" lon="6.45922">
        <ele>699</ele>
        <time>2020-05-22T14:58:51Z</time>
      </trkpt>
      <trkpt lat="47.15405" lon="6.45916">
        <ele>699</ele>
        <time>2020-05-22T14:58:52Z</time>
      </trkpt>
      <trkpt lat="47.15403" lon="6.4591">
        <ele>699</ele>
        <time>2020-05-22T14:58:53Z</time>
      </trkpt>
      <trkpt lat="47.15401" lon="6.45904">
        <ele>699.2</ele>
        <time>2020-05-22T14:58:54Z</time>
      </trkpt>
      <trkpt lat="47.15399" lon="6.45898">
        <ele>699.2</ele>
        <time>2020-05-22T14:58:55Z</time>
      </trkpt>
      <trkpt lat="47.15397" lon="6.45893">
        <ele>699.2</ele>
        <time>2020-05-22T14:58:56Z</time>
      </trkpt>
      <trkpt lat="47.15395" lon="6.45887">
        <ele>699.2</ele>
        <time>2020-05-22T14:58:57Z</time>
      </trkpt>
      <trkpt lat="47.15393" lon="6.45881">
        <ele>699.2</ele>
        <time>2020-05-22T14:58:58Z</time>
      </trkpt>
      <trkpt lat="47.15391" lon="6.45876">
        <ele>699.6</ele>
        <time>2020-05-22T14:58:59Z</time>
      </trkpt>
      <trkpt lat="47.15389" lon="6.4587">
        <ele>699.6</ele>
        <time>2020-05-22T14:59:00Z</time>
      </trkpt>
      <trkpt lat="47.15388" lon="6.45865">
        <ele>699.8</ele>
        <time>2020-05-22T14:59:01Z</time>
      </trkpt>
      <trkpt lat="47.15386" lon="6.45859">
        <ele>699.6</ele>
        <time>2020-05-22T14:59:02Z</time>
      </trkpt>
      <trkpt lat="47.15384" lon="6.45854">
        <ele>699.6</ele>
        <time>2020-05-22T14:59:03Z</time>
      </trkpt>
      <trkpt lat="47.15382" lon="6.45848">
        <ele>699.6</ele>
        <time>2020-05-22T14:59:04Z</time>
      </trkpt>
      <trkpt lat="47.1538" lon="6.45843">
        <ele>699.6</ele>
        <time>2020-05-22T14:59:05Z</time>
      </trkpt>
      <trkpt lat="47.15378" lon="6.45837">
        <ele>699.6</ele>
        <time>2020-05-22T14:59:06Z</time>
      </trkpt>
      <trkpt lat="47.15376" lon="6.45832">
        <ele>699.6</ele>
        <time>2020-05-22T14:59:07Z</time>
      </trkpt>
      <trkpt lat="47.15374" lon="6.45826">
        <ele>699.6</ele>
        <time>2020-05-22T14:59:08Z</time>
      </trkpt>
      <trkpt lat="47.15372" lon="6.4582">
        <ele>699.6</ele>
        <time>2020-05-22T14:59:09Z</time>
      </trkpt>
      <trkpt lat="47.1537" lon="6.45814">
        <ele>699.6</ele>
        <time>2020-05-22T14:59:10Z</time>
      </trkpt>
      <trkpt lat="47.15369" lon="6.45809">
        <ele>699.6</ele>
        <time>2020-05-22T14:59:11Z</time>
      </trkpt>
      <trkpt lat="47.15367" lon="6.45803">
        <ele>699.6</ele>
        <time>2020-05-22T14:59:12Z</time>
      </trkpt>
      <trkpt lat="47.15365" lon="6.45797">
        <ele>699.6</ele>
        <time>2020-05-22T14:59:13Z</time>
      </trkpt>
      <trkpt lat="47.15363" lon="6.45791">
        <ele>699.6</ele>
        <time>2020-05-22T14:59:14Z</time>
      </trkpt>
      <trkpt lat="47.15361" lon="6.45785">
        <ele>699.6</ele>
        <time>2020-05-22T14:59:15Z</time>
      </trkpt>
      <trkpt lat="47.15358" lon="6.45779">
        <ele>699.6</ele>
        <time>2020-05-22T14:59:16Z</time>
      </trkpt>
      <trkpt lat="47.15356" lon="6.45773">
        <ele>699.6</ele>
        <time>2020-05-22T14:59:17Z</time>
      </trkpt>
      <trkpt lat="47.15354" lon="6.45768">
        <ele>699.6</ele>
        <time>2020-05-22T14:59:18Z</time>
      </trkpt>
      <trkpt lat="47.15352" lon="6.45762">
        <ele>699.6</ele>
        <time>2020-05-22T14:59:19Z</time>
      </trkpt>
      <trkpt lat="47.1535" lon="6.45756">
        <ele>699.6</ele>
        <time>2020-05-22T14:59:20Z</time>
      </trkpt>
      <trkpt lat="47.15348" lon="6.45751">
        <ele>699.8</ele>
        <time>2020-05-22T14:59:21Z</time>
      </trkpt>
      <trkpt lat="47.15347" lon="6.45745">
        <ele>699.8</ele>
        <time>2020-05-22T14:59:22Z</time>
      </trkpt>
      <trkpt lat="47.15345" lon="6.45739">
        <ele>699.8</ele>
        <time>2020-05-22T14:59:23Z</time>
      </trkpt>
      <trkpt lat="47.15343" lon="6.45734">
        <ele>699.8</ele>
        <time>2020-05-22T14:59:24Z</time>
      </trkpt>
      <trkpt lat="47.15341" lon="6.45728">
        <ele>699.8</ele>
        <time>2020-05-22T14:59:25Z</time>
      </trkpt>
      <trkpt lat="47.15339" lon="6.45723">
        <ele>699.8</ele>
        <time>2020-05-22T14:59:26Z</time>
      </trkpt>
      <trkpt lat="47.15337" lon="6.45717">
        <ele>699.8</ele>
        <time>2020-05-22T14:59:27Z</time>
      </trkpt>
      <trkpt lat="47.15335" lon="6.45711">
        <ele>699.8</ele>
        <time>2020-05-22T14:59:28Z</time>
      </trkpt>
      <trkpt lat="47.15333" lon="6.45706">
        <ele>700</ele>
        <time>2020-05-22T14:59:29Z</time>
      </trkpt>
      <trkpt lat="47.15331" lon="6.457">
        <ele>700</ele>
        <time>2020-05-22T14:59:30Z</time>
      </trkpt>
      <trkpt lat="47.15329" lon="6.45694">
        <ele>700</ele>
        <time>2020-05-22T14:59:31Z</time>
      </trkpt>
      <trkpt lat="47.15327" lon="6.45688">
        <ele>700</ele>
        <time>2020-05-22T14:59:32Z</time>
      </trkpt>
      <trkpt lat="47.15325" lon="6.45683">
        <ele>700</ele>
        <time>2020-05-22T14:59:33Z</time>
      </trkpt>
      <trkpt lat="47.15323" lon="6.45677">
        <ele>700</ele>
        <time>2020-05-22T14:59:34Z</time>
      </trkpt>
      <trkpt lat="47.15321" lon="6.45671">
        <ele>700</ele>
        <time>2020-05-22T14:59:35Z</time>
      </trkpt>
      <trkpt lat="47.15319" lon="6.45665">
        <ele>700</ele>
        <time>2020-05-22T14:59:36Z</time>
      </trkpt>
      <trkpt lat="47.15317" lon="6.4566">
        <ele>700</ele>
        <time>2020-05-22T14:59:37Z</time>
      </trkpt>
      <trkpt lat="47.15315" lon="6.45654">
        <ele>700</ele>
        <time>2020-05-22T14:59:38Z</time>
      </trkpt>
      <trkpt lat="47.15313" lon="6.45648">
        <ele>700</ele>
        <time>2020-05-22T14:59:39Z</time>
      </trkpt>
      <trkpt lat="47.15311" lon="6.45643">
        <ele>700</ele>
        <time>2020-05-22T14:59:40Z</time>
      </trkpt>
      <trkpt lat="47.15309" lon="6.45637">
        <ele>700</ele>
        <time>2020-05-22T14:59:41Z</time>
      </trkpt>
      <trkpt lat="47.15307" lon="6.45631">
        <ele>700</ele>
        <time>2020-05-22T14:59:42Z</time>
      </trkpt>
      <trkpt lat="47.15305" lon="6.45626">
        <ele>700</ele>
        <time>2020-05-22T14:59:43Z</time>
      </trkpt>
      <trkpt lat="47.15303" lon="6.4562">
        <ele>700</ele>
        <time>2020-05-22T14:59:44Z</time>
      </trkpt>
      <trkpt lat="47.15301" lon="6.45614">
        <ele>700</ele>
        <time>2020-05-22T14:59:45Z</time>
      </trkpt>
      <trkpt lat="47.15299" lon="6.45608">
        <ele>700</ele>
        <time>2020-05-22T14:59:46Z</time>
      </trkpt>
      <trkpt lat="47.15297" lon="6.45603">
        <ele>699.8</ele>
        <time>2020-05-22T14:59:47Z</time>
      </trkpt>
      <trkpt lat="47.15295" lon="6.45597">
        <ele>699.8</ele>
        <time>2020-05-22T14:59:48Z</time>
      </trkpt>
      <trkpt lat="47.15293" lon="6.45591">
        <ele>699.8</ele>
        <time>2020-05-22T14:59:49Z</time>
      </trkpt>
      <trkpt lat="47.15291" lon="6.45585">
        <ele>699.8</ele>
        <time>2020-05-22T14:59:50Z</time>
      </trkpt>
      <trkpt lat="47.15289" lon="6.45579">
        <ele>699.8</ele>
        <time>2020-05-22T14:59:51Z</time>
      </trkpt>
      <trkpt lat="47.15287" lon="6.45573">
        <ele>699.8</ele>
        <time>2020-05-22T14:59:52Z</time>
      </trkpt>
      <trkpt lat="47.15285" lon="6.45567">
        <ele>699.8</ele>
        <time>2020-05-22T14:59:53Z</time>
      </trkpt>
      <trkpt lat="47.15283" lon="6.45562">
        <ele>699.8</ele>
        <time>2020-05-22T14:59:54Z</time>
      </trkpt>
      <trkpt lat="47.15281" lon="6.45556">
        <ele>699.8</ele>
        <time>2020-05-22T14:59:55Z</time>
      </trkpt>
      <trkpt lat="47.15279" lon="6.4555">
        <ele>700</ele>
        <time>2020-05-22T14:59:56Z</time>
      </trkpt>
      <trkpt lat="47.15277" lon="6.45544">
        <ele>700</ele>
        <time>2020-05-22T14:59:57Z</time>
      </trkpt>
      <trkpt lat="47.15275" lon="6.45538">
        <ele>700</ele>
        <time>2020-05-22T14:59:58Z</time>
      </trkpt>
      <trkpt lat="47.15273" lon="6.45533">
        <ele>700</ele>
        <time>2020-05-22T14:59:59Z</time>
      </trkpt>
      <trkpt lat="47.15271" lon="6.45527">
        <ele>700</ele>
        <time>2020-05-22T15:00:00Z</time>
      </trkpt>
      <trkpt lat="47.15269" lon="6.45521">
        <ele>700.4</ele>
        <time>2020-05-22T15:00:01Z</time>
      </trkpt>
      <trkpt lat="47.15267" lon="6.45515">
        <ele>700.4</ele>
        <time>2020-05-22T15:00:02Z</time>
      </trkpt>
      <trkpt lat="47.15265" lon="6.45509">
        <ele>700.4</ele>
        <time>2020-05-22T15:00:03Z</time>
      </trkpt>
      <trkpt lat="47.15263" lon="6.45504">
        <ele>700.4</ele>
        <time>2020-05-22T15:00:04Z</time>
      </trkpt>
      <trkpt lat="47.15261" lon="6.45498">
        <ele>700.4</ele>
        <time>2020-05-22T15:00:05Z</time>
      </trkpt>
      <trkpt lat="47.15259" lon="6.45492">
        <ele>700.4</ele>
        <time>2020-05-22T15:00:06Z</time>
      </trkpt>
      <trkpt lat="47.15257" lon="6.45487">
        <ele>700.4</ele>
        <time>2020-05-22T15:00:07Z</time>
      </trkpt>
      <trkpt lat="47.15255" lon="6.45481">
        <ele>700.4</ele>
        <time>2020-05-22T15:00:08Z</time>
      </trkpt>
      <trkpt lat="47.15253" lon="6.45476">
        <ele>700.4</ele>
        <time>2020-05-22T15:00:09Z</time>
      </trkpt>
      <trkpt lat="47.15251" lon="6.4547">
        <ele>700.4</ele>
        <time>2020-05-22T15:00:10Z</time>
      </trkpt>
      <trkpt lat="47.15249" lon="6.45465">
        <ele>700.4</ele>
        <time>2020-05-22T15:00:11Z</time>
      </trkpt>
      <trkpt lat="47.15247" lon="6.45459">
        <ele>700.4</ele>
        <time>2020-05-22T15:00:12Z</time>
      </trkpt>
      <trkpt lat="47.15246" lon="6.45454">
        <ele>700.4</ele>
        <time>2020-05-22T15:00:13Z</time>
      </trkpt>
      <trkpt lat="47.15244" lon="6.45449">
        <ele>700.4</ele>
        <time>2020-05-22T15:00:14Z</time>
      </trkpt>
      <trkpt lat="47.15242" lon="6.45444">
        <ele>700.4</ele>
        <time>2020-05-22T15:00:15Z</time>
      </trkpt>
      <trkpt lat="47.1524" lon="6.45438">
        <ele>700.4</ele>
        <time>2020-05-22T15:00:16Z</time>
      </trkpt>
      <trkpt lat="47.15238" lon="6.45433">
        <ele>700.4</ele>
        <time>2020-05-22T15:00:17Z</time>
      </trkpt>
      <trkpt lat="47.15236" lon="6.45428">
        <ele>700.4</ele>
        <time>2020-05-22T15:00:18Z</time>
      </trkpt>
      <trkpt lat="47.15234" lon="6.45423">
        <ele>700</ele>
        <time>2020-05-22T15:00:19Z</time>
      </trkpt>
      <trkpt lat="47.15233" lon="6.45418">
        <ele>700</ele>
        <time>2020-05-22T15:00:20Z</time>
      </trkpt>
      <trkpt lat="47.15231" lon="6.45412">
        <ele>700</ele>
        <time>2020-05-22T15:00:21Z</time>
      </trkpt>
      <trkpt lat="47.15229" lon="6.45407">
        <ele>700</ele>
        <time>2020-05-22T15:00:22Z</time>
      </trkpt>
      <trkpt lat="47.15227" lon="6.45402">
        <ele>700</ele>
        <time>2020-05-22T15:00:23Z</time>
      </trkpt>
      <trkpt lat="47.15225" lon="6.45397">
        <ele>700</ele>
        <time>2020-05-22T15:00:24Z</time>
      </trkpt>
      <trkpt lat="47.15223" lon="6.45392">
        <ele>700</ele>
        <time>2020-05-22T15:00:25Z</time>
      </trkpt>
      <trkpt lat="47.15222" lon="6.45387">
        <ele>700</ele>
        <time>2020-05-22T15:00:26Z</time>
      </trkpt>
      <trkpt lat="47.1522" lon="6.45381">
        <ele>700</ele>
        <time>2020-05-22T15:00:27Z</time>
      </trkpt>
      <trkpt lat="47.15218" lon="6.45376">
        <ele>700</ele>
        <time>2020-05-22T15:00:28Z</time>
      </trkpt>
      <trkpt lat="47.15216" lon="6.45371">
        <ele>700</ele>
        <time>2020-05-22T15:00:29Z</time>
      </trkpt>
      <trkpt lat="47.15214" lon="6.45365">
        <ele>700</ele>
        <time>2020-05-22T15:00:30Z</time>
      </trkpt>
      <trkpt lat="47.15212" lon="6.4536">
        <ele>700</ele>
        <time>2020-05-22T15:00:31Z</time>
      </trkpt>
      <trkpt lat="47.1521" lon="6.45354">
        <ele>700</ele>
        <time>2020-05-22T15:00:32Z</time>
      </trkpt>
      <trkpt lat="47.15208" lon="6.45349">
        <ele>700</ele>
        <time>2020-05-22T15:00:33Z</time>
      </trkpt>
      <trkpt lat="47.15206" lon="6.45344">
        <ele>700</ele>
        <time>2020-05-22T15:00:34Z</time>
      </trkpt>
      <trkpt lat="47.15205" lon="6.45338">
        <ele>700</ele>
        <time>2020-05-22T15:00:35Z</time>
      </trkpt>
      <trkpt lat="47.15203" lon="6.45333">
        <ele>700.4</ele>
        <time>2020-05-22T15:00:36Z</time>
      </trkpt>
      <trkpt lat="47.15201" lon="6.45327">
        <ele>700.4</ele>
        <time>2020-05-22T15:00:37Z</time>
      </trkpt>
      <trkpt lat="47.15199" lon="6.45322">
        <ele>700.4</ele>
        <time>2020-05-22T15:00:38Z</time>
      </trkpt>
      <trkpt lat="47.15197" lon="6.45317">
        <ele>700.6</ele>
        <time>2020-05-22T15:00:39Z</time>
      </trkpt>
      <trkpt lat="47.15195" lon="6.45312">
        <ele>700.6</ele>
        <time>2020-05-22T15:00:40Z</time>
      </trkpt>
      <trkpt lat="47.15193" lon="6.45307">
        <ele>700.6</ele>
        <time>2020-05-22T15:00:41Z</time>
      </trkpt>
      <trkpt lat="47.15191" lon="6.45302">
        <ele>700.6</ele>
        <time>2020-05-22T15:00:42Z</time>
      </trkpt>
      <trkpt lat="47.15189" lon="6.45297">
        <ele>700.6</ele>
        <time>2020-05-22T15:00:43Z</time>
      </trkpt>
      <trkpt lat="47.15187" lon="6.45292">
        <ele>700.6</ele>
        <time>2020-05-22T15:00:44Z</time>
      </trkpt>
      <trkpt lat="47.15186" lon="6.45286">
        <ele>700.6</ele>
        <time>2020-05-22T15:00:45Z</time>
      </trkpt>
      <trkpt lat="47.15184" lon="6.45281">
        <ele>700.6</ele>
        <time>2020-05-22T15:00:46Z</time>
      </trkpt>
      <trkpt lat="47.15182" lon="6.45276">
        <ele>700.6</ele>
        <time>2020-05-22T15:00:47Z</time>
      </trkpt>
      <trkpt lat="47.1518" lon="6.45271">
        <ele>700.6</ele>
        <time>2020-05-22T15:00:48Z</time>
      </trkpt>
      <trkpt lat="47.15178" lon="6.45266">
        <ele>700.6</ele>
        <time>2020-05-22T15:00:49Z</time>
      </trkpt>
      <trkpt lat="47.15176" lon="6.45261">
        <ele>700.8</ele>
        <time>2020-05-22T15:00:50Z</time>
      </trkpt>
      <trkpt lat="47.15174" lon="6.45256">
        <ele>700.8</ele>
        <time>2020-05-22T15:00:51Z</time>
      </trkpt>
      <trkpt lat="47.15172" lon="6.45251">
        <ele>700.8</ele>
        <time>2020-05-22T15:00:52Z</time>
      </trkpt>
      <trkpt lat="47.1517" lon="6.45247">
        <ele>700.8</ele>
        <time>2020-05-22T15:00:53Z</time>
      </trkpt>
      <trkpt lat="47.15168" lon="6.45242">
        <ele>701.2</ele>
        <time>2020-05-22T15:00:54Z</time>
      </trkpt>
      <trkpt lat="47.15166" lon="6.45238">
        <ele>701.2</ele>
        <time>2020-05-22T15:00:55Z</time>
      </trkpt>
      <trkpt lat="47.15164" lon="6.45233">
        <ele>701.4</ele>
        <time>2020-05-22T15:00:56Z</time>
      </trkpt>
      <trkpt lat="47.15161" lon="6.45229">
        <ele>701.4</ele>
        <time>2020-05-22T15:00:57Z</time>
      </trkpt>
      <trkpt lat="47.15159" lon="6.45225">
        <ele>701.4</ele>
        <time>2020-05-22T15:00:58Z</time>
      </trkpt>
      <trkpt lat="47.15157" lon="6.45221">
        <ele>701.4</ele>
        <time>2020-05-22T15:00:59Z</time>
      </trkpt>
      <trkpt lat="47.15154" lon="6.45217">
        <ele>701.6</ele>
        <time>2020-05-22T15:01:00Z</time>
      </trkpt>
      <trkpt lat="47.15152" lon="6.45213">
        <ele>701.6</ele>
        <time>2020-05-22T15:01:01Z</time>
      </trkpt>
      <trkpt lat="47.15149" lon="6.45209">
        <ele>701.6</ele>
        <time>2020-05-22T15:01:02Z</time>
      </trkpt>
      <trkpt lat="47.15147" lon="6.45205">
        <ele>701.6</ele>
        <time>2020-05-22T15:01:03Z</time>
      </trkpt>
      <trkpt lat="47.15144" lon="6.45201">
        <ele>701.6</ele>
        <time>2020-05-22T15:01:04Z</time>
      </trkpt>
      <trkpt lat="47.15141" lon="6.45198">
        <ele>701.6</ele>
        <time>2020-05-22T15:01:05Z</time>
      </trkpt>
      <trkpt lat="47.15139" lon="6.45194">
        <ele>701.6</ele>
        <time>2020-05-22T15:01:06Z</time>
      </trkpt>
      <trkpt lat="47.15136" lon="6.4519">
        <ele>701.6</ele>
        <time>2020-05-22T15:01:07Z</time>
      </trkpt>
      <trkpt lat="47.15134" lon="6.45186">
        <ele>701.6</ele>
        <time>2020-05-22T15:01:08Z</time>
      </trkpt>
      <trkpt lat="47.15131" lon="6.45183">
        <ele>701.6</ele>
        <time>2020-05-22T15:01:09Z</time>
      </trkpt>
      <trkpt lat="47.15128" lon="6.45179">
        <ele>701.6</ele>
        <time>2020-05-22T15:01:10Z</time>
      </trkpt>
      <trkpt lat="47.15126" lon="6.45175">
        <ele>701.6</ele>
        <time>2020-05-22T15:01:11Z</time>
      </trkpt>
      <trkpt lat="47.15123" lon="6.45171">
        <ele>701.6</ele>
        <time>2020-05-22T15:01:12Z</time>
      </trkpt>
      <trkpt lat="47.1512" lon="6.45168">
        <ele>701.6</ele>
        <time>2020-05-22T15:01:13Z</time>
      </trkpt>
      <trkpt lat="47.15118" lon="6.45164">
        <ele>701.6</ele>
        <time>2020-05-22T15:01:14Z</time>
      </trkpt>
      <trkpt lat="47.15115" lon="6.4516">
        <ele>701.6</ele>
        <time>2020-05-22T15:01:15Z</time>
      </trkpt>
      <trkpt lat="47.15112" lon="6.45157">
        <ele>701.6</ele>
        <time>2020-05-22T15:01:16Z</time>
      </trkpt>
      <trkpt lat="47.1511" lon="6.45153">
        <ele>701.6</ele>
        <time>2020-05-22T15:01:17Z</time>
      </trkpt>
      <trkpt lat="47.15107" lon="6.45149">
        <ele>701.8</ele>
        <time>2020-05-22T15:01:18Z</time>
      </trkpt>
      <trkpt lat="47.15104" lon="6.45145">
        <ele>701.8</ele>
        <time>2020-05-22T15:01:19Z</time>
      </trkpt>
      <trkpt lat="47.15102" lon="6.45142">
        <ele>701.8</ele>
        <time>2020-05-22T15:01:20Z</time>
      </trkpt>
      <trkpt lat="47.15099" lon="6.45138">
        <ele>702</ele>
        <time>2020-05-22T15:01:21Z</time>
      </trkpt>
      <trkpt lat="47.15096" lon="6.45135">
        <ele>702</ele>
        <time>2020-05-22T15:01:22Z</time>
      </trkpt>
      <trkpt lat="47.15094" lon="6.45131">
        <ele>702</ele>
        <time>2020-05-22T15:01:23Z</time>
      </trkpt>
      <trkpt lat="47.15091" lon="6.45128">
        <ele>702</ele>
        <time>2020-05-22T15:01:24Z</time>
      </trkpt>
      <trkpt lat="47.15089" lon="6.45124">
        <ele>702</ele>
        <time>2020-05-22T15:01:25Z</time>
      </trkpt>
      <trkpt lat="47.15086" lon="6.4512">
        <ele>702</ele>
        <time>2020-05-22T15:01:26Z</time>
      </trkpt>
      <trkpt lat="47.15083" lon="6.45116">
        <ele>702.4</ele>
        <time>2020-05-22T15:01:27Z</time>
      </trkpt>
      <trkpt lat="47.15081" lon="6.45113">
        <ele>702.4</ele>
        <time>2020-05-22T15:01:28Z</time>
      </trkpt>
      <trkpt lat="47.15078" lon="6.45109">
        <ele>702.4</ele>
        <time>2020-05-22T15:01:29Z</time>
      </trkpt>
      <trkpt lat="47.15076" lon="6.45105">
        <ele>702.6</ele>
        <time>2020-05-22T15:01:30Z</time>
      </trkpt>
      <trkpt lat="47.15073" lon="6.45101">
        <ele>702.6</ele>
        <time>2020-05-22T15:01:31Z</time>
      </trkpt>
      <trkpt lat="47.1507" lon="6.45098">
        <ele>702.6</ele>
        <time>2020-05-22T15:01:32Z</time>
      </trkpt>
      <trkpt lat="47.15068" lon="6.45094">
        <ele>702.6</ele>
        <time>2020-05-22T15:01:33Z</time>
      </trkpt>
      <trkpt lat="47.15065" lon="6.4509">
        <ele>702.6</ele>
        <time>2020-05-22T15:01:34Z</time>
      </trkpt>
      <trkpt lat="47.15062" lon="6.45087">
        <ele>702.6</ele>
        <time>2020-05-22T15:01:35Z</time>
      </trkpt>
      <trkpt lat="47.1506" lon="6.45083">
        <ele>702.6</ele>
        <time>2020-05-22T15:01:36Z</time>
      </trkpt>
      <trkpt lat="47.15057" lon="6.45079">
        <ele>702.6</ele>
        <time>2020-05-22T15:01:37Z</time>
      </trkpt>
      <trkpt lat="47.15054" lon="6.45076">
        <ele>702.6</ele>
        <time>2020-05-22T15:01:38Z</time>
      </trkpt>
      <trkpt lat="47.15052" lon="6.45072">
        <ele>702.8</ele>
        <time>2020-05-22T15:01:39Z</time>
      </trkpt>
      <trkpt lat="47.15049" lon="6.45068">
        <ele>702.8</ele>
        <time>2020-05-22T15:01:40Z</time>
      </trkpt>
      <trkpt lat="47.15046" lon="6.45064">
        <ele>703</ele>
        <time>2020-05-22T15:01:41Z</time>
      </trkpt>
      <trkpt lat="47.15044" lon="6.45061">
        <ele>703</ele>
        <time>2020-05-22T15:01:42Z</time>
      </trkpt>
      <trkpt lat="47.15041" lon="6.45057">
        <ele>703</ele>
        <time>2020-05-22T15:01:43Z</time>
      </trkpt>
      <trkpt lat="47.15039" lon="6.45053">
        <ele>703.4</ele>
        <time>2020-05-22T15:01:44Z</time>
      </trkpt>
      <trkpt lat="47.15036" lon="6.45049">
        <ele>703.4</ele>
        <time>2020-05-22T15:01:45Z</time>
      </trkpt>
      <trkpt lat="47.15033" lon="6.45046">
        <ele>703.4</ele>
        <time>2020-05-22T15:01:46Z</time>
      </trkpt>
      <trkpt lat="47.15031" lon="6.45042">
        <ele>703.4</ele>
        <time>2020-05-22T15:01:47Z</time>
      </trkpt>
      <trkpt lat="47.15028" lon="6.45038">
        <ele>703.6</ele>
        <time>2020-05-22T15:01:48Z</time>
      </trkpt>
      <trkpt lat="47.15025" lon="6.45034">
        <ele>703.6</ele>
        <time>2020-05-22T15:01:49Z</time>
      </trkpt>
      <trkpt lat="47.15023" lon="6.45031">
        <ele>703.6</ele>
        <time>2020-05-22T15:01:50Z</time>
      </trkpt>
      <trkpt lat="47.1502" lon="6.45027">
        <ele>703.6</ele>
        <time>2020-05-22T15:01:51Z</time>
      </trkpt>
      <trkpt lat="47.15018" lon="6.45023">
        <ele>703.6</ele>
        <time>2020-05-22T15:01:52Z</time>
      </trkpt>
      <trkpt lat="47.15015" lon="6.45019">
        <ele>703.6</ele>
        <time>2020-05-22T15:01:53Z</time>
      </trkpt>
      <trkpt lat="47.15012" lon="6.45015">
        <ele>703.6</ele>
        <time>2020-05-22T15:01:54Z</time>
      </trkpt>
      <trkpt lat="47.1501" lon="6.45012">
        <ele>703.6</ele>
        <time>2020-05-22T15:01:55Z</time>
      </trkpt>
      <trkpt lat="47.15007" lon="6.45008">
        <ele>703.6</ele>
        <time>2020-05-22T15:01:56Z</time>
      </trkpt>
      <trkpt lat="47.15004" lon="6.45004">
        <ele>703.6</ele>
        <time>2020-05-22T15:01:57Z</time>
      </trkpt>
      <trkpt lat="47.15002" lon="6.45">
        <ele>703.6</ele>
        <time>2020-05-22T15:01:58Z</time>
      </trkpt>
      <trkpt lat="47.14999" lon="6.44996">
        <ele>703.6</ele>
        <time>2020-05-22T15:01:59Z</time>
      </trkpt>
      <trkpt lat="47.14996" lon="6.44992">
        <ele>703.6</ele>
        <time>2020-05-22T15:02:00Z</time>
      </trkpt>
      <trkpt lat="47.14993" lon="6.44988">
        <ele>704</ele>
        <time>2020-05-22T15:02:01Z</time>
      </trkpt>
      <trkpt lat="47.1499" lon="6.44984">
        <ele>704</ele>
        <time>2020-05-22T15:02:02Z</time>
      </trkpt>
      <trkpt lat="47.14987" lon="6.4498">
        <ele>704</ele>
        <time>2020-05-22T15:02:03Z</time>
      </trkpt>
      <trkpt lat="47.14984" lon="6.44975">
        <ele>704</ele>
        <time>2020-05-22T15:02:04Z</time>
      </trkpt>
      <trkpt lat="47.14981" lon="6.44971">
        <ele>704</ele>
        <time>2020-05-22T15:02:05Z</time>
      </trkpt>
      <trkpt lat="47.14978" lon="6.44967">
        <ele>704</ele>
        <time>2020-05-22T15:02:06Z</time>
      </trkpt>
      <trkpt lat="47.14975" lon="6.44963">
        <ele>704</ele>
        <time>2020-05-22T15:02:07Z</time>
      </trkpt>
      <trkpt lat="47.14972" lon="6.44958">
        <ele>704</ele>
        <time>2020-05-22T15:02:08Z</time>
      </trkpt>
      <trkpt lat="47.14969" lon="6.44954">
        <ele>704</ele>
        <time>2020-05-22T15:02:09Z</time>
      </trkpt>
      <trkpt lat="47.14966" lon="6.4495">
        <ele>704</ele>
        <time>2020-05-22T15:02:10Z</time>
      </trkpt>
      <trkpt lat="47.14963" lon="6.44946">
        <ele>704</ele>
        <time>2020-05-22T15:02:11Z</time>
      </trkpt>
      <trkpt lat="47.1496" lon="6.44941">
        <ele>704</ele>
        <time>2020-05-22T15:02:12Z</time>
      </trkpt>
      <trkpt lat="47.14957" lon="6.44937">
        <ele>704</ele>
        <time>2020-05-22T15:02:13Z</time>
      </trkpt>
      <trkpt lat="47.14954" lon="6.44933">
        <ele>704</ele>
        <time>2020-05-22T15:02:14Z</time>
      </trkpt>
      <trkpt lat="47.14951" lon="6.44929">
        <ele>704</ele>
        <time>2020-05-22T15:02:15Z</time>
      </trkpt>
      <trkpt lat="47.14948" lon="6.44924">
        <ele>704</ele>
        <time>2020-05-22T15:02:16Z</time>
      </trkpt>
      <trkpt lat="47.14945" lon="6.4492">
        <ele>704</ele>
        <time>2020-05-22T15:02:17Z</time>
      </trkpt>
      <trkpt lat="47.14942" lon="6.44917">
        <ele>703.6</ele>
        <time>2020-05-22T15:02:18Z</time>
      </trkpt>
      <trkpt lat="47.14939" lon="6.44913">
        <ele>703.6</ele>
        <time>2020-05-22T15:02:19Z</time>
      </trkpt>
      <trkpt lat="47.14937" lon="6.44909">
        <ele>703.6</ele>
        <time>2020-05-22T15:02:20Z</time>
      </trkpt>
      <trkpt lat="47.14934" lon="6.44905">
        <ele>703.6</ele>
        <time>2020-05-22T15:02:21Z</time>
      </trkpt>
      <trkpt lat="47.14931" lon="6.44901">
        <ele>703.6</ele>
        <time>2020-05-22T15:02:22Z</time>
      </trkpt>
      <trkpt lat="47.14928" lon="6.44897">
        <ele>703.6</ele>
        <time>2020-05-22T15:02:23Z</time>
      </trkpt>
      <trkpt lat="47.14926" lon="6.44893">
        <ele>703.6</ele>
        <time>2020-05-22T15:02:24Z</time>
      </trkpt>
      <trkpt lat="47.14923" lon="6.44889">
        <ele>703.6</ele>
        <time>2020-05-22T15:02:25Z</time>
      </trkpt>
      <trkpt lat="47.1492" lon="6.44885">
        <ele>703.6</ele>
        <time>2020-05-22T15:02:26Z</time>
      </trkpt>
      <trkpt lat="47.14917" lon="6.44881">
        <ele>703.6</ele>
        <time>2020-05-22T15:02:27Z</time>
      </trkpt>
      <trkpt lat="47.14914" lon="6.44877">
        <ele>703.6</ele>
        <time>2020-05-22T15:02:28Z</time>
      </trkpt>
      <trkpt lat="47.14912" lon="6.44873">
        <ele>703.6</ele>
        <time>2020-05-22T15:02:29Z</time>
      </trkpt>
      <trkpt lat="47.14909" lon="6.44869">
        <ele>703.6</ele>
        <time>2020-05-22T15:02:30Z</time>
      </trkpt>
      <trkpt lat="47.14906" lon="6.44865">
        <ele>703.6</ele>
        <time>2020-05-22T15:02:31Z</time>
      </trkpt>
      <trkpt lat="47.14903" lon="6.44862">
        <ele>703.4</ele>
        <time>2020-05-22T15:02:32Z</time>
      </trkpt>
      <trkpt lat="47.149" lon="6.44858">
        <ele>703.4</ele>
        <time>2020-05-22T15:02:33Z</time>
      </trkpt>
      <trkpt lat="47.14897" lon="6.44854">
        <ele>703.4</ele>
        <time>2020-05-22T15:02:34Z</time>
      </trkpt>
      <trkpt lat="47.14894" lon="6.4485">
        <ele>703.2</ele>
        <time>2020-05-22T15:02:35Z</time>
      </trkpt>
      <trkpt lat="47.14891" lon="6.44846">
        <ele>703.2</ele>
        <time>2020-05-22T15:02:36Z</time>
      </trkpt>
      <trkpt lat="47.14889" lon="6.44842">
        <ele>703.2</ele>
        <time>2020-05-22T15:02:37Z</time>
      </trkpt>
      <trkpt lat="47.14886" lon="6.44838">
        <ele>703.2</ele>
        <time>2020-05-22T15:02:38Z</time>
      </trkpt>
      <trkpt lat="47.14883" lon="6.44834">
        <ele>703.2</ele>
        <time>2020-05-22T15:02:39Z</time>
      </trkpt>
      <trkpt lat="47.1488" lon="6.4483">
        <ele>703.2</ele>
        <time>2020-05-22T15:02:40Z</time>
      </trkpt>
      <trkpt lat="47.14877" lon="6.44826">
        <ele>703.2</ele>
        <time>2020-05-22T15:02:41Z</time>
      </trkpt>
      <trkpt lat="47.14874" lon="6.44822">
        <ele>703.2</ele>
        <time>2020-05-22T15:02:42Z</time>
      </trkpt>
      <trkpt lat="47.14872" lon="6.44818">
        <ele>703.2</ele>
        <time>2020-05-22T15:02:43Z</time>
      </trkpt>
      <trkpt lat="47.14869" lon="6.44814">
        <ele>703.2</ele>
        <time>2020-05-22T15:02:44Z</time>
      </trkpt>
      <trkpt lat="47.14866" lon="6.4481">
        <ele>703.2</ele>
        <time>2020-05-22T15:02:45Z</time>
      </trkpt>
      <trkpt lat="47.14863" lon="6.44806">
        <ele>703.2</ele>
        <time>2020-05-22T15:02:46Z</time>
      </trkpt>
      <trkpt lat="47.1486" lon="6.44802">
        <ele>703.2</ele>
        <time>2020-05-22T15:02:47Z</time>
      </trkpt>
      <trkpt lat="47.14857" lon="6.44798">
        <ele>703.2</ele>
        <time>2020-05-22T15:02:48Z</time>
      </trkpt>
      <trkpt lat="47.14854" lon="6.44794">
        <ele>703.2</ele>
        <time>2020-05-22T15:02:49Z</time>
      </trkpt>
      <trkpt lat="47.14851" lon="6.4479">
        <ele>703.2</ele>
        <time>2020-05-22T15:02:50Z</time>
      </trkpt>
      <trkpt lat="47.14849" lon="6.44786">
        <ele>703.2</ele>
        <time>2020-05-22T15:02:51Z</time>
      </trkpt>
      <trkpt lat="47.14846" lon="6.44781">
        <ele>703.2</ele>
        <time>2020-05-22T15:02:52Z</time>
      </trkpt>
      <trkpt lat="47.14843" lon="6.44777">
        <ele>703.2</ele>
        <time>2020-05-22T15:02:53Z</time>
      </trkpt>
      <trkpt lat="47.1484" lon="6.44773">
        <ele>703.2</ele>
        <time>2020-05-22T15:02:54Z</time>
      </trkpt>
      <trkpt lat="47.14837" lon="6.44769">
        <ele>703.2</ele>
        <time>2020-05-22T15:02:55Z</time>
      </trkpt>
      <trkpt lat="47.14834" lon="6.44765">
        <ele>703.2</ele>
        <time>2020-05-22T15:02:56Z</time>
      </trkpt>
      <trkpt lat="47.14831" lon="6.44761">
        <ele>703.2</ele>
        <time>2020-05-22T15:02:57Z</time>
      </trkpt>
      <trkpt lat="47.14828" lon="6.44757">
        <ele>703.2</ele>
        <time>2020-05-22T15:02:58Z</time>
      </trkpt>
      <trkpt lat="47.14825" lon="6.44752">
        <ele>703.2</ele>
        <time>2020-05-22T15:02:59Z</time>
      </trkpt>
      <trkpt lat="47.14822" lon="6.44748">
        <ele>703.2</ele>
        <time>2020-05-22T15:03:00Z</time>
      </trkpt>
      <trkpt lat="47.14819" lon="6.44743">
        <ele>703.2</ele>
        <time>2020-05-22T15:03:01Z</time>
      </trkpt>
      <trkpt lat="47.14816" lon="6.44739">
        <ele>703.2</ele>
        <time>2020-05-22T15:03:02Z</time>
      </trkpt>
      <trkpt lat="47.14813" lon="6.44734">
        <ele>703.2</ele>
        <time>2020-05-22T15:03:03Z</time>
      </trkpt>
      <trkpt lat="47.14809" lon="6.4473">
        <ele>703.2</ele>
        <time>2020-05-22T15:03:04Z</time>
      </trkpt>
      <trkpt lat="47.14806" lon="6.44726">
        <ele>703.2</ele>
        <time>2020-05-22T15:03:05Z</time>
      </trkpt>
      <trkpt lat="47.14803" lon="6.44721">
        <ele>703.4</ele>
        <time>2020-05-22T15:03:06Z</time>
      </trkpt>
      <trkpt lat="47.148" lon="6.44717">
        <ele>703.4</ele>
        <time>2020-05-22T15:03:07Z</time>
      </trkpt>
      <trkpt lat="47.14797" lon="6.44713">
        <ele>703.4</ele>
        <time>2020-05-22T15:03:08Z</time>
      </trkpt>
      <trkpt lat="47.14793" lon="6.44709">
        <ele>703.4</ele>
        <time>2020-05-22T15:03:09Z</time>
      </trkpt>
      <trkpt lat="47.1479" lon="6.44705">
        <ele>703.4</ele>
        <time>2020-05-22T15:03:10Z</time>
      </trkpt>
      <trkpt lat="47.14787" lon="6.44701">
        <ele>703.8</ele>
        <time>2020-05-22T15:03:11Z</time>
      </trkpt>
      <trkpt lat="47.14784" lon="6.44696">
        <ele>703.8</ele>
        <time>2020-05-22T15:03:12Z</time>
      </trkpt>
      <trkpt lat="47.14781" lon="6.44692">
        <ele>703.8</ele>
        <time>2020-05-22T15:03:13Z</time>
      </trkpt>
      <trkpt lat="47.14778" lon="6.44688">
        <ele>703.8</ele>
        <time>2020-05-22T15:03:14Z</time>
      </trkpt>
      <trkpt lat="47.14774" lon="6.44684">
        <ele>703.8</ele>
        <time>2020-05-22T15:03:15Z</time>
      </trkpt>
      <trkpt lat="47.14771" lon="6.4468">
        <ele>703.8</ele>
        <time>2020-05-22T15:03:16Z</time>
      </trkpt>
      <trkpt lat="47.14768" lon="6.44676">
        <ele>703.4</ele>
        <time>2020-05-22T15:03:17Z</time>
      </trkpt>
      <trkpt lat="47.14765" lon="6.44673">
        <ele>703.4</ele>
        <time>2020-05-22T15:03:18Z</time>
      </trkpt>
      <trkpt lat="47.14762" lon="6.44669">
        <ele>703.4</ele>
        <time>2020-05-22T15:03:19Z</time>
      </trkpt>
      <trkpt lat="47.14759" lon="6.44665">
        <ele>703.4</ele>
        <time>2020-05-22T15:03:20Z</time>
      </trkpt>
      <trkpt lat="47.14755" lon="6.44661">
        <ele>703.4</ele>
        <time>2020-05-22T15:03:21Z</time>
      </trkpt>
      <trkpt lat="47.14752" lon="6.44658">
        <ele>703.4</ele>
        <time>2020-05-22T15:03:22Z</time>
      </trkpt>
      <trkpt lat="47.14749" lon="6.44654">
        <ele>703.4</ele>
        <time>2020-05-22T15:03:23Z</time>
      </trkpt>
      <trkpt lat="47.14745" lon="6.44651">
        <ele>703.4</ele>
        <time>2020-05-22T15:03:24Z</time>
      </trkpt>
      <trkpt lat="47.14742" lon="6.44647">
        <ele>703.4</ele>
        <time>2020-05-22T15:03:25Z</time>
      </trkpt>
      <trkpt lat="47.14739" lon="6.44643">
        <ele>703.4</ele>
        <time>2020-05-22T15:03:26Z</time>
      </trkpt>
      <trkpt lat="47.14736" lon="6.4464">
        <ele>703.4</ele>
        <time>2020-05-22T15:03:27Z</time>
      </trkpt>
      <trkpt lat="47.14732" lon="6.44636">
        <ele>703.4</ele>
        <time>2020-05-22T15:03:28Z</time>
      </trkpt>
      <trkpt lat="47.14729" lon="6.44633">
        <ele>703.4</ele>
        <time>2020-05-22T15:03:29Z</time>
      </trkpt>
      <trkpt lat="47.14725" lon="6.44629">
        <ele>703.4</ele>
        <time>2020-05-22T15:03:30Z</time>
      </trkpt>
      <trkpt lat="47.14722" lon="6.44625">
        <ele>703.4</ele>
        <time>2020-05-22T15:03:31Z</time>
      </trkpt>
      <trkpt lat="47.14719" lon="6.44622">
        <ele>703.4</ele>
        <time>2020-05-22T15:03:32Z</time>
      </trkpt>
      <trkpt lat="47.14715" lon="6.44618">
        <ele>703.4</ele>
        <time>2020-05-22T15:03:33Z</time>
      </trkpt>
      <trkpt lat="47.14712" lon="6.44615">
        <ele>703.4</ele>
        <time>2020-05-22T15:03:34Z</time>
      </trkpt>
      <trkpt lat="47.14709" lon="6.44611">
        <ele>703.4</ele>
        <time>2020-05-22T15:03:35Z</time>
      </trkpt>
      <trkpt lat="47.14705" lon="6.44608">
        <ele>703.4</ele>
        <time>2020-05-22T15:03:36Z</time>
      </trkpt>
      <trkpt lat="47.14702" lon="6.44605">
        <ele>703.4</ele>
        <time>2020-05-22T15:03:37Z</time>
      </trkpt>
      <trkpt lat="47.14699" lon="6.44602">
        <ele>703.4</ele>
        <time>2020-05-22T15:03:38Z</time>
      </trkpt>
      <trkpt lat="47.14696" lon="6.44599">
        <ele>703.4</ele>
        <time>2020-05-22T15:03:39Z</time>
      </trkpt>
      <trkpt lat="47.14692" lon="6.44597">
        <ele>703.4</ele>
        <time>2020-05-22T15:03:40Z</time>
      </trkpt>
      <trkpt lat="47.14689" lon="6.44594">
        <ele>703.6</ele>
        <time>2020-05-22T15:03:41Z</time>
      </trkpt>
      <trkpt lat="47.14686" lon="6.44591">
        <ele>703.6</ele>
        <time>2020-05-22T15:03:42Z</time>
      </trkpt>
      <trkpt lat="47.14683" lon="6.44588">
        <ele>703.6</ele>
        <time>2020-05-22T15:03:43Z</time>
      </trkpt>
      <trkpt lat="47.14679" lon="6.44585">
        <ele>703.6</ele>
        <time>2020-05-22T15:03:44Z</time>
      </trkpt>
      <trkpt lat="47.14676" lon="6.44582">
        <ele>703.6</ele>
        <time>2020-05-22T15:03:45Z</time>
      </trkpt>
      <trkpt lat="47.14673" lon="6.44579">
        <ele>703.6</ele>
        <time>2020-05-22T15:03:46Z</time>
      </trkpt>
      <trkpt lat="47.14669" lon="6.44576">
        <ele>703.6</ele>
        <time>2020-05-22T15:03:47Z</time>
      </trkpt>
      <trkpt lat="47.14666" lon="6.44573">
        <ele>703.6</ele>
        <time>2020-05-22T15:03:48Z</time>
      </trkpt>
      <trkpt lat="47.14663" lon="6.4457">
        <ele>703.6</ele>
        <time>2020-05-22T15:03:49Z</time>
      </trkpt>
      <trkpt lat="47.14659" lon="6.44567">
        <ele>703.6</ele>
        <time>2020-05-22T15:03:50Z</time>
      </trkpt>
      <trkpt lat="47.14655" lon="6.44564">
        <ele>703.6</ele>
        <time>2020-05-22T15:03:51Z</time>
      </trkpt>
      <trkpt lat="47.14652" lon="6.44561">
        <ele>703.6</ele>
        <time>2020-05-22T15:03:52Z</time>
      </trkpt>
      <trkpt lat="47.14648" lon="6.44559">
        <ele>704</ele>
        <time>2020-05-22T15:03:53Z</time>
      </trkpt>
      <trkpt lat="47.14645" lon="6.44556">
        <ele>704</ele>
        <time>2020-05-22T15:03:54Z</time>
      </trkpt>
      <trkpt lat="47.14641" lon="6.44553">
        <ele>704</ele>
        <time>2020-05-22T15:03:55Z</time>
      </trkpt>
      <trkpt lat="47.14638" lon="6.4455">
        <ele>704</ele>
        <time>2020-05-22T15:03:56Z</time>
      </trkpt>
      <trkpt lat="47.14634" lon="6.44547">
        <ele>704</ele>
        <time>2020-05-22T15:03:57Z</time>
      </trkpt>
      <trkpt lat="47.1463" lon="6.44544">
        <ele>704</ele>
        <time>2020-05-22T15:03:58Z</time>
      </trkpt>
      <trkpt lat="47.14627" lon="6.44541">
        <ele>704</ele>
        <time>2020-05-22T15:03:59Z</time>
      </trkpt>
      <trkpt lat="47.14623" lon="6.44538">
        <ele>704</ele>
        <time>2020-05-22T15:04:00Z</time>
      </trkpt>
      <trkpt lat="47.14619" lon="6.44535">
        <ele>704</ele>
        <time>2020-05-22T15:04:01Z</time>
      </trkpt>
      <trkpt lat="47.14615" lon="6.44533">
        <ele>704</ele>
        <time>2020-05-22T15:04:02Z</time>
      </trkpt>
      <trkpt lat="47.14612" lon="6.4453">
        <ele>704</ele>
        <time>2020-05-22T15:04:03Z</time>
      </trkpt>
      <trkpt lat="47.14608" lon="6.44527">
        <ele>704</ele>
        <time>2020-05-22T15:04:04Z</time>
      </trkpt>
      <trkpt lat="47.14604" lon="6.44524">
        <ele>704</ele>
        <time>2020-05-22T15:04:05Z</time>
      </trkpt>
      <trkpt lat="47.14601" lon="6.44521">
        <ele>704</ele>
        <time>2020-05-22T15:04:06Z</time>
      </trkpt>
      <trkpt lat="47.14597" lon="6.44518">
        <ele>703.6</ele>
        <time>2020-05-22T15:04:07Z</time>
      </trkpt>
      <trkpt lat="47.14593" lon="6.44515">
        <ele>703.6</ele>
        <time>2020-05-22T15:04:08Z</time>
      </trkpt>
      <trkpt lat="47.1459" lon="6.44512">
        <ele>703.6</ele>
        <time>2020-05-22T15:04:09Z</time>
      </trkpt>
      <trkpt lat="47.14586" lon="6.44509">
        <ele>703.6</ele>
        <time>2020-05-22T15:04:10Z</time>
      </trkpt>
      <trkpt lat="47.14582" lon="6.44506">
        <ele>703.6</ele>
        <time>2020-05-22T15:04:11Z</time>
      </trkpt>
      <trkpt lat="47.14579" lon="6.44503">
        <ele>703.6</ele>
        <time>2020-05-22T15:04:12Z</time>
      </trkpt>
      <trkpt lat="47.14575" lon="6.445">
        <ele>703.6</ele>
        <time>2020-05-22T15:04:13Z</time>
      </trkpt>
      <trkpt lat="47.14571" lon="6.44498">
        <ele>703.6</ele>
        <time>2020-05-22T15:04:14Z</time>
      </trkpt>
      <trkpt lat="47.14568" lon="6.44495">
        <ele>703.6</ele>
        <time>2020-05-22T15:04:15Z</time>
      </trkpt>
      <trkpt lat="47.14564" lon="6.44493">
        <ele>703.6</ele>
        <time>2020-05-22T15:04:16Z</time>
      </trkpt>
      <trkpt lat="47.1456" lon="6.4449">
        <ele>703.8</ele>
        <time>2020-05-22T15:04:17Z</time>
      </trkpt>
      <trkpt lat="47.14557" lon="6.44487">
        <ele>703.8</ele>
        <time>2020-05-22T15:04:18Z</time>
      </trkpt>
      <trkpt lat="47.14553" lon="6.44484">
        <ele>704.2</ele>
        <time>2020-05-22T15:04:19Z</time>
      </trkpt>
      <trkpt lat="47.1455" lon="6.44481">
        <ele>704.2</ele>
        <time>2020-05-22T15:04:20Z</time>
      </trkpt>
      <trkpt lat="47.14547" lon="6.44478">
        <ele>704.2</ele>
        <time>2020-05-22T15:04:21Z</time>
      </trkpt>
      <trkpt lat="47.14543" lon="6.44475">
        <ele>704.2</ele>
        <time>2020-05-22T15:04:22Z</time>
      </trkpt>
      <trkpt lat="47.1454" lon="6.44472">
        <ele>704.2</ele>
        <time>2020-05-22T15:04:23Z</time>
      </trkpt>
      <trkpt lat="47.14537" lon="6.44469">
        <ele>704.2</ele>
        <time>2020-05-22T15:04:24Z</time>
      </trkpt>
      <trkpt lat="47.14533" lon="6.44466">
        <ele>704.2</ele>
        <time>2020-05-22T15:04:25Z</time>
      </trkpt>
      <trkpt lat="47.1453" lon="6.44463">
        <ele>704.2</ele>
        <time>2020-05-22T15:04:26Z</time>
      </trkpt>
      <trkpt lat="47.14527" lon="6.44461">
        <ele>704.2</ele>
        <time>2020-05-22T15:04:27Z</time>
      </trkpt>
      <trkpt lat="47.14523" lon="6.44458">
        <ele>704.2</ele>
        <time>2020-05-22T15:04:28Z</time>
      </trkpt>
      <trkpt lat="47.14519" lon="6.44456">
        <ele>704.2</ele>
        <time>2020-05-22T15:04:29Z</time>
      </trkpt>
      <trkpt lat="47.14515" lon="6.44453">
        <ele>704.2</ele>
        <time>2020-05-22T15:04:30Z</time>
      </trkpt>
      <trkpt lat="47.14512" lon="6.4445">
        <ele>704.2</ele>
        <time>2020-05-22T15:04:31Z</time>
      </trkpt>
      <trkpt lat="47.14508" lon="6.44447">
        <ele>704.4</ele>
        <time>2020-05-22T15:04:32Z</time>
      </trkpt>
      <trkpt lat="47.14504" lon="6.44444">
        <ele>704.4</ele>
        <time>2020-05-22T15:04:33Z</time>
      </trkpt>
      <trkpt lat="47.145" lon="6.44442">
        <ele>704.4</ele>
        <time>2020-05-22T15:04:34Z</time>
      </trkpt>
      <trkpt lat="47.14496" lon="6.44439">
        <ele>704.4</ele>
        <time>2020-05-22T15:04:35Z</time>
      </trkpt>
      <trkpt lat="47.14492" lon="6.44436">
        <ele>704.4</ele>
        <time>2020-05-22T15:04:36Z</time>
      </trkpt>
      <trkpt lat="47.14488" lon="6.44433">
        <ele>704.4</ele>
        <time>2020-05-22T15:04:37Z</time>
      </trkpt>
      <trkpt lat="47.14484" lon="6.4443">
        <ele>704.6</ele>
        <time>2020-05-22T15:04:38Z</time>
      </trkpt>
      <trkpt lat="47.1448" lon="6.44427">
        <ele>704.6</ele>
        <time>2020-05-22T15:04:39Z</time>
      </trkpt>
      <trkpt lat="47.14476" lon="6.44424">
        <ele>704.6</ele>
        <time>2020-05-22T15:04:40Z</time>
      </trkpt>
      <trkpt lat="47.14473" lon="6.44421">
        <ele>704.6</ele>
        <time>2020-05-22T15:04:41Z</time>
      </trkpt>
      <trkpt lat="47.14469" lon="6.44418">
        <ele>704.6</ele>
        <time>2020-05-22T15:04:42Z</time>
      </trkpt>
      <trkpt lat="47.14465" lon="6.44414">
        <ele>704.6</ele>
        <time>2020-05-22T15:04:43Z</time>
      </trkpt>
      <trkpt lat="47.14461" lon="6.44412">
        <ele>704.6</ele>
        <time>2020-05-22T15:04:44Z</time>
      </trkpt>
      <trkpt lat="47.14457" lon="6.44409">
        <ele>704.6</ele>
        <time>2020-05-22T15:04:45Z</time>
      </trkpt>
      <trkpt lat="47.14453" lon="6.44406">
        <ele>704.6</ele>
        <time>2020-05-22T15:04:46Z</time>
      </trkpt>
      <trkpt lat="47.14449" lon="6.44403">
        <ele>704.6</ele>
        <time>2020-05-22T15:04:47Z</time>
      </trkpt>
      <trkpt lat="47.14445" lon="6.444">
        <ele>704.6</ele>
        <time>2020-05-22T15:04:48Z</time>
      </trkpt>
      <trkpt lat="47.14441" lon="6.44396">
        <ele>704.6</ele>
        <time>2020-05-22T15:04:49Z</time>
      </trkpt>
      <trkpt lat="47.14437" lon="6.44393">
        <ele>704.6</ele>
        <time>2020-05-22T15:04:50Z</time>
      </trkpt>
      <trkpt lat="47.14433" lon="6.4439">
        <ele>704.6</ele>
        <time>2020-05-22T15:04:51Z</time>
      </trkpt>
      <trkpt lat="47.14429" lon="6.44387">
        <ele>704.8</ele>
        <time>2020-05-22T15:04:52Z</time>
      </trkpt>
      <trkpt lat="47.14424" lon="6.44384">
        <ele>704.8</ele>
        <time>2020-05-22T15:04:53Z</time>
      </trkpt>
      <trkpt lat="47.1442" lon="6.44381">
        <ele>704.8</ele>
        <time>2020-05-22T15:04:54Z</time>
      </trkpt>
      <trkpt lat="47.14416" lon="6.44378">
        <ele>704.8</ele>
        <time>2020-05-22T15:04:55Z</time>
      </trkpt>
      <trkpt lat="47.14412" lon="6.44375">
        <ele>704.8</ele>
        <time>2020-05-22T15:04:56Z</time>
      </trkpt>
      <trkpt lat="47.14408" lon="6.44372">
        <ele>704.8</ele>
        <time>2020-05-22T15:04:57Z</time>
      </trkpt>
      <trkpt lat="47.14404" lon="6.44369">
        <ele>705</ele>
        <time>2020-05-22T15:04:58Z</time>
      </trkpt>
      <trkpt lat="47.144" lon="6.44366">
        <ele>705</ele>
        <time>2020-05-22T15:04:59Z</time>
      </trkpt>
      <trkpt lat="47.14396" lon="6.44363">
        <ele>705</ele>
        <time>2020-05-22T15:05:00Z</time>
      </trkpt>
      <trkpt lat="47.14393" lon="6.44359">
        <ele>705</ele>
        <time>2020-05-22T15:05:01Z</time>
      </trkpt>
      <trkpt lat="47.14389" lon="6.44356">
        <ele>705</ele>
        <time>2020-05-22T15:05:02Z</time>
      </trkpt>
      <trkpt lat="47.14385" lon="6.44353">
        <ele>705</ele>
        <time>2020-05-22T15:05:03Z</time>
      </trkpt>
      <trkpt lat="47.14381" lon="6.44349">
        <ele>705</ele>
        <time>2020-05-22T15:05:04Z</time>
      </trkpt>
      <trkpt lat="47.14376" lon="6.44346">
        <ele>705</ele>
        <time>2020-05-22T15:05:05Z</time>
      </trkpt>
      <trkpt lat="47.14372" lon="6.44343">
        <ele>705</ele>
        <time>2020-05-22T15:05:06Z</time>
      </trkpt>
      <trkpt lat="47.14368" lon="6.44339">
        <ele>705</ele>
        <time>2020-05-22T15:05:07Z</time>
      </trkpt>
      <trkpt lat="47.14364" lon="6.44336">
        <ele>705</ele>
        <time>2020-05-22T15:05:08Z</time>
      </trkpt>
      <trkpt lat="47.1436" lon="6.44333">
        <ele>705</ele>
        <time>2020-05-22T15:05:09Z</time>
      </trkpt>
      <trkpt lat="47.14355" lon="6.4433">
        <ele>705</ele>
        <time>2020-05-22T15:05:10Z</time>
      </trkpt>
      <trkpt lat="47.14351" lon="6.44326">
        <ele>705</ele>
        <time>2020-05-22T15:05:11Z</time>
      </trkpt>
      <trkpt lat="47.14347" lon="6.44323">
        <ele>705</ele>
        <time>2020-05-22T15:05:12Z</time>
      </trkpt>
      <trkpt lat="47.14342" lon="6.4432">
        <ele>705</ele>
        <time>2020-05-22T15:05:13Z</time>
      </trkpt>
      <trkpt lat="47.14338" lon="6.44317">
        <ele>705</ele>
        <time>2020-05-22T15:05:14Z</time>
      </trkpt>
      <trkpt lat="47.14333" lon="6.44313">
        <ele>705</ele>
        <time>2020-05-22T15:05:15Z</time>
      </trkpt>
      <trkpt lat="47.14329" lon="6.4431">
        <ele>705</ele>
        <time>2020-05-22T15:05:16Z</time>
      </trkpt>
      <trkpt lat="47.14325" lon="6.44307">
        <ele>705</ele>
        <time>2020-05-22T15:05:17Z</time>
      </trkpt>
      <trkpt lat="47.14321" lon="6.44303">
        <ele>705.2</ele>
        <time>2020-05-22T15:05:18Z</time>
      </trkpt>
      <trkpt lat="47.14316" lon="6.443">
        <ele>705.2</ele>
        <time>2020-05-22T15:05:19Z</time>
      </trkpt>
      <trkpt lat="47.14312" lon="6.44296">
        <ele>705.2</ele>
        <time>2020-05-22T15:05:20Z</time>
      </trkpt>
      <trkpt lat="47.14308" lon="6.44293">
        <ele>705.2</ele>
        <time>2020-05-22T15:05:21Z</time>
      </trkpt>
      <trkpt lat="47.14304" lon="6.44289">
        <ele>705</ele>
        <time>2020-05-22T15:05:22Z</time>
      </trkpt>
      <trkpt lat="47.14299" lon="6.44286">
        <ele>705</ele>
        <time>2020-05-22T15:05:23Z</time>
      </trkpt>
      <trkpt lat="47.14295" lon="6.44283">
        <ele>705</ele>
        <time>2020-05-22T15:05:24Z</time>
      </trkpt>
      <trkpt lat="47.14291" lon="6.4428">
        <ele>705</ele>
        <time>2020-05-22T15:05:25Z</time>
      </trkpt>
      <trkpt lat="47.14286" lon="6.44277">
        <ele>705</ele>
        <time>2020-05-22T15:05:26Z</time>
      </trkpt>
      <trkpt lat="47.14282" lon="6.44273">
        <ele>705</ele>
        <time>2020-05-22T15:05:27Z</time>
      </trkpt>
      <trkpt lat="47.14278" lon="6.44269">
        <ele>705</ele>
        <time>2020-05-22T15:05:28Z</time>
      </trkpt>
      <trkpt lat="47.14274" lon="6.44266">
        <ele>705</ele>
        <time>2020-05-22T15:05:29Z</time>
      </trkpt>
      <trkpt lat="47.1427" lon="6.44262">
        <ele>705</ele>
        <time>2020-05-22T15:05:30Z</time>
      </trkpt>
      <trkpt lat="47.14265" lon="6.44259">
        <ele>705</ele>
        <time>2020-05-22T15:05:31Z</time>
      </trkpt>
      <trkpt lat="47.14261" lon="6.44255">
        <ele>705</ele>
        <time>2020-05-22T15:05:32Z</time>
      </trkpt>
      <trkpt lat="47.14257" lon="6.44252">
        <ele>705.2</ele>
        <time>2020-05-22T15:05:33Z</time>
      </trkpt>
      <trkpt lat="47.14253" lon="6.44249">
        <ele>705.2</ele>
        <time>2020-05-22T15:05:34Z</time>
      </trkpt>
      <trkpt lat="47.14249" lon="6.44246">
        <ele>705.2</ele>
        <time>2020-05-22T15:05:35Z</time>
      </trkpt>
      <trkpt lat="47.14245" lon="6.44243">
        <ele>705.2</ele>
        <time>2020-05-22T15:05:36Z</time>
      </trkpt>
      <trkpt lat="47.14241" lon="6.4424">
        <ele>705.2</ele>
        <time>2020-05-22T15:05:37Z</time>
      </trkpt>
      <trkpt lat="47.14237" lon="6.44236">
        <ele>705.2</ele>
        <time>2020-05-22T15:05:38Z</time>
      </trkpt>
      <trkpt lat="47.14233" lon="6.44233">
        <ele>705.2</ele>
        <time>2020-05-22T15:05:39Z</time>
      </trkpt>
      <trkpt lat="47.14229" lon="6.4423">
        <ele>705.2</ele>
        <time>2020-05-22T15:05:40Z</time>
      </trkpt>
      <trkpt lat="47.14225" lon="6.44227">
        <ele>705.2</ele>
        <time>2020-05-22T15:05:41Z</time>
      </trkpt>
      <trkpt lat="47.1422" lon="6.44224">
        <ele>705.2</ele>
        <time>2020-05-22T15:05:42Z</time>
      </trkpt>
      <trkpt lat="47.14216" lon="6.44221">
        <ele>705.2</ele>
        <time>2020-05-22T15:05:43Z</time>
      </trkpt>
      <trkpt lat="47.14213" lon="6.44217">
        <ele>705.4</ele>
        <time>2020-05-22T15:05:44Z</time>
      </trkpt>
      <trkpt lat="47.14209" lon="6.44214">
        <ele>705.4</ele>
        <time>2020-05-22T15:05:45Z</time>
      </trkpt>
      <trkpt lat="47.14209" lon="6.44214">
        <ele>705.4</ele>
        <time>2020-05-22T15:05:46Z</time>
      </trkpt>
      <trkpt lat="47.14201" lon="6.44208">
        <ele>705.4</ele>
        <time>2020-05-22T15:05:47Z</time>
      </trkpt>
      <trkpt lat="47.14197" lon="6.44205">
        <ele>705.4</ele>
        <time>2020-05-22T15:05:48Z</time>
      </trkpt>
      <trkpt lat="47.14193" lon="6.44202">
        <ele>705.4</ele>
        <time>2020-05-22T15:05:49Z</time>
      </trkpt>
      <trkpt lat="47.14189" lon="6.44198">
        <ele>705.4</ele>
        <time>2020-05-22T15:05:50Z</time>
      </trkpt>
      <trkpt lat="47.14186" lon="6.44195">
        <ele>705.4</ele>
        <time>2020-05-22T15:05:51Z</time>
      </trkpt>
      <trkpt lat="47.14182" lon="6.44192">
        <ele>705.4</ele>
        <time>2020-05-22T15:05:52Z</time>
      </trkpt>
      <trkpt lat="47.14178" lon="6.44189">
        <ele>705.4</ele>
        <time>2020-05-22T15:05:53Z</time>
      </trkpt>
      <trkpt lat="47.14174" lon="6.44186">
        <ele>705.4</ele>
        <time>2020-05-22T15:05:54Z</time>
      </trkpt>
      <trkpt lat="47.1417" lon="6.44183">
        <ele>705.4</ele>
        <time>2020-05-22T15:05:55Z</time>
      </trkpt>
      <trkpt lat="47.14167" lon="6.4418">
        <ele>705.4</ele>
        <time>2020-05-22T15:05:56Z</time>
      </trkpt>
      <trkpt lat="47.14163" lon="6.44177">
        <ele>705.4</ele>
        <time>2020-05-22T15:05:57Z</time>
      </trkpt>
      <trkpt lat="47.14159" lon="6.44174">
        <ele>705.6</ele>
        <time>2020-05-22T15:05:58Z</time>
      </trkpt>
      <trkpt lat="47.14155" lon="6.44171">
        <ele>705.6</ele>
        <time>2020-05-22T15:05:59Z</time>
      </trkpt>
      <trkpt lat="47.14152" lon="6.44168">
        <ele>705.6</ele>
        <time>2020-05-22T15:06:00Z</time>
      </trkpt>
      <trkpt lat="47.14148" lon="6.44165">
        <ele>705.6</ele>
        <time>2020-05-22T15:06:01Z</time>
      </trkpt>
      <trkpt lat="47.14144" lon="6.44162">
        <ele>705.6</ele>
        <time>2020-05-22T15:06:02Z</time>
      </trkpt>
      <trkpt lat="47.1414" lon="6.44159">
        <ele>705.6</ele>
        <time>2020-05-22T15:06:03Z</time>
      </trkpt>
      <trkpt lat="47.14136" lon="6.44157">
        <ele>705.6</ele>
        <time>2020-05-22T15:06:04Z</time>
      </trkpt>
      <trkpt lat="47.14132" lon="6.44154">
        <ele>705.6</ele>
        <time>2020-05-22T15:06:05Z</time>
      </trkpt>
      <trkpt lat="47.14129" lon="6.44151">
        <ele>705.6</ele>
        <time>2020-05-22T15:06:06Z</time>
      </trkpt>
      <trkpt lat="47.14125" lon="6.44148">
        <ele>705.6</ele>
        <time>2020-05-22T15:06:07Z</time>
      </trkpt>
      <trkpt lat="47.14121" lon="6.44145">
        <ele>705.6</ele>
        <time>2020-05-22T15:06:08Z</time>
      </trkpt>
      <trkpt lat="47.14118" lon="6.44142">
        <ele>705.6</ele>
        <time>2020-05-22T15:06:09Z</time>
      </trkpt>
      <trkpt lat="47.14114" lon="6.44139">
        <ele>705.6</ele>
        <time>2020-05-22T15:06:10Z</time>
      </trkpt>
      <trkpt lat="47.1411" lon="6.44136">
        <ele>705.6</ele>
        <time>2020-05-22T15:06:11Z</time>
      </trkpt>
      <trkpt lat="47.14107" lon="6.44134">
        <ele>705.8</ele>
        <time>2020-05-22T15:06:12Z</time>
      </trkpt>
      <trkpt lat="47.14103" lon="6.44131">
        <ele>705.8</ele>
        <time>2020-05-22T15:06:13Z</time>
      </trkpt>
      <trkpt lat="47.141" lon="6.44129">
        <ele>705.8</ele>
        <time>2020-05-22T15:06:14Z</time>
      </trkpt>
      <trkpt lat="47.14096" lon="6.44126">
        <ele>705.8</ele>
        <time>2020-05-22T15:06:15Z</time>
      </trkpt>
      <trkpt lat="47.14093" lon="6.44124">
        <ele>705.8</ele>
        <time>2020-05-22T15:06:16Z</time>
      </trkpt>
      <trkpt lat="47.14089" lon="6.44121">
        <ele>705.8</ele>
        <time>2020-05-22T15:06:17Z</time>
      </trkpt>
      <trkpt lat="47.14085" lon="6.44119">
        <ele>705.8</ele>
        <time>2020-05-22T15:06:18Z</time>
      </trkpt>
      <trkpt lat="47.14082" lon="6.44116">
        <ele>705.8</ele>
        <time>2020-05-22T15:06:19Z</time>
      </trkpt>
      <trkpt lat="47.14078" lon="6.44114">
        <ele>705.8</ele>
        <time>2020-05-22T15:06:20Z</time>
      </trkpt>
      <trkpt lat="47.14075" lon="6.44111">
        <ele>705.8</ele>
        <time>2020-05-22T15:06:21Z</time>
      </trkpt>
      <trkpt lat="47.14071" lon="6.44109">
        <ele>705.8</ele>
        <time>2020-05-22T15:06:22Z</time>
      </trkpt>
      <trkpt lat="47.14067" lon="6.44106">
        <ele>705.8</ele>
        <time>2020-05-22T15:06:23Z</time>
      </trkpt>
      <trkpt lat="47.14064" lon="6.44104">
        <ele>705.8</ele>
        <time>2020-05-22T15:06:24Z</time>
      </trkpt>
      <trkpt lat="47.1406" lon="6.44101">
        <ele>706.2</ele>
        <time>2020-05-22T15:06:25Z</time>
      </trkpt>
      <trkpt lat="47.14057" lon="6.44099">
        <ele>706.2</ele>
        <time>2020-05-22T15:06:26Z</time>
      </trkpt>
      <trkpt lat="47.14053" lon="6.44096">
        <ele>706.2</ele>
        <time>2020-05-22T15:06:27Z</time>
      </trkpt>
      <trkpt lat="47.1405" lon="6.44094">
        <ele>706.2</ele>
        <time>2020-05-22T15:06:28Z</time>
      </trkpt>
      <trkpt lat="47.14047" lon="6.44091">
        <ele>706.2</ele>
        <time>2020-05-22T15:06:29Z</time>
      </trkpt>
      <trkpt lat="47.14043" lon="6.44089">
        <ele>706.2</ele>
        <time>2020-05-22T15:06:30Z</time>
      </trkpt>
      <trkpt lat="47.1404" lon="6.44086">
        <ele>706.4</ele>
        <time>2020-05-22T15:06:31Z</time>
      </trkpt>
      <trkpt lat="47.14037" lon="6.44084">
        <ele>706.4</ele>
        <time>2020-05-22T15:06:32Z</time>
      </trkpt>
      <trkpt lat="47.14033" lon="6.44082">
        <ele>706.4</ele>
        <time>2020-05-22T15:06:33Z</time>
      </trkpt>
      <trkpt lat="47.1403" lon="6.44079">
        <ele>706.6</ele>
        <time>2020-05-22T15:06:34Z</time>
      </trkpt>
      <trkpt lat="47.14027" lon="6.44077">
        <ele>706.6</ele>
        <time>2020-05-22T15:06:35Z</time>
      </trkpt>
      <trkpt lat="47.14023" lon="6.44074">
        <ele>706.6</ele>
        <time>2020-05-22T15:06:36Z</time>
      </trkpt>
      <trkpt lat="47.1402" lon="6.44072">
        <ele>706.6</ele>
        <time>2020-05-22T15:06:37Z</time>
      </trkpt>
      <trkpt lat="47.14017" lon="6.4407">
        <ele>706.6</ele>
        <time>2020-05-22T15:06:38Z</time>
      </trkpt>
      <trkpt lat="47.14013" lon="6.44068">
        <ele>706.6</ele>
        <time>2020-05-22T15:06:39Z</time>
      </trkpt>
      <trkpt lat="47.1401" lon="6.44066">
        <ele>706.6</ele>
        <time>2020-05-22T15:06:40Z</time>
      </trkpt>
      <trkpt lat="47.14007" lon="6.44064">
        <ele>706.6</ele>
        <time>2020-05-22T15:06:41Z</time>
      </trkpt>
      <trkpt lat="47.14003" lon="6.44062">
        <ele>706.6</ele>
        <time>2020-05-22T15:06:42Z</time>
      </trkpt>
      <trkpt lat="47.14" lon="6.4406">
        <ele>706.6</ele>
        <time>2020-05-22T15:06:43Z</time>
      </trkpt>
      <trkpt lat="47.13997" lon="6.44059">
        <ele>706.8</ele>
        <time>2020-05-22T15:06:44Z</time>
      </trkpt>
      <trkpt lat="47.13994" lon="6.44058">
        <ele>706.8</ele>
        <time>2020-05-22T15:06:45Z</time>
      </trkpt>
      <trkpt lat="47.1399" lon="6.44056">
        <ele>706.8</ele>
        <time>2020-05-22T15:06:46Z</time>
      </trkpt>
      <trkpt lat="47.13987" lon="6.44055">
        <ele>706.8</ele>
        <time>2020-05-22T15:06:47Z</time>
      </trkpt>
      <trkpt lat="47.13984" lon="6.44053">
        <ele>707.2</ele>
        <time>2020-05-22T15:06:48Z</time>
      </trkpt>
      <trkpt lat="47.13981" lon="6.44051">
        <ele>707.2</ele>
        <time>2020-05-22T15:06:49Z</time>
      </trkpt>
      <trkpt lat="47.13978" lon="6.44049">
        <ele>707.2</ele>
        <time>2020-05-22T15:06:50Z</time>
      </trkpt>
      <trkpt lat="47.13975" lon="6.44047">
        <ele>707.2</ele>
        <time>2020-05-22T15:06:51Z</time>
      </trkpt>
      <trkpt lat="47.13971" lon="6.44045">
        <ele>707.2</ele>
        <time>2020-05-22T15:06:52Z</time>
      </trkpt>
      <trkpt lat="47.13968" lon="6.44044">
        <ele>707.2</ele>
        <time>2020-05-22T15:06:53Z</time>
      </trkpt>
      <trkpt lat="47.13965" lon="6.44042">
        <ele>707.4</ele>
        <time>2020-05-22T15:06:54Z</time>
      </trkpt>
      <trkpt lat="47.13961" lon="6.44039">
        <ele>707.4</ele>
        <time>2020-05-22T15:06:55Z</time>
      </trkpt>
      <trkpt lat="47.13958" lon="6.44037">
        <ele>707.4</ele>
        <time>2020-05-22T15:06:56Z</time>
      </trkpt>
      <trkpt lat="47.13955" lon="6.44035">
        <ele>707.6</ele>
        <time>2020-05-22T15:06:57Z</time>
      </trkpt>
      <trkpt lat="47.13955" lon="6.44035">
        <ele>707.6</ele>
        <time>2020-05-22T15:06:58Z</time>
      </trkpt>
      <trkpt lat="47.13948" lon="6.44031">
        <ele>707.8</ele>
        <time>2020-05-22T15:06:59Z</time>
      </trkpt>
      <trkpt lat="47.13944" lon="6.44029">
        <ele>707.8</ele>
        <time>2020-05-22T15:07:00Z</time>
      </trkpt>
      <trkpt lat="47.13941" lon="6.44027">
        <ele>708</ele>
        <time>2020-05-22T15:07:01Z</time>
      </trkpt>
      <trkpt lat="47.13938" lon="6.44025">
        <ele>708</ele>
        <time>2020-05-22T15:07:02Z</time>
      </trkpt>
      <trkpt lat="47.13934" lon="6.44023">
        <ele>708</ele>
        <time>2020-05-22T15:07:03Z</time>
      </trkpt>
      <trkpt lat="47.13931" lon="6.44021">
        <ele>708</ele>
        <time>2020-05-22T15:07:04Z</time>
      </trkpt>
      <trkpt lat="47.13927" lon="6.44018">
        <ele>708</ele>
        <time>2020-05-22T15:07:05Z</time>
      </trkpt>
      <trkpt lat="47.13923" lon="6.44016">
        <ele>707.8</ele>
        <time>2020-05-22T15:07:06Z</time>
      </trkpt>
      <trkpt lat="47.13919" lon="6.44013">
        <ele>707.8</ele>
        <time>2020-05-22T15:07:07Z</time>
      </trkpt>
      <trkpt lat="47.13915" lon="6.4401">
        <ele>707.8</ele>
        <time>2020-05-22T15:07:08Z</time>
      </trkpt>
      <trkpt lat="47.13911" lon="6.44008">
        <ele>707.8</ele>
        <time>2020-05-22T15:07:09Z</time>
      </trkpt>
      <trkpt lat="47.13907" lon="6.44005">
        <ele>707.8</ele>
        <time>2020-05-22T15:07:10Z</time>
      </trkpt>
      <trkpt lat="47.13903" lon="6.44003">
        <ele>707.8</ele>
        <time>2020-05-22T15:07:11Z</time>
      </trkpt>
      <trkpt lat="47.13899" lon="6.44">
        <ele>707.6</ele>
        <time>2020-05-22T15:07:12Z</time>
      </trkpt>
      <trkpt lat="47.13895" lon="6.43997">
        <ele>707.6</ele>
        <time>2020-05-22T15:07:13Z</time>
      </trkpt>
      <trkpt lat="47.13891" lon="6.43995">
        <ele>707.6</ele>
        <time>2020-05-22T15:07:14Z</time>
      </trkpt>
      <trkpt lat="47.13888" lon="6.43992">
        <ele>707.6</ele>
        <time>2020-05-22T15:07:15Z</time>
      </trkpt>
      <trkpt lat="47.13884" lon="6.43989">
        <ele>707.6</ele>
        <time>2020-05-22T15:07:16Z</time>
      </trkpt>
      <trkpt lat="47.1388" lon="6.43987">
        <ele>707.6</ele>
        <time>2020-05-22T15:07:17Z</time>
      </trkpt>
      <trkpt lat="47.13876" lon="6.43984">
        <ele>707.8</ele>
        <time>2020-05-22T15:07:18Z</time>
      </trkpt>
      <trkpt lat="47.13873" lon="6.43981">
        <ele>707.8</ele>
        <time>2020-05-22T15:07:19Z</time>
      </trkpt>
      <trkpt lat="47.13869" lon="6.43978">
        <ele>707.8</ele>
        <time>2020-05-22T15:07:20Z</time>
      </trkpt>
      <trkpt lat="47.13866" lon="6.43975">
        <ele>707.8</ele>
        <time>2020-05-22T15:07:21Z</time>
      </trkpt>
      <trkpt lat="47.13863" lon="6.43972">
        <ele>707.8</ele>
        <time>2020-05-22T15:07:22Z</time>
      </trkpt>
      <trkpt lat="47.1386" lon="6.43969">
        <ele>707.8</ele>
        <time>2020-05-22T15:07:23Z</time>
      </trkpt>
      <trkpt lat="47.13856" lon="6.43967">
        <ele>707.8</ele>
        <time>2020-05-22T15:07:24Z</time>
      </trkpt>
      <trkpt lat="47.13853" lon="6.43964">
        <ele>708.2</ele>
        <time>2020-05-22T15:07:25Z</time>
      </trkpt>
      <trkpt lat="47.1385" lon="6.43961">
        <ele>708.2</ele>
        <time>2020-05-22T15:07:26Z</time>
      </trkpt>
      <trkpt lat="47.13847" lon="6.43958">
        <ele>708.2</ele>
        <time>2020-05-22T15:07:27Z</time>
      </trkpt>
      <trkpt lat="47.13844" lon="6.43955">
        <ele>708.2</ele>
        <time>2020-05-22T15:07:28Z</time>
      </trkpt>
      <trkpt lat="47.1384" lon="6.43952">
        <ele>708.2</ele>
        <time>2020-05-22T15:07:29Z</time>
      </trkpt>
      <trkpt lat="47.13837" lon="6.43949">
        <ele>708.4</ele>
        <time>2020-05-22T15:07:30Z</time>
      </trkpt>
      <trkpt lat="47.13834" lon="6.43946">
        <ele>708.4</ele>
        <time>2020-05-22T15:07:31Z</time>
      </trkpt>
      <trkpt lat="47.13832" lon="6.43943">
        <ele>708.4</ele>
        <time>2020-05-22T15:07:32Z</time>
      </trkpt>
      <trkpt lat="47.13829" lon="6.4394">
        <ele>708.4</ele>
        <time>2020-05-22T15:07:33Z</time>
      </trkpt>
      <trkpt lat="47.13826" lon="6.43937">
        <ele>708.4</ele>
        <time>2020-05-22T15:07:34Z</time>
      </trkpt>
      <trkpt lat="47.13823" lon="6.43934">
        <ele>708.4</ele>
        <time>2020-05-22T15:07:35Z</time>
      </trkpt>
      <trkpt lat="47.1382" lon="6.43931">
        <ele>708.4</ele>
        <time>2020-05-22T15:07:36Z</time>
      </trkpt>
      <trkpt lat="47.13816" lon="6.43928">
        <ele>708.4</ele>
        <time>2020-05-22T15:07:37Z</time>
      </trkpt>
      <trkpt lat="47.13813" lon="6.43925">
        <ele>708.4</ele>
        <time>2020-05-22T15:07:38Z</time>
      </trkpt>
      <trkpt lat="47.1381" lon="6.43922">
        <ele>708.4</ele>
        <time>2020-05-22T15:07:39Z</time>
      </trkpt>
      <trkpt lat="47.13807" lon="6.43919">
        <ele>708.4</ele>
        <time>2020-05-22T15:07:40Z</time>
      </trkpt>
      <trkpt lat="47.13804" lon="6.43916">
        <ele>708.4</ele>
        <time>2020-05-22T15:07:41Z</time>
      </trkpt>
      <trkpt lat="47.13801" lon="6.43912">
        <ele>708.4</ele>
        <time>2020-05-22T15:07:42Z</time>
      </trkpt>
      <trkpt lat="47.13798" lon="6.43909">
        <ele>708.6</ele>
        <time>2020-05-22T15:07:43Z</time>
      </trkpt>
      <trkpt lat="47.13795" lon="6.43906">
        <ele>708.6</ele>
        <time>2020-05-22T15:07:44Z</time>
      </trkpt>
      <trkpt lat="47.13792" lon="6.43902">
        <ele>708.6</ele>
        <time>2020-05-22T15:07:45Z</time>
      </trkpt>
      <trkpt lat="47.13789" lon="6.43898">
        <ele>708.6</ele>
        <time>2020-05-22T15:07:46Z</time>
      </trkpt>
      <trkpt lat="47.13786" lon="6.43895">
        <ele>708.6</ele>
        <time>2020-05-22T15:07:47Z</time>
      </trkpt>
      <trkpt lat="47.13784" lon="6.43891">
        <ele>708.6</ele>
        <time>2020-05-22T15:07:48Z</time>
      </trkpt>
      <trkpt lat="47.13781" lon="6.43887">
        <ele>708.6</ele>
        <time>2020-05-22T15:07:49Z</time>
      </trkpt>
      <trkpt lat="47.13778" lon="6.43882">
        <ele>708.8</ele>
        <time>2020-05-22T15:07:50Z</time>
      </trkpt>
      <trkpt lat="47.13776" lon="6.43877">
        <ele>708.8</ele>
        <time>2020-05-22T15:07:51Z</time>
      </trkpt>
      <trkpt lat="47.13773" lon="6.43872">
        <ele>708.8</ele>
        <time>2020-05-22T15:07:52Z</time>
      </trkpt>
      <trkpt lat="47.13771" lon="6.43866">
        <ele>708.8</ele>
        <time>2020-05-22T15:07:53Z</time>
      </trkpt>
      <trkpt lat="47.13769" lon="6.43861">
        <ele>708.8</ele>
        <time>2020-05-22T15:07:54Z</time>
      </trkpt>
      <trkpt lat="47.13768" lon="6.43856">
        <ele>708.8</ele>
        <time>2020-05-22T15:07:55Z</time>
      </trkpt>
      <trkpt lat="47.13767" lon="6.43851">
        <ele>708.8</ele>
        <time>2020-05-22T15:07:56Z</time>
      </trkpt>
      <trkpt lat="47.13765" lon="6.43845">
        <ele>708.8</ele>
        <time>2020-05-22T15:07:57Z</time>
      </trkpt>
      <trkpt lat="47.13765" lon="6.4384">
        <ele>709</ele>
        <time>2020-05-22T15:07:58Z</time>
      </trkpt>
      <trkpt lat="47.13764" lon="6.43835">
        <ele>709</ele>
        <time>2020-05-22T15:07:59Z</time>
      </trkpt>
      <trkpt lat="47.13764" lon="6.4383">
        <ele>709</ele>
        <time>2020-05-22T15:08:00Z</time>
      </trkpt>
      <trkpt lat="47.13763" lon="6.43825">
        <ele>709.2</ele>
        <time>2020-05-22T15:08:01Z</time>
      </trkpt>
      <trkpt lat="47.13763" lon="6.4382">
        <ele>709.2</ele>
        <time>2020-05-22T15:08:02Z</time>
      </trkpt>
      <trkpt lat="47.13763" lon="6.43815">
        <ele>709.6</ele>
        <time>2020-05-22T15:08:03Z</time>
      </trkpt>
      <trkpt lat="47.13762" lon="6.4381">
        <ele>709.6</ele>
        <time>2020-05-22T15:08:04Z</time>
      </trkpt>
      <trkpt lat="47.13762" lon="6.43806">
        <ele>709.6</ele>
        <time>2020-05-22T15:08:05Z</time>
      </trkpt>
      <trkpt lat="47.13762" lon="6.43801">
        <ele>709.6</ele>
        <time>2020-05-22T15:08:06Z</time>
      </trkpt>
      <trkpt lat="47.13762" lon="6.43796">
        <ele>709.6</ele>
        <time>2020-05-22T15:08:07Z</time>
      </trkpt>
      <trkpt lat="47.13762" lon="6.43791">
        <ele>709.6</ele>
        <time>2020-05-22T15:08:08Z</time>
      </trkpt>
      <trkpt lat="47.13762" lon="6.43786">
        <ele>709.8</ele>
        <time>2020-05-22T15:08:09Z</time>
      </trkpt>
      <trkpt lat="47.13762" lon="6.43781">
        <ele>709.8</ele>
        <time>2020-05-22T15:08:10Z</time>
      </trkpt>
      <trkpt lat="47.13762" lon="6.43776">
        <ele>709.8</ele>
        <time>2020-05-22T15:08:11Z</time>
      </trkpt>
      <trkpt lat="47.13762" lon="6.43771">
        <ele>709.8</ele>
        <time>2020-05-22T15:08:12Z</time>
      </trkpt>
      <trkpt lat="47.13762" lon="6.43766">
        <ele>709.8</ele>
        <time>2020-05-22T15:08:13Z</time>
      </trkpt>
      <trkpt lat="47.13762" lon="6.43761">
        <ele>709.8</ele>
        <time>2020-05-22T15:08:14Z</time>
      </trkpt>
      <trkpt lat="47.13762" lon="6.43756">
        <ele>709.8</ele>
        <time>2020-05-22T15:08:15Z</time>
      </trkpt>
      <trkpt lat="47.13762" lon="6.43751">
        <ele>709.8</ele>
        <time>2020-05-22T15:08:16Z</time>
      </trkpt>
      <trkpt lat="47.13762" lon="6.43746">
        <ele>709.8</ele>
        <time>2020-05-22T15:08:17Z</time>
      </trkpt>
      <trkpt lat="47.13762" lon="6.43741">
        <ele>709.8</ele>
        <time>2020-05-22T15:08:18Z</time>
      </trkpt>
      <trkpt lat="47.13762" lon="6.43736">
        <ele>709.8</ele>
        <time>2020-05-22T15:08:19Z</time>
      </trkpt>
      <trkpt lat="47.13763" lon="6.43731">
        <ele>709.8</ele>
        <time>2020-05-22T15:08:20Z</time>
      </trkpt>
      <trkpt lat="47.13763" lon="6.43725">
        <ele>709.8</ele>
        <time>2020-05-22T15:08:21Z</time>
      </trkpt>
      <trkpt lat="47.13762" lon="6.4372">
        <ele>709.8</ele>
        <time>2020-05-22T15:08:22Z</time>
      </trkpt>
      <trkpt lat="47.13762" lon="6.43715">
        <ele>710</ele>
        <time>2020-05-22T15:08:23Z</time>
      </trkpt>
      <trkpt lat="47.13762" lon="6.4371">
        <ele>710</ele>
        <time>2020-05-22T15:08:24Z</time>
      </trkpt>
      <trkpt lat="47.13762" lon="6.43705">
        <ele>710</ele>
        <time>2020-05-22T15:08:25Z</time>
      </trkpt>
      <trkpt lat="47.13762" lon="6.437">
        <ele>710.4</ele>
        <time>2020-05-22T15:08:26Z</time>
      </trkpt>
      <trkpt lat="47.13762" lon="6.43695">
        <ele>710.4</ele>
        <time>2020-05-22T15:08:27Z</time>
      </trkpt>
      <trkpt lat="47.13762" lon="6.4369">
        <ele>710.4</ele>
        <time>2020-05-22T15:08:28Z</time>
      </trkpt>
      <trkpt lat="47.13762" lon="6.43685">
        <ele>710.6</ele>
        <time>2020-05-22T15:08:29Z</time>
      </trkpt>
      <trkpt lat="47.13762" lon="6.4368">
        <ele>710.6</ele>
        <time>2020-05-22T15:08:30Z</time>
      </trkpt>
      <trkpt lat="47.13762" lon="6.43675">
        <ele>710.6</ele>
        <time>2020-05-22T15:08:31Z</time>
      </trkpt>
      <trkpt lat="47.13762" lon="6.4367">
        <ele>710.6</ele>
        <time>2020-05-22T15:08:32Z</time>
      </trkpt>
      <trkpt lat="47.13762" lon="6.43665">
        <ele>710.6</ele>
        <time>2020-05-22T15:08:33Z</time>
      </trkpt>
      <trkpt lat="47.13762" lon="6.4366">
        <ele>710.6</ele>
        <time>2020-05-22T15:08:34Z</time>
      </trkpt>
      <trkpt lat="47.13762" lon="6.43654">
        <ele>710.6</ele>
        <time>2020-05-22T15:08:35Z</time>
      </trkpt>
      <trkpt lat="47.13761" lon="6.43649">
        <ele>710.6</ele>
        <time>2020-05-22T15:08:36Z</time>
      </trkpt>
      <trkpt lat="47.1376" lon="6.43644">
        <ele>710.6</ele>
        <time>2020-05-22T15:08:37Z</time>
      </trkpt>
      <trkpt lat="47.13759" lon="6.43638">
        <ele>710.8</ele>
        <time>2020-05-22T15:08:38Z</time>
      </trkpt>
      <trkpt lat="47.13758" lon="6.43633">
        <ele>710.8</ele>
        <time>2020-05-22T15:08:39Z</time>
      </trkpt>
      <trkpt lat="47.13757" lon="6.43628">
        <ele>710.8</ele>
        <time>2020-05-22T15:08:40Z</time>
      </trkpt>
      <trkpt lat="47.13755" lon="6.43623">
        <ele>710.8</ele>
        <time>2020-05-22T15:08:41Z</time>
      </trkpt>
      <trkpt lat="47.13752" lon="6.43619">
        <ele>710.8</ele>
        <time>2020-05-22T15:08:42Z</time>
      </trkpt>
      <trkpt lat="47.13749" lon="6.43616">
        <ele>710.8</ele>
        <time>2020-05-22T15:08:43Z</time>
      </trkpt>
      <trkpt lat="47.13746" lon="6.43614">
        <ele>710.8</ele>
        <time>2020-05-22T15:08:44Z</time>
      </trkpt>
      <trkpt lat="47.13743" lon="6.43612">
        <ele>710.8</ele>
        <time>2020-05-22T15:08:45Z</time>
      </trkpt>
      <trkpt lat="47.1374" lon="6.4361">
        <ele>710.8</ele>
        <time>2020-05-22T15:08:46Z</time>
      </trkpt>
      <trkpt lat="47.13737" lon="6.43608">
        <ele>710.8</ele>
        <time>2020-05-22T15:08:47Z</time>
      </trkpt>
      <trkpt lat="47.13734" lon="6.43606">
        <ele>710.8</ele>
        <time>2020-05-22T15:08:48Z</time>
      </trkpt>
      <trkpt lat="47.13731" lon="6.43603">
        <ele>710.8</ele>
        <time>2020-05-22T15:08:49Z</time>
      </trkpt>
      <trkpt lat="47.13728" lon="6.43602">
        <ele>710.8</ele>
        <time>2020-05-22T15:08:50Z</time>
      </trkpt>
      <trkpt lat="47.13725" lon="6.436">
        <ele>710.8</ele>
        <time>2020-05-22T15:08:51Z</time>
      </trkpt>
      <trkpt lat="47.13722" lon="6.43599">
        <ele>710.8</ele>
        <time>2020-05-22T15:08:52Z</time>
      </trkpt>
      <trkpt lat="47.13719" lon="6.43597">
        <ele>710.8</ele>
        <time>2020-05-22T15:08:53Z</time>
      </trkpt>
      <trkpt lat="47.13717" lon="6.43595">
        <ele>711</ele>
        <time>2020-05-22T15:08:54Z</time>
      </trkpt>
      <trkpt lat="47.13715" lon="6.43593">
        <ele>711</ele>
        <time>2020-05-22T15:08:55Z</time>
      </trkpt>
      <trkpt lat="47.13712" lon="6.43591">
        <ele>711</ele>
        <time>2020-05-22T15:08:56Z</time>
      </trkpt>
      <trkpt lat="47.1371" lon="6.43589">
        <ele>711</ele>
        <time>2020-05-22T15:08:57Z</time>
      </trkpt>
      <trkpt lat="47.13708" lon="6.43588">
        <ele>711</ele>
        <time>2020-05-22T15:08:58Z</time>
      </trkpt>
      <trkpt lat="47.13706" lon="6.43587">
        <ele>711</ele>
        <time>2020-05-22T15:08:59Z</time>
      </trkpt>
      <trkpt lat="47.13705" lon="6.43585">
        <ele>711</ele>
        <time>2020-05-22T15:09:00Z</time>
      </trkpt>
      <trkpt lat="47.13703" lon="6.43584">
        <ele>710.8</ele>
        <time>2020-05-22T15:09:01Z</time>
      </trkpt>
      <trkpt lat="47.13702" lon="6.43582">
        <ele>710.8</ele>
        <time>2020-05-22T15:09:02Z</time>
      </trkpt>
      <trkpt lat="47.13702" lon="6.43581">
        <ele>710.8</ele>
        <time>2020-05-22T15:09:03Z</time>
      </trkpt>
      <trkpt lat="47.13701" lon="6.4358">
        <ele>710.8</ele>
        <time>2020-05-22T15:09:04Z</time>
      </trkpt>
      <trkpt lat="47.13701" lon="6.4358">
        <ele>710.8</ele>
        <time>2020-05-22T15:09:05Z</time>
      </trkpt>
      <trkpt lat="47.13698" lon="6.43575">
        <ele>711.2</ele>
        <time>2020-05-22T15:09:14Z</time>
      </trkpt>
      <trkpt lat="47.13695" lon="6.43575">
        <ele>711.2</ele>
        <time>2020-05-22T15:09:15Z</time>
      </trkpt>
      <trkpt lat="47.13693" lon="6.43576">
        <ele>711.2</ele>
        <time>2020-05-22T15:09:16Z</time>
      </trkpt>
      <trkpt lat="47.1369" lon="6.43577">
        <ele>711.2</ele>
        <time>2020-05-22T15:09:17Z</time>
      </trkpt>
      <trkpt lat="47.13687" lon="6.43579">
        <ele>711.2</ele>
        <time>2020-05-22T15:09:18Z</time>
      </trkpt>
      <trkpt lat="47.13685" lon="6.4358">
        <ele>711.2</ele>
        <time>2020-05-22T15:09:19Z</time>
      </trkpt>
      <trkpt lat="47.13682" lon="6.43582">
        <ele>711.2</ele>
        <time>2020-05-22T15:09:20Z</time>
      </trkpt>
      <trkpt lat="47.13679" lon="6.43583">
        <ele>711.2</ele>
        <time>2020-05-22T15:09:21Z</time>
      </trkpt>
      <trkpt lat="47.13676" lon="6.43584">
        <ele>711.2</ele>
        <time>2020-05-22T15:09:22Z</time>
      </trkpt>
      <trkpt lat="47.13673" lon="6.43585">
        <ele>711.2</ele>
        <time>2020-05-22T15:09:23Z</time>
      </trkpt>
      <trkpt lat="47.13669" lon="6.43587">
        <ele>711.2</ele>
        <time>2020-05-22T15:09:24Z</time>
      </trkpt>
      <trkpt lat="47.13666" lon="6.43588">
        <ele>711.2</ele>
        <time>2020-05-22T15:09:25Z</time>
      </trkpt>
      <trkpt lat="47.13663" lon="6.43589">
        <ele>711.2</ele>
        <time>2020-05-22T15:09:26Z</time>
      </trkpt>
      <trkpt lat="47.13659" lon="6.43591">
        <ele>711</ele>
        <time>2020-05-22T15:09:27Z</time>
      </trkpt>
      <trkpt lat="47.13656" lon="6.43592">
        <ele>711</ele>
        <time>2020-05-22T15:09:28Z</time>
      </trkpt>
      <trkpt lat="47.13652" lon="6.43593">
        <ele>711</ele>
        <time>2020-05-22T15:09:29Z</time>
      </trkpt>
      <trkpt lat="47.13649" lon="6.43595">
        <ele>711</ele>
        <time>2020-05-22T15:09:30Z</time>
      </trkpt>
      <trkpt lat="47.13646" lon="6.43597">
        <ele>711</ele>
        <time>2020-05-22T15:09:31Z</time>
      </trkpt>
      <trkpt lat="47.13642" lon="6.43599">
        <ele>711</ele>
        <time>2020-05-22T15:09:32Z</time>
      </trkpt>
      <trkpt lat="47.13639" lon="6.43601">
        <ele>711</ele>
        <time>2020-05-22T15:09:33Z</time>
      </trkpt>
      <trkpt lat="47.13635" lon="6.43603">
        <ele>711</ele>
        <time>2020-05-22T15:09:34Z</time>
      </trkpt>
      <trkpt lat="47.13631" lon="6.43604">
        <ele>711</ele>
        <time>2020-05-22T15:09:35Z</time>
      </trkpt>
      <trkpt lat="47.13628" lon="6.43606">
        <ele>711.2</ele>
        <time>2020-05-22T15:09:36Z</time>
      </trkpt>
      <trkpt lat="47.13624" lon="6.43608">
        <ele>711.2</ele>
        <time>2020-05-22T15:09:37Z</time>
      </trkpt>
      <trkpt lat="47.1362" lon="6.4361">
        <ele>711.2</ele>
        <time>2020-05-22T15:09:38Z</time>
      </trkpt>
      <trkpt lat="47.13616" lon="6.43612">
        <ele>711.2</ele>
        <time>2020-05-22T15:09:39Z</time>
      </trkpt>
      <trkpt lat="47.13613" lon="6.43614">
        <ele>711.4</ele>
        <time>2020-05-22T15:09:40Z</time>
      </trkpt>
      <trkpt lat="47.13609" lon="6.43615">
        <ele>711.4</ele>
        <time>2020-05-22T15:09:41Z</time>
      </trkpt>
      <trkpt lat="47.13606" lon="6.43617">
        <ele>711.4</ele>
        <time>2020-05-22T15:09:42Z</time>
      </trkpt>
      <trkpt lat="47.13602" lon="6.43619">
        <ele>711.4</ele>
        <time>2020-05-22T15:09:43Z</time>
      </trkpt>
      <trkpt lat="47.13599" lon="6.43621">
        <ele>711.6</ele>
        <time>2020-05-22T15:09:44Z</time>
      </trkpt>
      <trkpt lat="47.13596" lon="6.43623">
        <ele>711.6</ele>
        <time>2020-05-22T15:09:45Z</time>
      </trkpt>
      <trkpt lat="47.13592" lon="6.43624">
        <ele>711.8</ele>
        <time>2020-05-22T15:09:46Z</time>
      </trkpt>
      <trkpt lat="47.13589" lon="6.43626">
        <ele>711.8</ele>
        <time>2020-05-22T15:09:47Z</time>
      </trkpt>
      <trkpt lat="47.13586" lon="6.43627">
        <ele>712</ele>
        <time>2020-05-22T15:09:48Z</time>
      </trkpt>
      <trkpt lat="47.13583" lon="6.43629">
        <ele>712</ele>
        <time>2020-05-22T15:09:49Z</time>
      </trkpt>
      <trkpt lat="47.1358" lon="6.43631">
        <ele>712.4</ele>
        <time>2020-05-22T15:09:50Z</time>
      </trkpt>
      <trkpt lat="47.13577" lon="6.43632">
        <ele>712.4</ele>
        <time>2020-05-22T15:09:51Z</time>
      </trkpt>
      <trkpt lat="47.13574" lon="6.43634">
        <ele>712.6</ele>
        <time>2020-05-22T15:09:52Z</time>
      </trkpt>
      <trkpt lat="47.13572" lon="6.43635">
        <ele>712.6</ele>
        <time>2020-05-22T15:09:53Z</time>
      </trkpt>
      <trkpt lat="47.13569" lon="6.43636">
        <ele>712.8</ele>
        <time>2020-05-22T15:09:54Z</time>
      </trkpt>
      <trkpt lat="47.13566" lon="6.43637">
        <ele>712.8</ele>
        <time>2020-05-22T15:09:55Z</time>
      </trkpt>
      <trkpt lat="47.13564" lon="6.43639">
        <ele>712.8</ele>
        <time>2020-05-22T15:09:56Z</time>
      </trkpt>
      <trkpt lat="47.13561" lon="6.4364">
        <ele>713</ele>
        <time>2020-05-22T15:09:57Z</time>
      </trkpt>
      <trkpt lat="47.13558" lon="6.43642">
        <ele>713</ele>
        <time>2020-05-22T15:09:58Z</time>
      </trkpt>
      <trkpt lat="47.13555" lon="6.43643">
        <ele>713.2</ele>
        <time>2020-05-22T15:09:59Z</time>
      </trkpt>
      <trkpt lat="47.13553" lon="6.43645">
        <ele>713.2</ele>
        <time>2020-05-22T15:10:00Z</time>
      </trkpt>
      <trkpt lat="47.1355" lon="6.43646">
        <ele>713.2</ele>
        <time>2020-05-22T15:10:01Z</time>
      </trkpt>
      <trkpt lat="47.13547" lon="6.43647">
        <ele>713.6</ele>
        <time>2020-05-22T15:10:02Z</time>
      </trkpt>
      <trkpt lat="47.13544" lon="6.43649">
        <ele>713.6</ele>
        <time>2020-05-22T15:10:03Z</time>
      </trkpt>
      <trkpt lat="47.13541" lon="6.4365">
        <ele>713.6</ele>
        <time>2020-05-22T15:10:04Z</time>
      </trkpt>
      <trkpt lat="47.13539" lon="6.43652">
        <ele>713.8</ele>
        <time>2020-05-22T15:10:05Z</time>
      </trkpt>
      <trkpt lat="47.13536" lon="6.43653">
        <ele>713.8</ele>
        <time>2020-05-22T15:10:06Z</time>
      </trkpt>
      <trkpt lat="47.13533" lon="6.43654">
        <ele>713.8</ele>
        <time>2020-05-22T15:10:07Z</time>
      </trkpt>
      <trkpt lat="47.1353" lon="6.43656">
        <ele>714.2</ele>
        <time>2020-05-22T15:10:08Z</time>
      </trkpt>
      <trkpt lat="47.13528" lon="6.43657">
        <ele>714.2</ele>
        <time>2020-05-22T15:10:09Z</time>
      </trkpt>
      <trkpt lat="47.13525" lon="6.43658">
        <ele>714.4</ele>
        <time>2020-05-22T15:10:10Z</time>
      </trkpt>
      <trkpt lat="47.13523" lon="6.43659">
        <ele>714.4</ele>
        <time>2020-05-22T15:10:11Z</time>
      </trkpt>
      <trkpt lat="47.1352" lon="6.4366">
        <ele>714.4</ele>
        <time>2020-05-22T15:10:12Z</time>
      </trkpt>
      <trkpt lat="47.13517" lon="6.43662">
        <ele>714.4</ele>
        <time>2020-05-22T15:10:13Z</time>
      </trkpt>
      <trkpt lat="47.13514" lon="6.43663">
        <ele>714.8</ele>
        <time>2020-05-22T15:10:14Z</time>
      </trkpt>
      <trkpt lat="47.13512" lon="6.43665">
        <ele>714.8</ele>
        <time>2020-05-22T15:10:15Z</time>
      </trkpt>
      <trkpt lat="47.13509" lon="6.43666">
        <ele>715</ele>
        <time>2020-05-22T15:10:16Z</time>
      </trkpt>
      <trkpt lat="47.13506" lon="6.43668">
        <ele>715</ele>
        <time>2020-05-22T15:10:17Z</time>
      </trkpt>
      <trkpt lat="47.13504" lon="6.43669">
        <ele>715.2</ele>
        <time>2020-05-22T15:10:18Z</time>
      </trkpt>
      <trkpt lat="47.13501" lon="6.4367">
        <ele>715.2</ele>
        <time>2020-05-22T15:10:19Z</time>
      </trkpt>
      <trkpt lat="47.13498" lon="6.43671">
        <ele>715.4</ele>
        <time>2020-05-22T15:10:20Z</time>
      </trkpt>
      <trkpt lat="47.13496" lon="6.43673">
        <ele>715.4</ele>
        <time>2020-05-22T15:10:21Z</time>
      </trkpt>
      <trkpt lat="47.13493" lon="6.43674">
        <ele>715.4</ele>
        <time>2020-05-22T15:10:22Z</time>
      </trkpt>
      <trkpt lat="47.1349" lon="6.43675">
        <ele>715.8</ele>
        <time>2020-05-22T15:10:23Z</time>
      </trkpt>
      <trkpt lat="47.13487" lon="6.43676">
        <ele>715.8</ele>
        <time>2020-05-22T15:10:24Z</time>
      </trkpt>
      <trkpt lat="47.13484" lon="6.43678">
        <ele>715.8</ele>
        <time>2020-05-22T15:10:25Z</time>
      </trkpt>
      <trkpt lat="47.13481" lon="6.43679">
        <ele>715.8</ele>
        <time>2020-05-22T15:10:26Z</time>
      </trkpt>
      <trkpt lat="47.13478" lon="6.4368">
        <ele>716</ele>
        <time>2020-05-22T15:10:27Z</time>
      </trkpt>
      <trkpt lat="47.13476" lon="6.43682">
        <ele>716</ele>
        <time>2020-05-22T15:10:28Z</time>
      </trkpt>
      <trkpt lat="47.13473" lon="6.43683">
        <ele>716</ele>
        <time>2020-05-22T15:10:29Z</time>
      </trkpt>
      <trkpt lat="47.1347" lon="6.43684">
        <ele>716</ele>
        <time>2020-05-22T15:10:30Z</time>
      </trkpt>
      <trkpt lat="47.13467" lon="6.43686">
        <ele>716</ele>
        <time>2020-05-22T15:10:31Z</time>
      </trkpt>
      <trkpt lat="47.13464" lon="6.43687">
        <ele>716.2</ele>
        <time>2020-05-22T15:10:32Z</time>
      </trkpt>
      <trkpt lat="47.13461" lon="6.43689">
        <ele>716.2</ele>
        <time>2020-05-22T15:10:33Z</time>
      </trkpt>
      <trkpt lat="47.13458" lon="6.4369">
        <ele>716.2</ele>
        <time>2020-05-22T15:10:34Z</time>
      </trkpt>
      <trkpt lat="47.13455" lon="6.43692">
        <ele>716.2</ele>
        <time>2020-05-22T15:10:35Z</time>
      </trkpt>
      <trkpt lat="47.13452" lon="6.43694">
        <ele>716.2</ele>
        <time>2020-05-22T15:10:36Z</time>
      </trkpt>
      <trkpt lat="47.13449" lon="6.43695">
        <ele>716.2</ele>
        <time>2020-05-22T15:10:37Z</time>
      </trkpt>
      <trkpt lat="47.13446" lon="6.43696">
        <ele>716.2</ele>
        <time>2020-05-22T15:10:38Z</time>
      </trkpt>
      <trkpt lat="47.13443" lon="6.43698">
        <ele>716.4</ele>
        <time>2020-05-22T15:10:39Z</time>
      </trkpt>
      <trkpt lat="47.13441" lon="6.43699">
        <ele>716.4</ele>
        <time>2020-05-22T15:10:40Z</time>
      </trkpt>
      <trkpt lat="47.13438" lon="6.437">
        <ele>716.8</ele>
        <time>2020-05-22T15:10:41Z</time>
      </trkpt>
      <trkpt lat="47.13435" lon="6.43702">
        <ele>716.8</ele>
        <time>2020-05-22T15:10:42Z</time>
      </trkpt>
      <trkpt lat="47.13432" lon="6.43703">
        <ele>717</ele>
        <time>2020-05-22T15:10:43Z</time>
      </trkpt>
      <trkpt lat="47.13429" lon="6.43705">
        <ele>717</ele>
        <time>2020-05-22T15:10:44Z</time>
      </trkpt>
      <trkpt lat="47.13426" lon="6.43706">
        <ele>717.4</ele>
        <time>2020-05-22T15:10:45Z</time>
      </trkpt>
      <trkpt lat="47.13423" lon="6.43707">
        <ele>717.4</ele>
        <time>2020-05-22T15:10:46Z</time>
      </trkpt>
      <trkpt lat="47.1342" lon="6.43709">
        <ele>717.6</ele>
        <time>2020-05-22T15:10:47Z</time>
      </trkpt>
      <trkpt lat="47.13417" lon="6.4371">
        <ele>717.6</ele>
        <time>2020-05-22T15:10:48Z</time>
      </trkpt>
      <trkpt lat="47.13414" lon="6.43712">
        <ele>717.6</ele>
        <time>2020-05-22T15:10:49Z</time>
      </trkpt>
      <trkpt lat="47.13411" lon="6.43713">
        <ele>718</ele>
        <time>2020-05-22T15:10:50Z</time>
      </trkpt>
      <trkpt lat="47.13409" lon="6.43715">
        <ele>718</ele>
        <time>2020-05-22T15:10:51Z</time>
      </trkpt>
      <trkpt lat="47.13406" lon="6.43716">
        <ele>718.2</ele>
        <time>2020-05-22T15:10:52Z</time>
      </trkpt>
      <trkpt lat="47.13403" lon="6.43718">
        <ele>718.2</ele>
        <time>2020-05-22T15:10:53Z</time>
      </trkpt>
      <trkpt lat="47.134" lon="6.4372">
        <ele>718.2</ele>
        <time>2020-05-22T15:10:54Z</time>
      </trkpt>
      <trkpt lat="47.13397" lon="6.43721">
        <ele>718.2</ele>
        <time>2020-05-22T15:10:55Z</time>
      </trkpt>
      <trkpt lat="47.13395" lon="6.43723">
        <ele>718.4</ele>
        <time>2020-05-22T15:10:56Z</time>
      </trkpt>
      <trkpt lat="47.13392" lon="6.43724">
        <ele>718.4</ele>
        <time>2020-05-22T15:10:57Z</time>
      </trkpt>
      <trkpt lat="47.13389" lon="6.43725">
        <ele>718.8</ele>
        <time>2020-05-22T15:10:58Z</time>
      </trkpt>
      <trkpt lat="47.13386" lon="6.43727">
        <ele>718.8</ele>
        <time>2020-05-22T15:10:59Z</time>
      </trkpt>
      <trkpt lat="47.13383" lon="6.43728">
        <ele>718.8</ele>
        <time>2020-05-22T15:11:00Z</time>
      </trkpt>
      <trkpt lat="47.1338" lon="6.4373">
        <ele>719</ele>
        <time>2020-05-22T15:11:01Z</time>
      </trkpt>
      <trkpt lat="47.13378" lon="6.43731">
        <ele>719</ele>
        <time>2020-05-22T15:11:02Z</time>
      </trkpt>
      <trkpt lat="47.13375" lon="6.43732">
        <ele>719</ele>
        <time>2020-05-22T15:11:03Z</time>
      </trkpt>
      <trkpt lat="47.13372" lon="6.43734">
        <ele>719.2</ele>
        <time>2020-05-22T15:11:04Z</time>
      </trkpt>
      <trkpt lat="47.13369" lon="6.43735">
        <ele>719.2</ele>
        <time>2020-05-22T15:11:05Z</time>
      </trkpt>
      <trkpt lat="47.13366" lon="6.43737">
        <ele>719.2</ele>
        <time>2020-05-22T15:11:06Z</time>
      </trkpt>
      <trkpt lat="47.13363" lon="6.43738">
        <ele>719.2</ele>
        <time>2020-05-22T15:11:07Z</time>
      </trkpt>
      <trkpt lat="47.1336" lon="6.43739">
        <ele>719.4</ele>
        <time>2020-05-22T15:11:08Z</time>
      </trkpt>
      <trkpt lat="47.13357" lon="6.43741">
        <ele>719.4</ele>
        <time>2020-05-22T15:11:09Z</time>
      </trkpt>
      <trkpt lat="47.13354" lon="6.43742">
        <ele>719.4</ele>
        <time>2020-05-22T15:11:10Z</time>
      </trkpt>
      <trkpt lat="47.13351" lon="6.43744">
        <ele>719.8</ele>
        <time>2020-05-22T15:11:11Z</time>
      </trkpt>
      <trkpt lat="47.13348" lon="6.43745">
        <ele>719.8</ele>
        <time>2020-05-22T15:11:12Z</time>
      </trkpt>
      <trkpt lat="47.13345" lon="6.43746">
        <ele>720</ele>
        <time>2020-05-22T15:11:13Z</time>
      </trkpt>
      <trkpt lat="47.13343" lon="6.43748">
        <ele>720</ele>
        <time>2020-05-22T15:11:14Z</time>
      </trkpt>
      <trkpt lat="47.1334" lon="6.43749">
        <ele>720.2</ele>
        <time>2020-05-22T15:11:15Z</time>
      </trkpt>
      <trkpt lat="47.13337" lon="6.43751">
        <ele>720.2</ele>
        <time>2020-05-22T15:11:16Z</time>
      </trkpt>
      <trkpt lat="47.13334" lon="6.43752">
        <ele>720.2</ele>
        <time>2020-05-22T15:11:17Z</time>
      </trkpt>
      <trkpt lat="47.1333" lon="6.43753">
        <ele>720.4</ele>
        <time>2020-05-22T15:11:18Z</time>
      </trkpt>
      <trkpt lat="47.13327" lon="6.43755">
        <ele>720.4</ele>
        <time>2020-05-22T15:11:19Z</time>
      </trkpt>
      <trkpt lat="47.13324" lon="6.43756">
        <ele>720.6</ele>
        <time>2020-05-22T15:11:20Z</time>
      </trkpt>
      <trkpt lat="47.13321" lon="6.43758">
        <ele>720.6</ele>
        <time>2020-05-22T15:11:21Z</time>
      </trkpt>
      <trkpt lat="47.13318" lon="6.43759">
        <ele>720.6</ele>
        <time>2020-05-22T15:11:22Z</time>
      </trkpt>
      <trkpt lat="47.13315" lon="6.4376">
        <ele>720.6</ele>
        <time>2020-05-22T15:11:23Z</time>
      </trkpt>
      <trkpt lat="47.13311" lon="6.43762">
        <ele>720.6</ele>
        <time>2020-05-22T15:11:24Z</time>
      </trkpt>
      <trkpt lat="47.13308" lon="6.43763">
        <ele>720.6</ele>
        <time>2020-05-22T15:11:25Z</time>
      </trkpt>
      <trkpt lat="47.13305" lon="6.43764">
        <ele>720.6</ele>
        <time>2020-05-22T15:11:26Z</time>
      </trkpt>
      <trkpt lat="47.13302" lon="6.43765">
        <ele>720.6</ele>
        <time>2020-05-22T15:11:27Z</time>
      </trkpt>
      <trkpt lat="47.13299" lon="6.43766">
        <ele>720.6</ele>
        <time>2020-05-22T15:11:28Z</time>
      </trkpt>
      <trkpt lat="47.13296" lon="6.43766">
        <ele>720.6</ele>
        <time>2020-05-22T15:11:29Z</time>
      </trkpt>
      <trkpt lat="47.13293" lon="6.43766">
        <ele>720.6</ele>
        <time>2020-05-22T15:11:30Z</time>
      </trkpt>
      <trkpt lat="47.13289" lon="6.43766">
        <ele>720.6</ele>
        <time>2020-05-22T15:11:31Z</time>
      </trkpt>
      <trkpt lat="47.13286" lon="6.43766">
        <ele>721</ele>
        <time>2020-05-22T15:11:32Z</time>
      </trkpt>
      <trkpt lat="47.13283" lon="6.43766">
        <ele>721</ele>
        <time>2020-05-22T15:11:33Z</time>
      </trkpt>
      <trkpt lat="47.1328" lon="6.43766">
        <ele>721</ele>
        <time>2020-05-22T15:11:34Z</time>
      </trkpt>
      <trkpt lat="47.13277" lon="6.43766">
        <ele>721.2</ele>
        <time>2020-05-22T15:11:35Z</time>
      </trkpt>
      <trkpt lat="47.13274" lon="6.43765">
        <ele>721.2</ele>
        <time>2020-05-22T15:11:36Z</time>
      </trkpt>
      <trkpt lat="47.13271" lon="6.43765">
        <ele>721.2</ele>
        <time>2020-05-22T15:11:37Z</time>
      </trkpt>
      <trkpt lat="47.13268" lon="6.43764">
        <ele>721.2</ele>
        <time>2020-05-22T15:11:38Z</time>
      </trkpt>
      <trkpt lat="47.13265" lon="6.43763">
        <ele>721.2</ele>
        <time>2020-05-22T15:11:39Z</time>
      </trkpt>
      <trkpt lat="47.13262" lon="6.43761">
        <ele>721.4</ele>
        <time>2020-05-22T15:11:40Z</time>
      </trkpt>
      <trkpt lat="47.13259" lon="6.4376">
        <ele>721.4</ele>
        <time>2020-05-22T15:11:41Z</time>
      </trkpt>
      <trkpt lat="47.13257" lon="6.43758">
        <ele>721.4</ele>
        <time>2020-05-22T15:11:42Z</time>
      </trkpt>
      <trkpt lat="47.13254" lon="6.43757">
        <ele>721.8</ele>
        <time>2020-05-22T15:11:43Z</time>
      </trkpt>
      <trkpt lat="47.13251" lon="6.43755">
        <ele>721.8</ele>
        <time>2020-05-22T15:11:44Z</time>
      </trkpt>
      <trkpt lat="47.13248" lon="6.43754">
        <ele>721.8</ele>
        <time>2020-05-22T15:11:45Z</time>
      </trkpt>
      <trkpt lat="47.13246" lon="6.43752">
        <ele>722</ele>
        <time>2020-05-22T15:11:46Z</time>
      </trkpt>
      <trkpt lat="47.13243" lon="6.43751">
        <ele>722</ele>
        <time>2020-05-22T15:11:47Z</time>
      </trkpt>
      <trkpt lat="47.13241" lon="6.4375">
        <ele>722</ele>
        <time>2020-05-22T15:11:48Z</time>
      </trkpt>
      <trkpt lat="47.13238" lon="6.43748">
        <ele>722.2</ele>
        <time>2020-05-22T15:11:49Z</time>
      </trkpt>
      <trkpt lat="47.13235" lon="6.43747">
        <ele>722.2</ele>
        <time>2020-05-22T15:11:50Z</time>
      </trkpt>
      <trkpt lat="47.13232" lon="6.43745">
        <ele>722.2</ele>
        <time>2020-05-22T15:11:51Z</time>
      </trkpt>
      <trkpt lat="47.1323" lon="6.43744">
        <ele>722.2</ele>
        <time>2020-05-22T15:11:52Z</time>
      </trkpt>
      <trkpt lat="47.13227" lon="6.43742">
        <ele>722.2</ele>
        <time>2020-05-22T15:11:53Z</time>
      </trkpt>
      <trkpt lat="47.13224" lon="6.4374">
        <ele>722.4</ele>
        <time>2020-05-22T15:11:54Z</time>
      </trkpt>
      <trkpt lat="47.13221" lon="6.43738">
        <ele>722.4</ele>
        <time>2020-05-22T15:11:55Z</time>
      </trkpt>
      <trkpt lat="47.13217" lon="6.43736">
        <ele>722.4</ele>
        <time>2020-05-22T15:11:56Z</time>
      </trkpt>
      <trkpt lat="47.13214" lon="6.43734">
        <ele>722.2</ele>
        <time>2020-05-22T15:11:57Z</time>
      </trkpt>
      <trkpt lat="47.1321" lon="6.43732">
        <ele>722.2</ele>
        <time>2020-05-22T15:11:58Z</time>
      </trkpt>
      <trkpt lat="47.13207" lon="6.43729">
        <ele>722</ele>
        <time>2020-05-22T15:11:59Z</time>
      </trkpt>
      <trkpt lat="47.13203" lon="6.43727">
        <ele>722</ele>
        <time>2020-05-22T15:12:00Z</time>
      </trkpt>
      <trkpt lat="47.13199" lon="6.43724">
        <ele>722</ele>
        <time>2020-05-22T15:12:01Z</time>
      </trkpt>
      <trkpt lat="47.13195" lon="6.43722">
        <ele>722</ele>
        <time>2020-05-22T15:12:02Z</time>
      </trkpt>
      <trkpt lat="47.13191" lon="6.43719">
        <ele>721.6</ele>
        <time>2020-05-22T15:12:03Z</time>
      </trkpt>
      <trkpt lat="47.13187" lon="6.43716">
        <ele>721.6</ele>
        <time>2020-05-22T15:12:04Z</time>
      </trkpt>
      <trkpt lat="47.13182" lon="6.43713">
        <ele>721.4</ele>
        <time>2020-05-22T15:12:05Z</time>
      </trkpt>
      <trkpt lat="47.13177" lon="6.4371">
        <ele>721.4</ele>
        <time>2020-05-22T15:12:06Z</time>
      </trkpt>
      <trkpt lat="47.13173" lon="6.43707">
        <ele>721.2</ele>
        <time>2020-05-22T15:12:07Z</time>
      </trkpt>
      <trkpt lat="47.13167" lon="6.43703">
        <ele>721.2</ele>
        <time>2020-05-22T15:12:08Z</time>
      </trkpt>
      <trkpt lat="47.13162" lon="6.437">
        <ele>721</ele>
        <time>2020-05-22T15:12:09Z</time>
      </trkpt>
      <trkpt lat="47.13156" lon="6.43697">
        <ele>721</ele>
        <time>2020-05-22T15:12:10Z</time>
      </trkpt>
      <trkpt lat="47.13151" lon="6.43693">
        <ele>720.6</ele>
        <time>2020-05-22T15:12:11Z</time>
      </trkpt>
      <trkpt lat="47.13145" lon="6.43689">
        <ele>720.4</ele>
        <time>2020-05-22T15:12:12Z</time>
      </trkpt>
      <trkpt lat="47.13139" lon="6.43686">
        <ele>720.4</ele>
        <time>2020-05-22T15:12:13Z</time>
      </trkpt>
      <trkpt lat="47.13133" lon="6.43682">
        <ele>720.2</ele>
        <time>2020-05-22T15:12:14Z</time>
      </trkpt>
      <trkpt lat="47.13128" lon="6.43678">
        <ele>720.2</ele>
        <time>2020-05-22T15:12:15Z</time>
      </trkpt>
      <trkpt lat="47.13122" lon="6.43674">
        <ele>719.8</ele>
        <time>2020-05-22T15:12:16Z</time>
      </trkpt>
      <trkpt lat="47.13115" lon="6.4367">
        <ele>719.4</ele>
        <time>2020-05-22T15:12:17Z</time>
      </trkpt>
      <trkpt lat="47.13109" lon="6.43666">
        <ele>719.2</ele>
        <time>2020-05-22T15:12:18Z</time>
      </trkpt>
      <trkpt lat="47.13103" lon="6.43662">
        <ele>719.2</ele>
        <time>2020-05-22T15:12:19Z</time>
      </trkpt>
      <trkpt lat="47.13096" lon="6.43658">
        <ele>719.2</ele>
        <time>2020-05-22T15:12:20Z</time>
      </trkpt>
      <trkpt lat="47.13089" lon="6.43654">
        <ele>719</ele>
        <time>2020-05-22T15:12:21Z</time>
      </trkpt>
      <trkpt lat="47.13083" lon="6.4365">
        <ele>719</ele>
        <time>2020-05-22T15:12:22Z</time>
      </trkpt>
      <trkpt lat="47.13076" lon="6.43646">
        <ele>719</ele>
        <time>2020-05-22T15:12:23Z</time>
      </trkpt>
      <trkpt lat="47.13069" lon="6.43641">
        <ele>718.8</ele>
        <time>2020-05-22T15:12:24Z</time>
      </trkpt>
      <trkpt lat="47.13063" lon="6.43637">
        <ele>718.8</ele>
        <time>2020-05-22T15:12:25Z</time>
      </trkpt>
      <trkpt lat="47.13056" lon="6.43633">
        <ele>718.4</ele>
        <time>2020-05-22T15:12:26Z</time>
      </trkpt>
      <trkpt lat="47.1305" lon="6.43629">
        <ele>718</ele>
        <time>2020-05-22T15:12:27Z</time>
      </trkpt>
      <trkpt lat="47.13043" lon="6.43625">
        <ele>717.8</ele>
        <time>2020-05-22T15:12:28Z</time>
      </trkpt>
      <trkpt lat="47.13037" lon="6.4362">
        <ele>717.4</ele>
        <time>2020-05-22T15:12:29Z</time>
      </trkpt>
      <trkpt lat="47.13031" lon="6.43616">
        <ele>717.4</ele>
        <time>2020-05-22T15:12:30Z</time>
      </trkpt>
      <trkpt lat="47.13024" lon="6.43612">
        <ele>717</ele>
        <time>2020-05-22T15:12:31Z</time>
      </trkpt>
      <trkpt lat="47.13019" lon="6.43608">
        <ele>716.8</ele>
        <time>2020-05-22T15:12:32Z</time>
      </trkpt>
      <trkpt lat="47.13013" lon="6.43605">
        <ele>716.8</ele>
        <time>2020-05-22T15:12:33Z</time>
      </trkpt>
      <trkpt lat="47.13007" lon="6.43601">
        <ele>716.8</ele>
        <time>2020-05-22T15:12:34Z</time>
      </trkpt>
      <trkpt lat="47.13001" lon="6.43597">
        <ele>716.4</ele>
        <time>2020-05-22T15:12:35Z</time>
      </trkpt>
      <trkpt lat="47.12995" lon="6.43593">
        <ele>716.4</ele>
        <time>2020-05-22T15:12:36Z</time>
      </trkpt>
      <trkpt lat="47.12989" lon="6.4359">
        <ele>716.2</ele>
        <time>2020-05-22T15:12:37Z</time>
      </trkpt>
      <trkpt lat="47.12984" lon="6.43586">
        <ele>716.2</ele>
        <time>2020-05-22T15:12:38Z</time>
      </trkpt>
      <trkpt lat="47.12978" lon="6.43583">
        <ele>716.2</ele>
        <time>2020-05-22T15:12:39Z</time>
      </trkpt>
      <trkpt lat="47.12972" lon="6.43579">
        <ele>716.2</ele>
        <time>2020-05-22T15:12:40Z</time>
      </trkpt>
      <trkpt lat="47.12967" lon="6.43576">
        <ele>716.2</ele>
        <time>2020-05-22T15:12:41Z</time>
      </trkpt>
      <trkpt lat="47.12962" lon="6.43573">
        <ele>716.2</ele>
        <time>2020-05-22T15:12:42Z</time>
      </trkpt>
      <trkpt lat="47.12956" lon="6.43571">
        <ele>716.2</ele>
        <time>2020-05-22T15:12:43Z</time>
      </trkpt>
      <trkpt lat="47.12951" lon="6.43568">
        <ele>716</ele>
        <time>2020-05-22T15:12:44Z</time>
      </trkpt>
      <trkpt lat="47.12946" lon="6.43566">
        <ele>716</ele>
        <time>2020-05-22T15:12:45Z</time>
      </trkpt>
      <trkpt lat="47.12941" lon="6.43564">
        <ele>716</ele>
        <time>2020-05-22T15:12:46Z</time>
      </trkpt>
      <trkpt lat="47.12936" lon="6.43563">
        <ele>716</ele>
        <time>2020-05-22T15:12:47Z</time>
      </trkpt>
      <trkpt lat="47.12931" lon="6.43561">
        <ele>716</ele>
        <time>2020-05-22T15:12:48Z</time>
      </trkpt>
      <trkpt lat="47.12926" lon="6.43559">
        <ele>716</ele>
        <time>2020-05-22T15:12:49Z</time>
      </trkpt>
      <trkpt lat="47.12922" lon="6.43558">
        <ele>716.2</ele>
        <time>2020-05-22T15:12:50Z</time>
      </trkpt>
      <trkpt lat="47.12917" lon="6.43556">
        <ele>716.2</ele>
        <time>2020-05-22T15:12:51Z</time>
      </trkpt>
      <trkpt lat="47.12913" lon="6.43555">
        <ele>716.4</ele>
        <time>2020-05-22T15:12:52Z</time>
      </trkpt>
      <trkpt lat="47.12909" lon="6.43554">
        <ele>716.4</ele>
        <time>2020-05-22T15:12:53Z</time>
      </trkpt>
      <trkpt lat="47.12904" lon="6.43553">
        <ele>716.4</ele>
        <time>2020-05-22T15:12:54Z</time>
      </trkpt>
      <trkpt lat="47.129" lon="6.43552">
        <ele>716.4</ele>
        <time>2020-05-22T15:12:55Z</time>
      </trkpt>
      <trkpt lat="47.12897" lon="6.43551">
        <ele>716.6</ele>
        <time>2020-05-22T15:12:56Z</time>
      </trkpt>
      <trkpt lat="47.12893" lon="6.4355">
        <ele>716.6</ele>
        <time>2020-05-22T15:12:57Z</time>
      </trkpt>
      <trkpt lat="47.1289" lon="6.43548">
        <ele>716.6</ele>
        <time>2020-05-22T15:12:58Z</time>
      </trkpt>
      <trkpt lat="47.12887" lon="6.43547">
        <ele>717</ele>
        <time>2020-05-22T15:12:59Z</time>
      </trkpt>
      <trkpt lat="47.12884" lon="6.43545">
        <ele>717</ele>
        <time>2020-05-22T15:13:00Z</time>
      </trkpt>
      <trkpt lat="47.12881" lon="6.43543">
        <ele>717.2</ele>
        <time>2020-05-22T15:13:01Z</time>
      </trkpt>
      <trkpt lat="47.12879" lon="6.43541">
        <ele>717.2</ele>
        <time>2020-05-22T15:13:02Z</time>
      </trkpt>
      <trkpt lat="47.12876" lon="6.43538">
        <ele>717.2</ele>
        <time>2020-05-22T15:13:03Z</time>
      </trkpt>
      <trkpt lat="47.12874" lon="6.43536">
        <ele>717.2</ele>
        <time>2020-05-22T15:13:04Z</time>
      </trkpt>
      <trkpt lat="47.12872" lon="6.43534">
        <ele>717.2</ele>
        <time>2020-05-22T15:13:05Z</time>
      </trkpt>
      <trkpt lat="47.1287" lon="6.43531">
        <ele>717.4</ele>
        <time>2020-05-22T15:13:06Z</time>
      </trkpt>
      <trkpt lat="47.12867" lon="6.43528">
        <ele>717.4</ele>
        <time>2020-05-22T15:13:07Z</time>
      </trkpt>
      <trkpt lat="47.12865" lon="6.43525">
        <ele>717.4</ele>
        <time>2020-05-22T15:13:08Z</time>
      </trkpt>
      <trkpt lat="47.12863" lon="6.43521">
        <ele>717.8</ele>
        <time>2020-05-22T15:13:09Z</time>
      </trkpt>
      <trkpt lat="47.12861" lon="6.43516">
        <ele>717.8</ele>
        <time>2020-05-22T15:13:10Z</time>
      </trkpt>
      <trkpt lat="47.1286" lon="6.43511">
        <ele>717.8</ele>
        <time>2020-05-22T15:13:11Z</time>
      </trkpt>
      <trkpt lat="47.12858" lon="6.43506">
        <ele>718</ele>
        <time>2020-05-22T15:13:12Z</time>
      </trkpt>
      <trkpt lat="47.12856" lon="6.435">
        <ele>718</ele>
        <time>2020-05-22T15:13:13Z</time>
      </trkpt>
      <trkpt lat="47.12855" lon="6.43495">
        <ele>718</ele>
        <time>2020-05-22T15:13:14Z</time>
      </trkpt>
      <trkpt lat="47.12853" lon="6.4349">
        <ele>718</ele>
        <time>2020-05-22T15:13:15Z</time>
      </trkpt>
      <trkpt lat="47.12851" lon="6.43484">
        <ele>718</ele>
        <time>2020-05-22T15:13:16Z</time>
      </trkpt>
      <trkpt lat="47.12848" lon="6.43479">
        <ele>718</ele>
        <time>2020-05-22T15:13:17Z</time>
      </trkpt>
      <trkpt lat="47.12845" lon="6.43475">
        <ele>718</ele>
        <time>2020-05-22T15:13:18Z</time>
      </trkpt>
      <trkpt lat="47.12842" lon="6.43471">
        <ele>717.8</ele>
        <time>2020-05-22T15:13:19Z</time>
      </trkpt>
      <trkpt lat="47.12838" lon="6.43467">
        <ele>717.8</ele>
        <time>2020-05-22T15:13:20Z</time>
      </trkpt>
      <trkpt lat="47.12834" lon="6.43463">
        <ele>717.8</ele>
        <time>2020-05-22T15:13:21Z</time>
      </trkpt>
      <trkpt lat="47.12831" lon="6.4346">
        <ele>717.4</ele>
        <time>2020-05-22T15:13:22Z</time>
      </trkpt>
      <trkpt lat="47.12826" lon="6.43456">
        <ele>717.4</ele>
        <time>2020-05-22T15:13:23Z</time>
      </trkpt>
      <trkpt lat="47.12822" lon="6.43453">
        <ele>717.4</ele>
        <time>2020-05-22T15:13:24Z</time>
      </trkpt>
      <trkpt lat="47.12818" lon="6.43449">
        <ele>717.2</ele>
        <time>2020-05-22T15:13:25Z</time>
      </trkpt>
      <trkpt lat="47.12813" lon="6.43445">
        <ele>717.2</ele>
        <time>2020-05-22T15:13:26Z</time>
      </trkpt>
      <trkpt lat="47.12808" lon="6.43441">
        <ele>717.2</ele>
        <time>2020-05-22T15:13:27Z</time>
      </trkpt>
      <trkpt lat="47.12804" lon="6.43437">
        <ele>717.2</ele>
        <time>2020-05-22T15:13:28Z</time>
      </trkpt>
      <trkpt lat="47.12799" lon="6.43434">
        <ele>717.2</ele>
        <time>2020-05-22T15:13:29Z</time>
      </trkpt>
      <trkpt lat="47.12794" lon="6.4343">
        <ele>717.2</ele>
        <time>2020-05-22T15:13:30Z</time>
      </trkpt>
      <trkpt lat="47.1279" lon="6.43426">
        <ele>717</ele>
        <time>2020-05-22T15:13:31Z</time>
      </trkpt>
      <trkpt lat="47.12785" lon="6.43422">
        <ele>717</ele>
        <time>2020-05-22T15:13:32Z</time>
      </trkpt>
      <trkpt lat="47.12781" lon="6.43419">
        <ele>716.6</ele>
        <time>2020-05-22T15:13:33Z</time>
      </trkpt>
      <trkpt lat="47.12776" lon="6.43415">
        <ele>716.6</ele>
        <time>2020-05-22T15:13:34Z</time>
      </trkpt>
      <trkpt lat="47.12772" lon="6.43411">
        <ele>716.6</ele>
        <time>2020-05-22T15:13:35Z</time>
      </trkpt>
      <trkpt lat="47.12768" lon="6.43407">
        <ele>716.6</ele>
        <time>2020-05-22T15:13:36Z</time>
      </trkpt>
      <trkpt lat="47.12763" lon="6.43404">
        <ele>716.6</ele>
        <time>2020-05-22T15:13:37Z</time>
      </trkpt>
      <trkpt lat="47.12759" lon="6.434">
        <ele>716.6</ele>
        <time>2020-05-22T15:13:38Z</time>
      </trkpt>
      <trkpt lat="47.12755" lon="6.43397">
        <ele>716.6</ele>
        <time>2020-05-22T15:13:39Z</time>
      </trkpt>
      <trkpt lat="47.12751" lon="6.43393">
        <ele>716.6</ele>
        <time>2020-05-22T15:13:40Z</time>
      </trkpt>
      <trkpt lat="47.12746" lon="6.4339">
        <ele>716.6</ele>
        <time>2020-05-22T15:13:41Z</time>
      </trkpt>
      <trkpt lat="47.12742" lon="6.43386">
        <ele>716.6</ele>
        <time>2020-05-22T15:13:42Z</time>
      </trkpt>
      <trkpt lat="47.12738" lon="6.43383">
        <ele>716.6</ele>
        <time>2020-05-22T15:13:43Z</time>
      </trkpt>
      <trkpt lat="47.12734" lon="6.43379">
        <ele>716.6</ele>
        <time>2020-05-22T15:13:44Z</time>
      </trkpt>
      <trkpt lat="47.1273" lon="6.43376">
        <ele>716.6</ele>
        <time>2020-05-22T15:13:45Z</time>
      </trkpt>
      <trkpt lat="47.12726" lon="6.43372">
        <ele>716.6</ele>
        <time>2020-05-22T15:13:46Z</time>
      </trkpt>
      <trkpt lat="47.12722" lon="6.43368">
        <ele>716.6</ele>
        <time>2020-05-22T15:13:47Z</time>
      </trkpt>
      <trkpt lat="47.12719" lon="6.43365">
        <ele>716.6</ele>
        <time>2020-05-22T15:13:48Z</time>
      </trkpt>
      <trkpt lat="47.12715" lon="6.43361">
        <ele>716.4</ele>
        <time>2020-05-22T15:13:49Z</time>
      </trkpt>
      <trkpt lat="47.12711" lon="6.43358">
        <ele>716.4</ele>
        <time>2020-05-22T15:13:50Z</time>
      </trkpt>
      <trkpt lat="47.12707" lon="6.43354">
        <ele>716.4</ele>
        <time>2020-05-22T15:13:51Z</time>
      </trkpt>
      <trkpt lat="47.12703" lon="6.43351">
        <ele>716.6</ele>
        <time>2020-05-22T15:13:52Z</time>
      </trkpt>
      <trkpt lat="47.12699" lon="6.43348">
        <ele>716.6</ele>
        <time>2020-05-22T15:13:53Z</time>
      </trkpt>
      <trkpt lat="47.12696" lon="6.43344">
        <ele>716.6</ele>
        <time>2020-05-22T15:13:54Z</time>
      </trkpt>
      <trkpt lat="47.12692" lon="6.43341">
        <ele>716.6</ele>
        <time>2020-05-22T15:13:55Z</time>
      </trkpt>
      <trkpt lat="47.12688" lon="6.43338">
        <ele>716.6</ele>
        <time>2020-05-22T15:13:56Z</time>
      </trkpt>
      <trkpt lat="47.12684" lon="6.43335">
        <ele>716.6</ele>
        <time>2020-05-22T15:13:57Z</time>
      </trkpt>
      <trkpt lat="47.12681" lon="6.43331">
        <ele>716.6</ele>
        <time>2020-05-22T15:13:58Z</time>
      </trkpt>
      <trkpt lat="47.12677" lon="6.43328">
        <ele>717</ele>
        <time>2020-05-22T15:13:59Z</time>
      </trkpt>
      <trkpt lat="47.12674" lon="6.43324">
        <ele>717</ele>
        <time>2020-05-22T15:14:00Z</time>
      </trkpt>
      <trkpt lat="47.1267" lon="6.43321">
        <ele>717</ele>
        <time>2020-05-22T15:14:01Z</time>
      </trkpt>
      <trkpt lat="47.12666" lon="6.43318">
        <ele>717</ele>
        <time>2020-05-22T15:14:02Z</time>
      </trkpt>
      <trkpt lat="47.12663" lon="6.43315">
        <ele>717</ele>
        <time>2020-05-22T15:14:03Z</time>
      </trkpt>
      <trkpt lat="47.12659" lon="6.43312">
        <ele>717.2</ele>
        <time>2020-05-22T15:14:04Z</time>
      </trkpt>
      <trkpt lat="47.12655" lon="6.43308">
        <ele>717.2</ele>
        <time>2020-05-22T15:14:05Z</time>
      </trkpt>
      <trkpt lat="47.12652" lon="6.43305">
        <ele>717.2</ele>
        <time>2020-05-22T15:14:06Z</time>
      </trkpt>
      <trkpt lat="47.12648" lon="6.43302">
        <ele>717.2</ele>
        <time>2020-05-22T15:14:07Z</time>
      </trkpt>
      <trkpt lat="47.12645" lon="6.43299">
        <ele>717.2</ele>
        <time>2020-05-22T15:14:08Z</time>
      </trkpt>
      <trkpt lat="47.12641" lon="6.43296">
        <ele>717.2</ele>
        <time>2020-05-22T15:14:09Z</time>
      </trkpt>
      <trkpt lat="47.12638" lon="6.43293">
        <ele>717.2</ele>
        <time>2020-05-22T15:14:10Z</time>
      </trkpt>
      <trkpt lat="47.12635" lon="6.4329">
        <ele>717.2</ele>
        <time>2020-05-22T15:14:11Z</time>
      </trkpt>
      <trkpt lat="47.12631" lon="6.43287">
        <ele>717.2</ele>
        <time>2020-05-22T15:14:12Z</time>
      </trkpt>
      <trkpt lat="47.12628" lon="6.43284">
        <ele>717.2</ele>
        <time>2020-05-22T15:14:13Z</time>
      </trkpt>
      <trkpt lat="47.12625" lon="6.43282">
        <ele>717.2</ele>
        <time>2020-05-22T15:14:14Z</time>
      </trkpt>
      <trkpt lat="47.12622" lon="6.43279">
        <ele>717.2</ele>
        <time>2020-05-22T15:14:15Z</time>
      </trkpt>
      <trkpt lat="47.12618" lon="6.43276">
        <ele>717.2</ele>
        <time>2020-05-22T15:14:16Z</time>
      </trkpt>
      <trkpt lat="47.12615" lon="6.43273">
        <ele>717.2</ele>
        <time>2020-05-22T15:14:17Z</time>
      </trkpt>
      <trkpt lat="47.12611" lon="6.4327">
        <ele>717.4</ele>
        <time>2020-05-22T15:14:18Z</time>
      </trkpt>
      <trkpt lat="47.12608" lon="6.43267">
        <ele>717.4</ele>
        <time>2020-05-22T15:14:19Z</time>
      </trkpt>
      <trkpt lat="47.12604" lon="6.43265">
        <ele>717.4</ele>
        <time>2020-05-22T15:14:20Z</time>
      </trkpt>
      <trkpt lat="47.126" lon="6.43262">
        <ele>717.4</ele>
        <time>2020-05-22T15:14:21Z</time>
      </trkpt>
      <trkpt lat="47.12597" lon="6.4326">
        <ele>717.4</ele>
        <time>2020-05-22T15:14:22Z</time>
      </trkpt>
      <trkpt lat="47.12593" lon="6.43258">
        <ele>717.4</ele>
        <time>2020-05-22T15:14:23Z</time>
      </trkpt>
      <trkpt lat="47.12589" lon="6.43256">
        <ele>717.4</ele>
        <time>2020-05-22T15:14:24Z</time>
      </trkpt>
      <trkpt lat="47.12586" lon="6.43255">
        <ele>717.4</ele>
        <time>2020-05-22T15:14:25Z</time>
      </trkpt>
      <trkpt lat="47.12582" lon="6.43254">
        <ele>717.4</ele>
        <time>2020-05-22T15:14:26Z</time>
      </trkpt>
      <trkpt lat="47.12578" lon="6.43254">
        <ele>717.4</ele>
        <time>2020-05-22T15:14:27Z</time>
      </trkpt>
      <trkpt lat="47.12574" lon="6.43254">
        <ele>717.6</ele>
        <time>2020-05-22T15:14:28Z</time>
      </trkpt>
      <trkpt lat="47.1257" lon="6.43254">
        <ele>717.6</ele>
        <time>2020-05-22T15:14:29Z</time>
      </trkpt>
      <trkpt lat="47.12566" lon="6.43254">
        <ele>717.6</ele>
        <time>2020-05-22T15:14:30Z</time>
      </trkpt>
      <trkpt lat="47.12562" lon="6.43254">
        <ele>717.6</ele>
        <time>2020-05-22T15:14:31Z</time>
      </trkpt>
      <trkpt lat="47.12558" lon="6.43255">
        <ele>717.6</ele>
        <time>2020-05-22T15:14:32Z</time>
      </trkpt>
      <trkpt lat="47.12554" lon="6.43257">
        <ele>717.6</ele>
        <time>2020-05-22T15:14:33Z</time>
      </trkpt>
      <trkpt lat="47.1255" lon="6.43258">
        <ele>717.6</ele>
        <time>2020-05-22T15:14:34Z</time>
      </trkpt>
      <trkpt lat="47.12546" lon="6.4326">
        <ele>717.6</ele>
        <time>2020-05-22T15:14:35Z</time>
      </trkpt>
      <trkpt lat="47.12542" lon="6.43261">
        <ele>717.6</ele>
        <time>2020-05-22T15:14:36Z</time>
      </trkpt>
      <trkpt lat="47.12538" lon="6.43263">
        <ele>717.6</ele>
        <time>2020-05-22T15:14:37Z</time>
      </trkpt>
      <trkpt lat="47.12534" lon="6.43264">
        <ele>717.6</ele>
        <time>2020-05-22T15:14:38Z</time>
      </trkpt>
      <trkpt lat="47.1253" lon="6.43266">
        <ele>717.6</ele>
        <time>2020-05-22T15:14:39Z</time>
      </trkpt>
      <trkpt lat="47.12526" lon="6.43268">
        <ele>717.6</ele>
        <time>2020-05-22T15:14:40Z</time>
      </trkpt>
      <trkpt lat="47.12521" lon="6.4327">
        <ele>717.6</ele>
        <time>2020-05-22T15:14:41Z</time>
      </trkpt>
      <trkpt lat="47.12517" lon="6.43271">
        <ele>717.6</ele>
        <time>2020-05-22T15:14:42Z</time>
      </trkpt>
      <trkpt lat="47.12513" lon="6.43273">
        <ele>717.6</ele>
        <time>2020-05-22T15:14:43Z</time>
      </trkpt>
      <trkpt lat="47.12509" lon="6.43275">
        <ele>717.6</ele>
        <time>2020-05-22T15:14:44Z</time>
      </trkpt>
      <trkpt lat="47.12505" lon="6.43276">
        <ele>717.6</ele>
        <time>2020-05-22T15:14:45Z</time>
      </trkpt>
      <trkpt lat="47.12501" lon="6.43278">
        <ele>717.6</ele>
        <time>2020-05-22T15:14:46Z</time>
      </trkpt>
      <trkpt lat="47.12496" lon="6.43279">
        <ele>717.6</ele>
        <time>2020-05-22T15:14:47Z</time>
      </trkpt>
      <trkpt lat="47.12492" lon="6.43281">
        <ele>717.6</ele>
        <time>2020-05-22T15:14:48Z</time>
      </trkpt>
      <trkpt lat="47.12488" lon="6.43282">
        <ele>717.6</ele>
        <time>2020-05-22T15:14:49Z</time>
      </trkpt>
      <trkpt lat="47.12484" lon="6.43284">
        <ele>717.6</ele>
        <time>2020-05-22T15:14:50Z</time>
      </trkpt>
      <trkpt lat="47.1248" lon="6.43286">
        <ele>717.6</ele>
        <time>2020-05-22T15:14:51Z</time>
      </trkpt>
      <trkpt lat="47.12476" lon="6.43288">
        <ele>717.6</ele>
        <time>2020-05-22T15:14:52Z</time>
      </trkpt>
      <trkpt lat="47.12472" lon="6.4329">
        <ele>718</ele>
        <time>2020-05-22T15:14:53Z</time>
      </trkpt>
      <trkpt lat="47.12468" lon="6.43291">
        <ele>718</ele>
        <time>2020-05-22T15:14:54Z</time>
      </trkpt>
      <trkpt lat="47.12464" lon="6.43292">
        <ele>718</ele>
        <time>2020-05-22T15:14:55Z</time>
      </trkpt>
      <trkpt lat="47.1246" lon="6.43294">
        <ele>718.2</ele>
        <time>2020-05-22T15:14:56Z</time>
      </trkpt>
      <trkpt lat="47.12456" lon="6.43295">
        <ele>718.2</ele>
        <time>2020-05-22T15:14:57Z</time>
      </trkpt>
      <trkpt lat="47.12451" lon="6.43296">
        <ele>718.2</ele>
        <time>2020-05-22T15:14:58Z</time>
      </trkpt>
      <trkpt lat="47.12447" lon="6.43298">
        <ele>718.2</ele>
        <time>2020-05-22T15:14:59Z</time>
      </trkpt>
      <trkpt lat="47.12443" lon="6.43299">
        <ele>718.2</ele>
        <time>2020-05-22T15:15:00Z</time>
      </trkpt>
      <trkpt lat="47.12439" lon="6.43301">
        <ele>718.4</ele>
        <time>2020-05-22T15:15:01Z</time>
      </trkpt>
      <trkpt lat="47.12435" lon="6.43302">
        <ele>718.4</ele>
        <time>2020-05-22T15:15:02Z</time>
      </trkpt>
      <trkpt lat="47.12431" lon="6.43303">
        <ele>718.8</ele>
        <time>2020-05-22T15:15:03Z</time>
      </trkpt>
      <trkpt lat="47.12427" lon="6.43305">
        <ele>718.8</ele>
        <time>2020-05-22T15:15:04Z</time>
      </trkpt>
      <trkpt lat="47.12423" lon="6.43306">
        <ele>718.8</ele>
        <time>2020-05-22T15:15:05Z</time>
      </trkpt>
      <trkpt lat="47.1242" lon="6.43308">
        <ele>718.8</ele>
        <time>2020-05-22T15:15:06Z</time>
      </trkpt>
      <trkpt lat="47.12416" lon="6.43309">
        <ele>718.8</ele>
        <time>2020-05-22T15:15:07Z</time>
      </trkpt>
      <trkpt lat="47.12412" lon="6.43311">
        <ele>718.8</ele>
        <time>2020-05-22T15:15:08Z</time>
      </trkpt>
      <trkpt lat="47.12407" lon="6.43312">
        <ele>718.8</ele>
        <time>2020-05-22T15:15:09Z</time>
      </trkpt>
      <trkpt lat="47.12404" lon="6.43313">
        <ele>718.8</ele>
        <time>2020-05-22T15:15:10Z</time>
      </trkpt>
      <trkpt lat="47.124" lon="6.43315">
        <ele>718.8</ele>
        <time>2020-05-22T15:15:11Z</time>
      </trkpt>
      <trkpt lat="47.12396" lon="6.43316">
        <ele>718.8</ele>
        <time>2020-05-22T15:15:12Z</time>
      </trkpt>
      <trkpt lat="47.12392" lon="6.43317">
        <ele>718.8</ele>
        <time>2020-05-22T15:15:13Z</time>
      </trkpt>
      <trkpt lat="47.12387" lon="6.43319">
        <ele>718.8</ele>
        <time>2020-05-22T15:15:14Z</time>
      </trkpt>
      <trkpt lat="47.12383" lon="6.4332">
        <ele>719</ele>
        <time>2020-05-22T15:15:15Z</time>
      </trkpt>
      <trkpt lat="47.12379" lon="6.43322">
        <ele>719</ele>
        <time>2020-05-22T15:15:16Z</time>
      </trkpt>
      <trkpt lat="47.12375" lon="6.43323">
        <ele>719</ele>
        <time>2020-05-22T15:15:17Z</time>
      </trkpt>
      <trkpt lat="47.12371" lon="6.43325">
        <ele>719</ele>
        <time>2020-05-22T15:15:18Z</time>
      </trkpt>
      <trkpt lat="47.12368" lon="6.43326">
        <ele>719</ele>
        <time>2020-05-22T15:15:19Z</time>
      </trkpt>
      <trkpt lat="47.12364" lon="6.43328">
        <ele>719.2</ele>
        <time>2020-05-22T15:15:20Z</time>
      </trkpt>
      <trkpt lat="47.1236" lon="6.43329">
        <ele>719.2</ele>
        <time>2020-05-22T15:15:21Z</time>
      </trkpt>
      <trkpt lat="47.12356" lon="6.4333">
        <ele>719.2</ele>
        <time>2020-05-22T15:15:22Z</time>
      </trkpt>
      <trkpt lat="47.12352" lon="6.43332">
        <ele>719.4</ele>
        <time>2020-05-22T15:15:23Z</time>
      </trkpt>
      <trkpt lat="47.12348" lon="6.43333">
        <ele>719.4</ele>
        <time>2020-05-22T15:15:24Z</time>
      </trkpt>
      <trkpt lat="47.12344" lon="6.43335">
        <ele>719.4</ele>
        <time>2020-05-22T15:15:25Z</time>
      </trkpt>
      <trkpt lat="47.1234" lon="6.43336">
        <ele>719.4</ele>
        <time>2020-05-22T15:15:26Z</time>
      </trkpt>
      <trkpt lat="47.12336" lon="6.43337">
        <ele>719.4</ele>
        <time>2020-05-22T15:15:27Z</time>
      </trkpt>
      <trkpt lat="47.12332" lon="6.43339">
        <ele>719.4</ele>
        <time>2020-05-22T15:15:28Z</time>
      </trkpt>
      <trkpt lat="47.12328" lon="6.4334">
        <ele>719.4</ele>
        <time>2020-05-22T15:15:29Z</time>
      </trkpt>
      <trkpt lat="47.12324" lon="6.43342">
        <ele>719.4</ele>
        <time>2020-05-22T15:15:30Z</time>
      </trkpt>
      <trkpt lat="47.1232" lon="6.43343">
        <ele>719.6</ele>
        <time>2020-05-22T15:15:31Z</time>
      </trkpt>
      <trkpt lat="47.12316" lon="6.43345">
        <ele>719.6</ele>
        <time>2020-05-22T15:15:32Z</time>
      </trkpt>
      <trkpt lat="47.12312" lon="6.43346">
        <ele>719.6</ele>
        <time>2020-05-22T15:15:33Z</time>
      </trkpt>
      <trkpt lat="47.12308" lon="6.43348">
        <ele>719.6</ele>
        <time>2020-05-22T15:15:34Z</time>
      </trkpt>
      <trkpt lat="47.12304" lon="6.4335">
        <ele>719.6</ele>
        <time>2020-05-22T15:15:35Z</time>
      </trkpt>
      <trkpt lat="47.12299" lon="6.43352">
        <ele>719.6</ele>
        <time>2020-05-22T15:15:36Z</time>
      </trkpt>
      <trkpt lat="47.12295" lon="6.43354">
        <ele>719.6</ele>
        <time>2020-05-22T15:15:37Z</time>
      </trkpt>
      <trkpt lat="47.12291" lon="6.43356">
        <ele>719.6</ele>
        <time>2020-05-22T15:15:38Z</time>
      </trkpt>
      <trkpt lat="47.12287" lon="6.43358">
        <ele>719.6</ele>
        <time>2020-05-22T15:15:39Z</time>
      </trkpt>
      <trkpt lat="47.12283" lon="6.4336">
        <ele>720</ele>
        <time>2020-05-22T15:15:40Z</time>
      </trkpt>
      <trkpt lat="47.12279" lon="6.43362">
        <ele>720</ele>
        <time>2020-05-22T15:15:41Z</time>
      </trkpt>
      <trkpt lat="47.12275" lon="6.43364">
        <ele>720.2</ele>
        <time>2020-05-22T15:15:42Z</time>
      </trkpt>
      <trkpt lat="47.12271" lon="6.43367">
        <ele>720.2</ele>
        <time>2020-05-22T15:15:43Z</time>
      </trkpt>
      <trkpt lat="47.12267" lon="6.4337">
        <ele>720.4</ele>
        <time>2020-05-22T15:15:44Z</time>
      </trkpt>
      <trkpt lat="47.12263" lon="6.43372">
        <ele>720.4</ele>
        <time>2020-05-22T15:15:45Z</time>
      </trkpt>
      <trkpt lat="47.1226" lon="6.43375">
        <ele>720.4</ele>
        <time>2020-05-22T15:15:46Z</time>
      </trkpt>
      <trkpt lat="47.12256" lon="6.43378">
        <ele>720.4</ele>
        <time>2020-05-22T15:15:47Z</time>
      </trkpt>
      <trkpt lat="47.12252" lon="6.43381">
        <ele>720.4</ele>
        <time>2020-05-22T15:15:48Z</time>
      </trkpt>
      <trkpt lat="47.12249" lon="6.43384">
        <ele>720.4</ele>
        <time>2020-05-22T15:15:49Z</time>
      </trkpt>
      <trkpt lat="47.12245" lon="6.43387">
        <ele>720.4</ele>
        <time>2020-05-22T15:15:50Z</time>
      </trkpt>
      <trkpt lat="47.12242" lon="6.4339">
        <ele>720.4</ele>
        <time>2020-05-22T15:15:51Z</time>
      </trkpt>
      <trkpt lat="47.12238" lon="6.43393">
        <ele>720.4</ele>
        <time>2020-05-22T15:15:52Z</time>
      </trkpt>
      <trkpt lat="47.12235" lon="6.43397">
        <ele>720.4</ele>
        <time>2020-05-22T15:15:53Z</time>
      </trkpt>
      <trkpt lat="47.12231" lon="6.434">
        <ele>720.4</ele>
        <time>2020-05-22T15:15:54Z</time>
      </trkpt>
      <trkpt lat="47.12228" lon="6.43403">
        <ele>720.4</ele>
        <time>2020-05-22T15:15:55Z</time>
      </trkpt>
      <trkpt lat="47.12224" lon="6.43407">
        <ele>720.6</ele>
        <time>2020-05-22T15:15:56Z</time>
      </trkpt>
      <trkpt lat="47.1222" lon="6.4341">
        <ele>720.6</ele>
        <time>2020-05-22T15:15:57Z</time>
      </trkpt>
      <trkpt lat="47.12217" lon="6.43413">
        <ele>720.6</ele>
        <time>2020-05-22T15:15:58Z</time>
      </trkpt>
      <trkpt lat="47.12213" lon="6.43417">
        <ele>720.6</ele>
        <time>2020-05-22T15:15:59Z</time>
      </trkpt>
      <trkpt lat="47.12209" lon="6.4342">
        <ele>720.6</ele>
        <time>2020-05-22T15:16:00Z</time>
      </trkpt>
      <trkpt lat="47.12206" lon="6.43424">
        <ele>720.6</ele>
        <time>2020-05-22T15:16:01Z</time>
      </trkpt>
      <trkpt lat="47.12202" lon="6.43427">
        <ele>720.6</ele>
        <time>2020-05-22T15:16:02Z</time>
      </trkpt>
      <trkpt lat="47.12198" lon="6.43431">
        <ele>720.6</ele>
        <time>2020-05-22T15:16:03Z</time>
      </trkpt>
      <trkpt lat="47.12194" lon="6.43434">
        <ele>720.6</ele>
        <time>2020-05-22T15:16:04Z</time>
      </trkpt>
      <trkpt lat="47.1219" lon="6.43438">
        <ele>720.6</ele>
        <time>2020-05-22T15:16:05Z</time>
      </trkpt>
      <trkpt lat="47.12187" lon="6.43441">
        <ele>720.6</ele>
        <time>2020-05-22T15:16:06Z</time>
      </trkpt>
      <trkpt lat="47.12183" lon="6.43445">
        <ele>720.6</ele>
        <time>2020-05-22T15:16:07Z</time>
      </trkpt>
      <trkpt lat="47.12179" lon="6.43448">
        <ele>720.6</ele>
        <time>2020-05-22T15:16:08Z</time>
      </trkpt>
      <trkpt lat="47.12175" lon="6.43451">
        <ele>720.6</ele>
        <time>2020-05-22T15:16:09Z</time>
      </trkpt>
      <trkpt lat="47.12172" lon="6.43455">
        <ele>720.6</ele>
        <time>2020-05-22T15:16:10Z</time>
      </trkpt>
      <trkpt lat="47.12168" lon="6.43458">
        <ele>720.6</ele>
        <time>2020-05-22T15:16:11Z</time>
      </trkpt>
      <trkpt lat="47.12165" lon="6.43462">
        <ele>720.8</ele>
        <time>2020-05-22T15:16:12Z</time>
      </trkpt>
      <trkpt lat="47.12162" lon="6.43465">
        <ele>720.8</ele>
        <time>2020-05-22T15:16:13Z</time>
      </trkpt>
      <trkpt lat="47.12158" lon="6.43469">
        <ele>720.8</ele>
        <time>2020-05-22T15:16:14Z</time>
      </trkpt>
      <trkpt lat="47.12155" lon="6.43472">
        <ele>720.8</ele>
        <time>2020-05-22T15:16:15Z</time>
      </trkpt>
      <trkpt lat="47.12151" lon="6.43476">
        <ele>720.8</ele>
        <time>2020-05-22T15:16:16Z</time>
      </trkpt>
      <trkpt lat="47.12148" lon="6.43479">
        <ele>720.8</ele>
        <time>2020-05-22T15:16:17Z</time>
      </trkpt>
      <trkpt lat="47.12145" lon="6.43483">
        <ele>720.8</ele>
        <time>2020-05-22T15:16:18Z</time>
      </trkpt>
      <trkpt lat="47.12142" lon="6.43487">
        <ele>720.8</ele>
        <time>2020-05-22T15:16:19Z</time>
      </trkpt>
      <trkpt lat="47.12138" lon="6.43491">
        <ele>720.8</ele>
        <time>2020-05-22T15:16:20Z</time>
      </trkpt>
      <trkpt lat="47.12135" lon="6.43496">
        <ele>721.2</ele>
        <time>2020-05-22T15:16:21Z</time>
      </trkpt>
      <trkpt lat="47.12132" lon="6.435">
        <ele>721.2</ele>
        <time>2020-05-22T15:16:22Z</time>
      </trkpt>
      <trkpt lat="47.12129" lon="6.43504">
        <ele>721.4</ele>
        <time>2020-05-22T15:16:23Z</time>
      </trkpt>
      <trkpt lat="47.12126" lon="6.43509">
        <ele>721.4</ele>
        <time>2020-05-22T15:16:24Z</time>
      </trkpt>
      <trkpt lat="47.12123" lon="6.43514">
        <ele>721.4</ele>
        <time>2020-05-22T15:16:25Z</time>
      </trkpt>
      <trkpt lat="47.1212" lon="6.43518">
        <ele>721.4</ele>
        <time>2020-05-22T15:16:26Z</time>
      </trkpt>
      <trkpt lat="47.12117" lon="6.43523">
        <ele>721.4</ele>
        <time>2020-05-22T15:16:27Z</time>
      </trkpt>
      <trkpt lat="47.12114" lon="6.43527">
        <ele>721.4</ele>
        <time>2020-05-22T15:16:28Z</time>
      </trkpt>
      <trkpt lat="47.12111" lon="6.43532">
        <ele>721.4</ele>
        <time>2020-05-22T15:16:29Z</time>
      </trkpt>
      <trkpt lat="47.12108" lon="6.43537">
        <ele>721.8</ele>
        <time>2020-05-22T15:16:30Z</time>
      </trkpt>
      <trkpt lat="47.12105" lon="6.43541">
        <ele>721.8</ele>
        <time>2020-05-22T15:16:31Z</time>
      </trkpt>
      <trkpt lat="47.12102" lon="6.43546">
        <ele>721.8</ele>
        <time>2020-05-22T15:16:32Z</time>
      </trkpt>
      <trkpt lat="47.12099" lon="6.4355">
        <ele>721.8</ele>
        <time>2020-05-22T15:16:33Z</time>
      </trkpt>
      <trkpt lat="47.12096" lon="6.43554">
        <ele>721.8</ele>
        <time>2020-05-22T15:16:34Z</time>
      </trkpt>
      <trkpt lat="47.12094" lon="6.43558">
        <ele>721.8</ele>
        <time>2020-05-22T15:16:35Z</time>
      </trkpt>
      <trkpt lat="47.12091" lon="6.43562">
        <ele>721.8</ele>
        <time>2020-05-22T15:16:36Z</time>
      </trkpt>
      <trkpt lat="47.12089" lon="6.43566">
        <ele>721.8</ele>
        <time>2020-05-22T15:16:37Z</time>
      </trkpt>
      <trkpt lat="47.12087" lon="6.43569">
        <ele>721.8</ele>
        <time>2020-05-22T15:16:38Z</time>
      </trkpt>
      <trkpt lat="47.12085" lon="6.43572">
        <ele>722</ele>
        <time>2020-05-22T15:16:39Z</time>
      </trkpt>
      <trkpt lat="47.12083" lon="6.43575">
        <ele>722</ele>
        <time>2020-05-22T15:16:40Z</time>
      </trkpt>
      <trkpt lat="47.1208" lon="6.43578">
        <ele>722</ele>
        <time>2020-05-22T15:16:41Z</time>
      </trkpt>
      <trkpt lat="47.12078" lon="6.43581">
        <ele>722</ele>
        <time>2020-05-22T15:16:42Z</time>
      </trkpt>
      <trkpt lat="47.12075" lon="6.43584">
        <ele>722</ele>
        <time>2020-05-22T15:16:43Z</time>
      </trkpt>
      <trkpt lat="47.12073" lon="6.43587">
        <ele>722.2</ele>
        <time>2020-05-22T15:16:44Z</time>
      </trkpt>
      <trkpt lat="47.12071" lon="6.43591">
        <ele>722.2</ele>
        <time>2020-05-22T15:16:45Z</time>
      </trkpt>
      <trkpt lat="47.12068" lon="6.43594">
        <ele>722.2</ele>
        <time>2020-05-22T15:16:46Z</time>
      </trkpt>
      <trkpt lat="47.12066" lon="6.43597">
        <ele>722.4</ele>
        <time>2020-05-22T15:16:47Z</time>
      </trkpt>
      <trkpt lat="47.12063" lon="6.436">
        <ele>722.4</ele>
        <time>2020-05-22T15:16:48Z</time>
      </trkpt>
      <trkpt lat="47.1206" lon="6.43604">
        <ele>722.4</ele>
        <time>2020-05-22T15:16:49Z</time>
      </trkpt>
      <trkpt lat="47.12058" lon="6.43607">
        <ele>722.4</ele>
        <time>2020-05-22T15:16:50Z</time>
      </trkpt>
      <trkpt lat="47.12055" lon="6.4361">
        <ele>722.4</ele>
        <time>2020-05-22T15:16:51Z</time>
      </trkpt>
      <trkpt lat="47.12052" lon="6.43614">
        <ele>722.4</ele>
        <time>2020-05-22T15:16:52Z</time>
      </trkpt>
      <trkpt lat="47.12049" lon="6.43618">
        <ele>722.4</ele>
        <time>2020-05-22T15:16:53Z</time>
      </trkpt>
      <trkpt lat="47.12046" lon="6.43621">
        <ele>722.4</ele>
        <time>2020-05-22T15:16:54Z</time>
      </trkpt>
      <trkpt lat="47.12043" lon="6.43625">
        <ele>722.4</ele>
        <time>2020-05-22T15:16:55Z</time>
      </trkpt>
      <trkpt lat="47.1204" lon="6.43628">
        <ele>722.4</ele>
        <time>2020-05-22T15:16:56Z</time>
      </trkpt>
      <trkpt lat="47.12037" lon="6.43631">
        <ele>722.4</ele>
        <time>2020-05-22T15:16:57Z</time>
      </trkpt>
      <trkpt lat="47.12034" lon="6.43635">
        <ele>722.4</ele>
        <time>2020-05-22T15:16:58Z</time>
      </trkpt>
      <trkpt lat="47.12031" lon="6.43638">
        <ele>722.4</ele>
        <time>2020-05-22T15:16:59Z</time>
      </trkpt>
      <trkpt lat="47.12029" lon="6.43642">
        <ele>722.4</ele>
        <time>2020-05-22T15:17:00Z</time>
      </trkpt>
      <trkpt lat="47.12026" lon="6.43645">
        <ele>722.4</ele>
        <time>2020-05-22T15:17:01Z</time>
      </trkpt>
      <trkpt lat="47.12022" lon="6.43648">
        <ele>722.6</ele>
        <time>2020-05-22T15:17:02Z</time>
      </trkpt>
      <trkpt lat="47.12019" lon="6.43651">
        <ele>722.6</ele>
        <time>2020-05-22T15:17:03Z</time>
      </trkpt>
      <trkpt lat="47.12016" lon="6.43654">
        <ele>722.6</ele>
        <time>2020-05-22T15:17:04Z</time>
      </trkpt>
      <trkpt lat="47.12013" lon="6.43657">
        <ele>722.6</ele>
        <time>2020-05-22T15:17:05Z</time>
      </trkpt>
      <trkpt lat="47.1201" lon="6.43661">
        <ele>722.6</ele>
        <time>2020-05-22T15:17:06Z</time>
      </trkpt>
      <trkpt lat="47.12007" lon="6.43664">
        <ele>722.6</ele>
        <time>2020-05-22T15:17:07Z</time>
      </trkpt>
      <trkpt lat="47.12004" lon="6.43668">
        <ele>722.6</ele>
        <time>2020-05-22T15:17:08Z</time>
      </trkpt>
      <trkpt lat="47.12001" lon="6.4367">
        <ele>722.6</ele>
        <time>2020-05-22T15:17:09Z</time>
      </trkpt>
      <trkpt lat="47.11998" lon="6.43673">
        <ele>722.6</ele>
        <time>2020-05-22T15:17:10Z</time>
      </trkpt>
      <trkpt lat="47.11995" lon="6.43676">
        <ele>722.6</ele>
        <time>2020-05-22T15:17:11Z</time>
      </trkpt>
      <trkpt lat="47.11992" lon="6.43679">
        <ele>722.6</ele>
        <time>2020-05-22T15:17:12Z</time>
      </trkpt>
      <trkpt lat="47.11989" lon="6.43682">
        <ele>722.6</ele>
        <time>2020-05-22T15:17:13Z</time>
      </trkpt>
      <trkpt lat="47.11985" lon="6.43684">
        <ele>722.6</ele>
        <time>2020-05-22T15:17:14Z</time>
      </trkpt>
      <trkpt lat="47.11982" lon="6.43687">
        <ele>722.6</ele>
        <time>2020-05-22T15:17:15Z</time>
      </trkpt>
      <trkpt lat="47.11979" lon="6.4369">
        <ele>722.8</ele>
        <time>2020-05-22T15:17:16Z</time>
      </trkpt>
      <trkpt lat="47.11975" lon="6.43693">
        <ele>722.8</ele>
        <time>2020-05-22T15:17:17Z</time>
      </trkpt>
      <trkpt lat="47.11972" lon="6.43695">
        <ele>722.8</ele>
        <time>2020-05-22T15:17:18Z</time>
      </trkpt>
      <trkpt lat="47.11969" lon="6.43697">
        <ele>722.8</ele>
        <time>2020-05-22T15:17:19Z</time>
      </trkpt>
      <trkpt lat="47.11965" lon="6.43698">
        <ele>722.8</ele>
        <time>2020-05-22T15:17:20Z</time>
      </trkpt>
      <trkpt lat="47.11962" lon="6.437">
        <ele>722.8</ele>
        <time>2020-05-22T15:17:21Z</time>
      </trkpt>
      <trkpt lat="47.11959" lon="6.43702">
        <ele>722.8</ele>
        <time>2020-05-22T15:17:22Z</time>
      </trkpt>
      <trkpt lat="47.11956" lon="6.43704">
        <ele>723</ele>
        <time>2020-05-22T15:17:23Z</time>
      </trkpt>
      <trkpt lat="47.11953" lon="6.43705">
        <ele>723</ele>
        <time>2020-05-22T15:17:24Z</time>
      </trkpt>
      <trkpt lat="47.1195" lon="6.43706">
        <ele>723</ele>
        <time>2020-05-22T15:17:25Z</time>
      </trkpt>
      <trkpt lat="47.11947" lon="6.43707">
        <ele>723</ele>
        <time>2020-05-22T15:17:26Z</time>
      </trkpt>
      <trkpt lat="47.11944" lon="6.43708">
        <ele>723</ele>
        <time>2020-05-22T15:17:27Z</time>
      </trkpt>
      <trkpt lat="47.11941" lon="6.4371">
        <ele>723.4</ele>
        <time>2020-05-22T15:17:28Z</time>
      </trkpt>
      <trkpt lat="47.11938" lon="6.43711">
        <ele>723.4</ele>
        <time>2020-05-22T15:17:29Z</time>
      </trkpt>
      <trkpt lat="47.11936" lon="6.43712">
        <ele>723.4</ele>
        <time>2020-05-22T15:17:30Z</time>
      </trkpt>
      <trkpt lat="47.11933" lon="6.43712">
        <ele>723.6</ele>
        <time>2020-05-22T15:17:31Z</time>
      </trkpt>
      <trkpt lat="47.1193" lon="6.43713">
        <ele>723.6</ele>
        <time>2020-05-22T15:17:32Z</time>
      </trkpt>
      <trkpt lat="47.11927" lon="6.43714">
        <ele>723.6</ele>
        <time>2020-05-22T15:17:33Z</time>
      </trkpt>
      <trkpt lat="47.11924" lon="6.43715">
        <ele>723.6</ele>
        <time>2020-05-22T15:17:34Z</time>
      </trkpt>
      <trkpt lat="47.11921" lon="6.43716">
        <ele>723.8</ele>
        <time>2020-05-22T15:17:35Z</time>
      </trkpt>
      <trkpt lat="47.11919" lon="6.43716">
        <ele>723.8</ele>
        <time>2020-05-22T15:17:36Z</time>
      </trkpt>
      <trkpt lat="47.11916" lon="6.43717">
        <ele>723.8</ele>
        <time>2020-05-22T15:17:37Z</time>
      </trkpt>
      <trkpt lat="47.11913" lon="6.43717">
        <ele>723.8</ele>
        <time>2020-05-22T15:17:38Z</time>
      </trkpt>
      <trkpt lat="47.11911" lon="6.43718">
        <ele>724</ele>
        <time>2020-05-22T15:17:39Z</time>
      </trkpt>
      <trkpt lat="47.11908" lon="6.43718">
        <ele>724</ele>
        <time>2020-05-22T15:17:40Z</time>
      </trkpt>
      <trkpt lat="47.11905" lon="6.43719">
        <ele>724</ele>
        <time>2020-05-22T15:17:41Z</time>
      </trkpt>
      <trkpt lat="47.11903" lon="6.43719">
        <ele>724.4</ele>
        <time>2020-05-22T15:17:42Z</time>
      </trkpt>
      <trkpt lat="47.119" lon="6.4372">
        <ele>724.4</ele>
        <time>2020-05-22T15:17:43Z</time>
      </trkpt>
      <trkpt lat="47.11897" lon="6.4372">
        <ele>724.4</ele>
        <time>2020-05-22T15:17:44Z</time>
      </trkpt>
      <trkpt lat="47.11895" lon="6.43721">
        <ele>724.4</ele>
        <time>2020-05-22T15:17:45Z</time>
      </trkpt>
      <trkpt lat="47.11892" lon="6.43722">
        <ele>724.6</ele>
        <time>2020-05-22T15:17:46Z</time>
      </trkpt>
      <trkpt lat="47.1189" lon="6.43722">
        <ele>724.6</ele>
        <time>2020-05-22T15:17:47Z</time>
      </trkpt>
      <trkpt lat="47.11887" lon="6.43722">
        <ele>724.6</ele>
        <time>2020-05-22T15:17:48Z</time>
      </trkpt>
      <trkpt lat="47.11885" lon="6.43722">
        <ele>724.6</ele>
        <time>2020-05-22T15:17:49Z</time>
      </trkpt>
      <trkpt lat="47.11882" lon="6.43722">
        <ele>724.6</ele>
        <time>2020-05-22T15:17:50Z</time>
      </trkpt>
      <trkpt lat="47.11879" lon="6.43722">
        <ele>724.8</ele>
        <time>2020-05-22T15:17:51Z</time>
      </trkpt>
      <trkpt lat="47.11876" lon="6.43723">
        <ele>724.8</ele>
        <time>2020-05-22T15:17:52Z</time>
      </trkpt>
      <trkpt lat="47.11874" lon="6.43724">
        <ele>724.8</ele>
        <time>2020-05-22T15:17:53Z</time>
      </trkpt>
      <trkpt lat="47.11871" lon="6.43725">
        <ele>724.8</ele>
        <time>2020-05-22T15:17:54Z</time>
      </trkpt>
      <trkpt lat="47.11869" lon="6.43725">
        <ele>725</ele>
        <time>2020-05-22T15:17:55Z</time>
      </trkpt>
      <trkpt lat="47.11867" lon="6.43726">
        <ele>725</ele>
        <time>2020-05-22T15:17:56Z</time>
      </trkpt>
      <trkpt lat="47.11865" lon="6.43726">
        <ele>725</ele>
        <time>2020-05-22T15:17:57Z</time>
      </trkpt>
      <trkpt lat="47.11862" lon="6.43726">
        <ele>725</ele>
        <time>2020-05-22T15:17:58Z</time>
      </trkpt>
      <trkpt lat="47.11861" lon="6.43726">
        <ele>725.2</ele>
        <time>2020-05-22T15:17:59Z</time>
      </trkpt>
      <trkpt lat="47.11859" lon="6.43726">
        <ele>725.2</ele>
        <time>2020-05-22T15:18:00Z</time>
      </trkpt>
      <trkpt lat="47.11857" lon="6.43727">
        <ele>725.2</ele>
        <time>2020-05-22T15:18:01Z</time>
      </trkpt>
      <trkpt lat="47.11856" lon="6.43727">
        <ele>725.2</ele>
        <time>2020-05-22T15:18:02Z</time>
      </trkpt>
      <trkpt lat="47.11855" lon="6.43727">
        <ele>725.2</ele>
        <time>2020-05-22T15:18:03Z</time>
      </trkpt>
      <trkpt lat="47.11854" lon="6.43727">
        <ele>725.2</ele>
        <time>2020-05-22T15:18:04Z</time>
      </trkpt>
      <trkpt lat="47.11853" lon="6.43727">
        <ele>725.4</ele>
        <time>2020-05-22T15:18:05Z</time>
      </trkpt>
      <trkpt lat="47.11852" lon="6.43727">
        <ele>725.4</ele>
        <time>2020-05-22T15:18:06Z</time>
      </trkpt>
      <trkpt lat="47.11844" lon="6.43731">
        <ele>726.4</ele>
        <time>2020-05-22T15:20:23Z</time>
      </trkpt>
      <trkpt lat="47.11842" lon="6.43732">
        <ele>726.6</ele>
        <time>2020-05-22T15:20:24Z</time>
      </trkpt>
      <trkpt lat="47.11839" lon="6.43732">
        <ele>726.6</ele>
        <time>2020-05-22T15:20:25Z</time>
      </trkpt>
      <trkpt lat="47.11837" lon="6.43733">
        <ele>726.6</ele>
        <time>2020-05-22T15:20:26Z</time>
      </trkpt>
      <trkpt lat="47.11835" lon="6.43733">
        <ele>726.8</ele>
        <time>2020-05-22T15:20:27Z</time>
      </trkpt>
      <trkpt lat="47.11832" lon="6.43734">
        <ele>726.8</ele>
        <time>2020-05-22T15:20:28Z</time>
      </trkpt>
      <trkpt lat="47.1183" lon="6.43735">
        <ele>726.8</ele>
        <time>2020-05-22T15:20:29Z</time>
      </trkpt>
      <trkpt lat="47.11827" lon="6.43735">
        <ele>726.8</ele>
        <time>2020-05-22T15:20:30Z</time>
      </trkpt>
      <trkpt lat="47.11824" lon="6.43736">
        <ele>727</ele>
        <time>2020-05-22T15:20:31Z</time>
      </trkpt>
      <trkpt lat="47.11821" lon="6.43737">
        <ele>727</ele>
        <time>2020-05-22T15:20:32Z</time>
      </trkpt>
      <trkpt lat="47.11818" lon="6.43737">
        <ele>727</ele>
        <time>2020-05-22T15:20:33Z</time>
      </trkpt>
      <trkpt lat="47.11815" lon="6.43738">
        <ele>727.2</ele>
        <time>2020-05-22T15:20:34Z</time>
      </trkpt>
      <trkpt lat="47.11812" lon="6.43739">
        <ele>727.2</ele>
        <time>2020-05-22T15:20:35Z</time>
      </trkpt>
      <trkpt lat="47.11809" lon="6.4374">
        <ele>727.2</ele>
        <time>2020-05-22T15:20:36Z</time>
      </trkpt>
      <trkpt lat="47.11805" lon="6.43741">
        <ele>727.2</ele>
        <time>2020-05-22T15:20:37Z</time>
      </trkpt>
      <trkpt lat="47.11802" lon="6.43742">
        <ele>727.6</ele>
        <time>2020-05-22T15:20:38Z</time>
      </trkpt>
      <trkpt lat="47.11799" lon="6.43743">
        <ele>727.6</ele>
        <time>2020-05-22T15:20:39Z</time>
      </trkpt>
      <trkpt lat="47.11795" lon="6.43744">
        <ele>727.6</ele>
        <time>2020-05-22T15:20:40Z</time>
      </trkpt>
      <trkpt lat="47.11792" lon="6.43744">
        <ele>727.8</ele>
        <time>2020-05-22T15:20:41Z</time>
      </trkpt>
      <trkpt lat="47.11789" lon="6.43745">
        <ele>727.8</ele>
        <time>2020-05-22T15:20:42Z</time>
      </trkpt>
      <trkpt lat="47.11785" lon="6.43746">
        <ele>727.8</ele>
        <time>2020-05-22T15:20:43Z</time>
      </trkpt>
      <trkpt lat="47.11782" lon="6.43747">
        <ele>728</ele>
        <time>2020-05-22T15:20:44Z</time>
      </trkpt>
      <trkpt lat="47.11778" lon="6.43748">
        <ele>728</ele>
        <time>2020-05-22T15:20:45Z</time>
      </trkpt>
      <trkpt lat="47.11774" lon="6.43749">
        <ele>728</ele>
        <time>2020-05-22T15:20:46Z</time>
      </trkpt>
      <trkpt lat="47.1177" lon="6.4375">
        <ele>728</ele>
        <time>2020-05-22T15:20:47Z</time>
      </trkpt>
      <trkpt lat="47.11767" lon="6.43751">
        <ele>728</ele>
        <time>2020-05-22T15:20:48Z</time>
      </trkpt>
      <trkpt lat="47.11763" lon="6.43751">
        <ele>728</ele>
        <time>2020-05-22T15:20:49Z</time>
      </trkpt>
      <trkpt lat="47.11759" lon="6.43752">
        <ele>728.4</ele>
        <time>2020-05-22T15:20:50Z</time>
      </trkpt>
      <trkpt lat="47.11755" lon="6.43753">
        <ele>728.4</ele>
        <time>2020-05-22T15:20:51Z</time>
      </trkpt>
      <trkpt lat="47.11751" lon="6.43754">
        <ele>728.4</ele>
        <time>2020-05-22T15:20:52Z</time>
      </trkpt>
      <trkpt lat="47.11747" lon="6.43755">
        <ele>728.6</ele>
        <time>2020-05-22T15:20:53Z</time>
      </trkpt>
      <trkpt lat="47.11743" lon="6.43756">
        <ele>728.6</ele>
        <time>2020-05-22T15:20:54Z</time>
      </trkpt>
      <trkpt lat="47.11739" lon="6.43757">
        <ele>728.6</ele>
        <time>2020-05-22T15:20:55Z</time>
      </trkpt>
      <trkpt lat="47.11736" lon="6.43758">
        <ele>728.8</ele>
        <time>2020-05-22T15:20:56Z</time>
      </trkpt>
      <trkpt lat="47.11732" lon="6.43759">
        <ele>728.8</ele>
        <time>2020-05-22T15:20:57Z</time>
      </trkpt>
      <trkpt lat="47.11728" lon="6.4376">
        <ele>728.8</ele>
        <time>2020-05-22T15:20:58Z</time>
      </trkpt>
      <trkpt lat="47.11724" lon="6.43761">
        <ele>729.2</ele>
        <time>2020-05-22T15:20:59Z</time>
      </trkpt>
      <trkpt lat="47.1172" lon="6.43762">
        <ele>729.2</ele>
        <time>2020-05-22T15:21:00Z</time>
      </trkpt>
      <trkpt lat="47.11716" lon="6.43763">
        <ele>729.2</ele>
        <time>2020-05-22T15:21:01Z</time>
      </trkpt>
      <trkpt lat="47.11712" lon="6.43764">
        <ele>729.4</ele>
        <time>2020-05-22T15:21:02Z</time>
      </trkpt>
      <trkpt lat="47.11709" lon="6.43765">
        <ele>729.4</ele>
        <time>2020-05-22T15:21:03Z</time>
      </trkpt>
      <trkpt lat="47.11705" lon="6.43766">
        <ele>729.4</ele>
        <time>2020-05-22T15:21:04Z</time>
      </trkpt>
      <trkpt lat="47.11702" lon="6.43767">
        <ele>729.6</ele>
        <time>2020-05-22T15:21:05Z</time>
      </trkpt>
      <trkpt lat="47.11698" lon="6.43768">
        <ele>729.6</ele>
        <time>2020-05-22T15:21:06Z</time>
      </trkpt>
      <trkpt lat="47.11695" lon="6.43769">
        <ele>729.6</ele>
        <time>2020-05-22T15:21:07Z</time>
      </trkpt>
      <trkpt lat="47.11691" lon="6.4377">
        <ele>729.6</ele>
        <time>2020-05-22T15:21:08Z</time>
      </trkpt>
      <trkpt lat="47.11688" lon="6.43771">
        <ele>729.6</ele>
        <time>2020-05-22T15:21:09Z</time>
      </trkpt>
      <trkpt lat="47.11684" lon="6.43773">
        <ele>729.8</ele>
        <time>2020-05-22T15:21:10Z</time>
      </trkpt>
      <trkpt lat="47.11681" lon="6.43773">
        <ele>729.8</ele>
        <time>2020-05-22T15:21:11Z</time>
      </trkpt>
      <trkpt lat="47.11678" lon="6.43774">
        <ele>730</ele>
        <time>2020-05-22T15:21:12Z</time>
      </trkpt>
      <trkpt lat="47.11674" lon="6.43775">
        <ele>730</ele>
        <time>2020-05-22T15:21:13Z</time>
      </trkpt>
      <trkpt lat="47.11671" lon="6.43775">
        <ele>730.4</ele>
        <time>2020-05-22T15:21:14Z</time>
      </trkpt>
      <trkpt lat="47.11668" lon="6.43776">
        <ele>730.4</ele>
        <time>2020-05-22T15:21:15Z</time>
      </trkpt>
      <trkpt lat="47.11665" lon="6.43777">
        <ele>730.4</ele>
        <time>2020-05-22T15:21:16Z</time>
      </trkpt>
      <trkpt lat="47.11662" lon="6.43777">
        <ele>730.4</ele>
        <time>2020-05-22T15:21:17Z</time>
      </trkpt>
      <trkpt lat="47.11658" lon="6.43778">
        <ele>730.6</ele>
        <time>2020-05-22T15:21:18Z</time>
      </trkpt>
      <trkpt lat="47.11655" lon="6.43779">
        <ele>730.6</ele>
        <time>2020-05-22T15:21:19Z</time>
      </trkpt>
      <trkpt lat="47.11652" lon="6.43779">
        <ele>730.8</ele>
        <time>2020-05-22T15:21:20Z</time>
      </trkpt>
      <trkpt lat="47.11649" lon="6.4378">
        <ele>730.8</ele>
        <time>2020-05-22T15:21:21Z</time>
      </trkpt>
      <trkpt lat="47.11646" lon="6.4378">
        <ele>731</ele>
        <time>2020-05-22T15:21:22Z</time>
      </trkpt>
      <trkpt lat="47.11642" lon="6.43781">
        <ele>731</ele>
        <time>2020-05-22T15:21:23Z</time>
      </trkpt>
      <trkpt lat="47.1164" lon="6.43782">
        <ele>731</ele>
        <time>2020-05-22T15:21:24Z</time>
      </trkpt>
      <trkpt lat="47.11636" lon="6.43782">
        <ele>731.2</ele>
        <time>2020-05-22T15:21:25Z</time>
      </trkpt>
      <trkpt lat="47.11633" lon="6.43783">
        <ele>731.2</ele>
        <time>2020-05-22T15:21:26Z</time>
      </trkpt>
      <trkpt lat="47.1163" lon="6.43784">
        <ele>731.2</ele>
        <time>2020-05-22T15:21:27Z</time>
      </trkpt>
      <trkpt lat="47.11627" lon="6.43785">
        <ele>731.6</ele>
        <time>2020-05-22T15:21:28Z</time>
      </trkpt>
      <trkpt lat="47.11624" lon="6.43785">
        <ele>731.6</ele>
        <time>2020-05-22T15:21:29Z</time>
      </trkpt>
      <trkpt lat="47.11621" lon="6.43786">
        <ele>731.8</ele>
        <time>2020-05-22T15:21:30Z</time>
      </trkpt>
      <trkpt lat="47.11618" lon="6.43787">
        <ele>731.8</ele>
        <time>2020-05-22T15:21:31Z</time>
      </trkpt>
      <trkpt lat="47.11615" lon="6.43788">
        <ele>732</ele>
        <time>2020-05-22T15:21:32Z</time>
      </trkpt>
      <trkpt lat="47.11612" lon="6.43789">
        <ele>732</ele>
        <time>2020-05-22T15:21:33Z</time>
      </trkpt>
      <trkpt lat="47.1161" lon="6.4379">
        <ele>732</ele>
        <time>2020-05-22T15:21:34Z</time>
      </trkpt>
      <trkpt lat="47.11606" lon="6.43791">
        <ele>732.4</ele>
        <time>2020-05-22T15:21:35Z</time>
      </trkpt>
      <trkpt lat="47.11603" lon="6.43792">
        <ele>732.4</ele>
        <time>2020-05-22T15:21:36Z</time>
      </trkpt>
      <trkpt lat="47.116" lon="6.43792">
        <ele>732.4</ele>
        <time>2020-05-22T15:21:37Z</time>
      </trkpt>
      <trkpt lat="47.11597" lon="6.43793">
        <ele>732.4</ele>
        <time>2020-05-22T15:21:38Z</time>
      </trkpt>
      <trkpt lat="47.11594" lon="6.43794">
        <ele>732.4</ele>
        <time>2020-05-22T15:21:39Z</time>
      </trkpt>
      <trkpt lat="47.11591" lon="6.43795">
        <ele>732.4</ele>
        <time>2020-05-22T15:21:40Z</time>
      </trkpt>
      <trkpt lat="47.11588" lon="6.43796">
        <ele>732.4</ele>
        <time>2020-05-22T15:21:41Z</time>
      </trkpt>
      <trkpt lat="47.11584" lon="6.43796">
        <ele>732.6</ele>
        <time>2020-05-22T15:21:42Z</time>
      </trkpt>
      <trkpt lat="47.11581" lon="6.43797">
        <ele>732.6</ele>
        <time>2020-05-22T15:21:43Z</time>
      </trkpt>
      <trkpt lat="47.11578" lon="6.43797">
        <ele>732.6</ele>
        <time>2020-05-22T15:21:44Z</time>
      </trkpt>
      <trkpt lat="47.11575" lon="6.43798">
        <ele>732.8</ele>
        <time>2020-05-22T15:21:45Z</time>
      </trkpt>
      <trkpt lat="47.11572" lon="6.43799">
        <ele>732.8</ele>
        <time>2020-05-22T15:21:46Z</time>
      </trkpt>
      <trkpt lat="47.11569" lon="6.43799">
        <ele>732.8</ele>
        <time>2020-05-22T15:21:47Z</time>
      </trkpt>
      <trkpt lat="47.11565" lon="6.438">
        <ele>733.2</ele>
        <time>2020-05-22T15:21:48Z</time>
      </trkpt>
      <trkpt lat="47.11562" lon="6.438">
        <ele>733.2</ele>
        <time>2020-05-22T15:21:49Z</time>
      </trkpt>
      <trkpt lat="47.11559" lon="6.438">
        <ele>733.2</ele>
        <time>2020-05-22T15:21:50Z</time>
      </trkpt>
      <trkpt lat="47.11556" lon="6.43801">
        <ele>733.2</ele>
        <time>2020-05-22T15:21:51Z</time>
      </trkpt>
      <trkpt lat="47.11553" lon="6.43801">
        <ele>733.4</ele>
        <time>2020-05-22T15:21:52Z</time>
      </trkpt>
      <trkpt lat="47.11549" lon="6.43801">
        <ele>733.4</ele>
        <time>2020-05-22T15:21:53Z</time>
      </trkpt>
      <trkpt lat="47.11547" lon="6.438">
        <ele>733.4</ele>
        <time>2020-05-22T15:21:54Z</time>
      </trkpt>
      <trkpt lat="47.11543" lon="6.438">
        <ele>733.4</ele>
        <time>2020-05-22T15:21:55Z</time>
      </trkpt>
      <trkpt lat="47.1154" lon="6.43801">
        <ele>733.6</ele>
        <time>2020-05-22T15:21:56Z</time>
      </trkpt>
      <trkpt lat="47.11537" lon="6.43801">
        <ele>733.6</ele>
        <time>2020-05-22T15:21:57Z</time>
      </trkpt>
      <trkpt lat="47.11533" lon="6.43802">
        <ele>733.6</ele>
        <time>2020-05-22T15:21:58Z</time>
      </trkpt>
      <trkpt lat="47.1153" lon="6.43803">
        <ele>733.6</ele>
        <time>2020-05-22T15:21:59Z</time>
      </trkpt>
      <trkpt lat="47.11527" lon="6.43804">
        <ele>733.6</ele>
        <time>2020-05-22T15:22:00Z</time>
      </trkpt>
      <trkpt lat="47.11523" lon="6.43806">
        <ele>733.6</ele>
        <time>2020-05-22T15:22:01Z</time>
      </trkpt>
      <trkpt lat="47.1152" lon="6.43808">
        <ele>733.6</ele>
        <time>2020-05-22T15:22:02Z</time>
      </trkpt>
      <trkpt lat="47.11517" lon="6.43809">
        <ele>733.6</ele>
        <time>2020-05-22T15:22:03Z</time>
      </trkpt>
      <trkpt lat="47.11513" lon="6.43811">
        <ele>733.8</ele>
        <time>2020-05-22T15:22:04Z</time>
      </trkpt>
      <trkpt lat="47.1151" lon="6.43812">
        <ele>733.8</ele>
        <time>2020-05-22T15:22:05Z</time>
      </trkpt>
      <trkpt lat="47.11507" lon="6.43814">
        <ele>734</ele>
        <time>2020-05-22T15:22:06Z</time>
      </trkpt>
      <trkpt lat="47.11504" lon="6.43816">
        <ele>734</ele>
        <time>2020-05-22T15:22:07Z</time>
      </trkpt>
      <trkpt lat="47.11502" lon="6.43818">
        <ele>734</ele>
        <time>2020-05-22T15:22:08Z</time>
      </trkpt>
      <trkpt lat="47.11499" lon="6.43821">
        <ele>734.2</ele>
        <time>2020-05-22T15:22:09Z</time>
      </trkpt>
      <trkpt lat="47.11496" lon="6.43823">
        <ele>734.2</ele>
        <time>2020-05-22T15:22:10Z</time>
      </trkpt>
      <trkpt lat="47.11494" lon="6.43825">
        <ele>734.6</ele>
        <time>2020-05-22T15:22:11Z</time>
      </trkpt>
      <trkpt lat="47.11491" lon="6.43828">
        <ele>734.6</ele>
        <time>2020-05-22T15:22:12Z</time>
      </trkpt>
      <trkpt lat="47.11489" lon="6.4383">
        <ele>734.8</ele>
        <time>2020-05-22T15:22:13Z</time>
      </trkpt>
      <trkpt lat="47.11487" lon="6.43832">
        <ele>734.8</ele>
        <time>2020-05-22T15:22:14Z</time>
      </trkpt>
      <trkpt lat="47.11484" lon="6.43835">
        <ele>735</ele>
        <time>2020-05-22T15:22:15Z</time>
      </trkpt>
      <trkpt lat="47.11482" lon="6.43838">
        <ele>735</ele>
        <time>2020-05-22T15:22:16Z</time>
      </trkpt>
      <trkpt lat="47.1148" lon="6.43841">
        <ele>735</ele>
        <time>2020-05-22T15:22:17Z</time>
      </trkpt>
      <trkpt lat="47.11478" lon="6.43844">
        <ele>735.2</ele>
        <time>2020-05-22T15:22:18Z</time>
      </trkpt>
      <trkpt lat="47.11475" lon="6.43848">
        <ele>735.2</ele>
        <time>2020-05-22T15:22:19Z</time>
      </trkpt>
      <trkpt lat="47.11473" lon="6.43851">
        <ele>735.4</ele>
        <time>2020-05-22T15:22:20Z</time>
      </trkpt>
      <trkpt lat="47.11471" lon="6.43855">
        <ele>735.4</ele>
        <time>2020-05-22T15:22:21Z</time>
      </trkpt>
      <trkpt lat="47.11469" lon="6.43858">
        <ele>735.8</ele>
        <time>2020-05-22T15:22:22Z</time>
      </trkpt>
      <trkpt lat="47.11467" lon="6.43862">
        <ele>735.8</ele>
        <time>2020-05-22T15:22:23Z</time>
      </trkpt>
      <trkpt lat="47.11465" lon="6.43866">
        <ele>735.8</ele>
        <time>2020-05-22T15:22:24Z</time>
      </trkpt>
      <trkpt lat="47.11463" lon="6.4387">
        <ele>736</ele>
        <time>2020-05-22T15:22:25Z</time>
      </trkpt>
      <trkpt lat="47.11461" lon="6.43873">
        <ele>736</ele>
        <time>2020-05-22T15:22:26Z</time>
      </trkpt>
      <trkpt lat="47.11459" lon="6.43877">
        <ele>736</ele>
        <time>2020-05-22T15:22:27Z</time>
      </trkpt>
      <trkpt lat="47.11458" lon="6.43881">
        <ele>736</ele>
        <time>2020-05-22T15:22:28Z</time>
      </trkpt>
      <trkpt lat="47.11455" lon="6.43885">
        <ele>736</ele>
        <time>2020-05-22T15:22:29Z</time>
      </trkpt>
      <trkpt lat="47.11454" lon="6.4389">
        <ele>736</ele>
        <time>2020-05-22T15:22:30Z</time>
      </trkpt>
      <trkpt lat="47.11452" lon="6.43894">
        <ele>736</ele>
        <time>2020-05-22T15:22:31Z</time>
      </trkpt>
      <trkpt lat="47.1145" lon="6.43898">
        <ele>736</ele>
        <time>2020-05-22T15:22:32Z</time>
      </trkpt>
      <trkpt lat="47.11448" lon="6.43903">
        <ele>736</ele>
        <time>2020-05-22T15:22:33Z</time>
      </trkpt>
      <trkpt lat="47.11446" lon="6.43908">
        <ele>736</ele>
        <time>2020-05-22T15:22:34Z</time>
      </trkpt>
      <trkpt lat="47.11444" lon="6.43912">
        <ele>736</ele>
        <time>2020-05-22T15:22:35Z</time>
      </trkpt>
      <trkpt lat="47.11442" lon="6.43917">
        <ele>736</ele>
        <time>2020-05-22T15:22:36Z</time>
      </trkpt>
      <trkpt lat="47.11439" lon="6.43921">
        <ele>736</ele>
        <time>2020-05-22T15:22:37Z</time>
      </trkpt>
      <trkpt lat="47.11437" lon="6.43925">
        <ele>736</ele>
        <time>2020-05-22T15:22:38Z</time>
      </trkpt>
      <trkpt lat="47.11436" lon="6.4393">
        <ele>736</ele>
        <time>2020-05-22T15:22:39Z</time>
      </trkpt>
      <trkpt lat="47.11434" lon="6.43934">
        <ele>736.4</ele>
        <time>2020-05-22T15:22:40Z</time>
      </trkpt>
      <trkpt lat="47.11432" lon="6.43938">
        <ele>736.4</ele>
        <time>2020-05-22T15:22:41Z</time>
      </trkpt>
      <trkpt lat="47.11429" lon="6.43942">
        <ele>736.4</ele>
        <time>2020-05-22T15:22:42Z</time>
      </trkpt>
      <trkpt lat="47.11427" lon="6.43947">
        <ele>736.4</ele>
        <time>2020-05-22T15:22:43Z</time>
      </trkpt>
      <trkpt lat="47.11425" lon="6.43951">
        <ele>736.4</ele>
        <time>2020-05-22T15:22:44Z</time>
      </trkpt>
      <trkpt lat="47.11423" lon="6.43956">
        <ele>736.4</ele>
        <time>2020-05-22T15:22:45Z</time>
      </trkpt>
      <trkpt lat="47.11421" lon="6.4396">
        <ele>736.4</ele>
        <time>2020-05-22T15:22:46Z</time>
      </trkpt>
      <trkpt lat="47.11419" lon="6.43965">
        <ele>736.4</ele>
        <time>2020-05-22T15:22:47Z</time>
      </trkpt>
      <trkpt lat="47.11417" lon="6.4397">
        <ele>736.4</ele>
        <time>2020-05-22T15:22:48Z</time>
      </trkpt>
      <trkpt lat="47.11415" lon="6.43974">
        <ele>736.4</ele>
        <time>2020-05-22T15:22:49Z</time>
      </trkpt>
      <trkpt lat="47.11413" lon="6.43979">
        <ele>736.4</ele>
        <time>2020-05-22T15:22:50Z</time>
      </trkpt>
      <trkpt lat="47.11411" lon="6.43984">
        <ele>736.4</ele>
        <time>2020-05-22T15:22:51Z</time>
      </trkpt>
      <trkpt lat="47.11408" lon="6.43988">
        <ele>736.4</ele>
        <time>2020-05-22T15:22:52Z</time>
      </trkpt>
      <trkpt lat="47.11406" lon="6.43993">
        <ele>736.4</ele>
        <time>2020-05-22T15:22:53Z</time>
      </trkpt>
      <trkpt lat="47.11404" lon="6.43998">
        <ele>736.4</ele>
        <time>2020-05-22T15:22:54Z</time>
      </trkpt>
      <trkpt lat="47.11402" lon="6.44003">
        <ele>736.4</ele>
        <time>2020-05-22T15:22:55Z</time>
      </trkpt>
      <trkpt lat="47.114" lon="6.44007">
        <ele>736.6</ele>
        <time>2020-05-22T15:22:56Z</time>
      </trkpt>
      <trkpt lat="47.11398" lon="6.44012">
        <ele>736.6</ele>
        <time>2020-05-22T15:22:57Z</time>
      </trkpt>
      <trkpt lat="47.11396" lon="6.44016">
        <ele>736.6</ele>
        <time>2020-05-22T15:22:58Z</time>
      </trkpt>
      <trkpt lat="47.11393" lon="6.44021">
        <ele>736.6</ele>
        <time>2020-05-22T15:22:59Z</time>
      </trkpt>
      <trkpt lat="47.11391" lon="6.44025">
        <ele>736.6</ele>
        <time>2020-05-22T15:23:00Z</time>
      </trkpt>
      <trkpt lat="47.11389" lon="6.4403">
        <ele>736.6</ele>
        <time>2020-05-22T15:23:01Z</time>
      </trkpt>
      <trkpt lat="47.11386" lon="6.44034">
        <ele>736.8</ele>
        <time>2020-05-22T15:23:02Z</time>
      </trkpt>
      <trkpt lat="47.11384" lon="6.44039">
        <ele>736.8</ele>
        <time>2020-05-22T15:23:03Z</time>
      </trkpt>
      <trkpt lat="47.11382" lon="6.44044">
        <ele>736.8</ele>
        <time>2020-05-22T15:23:04Z</time>
      </trkpt>
      <trkpt lat="47.11379" lon="6.44049">
        <ele>736.8</ele>
        <time>2020-05-22T15:23:05Z</time>
      </trkpt>
      <trkpt lat="47.11377" lon="6.44054">
        <ele>736.8</ele>
        <time>2020-05-22T15:23:06Z</time>
      </trkpt>
      <trkpt lat="47.11374" lon="6.4406">
        <ele>736.8</ele>
        <time>2020-05-22T15:23:07Z</time>
      </trkpt>
      <trkpt lat="47.11372" lon="6.44065">
        <ele>736.8</ele>
        <time>2020-05-22T15:23:08Z</time>
      </trkpt>
      <trkpt lat="47.11369" lon="6.44071">
        <ele>736.8</ele>
        <time>2020-05-22T15:23:09Z</time>
      </trkpt>
      <trkpt lat="47.11366" lon="6.44077">
        <ele>736.8</ele>
        <time>2020-05-22T15:23:10Z</time>
      </trkpt>
      <trkpt lat="47.11364" lon="6.44082">
        <ele>736.8</ele>
        <time>2020-05-22T15:23:11Z</time>
      </trkpt>
      <trkpt lat="47.11361" lon="6.44088">
        <ele>736.8</ele>
        <time>2020-05-22T15:23:12Z</time>
      </trkpt>
      <trkpt lat="47.11358" lon="6.44094">
        <ele>736.8</ele>
        <time>2020-05-22T15:23:13Z</time>
      </trkpt>
      <trkpt lat="47.11355" lon="6.441">
        <ele>737.2</ele>
        <time>2020-05-22T15:23:14Z</time>
      </trkpt>
      <trkpt lat="47.11352" lon="6.44106">
        <ele>737.2</ele>
        <time>2020-05-22T15:23:15Z</time>
      </trkpt>
      <trkpt lat="47.11349" lon="6.44112">
        <ele>737.2</ele>
        <time>2020-05-22T15:23:16Z</time>
      </trkpt>
      <trkpt lat="47.11346" lon="6.44117">
        <ele>737.2</ele>
        <time>2020-05-22T15:23:17Z</time>
      </trkpt>
      <trkpt lat="47.11346" lon="6.44117">
        <ele>737.2</ele>
        <time>2020-05-22T15:23:18Z</time>
      </trkpt>
      <trkpt lat="47.11341" lon="6.44129">
        <ele>737.4</ele>
        <time>2020-05-22T15:23:19Z</time>
      </trkpt>
      <trkpt lat="47.11339" lon="6.44134">
        <ele>737.4</ele>
        <time>2020-05-22T15:23:20Z</time>
      </trkpt>
      <trkpt lat="47.11336" lon="6.44139">
        <ele>737.4</ele>
        <time>2020-05-22T15:23:21Z</time>
      </trkpt>
      <trkpt lat="47.11333" lon="6.44144">
        <ele>737.6</ele>
        <time>2020-05-22T15:23:22Z</time>
      </trkpt>
      <trkpt lat="47.11331" lon="6.44149">
        <ele>737.6</ele>
        <time>2020-05-22T15:23:23Z</time>
      </trkpt>
      <trkpt lat="47.11328" lon="6.44154">
        <ele>737.6</ele>
        <time>2020-05-22T15:23:24Z</time>
      </trkpt>
      <trkpt lat="47.11326" lon="6.44159">
        <ele>737.6</ele>
        <time>2020-05-22T15:23:25Z</time>
      </trkpt>
      <trkpt lat="47.11323" lon="6.44164">
        <ele>737.8</ele>
        <time>2020-05-22T15:23:26Z</time>
      </trkpt>
      <trkpt lat="47.11321" lon="6.44169">
        <ele>737.8</ele>
        <time>2020-05-22T15:23:27Z</time>
      </trkpt>
      <trkpt lat="47.11318" lon="6.44174">
        <ele>738.2</ele>
        <time>2020-05-22T15:23:28Z</time>
      </trkpt>
      <trkpt lat="47.11316" lon="6.44179">
        <ele>738.2</ele>
        <time>2020-05-22T15:23:29Z</time>
      </trkpt>
      <trkpt lat="47.11313" lon="6.44184">
        <ele>738.2</ele>
        <time>2020-05-22T15:23:30Z</time>
      </trkpt>
      <trkpt lat="47.1131" lon="6.44189">
        <ele>738.4</ele>
        <time>2020-05-22T15:23:31Z</time>
      </trkpt>
      <trkpt lat="47.11308" lon="6.44193">
        <ele>738.4</ele>
        <time>2020-05-22T15:23:32Z</time>
      </trkpt>
      <trkpt lat="47.11305" lon="6.44198">
        <ele>738.6</ele>
        <time>2020-05-22T15:23:33Z</time>
      </trkpt>
      <trkpt lat="47.11302" lon="6.44202">
        <ele>738.6</ele>
        <time>2020-05-22T15:23:34Z</time>
      </trkpt>
      <trkpt lat="47.113" lon="6.44206">
        <ele>738.6</ele>
        <time>2020-05-22T15:23:35Z</time>
      </trkpt>
      <trkpt lat="47.11297" lon="6.44209">
        <ele>738.8</ele>
        <time>2020-05-22T15:23:36Z</time>
      </trkpt>
      <trkpt lat="47.11295" lon="6.44212">
        <ele>738.8</ele>
        <time>2020-05-22T15:23:37Z</time>
      </trkpt>
      <trkpt lat="47.11292" lon="6.44216">
        <ele>738.8</ele>
        <time>2020-05-22T15:23:38Z</time>
      </trkpt>
      <trkpt lat="47.1129" lon="6.44219">
        <ele>739.2</ele>
        <time>2020-05-22T15:23:39Z</time>
      </trkpt>
      <trkpt lat="47.11289" lon="6.44222">
        <ele>739.4</ele>
        <time>2020-05-22T15:23:40Z</time>
      </trkpt>
      <trkpt lat="47.11287" lon="6.44225">
        <ele>739.4</ele>
        <time>2020-05-22T15:23:41Z</time>
      </trkpt>
      <trkpt lat="47.11285" lon="6.44228">
        <ele>739.8</ele>
        <time>2020-05-22T15:23:42Z</time>
      </trkpt>
      <trkpt lat="47.11283" lon="6.44231">
        <ele>740</ele>
        <time>2020-05-22T15:23:43Z</time>
      </trkpt>
      <trkpt lat="47.11282" lon="6.44233">
        <ele>740</ele>
        <time>2020-05-22T15:23:44Z</time>
      </trkpt>
      <trkpt lat="47.1128" lon="6.44236">
        <ele>740.2</ele>
        <time>2020-05-22T15:23:45Z</time>
      </trkpt>
      <trkpt lat="47.11279" lon="6.44239">
        <ele>740.2</ele>
        <time>2020-05-22T15:23:46Z</time>
      </trkpt>
      <trkpt lat="47.11277" lon="6.44241">
        <ele>740.6</ele>
        <time>2020-05-22T15:23:47Z</time>
      </trkpt>
      <trkpt lat="47.11275" lon="6.44244">
        <ele>740.6</ele>
        <time>2020-05-22T15:23:48Z</time>
      </trkpt>
      <trkpt lat="47.11274" lon="6.44247">
        <ele>740.8</ele>
        <time>2020-05-22T15:23:49Z</time>
      </trkpt>
      <trkpt lat="47.11272" lon="6.4425">
        <ele>740.8</ele>
        <time>2020-05-22T15:23:50Z</time>
      </trkpt>
      <trkpt lat="47.1127" lon="6.44252">
        <ele>740.8</ele>
        <time>2020-05-22T15:23:51Z</time>
      </trkpt>
      <trkpt lat="47.11268" lon="6.44255">
        <ele>740.8</ele>
        <time>2020-05-22T15:23:52Z</time>
      </trkpt>
      <trkpt lat="47.11267" lon="6.44258">
        <ele>740.8</ele>
        <time>2020-05-22T15:23:53Z</time>
      </trkpt>
      <trkpt lat="47.11265" lon="6.4426">
        <ele>740.8</ele>
        <time>2020-05-22T15:23:54Z</time>
      </trkpt>
      <trkpt lat="47.11263" lon="6.44263">
        <ele>740.8</ele>
        <time>2020-05-22T15:23:55Z</time>
      </trkpt>
      <trkpt lat="47.11262" lon="6.44266">
        <ele>741</ele>
        <time>2020-05-22T15:23:56Z</time>
      </trkpt>
      <trkpt lat="47.1126" lon="6.44269">
        <ele>741</ele>
        <time>2020-05-22T15:23:57Z</time>
      </trkpt>
      <trkpt lat="47.11258" lon="6.44272">
        <ele>741</ele>
        <time>2020-05-22T15:23:58Z</time>
      </trkpt>
      <trkpt lat="47.11256" lon="6.44276">
        <ele>741</ele>
        <time>2020-05-22T15:23:59Z</time>
      </trkpt>
      <trkpt lat="47.11254" lon="6.44279">
        <ele>741</ele>
        <time>2020-05-22T15:24:00Z</time>
      </trkpt>
      <trkpt lat="47.11252" lon="6.44283">
        <ele>741</ele>
        <time>2020-05-22T15:24:01Z</time>
      </trkpt>
      <trkpt lat="47.11249" lon="6.44287">
        <ele>741</ele>
        <time>2020-05-22T15:24:02Z</time>
      </trkpt>
      <trkpt lat="47.11247" lon="6.44291">
        <ele>741</ele>
        <time>2020-05-22T15:24:03Z</time>
      </trkpt>
      <trkpt lat="47.11245" lon="6.44295">
        <ele>741</ele>
        <time>2020-05-22T15:24:04Z</time>
      </trkpt>
      <trkpt lat="47.11242" lon="6.44299">
        <ele>741.4</ele>
        <time>2020-05-22T15:24:05Z</time>
      </trkpt>
      <trkpt lat="47.11239" lon="6.44302">
        <ele>741.4</ele>
        <time>2020-05-22T15:24:06Z</time>
      </trkpt>
      <trkpt lat="47.11237" lon="6.44306">
        <ele>741.4</ele>
        <time>2020-05-22T15:24:07Z</time>
      </trkpt>
      <trkpt lat="47.11234" lon="6.4431">
        <ele>741.4</ele>
        <time>2020-05-22T15:24:08Z</time>
      </trkpt>
      <trkpt lat="47.11232" lon="6.44314">
        <ele>741.4</ele>
        <time>2020-05-22T15:24:09Z</time>
      </trkpt>
      <trkpt lat="47.11229" lon="6.44317">
        <ele>741.4</ele>
        <time>2020-05-22T15:24:10Z</time>
      </trkpt>
      <trkpt lat="47.11226" lon="6.44321">
        <ele>741.6</ele>
        <time>2020-05-22T15:24:11Z</time>
      </trkpt>
      <trkpt lat="47.11224" lon="6.44325">
        <ele>741.6</ele>
        <time>2020-05-22T15:24:12Z</time>
      </trkpt>
      <trkpt lat="47.11221" lon="6.44329">
        <ele>741.6</ele>
        <time>2020-05-22T15:24:13Z</time>
      </trkpt>
      <trkpt lat="47.11219" lon="6.44333">
        <ele>741.6</ele>
        <time>2020-05-22T15:24:14Z</time>
      </trkpt>
      <trkpt lat="47.11216" lon="6.44337">
        <ele>741.6</ele>
        <time>2020-05-22T15:24:15Z</time>
      </trkpt>
      <trkpt lat="47.11213" lon="6.44341">
        <ele>741.6</ele>
        <time>2020-05-22T15:24:16Z</time>
      </trkpt>
      <trkpt lat="47.1121" lon="6.44345">
        <ele>741.6</ele>
        <time>2020-05-22T15:24:17Z</time>
      </trkpt>
      <trkpt lat="47.11207" lon="6.4435">
        <ele>741.6</ele>
        <time>2020-05-22T15:24:18Z</time>
      </trkpt>
      <trkpt lat="47.11204" lon="6.44354">
        <ele>741.6</ele>
        <time>2020-05-22T15:24:19Z</time>
      </trkpt>
      <trkpt lat="47.11202" lon="6.44358">
        <ele>741.6</ele>
        <time>2020-05-22T15:24:20Z</time>
      </trkpt>
      <trkpt lat="47.11199" lon="6.44362">
        <ele>741.6</ele>
        <time>2020-05-22T15:24:21Z</time>
      </trkpt>
      <trkpt lat="47.11196" lon="6.44366">
        <ele>741.6</ele>
        <time>2020-05-22T15:24:22Z</time>
      </trkpt>
      <trkpt lat="47.11194" lon="6.4437">
        <ele>741.6</ele>
        <time>2020-05-22T15:24:23Z</time>
      </trkpt>
      <trkpt lat="47.11191" lon="6.44374">
        <ele>741.6</ele>
        <time>2020-05-22T15:24:24Z</time>
      </trkpt>
      <trkpt lat="47.11189" lon="6.44378">
        <ele>741.6</ele>
        <time>2020-05-22T15:24:25Z</time>
      </trkpt>
      <trkpt lat="47.11186" lon="6.44382">
        <ele>741.6</ele>
        <time>2020-05-22T15:24:26Z</time>
      </trkpt>
      <trkpt lat="47.11184" lon="6.44386">
        <ele>741.6</ele>
        <time>2020-05-22T15:24:27Z</time>
      </trkpt>
      <trkpt lat="47.11181" lon="6.44389">
        <ele>741.8</ele>
        <time>2020-05-22T15:24:28Z</time>
      </trkpt>
      <trkpt lat="47.11179" lon="6.44393">
        <ele>741.8</ele>
        <time>2020-05-22T15:24:29Z</time>
      </trkpt>
      <trkpt lat="47.11177" lon="6.44396">
        <ele>741.8</ele>
        <time>2020-05-22T15:24:30Z</time>
      </trkpt>
      <trkpt lat="47.11175" lon="6.444">
        <ele>741.8</ele>
        <time>2020-05-22T15:24:31Z</time>
      </trkpt>
      <trkpt lat="47.11173" lon="6.44403">
        <ele>742</ele>
        <time>2020-05-22T15:24:32Z</time>
      </trkpt>
      <trkpt lat="47.11171" lon="6.44406">
        <ele>742</ele>
        <time>2020-05-22T15:24:33Z</time>
      </trkpt>
      <trkpt lat="47.11169" lon="6.44409">
        <ele>742.2</ele>
        <time>2020-05-22T15:24:34Z</time>
      </trkpt>
      <trkpt lat="47.11167" lon="6.44412">
        <ele>742.2</ele>
        <time>2020-05-22T15:24:35Z</time>
      </trkpt>
      <trkpt lat="47.11165" lon="6.44416">
        <ele>742.2</ele>
        <time>2020-05-22T15:24:36Z</time>
      </trkpt>
      <trkpt lat="47.11163" lon="6.44419">
        <ele>742.4</ele>
        <time>2020-05-22T15:24:37Z</time>
      </trkpt>
      <trkpt lat="47.11161" lon="6.44423">
        <ele>742.4</ele>
        <time>2020-05-22T15:24:38Z</time>
      </trkpt>
      <trkpt lat="47.11159" lon="6.44426">
        <ele>742.6</ele>
        <time>2020-05-22T15:24:39Z</time>
      </trkpt>
      <trkpt lat="47.11157" lon="6.4443">
        <ele>742.6</ele>
        <time>2020-05-22T15:24:40Z</time>
      </trkpt>
      <trkpt lat="47.11155" lon="6.44433">
        <ele>742.6</ele>
        <time>2020-05-22T15:24:41Z</time>
      </trkpt>
      <trkpt lat="47.11152" lon="6.44437">
        <ele>742.6</ele>
        <time>2020-05-22T15:24:42Z</time>
      </trkpt>
      <trkpt lat="47.11149" lon="6.4444">
        <ele>742.6</ele>
        <time>2020-05-22T15:24:43Z</time>
      </trkpt>
      <trkpt lat="47.11147" lon="6.44444">
        <ele>742.6</ele>
        <time>2020-05-22T15:24:44Z</time>
      </trkpt>
      <trkpt lat="47.11145" lon="6.44447">
        <ele>742.6</ele>
        <time>2020-05-22T15:24:45Z</time>
      </trkpt>
      <trkpt lat="47.11143" lon="6.44451">
        <ele>742.8</ele>
        <time>2020-05-22T15:24:46Z</time>
      </trkpt>
      <trkpt lat="47.1114" lon="6.44455">
        <ele>742.8</ele>
        <time>2020-05-22T15:24:47Z</time>
      </trkpt>
      <trkpt lat="47.11138" lon="6.44459">
        <ele>742.8</ele>
        <time>2020-05-22T15:24:48Z</time>
      </trkpt>
      <trkpt lat="47.11136" lon="6.44462">
        <ele>743</ele>
        <time>2020-05-22T15:24:49Z</time>
      </trkpt>
      <trkpt lat="47.11134" lon="6.44466">
        <ele>743</ele>
        <time>2020-05-22T15:24:50Z</time>
      </trkpt>
      <trkpt lat="47.11132" lon="6.4447">
        <ele>743</ele>
        <time>2020-05-22T15:24:51Z</time>
      </trkpt>
      <trkpt lat="47.11129" lon="6.44473">
        <ele>743</ele>
        <time>2020-05-22T15:24:52Z</time>
      </trkpt>
      <trkpt lat="47.11127" lon="6.44477">
        <ele>743.2</ele>
        <time>2020-05-22T15:24:53Z</time>
      </trkpt>
      <trkpt lat="47.11125" lon="6.4448">
        <ele>743.2</ele>
        <time>2020-05-22T15:24:54Z</time>
      </trkpt>
      <trkpt lat="47.11123" lon="6.44483">
        <ele>743.2</ele>
        <time>2020-05-22T15:24:55Z</time>
      </trkpt>
      <trkpt lat="47.1112" lon="6.44487">
        <ele>743.2</ele>
        <time>2020-05-22T15:24:56Z</time>
      </trkpt>
      <trkpt lat="47.11118" lon="6.44491">
        <ele>743.2</ele>
        <time>2020-05-22T15:24:57Z</time>
      </trkpt>
      <trkpt lat="47.11116" lon="6.44494">
        <ele>743.2</ele>
        <time>2020-05-22T15:24:58Z</time>
      </trkpt>
      <trkpt lat="47.11113" lon="6.44498">
        <ele>743.4</ele>
        <time>2020-05-22T15:24:59Z</time>
      </trkpt>
      <trkpt lat="47.11111" lon="6.44501">
        <ele>743.4</ele>
        <time>2020-05-22T15:25:00Z</time>
      </trkpt>
      <trkpt lat="47.11109" lon="6.44505">
        <ele>743.6</ele>
        <time>2020-05-22T15:25:01Z</time>
      </trkpt>
      <trkpt lat="47.11107" lon="6.44509">
        <ele>743.6</ele>
        <time>2020-05-22T15:25:02Z</time>
      </trkpt>
      <trkpt lat="47.11105" lon="6.44513">
        <ele>744</ele>
        <time>2020-05-22T15:25:03Z</time>
      </trkpt>
      <trkpt lat="47.11102" lon="6.44516">
        <ele>744</ele>
        <time>2020-05-22T15:25:04Z</time>
      </trkpt>
      <trkpt lat="47.111" lon="6.44519">
        <ele>744.2</ele>
        <time>2020-05-22T15:25:05Z</time>
      </trkpt>
      <trkpt lat="47.11098" lon="6.44522">
        <ele>744.2</ele>
        <time>2020-05-22T15:25:06Z</time>
      </trkpt>
      <trkpt lat="47.11096" lon="6.44525">
        <ele>744.2</ele>
        <time>2020-05-22T15:25:07Z</time>
      </trkpt>
      <trkpt lat="47.11094" lon="6.44528">
        <ele>744.6</ele>
        <time>2020-05-22T15:25:08Z</time>
      </trkpt>
      <trkpt lat="47.11092" lon="6.44531">
        <ele>744.6</ele>
        <time>2020-05-22T15:25:09Z</time>
      </trkpt>
      <trkpt lat="47.1109" lon="6.44534">
        <ele>744.8</ele>
        <time>2020-05-22T15:25:10Z</time>
      </trkpt>
      <trkpt lat="47.11088" lon="6.44537">
        <ele>744.8</ele>
        <time>2020-05-22T15:25:11Z</time>
      </trkpt>
      <trkpt lat="47.11086" lon="6.4454">
        <ele>745.2</ele>
        <time>2020-05-22T15:25:12Z</time>
      </trkpt>
      <trkpt lat="47.11085" lon="6.44543">
        <ele>745.2</ele>
        <time>2020-05-22T15:25:13Z</time>
      </trkpt>
      <trkpt lat="47.11083" lon="6.44545">
        <ele>745.4</ele>
        <time>2020-05-22T15:25:14Z</time>
      </trkpt>
      <trkpt lat="47.11081" lon="6.44548">
        <ele>745.4</ele>
        <time>2020-05-22T15:25:15Z</time>
      </trkpt>
      <trkpt lat="47.1108" lon="6.44551">
        <ele>745.8</ele>
        <time>2020-05-22T15:25:16Z</time>
      </trkpt>
      <trkpt lat="47.11078" lon="6.44554">
        <ele>745.8</ele>
        <time>2020-05-22T15:25:17Z</time>
      </trkpt>
      <trkpt lat="47.11077" lon="6.44557">
        <ele>746</ele>
        <time>2020-05-22T15:25:18Z</time>
      </trkpt>
      <trkpt lat="47.11075" lon="6.4456">
        <ele>746.2</ele>
        <time>2020-05-22T15:25:19Z</time>
      </trkpt>
      <trkpt lat="47.11074" lon="6.44563">
        <ele>746.2</ele>
        <time>2020-05-22T15:25:20Z</time>
      </trkpt>
      <trkpt lat="47.11073" lon="6.44566">
        <ele>746.4</ele>
        <time>2020-05-22T15:25:21Z</time>
      </trkpt>
      <trkpt lat="47.11071" lon="6.44569">
        <ele>746.4</ele>
        <time>2020-05-22T15:25:22Z</time>
      </trkpt>
      <trkpt lat="47.1107" lon="6.44572">
        <ele>746.6</ele>
        <time>2020-05-22T15:25:23Z</time>
      </trkpt>
      <trkpt lat="47.11069" lon="6.44575">
        <ele>746.6</ele>
        <time>2020-05-22T15:25:24Z</time>
      </trkpt>
      <trkpt lat="47.11067" lon="6.44578">
        <ele>746.6</ele>
        <time>2020-05-22T15:25:25Z</time>
      </trkpt>
      <trkpt lat="47.11066" lon="6.4458">
        <ele>747</ele>
        <time>2020-05-22T15:25:26Z</time>
      </trkpt>
      <trkpt lat="47.11065" lon="6.44583">
        <ele>747</ele>
        <time>2020-05-22T15:25:27Z</time>
      </trkpt>
      <trkpt lat="47.11065" lon="6.44586">
        <ele>747.2</ele>
        <time>2020-05-22T15:25:28Z</time>
      </trkpt>
      <trkpt lat="47.11064" lon="6.44589">
        <ele>747.2</ele>
        <time>2020-05-22T15:25:29Z</time>
      </trkpt>
      <trkpt lat="47.11064" lon="6.44592">
        <ele>747.4</ele>
        <time>2020-05-22T15:25:30Z</time>
      </trkpt>
      <trkpt lat="47.11063" lon="6.44594">
        <ele>747.4</ele>
        <time>2020-05-22T15:25:31Z</time>
      </trkpt>
      <trkpt lat="47.11062" lon="6.44597">
        <ele>747.4</ele>
        <time>2020-05-22T15:25:32Z</time>
      </trkpt>
      <trkpt lat="47.11062" lon="6.446">
        <ele>747.8</ele>
        <time>2020-05-22T15:25:33Z</time>
      </trkpt>
      <trkpt lat="47.11062" lon="6.44604">
        <ele>747.8</ele>
        <time>2020-05-22T15:25:34Z</time>
      </trkpt>
      <trkpt lat="47.11062" lon="6.44608">
        <ele>747.8</ele>
        <time>2020-05-22T15:25:35Z</time>
      </trkpt>
      <trkpt lat="47.11062" lon="6.44611">
        <ele>748</ele>
        <time>2020-05-22T15:25:36Z</time>
      </trkpt>
      <trkpt lat="47.11062" lon="6.44615">
        <ele>748</ele>
        <time>2020-05-22T15:25:37Z</time>
      </trkpt>
      <trkpt lat="47.11062" lon="6.44618">
        <ele>748.2</ele>
        <time>2020-05-22T15:25:38Z</time>
      </trkpt>
      <trkpt lat="47.11063" lon="6.44622">
        <ele>748.2</ele>
        <time>2020-05-22T15:25:39Z</time>
      </trkpt>
      <trkpt lat="47.11063" lon="6.44625">
        <ele>748.2</ele>
        <time>2020-05-22T15:25:40Z</time>
      </trkpt>
      <trkpt lat="47.11063" lon="6.44629">
        <ele>748.6</ele>
        <time>2020-05-22T15:25:41Z</time>
      </trkpt>
      <trkpt lat="47.11064" lon="6.44633">
        <ele>748.6</ele>
        <time>2020-05-22T15:25:42Z</time>
      </trkpt>
      <trkpt lat="47.11064" lon="6.44636">
        <ele>748.6</ele>
        <time>2020-05-22T15:25:43Z</time>
      </trkpt>
      <trkpt lat="47.11065" lon="6.4464">
        <ele>748.8</ele>
        <time>2020-05-22T15:25:44Z</time>
      </trkpt>
      <trkpt lat="47.11066" lon="6.44643">
        <ele>748.8</ele>
        <time>2020-05-22T15:25:45Z</time>
      </trkpt>
      <trkpt lat="47.11066" lon="6.44647">
        <ele>748.8</ele>
        <time>2020-05-22T15:25:46Z</time>
      </trkpt>
      <trkpt lat="47.11067" lon="6.4465">
        <ele>749</ele>
        <time>2020-05-22T15:25:47Z</time>
      </trkpt>
      <trkpt lat="47.11068" lon="6.44653">
        <ele>749</ele>
        <time>2020-05-22T15:25:48Z</time>
      </trkpt>
      <trkpt lat="47.11069" lon="6.44656">
        <ele>749</ele>
        <time>2020-05-22T15:25:49Z</time>
      </trkpt>
      <trkpt lat="47.11071" lon="6.44659">
        <ele>749.2</ele>
        <time>2020-05-22T15:25:50Z</time>
      </trkpt>
      <trkpt lat="47.11072" lon="6.44662">
        <ele>749.2</ele>
        <time>2020-05-22T15:25:51Z</time>
      </trkpt>
      <trkpt lat="47.11073" lon="6.44665">
        <ele>749.2</ele>
        <time>2020-05-22T15:25:52Z</time>
      </trkpt>
      <trkpt lat="47.11075" lon="6.44668">
        <ele>749.4</ele>
        <time>2020-05-22T15:25:53Z</time>
      </trkpt>
      <trkpt lat="47.11076" lon="6.44671">
        <ele>749.4</ele>
        <time>2020-05-22T15:25:54Z</time>
      </trkpt>
      <trkpt lat="47.11077" lon="6.44674">
        <ele>749.4</ele>
        <time>2020-05-22T15:25:55Z</time>
      </trkpt>
      <trkpt lat="47.11078" lon="6.44677">
        <ele>749.8</ele>
        <time>2020-05-22T15:25:56Z</time>
      </trkpt>
      <trkpt lat="47.11079" lon="6.44679">
        <ele>749.8</ele>
        <time>2020-05-22T15:25:57Z</time>
      </trkpt>
      <trkpt lat="47.1108" lon="6.44682">
        <ele>750</ele>
        <time>2020-05-22T15:25:58Z</time>
      </trkpt>
      <trkpt lat="47.11081" lon="6.44685">
        <ele>750</ele>
        <time>2020-05-22T15:25:59Z</time>
      </trkpt>
      <trkpt lat="47.11083" lon="6.44688">
        <ele>750.2</ele>
        <time>2020-05-22T15:26:00Z</time>
      </trkpt>
      <trkpt lat="47.11084" lon="6.44691">
        <ele>750.2</ele>
        <time>2020-05-22T15:26:01Z</time>
      </trkpt>
      <trkpt lat="47.11085" lon="6.44694">
        <ele>750.2</ele>
        <time>2020-05-22T15:26:02Z</time>
      </trkpt>
      <trkpt lat="47.11086" lon="6.44698">
        <ele>750.4</ele>
        <time>2020-05-22T15:26:03Z</time>
      </trkpt>
      <trkpt lat="47.11086" lon="6.44702">
        <ele>750.4</ele>
        <time>2020-05-22T15:26:04Z</time>
      </trkpt>
      <trkpt lat="47.11088" lon="6.44706">
        <ele>750.4</ele>
        <time>2020-05-22T15:26:05Z</time>
      </trkpt>
      <trkpt lat="47.11089" lon="6.4471">
        <ele>750.8</ele>
        <time>2020-05-22T15:26:06Z</time>
      </trkpt>
      <trkpt lat="47.11089" lon="6.44714">
        <ele>750.8</ele>
        <time>2020-05-22T15:26:07Z</time>
      </trkpt>
      <trkpt lat="47.11089" lon="6.44718">
        <ele>751</ele>
        <time>2020-05-22T15:26:08Z</time>
      </trkpt>
      <trkpt lat="47.11089" lon="6.44721">
        <ele>751</ele>
        <time>2020-05-22T15:26:09Z</time>
      </trkpt>
      <trkpt lat="47.11089" lon="6.44724">
        <ele>751.2</ele>
        <time>2020-05-22T15:26:10Z</time>
      </trkpt>
      <trkpt lat="47.11089" lon="6.44728">
        <ele>751.6</ele>
        <time>2020-05-22T15:26:11Z</time>
      </trkpt>
      <trkpt lat="47.11088" lon="6.44731">
        <ele>751.6</ele>
        <time>2020-05-22T15:26:12Z</time>
      </trkpt>
      <trkpt lat="47.11087" lon="6.44734">
        <ele>751.8</ele>
        <time>2020-05-22T15:26:13Z</time>
      </trkpt>
      <trkpt lat="47.11087" lon="6.44737">
        <ele>751.8</ele>
        <time>2020-05-22T15:26:14Z</time>
      </trkpt>
      <trkpt lat="47.11086" lon="6.4474">
        <ele>752.2</ele>
        <time>2020-05-22T15:26:15Z</time>
      </trkpt>
      <trkpt lat="47.11085" lon="6.44742">
        <ele>752.2</ele>
        <time>2020-05-22T15:26:16Z</time>
      </trkpt>
      <trkpt lat="47.11084" lon="6.44745">
        <ele>752.6</ele>
        <time>2020-05-22T15:26:17Z</time>
      </trkpt>
      <trkpt lat="47.11082" lon="6.44747">
        <ele>752.6</ele>
        <time>2020-05-22T15:26:18Z</time>
      </trkpt>
      <trkpt lat="47.11081" lon="6.44749">
        <ele>752.8</ele>
        <time>2020-05-22T15:26:19Z</time>
      </trkpt>
      <trkpt lat="47.11079" lon="6.44751">
        <ele>752.8</ele>
        <time>2020-05-22T15:26:20Z</time>
      </trkpt>
      <trkpt lat="47.11077" lon="6.44753">
        <ele>753</ele>
        <time>2020-05-22T15:26:21Z</time>
      </trkpt>
      <trkpt lat="47.11075" lon="6.44753">
        <ele>753</ele>
        <time>2020-05-22T15:26:22Z</time>
      </trkpt>
      <trkpt lat="47.11073" lon="6.44754">
        <ele>753.2</ele>
        <time>2020-05-22T15:26:23Z</time>
      </trkpt>
      <trkpt lat="47.11071" lon="6.44754">
        <ele>753.2</ele>
        <time>2020-05-22T15:26:24Z</time>
      </trkpt>
      <trkpt lat="47.11068" lon="6.44755">
        <ele>753.6</ele>
        <time>2020-05-22T15:26:25Z</time>
      </trkpt>
      <trkpt lat="47.11066" lon="6.44756">
        <ele>753.6</ele>
        <time>2020-05-22T15:26:26Z</time>
      </trkpt>
      <trkpt lat="47.11063" lon="6.44756">
        <ele>753.8</ele>
        <time>2020-05-22T15:26:27Z</time>
      </trkpt>
      <trkpt lat="47.11061" lon="6.44757">
        <ele>753.8</ele>
        <time>2020-05-22T15:26:28Z</time>
      </trkpt>
      <trkpt lat="47.11059" lon="6.44757">
        <ele>754.2</ele>
        <time>2020-05-22T15:26:29Z</time>
      </trkpt>
      <trkpt lat="47.11056" lon="6.44757">
        <ele>754.2</ele>
        <time>2020-05-22T15:26:30Z</time>
      </trkpt>
      <trkpt lat="47.11054" lon="6.44757">
        <ele>754.4</ele>
        <time>2020-05-22T15:26:31Z</time>
      </trkpt>
      <trkpt lat="47.11052" lon="6.44756">
        <ele>754.4</ele>
        <time>2020-05-22T15:26:32Z</time>
      </trkpt>
      <trkpt lat="47.1105" lon="6.44756">
        <ele>754.8</ele>
        <time>2020-05-22T15:26:33Z</time>
      </trkpt>
      <trkpt lat="47.11048" lon="6.44755">
        <ele>754.8</ele>
        <time>2020-05-22T15:26:34Z</time>
      </trkpt>
      <trkpt lat="47.11046" lon="6.44755">
        <ele>754.8</ele>
        <time>2020-05-22T15:26:35Z</time>
      </trkpt>
      <trkpt lat="47.11044" lon="6.44753">
        <ele>755</ele>
        <time>2020-05-22T15:26:36Z</time>
      </trkpt>
      <trkpt lat="47.11042" lon="6.44752">
        <ele>755.2</ele>
        <time>2020-05-22T15:26:37Z</time>
      </trkpt>
      <trkpt lat="47.1104" lon="6.4475">
        <ele>755.2</ele>
        <time>2020-05-22T15:26:38Z</time>
      </trkpt>
      <trkpt lat="47.11038" lon="6.44748">
        <ele>755.4</ele>
        <time>2020-05-22T15:26:39Z</time>
      </trkpt>
      <trkpt lat="47.11036" lon="6.44747">
        <ele>755.4</ele>
        <time>2020-05-22T15:26:40Z</time>
      </trkpt>
      <trkpt lat="47.11035" lon="6.44746">
        <ele>755.8</ele>
        <time>2020-05-22T15:26:41Z</time>
      </trkpt>
      <trkpt lat="47.11033" lon="6.44744">
        <ele>755.8</ele>
        <time>2020-05-22T15:26:42Z</time>
      </trkpt>
      <trkpt lat="47.11032" lon="6.44742">
        <ele>755.8</ele>
        <time>2020-05-22T15:26:43Z</time>
      </trkpt>
      <trkpt lat="47.1103" lon="6.44739">
        <ele>756</ele>
        <time>2020-05-22T15:26:44Z</time>
      </trkpt>
      <trkpt lat="47.11028" lon="6.44737">
        <ele>756</ele>
        <time>2020-05-22T15:26:45Z</time>
      </trkpt>
      <trkpt lat="47.11026" lon="6.44734">
        <ele>756.4</ele>
        <time>2020-05-22T15:26:46Z</time>
      </trkpt>
      <trkpt lat="47.11024" lon="6.44732">
        <ele>756.4</ele>
        <time>2020-05-22T15:26:47Z</time>
      </trkpt>
      <trkpt lat="47.11022" lon="6.4473">
        <ele>756.6</ele>
        <time>2020-05-22T15:26:48Z</time>
      </trkpt>
      <trkpt lat="47.11021" lon="6.44728">
        <ele>756.6</ele>
        <time>2020-05-22T15:26:49Z</time>
      </trkpt>
      <trkpt lat="47.11019" lon="6.44726">
        <ele>757</ele>
        <time>2020-05-22T15:26:50Z</time>
      </trkpt>
      <trkpt lat="47.11017" lon="6.44723">
        <ele>757</ele>
        <time>2020-05-22T15:26:51Z</time>
      </trkpt>
      <trkpt lat="47.11016" lon="6.44721">
        <ele>757.2</ele>
        <time>2020-05-22T15:26:52Z</time>
      </trkpt>
      <trkpt lat="47.11015" lon="6.44719">
        <ele>757.2</ele>
        <time>2020-05-22T15:26:53Z</time>
      </trkpt>
      <trkpt lat="47.11013" lon="6.44716">
        <ele>757.2</ele>
        <time>2020-05-22T15:26:54Z</time>
      </trkpt>
      <trkpt lat="47.11012" lon="6.44714">
        <ele>757.4</ele>
        <time>2020-05-22T15:26:55Z</time>
      </trkpt>
      <trkpt lat="47.11011" lon="6.44712">
        <ele>757.4</ele>
        <time>2020-05-22T15:26:56Z</time>
      </trkpt>
      <trkpt lat="47.1101" lon="6.44709">
        <ele>757.8</ele>
        <time>2020-05-22T15:26:57Z</time>
      </trkpt>
      <trkpt lat="47.11009" lon="6.44706">
        <ele>757.8</ele>
        <time>2020-05-22T15:26:58Z</time>
      </trkpt>
      <trkpt lat="47.11007" lon="6.44704">
        <ele>758</ele>
        <time>2020-05-22T15:26:59Z</time>
      </trkpt>
      <trkpt lat="47.11006" lon="6.44701">
        <ele>758</ele>
        <time>2020-05-22T15:27:00Z</time>
      </trkpt>
      <trkpt lat="47.11005" lon="6.44699">
        <ele>758.2</ele>
        <time>2020-05-22T15:27:01Z</time>
      </trkpt>
      <trkpt lat="47.11004" lon="6.44696">
        <ele>758.2</ele>
        <time>2020-05-22T15:27:02Z</time>
      </trkpt>
      <trkpt lat="47.11003" lon="6.44693">
        <ele>758.4</ele>
        <time>2020-05-22T15:27:03Z</time>
      </trkpt>
      <trkpt lat="47.11002" lon="6.44691">
        <ele>758.4</ele>
        <time>2020-05-22T15:27:04Z</time>
      </trkpt>
      <trkpt lat="47.11001" lon="6.44688">
        <ele>758.6</ele>
        <time>2020-05-22T15:27:05Z</time>
      </trkpt>
      <trkpt lat="47.11" lon="6.44685">
        <ele>758.6</ele>
        <time>2020-05-22T15:27:06Z</time>
      </trkpt>
      <trkpt lat="47.10999" lon="6.44683">
        <ele>759</ele>
        <time>2020-05-22T15:27:07Z</time>
      </trkpt>
      <trkpt lat="47.10998" lon="6.4468">
        <ele>759</ele>
        <time>2020-05-22T15:27:08Z</time>
      </trkpt>
      <trkpt lat="47.10996" lon="6.44678">
        <ele>759</ele>
        <time>2020-05-22T15:27:09Z</time>
      </trkpt>
      <trkpt lat="47.10995" lon="6.44675">
        <ele>759.2</ele>
        <time>2020-05-22T15:27:10Z</time>
      </trkpt>
      <trkpt lat="47.10994" lon="6.44672">
        <ele>759.2</ele>
        <time>2020-05-22T15:27:11Z</time>
      </trkpt>
      <trkpt lat="47.10993" lon="6.44669">
        <ele>759.2</ele>
        <time>2020-05-22T15:27:12Z</time>
      </trkpt>
      <trkpt lat="47.10992" lon="6.44667">
        <ele>759.4</ele>
        <time>2020-05-22T15:27:13Z</time>
      </trkpt>
      <trkpt lat="47.10991" lon="6.44664">
        <ele>759.4</ele>
        <time>2020-05-22T15:27:14Z</time>
      </trkpt>
      <trkpt lat="47.1099" lon="6.44661">
        <ele>759.6</ele>
        <time>2020-05-22T15:27:15Z</time>
      </trkpt>
      <trkpt lat="47.10989" lon="6.44659">
        <ele>759.6</ele>
        <time>2020-05-22T15:27:16Z</time>
      </trkpt>
      <trkpt lat="47.10987" lon="6.44655">
        <ele>760</ele>
        <time>2020-05-22T15:27:17Z</time>
      </trkpt>
      <trkpt lat="47.10986" lon="6.44652">
        <ele>760</ele>
        <time>2020-05-22T15:27:18Z</time>
      </trkpt>
      <trkpt lat="47.10985" lon="6.44649">
        <ele>760.2</ele>
        <time>2020-05-22T15:27:19Z</time>
      </trkpt>
      <trkpt lat="47.10983" lon="6.44646">
        <ele>760.2</ele>
        <time>2020-05-22T15:27:20Z</time>
      </trkpt>
      <trkpt lat="47.10982" lon="6.44643">
        <ele>760.4</ele>
        <time>2020-05-22T15:27:21Z</time>
      </trkpt>
      <trkpt lat="47.10981" lon="6.44641">
        <ele>760.4</ele>
        <time>2020-05-22T15:27:22Z</time>
      </trkpt>
      <trkpt lat="47.10979" lon="6.44638">
        <ele>760.4</ele>
        <time>2020-05-22T15:27:23Z</time>
      </trkpt>
      <trkpt lat="47.10978" lon="6.44635">
        <ele>760.6</ele>
        <time>2020-05-22T15:27:24Z</time>
      </trkpt>
      <trkpt lat="47.10976" lon="6.44632">
        <ele>760.6</ele>
        <time>2020-05-22T15:27:25Z</time>
      </trkpt>
      <trkpt lat="47.10975" lon="6.4463">
        <ele>760.8</ele>
        <time>2020-05-22T15:27:26Z</time>
      </trkpt>
      <trkpt lat="47.10974" lon="6.44627">
        <ele>760.8</ele>
        <time>2020-05-22T15:27:27Z</time>
      </trkpt>
      <trkpt lat="47.10973" lon="6.44625">
        <ele>761.2</ele>
        <time>2020-05-22T15:27:28Z</time>
      </trkpt>
      <trkpt lat="47.10971" lon="6.44622">
        <ele>761.2</ele>
        <time>2020-05-22T15:27:29Z</time>
      </trkpt>
      <trkpt lat="47.1097" lon="6.4462">
        <ele>761.4</ele>
        <time>2020-05-22T15:27:30Z</time>
      </trkpt>
      <trkpt lat="47.10968" lon="6.44617">
        <ele>761.4</ele>
        <time>2020-05-22T15:27:31Z</time>
      </trkpt>
      <trkpt lat="47.10967" lon="6.44615">
        <ele>761.6</ele>
        <time>2020-05-22T15:27:32Z</time>
      </trkpt>
      <trkpt lat="47.10966" lon="6.44612">
        <ele>761.6</ele>
        <time>2020-05-22T15:27:33Z</time>
      </trkpt>
      <trkpt lat="47.10964" lon="6.4461">
        <ele>762</ele>
        <time>2020-05-22T15:27:34Z</time>
      </trkpt>
      <trkpt lat="47.10963" lon="6.44608">
        <ele>762</ele>
        <time>2020-05-22T15:27:35Z</time>
      </trkpt>
      <trkpt lat="47.10962" lon="6.44606">
        <ele>762</ele>
        <time>2020-05-22T15:27:36Z</time>
      </trkpt>
      <trkpt lat="47.10961" lon="6.44604">
        <ele>762</ele>
        <time>2020-05-22T15:27:37Z</time>
      </trkpt>
      <trkpt lat="47.1096" lon="6.44602">
        <ele>762.4</ele>
        <time>2020-05-22T15:27:38Z</time>
      </trkpt>
      <trkpt lat="47.10959" lon="6.446">
        <ele>762.4</ele>
        <time>2020-05-22T15:27:39Z</time>
      </trkpt>
      <trkpt lat="47.10957" lon="6.44597">
        <ele>762.4</ele>
        <time>2020-05-22T15:27:40Z</time>
      </trkpt>
      <trkpt lat="47.10956" lon="6.44595">
        <ele>762.6</ele>
        <time>2020-05-22T15:27:41Z</time>
      </trkpt>
      <trkpt lat="47.10955" lon="6.44593">
        <ele>762.6</ele>
        <time>2020-05-22T15:27:42Z</time>
      </trkpt>
      <trkpt lat="47.10953" lon="6.44591">
        <ele>762.6</ele>
        <time>2020-05-22T15:27:43Z</time>
      </trkpt>
      <trkpt lat="47.10952" lon="6.44588">
        <ele>762.8</ele>
        <time>2020-05-22T15:27:44Z</time>
      </trkpt>
      <trkpt lat="47.10951" lon="6.44586">
        <ele>762.8</ele>
        <time>2020-05-22T15:27:45Z</time>
      </trkpt>
      <trkpt lat="47.1095" lon="6.44584">
        <ele>763</ele>
        <time>2020-05-22T15:27:46Z</time>
      </trkpt>
      <trkpt lat="47.10948" lon="6.44582">
        <ele>763</ele>
        <time>2020-05-22T15:27:47Z</time>
      </trkpt>
      <trkpt lat="47.10947" lon="6.4458">
        <ele>763</ele>
        <time>2020-05-22T15:27:48Z</time>
      </trkpt>
      <trkpt lat="47.10945" lon="6.44578">
        <ele>763.4</ele>
        <time>2020-05-22T15:27:49Z</time>
      </trkpt>
      <trkpt lat="47.10944" lon="6.44575">
        <ele>763.4</ele>
        <time>2020-05-22T15:27:50Z</time>
      </trkpt>
      <trkpt lat="47.10943" lon="6.44573">
        <ele>763.4</ele>
        <time>2020-05-22T15:27:51Z</time>
      </trkpt>
      <trkpt lat="47.10941" lon="6.44571">
        <ele>763.6</ele>
        <time>2020-05-22T15:27:52Z</time>
      </trkpt>
      <trkpt lat="47.1094" lon="6.44568">
        <ele>763.6</ele>
        <time>2020-05-22T15:27:53Z</time>
      </trkpt>
      <trkpt lat="47.10939" lon="6.44566">
        <ele>763.6</ele>
        <time>2020-05-22T15:27:54Z</time>
      </trkpt>
      <trkpt lat="47.10938" lon="6.44564">
        <ele>764</ele>
        <time>2020-05-22T15:27:55Z</time>
      </trkpt>
      <trkpt lat="47.10936" lon="6.44562">
        <ele>764</ele>
        <time>2020-05-22T15:27:56Z</time>
      </trkpt>
      <trkpt lat="47.10935" lon="6.4456">
        <ele>764</ele>
        <time>2020-05-22T15:27:57Z</time>
      </trkpt>
      <trkpt lat="47.10934" lon="6.44558">
        <ele>764</ele>
        <time>2020-05-22T15:27:58Z</time>
      </trkpt>
      <trkpt lat="47.10933" lon="6.44555">
        <ele>764.2</ele>
        <time>2020-05-22T15:27:59Z</time>
      </trkpt>
      <trkpt lat="47.10932" lon="6.44553">
        <ele>764.2</ele>
        <time>2020-05-22T15:28:00Z</time>
      </trkpt>
      <trkpt lat="47.1093" lon="6.44551">
        <ele>764.2</ele>
        <time>2020-05-22T15:28:01Z</time>
      </trkpt>
      <trkpt lat="47.10928" lon="6.44548">
        <ele>764.2</ele>
        <time>2020-05-22T15:28:02Z</time>
      </trkpt>
      <trkpt lat="47.10927" lon="6.44545">
        <ele>764.4</ele>
        <time>2020-05-22T15:28:03Z</time>
      </trkpt>
      <trkpt lat="47.10926" lon="6.44543">
        <ele>764.4</ele>
        <time>2020-05-22T15:28:04Z</time>
      </trkpt>
      <trkpt lat="47.10925" lon="6.4454">
        <ele>764.4</ele>
        <time>2020-05-22T15:28:05Z</time>
      </trkpt>
      <trkpt lat="47.10923" lon="6.44538">
        <ele>764.6</ele>
        <time>2020-05-22T15:28:06Z</time>
      </trkpt>
      <trkpt lat="47.10922" lon="6.44535">
        <ele>764.6</ele>
        <time>2020-05-22T15:28:07Z</time>
      </trkpt>
      <trkpt lat="47.1092" lon="6.44533">
        <ele>764.6</ele>
        <time>2020-05-22T15:28:08Z</time>
      </trkpt>
      <trkpt lat="47.10919" lon="6.44531">
        <ele>764.6</ele>
        <time>2020-05-22T15:28:09Z</time>
      </trkpt>
      <trkpt lat="47.10918" lon="6.44528">
        <ele>765</ele>
        <time>2020-05-22T15:28:10Z</time>
      </trkpt>
      <trkpt lat="47.10916" lon="6.44526">
        <ele>765</ele>
        <time>2020-05-22T15:28:11Z</time>
      </trkpt>
      <trkpt lat="47.10915" lon="6.44524">
        <ele>765.2</ele>
        <time>2020-05-22T15:28:12Z</time>
      </trkpt>
      <trkpt lat="47.10913" lon="6.44521">
        <ele>765.2</ele>
        <time>2020-05-22T15:28:13Z</time>
      </trkpt>
      <trkpt lat="47.10912" lon="6.44519">
        <ele>765.4</ele>
        <time>2020-05-22T15:28:14Z</time>
      </trkpt>
      <trkpt lat="47.1091" lon="6.44517">
        <ele>765.4</ele>
        <time>2020-05-22T15:28:15Z</time>
      </trkpt>
      <trkpt lat="47.10908" lon="6.44516">
        <ele>765.4</ele>
        <time>2020-05-22T15:28:16Z</time>
      </trkpt>
      <trkpt lat="47.10907" lon="6.44514">
        <ele>765.8</ele>
        <time>2020-05-22T15:28:17Z</time>
      </trkpt>
      <trkpt lat="47.10905" lon="6.44513">
        <ele>765.8</ele>
        <time>2020-05-22T15:28:18Z</time>
      </trkpt>
      <trkpt lat="47.10903" lon="6.44511">
        <ele>765.8</ele>
        <time>2020-05-22T15:28:19Z</time>
      </trkpt>
      <trkpt lat="47.10901" lon="6.4451">
        <ele>766</ele>
        <time>2020-05-22T15:28:20Z</time>
      </trkpt>
      <trkpt lat="47.10899" lon="6.44509">
        <ele>766</ele>
        <time>2020-05-22T15:28:21Z</time>
      </trkpt>
      <trkpt lat="47.10897" lon="6.44507">
        <ele>766.2</ele>
        <time>2020-05-22T15:28:22Z</time>
      </trkpt>
      <trkpt lat="47.10895" lon="6.44506">
        <ele>766.2</ele>
        <time>2020-05-22T15:28:23Z</time>
      </trkpt>
      <trkpt lat="47.10893" lon="6.44504">
        <ele>766.4</ele>
        <time>2020-05-22T15:28:24Z</time>
      </trkpt>
      <trkpt lat="47.10891" lon="6.44503">
        <ele>766.4</ele>
        <time>2020-05-22T15:28:25Z</time>
      </trkpt>
      <trkpt lat="47.10889" lon="6.44502">
        <ele>766.4</ele>
        <time>2020-05-22T15:28:26Z</time>
      </trkpt>
      <trkpt lat="47.10887" lon="6.445">
        <ele>766.6</ele>
        <time>2020-05-22T15:28:27Z</time>
      </trkpt>
      <trkpt lat="47.10885" lon="6.44499">
        <ele>766.6</ele>
        <time>2020-05-22T15:28:28Z</time>
      </trkpt>
      <trkpt lat="47.10883" lon="6.44498">
        <ele>766.6</ele>
        <time>2020-05-22T15:28:29Z</time>
      </trkpt>
      <trkpt lat="47.10881" lon="6.44497">
        <ele>766.6</ele>
        <time>2020-05-22T15:28:30Z</time>
      </trkpt>
      <trkpt lat="47.10879" lon="6.44496">
        <ele>766.6</ele>
        <time>2020-05-22T15:28:31Z</time>
      </trkpt>
      <trkpt lat="47.10878" lon="6.44495">
        <ele>766.6</ele>
        <time>2020-05-22T15:28:32Z</time>
      </trkpt>
      <trkpt lat="47.10875" lon="6.44493">
        <ele>766.6</ele>
        <time>2020-05-22T15:28:33Z</time>
      </trkpt>
      <trkpt lat="47.10873" lon="6.44492">
        <ele>766.6</ele>
        <time>2020-05-22T15:28:34Z</time>
      </trkpt>
      <trkpt lat="47.10871" lon="6.4449">
        <ele>766.6</ele>
        <time>2020-05-22T15:28:35Z</time>
      </trkpt>
      <trkpt lat="47.10869" lon="6.44488">
        <ele>766.6</ele>
        <time>2020-05-22T15:28:36Z</time>
      </trkpt>
      <trkpt lat="47.10867" lon="6.44485">
        <ele>766.6</ele>
        <time>2020-05-22T15:28:37Z</time>
      </trkpt>
      <trkpt lat="47.10865" lon="6.44483">
        <ele>767</ele>
        <time>2020-05-22T15:28:38Z</time>
      </trkpt>
      <trkpt lat="47.10863" lon="6.4448">
        <ele>767</ele>
        <time>2020-05-22T15:28:39Z</time>
      </trkpt>
      <trkpt lat="47.10861" lon="6.44478">
        <ele>767</ele>
        <time>2020-05-22T15:28:40Z</time>
      </trkpt>
      <trkpt lat="47.10859" lon="6.44475">
        <ele>767.2</ele>
        <time>2020-05-22T15:28:41Z</time>
      </trkpt>
      <trkpt lat="47.10858" lon="6.44472">
        <ele>767.2</ele>
        <time>2020-05-22T15:28:42Z</time>
      </trkpt>
      <trkpt lat="47.10856" lon="6.44469">
        <ele>767.2</ele>
        <time>2020-05-22T15:28:43Z</time>
      </trkpt>
      <trkpt lat="47.10855" lon="6.44467">
        <ele>767.2</ele>
        <time>2020-05-22T15:28:44Z</time>
      </trkpt>
      <trkpt lat="47.10853" lon="6.44464">
        <ele>767.6</ele>
        <time>2020-05-22T15:28:45Z</time>
      </trkpt>
      <trkpt lat="47.10851" lon="6.44462">
        <ele>767.6</ele>
        <time>2020-05-22T15:28:46Z</time>
      </trkpt>
      <trkpt lat="47.1085" lon="6.44459">
        <ele>767.6</ele>
        <time>2020-05-22T15:28:47Z</time>
      </trkpt>
      <trkpt lat="47.10848" lon="6.44456">
        <ele>767.8</ele>
        <time>2020-05-22T15:28:48Z</time>
      </trkpt>
      <trkpt lat="47.10847" lon="6.44453">
        <ele>767.8</ele>
        <time>2020-05-22T15:28:49Z</time>
      </trkpt>
      <trkpt lat="47.10845" lon="6.4445">
        <ele>767.8</ele>
        <time>2020-05-22T15:28:50Z</time>
      </trkpt>
      <trkpt lat="47.10844" lon="6.44448">
        <ele>768.2</ele>
        <time>2020-05-22T15:28:51Z</time>
      </trkpt>
      <trkpt lat="47.10843" lon="6.44445">
        <ele>768.2</ele>
        <time>2020-05-22T15:28:52Z</time>
      </trkpt>
      <trkpt lat="47.10842" lon="6.44442">
        <ele>768.4</ele>
        <time>2020-05-22T15:28:53Z</time>
      </trkpt>
      <trkpt lat="47.10841" lon="6.44439">
        <ele>768.6</ele>
        <time>2020-05-22T15:28:54Z</time>
      </trkpt>
      <trkpt lat="47.1084" lon="6.44436">
        <ele>768.6</ele>
        <time>2020-05-22T15:28:55Z</time>
      </trkpt>
      <trkpt lat="47.10838" lon="6.44434">
        <ele>768.6</ele>
        <time>2020-05-22T15:28:56Z</time>
      </trkpt>
      <trkpt lat="47.10837" lon="6.44431">
        <ele>769</ele>
        <time>2020-05-22T15:28:57Z</time>
      </trkpt>
      <trkpt lat="47.10836" lon="6.44428">
        <ele>769</ele>
        <time>2020-05-22T15:28:58Z</time>
      </trkpt>
      <trkpt lat="47.10835" lon="6.44425">
        <ele>769.2</ele>
        <time>2020-05-22T15:28:59Z</time>
      </trkpt>
      <trkpt lat="47.10833" lon="6.44422">
        <ele>769.2</ele>
        <time>2020-05-22T15:29:00Z</time>
      </trkpt>
      <trkpt lat="47.10832" lon="6.44419">
        <ele>769.2</ele>
        <time>2020-05-22T15:29:01Z</time>
      </trkpt>
      <trkpt lat="47.10831" lon="6.44417">
        <ele>769.4</ele>
        <time>2020-05-22T15:29:02Z</time>
      </trkpt>
      <trkpt lat="47.1083" lon="6.44414">
        <ele>769.4</ele>
        <time>2020-05-22T15:29:03Z</time>
      </trkpt>
      <trkpt lat="47.10829" lon="6.44411">
        <ele>769.4</ele>
        <time>2020-05-22T15:29:04Z</time>
      </trkpt>
      <trkpt lat="47.10828" lon="6.44408">
        <ele>769.8</ele>
        <time>2020-05-22T15:29:05Z</time>
      </trkpt>
      <trkpt lat="47.10827" lon="6.44406">
        <ele>769.8</ele>
        <time>2020-05-22T15:29:06Z</time>
      </trkpt>
      <trkpt lat="47.10826" lon="6.44403">
        <ele>770</ele>
        <time>2020-05-22T15:29:07Z</time>
      </trkpt>
      <trkpt lat="47.10825" lon="6.44401">
        <ele>770</ele>
        <time>2020-05-22T15:29:08Z</time>
      </trkpt>
      <trkpt lat="47.10824" lon="6.44398">
        <ele>770.4</ele>
        <time>2020-05-22T15:29:09Z</time>
      </trkpt>
      <trkpt lat="47.10824" lon="6.44396">
        <ele>770.4</ele>
        <time>2020-05-22T15:29:10Z</time>
      </trkpt>
      <trkpt lat="47.10823" lon="6.44393">
        <ele>770.6</ele>
        <time>2020-05-22T15:29:11Z</time>
      </trkpt>
      <trkpt lat="47.10822" lon="6.4439">
        <ele>770.6</ele>
        <time>2020-05-22T15:29:12Z</time>
      </trkpt>
      <trkpt lat="47.10821" lon="6.44388">
        <ele>770.8</ele>
        <time>2020-05-22T15:29:13Z</time>
      </trkpt>
      <trkpt lat="47.1082" lon="6.44385">
        <ele>770.8</ele>
        <time>2020-05-22T15:29:14Z</time>
      </trkpt>
      <trkpt lat="47.10819" lon="6.44383">
        <ele>770.8</ele>
        <time>2020-05-22T15:29:15Z</time>
      </trkpt>
      <trkpt lat="47.10818" lon="6.4438">
        <ele>771.2</ele>
        <time>2020-05-22T15:29:16Z</time>
      </trkpt>
      <trkpt lat="47.10817" lon="6.44378">
        <ele>771.2</ele>
        <time>2020-05-22T15:29:17Z</time>
      </trkpt>
      <trkpt lat="47.10816" lon="6.44375">
        <ele>771.4</ele>
        <time>2020-05-22T15:29:18Z</time>
      </trkpt>
      <trkpt lat="47.10815" lon="6.44372">
        <ele>771.4</ele>
        <time>2020-05-22T15:29:19Z</time>
      </trkpt>
      <trkpt lat="47.10814" lon="6.44369">
        <ele>771.6</ele>
        <time>2020-05-22T15:29:20Z</time>
      </trkpt>
      <trkpt lat="47.10813" lon="6.44367">
        <ele>771.6</ele>
        <time>2020-05-22T15:29:21Z</time>
      </trkpt>
      <trkpt lat="47.10812" lon="6.44365">
        <ele>771.8</ele>
        <time>2020-05-22T15:29:22Z</time>
      </trkpt>
      <trkpt lat="47.10811" lon="6.44362">
        <ele>771.8</ele>
        <time>2020-05-22T15:29:23Z</time>
      </trkpt>
      <trkpt lat="47.1081" lon="6.4436">
        <ele>771.8</ele>
        <time>2020-05-22T15:29:24Z</time>
      </trkpt>
      <trkpt lat="47.10809" lon="6.44357">
        <ele>772</ele>
        <time>2020-05-22T15:29:25Z</time>
      </trkpt>
      <trkpt lat="47.10808" lon="6.44355">
        <ele>772</ele>
        <time>2020-05-22T15:29:26Z</time>
      </trkpt>
      <trkpt lat="47.10807" lon="6.44352">
        <ele>772</ele>
        <time>2020-05-22T15:29:27Z</time>
      </trkpt>
      <trkpt lat="47.10806" lon="6.4435">
        <ele>772.4</ele>
        <time>2020-05-22T15:29:28Z</time>
      </trkpt>
      <trkpt lat="47.10805" lon="6.44347">
        <ele>772.4</ele>
        <time>2020-05-22T15:29:29Z</time>
      </trkpt>
      <trkpt lat="47.10804" lon="6.44345">
        <ele>772.4</ele>
        <time>2020-05-22T15:29:30Z</time>
      </trkpt>
      <trkpt lat="47.10803" lon="6.44343">
        <ele>772.6</ele>
        <time>2020-05-22T15:29:31Z</time>
      </trkpt>
      <trkpt lat="47.10802" lon="6.44341">
        <ele>772.6</ele>
        <time>2020-05-22T15:29:32Z</time>
      </trkpt>
      <trkpt lat="47.108" lon="6.44339">
        <ele>772.6</ele>
        <time>2020-05-22T15:29:33Z</time>
      </trkpt>
      <trkpt lat="47.10799" lon="6.44336">
        <ele>772.8</ele>
        <time>2020-05-22T15:29:34Z</time>
      </trkpt>
      <trkpt lat="47.10798" lon="6.44334">
        <ele>772.8</ele>
        <time>2020-05-22T15:29:35Z</time>
      </trkpt>
      <trkpt lat="47.10797" lon="6.44332">
        <ele>772.8</ele>
        <time>2020-05-22T15:29:36Z</time>
      </trkpt>
      <trkpt lat="47.10796" lon="6.4433">
        <ele>773.2</ele>
        <time>2020-05-22T15:29:37Z</time>
      </trkpt>
      <trkpt lat="47.10795" lon="6.44328">
        <ele>773.2</ele>
        <time>2020-05-22T15:29:38Z</time>
      </trkpt>
      <trkpt lat="47.10794" lon="6.44325">
        <ele>773.4</ele>
        <time>2020-05-22T15:29:39Z</time>
      </trkpt>
      <trkpt lat="47.10793" lon="6.44323">
        <ele>773.4</ele>
        <time>2020-05-22T15:29:40Z</time>
      </trkpt>
      <trkpt lat="47.10792" lon="6.4432">
        <ele>773.8</ele>
        <time>2020-05-22T15:29:41Z</time>
      </trkpt>
      <trkpt lat="47.10791" lon="6.44318">
        <ele>773.8</ele>
        <time>2020-05-22T15:29:42Z</time>
      </trkpt>
      <trkpt lat="47.1079" lon="6.44316">
        <ele>773.8</ele>
        <time>2020-05-22T15:29:43Z</time>
      </trkpt>
      <trkpt lat="47.10789" lon="6.44314">
        <ele>774</ele>
        <time>2020-05-22T15:29:44Z</time>
      </trkpt>
      <trkpt lat="47.10788" lon="6.44311">
        <ele>774</ele>
        <time>2020-05-22T15:29:45Z</time>
      </trkpt>
      <trkpt lat="47.10787" lon="6.44309">
        <ele>774.2</ele>
        <time>2020-05-22T15:29:46Z</time>
      </trkpt>
      <trkpt lat="47.10785" lon="6.44307">
        <ele>774.2</ele>
        <time>2020-05-22T15:29:47Z</time>
      </trkpt>
      <trkpt lat="47.10784" lon="6.44305">
        <ele>774.2</ele>
        <time>2020-05-22T15:29:48Z</time>
      </trkpt>
      <trkpt lat="47.10783" lon="6.44303">
        <ele>774.4</ele>
        <time>2020-05-22T15:29:49Z</time>
      </trkpt>
      <trkpt lat="47.10782" lon="6.44301">
        <ele>774.4</ele>
        <time>2020-05-22T15:29:50Z</time>
      </trkpt>
      <trkpt lat="47.1078" lon="6.44299">
        <ele>774.4</ele>
        <time>2020-05-22T15:29:51Z</time>
      </trkpt>
      <trkpt lat="47.10779" lon="6.44297">
        <ele>774.4</ele>
        <time>2020-05-22T15:29:52Z</time>
      </trkpt>
      <trkpt lat="47.10778" lon="6.44294">
        <ele>774.4</ele>
        <time>2020-05-22T15:29:53Z</time>
      </trkpt>
      <trkpt lat="47.10777" lon="6.44292">
        <ele>774.8</ele>
        <time>2020-05-22T15:29:54Z</time>
      </trkpt>
      <trkpt lat="47.10775" lon="6.4429">
        <ele>774.8</ele>
        <time>2020-05-22T15:29:55Z</time>
      </trkpt>
      <trkpt lat="47.10773" lon="6.44288">
        <ele>774.8</ele>
        <time>2020-05-22T15:29:56Z</time>
      </trkpt>
      <trkpt lat="47.10772" lon="6.44286">
        <ele>775</ele>
        <time>2020-05-22T15:29:57Z</time>
      </trkpt>
      <trkpt lat="47.10771" lon="6.44284">
        <ele>775</ele>
        <time>2020-05-22T15:29:58Z</time>
      </trkpt>
      <trkpt lat="47.10769" lon="6.44282">
        <ele>775.2</ele>
        <time>2020-05-22T15:29:59Z</time>
      </trkpt>
      <trkpt lat="47.10767" lon="6.4428">
        <ele>775.2</ele>
        <time>2020-05-22T15:30:00Z</time>
      </trkpt>
      <trkpt lat="47.10766" lon="6.44278">
        <ele>775.4</ele>
        <time>2020-05-22T15:30:01Z</time>
      </trkpt>
      <trkpt lat="47.10764" lon="6.44276">
        <ele>775.4</ele>
        <time>2020-05-22T15:30:02Z</time>
      </trkpt>
      <trkpt lat="47.10763" lon="6.44274">
        <ele>775.6</ele>
        <time>2020-05-22T15:30:03Z</time>
      </trkpt>
      <trkpt lat="47.10761" lon="6.44272">
        <ele>775.6</ele>
        <time>2020-05-22T15:30:04Z</time>
      </trkpt>
      <trkpt lat="47.1076" lon="6.4427">
        <ele>775.6</ele>
        <time>2020-05-22T15:30:05Z</time>
      </trkpt>
      <trkpt lat="47.10758" lon="6.44268">
        <ele>776</ele>
        <time>2020-05-22T15:30:06Z</time>
      </trkpt>
      <trkpt lat="47.10757" lon="6.44266">
        <ele>776</ele>
        <time>2020-05-22T15:30:07Z</time>
      </trkpt>
      <trkpt lat="47.10755" lon="6.44264">
        <ele>776</ele>
        <time>2020-05-22T15:30:08Z</time>
      </trkpt>
      <trkpt lat="47.10754" lon="6.44262">
        <ele>776</ele>
        <time>2020-05-22T15:30:09Z</time>
      </trkpt>
      <trkpt lat="47.10752" lon="6.4426">
        <ele>776.2</ele>
        <time>2020-05-22T15:30:10Z</time>
      </trkpt>
      <trkpt lat="47.10751" lon="6.44258">
        <ele>776.2</ele>
        <time>2020-05-22T15:30:11Z</time>
      </trkpt>
      <trkpt lat="47.10749" lon="6.44256">
        <ele>776.2</ele>
        <time>2020-05-22T15:30:12Z</time>
      </trkpt>
      <trkpt lat="47.10748" lon="6.44254">
        <ele>776.4</ele>
        <time>2020-05-22T15:30:13Z</time>
      </trkpt>
      <trkpt lat="47.10746" lon="6.44252">
        <ele>776.4</ele>
        <time>2020-05-22T15:30:14Z</time>
      </trkpt>
      <trkpt lat="47.10744" lon="6.44249">
        <ele>776.6</ele>
        <time>2020-05-22T15:30:15Z</time>
      </trkpt>
      <trkpt lat="47.10742" lon="6.44247">
        <ele>776.6</ele>
        <time>2020-05-22T15:30:16Z</time>
      </trkpt>
      <trkpt lat="47.10741" lon="6.44245">
        <ele>776.8</ele>
        <time>2020-05-22T15:30:17Z</time>
      </trkpt>
      <trkpt lat="47.10739" lon="6.44243">
        <ele>776.8</ele>
        <time>2020-05-22T15:30:18Z</time>
      </trkpt>
      <trkpt lat="47.10738" lon="6.4424">
        <ele>776.8</ele>
        <time>2020-05-22T15:30:19Z</time>
      </trkpt>
      <trkpt lat="47.10736" lon="6.44238">
        <ele>777.2</ele>
        <time>2020-05-22T15:30:20Z</time>
      </trkpt>
      <trkpt lat="47.10734" lon="6.44235">
        <ele>777.2</ele>
        <time>2020-05-22T15:30:21Z</time>
      </trkpt>
      <trkpt lat="47.10733" lon="6.44233">
        <ele>777.4</ele>
        <time>2020-05-22T15:30:22Z</time>
      </trkpt>
      <trkpt lat="47.10731" lon="6.44231">
        <ele>777.4</ele>
        <time>2020-05-22T15:30:23Z</time>
      </trkpt>
      <trkpt lat="47.1073" lon="6.44228">
        <ele>777.6</ele>
        <time>2020-05-22T15:30:24Z</time>
      </trkpt>
      <trkpt lat="47.10728" lon="6.44226">
        <ele>777.6</ele>
        <time>2020-05-22T15:30:25Z</time>
      </trkpt>
      <trkpt lat="47.10727" lon="6.44223">
        <ele>777.6</ele>
        <time>2020-05-22T15:30:26Z</time>
      </trkpt>
      <trkpt lat="47.10725" lon="6.44221">
        <ele>777.8</ele>
        <time>2020-05-22T15:30:27Z</time>
      </trkpt>
      <trkpt lat="47.10724" lon="6.44219">
        <ele>777.8</ele>
        <time>2020-05-22T15:30:28Z</time>
      </trkpt>
      <trkpt lat="47.10722" lon="6.44217">
        <ele>778.2</ele>
        <time>2020-05-22T15:30:29Z</time>
      </trkpt>
      <trkpt lat="47.10721" lon="6.44214">
        <ele>778.2</ele>
        <time>2020-05-22T15:30:30Z</time>
      </trkpt>
      <trkpt lat="47.1072" lon="6.44212">
        <ele>778.4</ele>
        <time>2020-05-22T15:30:31Z</time>
      </trkpt>
      <trkpt lat="47.10718" lon="6.4421">
        <ele>778.4</ele>
        <time>2020-05-22T15:30:32Z</time>
      </trkpt>
      <trkpt lat="47.10717" lon="6.44208">
        <ele>778.8</ele>
        <time>2020-05-22T15:30:33Z</time>
      </trkpt>
      <trkpt lat="47.10716" lon="6.44205">
        <ele>778.8</ele>
        <time>2020-05-22T15:30:34Z</time>
      </trkpt>
      <trkpt lat="47.10715" lon="6.44203">
        <ele>779</ele>
        <time>2020-05-22T15:30:35Z</time>
      </trkpt>
      <trkpt lat="47.10713" lon="6.44201">
        <ele>779</ele>
        <time>2020-05-22T15:30:36Z</time>
      </trkpt>
      <trkpt lat="47.10712" lon="6.44198">
        <ele>779.2</ele>
        <time>2020-05-22T15:30:37Z</time>
      </trkpt>
      <trkpt lat="47.10711" lon="6.44196">
        <ele>779.2</ele>
        <time>2020-05-22T15:30:38Z</time>
      </trkpt>
      <trkpt lat="47.1071" lon="6.44194">
        <ele>779.6</ele>
        <time>2020-05-22T15:30:39Z</time>
      </trkpt>
      <trkpt lat="47.10708" lon="6.44192">
        <ele>779.6</ele>
        <time>2020-05-22T15:30:40Z</time>
      </trkpt>
      <trkpt lat="47.10707" lon="6.44189">
        <ele>779.6</ele>
        <time>2020-05-22T15:30:41Z</time>
      </trkpt>
      <trkpt lat="47.10706" lon="6.44187">
        <ele>779.8</ele>
        <time>2020-05-22T15:30:42Z</time>
      </trkpt>
      <trkpt lat="47.10705" lon="6.44184">
        <ele>779.8</ele>
        <time>2020-05-22T15:30:43Z</time>
      </trkpt>
      <trkpt lat="47.10703" lon="6.44182">
        <ele>779.8</ele>
        <time>2020-05-22T15:30:44Z</time>
      </trkpt>
      <trkpt lat="47.10702" lon="6.4418">
        <ele>780</ele>
        <time>2020-05-22T15:30:45Z</time>
      </trkpt>
      <trkpt lat="47.10701" lon="6.44178">
        <ele>780</ele>
        <time>2020-05-22T15:30:46Z</time>
      </trkpt>
      <trkpt lat="47.107" lon="6.44175">
        <ele>780.2</ele>
        <time>2020-05-22T15:30:47Z</time>
      </trkpt>
      <trkpt lat="47.10698" lon="6.44173">
        <ele>780.2</ele>
        <time>2020-05-22T15:30:48Z</time>
      </trkpt>
      <trkpt lat="47.10697" lon="6.44171">
        <ele>780.4</ele>
        <time>2020-05-22T15:30:49Z</time>
      </trkpt>
      <trkpt lat="47.10696" lon="6.44168">
        <ele>780.4</ele>
        <time>2020-05-22T15:30:50Z</time>
      </trkpt>
      <trkpt lat="47.10694" lon="6.44166">
        <ele>780.4</ele>
        <time>2020-05-22T15:30:51Z</time>
      </trkpt>
      <trkpt lat="47.10692" lon="6.44163">
        <ele>780.4</ele>
        <time>2020-05-22T15:30:52Z</time>
      </trkpt>
      <trkpt lat="47.10691" lon="6.4416">
        <ele>780.6</ele>
        <time>2020-05-22T15:30:53Z</time>
      </trkpt>
      <trkpt lat="47.10689" lon="6.44157">
        <ele>780.6</ele>
        <time>2020-05-22T15:30:54Z</time>
      </trkpt>
      <trkpt lat="47.10688" lon="6.44155">
        <ele>780.6</ele>
        <time>2020-05-22T15:30:55Z</time>
      </trkpt>
      <trkpt lat="47.10686" lon="6.44152">
        <ele>780.8</ele>
        <time>2020-05-22T15:30:56Z</time>
      </trkpt>
      <trkpt lat="47.10685" lon="6.4415">
        <ele>780.8</ele>
        <time>2020-05-22T15:30:57Z</time>
      </trkpt>
      <trkpt lat="47.10684" lon="6.44147">
        <ele>780.8</ele>
        <time>2020-05-22T15:30:58Z</time>
      </trkpt>
      <trkpt lat="47.10682" lon="6.44145">
        <ele>781.2</ele>
        <time>2020-05-22T15:30:59Z</time>
      </trkpt>
      <trkpt lat="47.10681" lon="6.44142">
        <ele>781.2</ele>
        <time>2020-05-22T15:31:00Z</time>
      </trkpt>
      <trkpt lat="47.10679" lon="6.44139">
        <ele>781.4</ele>
        <time>2020-05-22T15:31:01Z</time>
      </trkpt>
      <trkpt lat="47.10678" lon="6.44136">
        <ele>781.4</ele>
        <time>2020-05-22T15:31:02Z</time>
      </trkpt>
      <trkpt lat="47.10676" lon="6.44134">
        <ele>781.6</ele>
        <time>2020-05-22T15:31:03Z</time>
      </trkpt>
      <trkpt lat="47.10675" lon="6.44131">
        <ele>781.6</ele>
        <time>2020-05-22T15:31:04Z</time>
      </trkpt>
      <trkpt lat="47.10674" lon="6.44129">
        <ele>782</ele>
        <time>2020-05-22T15:31:05Z</time>
      </trkpt>
      <trkpt lat="47.10672" lon="6.44127">
        <ele>782</ele>
        <time>2020-05-22T15:31:06Z</time>
      </trkpt>
      <trkpt lat="47.10671" lon="6.44124">
        <ele>782</ele>
        <time>2020-05-22T15:31:07Z</time>
      </trkpt>
      <trkpt lat="47.1067" lon="6.44122">
        <ele>782.2</ele>
        <time>2020-05-22T15:31:08Z</time>
      </trkpt>
      <trkpt lat="47.10668" lon="6.4412">
        <ele>782.2</ele>
        <time>2020-05-22T15:31:09Z</time>
      </trkpt>
      <trkpt lat="47.10667" lon="6.44117">
        <ele>782.2</ele>
        <time>2020-05-22T15:31:10Z</time>
      </trkpt>
      <trkpt lat="47.10665" lon="6.44115">
        <ele>782.6</ele>
        <time>2020-05-22T15:31:11Z</time>
      </trkpt>
      <trkpt lat="47.10664" lon="6.44112">
        <ele>782.6</ele>
        <time>2020-05-22T15:31:12Z</time>
      </trkpt>
      <trkpt lat="47.10663" lon="6.4411">
        <ele>782.8</ele>
        <time>2020-05-22T15:31:13Z</time>
      </trkpt>
      <trkpt lat="47.10661" lon="6.44107">
        <ele>782.8</ele>
        <time>2020-05-22T15:31:14Z</time>
      </trkpt>
      <trkpt lat="47.10659" lon="6.44105">
        <ele>783</ele>
        <time>2020-05-22T15:31:15Z</time>
      </trkpt>
      <trkpt lat="47.10658" lon="6.44102">
        <ele>783</ele>
        <time>2020-05-22T15:31:16Z</time>
      </trkpt>
      <trkpt lat="47.10657" lon="6.441">
        <ele>783</ele>
        <time>2020-05-22T15:31:17Z</time>
      </trkpt>
      <trkpt lat="47.10655" lon="6.44097">
        <ele>783.4</ele>
        <time>2020-05-22T15:31:18Z</time>
      </trkpt>
      <trkpt lat="47.10654" lon="6.44095">
        <ele>783.4</ele>
        <time>2020-05-22T15:31:19Z</time>
      </trkpt>
      <trkpt lat="47.10652" lon="6.44092">
        <ele>783.4</ele>
        <time>2020-05-22T15:31:20Z</time>
      </trkpt>
      <trkpt lat="47.10651" lon="6.4409">
        <ele>783.6</ele>
        <time>2020-05-22T15:31:21Z</time>
      </trkpt>
      <trkpt lat="47.1065" lon="6.44087">
        <ele>783.6</ele>
        <time>2020-05-22T15:31:22Z</time>
      </trkpt>
      <trkpt lat="47.10648" lon="6.44085">
        <ele>783.8</ele>
        <time>2020-05-22T15:31:23Z</time>
      </trkpt>
      <trkpt lat="47.10647" lon="6.44082">
        <ele>783.8</ele>
        <time>2020-05-22T15:31:24Z</time>
      </trkpt>
      <trkpt lat="47.10646" lon="6.4408">
        <ele>784.2</ele>
        <time>2020-05-22T15:31:25Z</time>
      </trkpt>
      <trkpt lat="47.10645" lon="6.44078">
        <ele>784.2</ele>
        <time>2020-05-22T15:31:26Z</time>
      </trkpt>
      <trkpt lat="47.10643" lon="6.44076">
        <ele>784.4</ele>
        <time>2020-05-22T15:31:27Z</time>
      </trkpt>
      <trkpt lat="47.10642" lon="6.44073">
        <ele>784.4</ele>
        <time>2020-05-22T15:31:28Z</time>
      </trkpt>
      <trkpt lat="47.1064" lon="6.4407">
        <ele>784.4</ele>
        <time>2020-05-22T15:31:29Z</time>
      </trkpt>
      <trkpt lat="47.10639" lon="6.44068">
        <ele>784.8</ele>
        <time>2020-05-22T15:31:30Z</time>
      </trkpt>
      <trkpt lat="47.10637" lon="6.44066">
        <ele>784.8</ele>
        <time>2020-05-22T15:31:31Z</time>
      </trkpt>
      <trkpt lat="47.10636" lon="6.44063">
        <ele>785</ele>
        <time>2020-05-22T15:31:32Z</time>
      </trkpt>
      <trkpt lat="47.10635" lon="6.44061">
        <ele>785</ele>
        <time>2020-05-22T15:31:33Z</time>
      </trkpt>
      <trkpt lat="47.10633" lon="6.44058">
        <ele>785</ele>
        <time>2020-05-22T15:31:34Z</time>
      </trkpt>
      <trkpt lat="47.10632" lon="6.44056">
        <ele>785.2</ele>
        <time>2020-05-22T15:31:35Z</time>
      </trkpt>
      <trkpt lat="47.1063" lon="6.44054">
        <ele>785.2</ele>
        <time>2020-05-22T15:31:36Z</time>
      </trkpt>
      <trkpt lat="47.10629" lon="6.44051">
        <ele>785.4</ele>
        <time>2020-05-22T15:31:37Z</time>
      </trkpt>
      <trkpt lat="47.10628" lon="6.44048">
        <ele>785.4</ele>
        <time>2020-05-22T15:31:38Z</time>
      </trkpt>
      <trkpt lat="47.10627" lon="6.44046">
        <ele>785.4</ele>
        <time>2020-05-22T15:31:39Z</time>
      </trkpt>
      <trkpt lat="47.10625" lon="6.44044">
        <ele>785.8</ele>
        <time>2020-05-22T15:31:40Z</time>
      </trkpt>
      <trkpt lat="47.10623" lon="6.44041">
        <ele>785.8</ele>
        <time>2020-05-22T15:31:41Z</time>
      </trkpt>
      <trkpt lat="47.10622" lon="6.44038">
        <ele>786</ele>
        <time>2020-05-22T15:31:42Z</time>
      </trkpt>
      <trkpt lat="47.1062" lon="6.44035">
        <ele>786</ele>
        <time>2020-05-22T15:31:43Z</time>
      </trkpt>
      <trkpt lat="47.10618" lon="6.44032">
        <ele>786</ele>
        <time>2020-05-22T15:31:44Z</time>
      </trkpt>
      <trkpt lat="47.10617" lon="6.44029">
        <ele>786.2</ele>
        <time>2020-05-22T15:31:45Z</time>
      </trkpt>
      <trkpt lat="47.10615" lon="6.44027">
        <ele>786.2</ele>
        <time>2020-05-22T15:31:46Z</time>
      </trkpt>
      <trkpt lat="47.10613" lon="6.44024">
        <ele>786.2</ele>
        <time>2020-05-22T15:31:47Z</time>
      </trkpt>
      <trkpt lat="47.10612" lon="6.44022">
        <ele>786.2</ele>
        <time>2020-05-22T15:31:48Z</time>
      </trkpt>
      <trkpt lat="47.1061" lon="6.44019">
        <ele>786.2</ele>
        <time>2020-05-22T15:31:49Z</time>
      </trkpt>
      <trkpt lat="47.10609" lon="6.44016">
        <ele>786.4</ele>
        <time>2020-05-22T15:31:50Z</time>
      </trkpt>
      <trkpt lat="47.10607" lon="6.44014">
        <ele>786.4</ele>
        <time>2020-05-22T15:31:51Z</time>
      </trkpt>
      <trkpt lat="47.10605" lon="6.44011">
        <ele>786.4</ele>
        <time>2020-05-22T15:31:52Z</time>
      </trkpt>
      <trkpt lat="47.10604" lon="6.44009">
        <ele>786.8</ele>
        <time>2020-05-22T15:31:53Z</time>
      </trkpt>
      <trkpt lat="47.10602" lon="6.44006">
        <ele>786.8</ele>
        <time>2020-05-22T15:31:54Z</time>
      </trkpt>
      <trkpt lat="47.106" lon="6.44004">
        <ele>787.2</ele>
        <time>2020-05-22T15:31:55Z</time>
      </trkpt>
      <trkpt lat="47.10599" lon="6.44002">
        <ele>787.2</ele>
        <time>2020-05-22T15:31:56Z</time>
      </trkpt>
      <trkpt lat="47.10597" lon="6.44">
        <ele>787.2</ele>
        <time>2020-05-22T15:31:57Z</time>
      </trkpt>
      <trkpt lat="47.10595" lon="6.43998">
        <ele>787.4</ele>
        <time>2020-05-22T15:31:58Z</time>
      </trkpt>
      <trkpt lat="47.10594" lon="6.43997">
        <ele>787.4</ele>
        <time>2020-05-22T15:31:59Z</time>
      </trkpt>
      <trkpt lat="47.10592" lon="6.43995">
        <ele>787.4</ele>
        <time>2020-05-22T15:32:00Z</time>
      </trkpt>
      <trkpt lat="47.1059" lon="6.43993">
        <ele>787.4</ele>
        <time>2020-05-22T15:32:01Z</time>
      </trkpt>
      <trkpt lat="47.10588" lon="6.43991">
        <ele>787.8</ele>
        <time>2020-05-22T15:32:02Z</time>
      </trkpt>
      <trkpt lat="47.10586" lon="6.43989">
        <ele>787.8</ele>
        <time>2020-05-22T15:32:03Z</time>
      </trkpt>
      <trkpt lat="47.10584" lon="6.43988">
        <ele>787.8</ele>
        <time>2020-05-22T15:32:04Z</time>
      </trkpt>
      <trkpt lat="47.10582" lon="6.43986">
        <ele>787.8</ele>
        <time>2020-05-22T15:32:05Z</time>
      </trkpt>
      <trkpt lat="47.1058" lon="6.43985">
        <ele>788</ele>
        <time>2020-05-22T15:32:06Z</time>
      </trkpt>
      <trkpt lat="47.10578" lon="6.43984">
        <ele>788</ele>
        <time>2020-05-22T15:32:07Z</time>
      </trkpt>
      <trkpt lat="47.10576" lon="6.43982">
        <ele>788.2</ele>
        <time>2020-05-22T15:32:08Z</time>
      </trkpt>
      <trkpt lat="47.10574" lon="6.4398">
        <ele>788.2</ele>
        <time>2020-05-22T15:32:09Z</time>
      </trkpt>
      <trkpt lat="47.10572" lon="6.43978">
        <ele>788.4</ele>
        <time>2020-05-22T15:32:10Z</time>
      </trkpt>
      <trkpt lat="47.1057" lon="6.43976">
        <ele>788.4</ele>
        <time>2020-05-22T15:32:11Z</time>
      </trkpt>
      <trkpt lat="47.10568" lon="6.43975">
        <ele>788.6</ele>
        <time>2020-05-22T15:32:12Z</time>
      </trkpt>
      <trkpt lat="47.10565" lon="6.43973">
        <ele>788.6</ele>
        <time>2020-05-22T15:32:13Z</time>
      </trkpt>
      <trkpt lat="47.10563" lon="6.43972">
        <ele>788.6</ele>
        <time>2020-05-22T15:32:14Z</time>
      </trkpt>
      <trkpt lat="47.10561" lon="6.4397">
        <ele>788.6</ele>
        <time>2020-05-22T15:32:15Z</time>
      </trkpt>
      <trkpt lat="47.10559" lon="6.43968">
        <ele>789</ele>
        <time>2020-05-22T15:32:16Z</time>
      </trkpt>
      <trkpt lat="47.10557" lon="6.43967">
        <ele>789</ele>
        <time>2020-05-22T15:32:17Z</time>
      </trkpt>
      <trkpt lat="47.10555" lon="6.43965">
        <ele>789</ele>
        <time>2020-05-22T15:32:18Z</time>
      </trkpt>
      <trkpt lat="47.10553" lon="6.43964">
        <ele>789.2</ele>
        <time>2020-05-22T15:32:19Z</time>
      </trkpt>
      <trkpt lat="47.10551" lon="6.43963">
        <ele>789.2</ele>
        <time>2020-05-22T15:32:20Z</time>
      </trkpt>
      <trkpt lat="47.10548" lon="6.43962">
        <ele>789.6</ele>
        <time>2020-05-22T15:32:21Z</time>
      </trkpt>
      <trkpt lat="47.10546" lon="6.4396">
        <ele>789.6</ele>
        <time>2020-05-22T15:32:22Z</time>
      </trkpt>
      <trkpt lat="47.10545" lon="6.43958">
        <ele>789.8</ele>
        <time>2020-05-22T15:32:23Z</time>
      </trkpt>
      <trkpt lat="47.10543" lon="6.43957">
        <ele>789.8</ele>
        <time>2020-05-22T15:32:24Z</time>
      </trkpt>
      <trkpt lat="47.1054" lon="6.43956">
        <ele>790</ele>
        <time>2020-05-22T15:32:25Z</time>
      </trkpt>
      <trkpt lat="47.10538" lon="6.43954">
        <ele>790</ele>
        <time>2020-05-22T15:32:26Z</time>
      </trkpt>
      <trkpt lat="47.10536" lon="6.43953">
        <ele>790.4</ele>
        <time>2020-05-22T15:32:27Z</time>
      </trkpt>
      <trkpt lat="47.10534" lon="6.43953">
        <ele>790.4</ele>
        <time>2020-05-22T15:32:28Z</time>
      </trkpt>
      <trkpt lat="47.10532" lon="6.43951">
        <ele>790.4</ele>
        <time>2020-05-22T15:32:29Z</time>
      </trkpt>
      <trkpt lat="47.1053" lon="6.4395">
        <ele>790.6</ele>
        <time>2020-05-22T15:32:30Z</time>
      </trkpt>
      <trkpt lat="47.10527" lon="6.43949">
        <ele>790.6</ele>
        <time>2020-05-22T15:32:31Z</time>
      </trkpt>
      <trkpt lat="47.10525" lon="6.43949">
        <ele>790.6</ele>
        <time>2020-05-22T15:32:32Z</time>
      </trkpt>
      <trkpt lat="47.10523" lon="6.43948">
        <ele>791</ele>
        <time>2020-05-22T15:32:33Z</time>
      </trkpt>
      <trkpt lat="47.1052" lon="6.43947">
        <ele>791</ele>
        <time>2020-05-22T15:32:34Z</time>
      </trkpt>
      <trkpt lat="47.10518" lon="6.43947">
        <ele>791.2</ele>
        <time>2020-05-22T15:32:35Z</time>
      </trkpt>
      <trkpt lat="47.10516" lon="6.43946">
        <ele>791.2</ele>
        <time>2020-05-22T15:32:36Z</time>
      </trkpt>
      <trkpt lat="47.10513" lon="6.43946">
        <ele>791.6</ele>
        <time>2020-05-22T15:32:37Z</time>
      </trkpt>
      <trkpt lat="47.10511" lon="6.43946">
        <ele>791.6</ele>
        <time>2020-05-22T15:32:38Z</time>
      </trkpt>
      <trkpt lat="47.10509" lon="6.43945">
        <ele>791.8</ele>
        <time>2020-05-22T15:32:39Z</time>
      </trkpt>
      <trkpt lat="47.10506" lon="6.43946">
        <ele>791.8</ele>
        <time>2020-05-22T15:32:40Z</time>
      </trkpt>
      <trkpt lat="47.10504" lon="6.43946">
        <ele>791.8</ele>
        <time>2020-05-22T15:32:41Z</time>
      </trkpt>
      <trkpt lat="47.10502" lon="6.43946">
        <ele>792</ele>
        <time>2020-05-22T15:32:42Z</time>
      </trkpt>
      <trkpt lat="47.105" lon="6.43946">
        <ele>792</ele>
        <time>2020-05-22T15:32:43Z</time>
      </trkpt>
      <trkpt lat="47.10498" lon="6.43946">
        <ele>792.2</ele>
        <time>2020-05-22T15:32:44Z</time>
      </trkpt>
      <trkpt lat="47.10496" lon="6.43947">
        <ele>792.2</ele>
        <time>2020-05-22T15:32:45Z</time>
      </trkpt>
      <trkpt lat="47.10494" lon="6.43947">
        <ele>792.6</ele>
        <time>2020-05-22T15:32:46Z</time>
      </trkpt>
      <trkpt lat="47.10491" lon="6.43948">
        <ele>792.6</ele>
        <time>2020-05-22T15:32:47Z</time>
      </trkpt>
      <trkpt lat="47.10489" lon="6.43948">
        <ele>792.8</ele>
        <time>2020-05-22T15:32:48Z</time>
      </trkpt>
      <trkpt lat="47.10487" lon="6.43949">
        <ele>792.8</ele>
        <time>2020-05-22T15:32:49Z</time>
      </trkpt>
      <trkpt lat="47.10486" lon="6.4395">
        <ele>792.8</ele>
        <time>2020-05-22T15:32:50Z</time>
      </trkpt>
      <trkpt lat="47.10484" lon="6.43951">
        <ele>793</ele>
        <time>2020-05-22T15:32:51Z</time>
      </trkpt>
      <trkpt lat="47.10482" lon="6.43951">
        <ele>793</ele>
        <time>2020-05-22T15:32:52Z</time>
      </trkpt>
      <trkpt lat="47.10481" lon="6.43952">
        <ele>793</ele>
        <time>2020-05-22T15:32:53Z</time>
      </trkpt>
      <trkpt lat="47.10479" lon="6.43953">
        <ele>793.2</ele>
        <time>2020-05-22T15:32:54Z</time>
      </trkpt>
      <trkpt lat="47.10477" lon="6.43954">
        <ele>793.2</ele>
        <time>2020-05-22T15:32:55Z</time>
      </trkpt>
      <trkpt lat="47.10475" lon="6.43955">
        <ele>793.4</ele>
        <time>2020-05-22T15:32:56Z</time>
      </trkpt>
      <trkpt lat="47.10473" lon="6.43956">
        <ele>793.4</ele>
        <time>2020-05-22T15:32:57Z</time>
      </trkpt>
      <trkpt lat="47.10472" lon="6.43957">
        <ele>793.6</ele>
        <time>2020-05-22T15:32:58Z</time>
      </trkpt>
      <trkpt lat="47.1047" lon="6.43958">
        <ele>793.6</ele>
        <time>2020-05-22T15:32:59Z</time>
      </trkpt>
      <trkpt lat="47.10468" lon="6.43959">
        <ele>794</ele>
        <time>2020-05-22T15:33:00Z</time>
      </trkpt>
      <trkpt lat="47.10466" lon="6.4396">
        <ele>794</ele>
        <time>2020-05-22T15:33:01Z</time>
      </trkpt>
      <trkpt lat="47.10464" lon="6.43961">
        <ele>794</ele>
        <time>2020-05-22T15:33:02Z</time>
      </trkpt>
      <trkpt lat="47.10462" lon="6.43962">
        <ele>794.2</ele>
        <time>2020-05-22T15:33:03Z</time>
      </trkpt>
      <trkpt lat="47.1046" lon="6.43963">
        <ele>794.2</ele>
        <time>2020-05-22T15:33:04Z</time>
      </trkpt>
      <trkpt lat="47.10458" lon="6.43965">
        <ele>794.4</ele>
        <time>2020-05-22T15:33:05Z</time>
      </trkpt>
      <trkpt lat="47.10456" lon="6.43966">
        <ele>794.4</ele>
        <time>2020-05-22T15:33:06Z</time>
      </trkpt>
      <trkpt lat="47.10455" lon="6.43967">
        <ele>794.4</ele>
        <time>2020-05-22T15:33:07Z</time>
      </trkpt>
      <trkpt lat="47.10453" lon="6.43968">
        <ele>794.8</ele>
        <time>2020-05-22T15:33:08Z</time>
      </trkpt>
      <trkpt lat="47.10451" lon="6.43969">
        <ele>794.8</ele>
        <time>2020-05-22T15:33:09Z</time>
      </trkpt>
      <trkpt lat="47.10449" lon="6.4397">
        <ele>794.8</ele>
        <time>2020-05-22T15:33:10Z</time>
      </trkpt>
      <trkpt lat="47.10447" lon="6.43972">
        <ele>794.8</ele>
        <time>2020-05-22T15:33:11Z</time>
      </trkpt>
      <trkpt lat="47.10445" lon="6.43973">
        <ele>794.8</ele>
        <time>2020-05-22T15:33:12Z</time>
      </trkpt>
      <trkpt lat="47.10443" lon="6.43974">
        <ele>795.2</ele>
        <time>2020-05-22T15:33:13Z</time>
      </trkpt>
      <trkpt lat="47.10441" lon="6.43975">
        <ele>795.2</ele>
        <time>2020-05-22T15:33:14Z</time>
      </trkpt>
      <trkpt lat="47.10439" lon="6.43976">
        <ele>795.2</ele>
        <time>2020-05-22T15:33:15Z</time>
      </trkpt>
      <trkpt lat="47.10438" lon="6.43978">
        <ele>795.2</ele>
        <time>2020-05-22T15:33:16Z</time>
      </trkpt>
      <trkpt lat="47.10436" lon="6.43979">
        <ele>795.4</ele>
        <time>2020-05-22T15:33:17Z</time>
      </trkpt>
      <trkpt lat="47.10434" lon="6.4398">
        <ele>795.4</ele>
        <time>2020-05-22T15:33:18Z</time>
      </trkpt>
      <trkpt lat="47.10432" lon="6.43981">
        <ele>795.4</ele>
        <time>2020-05-22T15:33:19Z</time>
      </trkpt>
      <trkpt lat="47.1043" lon="6.43982">
        <ele>795.6</ele>
        <time>2020-05-22T15:33:20Z</time>
      </trkpt>
      <trkpt lat="47.10428" lon="6.43984">
        <ele>795.6</ele>
        <time>2020-05-22T15:33:21Z</time>
      </trkpt>
      <trkpt lat="47.10426" lon="6.43985">
        <ele>796</ele>
        <time>2020-05-22T15:33:22Z</time>
      </trkpt>
      <trkpt lat="47.10425" lon="6.43986">
        <ele>796</ele>
        <time>2020-05-22T15:33:23Z</time>
      </trkpt>
      <trkpt lat="47.10423" lon="6.43987">
        <ele>796</ele>
        <time>2020-05-22T15:33:24Z</time>
      </trkpt>
      <trkpt lat="47.10421" lon="6.43988">
        <ele>796.2</ele>
        <time>2020-05-22T15:33:25Z</time>
      </trkpt>
      <trkpt lat="47.1042" lon="6.4399">
        <ele>796.2</ele>
        <time>2020-05-22T15:33:26Z</time>
      </trkpt>
      <trkpt lat="47.10418" lon="6.43991">
        <ele>796.2</ele>
        <time>2020-05-22T15:33:27Z</time>
      </trkpt>
      <trkpt lat="47.10416" lon="6.43992">
        <ele>796.2</ele>
        <time>2020-05-22T15:33:28Z</time>
      </trkpt>
      <trkpt lat="47.10415" lon="6.43993">
        <ele>796.4</ele>
        <time>2020-05-22T15:33:29Z</time>
      </trkpt>
      <trkpt lat="47.10413" lon="6.43994">
        <ele>796.4</ele>
        <time>2020-05-22T15:33:30Z</time>
      </trkpt>
      <trkpt lat="47.10411" lon="6.43995">
        <ele>796.4</ele>
        <time>2020-05-22T15:33:31Z</time>
      </trkpt>
      <trkpt lat="47.10408" lon="6.43996">
        <ele>796.4</ele>
        <time>2020-05-22T15:33:32Z</time>
      </trkpt>
      <trkpt lat="47.10406" lon="6.43997">
        <ele>796.4</ele>
        <time>2020-05-22T15:33:33Z</time>
      </trkpt>
      <trkpt lat="47.10404" lon="6.43998">
        <ele>796.6</ele>
        <time>2020-05-22T15:33:34Z</time>
      </trkpt>
      <trkpt lat="47.10402" lon="6.44">
        <ele>796.6</ele>
        <time>2020-05-22T15:33:35Z</time>
      </trkpt>
      <trkpt lat="47.104" lon="6.44001">
        <ele>796.6</ele>
        <time>2020-05-22T15:33:36Z</time>
      </trkpt>
      <trkpt lat="47.10397" lon="6.44002">
        <ele>796.6</ele>
        <time>2020-05-22T15:33:37Z</time>
      </trkpt>
      <trkpt lat="47.10395" lon="6.44003">
        <ele>796.6</ele>
        <time>2020-05-22T15:33:38Z</time>
      </trkpt>
      <trkpt lat="47.10392" lon="6.44004">
        <ele>796.6</ele>
        <time>2020-05-22T15:33:39Z</time>
      </trkpt>
      <trkpt lat="47.10389" lon="6.44005">
        <ele>796.6</ele>
        <time>2020-05-22T15:33:40Z</time>
      </trkpt>
      <trkpt lat="47.10387" lon="6.44006">
        <ele>796.6</ele>
        <time>2020-05-22T15:33:41Z</time>
      </trkpt>
      <trkpt lat="47.10384" lon="6.44008">
        <ele>796.6</ele>
        <time>2020-05-22T15:33:42Z</time>
      </trkpt>
      <trkpt lat="47.10381" lon="6.44009">
        <ele>796.6</ele>
        <time>2020-05-22T15:33:43Z</time>
      </trkpt>
      <trkpt lat="47.10378" lon="6.4401">
        <ele>796.8</ele>
        <time>2020-05-22T15:33:44Z</time>
      </trkpt>
      <trkpt lat="47.10375" lon="6.44012">
        <ele>796.8</ele>
        <time>2020-05-22T15:33:45Z</time>
      </trkpt>
      <trkpt lat="47.10372" lon="6.44013">
        <ele>796.8</ele>
        <time>2020-05-22T15:33:46Z</time>
      </trkpt>
      <trkpt lat="47.1037" lon="6.44014">
        <ele>796.8</ele>
        <time>2020-05-22T15:33:47Z</time>
      </trkpt>
      <trkpt lat="47.10367" lon="6.44016">
        <ele>796.8</ele>
        <time>2020-05-22T15:33:48Z</time>
      </trkpt>
      <trkpt lat="47.10365" lon="6.44016">
        <ele>796.8</ele>
        <time>2020-05-22T15:33:49Z</time>
      </trkpt>
      <trkpt lat="47.10362" lon="6.44017">
        <ele>796.8</ele>
        <time>2020-05-22T15:33:50Z</time>
      </trkpt>
      <trkpt lat="47.1036" lon="6.44018">
        <ele>796.8</ele>
        <time>2020-05-22T15:33:51Z</time>
      </trkpt>
      <trkpt lat="47.10357" lon="6.4402">
        <ele>796.8</ele>
        <time>2020-05-22T15:33:52Z</time>
      </trkpt>
      <trkpt lat="47.10355" lon="6.44021">
        <ele>796.8</ele>
        <time>2020-05-22T15:33:53Z</time>
      </trkpt>
      <trkpt lat="47.10352" lon="6.44022">
        <ele>796.8</ele>
        <time>2020-05-22T15:33:54Z</time>
      </trkpt>
      <trkpt lat="47.10349" lon="6.44023">
        <ele>796.8</ele>
        <time>2020-05-22T15:33:55Z</time>
      </trkpt>
      <trkpt lat="47.10347" lon="6.44024">
        <ele>797</ele>
        <time>2020-05-22T15:33:56Z</time>
      </trkpt>
      <trkpt lat="47.10344" lon="6.44026">
        <ele>797</ele>
        <time>2020-05-22T15:33:57Z</time>
      </trkpt>
      <trkpt lat="47.10341" lon="6.44027">
        <ele>797</ele>
        <time>2020-05-22T15:33:58Z</time>
      </trkpt>
      <trkpt lat="47.10339" lon="6.44029">
        <ele>797</ele>
        <time>2020-05-22T15:33:59Z</time>
      </trkpt>
      <trkpt lat="47.10336" lon="6.44029">
        <ele>797</ele>
        <time>2020-05-22T15:34:00Z</time>
      </trkpt>
      <trkpt lat="47.10333" lon="6.4403">
        <ele>797</ele>
        <time>2020-05-22T15:34:01Z</time>
      </trkpt>
      <trkpt lat="47.10331" lon="6.44031">
        <ele>797</ele>
        <time>2020-05-22T15:34:02Z</time>
      </trkpt>
      <trkpt lat="47.10328" lon="6.44032">
        <ele>797</ele>
        <time>2020-05-22T15:34:03Z</time>
      </trkpt>
      <trkpt lat="47.10325" lon="6.44033">
        <ele>797</ele>
        <time>2020-05-22T15:34:04Z</time>
      </trkpt>
      <trkpt lat="47.10323" lon="6.44035">
        <ele>797</ele>
        <time>2020-05-22T15:34:05Z</time>
      </trkpt>
      <trkpt lat="47.1032" lon="6.44036">
        <ele>797</ele>
        <time>2020-05-22T15:34:06Z</time>
      </trkpt>
      <trkpt lat="47.10318" lon="6.44037">
        <ele>797</ele>
        <time>2020-05-22T15:34:07Z</time>
      </trkpt>
      <trkpt lat="47.10315" lon="6.44038">
        <ele>797</ele>
        <time>2020-05-22T15:34:08Z</time>
      </trkpt>
      <trkpt lat="47.10312" lon="6.44039">
        <ele>797</ele>
        <time>2020-05-22T15:34:09Z</time>
      </trkpt>
      <trkpt lat="47.1031" lon="6.4404">
        <ele>797</ele>
        <time>2020-05-22T15:34:10Z</time>
      </trkpt>
      <trkpt lat="47.10308" lon="6.44041">
        <ele>797</ele>
        <time>2020-05-22T15:34:11Z</time>
      </trkpt>
      <trkpt lat="47.10305" lon="6.44042">
        <ele>797</ele>
        <time>2020-05-22T15:34:12Z</time>
      </trkpt>
      <trkpt lat="47.10303" lon="6.44043">
        <ele>797</ele>
        <time>2020-05-22T15:34:13Z</time>
      </trkpt>
      <trkpt lat="47.103" lon="6.44044">
        <ele>797</ele>
        <time>2020-05-22T15:34:14Z</time>
      </trkpt>
      <trkpt lat="47.10297" lon="6.44045">
        <ele>797</ele>
        <time>2020-05-22T15:34:15Z</time>
      </trkpt>
      <trkpt lat="47.10295" lon="6.44046">
        <ele>797</ele>
        <time>2020-05-22T15:34:16Z</time>
      </trkpt>
      <trkpt lat="47.10294" lon="6.44046">
        <ele>796.8</ele>
        <time>2020-05-22T15:34:17Z</time>
      </trkpt>
      <trkpt lat="47.10293" lon="6.44046">
        <ele>796.8</ele>
        <time>2020-05-22T15:34:18Z</time>
      </trkpt>
      <trkpt lat="47.10293" lon="6.44046">
        <ele>796.8</ele>
        <time>2020-05-22T15:34:19Z</time>
      </trkpt>
      <trkpt lat="47.10287" lon="6.44049">
        <ele>796.4</ele>
        <time>2020-05-22T15:35:35Z</time>
      </trkpt>
      <trkpt lat="47.10285" lon="6.4405">
        <ele>796.2</ele>
        <time>2020-05-22T15:35:36Z</time>
      </trkpt>
      <trkpt lat="47.10283" lon="6.4405">
        <ele>796.2</ele>
        <time>2020-05-22T15:35:37Z</time>
      </trkpt>
      <trkpt lat="47.10281" lon="6.44051">
        <ele>796.2</ele>
        <time>2020-05-22T15:35:38Z</time>
      </trkpt>
      <trkpt lat="47.10278" lon="6.44052">
        <ele>796.2</ele>
        <time>2020-05-22T15:35:39Z</time>
      </trkpt>
      <trkpt lat="47.10275" lon="6.44054">
        <ele>796.2</ele>
        <time>2020-05-22T15:35:40Z</time>
      </trkpt>
      <trkpt lat="47.10273" lon="6.44056">
        <ele>796.2</ele>
        <time>2020-05-22T15:35:41Z</time>
      </trkpt>
      <trkpt lat="47.10269" lon="6.44057">
        <ele>795.8</ele>
        <time>2020-05-22T15:35:42Z</time>
      </trkpt>
      <trkpt lat="47.10266" lon="6.44059">
        <ele>795.8</ele>
        <time>2020-05-22T15:35:43Z</time>
      </trkpt>
      <trkpt lat="47.10263" lon="6.44061">
        <ele>795.8</ele>
        <time>2020-05-22T15:35:44Z</time>
      </trkpt>
      <trkpt lat="47.10259" lon="6.44063">
        <ele>795.6</ele>
        <time>2020-05-22T15:35:45Z</time>
      </trkpt>
      <trkpt lat="47.10255" lon="6.44064">
        <ele>795.6</ele>
        <time>2020-05-22T15:35:46Z</time>
      </trkpt>
      <trkpt lat="47.1025" lon="6.44066">
        <ele>795.4</ele>
        <time>2020-05-22T15:35:47Z</time>
      </trkpt>
      <trkpt lat="47.10246" lon="6.44069">
        <ele>795.4</ele>
        <time>2020-05-22T15:35:48Z</time>
      </trkpt>
      <trkpt lat="47.10242" lon="6.44071">
        <ele>795</ele>
        <time>2020-05-22T15:35:49Z</time>
      </trkpt>
      <trkpt lat="47.10237" lon="6.44074">
        <ele>794.8</ele>
        <time>2020-05-22T15:35:50Z</time>
      </trkpt>
      <trkpt lat="47.10231" lon="6.44077">
        <ele>794.8</ele>
        <time>2020-05-22T15:35:51Z</time>
      </trkpt>
      <trkpt lat="47.10225" lon="6.4408">
        <ele>794.4</ele>
        <time>2020-05-22T15:35:52Z</time>
      </trkpt>
      <trkpt lat="47.10219" lon="6.44083">
        <ele>794.2</ele>
        <time>2020-05-22T15:35:53Z</time>
      </trkpt>
      <trkpt lat="47.10213" lon="6.44087">
        <ele>794</ele>
        <time>2020-05-22T15:35:54Z</time>
      </trkpt>
      <trkpt lat="47.10206" lon="6.4409">
        <ele>793.6</ele>
        <time>2020-05-22T15:35:55Z</time>
      </trkpt>
      <trkpt lat="47.10199" lon="6.44094">
        <ele>793.4</ele>
        <time>2020-05-22T15:35:56Z</time>
      </trkpt>
      <trkpt lat="47.10191" lon="6.44098">
        <ele>793</ele>
        <time>2020-05-22T15:35:57Z</time>
      </trkpt>
      <trkpt lat="47.10191" lon="6.44098">
        <ele>792.6</ele>
        <time>2020-05-22T15:35:58Z</time>
      </trkpt>
      <trkpt lat="47.10175" lon="6.44107">
        <ele>792.2</ele>
        <time>2020-05-22T15:35:59Z</time>
      </trkpt>
      <trkpt lat="47.10166" lon="6.44111">
        <ele>791.8</ele>
        <time>2020-05-22T15:36:00Z</time>
      </trkpt>
      <trkpt lat="47.10156" lon="6.44117">
        <ele>791.2</ele>
        <time>2020-05-22T15:36:01Z</time>
      </trkpt>
      <trkpt lat="47.10146" lon="6.44122">
        <ele>791</ele>
        <time>2020-05-22T15:36:02Z</time>
      </trkpt>
      <trkpt lat="47.10137" lon="6.44127">
        <ele>790.6</ele>
        <time>2020-05-22T15:36:03Z</time>
      </trkpt>
      <trkpt lat="47.10127" lon="6.44132">
        <ele>790.6</ele>
        <time>2020-05-22T15:36:04Z</time>
      </trkpt>
      <trkpt lat="47.10118" lon="6.44136">
        <ele>790.4</ele>
        <time>2020-05-22T15:36:05Z</time>
      </trkpt>
      <trkpt lat="47.10109" lon="6.44141">
        <ele>790.2</ele>
        <time>2020-05-22T15:36:06Z</time>
      </trkpt>
      <trkpt lat="47.10101" lon="6.44146">
        <ele>789.8</ele>
        <time>2020-05-22T15:36:07Z</time>
      </trkpt>
      <trkpt lat="47.10092" lon="6.4415">
        <ele>789.6</ele>
        <time>2020-05-22T15:36:08Z</time>
      </trkpt>
      <trkpt lat="47.10084" lon="6.44155">
        <ele>789.6</ele>
        <time>2020-05-22T15:36:09Z</time>
      </trkpt>
      <trkpt lat="47.10076" lon="6.44159">
        <ele>789.6</ele>
        <time>2020-05-22T15:36:10Z</time>
      </trkpt>
      <trkpt lat="47.10069" lon="6.44163">
        <ele>789.4</ele>
        <time>2020-05-22T15:36:11Z</time>
      </trkpt>
      <trkpt lat="47.10061" lon="6.44167">
        <ele>789.2</ele>
        <time>2020-05-22T15:36:12Z</time>
      </trkpt>
      <trkpt lat="47.10054" lon="6.44171">
        <ele>789.2</ele>
        <time>2020-05-22T15:36:13Z</time>
      </trkpt>
      <trkpt lat="47.10046" lon="6.44175">
        <ele>788.8</ele>
        <time>2020-05-22T15:36:14Z</time>
      </trkpt>
      <trkpt lat="47.10039" lon="6.44179">
        <ele>788.8</ele>
        <time>2020-05-22T15:36:15Z</time>
      </trkpt>
      <trkpt lat="47.10032" lon="6.44184">
        <ele>788.4</ele>
        <time>2020-05-22T15:36:16Z</time>
      </trkpt>
      <trkpt lat="47.10025" lon="6.44189">
        <ele>788.2</ele>
        <time>2020-05-22T15:36:17Z</time>
      </trkpt>
      <trkpt lat="47.10018" lon="6.44195">
        <ele>788</ele>
        <time>2020-05-22T15:36:18Z</time>
      </trkpt>
      <trkpt lat="47.10011" lon="6.44201">
        <ele>788</ele>
        <time>2020-05-22T15:36:19Z</time>
      </trkpt>
      <trkpt lat="47.10004" lon="6.44208">
        <ele>787.6</ele>
        <time>2020-05-22T15:36:20Z</time>
      </trkpt>
      <trkpt lat="47.09997" lon="6.44214">
        <ele>787.4</ele>
        <time>2020-05-22T15:36:21Z</time>
      </trkpt>
      <trkpt lat="47.09989" lon="6.44221">
        <ele>787.2</ele>
        <time>2020-05-22T15:36:22Z</time>
      </trkpt>
      <trkpt lat="47.09982" lon="6.44228">
        <ele>787.2</ele>
        <time>2020-05-22T15:36:23Z</time>
      </trkpt>
      <trkpt lat="47.09975" lon="6.44235">
        <ele>787</ele>
        <time>2020-05-22T15:36:24Z</time>
      </trkpt>
      <trkpt lat="47.09967" lon="6.44242">
        <ele>787</ele>
        <time>2020-05-22T15:36:25Z</time>
      </trkpt>
      <trkpt lat="47.0996" lon="6.44249">
        <ele>786.6</ele>
        <time>2020-05-22T15:36:26Z</time>
      </trkpt>
      <trkpt lat="47.09953" lon="6.44256">
        <ele>786.6</ele>
        <time>2020-05-22T15:36:27Z</time>
      </trkpt>
      <trkpt lat="47.09946" lon="6.44262">
        <ele>786.6</ele>
        <time>2020-05-22T15:36:28Z</time>
      </trkpt>
      <trkpt lat="47.09939" lon="6.44269">
        <ele>786.6</ele>
        <time>2020-05-22T15:36:29Z</time>
      </trkpt>
      <trkpt lat="47.09933" lon="6.44275">
        <ele>786.6</ele>
        <time>2020-05-22T15:36:30Z</time>
      </trkpt>
      <trkpt lat="47.09927" lon="6.44281">
        <ele>786.4</ele>
        <time>2020-05-22T15:36:31Z</time>
      </trkpt>
      <trkpt lat="47.09921" lon="6.44287">
        <ele>786.4</ele>
        <time>2020-05-22T15:36:32Z</time>
      </trkpt>
      <trkpt lat="47.09916" lon="6.44292">
        <ele>786.4</ele>
        <time>2020-05-22T15:36:33Z</time>
      </trkpt>
      <trkpt lat="47.09911" lon="6.44296">
        <ele>786.6</ele>
        <time>2020-05-22T15:36:34Z</time>
      </trkpt>
      <trkpt lat="47.09906" lon="6.44301">
        <ele>786.6</ele>
        <time>2020-05-22T15:36:35Z</time>
      </trkpt>
      <trkpt lat="47.09902" lon="6.44305">
        <ele>787</ele>
        <time>2020-05-22T15:36:36Z</time>
      </trkpt>
      <trkpt lat="47.09898" lon="6.44309">
        <ele>787</ele>
        <time>2020-05-22T15:36:37Z</time>
      </trkpt>
      <trkpt lat="47.09894" lon="6.44313">
        <ele>787.4</ele>
        <time>2020-05-22T15:36:38Z</time>
      </trkpt>
      <trkpt lat="47.09891" lon="6.44316">
        <ele>787.4</ele>
        <time>2020-05-22T15:36:39Z</time>
      </trkpt>
      <trkpt lat="47.09888" lon="6.44319">
        <ele>787.6</ele>
        <time>2020-05-22T15:36:40Z</time>
      </trkpt>
      <trkpt lat="47.09885" lon="6.44322">
        <ele>787.6</ele>
        <time>2020-05-22T15:36:41Z</time>
      </trkpt>
      <trkpt lat="47.09882" lon="6.44325">
        <ele>787.8</ele>
        <time>2020-05-22T15:36:42Z</time>
      </trkpt>
      <trkpt lat="47.09879" lon="6.44328">
        <ele>787.8</ele>
        <time>2020-05-22T15:36:43Z</time>
      </trkpt>
      <trkpt lat="47.09876" lon="6.4433">
        <ele>787.8</ele>
        <time>2020-05-22T15:36:44Z</time>
      </trkpt>
      <trkpt lat="47.09874" lon="6.44333">
        <ele>788.2</ele>
        <time>2020-05-22T15:36:45Z</time>
      </trkpt>
      <trkpt lat="47.09871" lon="6.44335">
        <ele>788.2</ele>
        <time>2020-05-22T15:36:46Z</time>
      </trkpt>
      <trkpt lat="47.09869" lon="6.44338">
        <ele>788.4</ele>
        <time>2020-05-22T15:36:47Z</time>
      </trkpt>
      <trkpt lat="47.09866" lon="6.4434">
        <ele>788.4</ele>
        <time>2020-05-22T15:36:48Z</time>
      </trkpt>
      <trkpt lat="47.09864" lon="6.44342">
        <ele>788.4</ele>
        <time>2020-05-22T15:36:49Z</time>
      </trkpt>
      <trkpt lat="47.09862" lon="6.44344">
        <ele>788.6</ele>
        <time>2020-05-22T15:36:50Z</time>
      </trkpt>
      <trkpt lat="47.0986" lon="6.44346">
        <ele>788.6</ele>
        <time>2020-05-22T15:36:51Z</time>
      </trkpt>
      <trkpt lat="47.09857" lon="6.44348">
        <ele>788.8</ele>
        <time>2020-05-22T15:36:52Z</time>
      </trkpt>
      <trkpt lat="47.09855" lon="6.44351">
        <ele>788.8</ele>
        <time>2020-05-22T15:36:53Z</time>
      </trkpt>
      <trkpt lat="47.09853" lon="6.44353">
        <ele>789.2</ele>
        <time>2020-05-22T15:36:54Z</time>
      </trkpt>
      <trkpt lat="47.09851" lon="6.44355">
        <ele>789.2</ele>
        <time>2020-05-22T15:36:55Z</time>
      </trkpt>
      <trkpt lat="47.09848" lon="6.44357">
        <ele>789.4</ele>
        <time>2020-05-22T15:36:56Z</time>
      </trkpt>
      <trkpt lat="47.09846" lon="6.44359">
        <ele>789.4</ele>
        <time>2020-05-22T15:36:57Z</time>
      </trkpt>
      <trkpt lat="47.09844" lon="6.44361">
        <ele>789.8</ele>
        <time>2020-05-22T15:36:58Z</time>
      </trkpt>
      <trkpt lat="47.09842" lon="6.44363">
        <ele>789.8</ele>
        <time>2020-05-22T15:36:59Z</time>
      </trkpt>
      <trkpt lat="47.0984" lon="6.44366">
        <ele>790</ele>
        <time>2020-05-22T15:37:00Z</time>
      </trkpt>
      <trkpt lat="47.09837" lon="6.44368">
        <ele>790</ele>
        <time>2020-05-22T15:37:01Z</time>
      </trkpt>
      <trkpt lat="47.09835" lon="6.4437">
        <ele>790.2</ele>
        <time>2020-05-22T15:37:02Z</time>
      </trkpt>
      <trkpt lat="47.09833" lon="6.44372">
        <ele>790.2</ele>
        <time>2020-05-22T15:37:03Z</time>
      </trkpt>
      <trkpt lat="47.0983" lon="6.44374">
        <ele>790.6</ele>
        <time>2020-05-22T15:37:04Z</time>
      </trkpt>
      <trkpt lat="47.09828" lon="6.44376">
        <ele>790.6</ele>
        <time>2020-05-22T15:37:05Z</time>
      </trkpt>
      <trkpt lat="47.09826" lon="6.44378">
        <ele>790.8</ele>
        <time>2020-05-22T15:37:06Z</time>
      </trkpt>
      <trkpt lat="47.09823" lon="6.44381">
        <ele>790.8</ele>
        <time>2020-05-22T15:37:07Z</time>
      </trkpt>
      <trkpt lat="47.09821" lon="6.44383">
        <ele>791</ele>
        <time>2020-05-22T15:37:08Z</time>
      </trkpt>
      <trkpt lat="47.09819" lon="6.44386">
        <ele>791</ele>
        <time>2020-05-22T15:37:09Z</time>
      </trkpt>
      <trkpt lat="47.09816" lon="6.44388">
        <ele>791.2</ele>
        <time>2020-05-22T15:37:10Z</time>
      </trkpt>
      <trkpt lat="47.09814" lon="6.44391">
        <ele>791.2</ele>
        <time>2020-05-22T15:37:11Z</time>
      </trkpt>
      <trkpt lat="47.09811" lon="6.44394">
        <ele>791.2</ele>
        <time>2020-05-22T15:37:12Z</time>
      </trkpt>
      <trkpt lat="47.09809" lon="6.44396">
        <ele>791.4</ele>
        <time>2020-05-22T15:37:13Z</time>
      </trkpt>
      <trkpt lat="47.09806" lon="6.44399">
        <ele>791.4</ele>
        <time>2020-05-22T15:37:14Z</time>
      </trkpt>
      <trkpt lat="47.09804" lon="6.44402">
        <ele>791.6</ele>
        <time>2020-05-22T15:37:15Z</time>
      </trkpt>
      <trkpt lat="47.09802" lon="6.44405">
        <ele>791.6</ele>
        <time>2020-05-22T15:37:16Z</time>
      </trkpt>
      <trkpt lat="47.09799" lon="6.44408">
        <ele>791.6</ele>
        <time>2020-05-22T15:37:17Z</time>
      </trkpt>
      <trkpt lat="47.09797" lon="6.44411">
        <ele>791.8</ele>
        <time>2020-05-22T15:37:18Z</time>
      </trkpt>
      <trkpt lat="47.09795" lon="6.44414">
        <ele>791.8</ele>
        <time>2020-05-22T15:37:19Z</time>
      </trkpt>
      <trkpt lat="47.09793" lon="6.44417">
        <ele>791.8</ele>
        <time>2020-05-22T15:37:20Z</time>
      </trkpt>
      <trkpt lat="47.09791" lon="6.4442">
        <ele>792</ele>
        <time>2020-05-22T15:37:21Z</time>
      </trkpt>
      <trkpt lat="47.09789" lon="6.44424">
        <ele>792</ele>
        <time>2020-05-22T15:37:22Z</time>
      </trkpt>
      <trkpt lat="47.09787" lon="6.44428">
        <ele>792</ele>
        <time>2020-05-22T15:37:23Z</time>
      </trkpt>
      <trkpt lat="47.09785" lon="6.44431">
        <ele>792</ele>
        <time>2020-05-22T15:37:24Z</time>
      </trkpt>
      <trkpt lat="47.09783" lon="6.44435">
        <ele>792</ele>
        <time>2020-05-22T15:37:25Z</time>
      </trkpt>
      <trkpt lat="47.09781" lon="6.44438">
        <ele>792.4</ele>
        <time>2020-05-22T15:37:26Z</time>
      </trkpt>
      <trkpt lat="47.09779" lon="6.44442">
        <ele>792.4</ele>
        <time>2020-05-22T15:37:27Z</time>
      </trkpt>
      <trkpt lat="47.09777" lon="6.44445">
        <ele>792.4</ele>
        <time>2020-05-22T15:37:28Z</time>
      </trkpt>
      <trkpt lat="47.09775" lon="6.44449">
        <ele>792.6</ele>
        <time>2020-05-22T15:37:29Z</time>
      </trkpt>
      <trkpt lat="47.09773" lon="6.44453">
        <ele>792.6</ele>
        <time>2020-05-22T15:37:30Z</time>
      </trkpt>
      <trkpt lat="47.09771" lon="6.44456">
        <ele>792.8</ele>
        <time>2020-05-22T15:37:31Z</time>
      </trkpt>
      <trkpt lat="47.09769" lon="6.4446">
        <ele>792.8</ele>
        <time>2020-05-22T15:37:32Z</time>
      </trkpt>
      <trkpt lat="47.09767" lon="6.44464">
        <ele>792.8</ele>
        <time>2020-05-22T15:37:33Z</time>
      </trkpt>
      <trkpt lat="47.09765" lon="6.44468">
        <ele>792.8</ele>
        <time>2020-05-22T15:37:34Z</time>
      </trkpt>
      <trkpt lat="47.09763" lon="6.44473">
        <ele>792.8</ele>
        <time>2020-05-22T15:37:35Z</time>
      </trkpt>
      <trkpt lat="47.09761" lon="6.44477">
        <ele>792.8</ele>
        <time>2020-05-22T15:37:36Z</time>
      </trkpt>
      <trkpt lat="47.09759" lon="6.44481">
        <ele>792.8</ele>
        <time>2020-05-22T15:37:37Z</time>
      </trkpt>
      <trkpt lat="47.09757" lon="6.44486">
        <ele>792.8</ele>
        <time>2020-05-22T15:37:38Z</time>
      </trkpt>
      <trkpt lat="47.09754" lon="6.4449">
        <ele>792.8</ele>
        <time>2020-05-22T15:37:39Z</time>
      </trkpt>
      <trkpt lat="47.09752" lon="6.44494">
        <ele>792.8</ele>
        <time>2020-05-22T15:37:40Z</time>
      </trkpt>
      <trkpt lat="47.09749" lon="6.44499">
        <ele>792.8</ele>
        <time>2020-05-22T15:37:41Z</time>
      </trkpt>
      <trkpt lat="47.09747" lon="6.44503">
        <ele>792.8</ele>
        <time>2020-05-22T15:37:42Z</time>
      </trkpt>
      <trkpt lat="47.09744" lon="6.44507">
        <ele>792.8</ele>
        <time>2020-05-22T15:37:43Z</time>
      </trkpt>
      <trkpt lat="47.09742" lon="6.44512">
        <ele>793</ele>
        <time>2020-05-22T15:37:44Z</time>
      </trkpt>
      <trkpt lat="47.0974" lon="6.44516">
        <ele>793</ele>
        <time>2020-05-22T15:37:45Z</time>
      </trkpt>
      <trkpt lat="47.09738" lon="6.4452">
        <ele>793</ele>
        <time>2020-05-22T15:37:46Z</time>
      </trkpt>
      <trkpt lat="47.09735" lon="6.44525">
        <ele>793.4</ele>
        <time>2020-05-22T15:37:47Z</time>
      </trkpt>
      <trkpt lat="47.09733" lon="6.44529">
        <ele>793.4</ele>
        <time>2020-05-22T15:37:48Z</time>
      </trkpt>
      <trkpt lat="47.09731" lon="6.44533">
        <ele>793.4</ele>
        <time>2020-05-22T15:37:49Z</time>
      </trkpt>
      <trkpt lat="47.09729" lon="6.44537">
        <ele>793.4</ele>
        <time>2020-05-22T15:37:50Z</time>
      </trkpt>
      <trkpt lat="47.09726" lon="6.44541">
        <ele>793.6</ele>
        <time>2020-05-22T15:37:51Z</time>
      </trkpt>
      <trkpt lat="47.09724" lon="6.44545">
        <ele>793.6</ele>
        <time>2020-05-22T15:37:52Z</time>
      </trkpt>
      <trkpt lat="47.09722" lon="6.44548">
        <ele>793.6</ele>
        <time>2020-05-22T15:37:53Z</time>
      </trkpt>
      <trkpt lat="47.09719" lon="6.44552">
        <ele>793.6</ele>
        <time>2020-05-22T15:37:54Z</time>
      </trkpt>
      <trkpt lat="47.09717" lon="6.44555">
        <ele>793.8</ele>
        <time>2020-05-22T15:37:55Z</time>
      </trkpt>
      <trkpt lat="47.09714" lon="6.44559">
        <ele>793.8</ele>
        <time>2020-05-22T15:37:56Z</time>
      </trkpt>
      <trkpt lat="47.09712" lon="6.44562">
        <ele>793.8</ele>
        <time>2020-05-22T15:37:57Z</time>
      </trkpt>
      <trkpt lat="47.09709" lon="6.44565">
        <ele>794.2</ele>
        <time>2020-05-22T15:37:58Z</time>
      </trkpt>
      <trkpt lat="47.09706" lon="6.44569">
        <ele>794.2</ele>
        <time>2020-05-22T15:37:59Z</time>
      </trkpt>
      <trkpt lat="47.09704" lon="6.44572">
        <ele>794.4</ele>
        <time>2020-05-22T15:38:00Z</time>
      </trkpt>
      <trkpt lat="47.09701" lon="6.44575">
        <ele>794.4</ele>
        <time>2020-05-22T15:38:01Z</time>
      </trkpt>
      <trkpt lat="47.09699" lon="6.44578">
        <ele>794.6</ele>
        <time>2020-05-22T15:38:02Z</time>
      </trkpt>
      <trkpt lat="47.09696" lon="6.44581">
        <ele>794.6</ele>
        <time>2020-05-22T15:38:03Z</time>
      </trkpt>
      <trkpt lat="47.09694" lon="6.44583">
        <ele>794.6</ele>
        <time>2020-05-22T15:38:04Z</time>
      </trkpt>
      <trkpt lat="47.09691" lon="6.44586">
        <ele>794.8</ele>
        <time>2020-05-22T15:38:05Z</time>
      </trkpt>
      <trkpt lat="47.09689" lon="6.44588">
        <ele>794.8</ele>
        <time>2020-05-22T15:38:06Z</time>
      </trkpt>
      <trkpt lat="47.09686" lon="6.4459">
        <ele>795</ele>
        <time>2020-05-22T15:38:07Z</time>
      </trkpt>
      <trkpt lat="47.09683" lon="6.44592">
        <ele>795</ele>
        <time>2020-05-22T15:38:08Z</time>
      </trkpt>
      <trkpt lat="47.09681" lon="6.44594">
        <ele>795.4</ele>
        <time>2020-05-22T15:38:09Z</time>
      </trkpt>
      <trkpt lat="47.09678" lon="6.44597">
        <ele>795.4</ele>
        <time>2020-05-22T15:38:10Z</time>
      </trkpt>
      <trkpt lat="47.09676" lon="6.44599">
        <ele>795.6</ele>
        <time>2020-05-22T15:38:11Z</time>
      </trkpt>
      <trkpt lat="47.09673" lon="6.44601">
        <ele>795.6</ele>
        <time>2020-05-22T15:38:12Z</time>
      </trkpt>
      <trkpt lat="47.0967" lon="6.44603">
        <ele>795.6</ele>
        <time>2020-05-22T15:38:13Z</time>
      </trkpt>
      <trkpt lat="47.09667" lon="6.44605">
        <ele>795.6</ele>
        <time>2020-05-22T15:38:14Z</time>
      </trkpt>
      <trkpt lat="47.09664" lon="6.44607">
        <ele>795.8</ele>
        <time>2020-05-22T15:38:15Z</time>
      </trkpt>
      <trkpt lat="47.09661" lon="6.44609">
        <ele>795.8</ele>
        <time>2020-05-22T15:38:16Z</time>
      </trkpt>
      <trkpt lat="47.09658" lon="6.4461">
        <ele>795.8</ele>
        <time>2020-05-22T15:38:17Z</time>
      </trkpt>
      <trkpt lat="47.09655" lon="6.44612">
        <ele>795.8</ele>
        <time>2020-05-22T15:38:18Z</time>
      </trkpt>
      <trkpt lat="47.09652" lon="6.44614">
        <ele>796</ele>
        <time>2020-05-22T15:38:19Z</time>
      </trkpt>
      <trkpt lat="47.09649" lon="6.44616">
        <ele>796</ele>
        <time>2020-05-22T15:38:20Z</time>
      </trkpt>
      <trkpt lat="47.09645" lon="6.44618">
        <ele>796</ele>
        <time>2020-05-22T15:38:21Z</time>
      </trkpt>
      <trkpt lat="47.09642" lon="6.4462">
        <ele>796</ele>
        <time>2020-05-22T15:38:22Z</time>
      </trkpt>
      <trkpt lat="47.09638" lon="6.44621">
        <ele>796</ele>
        <time>2020-05-22T15:38:23Z</time>
      </trkpt>
      <trkpt lat="47.09635" lon="6.44622">
        <ele>796</ele>
        <time>2020-05-22T15:38:24Z</time>
      </trkpt>
      <trkpt lat="47.09631" lon="6.44623">
        <ele>796</ele>
        <time>2020-05-22T15:38:25Z</time>
      </trkpt>
      <trkpt lat="47.09627" lon="6.44624">
        <ele>796</ele>
        <time>2020-05-22T15:38:26Z</time>
      </trkpt>
      <trkpt lat="47.09623" lon="6.44625">
        <ele>796</ele>
        <time>2020-05-22T15:38:27Z</time>
      </trkpt>
      <trkpt lat="47.09619" lon="6.44626">
        <ele>796</ele>
        <time>2020-05-22T15:38:28Z</time>
      </trkpt>
      <trkpt lat="47.09615" lon="6.44626">
        <ele>796</ele>
        <time>2020-05-22T15:38:29Z</time>
      </trkpt>
      <trkpt lat="47.09611" lon="6.44627">
        <ele>796</ele>
        <time>2020-05-22T15:38:30Z</time>
      </trkpt>
      <trkpt lat="47.09607" lon="6.44628">
        <ele>796</ele>
        <time>2020-05-22T15:38:31Z</time>
      </trkpt>
      <trkpt lat="47.09603" lon="6.44628">
        <ele>796</ele>
        <time>2020-05-22T15:38:32Z</time>
      </trkpt>
      <trkpt lat="47.09599" lon="6.44628">
        <ele>796</ele>
        <time>2020-05-22T15:38:33Z</time>
      </trkpt>
      <trkpt lat="47.09594" lon="6.44628">
        <ele>796</ele>
        <time>2020-05-22T15:38:34Z</time>
      </trkpt>
      <trkpt lat="47.0959" lon="6.44629">
        <ele>796</ele>
        <time>2020-05-22T15:38:35Z</time>
      </trkpt>
      <trkpt lat="47.09586" lon="6.44628">
        <ele>795.8</ele>
        <time>2020-05-22T15:38:36Z</time>
      </trkpt>
      <trkpt lat="47.09581" lon="6.44628">
        <ele>795.8</ele>
        <time>2020-05-22T15:38:37Z</time>
      </trkpt>
      <trkpt lat="47.09576" lon="6.44627">
        <ele>795.6</ele>
        <time>2020-05-22T15:38:38Z</time>
      </trkpt>
      <trkpt lat="47.09571" lon="6.44626">
        <ele>795.6</ele>
        <time>2020-05-22T15:38:39Z</time>
      </trkpt>
      <trkpt lat="47.09566" lon="6.44625">
        <ele>795.6</ele>
        <time>2020-05-22T15:38:40Z</time>
      </trkpt>
      <trkpt lat="47.09561" lon="6.44624">
        <ele>795.4</ele>
        <time>2020-05-22T15:38:41Z</time>
      </trkpt>
      <trkpt lat="47.09555" lon="6.44622">
        <ele>795.4</ele>
        <time>2020-05-22T15:38:42Z</time>
      </trkpt>
      <trkpt lat="47.0955" lon="6.4462">
        <ele>795</ele>
        <time>2020-05-22T15:38:43Z</time>
      </trkpt>
      <trkpt lat="47.09545" lon="6.44619">
        <ele>795</ele>
        <time>2020-05-22T15:38:44Z</time>
      </trkpt>
      <trkpt lat="47.0954" lon="6.44617">
        <ele>794.8</ele>
        <time>2020-05-22T15:38:45Z</time>
      </trkpt>
      <trkpt lat="47.09534" lon="6.44615">
        <ele>794.8</ele>
        <time>2020-05-22T15:38:46Z</time>
      </trkpt>
      <trkpt lat="47.09529" lon="6.44614">
        <ele>794.8</ele>
        <time>2020-05-22T15:38:47Z</time>
      </trkpt>
      <trkpt lat="47.09524" lon="6.44613">
        <ele>794.6</ele>
        <time>2020-05-22T15:38:48Z</time>
      </trkpt>
      <trkpt lat="47.09519" lon="6.44611">
        <ele>794.6</ele>
        <time>2020-05-22T15:38:49Z</time>
      </trkpt>
      <trkpt lat="47.09514" lon="6.4461">
        <ele>794.6</ele>
        <time>2020-05-22T15:38:50Z</time>
      </trkpt>
      <trkpt lat="47.09509" lon="6.44609">
        <ele>794.6</ele>
        <time>2020-05-22T15:38:51Z</time>
      </trkpt>
      <trkpt lat="47.09504" lon="6.44607">
        <ele>794.6</ele>
        <time>2020-05-22T15:38:52Z</time>
      </trkpt>
      <trkpt lat="47.095" lon="6.44604">
        <ele>794.6</ele>
        <time>2020-05-22T15:38:53Z</time>
      </trkpt>
      <trkpt lat="47.09495" lon="6.44602">
        <ele>794.6</ele>
        <time>2020-05-22T15:38:54Z</time>
      </trkpt>
      <trkpt lat="47.0949" lon="6.44601">
        <ele>794.6</ele>
        <time>2020-05-22T15:38:55Z</time>
      </trkpt>
      <trkpt lat="47.09485" lon="6.44599">
        <ele>794.8</ele>
        <time>2020-05-22T15:38:56Z</time>
      </trkpt>
      <trkpt lat="47.0948" lon="6.44599">
        <ele>794.8</ele>
        <time>2020-05-22T15:38:57Z</time>
      </trkpt>
      <trkpt lat="47.09476" lon="6.44597">
        <ele>794.8</ele>
        <time>2020-05-22T15:38:58Z</time>
      </trkpt>
      <trkpt lat="47.09471" lon="6.44596">
        <ele>795</ele>
        <time>2020-05-22T15:38:59Z</time>
      </trkpt>
      <trkpt lat="47.09466" lon="6.44595">
        <ele>795</ele>
        <time>2020-05-22T15:39:00Z</time>
      </trkpt>
      <trkpt lat="47.09462" lon="6.44594">
        <ele>795</ele>
        <time>2020-05-22T15:39:01Z</time>
      </trkpt>
      <trkpt lat="47.09458" lon="6.44592">
        <ele>795.4</ele>
        <time>2020-05-22T15:39:02Z</time>
      </trkpt>
      <trkpt lat="47.09453" lon="6.44591">
        <ele>795.4</ele>
        <time>2020-05-22T15:39:03Z</time>
      </trkpt>
      <trkpt lat="47.09449" lon="6.4459">
        <ele>795.4</ele>
        <time>2020-05-22T15:39:04Z</time>
      </trkpt>
      <trkpt lat="47.09445" lon="6.44589">
        <ele>795.6</ele>
        <time>2020-05-22T15:39:05Z</time>
      </trkpt>
      <trkpt lat="47.09441" lon="6.44587">
        <ele>795.6</ele>
        <time>2020-05-22T15:39:06Z</time>
      </trkpt>
      <trkpt lat="47.09437" lon="6.44586">
        <ele>795.6</ele>
        <time>2020-05-22T15:39:07Z</time>
      </trkpt>
      <trkpt lat="47.09434" lon="6.44585">
        <ele>795.8</ele>
        <time>2020-05-22T15:39:08Z</time>
      </trkpt>
      <trkpt lat="47.0943" lon="6.44583">
        <ele>795.8</ele>
        <time>2020-05-22T15:39:09Z</time>
      </trkpt>
      <trkpt lat="47.09426" lon="6.44582">
        <ele>796.2</ele>
        <time>2020-05-22T15:39:10Z</time>
      </trkpt>
      <trkpt lat="47.09423" lon="6.44581">
        <ele>796.2</ele>
        <time>2020-05-22T15:39:11Z</time>
      </trkpt>
      <trkpt lat="47.0942" lon="6.44579">
        <ele>796.2</ele>
        <time>2020-05-22T15:39:12Z</time>
      </trkpt>
      <trkpt lat="47.09417" lon="6.44578">
        <ele>796.2</ele>
        <time>2020-05-22T15:39:13Z</time>
      </trkpt>
      <trkpt lat="47.09414" lon="6.44577">
        <ele>796.4</ele>
        <time>2020-05-22T15:39:14Z</time>
      </trkpt>
      <trkpt lat="47.09411" lon="6.44575">
        <ele>796.4</ele>
        <time>2020-05-22T15:39:15Z</time>
      </trkpt>
      <trkpt lat="47.09408" lon="6.44574">
        <ele>796.4</ele>
        <time>2020-05-22T15:39:16Z</time>
      </trkpt>
      <trkpt lat="47.09405" lon="6.44572">
        <ele>796.8</ele>
        <time>2020-05-22T15:39:17Z</time>
      </trkpt>
      <trkpt lat="47.09403" lon="6.44569">
        <ele>796.8</ele>
        <time>2020-05-22T15:39:18Z</time>
      </trkpt>
      <trkpt lat="47.09401" lon="6.44567">
        <ele>796.8</ele>
        <time>2020-05-22T15:39:19Z</time>
      </trkpt>
      <trkpt lat="47.09398" lon="6.44564">
        <ele>797</ele>
        <time>2020-05-22T15:39:20Z</time>
      </trkpt>
      <trkpt lat="47.09396" lon="6.44561">
        <ele>797</ele>
        <time>2020-05-22T15:39:21Z</time>
      </trkpt>
      <trkpt lat="47.09393" lon="6.44558">
        <ele>797</ele>
        <time>2020-05-22T15:39:22Z</time>
      </trkpt>
      <trkpt lat="47.09391" lon="6.44554">
        <ele>797.4</ele>
        <time>2020-05-22T15:39:23Z</time>
      </trkpt>
      <trkpt lat="47.09389" lon="6.44551">
        <ele>797.4</ele>
        <time>2020-05-22T15:39:24Z</time>
      </trkpt>
      <trkpt lat="47.09387" lon="6.44547">
        <ele>797.4</ele>
        <time>2020-05-22T15:39:25Z</time>
      </trkpt>
      <trkpt lat="47.09384" lon="6.44544">
        <ele>797.4</ele>
        <time>2020-05-22T15:39:26Z</time>
      </trkpt>
      <trkpt lat="47.09381" lon="6.44542">
        <ele>797.4</ele>
        <time>2020-05-22T15:39:27Z</time>
      </trkpt>
      <trkpt lat="47.09378" lon="6.44541">
        <ele>797.4</ele>
        <time>2020-05-22T15:39:28Z</time>
      </trkpt>
      <trkpt lat="47.09375" lon="6.4454">
        <ele>797.4</ele>
        <time>2020-05-22T15:39:29Z</time>
      </trkpt>
      <trkpt lat="47.09371" lon="6.4454">
        <ele>797.4</ele>
        <time>2020-05-22T15:39:30Z</time>
      </trkpt>
      <trkpt lat="47.09368" lon="6.44541">
        <ele>797.4</ele>
        <time>2020-05-22T15:39:31Z</time>
      </trkpt>
      <trkpt lat="47.09364" lon="6.44543">
        <ele>797.4</ele>
        <time>2020-05-22T15:39:32Z</time>
      </trkpt>
      <trkpt lat="47.09361" lon="6.44545">
        <ele>797.4</ele>
        <time>2020-05-22T15:39:33Z</time>
      </trkpt>
      <trkpt lat="47.09358" lon="6.44548">
        <ele>797.6</ele>
        <time>2020-05-22T15:39:34Z</time>
      </trkpt>
      <trkpt lat="47.09356" lon="6.44549">
        <ele>797.6</ele>
        <time>2020-05-22T15:39:35Z</time>
      </trkpt>
      <trkpt lat="47.09353" lon="6.44551">
        <ele>797.6</ele>
        <time>2020-05-22T15:39:36Z</time>
      </trkpt>
      <trkpt lat="47.0935" lon="6.44553">
        <ele>798</ele>
        <time>2020-05-22T15:39:37Z</time>
      </trkpt>
      <trkpt lat="47.09348" lon="6.44555">
        <ele>798</ele>
        <time>2020-05-22T15:39:38Z</time>
      </trkpt>
      <trkpt lat="47.09346" lon="6.44557">
        <ele>798.2</ele>
        <time>2020-05-22T15:39:39Z</time>
      </trkpt>
      <trkpt lat="47.09344" lon="6.44559">
        <ele>798.2</ele>
        <time>2020-05-22T15:39:40Z</time>
      </trkpt>
      <trkpt lat="47.09341" lon="6.44561">
        <ele>798.4</ele>
        <time>2020-05-22T15:39:41Z</time>
      </trkpt>
      <trkpt lat="47.09339" lon="6.44563">
        <ele>798.4</ele>
        <time>2020-05-22T15:39:42Z</time>
      </trkpt>
      <trkpt lat="47.09337" lon="6.44564">
        <ele>798.6</ele>
        <time>2020-05-22T15:39:43Z</time>
      </trkpt>
      <trkpt lat="47.09336" lon="6.44565">
        <ele>798.6</ele>
        <time>2020-05-22T15:39:44Z</time>
      </trkpt>
      <trkpt lat="47.09336" lon="6.44566">
        <ele>798.6</ele>
        <time>2020-05-22T15:39:45Z</time>
      </trkpt>
      <trkpt lat="47.09336" lon="6.44566">
        <ele>798.6</ele>
        <time>2020-05-22T15:39:46Z</time>
      </trkpt>
      <trkpt lat="47.09331" lon="6.44568">
        <ele>799.4</ele>
        <time>2020-05-22T15:40:22Z</time>
      </trkpt>
      <trkpt lat="47.0933" lon="6.44569">
        <ele>799.4</ele>
        <time>2020-05-22T15:40:23Z</time>
      </trkpt>
      <trkpt lat="47.09328" lon="6.4457">
        <ele>799.4</ele>
        <time>2020-05-22T15:40:24Z</time>
      </trkpt>
      <trkpt lat="47.09326" lon="6.44571">
        <ele>799.4</ele>
        <time>2020-05-22T15:40:25Z</time>
      </trkpt>
      <trkpt lat="47.09324" lon="6.44571">
        <ele>799.6</ele>
        <time>2020-05-22T15:40:26Z</time>
      </trkpt>
      <trkpt lat="47.09322" lon="6.44572">
        <ele>799.6</ele>
        <time>2020-05-22T15:40:27Z</time>
      </trkpt>
      <trkpt lat="47.0932" lon="6.44573">
        <ele>799.6</ele>
        <time>2020-05-22T15:40:28Z</time>
      </trkpt>
      <trkpt lat="47.09318" lon="6.44574">
        <ele>799.6</ele>
        <time>2020-05-22T15:40:29Z</time>
      </trkpt>
      <trkpt lat="47.09316" lon="6.44574">
        <ele>799.8</ele>
        <time>2020-05-22T15:40:30Z</time>
      </trkpt>
      <trkpt lat="47.09314" lon="6.44575">
        <ele>799.8</ele>
        <time>2020-05-22T15:40:31Z</time>
      </trkpt>
      <trkpt lat="47.09312" lon="6.44576">
        <ele>800.2</ele>
        <time>2020-05-22T15:40:32Z</time>
      </trkpt>
      <trkpt lat="47.0931" lon="6.44577">
        <ele>800.2</ele>
        <time>2020-05-22T15:40:33Z</time>
      </trkpt>
      <trkpt lat="47.09308" lon="6.44577">
        <ele>800.4</ele>
        <time>2020-05-22T15:40:34Z</time>
      </trkpt>
      <trkpt lat="47.09305" lon="6.44578">
        <ele>800.4</ele>
        <time>2020-05-22T15:40:35Z</time>
      </trkpt>
      <trkpt lat="47.09303" lon="6.44579">
        <ele>800.6</ele>
        <time>2020-05-22T15:40:36Z</time>
      </trkpt>
      <trkpt lat="47.09301" lon="6.44579">
        <ele>800.6</ele>
        <time>2020-05-22T15:40:37Z</time>
      </trkpt>
      <trkpt lat="47.09299" lon="6.4458">
        <ele>800.8</ele>
        <time>2020-05-22T15:40:38Z</time>
      </trkpt>
      <trkpt lat="47.09297" lon="6.44581">
        <ele>800.8</ele>
        <time>2020-05-22T15:40:39Z</time>
      </trkpt>
      <trkpt lat="47.09294" lon="6.44581">
        <ele>801.2</ele>
        <time>2020-05-22T15:40:40Z</time>
      </trkpt>
      <trkpt lat="47.09292" lon="6.44582">
        <ele>801.4</ele>
        <time>2020-05-22T15:40:41Z</time>
      </trkpt>
      <trkpt lat="47.0929" lon="6.44583">
        <ele>801.4</ele>
        <time>2020-05-22T15:40:42Z</time>
      </trkpt>
      <trkpt lat="47.09288" lon="6.44584">
        <ele>801.4</ele>
        <time>2020-05-22T15:40:43Z</time>
      </trkpt>
      <trkpt lat="47.09286" lon="6.44584">
        <ele>801.6</ele>
        <time>2020-05-22T15:40:44Z</time>
      </trkpt>
      <trkpt lat="47.09284" lon="6.44585">
        <ele>801.6</ele>
        <time>2020-05-22T15:40:45Z</time>
      </trkpt>
      <trkpt lat="47.09282" lon="6.44586">
        <ele>801.8</ele>
        <time>2020-05-22T15:40:46Z</time>
      </trkpt>
      <trkpt lat="47.0928" lon="6.44587">
        <ele>801.8</ele>
        <time>2020-05-22T15:40:47Z</time>
      </trkpt>
      <trkpt lat="47.09278" lon="6.44587">
        <ele>801.8</ele>
        <time>2020-05-22T15:40:48Z</time>
      </trkpt>
      <trkpt lat="47.09276" lon="6.44588">
        <ele>802.2</ele>
        <time>2020-05-22T15:40:49Z</time>
      </trkpt>
      <trkpt lat="47.09274" lon="6.44589">
        <ele>802.2</ele>
        <time>2020-05-22T15:40:50Z</time>
      </trkpt>
      <trkpt lat="47.09272" lon="6.4459">
        <ele>802.6</ele>
        <time>2020-05-22T15:40:51Z</time>
      </trkpt>
      <trkpt lat="47.0927" lon="6.44591">
        <ele>802.6</ele>
        <time>2020-05-22T15:40:52Z</time>
      </trkpt>
      <trkpt lat="47.09268" lon="6.44592">
        <ele>803</ele>
        <time>2020-05-22T15:40:53Z</time>
      </trkpt>
      <trkpt lat="47.09266" lon="6.44592">
        <ele>803</ele>
        <time>2020-05-22T15:40:54Z</time>
      </trkpt>
      <trkpt lat="47.09264" lon="6.44593">
        <ele>803</ele>
        <time>2020-05-22T15:40:55Z</time>
      </trkpt>
      <trkpt lat="47.09262" lon="6.44594">
        <ele>803.2</ele>
        <time>2020-05-22T15:40:56Z</time>
      </trkpt>
      <trkpt lat="47.0926" lon="6.44595">
        <ele>803.2</ele>
        <time>2020-05-22T15:40:57Z</time>
      </trkpt>
      <trkpt lat="47.09259" lon="6.44595">
        <ele>803.6</ele>
        <time>2020-05-22T15:40:58Z</time>
      </trkpt>
      <trkpt lat="47.09257" lon="6.44596">
        <ele>803.6</ele>
        <time>2020-05-22T15:40:59Z</time>
      </trkpt>
      <trkpt lat="47.09255" lon="6.44597">
        <ele>803.8</ele>
        <time>2020-05-22T15:41:00Z</time>
      </trkpt>
      <trkpt lat="47.09253" lon="6.44598">
        <ele>803.8</ele>
        <time>2020-05-22T15:41:01Z</time>
      </trkpt>
      <trkpt lat="47.09251" lon="6.44599">
        <ele>803.8</ele>
        <time>2020-05-22T15:41:02Z</time>
      </trkpt>
      <trkpt lat="47.09249" lon="6.44599">
        <ele>804.2</ele>
        <time>2020-05-22T15:41:03Z</time>
      </trkpt>
      <trkpt lat="47.09247" lon="6.446">
        <ele>804.2</ele>
        <time>2020-05-22T15:41:04Z</time>
      </trkpt>
      <trkpt lat="47.09245" lon="6.44601">
        <ele>804.2</ele>
        <time>2020-05-22T15:41:05Z</time>
      </trkpt>
      <trkpt lat="47.09244" lon="6.44602">
        <ele>804.4</ele>
        <time>2020-05-22T15:41:06Z</time>
      </trkpt>
      <trkpt lat="47.09242" lon="6.44603">
        <ele>804.4</ele>
        <time>2020-05-22T15:41:07Z</time>
      </trkpt>
      <trkpt lat="47.0924" lon="6.44604">
        <ele>804.8</ele>
        <time>2020-05-22T15:41:08Z</time>
      </trkpt>
      <trkpt lat="47.09238" lon="6.44605">
        <ele>804.8</ele>
        <time>2020-05-22T15:41:09Z</time>
      </trkpt>
      <trkpt lat="47.09236" lon="6.44607">
        <ele>805</ele>
        <time>2020-05-22T15:41:10Z</time>
      </trkpt>
      <trkpt lat="47.09235" lon="6.44607">
        <ele>805</ele>
        <time>2020-05-22T15:41:11Z</time>
      </trkpt>
      <trkpt lat="47.09233" lon="6.44608">
        <ele>805.2</ele>
        <time>2020-05-22T15:41:12Z</time>
      </trkpt>
      <trkpt lat="47.09232" lon="6.44608">
        <ele>805.2</ele>
        <time>2020-05-22T15:41:13Z</time>
      </trkpt>
      <trkpt lat="47.0923" lon="6.44609">
        <ele>805.2</ele>
        <time>2020-05-22T15:41:14Z</time>
      </trkpt>
      <trkpt lat="47.09228" lon="6.4461">
        <ele>805.6</ele>
        <time>2020-05-22T15:41:15Z</time>
      </trkpt>
      <trkpt lat="47.09227" lon="6.44611">
        <ele>805.6</ele>
        <time>2020-05-22T15:41:16Z</time>
      </trkpt>
      <trkpt lat="47.09225" lon="6.44612">
        <ele>806</ele>
        <time>2020-05-22T15:41:17Z</time>
      </trkpt>
      <trkpt lat="47.09223" lon="6.44613">
        <ele>806</ele>
        <time>2020-05-22T15:41:18Z</time>
      </trkpt>
      <trkpt lat="47.09221" lon="6.44615">
        <ele>806.4</ele>
        <time>2020-05-22T15:41:19Z</time>
      </trkpt>
      <trkpt lat="47.0922" lon="6.44616">
        <ele>806.6</ele>
        <time>2020-05-22T15:41:20Z</time>
      </trkpt>
      <trkpt lat="47.09218" lon="6.44617">
        <ele>806.8</ele>
        <time>2020-05-22T15:41:21Z</time>
      </trkpt>
      <trkpt lat="47.09216" lon="6.44618">
        <ele>807.2</ele>
        <time>2020-05-22T15:41:22Z</time>
      </trkpt>
      <trkpt lat="47.09214" lon="6.44619">
        <ele>807.4</ele>
        <time>2020-05-22T15:41:23Z</time>
      </trkpt>
      <trkpt lat="47.09213" lon="6.4462">
        <ele>807.4</ele>
        <time>2020-05-22T15:41:24Z</time>
      </trkpt>
      <trkpt lat="47.09211" lon="6.44621">
        <ele>807.8</ele>
        <time>2020-05-22T15:41:25Z</time>
      </trkpt>
      <trkpt lat="47.0921" lon="6.44623">
        <ele>807.8</ele>
        <time>2020-05-22T15:41:26Z</time>
      </trkpt>
      <trkpt lat="47.09208" lon="6.44624">
        <ele>808.2</ele>
        <time>2020-05-22T15:41:27Z</time>
      </trkpt>
      <trkpt lat="47.09207" lon="6.44626">
        <ele>808.2</ele>
        <time>2020-05-22T15:41:28Z</time>
      </trkpt>
      <trkpt lat="47.09205" lon="6.44628">
        <ele>808.4</ele>
        <time>2020-05-22T15:41:29Z</time>
      </trkpt>
      <trkpt lat="47.09204" lon="6.44629">
        <ele>808.4</ele>
        <time>2020-05-22T15:41:30Z</time>
      </trkpt>
      <trkpt lat="47.09202" lon="6.44631">
        <ele>808.8</ele>
        <time>2020-05-22T15:41:31Z</time>
      </trkpt>
      <trkpt lat="47.09201" lon="6.44632">
        <ele>808.8</ele>
        <time>2020-05-22T15:41:32Z</time>
      </trkpt>
      <trkpt lat="47.09199" lon="6.44634">
        <ele>809</ele>
        <time>2020-05-22T15:41:33Z</time>
      </trkpt>
      <trkpt lat="47.09198" lon="6.44635">
        <ele>809</ele>
        <time>2020-05-22T15:41:34Z</time>
      </trkpt>
      <trkpt lat="47.09197" lon="6.44637">
        <ele>809.4</ele>
        <time>2020-05-22T15:41:35Z</time>
      </trkpt>
      <trkpt lat="47.09196" lon="6.44638">
        <ele>809.4</ele>
        <time>2020-05-22T15:41:36Z</time>
      </trkpt>
      <trkpt lat="47.09195" lon="6.4464">
        <ele>809.6</ele>
        <time>2020-05-22T15:41:37Z</time>
      </trkpt>
      <trkpt lat="47.09194" lon="6.44642">
        <ele>809.6</ele>
        <time>2020-05-22T15:41:38Z</time>
      </trkpt>
      <trkpt lat="47.09193" lon="6.44643">
        <ele>810</ele>
        <time>2020-05-22T15:41:39Z</time>
      </trkpt>
      <trkpt lat="47.09191" lon="6.44645">
        <ele>810</ele>
        <time>2020-05-22T15:41:40Z</time>
      </trkpt>
      <trkpt lat="47.0919" lon="6.44646">
        <ele>810.2</ele>
        <time>2020-05-22T15:41:41Z</time>
      </trkpt>
      <trkpt lat="47.09189" lon="6.44647">
        <ele>810.2</ele>
        <time>2020-05-22T15:41:42Z</time>
      </trkpt>
      <trkpt lat="47.09188" lon="6.44648">
        <ele>810.4</ele>
        <time>2020-05-22T15:41:43Z</time>
      </trkpt>
      <trkpt lat="47.09187" lon="6.4465">
        <ele>810.4</ele>
        <time>2020-05-22T15:41:44Z</time>
      </trkpt>
      <trkpt lat="47.09186" lon="6.44651">
        <ele>810.6</ele>
        <time>2020-05-22T15:41:45Z</time>
      </trkpt>
      <trkpt lat="47.09185" lon="6.44653">
        <ele>810.6</ele>
        <time>2020-05-22T15:41:46Z</time>
      </trkpt>
      <trkpt lat="47.09184" lon="6.44654">
        <ele>810.6</ele>
        <time>2020-05-22T15:41:47Z</time>
      </trkpt>
      <trkpt lat="47.09183" lon="6.44656">
        <ele>811</ele>
        <time>2020-05-22T15:41:48Z</time>
      </trkpt>
      <trkpt lat="47.09182" lon="6.44658">
        <ele>811</ele>
        <time>2020-05-22T15:41:49Z</time>
      </trkpt>
      <trkpt lat="47.09181" lon="6.44659">
        <ele>811.2</ele>
        <time>2020-05-22T15:41:50Z</time>
      </trkpt>
      <trkpt lat="47.0918" lon="6.44661">
        <ele>811.2</ele>
        <time>2020-05-22T15:41:51Z</time>
      </trkpt>
      <trkpt lat="47.09179" lon="6.44662">
        <ele>811.2</ele>
        <time>2020-05-22T15:41:52Z</time>
      </trkpt>
      <trkpt lat="47.09178" lon="6.44664">
        <ele>811.4</ele>
        <time>2020-05-22T15:41:53Z</time>
      </trkpt>
      <trkpt lat="47.09177" lon="6.44665">
        <ele>811.4</ele>
        <time>2020-05-22T15:41:54Z</time>
      </trkpt>
      <trkpt lat="47.09176" lon="6.44667">
        <ele>811.6</ele>
        <time>2020-05-22T15:41:55Z</time>
      </trkpt>
      <trkpt lat="47.09175" lon="6.44668">
        <ele>811.6</ele>
        <time>2020-05-22T15:41:56Z</time>
      </trkpt>
      <trkpt lat="47.09174" lon="6.4467">
        <ele>811.6</ele>
        <time>2020-05-22T15:41:57Z</time>
      </trkpt>
      <trkpt lat="47.09173" lon="6.44672">
        <ele>812</ele>
        <time>2020-05-22T15:41:58Z</time>
      </trkpt>
      <trkpt lat="47.09172" lon="6.44674">
        <ele>812</ele>
        <time>2020-05-22T15:41:59Z</time>
      </trkpt>
      <trkpt lat="47.09171" lon="6.44675">
        <ele>812.2</ele>
        <time>2020-05-22T15:42:00Z</time>
      </trkpt>
      <trkpt lat="47.09169" lon="6.44677">
        <ele>812.2</ele>
        <time>2020-05-22T15:42:01Z</time>
      </trkpt>
      <trkpt lat="47.09168" lon="6.44679">
        <ele>812.2</ele>
        <time>2020-05-22T15:42:02Z</time>
      </trkpt>
      <trkpt lat="47.09167" lon="6.4468">
        <ele>812.4</ele>
        <time>2020-05-22T15:42:03Z</time>
      </trkpt>
      <trkpt lat="47.09166" lon="6.44682">
        <ele>812.4</ele>
        <time>2020-05-22T15:42:04Z</time>
      </trkpt>
      <trkpt lat="47.09165" lon="6.44684">
        <ele>812.8</ele>
        <time>2020-05-22T15:42:05Z</time>
      </trkpt>
      <trkpt lat="47.09164" lon="6.44686">
        <ele>812.8</ele>
        <time>2020-05-22T15:42:06Z</time>
      </trkpt>
      <trkpt lat="47.09163" lon="6.44688">
        <ele>813.2</ele>
        <time>2020-05-22T15:42:07Z</time>
      </trkpt>
      <trkpt lat="47.09162" lon="6.4469">
        <ele>813.2</ele>
        <time>2020-05-22T15:42:08Z</time>
      </trkpt>
      <trkpt lat="47.0916" lon="6.44691">
        <ele>813.4</ele>
        <time>2020-05-22T15:42:09Z</time>
      </trkpt>
      <trkpt lat="47.09159" lon="6.44693">
        <ele>813.4</ele>
        <time>2020-05-22T15:42:10Z</time>
      </trkpt>
      <trkpt lat="47.09158" lon="6.44695">
        <ele>813.8</ele>
        <time>2020-05-22T15:42:11Z</time>
      </trkpt>
      <trkpt lat="47.09156" lon="6.44697">
        <ele>813.8</ele>
        <time>2020-05-22T15:42:12Z</time>
      </trkpt>
      <trkpt lat="47.09155" lon="6.44699">
        <ele>814</ele>
        <time>2020-05-22T15:42:13Z</time>
      </trkpt>
      <trkpt lat="47.09154" lon="6.44701">
        <ele>814</ele>
        <time>2020-05-22T15:42:14Z</time>
      </trkpt>
      <trkpt lat="47.09153" lon="6.44703">
        <ele>814.2</ele>
        <time>2020-05-22T15:42:15Z</time>
      </trkpt>
      <trkpt lat="47.09152" lon="6.44705">
        <ele>814.2</ele>
        <time>2020-05-22T15:42:16Z</time>
      </trkpt>
      <trkpt lat="47.0915" lon="6.44706">
        <ele>814.6</ele>
        <time>2020-05-22T15:42:17Z</time>
      </trkpt>
      <trkpt lat="47.09149" lon="6.44708">
        <ele>814.6</ele>
        <time>2020-05-22T15:42:18Z</time>
      </trkpt>
      <trkpt lat="47.09148" lon="6.4471">
        <ele>814.6</ele>
        <time>2020-05-22T15:42:19Z</time>
      </trkpt>
      <trkpt lat="47.09146" lon="6.44711">
        <ele>814.8</ele>
        <time>2020-05-22T15:42:20Z</time>
      </trkpt>
      <trkpt lat="47.09145" lon="6.44713">
        <ele>814.8</ele>
        <time>2020-05-22T15:42:21Z</time>
      </trkpt>
      <trkpt lat="47.09144" lon="6.44715">
        <ele>814.8</ele>
        <time>2020-05-22T15:42:22Z</time>
      </trkpt>
      <trkpt lat="47.09143" lon="6.44717">
        <ele>815</ele>
        <time>2020-05-22T15:42:23Z</time>
      </trkpt>
      <trkpt lat="47.09142" lon="6.4472">
        <ele>815</ele>
        <time>2020-05-22T15:42:24Z</time>
      </trkpt>
      <trkpt lat="47.09141" lon="6.44721">
        <ele>815</ele>
        <time>2020-05-22T15:42:25Z</time>
      </trkpt>
      <trkpt lat="47.09139" lon="6.44723">
        <ele>815.4</ele>
        <time>2020-05-22T15:42:26Z</time>
      </trkpt>
      <trkpt lat="47.09138" lon="6.44725">
        <ele>815.4</ele>
        <time>2020-05-22T15:42:27Z</time>
      </trkpt>
      <trkpt lat="47.09137" lon="6.44727">
        <ele>815.6</ele>
        <time>2020-05-22T15:42:28Z</time>
      </trkpt>
      <trkpt lat="47.09136" lon="6.44728">
        <ele>815.6</ele>
        <time>2020-05-22T15:42:29Z</time>
      </trkpt>
      <trkpt lat="47.09135" lon="6.4473">
        <ele>815.8</ele>
        <time>2020-05-22T15:42:30Z</time>
      </trkpt>
      <trkpt lat="47.09134" lon="6.44732">
        <ele>815.8</ele>
        <time>2020-05-22T15:42:31Z</time>
      </trkpt>
      <trkpt lat="47.09132" lon="6.44733">
        <ele>815.8</ele>
        <time>2020-05-22T15:42:32Z</time>
      </trkpt>
      <trkpt lat="47.09131" lon="6.44735">
        <ele>815.8</ele>
        <time>2020-05-22T15:42:33Z</time>
      </trkpt>
      <trkpt lat="47.0913" lon="6.44737">
        <ele>815.8</ele>
        <time>2020-05-22T15:42:34Z</time>
      </trkpt>
      <trkpt lat="47.09128" lon="6.44739">
        <ele>816.2</ele>
        <time>2020-05-22T15:42:35Z</time>
      </trkpt>
      <trkpt lat="47.09127" lon="6.44741">
        <ele>816.2</ele>
        <time>2020-05-22T15:42:36Z</time>
      </trkpt>
      <trkpt lat="47.09125" lon="6.44743">
        <ele>816.2</ele>
        <time>2020-05-22T15:42:37Z</time>
      </trkpt>
      <trkpt lat="47.09124" lon="6.44745">
        <ele>816.4</ele>
        <time>2020-05-22T15:42:38Z</time>
      </trkpt>
      <trkpt lat="47.09122" lon="6.44748">
        <ele>816.4</ele>
        <time>2020-05-22T15:42:39Z</time>
      </trkpt>
      <trkpt lat="47.09121" lon="6.4475">
        <ele>816.6</ele>
        <time>2020-05-22T15:42:40Z</time>
      </trkpt>
      <trkpt lat="47.09119" lon="6.44752">
        <ele>816.6</ele>
        <time>2020-05-22T15:42:41Z</time>
      </trkpt>
      <trkpt lat="47.09118" lon="6.44755">
        <ele>816.8</ele>
        <time>2020-05-22T15:42:42Z</time>
      </trkpt>
      <trkpt lat="47.09117" lon="6.44757">
        <ele>816.8</ele>
        <time>2020-05-22T15:42:43Z</time>
      </trkpt>
      <trkpt lat="47.09115" lon="6.44759">
        <ele>817.2</ele>
        <time>2020-05-22T15:42:44Z</time>
      </trkpt>
      <trkpt lat="47.09114" lon="6.44761">
        <ele>817.2</ele>
        <time>2020-05-22T15:42:45Z</time>
      </trkpt>
      <trkpt lat="47.09112" lon="6.44763">
        <ele>817.2</ele>
        <time>2020-05-22T15:42:46Z</time>
      </trkpt>
      <trkpt lat="47.09111" lon="6.44765">
        <ele>817.4</ele>
        <time>2020-05-22T15:42:47Z</time>
      </trkpt>
      <trkpt lat="47.09109" lon="6.44768">
        <ele>817.4</ele>
        <time>2020-05-22T15:42:48Z</time>
      </trkpt>
      <trkpt lat="47.09108" lon="6.4477">
        <ele>817.6</ele>
        <time>2020-05-22T15:42:49Z</time>
      </trkpt>
      <trkpt lat="47.09106" lon="6.44773">
        <ele>817.6</ele>
        <time>2020-05-22T15:42:50Z</time>
      </trkpt>
      <trkpt lat="47.09104" lon="6.44775">
        <ele>817.6</ele>
        <time>2020-05-22T15:42:51Z</time>
      </trkpt>
      <trkpt lat="47.09103" lon="6.44778">
        <ele>818</ele>
        <time>2020-05-22T15:42:52Z</time>
      </trkpt>
      <trkpt lat="47.09101" lon="6.44781">
        <ele>818</ele>
        <time>2020-05-22T15:42:53Z</time>
      </trkpt>
      <trkpt lat="47.09099" lon="6.44783">
        <ele>818.2</ele>
        <time>2020-05-22T15:42:54Z</time>
      </trkpt>
      <trkpt lat="47.09098" lon="6.44786">
        <ele>818.2</ele>
        <time>2020-05-22T15:42:55Z</time>
      </trkpt>
      <trkpt lat="47.09096" lon="6.44789">
        <ele>818.2</ele>
        <time>2020-05-22T15:42:56Z</time>
      </trkpt>
      <trkpt lat="47.09095" lon="6.44792">
        <ele>818.2</ele>
        <time>2020-05-22T15:42:57Z</time>
      </trkpt>
      <trkpt lat="47.09093" lon="6.44794">
        <ele>818.4</ele>
        <time>2020-05-22T15:42:58Z</time>
      </trkpt>
      <trkpt lat="47.09092" lon="6.44797">
        <ele>818.4</ele>
        <time>2020-05-22T15:42:59Z</time>
      </trkpt>
      <trkpt lat="47.0909" lon="6.44799">
        <ele>818.4</ele>
        <time>2020-05-22T15:43:00Z</time>
      </trkpt>
      <trkpt lat="47.09088" lon="6.44801">
        <ele>818.6</ele>
        <time>2020-05-22T15:43:01Z</time>
      </trkpt>
      <trkpt lat="47.09087" lon="6.44804">
        <ele>818.6</ele>
        <time>2020-05-22T15:43:02Z</time>
      </trkpt>
      <trkpt lat="47.09085" lon="6.44806">
        <ele>819</ele>
        <time>2020-05-22T15:43:03Z</time>
      </trkpt>
      <trkpt lat="47.09083" lon="6.44808">
        <ele>819</ele>
        <time>2020-05-22T15:43:04Z</time>
      </trkpt>
      <trkpt lat="47.09082" lon="6.4481">
        <ele>819.2</ele>
        <time>2020-05-22T15:43:05Z</time>
      </trkpt>
      <trkpt lat="47.09081" lon="6.44812">
        <ele>819.2</ele>
        <time>2020-05-22T15:43:06Z</time>
      </trkpt>
      <trkpt lat="47.09079" lon="6.44814">
        <ele>819.2</ele>
        <time>2020-05-22T15:43:07Z</time>
      </trkpt>
      <trkpt lat="47.09078" lon="6.44816">
        <ele>819.4</ele>
        <time>2020-05-22T15:43:08Z</time>
      </trkpt>
      <trkpt lat="47.09077" lon="6.44818">
        <ele>819.4</ele>
        <time>2020-05-22T15:43:09Z</time>
      </trkpt>
      <trkpt lat="47.09075" lon="6.4482">
        <ele>819.8</ele>
        <time>2020-05-22T15:43:10Z</time>
      </trkpt>
      <trkpt lat="47.09074" lon="6.44822">
        <ele>819.8</ele>
        <time>2020-05-22T15:43:11Z</time>
      </trkpt>
      <trkpt lat="47.09073" lon="6.44825">
        <ele>820</ele>
        <time>2020-05-22T15:43:12Z</time>
      </trkpt>
      <trkpt lat="47.09072" lon="6.44827">
        <ele>820</ele>
        <time>2020-05-22T15:43:13Z</time>
      </trkpt>
      <trkpt lat="47.0907" lon="6.4483">
        <ele>820.2</ele>
        <time>2020-05-22T15:43:14Z</time>
      </trkpt>
      <trkpt lat="47.09069" lon="6.44832">
        <ele>820.2</ele>
        <time>2020-05-22T15:43:15Z</time>
      </trkpt>
      <trkpt lat="47.09067" lon="6.44834">
        <ele>820.2</ele>
        <time>2020-05-22T15:43:16Z</time>
      </trkpt>
      <trkpt lat="47.09066" lon="6.44837">
        <ele>820.6</ele>
        <time>2020-05-22T15:43:17Z</time>
      </trkpt>
      <trkpt lat="47.09064" lon="6.44839">
        <ele>820.6</ele>
        <time>2020-05-22T15:43:18Z</time>
      </trkpt>
      <trkpt lat="47.09063" lon="6.44841">
        <ele>821</ele>
        <time>2020-05-22T15:43:19Z</time>
      </trkpt>
      <trkpt lat="47.09061" lon="6.44843">
        <ele>821</ele>
        <time>2020-05-22T15:43:20Z</time>
      </trkpt>
      <trkpt lat="47.0906" lon="6.44845">
        <ele>821</ele>
        <time>2020-05-22T15:43:21Z</time>
      </trkpt>
      <trkpt lat="47.09058" lon="6.44847">
        <ele>821.2</ele>
        <time>2020-05-22T15:43:22Z</time>
      </trkpt>
      <trkpt lat="47.09057" lon="6.44849">
        <ele>821.2</ele>
        <time>2020-05-22T15:43:23Z</time>
      </trkpt>
      <trkpt lat="47.09055" lon="6.44852">
        <ele>821.4</ele>
        <time>2020-05-22T15:43:24Z</time>
      </trkpt>
      <trkpt lat="47.09053" lon="6.44854">
        <ele>821.4</ele>
        <time>2020-05-22T15:43:25Z</time>
      </trkpt>
      <trkpt lat="47.09052" lon="6.44856">
        <ele>821.4</ele>
        <time>2020-05-22T15:43:26Z</time>
      </trkpt>
      <trkpt lat="47.09051" lon="6.44858">
        <ele>821.8</ele>
        <time>2020-05-22T15:43:27Z</time>
      </trkpt>
      <trkpt lat="47.09049" lon="6.44861">
        <ele>821.8</ele>
        <time>2020-05-22T15:43:28Z</time>
      </trkpt>
      <trkpt lat="47.09048" lon="6.44863">
        <ele>822</ele>
        <time>2020-05-22T15:43:29Z</time>
      </trkpt>
      <trkpt lat="47.09046" lon="6.44865">
        <ele>822</ele>
        <time>2020-05-22T15:43:30Z</time>
      </trkpt>
      <trkpt lat="47.09045" lon="6.44867">
        <ele>822.4</ele>
        <time>2020-05-22T15:43:31Z</time>
      </trkpt>
      <trkpt lat="47.09043" lon="6.44869">
        <ele>822.4</ele>
        <time>2020-05-22T15:43:32Z</time>
      </trkpt>
      <trkpt lat="47.09042" lon="6.44871">
        <ele>822.6</ele>
        <time>2020-05-22T15:43:33Z</time>
      </trkpt>
      <trkpt lat="47.0904" lon="6.44873">
        <ele>822.6</ele>
        <time>2020-05-22T15:43:34Z</time>
      </trkpt>
      <trkpt lat="47.09039" lon="6.44875">
        <ele>823</ele>
        <time>2020-05-22T15:43:35Z</time>
      </trkpt>
      <trkpt lat="47.09037" lon="6.44877">
        <ele>823</ele>
        <time>2020-05-22T15:43:36Z</time>
      </trkpt>
      <trkpt lat="47.09036" lon="6.4488">
        <ele>823.2</ele>
        <time>2020-05-22T15:43:37Z</time>
      </trkpt>
      <trkpt lat="47.09034" lon="6.44882">
        <ele>823.2</ele>
        <time>2020-05-22T15:43:38Z</time>
      </trkpt>
      <trkpt lat="47.09033" lon="6.44884">
        <ele>823.6</ele>
        <time>2020-05-22T15:43:39Z</time>
      </trkpt>
      <trkpt lat="47.09031" lon="6.44887">
        <ele>823.6</ele>
        <time>2020-05-22T15:43:40Z</time>
      </trkpt>
      <trkpt lat="47.0903" lon="6.44889">
        <ele>824</ele>
        <time>2020-05-22T15:43:41Z</time>
      </trkpt>
      <trkpt lat="47.09028" lon="6.44891">
        <ele>824</ele>
        <time>2020-05-22T15:43:42Z</time>
      </trkpt>
      <trkpt lat="47.09027" lon="6.44894">
        <ele>824.2</ele>
        <time>2020-05-22T15:43:43Z</time>
      </trkpt>
      <trkpt lat="47.09025" lon="6.44896">
        <ele>824.2</ele>
        <time>2020-05-22T15:43:44Z</time>
      </trkpt>
      <trkpt lat="47.09023" lon="6.44899">
        <ele>824.4</ele>
        <time>2020-05-22T15:43:45Z</time>
      </trkpt>
      <trkpt lat="47.09022" lon="6.44901">
        <ele>824.8</ele>
        <time>2020-05-22T15:43:46Z</time>
      </trkpt>
      <trkpt lat="47.0902" lon="6.44903">
        <ele>824.8</ele>
        <time>2020-05-22T15:43:47Z</time>
      </trkpt>
      <trkpt lat="47.09018" lon="6.44906">
        <ele>825</ele>
        <time>2020-05-22T15:43:48Z</time>
      </trkpt>
      <trkpt lat="47.09017" lon="6.44908">
        <ele>825.2</ele>
        <time>2020-05-22T15:43:49Z</time>
      </trkpt>
      <trkpt lat="47.09015" lon="6.4491">
        <ele>825.2</ele>
        <time>2020-05-22T15:43:50Z</time>
      </trkpt>
      <trkpt lat="47.09014" lon="6.44913">
        <ele>825.6</ele>
        <time>2020-05-22T15:43:51Z</time>
      </trkpt>
      <trkpt lat="47.09012" lon="6.44915">
        <ele>825.6</ele>
        <time>2020-05-22T15:43:52Z</time>
      </trkpt>
      <trkpt lat="47.09011" lon="6.44917">
        <ele>826</ele>
        <time>2020-05-22T15:43:53Z</time>
      </trkpt>
      <trkpt lat="47.09009" lon="6.44919">
        <ele>826</ele>
        <time>2020-05-22T15:43:54Z</time>
      </trkpt>
      <trkpt lat="47.09007" lon="6.44921">
        <ele>826.2</ele>
        <time>2020-05-22T15:43:55Z</time>
      </trkpt>
      <trkpt lat="47.09006" lon="6.44923">
        <ele>826.2</ele>
        <time>2020-05-22T15:43:56Z</time>
      </trkpt>
      <trkpt lat="47.09004" lon="6.44925">
        <ele>826.6</ele>
        <time>2020-05-22T15:43:57Z</time>
      </trkpt>
      <trkpt lat="47.09002" lon="6.44927">
        <ele>826.6</ele>
        <time>2020-05-22T15:43:58Z</time>
      </trkpt>
      <trkpt lat="47.09001" lon="6.4493">
        <ele>826.8</ele>
        <time>2020-05-22T15:43:59Z</time>
      </trkpt>
      <trkpt lat="47.08999" lon="6.44932">
        <ele>826.8</ele>
        <time>2020-05-22T15:44:00Z</time>
      </trkpt>
      <trkpt lat="47.08998" lon="6.44934">
        <ele>827</ele>
        <time>2020-05-22T15:44:01Z</time>
      </trkpt>
      <trkpt lat="47.08997" lon="6.44936">
        <ele>827</ele>
        <time>2020-05-22T15:44:02Z</time>
      </trkpt>
      <trkpt lat="47.08995" lon="6.44938">
        <ele>827.4</ele>
        <time>2020-05-22T15:44:03Z</time>
      </trkpt>
      <trkpt lat="47.08994" lon="6.44941">
        <ele>827.6</ele>
        <time>2020-05-22T15:44:04Z</time>
      </trkpt>
      <trkpt lat="47.08993" lon="6.44943">
        <ele>827.6</ele>
        <time>2020-05-22T15:44:05Z</time>
      </trkpt>
      <trkpt lat="47.08991" lon="6.44944">
        <ele>827.8</ele>
        <time>2020-05-22T15:44:06Z</time>
      </trkpt>
      <trkpt lat="47.08989" lon="6.44946">
        <ele>827.8</ele>
        <time>2020-05-22T15:44:07Z</time>
      </trkpt>
      <trkpt lat="47.08988" lon="6.44948">
        <ele>828.2</ele>
        <time>2020-05-22T15:44:08Z</time>
      </trkpt>
      <trkpt lat="47.08986" lon="6.44949">
        <ele>828.2</ele>
        <time>2020-05-22T15:44:09Z</time>
      </trkpt>
      <trkpt lat="47.08985" lon="6.44951">
        <ele>828.6</ele>
        <time>2020-05-22T15:44:10Z</time>
      </trkpt>
      <trkpt lat="47.08984" lon="6.44953">
        <ele>828.6</ele>
        <time>2020-05-22T15:44:11Z</time>
      </trkpt>
      <trkpt lat="47.08982" lon="6.44955">
        <ele>828.6</ele>
        <time>2020-05-22T15:44:12Z</time>
      </trkpt>
      <trkpt lat="47.08981" lon="6.44957">
        <ele>828.8</ele>
        <time>2020-05-22T15:44:13Z</time>
      </trkpt>
      <trkpt lat="47.08979" lon="6.44959">
        <ele>828.8</ele>
        <time>2020-05-22T15:44:14Z</time>
      </trkpt>
      <trkpt lat="47.08978" lon="6.44961">
        <ele>829</ele>
        <time>2020-05-22T15:44:15Z</time>
      </trkpt>
      <trkpt lat="47.08977" lon="6.44963">
        <ele>829</ele>
        <time>2020-05-22T15:44:16Z</time>
      </trkpt>
      <trkpt lat="47.08975" lon="6.44966">
        <ele>829</ele>
        <time>2020-05-22T15:44:17Z</time>
      </trkpt>
      <trkpt lat="47.08974" lon="6.44968">
        <ele>829.4</ele>
        <time>2020-05-22T15:44:18Z</time>
      </trkpt>
      <trkpt lat="47.08972" lon="6.44969">
        <ele>829.4</ele>
        <time>2020-05-22T15:44:19Z</time>
      </trkpt>
      <trkpt lat="47.08971" lon="6.44971">
        <ele>829.4</ele>
        <time>2020-05-22T15:44:20Z</time>
      </trkpt>
      <trkpt lat="47.08969" lon="6.44973">
        <ele>829.6</ele>
        <time>2020-05-22T15:44:21Z</time>
      </trkpt>
      <trkpt lat="47.08968" lon="6.44975">
        <ele>829.6</ele>
        <time>2020-05-22T15:44:22Z</time>
      </trkpt>
      <trkpt lat="47.08967" lon="6.44977">
        <ele>829.6</ele>
        <time>2020-05-22T15:44:23Z</time>
      </trkpt>
      <trkpt lat="47.08965" lon="6.44979">
        <ele>829.8</ele>
        <time>2020-05-22T15:44:24Z</time>
      </trkpt>
      <trkpt lat="47.08964" lon="6.44981">
        <ele>829.8</ele>
        <time>2020-05-22T15:44:25Z</time>
      </trkpt>
      <trkpt lat="47.08963" lon="6.44983">
        <ele>830</ele>
        <time>2020-05-22T15:44:26Z</time>
      </trkpt>
      <trkpt lat="47.08961" lon="6.44984">
        <ele>830</ele>
        <time>2020-05-22T15:44:27Z</time>
      </trkpt>
      <trkpt lat="47.0896" lon="6.44986">
        <ele>830.4</ele>
        <time>2020-05-22T15:44:28Z</time>
      </trkpt>
      <trkpt lat="47.08958" lon="6.44988">
        <ele>830.4</ele>
        <time>2020-05-22T15:44:29Z</time>
      </trkpt>
      <trkpt lat="47.08957" lon="6.4499">
        <ele>830.4</ele>
        <time>2020-05-22T15:44:30Z</time>
      </trkpt>
      <trkpt lat="47.08956" lon="6.44992">
        <ele>830.6</ele>
        <time>2020-05-22T15:44:31Z</time>
      </trkpt>
      <trkpt lat="47.08954" lon="6.44993">
        <ele>830.6</ele>
        <time>2020-05-22T15:44:32Z</time>
      </trkpt>
      <trkpt lat="47.08953" lon="6.44995">
        <ele>830.6</ele>
        <time>2020-05-22T15:44:33Z</time>
      </trkpt>
      <trkpt lat="47.08951" lon="6.44996">
        <ele>831</ele>
        <time>2020-05-22T15:44:34Z</time>
      </trkpt>
      <trkpt lat="47.0895" lon="6.44998">
        <ele>831</ele>
        <time>2020-05-22T15:44:35Z</time>
      </trkpt>
      <trkpt lat="47.08948" lon="6.44999">
        <ele>831</ele>
        <time>2020-05-22T15:44:36Z</time>
      </trkpt>
      <trkpt lat="47.08946" lon="6.45001">
        <ele>831.2</ele>
        <time>2020-05-22T15:44:37Z</time>
      </trkpt>
      <trkpt lat="47.08945" lon="6.45002">
        <ele>831.2</ele>
        <time>2020-05-22T15:44:38Z</time>
      </trkpt>
      <trkpt lat="47.08943" lon="6.45004">
        <ele>831.2</ele>
        <time>2020-05-22T15:44:39Z</time>
      </trkpt>
      <trkpt lat="47.08941" lon="6.45006">
        <ele>831.4</ele>
        <time>2020-05-22T15:44:40Z</time>
      </trkpt>
      <trkpt lat="47.0894" lon="6.45007">
        <ele>831.4</ele>
        <time>2020-05-22T15:44:41Z</time>
      </trkpt>
      <trkpt lat="47.08938" lon="6.45009">
        <ele>831.4</ele>
        <time>2020-05-22T15:44:42Z</time>
      </trkpt>
      <trkpt lat="47.08936" lon="6.45011">
        <ele>831.4</ele>
        <time>2020-05-22T15:44:43Z</time>
      </trkpt>
      <trkpt lat="47.08934" lon="6.45012">
        <ele>831.6</ele>
        <time>2020-05-22T15:44:44Z</time>
      </trkpt>
      <trkpt lat="47.08931" lon="6.45014">
        <ele>831.6</ele>
        <time>2020-05-22T15:44:45Z</time>
      </trkpt>
      <trkpt lat="47.08929" lon="6.45016">
        <ele>831.6</ele>
        <time>2020-05-22T15:44:46Z</time>
      </trkpt>
      <trkpt lat="47.08927" lon="6.45018">
        <ele>831.6</ele>
        <time>2020-05-22T15:44:47Z</time>
      </trkpt>
      <trkpt lat="47.08925" lon="6.4502">
        <ele>832</ele>
        <time>2020-05-22T15:44:48Z</time>
      </trkpt>
      <trkpt lat="47.08923" lon="6.45022">
        <ele>832</ele>
        <time>2020-05-22T15:44:49Z</time>
      </trkpt>
      <trkpt lat="47.08921" lon="6.45023">
        <ele>832</ele>
        <time>2020-05-22T15:44:50Z</time>
      </trkpt>
      <trkpt lat="47.08918" lon="6.45025">
        <ele>832</ele>
        <time>2020-05-22T15:44:51Z</time>
      </trkpt>
      <trkpt lat="47.08916" lon="6.45027">
        <ele>832.2</ele>
        <time>2020-05-22T15:44:52Z</time>
      </trkpt>
      <trkpt lat="47.08914" lon="6.45029">
        <ele>832.2</ele>
        <time>2020-05-22T15:44:53Z</time>
      </trkpt>
      <trkpt lat="47.08912" lon="6.45031">
        <ele>832.2</ele>
        <time>2020-05-22T15:44:54Z</time>
      </trkpt>
      <trkpt lat="47.08909" lon="6.45033">
        <ele>832.4</ele>
        <time>2020-05-22T15:44:55Z</time>
      </trkpt>
      <trkpt lat="47.08907" lon="6.45035">
        <ele>832.4</ele>
        <time>2020-05-22T15:44:56Z</time>
      </trkpt>
      <trkpt lat="47.08905" lon="6.45037">
        <ele>832.4</ele>
        <time>2020-05-22T15:44:57Z</time>
      </trkpt>
      <trkpt lat="47.08902" lon="6.45039">
        <ele>832.4</ele>
        <time>2020-05-22T15:44:58Z</time>
      </trkpt>
      <trkpt lat="47.089" lon="6.4504">
        <ele>832.4</ele>
        <time>2020-05-22T15:44:59Z</time>
      </trkpt>
      <trkpt lat="47.08898" lon="6.45042">
        <ele>832.6</ele>
        <time>2020-05-22T15:45:00Z</time>
      </trkpt>
      <trkpt lat="47.08896" lon="6.45043">
        <ele>832.6</ele>
        <time>2020-05-22T15:45:01Z</time>
      </trkpt>
      <trkpt lat="47.08894" lon="6.45045">
        <ele>832.6</ele>
        <time>2020-05-22T15:45:02Z</time>
      </trkpt>
      <trkpt lat="47.08891" lon="6.45047">
        <ele>833</ele>
        <time>2020-05-22T15:45:03Z</time>
      </trkpt>
      <trkpt lat="47.08889" lon="6.45049">
        <ele>833</ele>
        <time>2020-05-22T15:45:04Z</time>
      </trkpt>
      <trkpt lat="47.08887" lon="6.4505">
        <ele>833.2</ele>
        <time>2020-05-22T15:45:05Z</time>
      </trkpt>
      <trkpt lat="47.08885" lon="6.45052">
        <ele>833.2</ele>
        <time>2020-05-22T15:45:06Z</time>
      </trkpt>
      <trkpt lat="47.08883" lon="6.45054">
        <ele>833.2</ele>
        <time>2020-05-22T15:45:07Z</time>
      </trkpt>
      <trkpt lat="47.0888" lon="6.45056">
        <ele>833.4</ele>
        <time>2020-05-22T15:45:08Z</time>
      </trkpt>
      <trkpt lat="47.08878" lon="6.45058">
        <ele>833.4</ele>
        <time>2020-05-22T15:45:09Z</time>
      </trkpt>
      <trkpt lat="47.08876" lon="6.45059">
        <ele>833.4</ele>
        <time>2020-05-22T15:45:10Z</time>
      </trkpt>
      <trkpt lat="47.08874" lon="6.45061">
        <ele>833.8</ele>
        <time>2020-05-22T15:45:11Z</time>
      </trkpt>
      <trkpt lat="47.08872" lon="6.45063">
        <ele>833.8</ele>
        <time>2020-05-22T15:45:12Z</time>
      </trkpt>
      <trkpt lat="47.08869" lon="6.45065">
        <ele>834</ele>
        <time>2020-05-22T15:45:13Z</time>
      </trkpt>
      <trkpt lat="47.08867" lon="6.45066">
        <ele>834</ele>
        <time>2020-05-22T15:45:14Z</time>
      </trkpt>
      <trkpt lat="47.08865" lon="6.45068">
        <ele>834.2</ele>
        <time>2020-05-22T15:45:15Z</time>
      </trkpt>
      <trkpt lat="47.08863" lon="6.4507">
        <ele>834.2</ele>
        <time>2020-05-22T15:45:16Z</time>
      </trkpt>
      <trkpt lat="47.0886" lon="6.45072">
        <ele>834.2</ele>
        <time>2020-05-22T15:45:17Z</time>
      </trkpt>
      <trkpt lat="47.08858" lon="6.45074">
        <ele>834.4</ele>
        <time>2020-05-22T15:45:18Z</time>
      </trkpt>
      <trkpt lat="47.08855" lon="6.45076">
        <ele>834.4</ele>
        <time>2020-05-22T15:45:19Z</time>
      </trkpt>
      <trkpt lat="47.08853" lon="6.45077">
        <ele>834.4</ele>
        <time>2020-05-22T15:45:20Z</time>
      </trkpt>
      <trkpt lat="47.0885" lon="6.45079">
        <ele>834.6</ele>
        <time>2020-05-22T15:45:21Z</time>
      </trkpt>
      <trkpt lat="47.08848" lon="6.45081">
        <ele>834.6</ele>
        <time>2020-05-22T15:45:22Z</time>
      </trkpt>
      <trkpt lat="47.08845" lon="6.45083">
        <ele>834.6</ele>
        <time>2020-05-22T15:45:23Z</time>
      </trkpt>
      <trkpt lat="47.08843" lon="6.45085">
        <ele>834.6</ele>
        <time>2020-05-22T15:45:24Z</time>
      </trkpt>
      <trkpt lat="47.0884" lon="6.45087">
        <ele>834.8</ele>
        <time>2020-05-22T15:45:25Z</time>
      </trkpt>
      <trkpt lat="47.08838" lon="6.45089">
        <ele>834.8</ele>
        <time>2020-05-22T15:45:26Z</time>
      </trkpt>
      <trkpt lat="47.08835" lon="6.45091">
        <ele>834.8</ele>
        <time>2020-05-22T15:45:27Z</time>
      </trkpt>
      <trkpt lat="47.08832" lon="6.45093">
        <ele>834.8</ele>
        <time>2020-05-22T15:45:28Z</time>
      </trkpt>
      <trkpt lat="47.0883" lon="6.45095">
        <ele>834.8</ele>
        <time>2020-05-22T15:45:29Z</time>
      </trkpt>
      <trkpt lat="47.08827" lon="6.45097">
        <ele>835.2</ele>
        <time>2020-05-22T15:45:30Z</time>
      </trkpt>
      <trkpt lat="47.08825" lon="6.45099">
        <ele>835.2</ele>
        <time>2020-05-22T15:45:31Z</time>
      </trkpt>
      <trkpt lat="47.08823" lon="6.45101">
        <ele>835.4</ele>
        <time>2020-05-22T15:45:32Z</time>
      </trkpt>
      <trkpt lat="47.0882" lon="6.45103">
        <ele>835.4</ele>
        <time>2020-05-22T15:45:33Z</time>
      </trkpt>
      <trkpt lat="47.08818" lon="6.45104">
        <ele>835.8</ele>
        <time>2020-05-22T15:45:34Z</time>
      </trkpt>
      <trkpt lat="47.08816" lon="6.45106">
        <ele>835.8</ele>
        <time>2020-05-22T15:45:35Z</time>
      </trkpt>
      <trkpt lat="47.08814" lon="6.45108">
        <ele>836</ele>
        <time>2020-05-22T15:45:36Z</time>
      </trkpt>
      <trkpt lat="47.08812" lon="6.45109">
        <ele>836</ele>
        <time>2020-05-22T15:45:37Z</time>
      </trkpt>
      <trkpt lat="47.0881" lon="6.45111">
        <ele>836.2</ele>
        <time>2020-05-22T15:45:38Z</time>
      </trkpt>
      <trkpt lat="47.08808" lon="6.45112">
        <ele>836.2</ele>
        <time>2020-05-22T15:45:39Z</time>
      </trkpt>
      <trkpt lat="47.08806" lon="6.45114">
        <ele>836.6</ele>
        <time>2020-05-22T15:45:40Z</time>
      </trkpt>
      <trkpt lat="47.08803" lon="6.45116">
        <ele>836.6</ele>
        <time>2020-05-22T15:45:41Z</time>
      </trkpt>
      <trkpt lat="47.08801" lon="6.45117">
        <ele>836.8</ele>
        <time>2020-05-22T15:45:42Z</time>
      </trkpt>
      <trkpt lat="47.08799" lon="6.45119">
        <ele>836.8</ele>
        <time>2020-05-22T15:45:43Z</time>
      </trkpt>
      <trkpt lat="47.08797" lon="6.45121">
        <ele>837</ele>
        <time>2020-05-22T15:45:44Z</time>
      </trkpt>
      <trkpt lat="47.08795" lon="6.45122">
        <ele>837</ele>
        <time>2020-05-22T15:45:45Z</time>
      </trkpt>
      <trkpt lat="47.08793" lon="6.45124">
        <ele>837.2</ele>
        <time>2020-05-22T15:45:46Z</time>
      </trkpt>
      <trkpt lat="47.0879" lon="6.45126">
        <ele>837.2</ele>
        <time>2020-05-22T15:45:47Z</time>
      </trkpt>
      <trkpt lat="47.08788" lon="6.45128">
        <ele>837.6</ele>
        <time>2020-05-22T15:45:48Z</time>
      </trkpt>
      <trkpt lat="47.08786" lon="6.45129">
        <ele>837.6</ele>
        <time>2020-05-22T15:45:49Z</time>
      </trkpt>
      <trkpt lat="47.08784" lon="6.45131">
        <ele>837.8</ele>
        <time>2020-05-22T15:45:50Z</time>
      </trkpt>
      <trkpt lat="47.08782" lon="6.45132">
        <ele>837.8</ele>
        <time>2020-05-22T15:45:51Z</time>
      </trkpt>
      <trkpt lat="47.0878" lon="6.45134">
        <ele>838</ele>
        <time>2020-05-22T15:45:52Z</time>
      </trkpt>
      <trkpt lat="47.08778" lon="6.45136">
        <ele>838</ele>
        <time>2020-05-22T15:45:53Z</time>
      </trkpt>
      <trkpt lat="47.08776" lon="6.45137">
        <ele>838</ele>
        <time>2020-05-22T15:45:54Z</time>
      </trkpt>
      <trkpt lat="47.08774" lon="6.45139">
        <ele>838.4</ele>
        <time>2020-05-22T15:45:55Z</time>
      </trkpt>
      <trkpt lat="47.08772" lon="6.45141">
        <ele>838.4</ele>
        <time>2020-05-22T15:45:56Z</time>
      </trkpt>
      <trkpt lat="47.0877" lon="6.45142">
        <ele>838.8</ele>
        <time>2020-05-22T15:45:57Z</time>
      </trkpt>
      <trkpt lat="47.08768" lon="6.45144">
        <ele>838.8</ele>
        <time>2020-05-22T15:45:58Z</time>
      </trkpt>
      <trkpt lat="47.08766" lon="6.45145">
        <ele>839</ele>
        <time>2020-05-22T15:45:59Z</time>
      </trkpt>
      <trkpt lat="47.08764" lon="6.45147">
        <ele>839.4</ele>
        <time>2020-05-22T15:46:00Z</time>
      </trkpt>
      <trkpt lat="47.08762" lon="6.45148">
        <ele>839.4</ele>
        <time>2020-05-22T15:46:01Z</time>
      </trkpt>
      <trkpt lat="47.08761" lon="6.4515">
        <ele>839.6</ele>
        <time>2020-05-22T15:46:02Z</time>
      </trkpt>
      <trkpt lat="47.08759" lon="6.45151">
        <ele>839.6</ele>
        <time>2020-05-22T15:46:03Z</time>
      </trkpt>
      <trkpt lat="47.08757" lon="6.45152">
        <ele>840</ele>
        <time>2020-05-22T15:46:04Z</time>
      </trkpt>
      <trkpt lat="47.08755" lon="6.45154">
        <ele>840</ele>
        <time>2020-05-22T15:46:05Z</time>
      </trkpt>
      <trkpt lat="47.08753" lon="6.45155">
        <ele>840.2</ele>
        <time>2020-05-22T15:46:06Z</time>
      </trkpt>
      <trkpt lat="47.08752" lon="6.45157">
        <ele>840.2</ele>
        <time>2020-05-22T15:46:07Z</time>
      </trkpt>
      <trkpt lat="47.0875" lon="6.45158">
        <ele>840.6</ele>
        <time>2020-05-22T15:46:08Z</time>
      </trkpt>
      <trkpt lat="47.08748" lon="6.45159">
        <ele>840.6</ele>
        <time>2020-05-22T15:46:09Z</time>
      </trkpt>
      <trkpt lat="47.08747" lon="6.4516">
        <ele>840.8</ele>
        <time>2020-05-22T15:46:10Z</time>
      </trkpt>
      <trkpt lat="47.08745" lon="6.45162">
        <ele>840.8</ele>
        <time>2020-05-22T15:46:11Z</time>
      </trkpt>
      <trkpt lat="47.08744" lon="6.45163">
        <ele>841</ele>
        <time>2020-05-22T15:46:12Z</time>
      </trkpt>
      <trkpt lat="47.08742" lon="6.45165">
        <ele>841</ele>
        <time>2020-05-22T15:46:13Z</time>
      </trkpt>
      <trkpt lat="47.08741" lon="6.45166">
        <ele>841</ele>
        <time>2020-05-22T15:46:14Z</time>
      </trkpt>
      <trkpt lat="47.08739" lon="6.45167">
        <ele>841.4</ele>
        <time>2020-05-22T15:46:15Z</time>
      </trkpt>
      <trkpt lat="47.08738" lon="6.45169">
        <ele>841.4</ele>
        <time>2020-05-22T15:46:16Z</time>
      </trkpt>
      <trkpt lat="47.08736" lon="6.4517">
        <ele>841.6</ele>
        <time>2020-05-22T15:46:17Z</time>
      </trkpt>
      <trkpt lat="47.08735" lon="6.45172">
        <ele>841.6</ele>
        <time>2020-05-22T15:46:18Z</time>
      </trkpt>
      <trkpt lat="47.08733" lon="6.45173">
        <ele>841.6</ele>
        <time>2020-05-22T15:46:19Z</time>
      </trkpt>
      <trkpt lat="47.08732" lon="6.45174">
        <ele>841.8</ele>
        <time>2020-05-22T15:46:20Z</time>
      </trkpt>
      <trkpt lat="47.0873" lon="6.45176">
        <ele>841.8</ele>
        <time>2020-05-22T15:46:21Z</time>
      </trkpt>
      <trkpt lat="47.08729" lon="6.45177">
        <ele>841.8</ele>
        <time>2020-05-22T15:46:22Z</time>
      </trkpt>
      <trkpt lat="47.08727" lon="6.45178">
        <ele>841.8</ele>
        <time>2020-05-22T15:46:23Z</time>
      </trkpt>
      <trkpt lat="47.08726" lon="6.4518">
        <ele>841.8</ele>
        <time>2020-05-22T15:46:24Z</time>
      </trkpt>
      <trkpt lat="47.08724" lon="6.45182">
        <ele>841.8</ele>
        <time>2020-05-22T15:46:25Z</time>
      </trkpt>
      <trkpt lat="47.08721" lon="6.45184">
        <ele>841.6</ele>
        <time>2020-05-22T15:46:26Z</time>
      </trkpt>
      <trkpt lat="47.08719" lon="6.45186">
        <ele>841.6</ele>
        <time>2020-05-22T15:46:27Z</time>
      </trkpt>
      <trkpt lat="47.08716" lon="6.45189">
        <ele>841.6</ele>
        <time>2020-05-22T15:46:28Z</time>
      </trkpt>
      <trkpt lat="47.08713" lon="6.45192">
        <ele>841.6</ele>
        <time>2020-05-22T15:46:29Z</time>
      </trkpt>
      <trkpt lat="47.08709" lon="6.45195">
        <ele>841.2</ele>
        <time>2020-05-22T15:46:30Z</time>
      </trkpt>
      <trkpt lat="47.08706" lon="6.45198">
        <ele>841.2</ele>
        <time>2020-05-22T15:46:31Z</time>
      </trkpt>
      <trkpt lat="47.08701" lon="6.45202">
        <ele>840.8</ele>
        <time>2020-05-22T15:46:32Z</time>
      </trkpt>
      <trkpt lat="47.08697" lon="6.45206">
        <ele>840.6</ele>
        <time>2020-05-22T15:46:33Z</time>
      </trkpt>
      <trkpt lat="47.08691" lon="6.45211">
        <ele>840.4</ele>
        <time>2020-05-22T15:46:34Z</time>
      </trkpt>
      <trkpt lat="47.08686" lon="6.45216">
        <ele>840.2</ele>
        <time>2020-05-22T15:46:35Z</time>
      </trkpt>
      <trkpt lat="47.0868" lon="6.45222">
        <ele>839.8</ele>
        <time>2020-05-22T15:46:36Z</time>
      </trkpt>
      <trkpt lat="47.08673" lon="6.45228">
        <ele>839.4</ele>
        <time>2020-05-22T15:46:37Z</time>
      </trkpt>
      <trkpt lat="47.08666" lon="6.45234">
        <ele>839.2</ele>
        <time>2020-05-22T15:46:38Z</time>
      </trkpt>
      <trkpt lat="47.08659" lon="6.45241">
        <ele>838.8</ele>
        <time>2020-05-22T15:46:39Z</time>
      </trkpt>
      <trkpt lat="47.08651" lon="6.45248">
        <ele>838.4</ele>
        <time>2020-05-22T15:46:40Z</time>
      </trkpt>
      <trkpt lat="47.08643" lon="6.45256">
        <ele>838</ele>
        <time>2020-05-22T15:46:41Z</time>
      </trkpt>
      <trkpt lat="47.08634" lon="6.45265">
        <ele>837.4</ele>
        <time>2020-05-22T15:46:42Z</time>
      </trkpt>
      <trkpt lat="47.08624" lon="6.45274">
        <ele>837</ele>
        <time>2020-05-22T15:46:43Z</time>
      </trkpt>
      <trkpt lat="47.08614" lon="6.45282">
        <ele>836.4</ele>
        <time>2020-05-22T15:46:44Z</time>
      </trkpt>
      <trkpt lat="47.08604" lon="6.45291">
        <ele>835.8</ele>
        <time>2020-05-22T15:46:45Z</time>
      </trkpt>
      <trkpt lat="47.08595" lon="6.45299">
        <ele>835.2</ele>
        <time>2020-05-22T15:46:46Z</time>
      </trkpt>
      <trkpt lat="47.08585" lon="6.45307">
        <ele>834.8</ele>
        <time>2020-05-22T15:46:47Z</time>
      </trkpt>
      <trkpt lat="47.08576" lon="6.45315">
        <ele>834.2</ele>
        <time>2020-05-22T15:46:48Z</time>
      </trkpt>
      <trkpt lat="47.08567" lon="6.45323">
        <ele>833.8</ele>
        <time>2020-05-22T15:46:49Z</time>
      </trkpt>
      <trkpt lat="47.08559" lon="6.45331">
        <ele>833.4</ele>
        <time>2020-05-22T15:46:50Z</time>
      </trkpt>
      <trkpt lat="47.0855" lon="6.45338">
        <ele>833.2</ele>
        <time>2020-05-22T15:46:51Z</time>
      </trkpt>
      <trkpt lat="47.08542" lon="6.45345">
        <ele>833.2</ele>
        <time>2020-05-22T15:46:52Z</time>
      </trkpt>
      <trkpt lat="47.08535" lon="6.45352">
        <ele>832.8</ele>
        <time>2020-05-22T15:46:53Z</time>
      </trkpt>
      <trkpt lat="47.08529" lon="6.45359">
        <ele>832.8</ele>
        <time>2020-05-22T15:46:54Z</time>
      </trkpt>
      <trkpt lat="47.08523" lon="6.45364">
        <ele>832.8</ele>
        <time>2020-05-22T15:46:55Z</time>
      </trkpt>
      <trkpt lat="47.08518" lon="6.45369">
        <ele>832.8</ele>
        <time>2020-05-22T15:46:56Z</time>
      </trkpt>
      <trkpt lat="47.08513" lon="6.45373">
        <ele>832.8</ele>
        <time>2020-05-22T15:46:57Z</time>
      </trkpt>
      <trkpt lat="47.08509" lon="6.45377">
        <ele>833.2</ele>
        <time>2020-05-22T15:46:58Z</time>
      </trkpt>
      <trkpt lat="47.08505" lon="6.4538">
        <ele>833.2</ele>
        <time>2020-05-22T15:46:59Z</time>
      </trkpt>
      <trkpt lat="47.08502" lon="6.45383">
        <ele>833.6</ele>
        <time>2020-05-22T15:47:00Z</time>
      </trkpt>
      <trkpt lat="47.08499" lon="6.45385">
        <ele>833.8</ele>
        <time>2020-05-22T15:47:01Z</time>
      </trkpt>
      <trkpt lat="47.08497" lon="6.45386">
        <ele>834</ele>
        <time>2020-05-22T15:47:02Z</time>
      </trkpt>
      <trkpt lat="47.08496" lon="6.45388">
        <ele>834.4</ele>
        <time>2020-05-22T15:47:03Z</time>
      </trkpt>
      <trkpt lat="47.08494" lon="6.45389">
        <ele>834.4</ele>
        <time>2020-05-22T15:47:04Z</time>
      </trkpt>
      <trkpt lat="47.08493" lon="6.45391">
        <ele>834.6</ele>
        <time>2020-05-22T15:47:05Z</time>
      </trkpt>
      <trkpt lat="47.08492" lon="6.45391">
        <ele>834.6</ele>
        <time>2020-05-22T15:47:06Z</time>
      </trkpt>
      <trkpt lat="47.08491" lon="6.45392">
        <ele>835</ele>
        <time>2020-05-22T15:47:07Z</time>
      </trkpt>
      <trkpt lat="47.0849" lon="6.45394">
        <ele>835</ele>
        <time>2020-05-22T15:47:08Z</time>
      </trkpt>
      <trkpt lat="47.08489" lon="6.45395">
        <ele>835</ele>
        <time>2020-05-22T15:47:09Z</time>
      </trkpt>
      <trkpt lat="47.08487" lon="6.45396">
        <ele>835.2</ele>
        <time>2020-05-22T15:47:10Z</time>
      </trkpt>
      <trkpt lat="47.08486" lon="6.45397">
        <ele>835.2</ele>
        <time>2020-05-22T15:47:11Z</time>
      </trkpt>
      <trkpt lat="47.08485" lon="6.45398">
        <ele>835.4</ele>
        <time>2020-05-22T15:47:12Z</time>
      </trkpt>
      <trkpt lat="47.08484" lon="6.45399">
        <ele>835.4</ele>
        <time>2020-05-22T15:47:13Z</time>
      </trkpt>
      <trkpt lat="47.08482" lon="6.45401">
        <ele>835.4</ele>
        <time>2020-05-22T15:47:14Z</time>
      </trkpt>
      <trkpt lat="47.08481" lon="6.45402">
        <ele>835.8</ele>
        <time>2020-05-22T15:47:15Z</time>
      </trkpt>
      <trkpt lat="47.0848" lon="6.45404">
        <ele>835.8</ele>
        <time>2020-05-22T15:47:16Z</time>
      </trkpt>
      <trkpt lat="47.08478" lon="6.45405">
        <ele>836</ele>
        <time>2020-05-22T15:47:17Z</time>
      </trkpt>
      <trkpt lat="47.08476" lon="6.45407">
        <ele>836</ele>
        <time>2020-05-22T15:47:18Z</time>
      </trkpt>
      <trkpt lat="47.08475" lon="6.45408">
        <ele>836.2</ele>
        <time>2020-05-22T15:47:19Z</time>
      </trkpt>
      <trkpt lat="47.08473" lon="6.4541">
        <ele>836.2</ele>
        <time>2020-05-22T15:47:20Z</time>
      </trkpt>
      <trkpt lat="47.08472" lon="6.45412">
        <ele>836.4</ele>
        <time>2020-05-22T15:47:21Z</time>
      </trkpt>
      <trkpt lat="47.08471" lon="6.45413">
        <ele>836.4</ele>
        <time>2020-05-22T15:47:22Z</time>
      </trkpt>
      <trkpt lat="47.0847" lon="6.45415">
        <ele>836.4</ele>
        <time>2020-05-22T15:47:23Z</time>
      </trkpt>
      <trkpt lat="47.08468" lon="6.45416">
        <ele>836.4</ele>
        <time>2020-05-22T15:47:24Z</time>
      </trkpt>
      <trkpt lat="47.08467" lon="6.45417">
        <ele>836.8</ele>
        <time>2020-05-22T15:47:25Z</time>
      </trkpt>
      <trkpt lat="47.08465" lon="6.45418">
        <ele>836.8</ele>
        <time>2020-05-22T15:47:26Z</time>
      </trkpt>
      <trkpt lat="47.08464" lon="6.45419">
        <ele>836.8</ele>
        <time>2020-05-22T15:47:27Z</time>
      </trkpt>
      <trkpt lat="47.08462" lon="6.45421">
        <ele>837</ele>
        <time>2020-05-22T15:47:28Z</time>
      </trkpt>
      <trkpt lat="47.0846" lon="6.45422">
        <ele>837</ele>
        <time>2020-05-22T15:47:29Z</time>
      </trkpt>
      <trkpt lat="47.08459" lon="6.45423">
        <ele>837</ele>
        <time>2020-05-22T15:47:30Z</time>
      </trkpt>
      <trkpt lat="47.08457" lon="6.45423">
        <ele>837.4</ele>
        <time>2020-05-22T15:47:31Z</time>
      </trkpt>
      <trkpt lat="47.08455" lon="6.45423">
        <ele>837.4</ele>
        <time>2020-05-22T15:47:32Z</time>
      </trkpt>
      <trkpt lat="47.08453" lon="6.45422">
        <ele>837.4</ele>
        <time>2020-05-22T15:47:33Z</time>
      </trkpt>
      <trkpt lat="47.0845" lon="6.45421">
        <ele>837.6</ele>
        <time>2020-05-22T15:47:34Z</time>
      </trkpt>
      <trkpt lat="47.08448" lon="6.45419">
        <ele>837.6</ele>
        <time>2020-05-22T15:47:35Z</time>
      </trkpt>
      <trkpt lat="47.08446" lon="6.45417">
        <ele>837.6</ele>
        <time>2020-05-22T15:47:36Z</time>
      </trkpt>
      <trkpt lat="47.08444" lon="6.45414">
        <ele>837.6</ele>
        <time>2020-05-22T15:47:37Z</time>
      </trkpt>
      <trkpt lat="47.08442" lon="6.45412">
        <ele>837.6</ele>
        <time>2020-05-22T15:47:38Z</time>
      </trkpt>
      <trkpt lat="47.08439" lon="6.45409">
        <ele>837.6</ele>
        <time>2020-05-22T15:47:39Z</time>
      </trkpt>
      <trkpt lat="47.08437" lon="6.45406">
        <ele>837.6</ele>
        <time>2020-05-22T15:47:40Z</time>
      </trkpt>
      <trkpt lat="47.08433" lon="6.45403">
        <ele>837.6</ele>
        <time>2020-05-22T15:47:41Z</time>
      </trkpt>
      <trkpt lat="47.0843" lon="6.45401">
        <ele>837.6</ele>
        <time>2020-05-22T15:47:42Z</time>
      </trkpt>
      <trkpt lat="47.08426" lon="6.45398">
        <ele>837.6</ele>
        <time>2020-05-22T15:47:43Z</time>
      </trkpt>
      <trkpt lat="47.08422" lon="6.45396">
        <ele>837.6</ele>
        <time>2020-05-22T15:47:44Z</time>
      </trkpt>
      <trkpt lat="47.08418" lon="6.45393">
        <ele>837.6</ele>
        <time>2020-05-22T15:47:45Z</time>
      </trkpt>
      <trkpt lat="47.08413" lon="6.45391">
        <ele>837.6</ele>
        <time>2020-05-22T15:47:46Z</time>
      </trkpt>
      <trkpt lat="47.08409" lon="6.4539">
        <ele>837.2</ele>
        <time>2020-05-22T15:47:47Z</time>
      </trkpt>
      <trkpt lat="47.08404" lon="6.45388">
        <ele>837.2</ele>
        <time>2020-05-22T15:47:48Z</time>
      </trkpt>
      <trkpt lat="47.08399" lon="6.45386">
        <ele>837</ele>
        <time>2020-05-22T15:47:49Z</time>
      </trkpt>
      <trkpt lat="47.08393" lon="6.45385">
        <ele>837</ele>
        <time>2020-05-22T15:47:50Z</time>
      </trkpt>
      <trkpt lat="47.08388" lon="6.45384">
        <ele>836.8</ele>
        <time>2020-05-22T15:47:51Z</time>
      </trkpt>
      <trkpt lat="47.08382" lon="6.45383">
        <ele>836.8</ele>
        <time>2020-05-22T15:47:52Z</time>
      </trkpt>
      <trkpt lat="47.08376" lon="6.45382">
        <ele>836.6</ele>
        <time>2020-05-22T15:47:53Z</time>
      </trkpt>
      <trkpt lat="47.0837" lon="6.45381">
        <ele>836.6</ele>
        <time>2020-05-22T15:47:54Z</time>
      </trkpt>
      <trkpt lat="47.08364" lon="6.4538">
        <ele>836.4</ele>
        <time>2020-05-22T15:47:55Z</time>
      </trkpt>
      <trkpt lat="47.08358" lon="6.45378">
        <ele>836.4</ele>
        <time>2020-05-22T15:47:56Z</time>
      </trkpt>
      <trkpt lat="47.08352" lon="6.45377">
        <ele>836.4</ele>
        <time>2020-05-22T15:47:57Z</time>
      </trkpt>
      <trkpt lat="47.08346" lon="6.45376">
        <ele>836.4</ele>
        <time>2020-05-22T15:47:58Z</time>
      </trkpt>
      <trkpt lat="47.0834" lon="6.45375">
        <ele>836.4</ele>
        <time>2020-05-22T15:47:59Z</time>
      </trkpt>
      <trkpt lat="47.08334" lon="6.45374">
        <ele>836.4</ele>
        <time>2020-05-22T15:48:00Z</time>
      </trkpt>
      <trkpt lat="47.08329" lon="6.45373">
        <ele>836</ele>
        <time>2020-05-22T15:48:01Z</time>
      </trkpt>
      <trkpt lat="47.08323" lon="6.45372">
        <ele>836</ele>
        <time>2020-05-22T15:48:02Z</time>
      </trkpt>
      <trkpt lat="47.08318" lon="6.45372">
        <ele>836</ele>
        <time>2020-05-22T15:48:03Z</time>
      </trkpt>
      <trkpt lat="47.08313" lon="6.45371">
        <ele>836</ele>
        <time>2020-05-22T15:48:04Z</time>
      </trkpt>
      <trkpt lat="47.08309" lon="6.4537">
        <ele>836</ele>
        <time>2020-05-22T15:48:05Z</time>
      </trkpt>
      <trkpt lat="47.08304" lon="6.45369">
        <ele>836.4</ele>
        <time>2020-05-22T15:48:06Z</time>
      </trkpt>
      <trkpt lat="47.083" lon="6.45368">
        <ele>836.4</ele>
        <time>2020-05-22T15:48:07Z</time>
      </trkpt>
      <trkpt lat="47.08295" lon="6.45367">
        <ele>836.6</ele>
        <time>2020-05-22T15:48:08Z</time>
      </trkpt>
      <trkpt lat="47.08291" lon="6.45367">
        <ele>836.6</ele>
        <time>2020-05-22T15:48:09Z</time>
      </trkpt>
      <trkpt lat="47.08287" lon="6.45366">
        <ele>836.6</ele>
        <time>2020-05-22T15:48:10Z</time>
      </trkpt>
      <trkpt lat="47.08283" lon="6.45365">
        <ele>836.6</ele>
        <time>2020-05-22T15:48:11Z</time>
      </trkpt>
      <trkpt lat="47.08279" lon="6.45364">
        <ele>836.8</ele>
        <time>2020-05-22T15:48:12Z</time>
      </trkpt>
      <trkpt lat="47.08276" lon="6.45364">
        <ele>836.8</ele>
        <time>2020-05-22T15:48:13Z</time>
      </trkpt>
      <trkpt lat="47.08272" lon="6.45363">
        <ele>837</ele>
        <time>2020-05-22T15:48:14Z</time>
      </trkpt>
      <trkpt lat="47.08269" lon="6.45362">
        <ele>837</ele>
        <time>2020-05-22T15:48:15Z</time>
      </trkpt>
      <trkpt lat="47.08266" lon="6.45362">
        <ele>837.2</ele>
        <time>2020-05-22T15:48:16Z</time>
      </trkpt>
      <trkpt lat="47.08262" lon="6.45361">
        <ele>837.2</ele>
        <time>2020-05-22T15:48:17Z</time>
      </trkpt>
      <trkpt lat="47.08259" lon="6.45361">
        <ele>837.2</ele>
        <time>2020-05-22T15:48:18Z</time>
      </trkpt>
      <trkpt lat="47.08256" lon="6.4536">
        <ele>837.4</ele>
        <time>2020-05-22T15:48:19Z</time>
      </trkpt>
      <trkpt lat="47.08253" lon="6.45359">
        <ele>837.4</ele>
        <time>2020-05-22T15:48:20Z</time>
      </trkpt>
      <trkpt lat="47.0825" lon="6.45359">
        <ele>837.8</ele>
        <time>2020-05-22T15:48:21Z</time>
      </trkpt>
      <trkpt lat="47.08247" lon="6.45358">
        <ele>837.8</ele>
        <time>2020-05-22T15:48:22Z</time>
      </trkpt>
      <trkpt lat="47.08244" lon="6.45357">
        <ele>838</ele>
        <time>2020-05-22T15:48:23Z</time>
      </trkpt>
      <trkpt lat="47.08241" lon="6.45357">
        <ele>838</ele>
        <time>2020-05-22T15:48:24Z</time>
      </trkpt>
      <trkpt lat="47.08238" lon="6.45356">
        <ele>838</ele>
        <time>2020-05-22T15:48:25Z</time>
      </trkpt>
      <trkpt lat="47.08235" lon="6.45356">
        <ele>838.2</ele>
        <time>2020-05-22T15:48:26Z</time>
      </trkpt>
      <trkpt lat="47.08232" lon="6.45355">
        <ele>838.2</ele>
        <time>2020-05-22T15:48:27Z</time>
      </trkpt>
      <trkpt lat="47.08229" lon="6.45355">
        <ele>838.4</ele>
        <time>2020-05-22T15:48:28Z</time>
      </trkpt>
      <trkpt lat="47.08226" lon="6.45354">
        <ele>838.4</ele>
        <time>2020-05-22T15:48:29Z</time>
      </trkpt>
      <trkpt lat="47.08222" lon="6.45353">
        <ele>838.6</ele>
        <time>2020-05-22T15:48:30Z</time>
      </trkpt>
      <trkpt lat="47.08219" lon="6.45353">
        <ele>838.6</ele>
        <time>2020-05-22T15:48:31Z</time>
      </trkpt>
      <trkpt lat="47.08216" lon="6.45352">
        <ele>839</ele>
        <time>2020-05-22T15:48:32Z</time>
      </trkpt>
      <trkpt lat="47.08213" lon="6.45352">
        <ele>839</ele>
        <time>2020-05-22T15:48:33Z</time>
      </trkpt>
      <trkpt lat="47.0821" lon="6.45351">
        <ele>839.2</ele>
        <time>2020-05-22T15:48:34Z</time>
      </trkpt>
      <trkpt lat="47.08207" lon="6.4535">
        <ele>839.2</ele>
        <time>2020-05-22T15:48:35Z</time>
      </trkpt>
      <trkpt lat="47.08204" lon="6.4535">
        <ele>839.2</ele>
        <time>2020-05-22T15:48:36Z</time>
      </trkpt>
      <trkpt lat="47.08201" lon="6.4535">
        <ele>839.2</ele>
        <time>2020-05-22T15:48:37Z</time>
      </trkpt>
      <trkpt lat="47.08198" lon="6.45349">
        <ele>839.2</ele>
        <time>2020-05-22T15:48:38Z</time>
      </trkpt>
      <trkpt lat="47.08195" lon="6.45349">
        <ele>839.4</ele>
        <time>2020-05-22T15:48:39Z</time>
      </trkpt>
      <trkpt lat="47.08192" lon="6.45348">
        <ele>839.4</ele>
        <time>2020-05-22T15:48:40Z</time>
      </trkpt>
      <trkpt lat="47.0819" lon="6.45348">
        <ele>839.4</ele>
        <time>2020-05-22T15:48:41Z</time>
      </trkpt>
      <trkpt lat="47.08187" lon="6.45347">
        <ele>839.4</ele>
        <time>2020-05-22T15:48:42Z</time>
      </trkpt>
      <trkpt lat="47.08184" lon="6.45347">
        <ele>839.8</ele>
        <time>2020-05-22T15:48:43Z</time>
      </trkpt>
      <trkpt lat="47.08181" lon="6.45346">
        <ele>839.8</ele>
        <time>2020-05-22T15:48:44Z</time>
      </trkpt>
      <trkpt lat="47.08179" lon="6.45346">
        <ele>840</ele>
        <time>2020-05-22T15:48:45Z</time>
      </trkpt>
      <trkpt lat="47.08176" lon="6.45345">
        <ele>840</ele>
        <time>2020-05-22T15:48:46Z</time>
      </trkpt>
      <trkpt lat="47.08173" lon="6.45344">
        <ele>840</ele>
        <time>2020-05-22T15:48:47Z</time>
      </trkpt>
      <trkpt lat="47.0817" lon="6.45344">
        <ele>840.2</ele>
        <time>2020-05-22T15:48:48Z</time>
      </trkpt>
      <trkpt lat="47.08167" lon="6.45343">
        <ele>840.2</ele>
        <time>2020-05-22T15:48:49Z</time>
      </trkpt>
      <trkpt lat="47.08164" lon="6.45343">
        <ele>840.2</ele>
        <time>2020-05-22T15:48:50Z</time>
      </trkpt>
      <trkpt lat="47.08162" lon="6.45342">
        <ele>840.4</ele>
        <time>2020-05-22T15:48:51Z</time>
      </trkpt>
      <trkpt lat="47.08159" lon="6.45342">
        <ele>840.4</ele>
        <time>2020-05-22T15:48:52Z</time>
      </trkpt>
      <trkpt lat="47.08156" lon="6.45342">
        <ele>840.4</ele>
        <time>2020-05-22T15:48:53Z</time>
      </trkpt>
      <trkpt lat="47.08154" lon="6.45341">
        <ele>840.8</ele>
        <time>2020-05-22T15:48:54Z</time>
      </trkpt>
      <trkpt lat="47.08151" lon="6.45341">
        <ele>840.8</ele>
        <time>2020-05-22T15:48:55Z</time>
      </trkpt>
      <trkpt lat="47.08149" lon="6.45341">
        <ele>841</ele>
        <time>2020-05-22T15:48:56Z</time>
      </trkpt>
      <trkpt lat="47.08146" lon="6.4534">
        <ele>841</ele>
        <time>2020-05-22T15:48:57Z</time>
      </trkpt>
      <trkpt lat="47.08144" lon="6.4534">
        <ele>841</ele>
        <time>2020-05-22T15:48:58Z</time>
      </trkpt>
      <trkpt lat="47.08141" lon="6.4534">
        <ele>841.2</ele>
        <time>2020-05-22T15:48:59Z</time>
      </trkpt>
      <trkpt lat="47.08139" lon="6.4534">
        <ele>841.2</ele>
        <time>2020-05-22T15:49:00Z</time>
      </trkpt>
      <trkpt lat="47.08136" lon="6.4534">
        <ele>841.4</ele>
        <time>2020-05-22T15:49:01Z</time>
      </trkpt>
      <trkpt lat="47.08133" lon="6.45339">
        <ele>841.4</ele>
        <time>2020-05-22T15:49:02Z</time>
      </trkpt>
      <trkpt lat="47.0813" lon="6.45338">
        <ele>841.4</ele>
        <time>2020-05-22T15:49:03Z</time>
      </trkpt>
      <trkpt lat="47.08128" lon="6.45338">
        <ele>841.4</ele>
        <time>2020-05-22T15:49:04Z</time>
      </trkpt>
      <trkpt lat="47.08125" lon="6.45338">
        <ele>841.4</ele>
        <time>2020-05-22T15:49:05Z</time>
      </trkpt>
      <trkpt lat="47.08122" lon="6.45338">
        <ele>841.8</ele>
        <time>2020-05-22T15:49:06Z</time>
      </trkpt>
      <trkpt lat="47.08118" lon="6.45338">
        <ele>841.8</ele>
        <time>2020-05-22T15:49:07Z</time>
      </trkpt>
      <trkpt lat="47.08115" lon="6.45338">
        <ele>841.8</ele>
        <time>2020-05-22T15:49:08Z</time>
      </trkpt>
      <trkpt lat="47.08112" lon="6.45338">
        <ele>841.8</ele>
        <time>2020-05-22T15:49:09Z</time>
      </trkpt>
      <trkpt lat="47.08109" lon="6.45338">
        <ele>841.8</ele>
        <time>2020-05-22T15:49:10Z</time>
      </trkpt>
      <trkpt lat="47.08105" lon="6.45338">
        <ele>841.8</ele>
        <time>2020-05-22T15:49:11Z</time>
      </trkpt>
      <trkpt lat="47.08102" lon="6.45337">
        <ele>841.8</ele>
        <time>2020-05-22T15:49:12Z</time>
      </trkpt>
      <trkpt lat="47.08099" lon="6.45337">
        <ele>841.8</ele>
        <time>2020-05-22T15:49:13Z</time>
      </trkpt>
      <trkpt lat="47.08096" lon="6.45338">
        <ele>841.8</ele>
        <time>2020-05-22T15:49:14Z</time>
      </trkpt>
      <trkpt lat="47.08093" lon="6.45338">
        <ele>841.8</ele>
        <time>2020-05-22T15:49:15Z</time>
      </trkpt>
      <trkpt lat="47.08091" lon="6.45338">
        <ele>841.8</ele>
        <time>2020-05-22T15:49:16Z</time>
      </trkpt>
      <trkpt lat="47.08087" lon="6.45338">
        <ele>842</ele>
        <time>2020-05-22T15:49:17Z</time>
      </trkpt>
      <trkpt lat="47.08084" lon="6.45339">
        <ele>842</ele>
        <time>2020-05-22T15:49:18Z</time>
      </trkpt>
      <trkpt lat="47.08081" lon="6.45339">
        <ele>842</ele>
        <time>2020-05-22T15:49:19Z</time>
      </trkpt>
      <trkpt lat="47.08077" lon="6.45339">
        <ele>842</ele>
        <time>2020-05-22T15:49:20Z</time>
      </trkpt>
      <trkpt lat="47.08074" lon="6.45339">
        <ele>842</ele>
        <time>2020-05-22T15:49:21Z</time>
      </trkpt>
      <trkpt lat="47.08071" lon="6.4534">
        <ele>842</ele>
        <time>2020-05-22T15:49:22Z</time>
      </trkpt>
      <trkpt lat="47.08067" lon="6.4534">
        <ele>842</ele>
        <time>2020-05-22T15:49:23Z</time>
      </trkpt>
      <trkpt lat="47.08064" lon="6.4534">
        <ele>842</ele>
        <time>2020-05-22T15:49:24Z</time>
      </trkpt>
      <trkpt lat="47.08061" lon="6.45341">
        <ele>842.2</ele>
        <time>2020-05-22T15:49:25Z</time>
      </trkpt>
      <trkpt lat="47.08058" lon="6.45341">
        <ele>842.2</ele>
        <time>2020-05-22T15:49:26Z</time>
      </trkpt>
      <trkpt lat="47.08055" lon="6.45342">
        <ele>842.2</ele>
        <time>2020-05-22T15:49:27Z</time>
      </trkpt>
      <trkpt lat="47.08052" lon="6.45342">
        <ele>842.4</ele>
        <time>2020-05-22T15:49:28Z</time>
      </trkpt>
      <trkpt lat="47.08049" lon="6.45342">
        <ele>842.4</ele>
        <time>2020-05-22T15:49:29Z</time>
      </trkpt>
      <trkpt lat="47.08046" lon="6.45343">
        <ele>842.4</ele>
        <time>2020-05-22T15:49:30Z</time>
      </trkpt>
      <trkpt lat="47.08043" lon="6.45343">
        <ele>842.4</ele>
        <time>2020-05-22T15:49:31Z</time>
      </trkpt>
      <trkpt lat="47.0804" lon="6.45344">
        <ele>842.4</ele>
        <time>2020-05-22T15:49:32Z</time>
      </trkpt>
      <trkpt lat="47.08038" lon="6.45344">
        <ele>842.4</ele>
        <time>2020-05-22T15:49:33Z</time>
      </trkpt>
      <trkpt lat="47.08035" lon="6.45345">
        <ele>842.6</ele>
        <time>2020-05-22T15:49:34Z</time>
      </trkpt>
      <trkpt lat="47.08033" lon="6.45345">
        <ele>842.6</ele>
        <time>2020-05-22T15:49:35Z</time>
      </trkpt>
      <trkpt lat="47.08031" lon="6.45345">
        <ele>842.6</ele>
        <time>2020-05-22T15:49:36Z</time>
      </trkpt>
      <trkpt lat="47.0803" lon="6.45345">
        <ele>842.6</ele>
        <time>2020-05-22T15:49:37Z</time>
      </trkpt>
      <trkpt lat="47.08029" lon="6.45345">
        <ele>842.6</ele>
        <time>2020-05-22T15:49:38Z</time>
      </trkpt>
      <trkpt lat="47.08029" lon="6.45345">
        <ele>842.6</ele>
        <time>2020-05-22T15:49:39Z</time>
      </trkpt>
      <trkpt lat="47.08021" lon="6.45347">
        <ele>842.8</ele>
        <time>2020-05-22T15:50:22Z</time>
      </trkpt>
      <trkpt lat="47.08019" lon="6.45348">
        <ele>842.8</ele>
        <time>2020-05-22T15:50:23Z</time>
      </trkpt>
      <trkpt lat="47.08017" lon="6.45348">
        <ele>843.2</ele>
        <time>2020-05-22T15:50:24Z</time>
      </trkpt>
      <trkpt lat="47.08015" lon="6.45349">
        <ele>843.2</ele>
        <time>2020-05-22T15:50:25Z</time>
      </trkpt>
      <trkpt lat="47.08013" lon="6.4535">
        <ele>843.2</ele>
        <time>2020-05-22T15:50:26Z</time>
      </trkpt>
      <trkpt lat="47.08011" lon="6.4535">
        <ele>843.2</ele>
        <time>2020-05-22T15:50:27Z</time>
      </trkpt>
      <trkpt lat="47.08008" lon="6.45351">
        <ele>843.2</ele>
        <time>2020-05-22T15:50:28Z</time>
      </trkpt>
      <trkpt lat="47.08005" lon="6.45351">
        <ele>843.4</ele>
        <time>2020-05-22T15:50:29Z</time>
      </trkpt>
      <trkpt lat="47.08002" lon="6.45352">
        <ele>843.4</ele>
        <time>2020-05-22T15:50:30Z</time>
      </trkpt>
      <trkpt lat="47.08" lon="6.45352">
        <ele>843.4</ele>
        <time>2020-05-22T15:50:31Z</time>
      </trkpt>
      <trkpt lat="47.07997" lon="6.45352">
        <ele>843.8</ele>
        <time>2020-05-22T15:50:32Z</time>
      </trkpt>
      <trkpt lat="47.07994" lon="6.45353">
        <ele>843.8</ele>
        <time>2020-05-22T15:50:33Z</time>
      </trkpt>
      <trkpt lat="47.0799" lon="6.45353">
        <ele>843.8</ele>
        <time>2020-05-22T15:50:34Z</time>
      </trkpt>
      <trkpt lat="47.07987" lon="6.45354">
        <ele>843.8</ele>
        <time>2020-05-22T15:50:35Z</time>
      </trkpt>
      <trkpt lat="47.07984" lon="6.45354">
        <ele>844</ele>
        <time>2020-05-22T15:50:36Z</time>
      </trkpt>
      <trkpt lat="47.07981" lon="6.45355">
        <ele>844</ele>
        <time>2020-05-22T15:50:37Z</time>
      </trkpt>
      <trkpt lat="47.07978" lon="6.45355">
        <ele>844</ele>
        <time>2020-05-22T15:50:38Z</time>
      </trkpt>
      <trkpt lat="47.07975" lon="6.45356">
        <ele>844</ele>
        <time>2020-05-22T15:50:39Z</time>
      </trkpt>
      <trkpt lat="47.07971" lon="6.45356">
        <ele>844</ele>
        <time>2020-05-22T15:50:40Z</time>
      </trkpt>
      <trkpt lat="47.07968" lon="6.45357">
        <ele>844.2</ele>
        <time>2020-05-22T15:50:41Z</time>
      </trkpt>
      <trkpt lat="47.07965" lon="6.45358">
        <ele>844.2</ele>
        <time>2020-05-22T15:50:42Z</time>
      </trkpt>
      <trkpt lat="47.07961" lon="6.45358">
        <ele>844.2</ele>
        <time>2020-05-22T15:50:43Z</time>
      </trkpt>
      <trkpt lat="47.07958" lon="6.45358">
        <ele>844.2</ele>
        <time>2020-05-22T15:50:44Z</time>
      </trkpt>
      <trkpt lat="47.07955" lon="6.45358">
        <ele>844.2</ele>
        <time>2020-05-22T15:50:45Z</time>
      </trkpt>
      <trkpt lat="47.07951" lon="6.45358">
        <ele>844.2</ele>
        <time>2020-05-22T15:50:46Z</time>
      </trkpt>
      <trkpt lat="47.07948" lon="6.45358">
        <ele>844.2</ele>
        <time>2020-05-22T15:50:47Z</time>
      </trkpt>
      <trkpt lat="47.07945" lon="6.45358">
        <ele>844.4</ele>
        <time>2020-05-22T15:50:48Z</time>
      </trkpt>
      <trkpt lat="47.07942" lon="6.45357">
        <ele>844.4</ele>
        <time>2020-05-22T15:50:49Z</time>
      </trkpt>
      <trkpt lat="47.07939" lon="6.45357">
        <ele>844.4</ele>
        <time>2020-05-22T15:50:50Z</time>
      </trkpt>
      <trkpt lat="47.07936" lon="6.45357">
        <ele>844.8</ele>
        <time>2020-05-22T15:50:51Z</time>
      </trkpt>
      <trkpt lat="47.07933" lon="6.45356">
        <ele>844.8</ele>
        <time>2020-05-22T15:50:52Z</time>
      </trkpt>
      <trkpt lat="47.0793" lon="6.45355">
        <ele>845</ele>
        <time>2020-05-22T15:50:53Z</time>
      </trkpt>
      <trkpt lat="47.07926" lon="6.45355">
        <ele>845</ele>
        <time>2020-05-22T15:50:54Z</time>
      </trkpt>
      <trkpt lat="47.07923" lon="6.45354">
        <ele>845</ele>
        <time>2020-05-22T15:50:55Z</time>
      </trkpt>
      <trkpt lat="47.0792" lon="6.45353">
        <ele>845.2</ele>
        <time>2020-05-22T15:50:56Z</time>
      </trkpt>
      <trkpt lat="47.07917" lon="6.45352">
        <ele>845.2</ele>
        <time>2020-05-22T15:50:57Z</time>
      </trkpt>
      <trkpt lat="47.07917" lon="6.45352">
        <ele>845.2</ele>
        <time>2020-05-22T15:50:58Z</time>
      </trkpt>
      <trkpt lat="47.0791" lon="6.45349">
        <ele>845.2</ele>
        <time>2020-05-22T15:50:59Z</time>
      </trkpt>
      <trkpt lat="47.07907" lon="6.45348">
        <ele>845.2</ele>
        <time>2020-05-22T15:51:00Z</time>
      </trkpt>
      <trkpt lat="47.07905" lon="6.45347">
        <ele>845.6</ele>
        <time>2020-05-22T15:51:01Z</time>
      </trkpt>
      <trkpt lat="47.07902" lon="6.45345">
        <ele>845.6</ele>
        <time>2020-05-22T15:51:02Z</time>
      </trkpt>
      <trkpt lat="47.07899" lon="6.45344">
        <ele>845.8</ele>
        <time>2020-05-22T15:51:03Z</time>
      </trkpt>
      <trkpt lat="47.07896" lon="6.45343">
        <ele>845.8</ele>
        <time>2020-05-22T15:51:04Z</time>
      </trkpt>
      <trkpt lat="47.07893" lon="6.45341">
        <ele>845.8</ele>
        <time>2020-05-22T15:51:05Z</time>
      </trkpt>
      <trkpt lat="47.0789" lon="6.45339">
        <ele>846</ele>
        <time>2020-05-22T15:51:06Z</time>
      </trkpt>
      <trkpt lat="47.07888" lon="6.45338">
        <ele>846</ele>
        <time>2020-05-22T15:51:07Z</time>
      </trkpt>
      <trkpt lat="47.07885" lon="6.45336">
        <ele>846</ele>
        <time>2020-05-22T15:51:08Z</time>
      </trkpt>
      <trkpt lat="47.07882" lon="6.45334">
        <ele>846</ele>
        <time>2020-05-22T15:51:09Z</time>
      </trkpt>
      <trkpt lat="47.07879" lon="6.45332">
        <ele>846</ele>
        <time>2020-05-22T15:51:10Z</time>
      </trkpt>
      <trkpt lat="47.07876" lon="6.45331">
        <ele>846</ele>
        <time>2020-05-22T15:51:11Z</time>
      </trkpt>
      <trkpt lat="47.07873" lon="6.45329">
        <ele>846.2</ele>
        <time>2020-05-22T15:51:12Z</time>
      </trkpt>
      <trkpt lat="47.0787" lon="6.45328">
        <ele>846.2</ele>
        <time>2020-05-22T15:51:13Z</time>
      </trkpt>
      <trkpt lat="47.07867" lon="6.45326">
        <ele>846.2</ele>
        <time>2020-05-22T15:51:14Z</time>
      </trkpt>
      <trkpt lat="47.07864" lon="6.45325">
        <ele>846.2</ele>
        <time>2020-05-22T15:51:15Z</time>
      </trkpt>
      <trkpt lat="47.07861" lon="6.45324">
        <ele>846.2</ele>
        <time>2020-05-22T15:51:16Z</time>
      </trkpt>
      <trkpt lat="47.07857" lon="6.45323">
        <ele>846.4</ele>
        <time>2020-05-22T15:51:17Z</time>
      </trkpt>
      <trkpt lat="47.07854" lon="6.45322">
        <ele>846.4</ele>
        <time>2020-05-22T15:51:18Z</time>
      </trkpt>
      <trkpt lat="47.07851" lon="6.45321">
        <ele>846.4</ele>
        <time>2020-05-22T15:51:19Z</time>
      </trkpt>
      <trkpt lat="47.07847" lon="6.4532">
        <ele>846.8</ele>
        <time>2020-05-22T15:51:20Z</time>
      </trkpt>
      <trkpt lat="47.07844" lon="6.4532">
        <ele>846.8</ele>
        <time>2020-05-22T15:51:21Z</time>
      </trkpt>
      <trkpt lat="47.07841" lon="6.45319">
        <ele>846.8</ele>
        <time>2020-05-22T15:51:22Z</time>
      </trkpt>
      <trkpt lat="47.07838" lon="6.45319">
        <ele>847</ele>
        <time>2020-05-22T15:51:23Z</time>
      </trkpt>
      <trkpt lat="47.07834" lon="6.45318">
        <ele>847</ele>
        <time>2020-05-22T15:51:24Z</time>
      </trkpt>
      <trkpt lat="47.07831" lon="6.45318">
        <ele>847</ele>
        <time>2020-05-22T15:51:25Z</time>
      </trkpt>
      <trkpt lat="47.07828" lon="6.45318">
        <ele>847.2</ele>
        <time>2020-05-22T15:51:26Z</time>
      </trkpt>
      <trkpt lat="47.07825" lon="6.45318">
        <ele>847.2</ele>
        <time>2020-05-22T15:51:27Z</time>
      </trkpt>
      <trkpt lat="47.07821" lon="6.45318">
        <ele>847.4</ele>
        <time>2020-05-22T15:51:28Z</time>
      </trkpt>
      <trkpt lat="47.07818" lon="6.45318">
        <ele>847.4</ele>
        <time>2020-05-22T15:51:29Z</time>
      </trkpt>
      <trkpt lat="47.07815" lon="6.45319">
        <ele>847.6</ele>
        <time>2020-05-22T15:51:30Z</time>
      </trkpt>
      <trkpt lat="47.07812" lon="6.45319">
        <ele>847.6</ele>
        <time>2020-05-22T15:51:31Z</time>
      </trkpt>
      <trkpt lat="47.07809" lon="6.4532">
        <ele>847.6</ele>
        <time>2020-05-22T15:51:32Z</time>
      </trkpt>
      <trkpt lat="47.07806" lon="6.4532">
        <ele>848</ele>
        <time>2020-05-22T15:51:33Z</time>
      </trkpt>
      <trkpt lat="47.07803" lon="6.45321">
        <ele>848</ele>
        <time>2020-05-22T15:51:34Z</time>
      </trkpt>
      <trkpt lat="47.07801" lon="6.45322">
        <ele>848.2</ele>
        <time>2020-05-22T15:51:35Z</time>
      </trkpt>
      <trkpt lat="47.07798" lon="6.45323">
        <ele>848.2</ele>
        <time>2020-05-22T15:51:36Z</time>
      </trkpt>
      <trkpt lat="47.07796" lon="6.45323">
        <ele>848.4</ele>
        <time>2020-05-22T15:51:37Z</time>
      </trkpt>
      <trkpt lat="47.07793" lon="6.45323">
        <ele>848.4</ele>
        <time>2020-05-22T15:51:38Z</time>
      </trkpt>
      <trkpt lat="47.07791" lon="6.45324">
        <ele>848.8</ele>
        <time>2020-05-22T15:51:39Z</time>
      </trkpt>
      <trkpt lat="47.07788" lon="6.45324">
        <ele>848.8</ele>
        <time>2020-05-22T15:51:40Z</time>
      </trkpt>
      <trkpt lat="47.07785" lon="6.45324">
        <ele>849</ele>
        <time>2020-05-22T15:51:41Z</time>
      </trkpt>
      <trkpt lat="47.07783" lon="6.45324">
        <ele>849</ele>
        <time>2020-05-22T15:51:42Z</time>
      </trkpt>
      <trkpt lat="47.0778" lon="6.45325">
        <ele>849.2</ele>
        <time>2020-05-22T15:51:43Z</time>
      </trkpt>
      <trkpt lat="47.07778" lon="6.45325">
        <ele>849.4</ele>
        <time>2020-05-22T15:51:44Z</time>
      </trkpt>
      <trkpt lat="47.07775" lon="6.45324">
        <ele>849.4</ele>
        <time>2020-05-22T15:51:45Z</time>
      </trkpt>
      <trkpt lat="47.07772" lon="6.45324">
        <ele>849.6</ele>
        <time>2020-05-22T15:51:46Z</time>
      </trkpt>
      <trkpt lat="47.07769" lon="6.45324">
        <ele>849.6</ele>
        <time>2020-05-22T15:51:47Z</time>
      </trkpt>
      <trkpt lat="47.07767" lon="6.45324">
        <ele>850</ele>
        <time>2020-05-22T15:51:48Z</time>
      </trkpt>
      <trkpt lat="47.07764" lon="6.45323">
        <ele>850.4</ele>
        <time>2020-05-22T15:51:49Z</time>
      </trkpt>
      <trkpt lat="47.07761" lon="6.45323">
        <ele>850.4</ele>
        <time>2020-05-22T15:51:50Z</time>
      </trkpt>
      <trkpt lat="47.07758" lon="6.45322">
        <ele>850.6</ele>
        <time>2020-05-22T15:51:51Z</time>
      </trkpt>
      <trkpt lat="47.07756" lon="6.45321">
        <ele>850.6</ele>
        <time>2020-05-22T15:51:52Z</time>
      </trkpt>
      <trkpt lat="47.07753" lon="6.4532">
        <ele>850.8</ele>
        <time>2020-05-22T15:51:53Z</time>
      </trkpt>
      <trkpt lat="47.0775" lon="6.45319">
        <ele>850.8</ele>
        <time>2020-05-22T15:51:54Z</time>
      </trkpt>
      <trkpt lat="47.07747" lon="6.45318">
        <ele>851.2</ele>
        <time>2020-05-22T15:51:55Z</time>
      </trkpt>
      <trkpt lat="47.07744" lon="6.45316">
        <ele>851.2</ele>
        <time>2020-05-22T15:51:56Z</time>
      </trkpt>
      <trkpt lat="47.07742" lon="6.45315">
        <ele>851.4</ele>
        <time>2020-05-22T15:51:57Z</time>
      </trkpt>
      <trkpt lat="47.07738" lon="6.45314">
        <ele>851.6</ele>
        <time>2020-05-22T15:51:58Z</time>
      </trkpt>
      <trkpt lat="47.07735" lon="6.45313">
        <ele>851.6</ele>
        <time>2020-05-22T15:51:59Z</time>
      </trkpt>
      <trkpt lat="47.07732" lon="6.45312">
        <ele>852</ele>
        <time>2020-05-22T15:52:00Z</time>
      </trkpt>
      <trkpt lat="47.07729" lon="6.4531">
        <ele>852</ele>
        <time>2020-05-22T15:52:01Z</time>
      </trkpt>
      <trkpt lat="47.07727" lon="6.45308">
        <ele>852.4</ele>
        <time>2020-05-22T15:52:02Z</time>
      </trkpt>
      <trkpt lat="47.07724" lon="6.45307">
        <ele>852.6</ele>
        <time>2020-05-22T15:52:03Z</time>
      </trkpt>
      <trkpt lat="47.07721" lon="6.45306">
        <ele>852.6</ele>
        <time>2020-05-22T15:52:04Z</time>
      </trkpt>
      <trkpt lat="47.07718" lon="6.45304">
        <ele>853</ele>
        <time>2020-05-22T15:52:05Z</time>
      </trkpt>
      <trkpt lat="47.07715" lon="6.45303">
        <ele>853</ele>
        <time>2020-05-22T15:52:06Z</time>
      </trkpt>
      <trkpt lat="47.07712" lon="6.45301">
        <ele>853.2</ele>
        <time>2020-05-22T15:52:07Z</time>
      </trkpt>
      <trkpt lat="47.0771" lon="6.453">
        <ele>853.2</ele>
        <time>2020-05-22T15:52:08Z</time>
      </trkpt>
      <trkpt lat="47.07707" lon="6.45299">
        <ele>853.4</ele>
        <time>2020-05-22T15:52:09Z</time>
      </trkpt>
      <trkpt lat="47.07704" lon="6.45297">
        <ele>853.4</ele>
        <time>2020-05-22T15:52:10Z</time>
      </trkpt>
      <trkpt lat="47.07701" lon="6.45296">
        <ele>853.4</ele>
        <time>2020-05-22T15:52:11Z</time>
      </trkpt>
      <trkpt lat="47.07699" lon="6.45295">
        <ele>853.6</ele>
        <time>2020-05-22T15:52:12Z</time>
      </trkpt>
      <trkpt lat="47.07696" lon="6.45294">
        <ele>853.6</ele>
        <time>2020-05-22T15:52:13Z</time>
      </trkpt>
      <trkpt lat="47.07693" lon="6.45293">
        <ele>854</ele>
        <time>2020-05-22T15:52:14Z</time>
      </trkpt>
      <trkpt lat="47.07691" lon="6.45291">
        <ele>854</ele>
        <time>2020-05-22T15:52:15Z</time>
      </trkpt>
      <trkpt lat="47.07688" lon="6.4529">
        <ele>854.2</ele>
        <time>2020-05-22T15:52:16Z</time>
      </trkpt>
      <trkpt lat="47.07685" lon="6.45289">
        <ele>854.2</ele>
        <time>2020-05-22T15:52:17Z</time>
      </trkpt>
      <trkpt lat="47.07683" lon="6.45287">
        <ele>854.6</ele>
        <time>2020-05-22T15:52:18Z</time>
      </trkpt>
      <trkpt lat="47.0768" lon="6.45286">
        <ele>854.8</ele>
        <time>2020-05-22T15:52:19Z</time>
      </trkpt>
      <trkpt lat="47.07677" lon="6.45285">
        <ele>854.8</ele>
        <time>2020-05-22T15:52:20Z</time>
      </trkpt>
      <trkpt lat="47.07674" lon="6.45283">
        <ele>855.2</ele>
        <time>2020-05-22T15:52:21Z</time>
      </trkpt>
      <trkpt lat="47.07672" lon="6.45282">
        <ele>855.2</ele>
        <time>2020-05-22T15:52:22Z</time>
      </trkpt>
      <trkpt lat="47.07669" lon="6.45281">
        <ele>855.4</ele>
        <time>2020-05-22T15:52:23Z</time>
      </trkpt>
      <trkpt lat="47.07667" lon="6.4528">
        <ele>855.4</ele>
        <time>2020-05-22T15:52:24Z</time>
      </trkpt>
      <trkpt lat="47.07664" lon="6.45279">
        <ele>855.8</ele>
        <time>2020-05-22T15:52:25Z</time>
      </trkpt>
      <trkpt lat="47.07662" lon="6.45278">
        <ele>856</ele>
        <time>2020-05-22T15:52:26Z</time>
      </trkpt>
      <trkpt lat="47.0766" lon="6.45277">
        <ele>856</ele>
        <time>2020-05-22T15:52:27Z</time>
      </trkpt>
      <trkpt lat="47.07657" lon="6.45276">
        <ele>856.2</ele>
        <time>2020-05-22T15:52:28Z</time>
      </trkpt>
      <trkpt lat="47.07655" lon="6.45275">
        <ele>856.2</ele>
        <time>2020-05-22T15:52:29Z</time>
      </trkpt>
      <trkpt lat="47.07652" lon="6.45274">
        <ele>856.6</ele>
        <time>2020-05-22T15:52:30Z</time>
      </trkpt>
      <trkpt lat="47.0765" lon="6.45272">
        <ele>856.6</ele>
        <time>2020-05-22T15:52:31Z</time>
      </trkpt>
      <trkpt lat="47.07648" lon="6.45271">
        <ele>856.8</ele>
        <time>2020-05-22T15:52:32Z</time>
      </trkpt>
      <trkpt lat="47.07645" lon="6.4527">
        <ele>856.8</ele>
        <time>2020-05-22T15:52:33Z</time>
      </trkpt>
      <trkpt lat="47.07643" lon="6.45269">
        <ele>856.8</ele>
        <time>2020-05-22T15:52:34Z</time>
      </trkpt>
      <trkpt lat="47.07641" lon="6.45268">
        <ele>857.2</ele>
        <time>2020-05-22T15:52:35Z</time>
      </trkpt>
      <trkpt lat="47.07638" lon="6.45266">
        <ele>857.2</ele>
        <time>2020-05-22T15:52:36Z</time>
      </trkpt>
      <trkpt lat="47.07636" lon="6.45265">
        <ele>857.4</ele>
        <time>2020-05-22T15:52:37Z</time>
      </trkpt>
      <trkpt lat="47.07633" lon="6.45264">
        <ele>857.4</ele>
        <time>2020-05-22T15:52:38Z</time>
      </trkpt>
      <trkpt lat="47.07631" lon="6.45263">
        <ele>857.6</ele>
        <time>2020-05-22T15:52:39Z</time>
      </trkpt>
      <trkpt lat="47.07629" lon="6.45262">
        <ele>858</ele>
        <time>2020-05-22T15:52:40Z</time>
      </trkpt>
      <trkpt lat="47.07626" lon="6.4526">
        <ele>858</ele>
        <time>2020-05-22T15:52:41Z</time>
      </trkpt>
      <trkpt lat="47.07624" lon="6.45259">
        <ele>858.2</ele>
        <time>2020-05-22T15:52:42Z</time>
      </trkpt>
      <trkpt lat="47.07621" lon="6.45258">
        <ele>858.2</ele>
        <time>2020-05-22T15:52:43Z</time>
      </trkpt>
      <trkpt lat="47.07619" lon="6.45257">
        <ele>858.6</ele>
        <time>2020-05-22T15:52:44Z</time>
      </trkpt>
      <trkpt lat="47.07616" lon="6.45255">
        <ele>858.6</ele>
        <time>2020-05-22T15:52:45Z</time>
      </trkpt>
      <trkpt lat="47.07613" lon="6.45254">
        <ele>858.8</ele>
        <time>2020-05-22T15:52:46Z</time>
      </trkpt>
      <trkpt lat="47.07611" lon="6.45253">
        <ele>858.8</ele>
        <time>2020-05-22T15:52:47Z</time>
      </trkpt>
      <trkpt lat="47.07609" lon="6.45252">
        <ele>859.2</ele>
        <time>2020-05-22T15:52:48Z</time>
      </trkpt>
      <trkpt lat="47.07606" lon="6.4525">
        <ele>859.2</ele>
        <time>2020-05-22T15:52:49Z</time>
      </trkpt>
      <trkpt lat="47.07604" lon="6.45249">
        <ele>859.6</ele>
        <time>2020-05-22T15:52:50Z</time>
      </trkpt>
      <trkpt lat="47.07601" lon="6.45248">
        <ele>859.6</ele>
        <time>2020-05-22T15:52:51Z</time>
      </trkpt>
      <trkpt lat="47.07599" lon="6.45247">
        <ele>859.8</ele>
        <time>2020-05-22T15:52:52Z</time>
      </trkpt>
      <trkpt lat="47.07597" lon="6.45246">
        <ele>859.8</ele>
        <time>2020-05-22T15:52:53Z</time>
      </trkpt>
      <trkpt lat="47.07594" lon="6.45245">
        <ele>859.8</ele>
        <time>2020-05-22T15:52:54Z</time>
      </trkpt>
      <trkpt lat="47.07591" lon="6.45243">
        <ele>859.8</ele>
        <time>2020-05-22T15:52:55Z</time>
      </trkpt>
      <trkpt lat="47.07589" lon="6.45242">
        <ele>860</ele>
        <time>2020-05-22T15:52:56Z</time>
      </trkpt>
      <trkpt lat="47.07586" lon="6.45241">
        <ele>860</ele>
        <time>2020-05-22T15:52:57Z</time>
      </trkpt>
      <trkpt lat="47.07583" lon="6.45239">
        <ele>860</ele>
        <time>2020-05-22T15:52:58Z</time>
      </trkpt>
      <trkpt lat="47.0758" lon="6.45238">
        <ele>860</ele>
        <time>2020-05-22T15:52:59Z</time>
      </trkpt>
      <trkpt lat="47.07577" lon="6.45236">
        <ele>860</ele>
        <time>2020-05-22T15:53:00Z</time>
      </trkpt>
      <trkpt lat="47.07574" lon="6.45234">
        <ele>860</ele>
        <time>2020-05-22T15:53:01Z</time>
      </trkpt>
      <trkpt lat="47.0757" lon="6.45233">
        <ele>860</ele>
        <time>2020-05-22T15:53:02Z</time>
      </trkpt>
      <trkpt lat="47.07567" lon="6.45231">
        <ele>860</ele>
        <time>2020-05-22T15:53:03Z</time>
      </trkpt>
      <trkpt lat="47.07564" lon="6.4523">
        <ele>860</ele>
        <time>2020-05-22T15:53:04Z</time>
      </trkpt>
      <trkpt lat="47.07561" lon="6.45229">
        <ele>860.2</ele>
        <time>2020-05-22T15:53:05Z</time>
      </trkpt>
      <trkpt lat="47.07557" lon="6.45227">
        <ele>860.2</ele>
        <time>2020-05-22T15:53:06Z</time>
      </trkpt>
      <trkpt lat="47.07554" lon="6.45226">
        <ele>860.2</ele>
        <time>2020-05-22T15:53:07Z</time>
      </trkpt>
      <trkpt lat="47.07551" lon="6.45224">
        <ele>860.4</ele>
        <time>2020-05-22T15:53:08Z</time>
      </trkpt>
      <trkpt lat="47.07548" lon="6.45223">
        <ele>860.4</ele>
        <time>2020-05-22T15:53:09Z</time>
      </trkpt>
      <trkpt lat="47.07545" lon="6.45221">
        <ele>860.6</ele>
        <time>2020-05-22T15:53:10Z</time>
      </trkpt>
      <trkpt lat="47.07542" lon="6.4522">
        <ele>860.6</ele>
        <time>2020-05-22T15:53:11Z</time>
      </trkpt>
      <trkpt lat="47.07539" lon="6.45219">
        <ele>860.6</ele>
        <time>2020-05-22T15:53:12Z</time>
      </trkpt>
      <trkpt lat="47.07536" lon="6.45218">
        <ele>860.8</ele>
        <time>2020-05-22T15:53:13Z</time>
      </trkpt>
      <trkpt lat="47.07533" lon="6.45217">
        <ele>860.8</ele>
        <time>2020-05-22T15:53:14Z</time>
      </trkpt>
      <trkpt lat="47.0753" lon="6.45217">
        <ele>860.8</ele>
        <time>2020-05-22T15:53:15Z</time>
      </trkpt>
      <trkpt lat="47.07527" lon="6.45216">
        <ele>860.8</ele>
        <time>2020-05-22T15:53:16Z</time>
      </trkpt>
      <trkpt lat="47.07525" lon="6.45216">
        <ele>860.8</ele>
        <time>2020-05-22T15:53:17Z</time>
      </trkpt>
      <trkpt lat="47.07522" lon="6.45215">
        <ele>861</ele>
        <time>2020-05-22T15:53:18Z</time>
      </trkpt>
      <trkpt lat="47.07519" lon="6.45215">
        <ele>861</ele>
        <time>2020-05-22T15:53:19Z</time>
      </trkpt>
      <trkpt lat="47.07516" lon="6.45214">
        <ele>861.2</ele>
        <time>2020-05-22T15:53:20Z</time>
      </trkpt>
      <trkpt lat="47.07513" lon="6.45214">
        <ele>861.2</ele>
        <time>2020-05-22T15:53:21Z</time>
      </trkpt>
      <trkpt lat="47.0751" lon="6.45213">
        <ele>861.6</ele>
        <time>2020-05-22T15:53:22Z</time>
      </trkpt>
      <trkpt lat="47.07507" lon="6.45213">
        <ele>861.6</ele>
        <time>2020-05-22T15:53:23Z</time>
      </trkpt>
      <trkpt lat="47.07504" lon="6.45213">
        <ele>861.6</ele>
        <time>2020-05-22T15:53:24Z</time>
      </trkpt>
      <trkpt lat="47.075" lon="6.45213">
        <ele>861.6</ele>
        <time>2020-05-22T15:53:25Z</time>
      </trkpt>
      <trkpt lat="47.07497" lon="6.45212">
        <ele>861.6</ele>
        <time>2020-05-22T15:53:26Z</time>
      </trkpt>
      <trkpt lat="47.07494" lon="6.45212">
        <ele>862</ele>
        <time>2020-05-22T15:53:27Z</time>
      </trkpt>
      <trkpt lat="47.07491" lon="6.45212">
        <ele>862</ele>
        <time>2020-05-22T15:53:28Z</time>
      </trkpt>
      <trkpt lat="47.07488" lon="6.45212">
        <ele>862</ele>
        <time>2020-05-22T15:53:29Z</time>
      </trkpt>
      <trkpt lat="47.07484" lon="6.45212">
        <ele>862</ele>
        <time>2020-05-22T15:53:30Z</time>
      </trkpt>
      <trkpt lat="47.07481" lon="6.45211">
        <ele>862</ele>
        <time>2020-05-22T15:53:31Z</time>
      </trkpt>
      <trkpt lat="47.07477" lon="6.45211">
        <ele>862</ele>
        <time>2020-05-22T15:53:32Z</time>
      </trkpt>
      <trkpt lat="47.07474" lon="6.45211">
        <ele>862</ele>
        <time>2020-05-22T15:53:33Z</time>
      </trkpt>
      <trkpt lat="47.07471" lon="6.45211">
        <ele>862.2</ele>
        <time>2020-05-22T15:53:34Z</time>
      </trkpt>
      <trkpt lat="47.07468" lon="6.4521">
        <ele>862.2</ele>
        <time>2020-05-22T15:53:35Z</time>
      </trkpt>
      <trkpt lat="47.07464" lon="6.4521">
        <ele>862.2</ele>
        <time>2020-05-22T15:53:36Z</time>
      </trkpt>
      <trkpt lat="47.07461" lon="6.45209">
        <ele>862.2</ele>
        <time>2020-05-22T15:53:37Z</time>
      </trkpt>
      <trkpt lat="47.07458" lon="6.45209">
        <ele>862.2</ele>
        <time>2020-05-22T15:53:38Z</time>
      </trkpt>
      <trkpt lat="47.07455" lon="6.45208">
        <ele>862.2</ele>
        <time>2020-05-22T15:53:39Z</time>
      </trkpt>
      <trkpt lat="47.07451" lon="6.45208">
        <ele>862.2</ele>
        <time>2020-05-22T15:53:40Z</time>
      </trkpt>
      <trkpt lat="47.07448" lon="6.45207">
        <ele>862.4</ele>
        <time>2020-05-22T15:53:41Z</time>
      </trkpt>
      <trkpt lat="47.07445" lon="6.45206">
        <ele>862.4</ele>
        <time>2020-05-22T15:53:42Z</time>
      </trkpt>
      <trkpt lat="47.07442" lon="6.45205">
        <ele>862.4</ele>
        <time>2020-05-22T15:53:43Z</time>
      </trkpt>
      <trkpt lat="47.07439" lon="6.45204">
        <ele>862.4</ele>
        <time>2020-05-22T15:53:44Z</time>
      </trkpt>
      <trkpt lat="47.07436" lon="6.45202">
        <ele>862.8</ele>
        <time>2020-05-22T15:53:45Z</time>
      </trkpt>
      <trkpt lat="47.07433" lon="6.45201">
        <ele>862.8</ele>
        <time>2020-05-22T15:53:46Z</time>
      </trkpt>
      <trkpt lat="47.0743" lon="6.452">
        <ele>863</ele>
        <time>2020-05-22T15:53:47Z</time>
      </trkpt>
      <trkpt lat="47.07427" lon="6.45198">
        <ele>863</ele>
        <time>2020-05-22T15:53:48Z</time>
      </trkpt>
      <trkpt lat="47.07424" lon="6.45197">
        <ele>863</ele>
        <time>2020-05-22T15:53:49Z</time>
      </trkpt>
      <trkpt lat="47.07422" lon="6.45195">
        <ele>863</ele>
        <time>2020-05-22T15:53:50Z</time>
      </trkpt>
      <trkpt lat="47.07419" lon="6.45193">
        <ele>863</ele>
        <time>2020-05-22T15:53:51Z</time>
      </trkpt>
      <trkpt lat="47.07416" lon="6.45191">
        <ele>863.2</ele>
        <time>2020-05-22T15:53:52Z</time>
      </trkpt>
      <trkpt lat="47.07414" lon="6.45189">
        <ele>863.2</ele>
        <time>2020-05-22T15:53:53Z</time>
      </trkpt>
      <trkpt lat="47.07411" lon="6.45187">
        <ele>863.2</ele>
        <time>2020-05-22T15:53:54Z</time>
      </trkpt>
      <trkpt lat="47.07408" lon="6.45184">
        <ele>863.4</ele>
        <time>2020-05-22T15:53:55Z</time>
      </trkpt>
      <trkpt lat="47.07405" lon="6.45182">
        <ele>863.4</ele>
        <time>2020-05-22T15:53:56Z</time>
      </trkpt>
      <trkpt lat="47.07403" lon="6.45179">
        <ele>863.4</ele>
        <time>2020-05-22T15:53:57Z</time>
      </trkpt>
      <trkpt lat="47.074" lon="6.45176">
        <ele>863.4</ele>
        <time>2020-05-22T15:53:58Z</time>
      </trkpt>
      <trkpt lat="47.07398" lon="6.45174">
        <ele>863.4</ele>
        <time>2020-05-22T15:53:59Z</time>
      </trkpt>
      <trkpt lat="47.07395" lon="6.45171">
        <ele>863.4</ele>
        <time>2020-05-22T15:54:00Z</time>
      </trkpt>
      <trkpt lat="47.07393" lon="6.45168">
        <ele>863.6</ele>
        <time>2020-05-22T15:54:01Z</time>
      </trkpt>
      <trkpt lat="47.0739" lon="6.45165">
        <ele>863.6</ele>
        <time>2020-05-22T15:54:02Z</time>
      </trkpt>
      <trkpt lat="47.07388" lon="6.45162">
        <ele>863.6</ele>
        <time>2020-05-22T15:54:03Z</time>
      </trkpt>
      <trkpt lat="47.07385" lon="6.45159">
        <ele>863.6</ele>
        <time>2020-05-22T15:54:04Z</time>
      </trkpt>
      <trkpt lat="47.07383" lon="6.45156">
        <ele>863.8</ele>
        <time>2020-05-22T15:54:05Z</time>
      </trkpt>
      <trkpt lat="47.07381" lon="6.45153">
        <ele>863.8</ele>
        <time>2020-05-22T15:54:06Z</time>
      </trkpt>
      <trkpt lat="47.07378" lon="6.4515">
        <ele>863.8</ele>
        <time>2020-05-22T15:54:07Z</time>
      </trkpt>
      <trkpt lat="47.07375" lon="6.45147">
        <ele>864</ele>
        <time>2020-05-22T15:54:08Z</time>
      </trkpt>
      <trkpt lat="47.07373" lon="6.45145">
        <ele>864</ele>
        <time>2020-05-22T15:54:09Z</time>
      </trkpt>
      <trkpt lat="47.0737" lon="6.45142">
        <ele>864</ele>
        <time>2020-05-22T15:54:10Z</time>
      </trkpt>
      <trkpt lat="47.07367" lon="6.45139">
        <ele>864</ele>
        <time>2020-05-22T15:54:11Z</time>
      </trkpt>
      <trkpt lat="47.07365" lon="6.45137">
        <ele>864</ele>
        <time>2020-05-22T15:54:12Z</time>
      </trkpt>
      <trkpt lat="47.07362" lon="6.45134">
        <ele>864.4</ele>
        <time>2020-05-22T15:54:13Z</time>
      </trkpt>
      <trkpt lat="47.07359" lon="6.45132">
        <ele>864.4</ele>
        <time>2020-05-22T15:54:14Z</time>
      </trkpt>
      <trkpt lat="47.07356" lon="6.4513">
        <ele>864.4</ele>
        <time>2020-05-22T15:54:15Z</time>
      </trkpt>
      <trkpt lat="47.07353" lon="6.45127">
        <ele>864.4</ele>
        <time>2020-05-22T15:54:16Z</time>
      </trkpt>
      <trkpt lat="47.0735" lon="6.45125">
        <ele>864.6</ele>
        <time>2020-05-22T15:54:17Z</time>
      </trkpt>
      <trkpt lat="47.07347" lon="6.45124">
        <ele>864.6</ele>
        <time>2020-05-22T15:54:18Z</time>
      </trkpt>
      <trkpt lat="47.07344" lon="6.45122">
        <ele>864.6</ele>
        <time>2020-05-22T15:54:19Z</time>
      </trkpt>
      <trkpt lat="47.07341" lon="6.4512">
        <ele>864.6</ele>
        <time>2020-05-22T15:54:20Z</time>
      </trkpt>
      <trkpt lat="47.07338" lon="6.45119">
        <ele>864.6</ele>
        <time>2020-05-22T15:54:21Z</time>
      </trkpt>
      <trkpt lat="47.07336" lon="6.45117">
        <ele>865</ele>
        <time>2020-05-22T15:54:22Z</time>
      </trkpt>
      <trkpt lat="47.07333" lon="6.45115">
        <ele>865</ele>
        <time>2020-05-22T15:54:23Z</time>
      </trkpt>
      <trkpt lat="47.0733" lon="6.45114">
        <ele>865.2</ele>
        <time>2020-05-22T15:54:24Z</time>
      </trkpt>
      <trkpt lat="47.07327" lon="6.45113">
        <ele>865.2</ele>
        <time>2020-05-22T15:54:25Z</time>
      </trkpt>
      <trkpt lat="47.07324" lon="6.45112">
        <ele>865.6</ele>
        <time>2020-05-22T15:54:26Z</time>
      </trkpt>
      <trkpt lat="47.07321" lon="6.45111">
        <ele>865.6</ele>
        <time>2020-05-22T15:54:27Z</time>
      </trkpt>
      <trkpt lat="47.07318" lon="6.4511">
        <ele>865.8</ele>
        <time>2020-05-22T15:54:28Z</time>
      </trkpt>
      <trkpt lat="47.07315" lon="6.45109">
        <ele>865.8</ele>
        <time>2020-05-22T15:54:29Z</time>
      </trkpt>
      <trkpt lat="47.07312" lon="6.45108">
        <ele>866</ele>
        <time>2020-05-22T15:54:30Z</time>
      </trkpt>
      <trkpt lat="47.07309" lon="6.45106">
        <ele>866</ele>
        <time>2020-05-22T15:54:31Z</time>
      </trkpt>
      <trkpt lat="47.07306" lon="6.45105">
        <ele>866</ele>
        <time>2020-05-22T15:54:32Z</time>
      </trkpt>
      <trkpt lat="47.07303" lon="6.45104">
        <ele>866.2</ele>
        <time>2020-05-22T15:54:33Z</time>
      </trkpt>
      <trkpt lat="47.07301" lon="6.45102">
        <ele>866.2</ele>
        <time>2020-05-22T15:54:34Z</time>
      </trkpt>
      <trkpt lat="47.07298" lon="6.45102">
        <ele>866.4</ele>
        <time>2020-05-22T15:54:35Z</time>
      </trkpt>
      <trkpt lat="47.07295" lon="6.45101">
        <ele>866.4</ele>
        <time>2020-05-22T15:54:36Z</time>
      </trkpt>
      <trkpt lat="47.07293" lon="6.451">
        <ele>866.4</ele>
        <time>2020-05-22T15:54:37Z</time>
      </trkpt>
      <trkpt lat="47.0729" lon="6.451">
        <ele>866.8</ele>
        <time>2020-05-22T15:54:38Z</time>
      </trkpt>
      <trkpt lat="47.07288" lon="6.45099">
        <ele>866.8</ele>
        <time>2020-05-22T15:54:39Z</time>
      </trkpt>
      <trkpt lat="47.07285" lon="6.45098">
        <ele>867</ele>
        <time>2020-05-22T15:54:40Z</time>
      </trkpt>
      <trkpt lat="47.07283" lon="6.45097">
        <ele>867</ele>
        <time>2020-05-22T15:54:41Z</time>
      </trkpt>
      <trkpt lat="47.07281" lon="6.45096">
        <ele>867.4</ele>
        <time>2020-05-22T15:54:42Z</time>
      </trkpt>
      <trkpt lat="47.07278" lon="6.45096">
        <ele>867.4</ele>
        <time>2020-05-22T15:54:43Z</time>
      </trkpt>
      <trkpt lat="47.07276" lon="6.45096">
        <ele>867.6</ele>
        <time>2020-05-22T15:54:44Z</time>
      </trkpt>
      <trkpt lat="47.07273" lon="6.45095">
        <ele>867.6</ele>
        <time>2020-05-22T15:54:45Z</time>
      </trkpt>
      <trkpt lat="47.07271" lon="6.45094">
        <ele>867.8</ele>
        <time>2020-05-22T15:54:46Z</time>
      </trkpt>
      <trkpt lat="47.07268" lon="6.45093">
        <ele>867.8</ele>
        <time>2020-05-22T15:54:47Z</time>
      </trkpt>
      <trkpt lat="47.07266" lon="6.45092">
        <ele>867.8</ele>
        <time>2020-05-22T15:54:48Z</time>
      </trkpt>
      <trkpt lat="47.07264" lon="6.45091">
        <ele>868.2</ele>
        <time>2020-05-22T15:54:49Z</time>
      </trkpt>
      <trkpt lat="47.07261" lon="6.4509">
        <ele>868.4</ele>
        <time>2020-05-22T15:54:50Z</time>
      </trkpt>
      <trkpt lat="47.07259" lon="6.45088">
        <ele>868.6</ele>
        <time>2020-05-22T15:54:51Z</time>
      </trkpt>
      <trkpt lat="47.07257" lon="6.45087">
        <ele>868.6</ele>
        <time>2020-05-22T15:54:52Z</time>
      </trkpt>
      <trkpt lat="47.07254" lon="6.45085">
        <ele>869</ele>
        <time>2020-05-22T15:54:53Z</time>
      </trkpt>
      <trkpt lat="47.07252" lon="6.45084">
        <ele>869</ele>
        <time>2020-05-22T15:54:54Z</time>
      </trkpt>
      <trkpt lat="47.0725" lon="6.45082">
        <ele>869.2</ele>
        <time>2020-05-22T15:54:55Z</time>
      </trkpt>
      <trkpt lat="47.07248" lon="6.45081">
        <ele>869.2</ele>
        <time>2020-05-22T15:54:56Z</time>
      </trkpt>
      <trkpt lat="47.07246" lon="6.45079">
        <ele>869.6</ele>
        <time>2020-05-22T15:54:57Z</time>
      </trkpt>
      <trkpt lat="47.07244" lon="6.45078">
        <ele>869.6</ele>
        <time>2020-05-22T15:54:58Z</time>
      </trkpt>
      <trkpt lat="47.07242" lon="6.45076">
        <ele>869.8</ele>
        <time>2020-05-22T15:54:59Z</time>
      </trkpt>
      <trkpt lat="47.07239" lon="6.45074">
        <ele>869.8</ele>
        <time>2020-05-22T15:55:00Z</time>
      </trkpt>
      <trkpt lat="47.07237" lon="6.45072">
        <ele>870</ele>
        <time>2020-05-22T15:55:01Z</time>
      </trkpt>
      <trkpt lat="47.07235" lon="6.4507">
        <ele>870</ele>
        <time>2020-05-22T15:55:02Z</time>
      </trkpt>
      <trkpt lat="47.07233" lon="6.45068">
        <ele>870.4</ele>
        <time>2020-05-22T15:55:03Z</time>
      </trkpt>
      <trkpt lat="47.07231" lon="6.45065">
        <ele>870.4</ele>
        <time>2020-05-22T15:55:04Z</time>
      </trkpt>
      <trkpt lat="47.07229" lon="6.45062">
        <ele>870.6</ele>
        <time>2020-05-22T15:55:05Z</time>
      </trkpt>
      <trkpt lat="47.07227" lon="6.45059">
        <ele>870.6</ele>
        <time>2020-05-22T15:55:06Z</time>
      </trkpt>
      <trkpt lat="47.07226" lon="6.45057">
        <ele>871</ele>
        <time>2020-05-22T15:55:07Z</time>
      </trkpt>
      <trkpt lat="47.07224" lon="6.45054">
        <ele>871.2</ele>
        <time>2020-05-22T15:55:08Z</time>
      </trkpt>
      <trkpt lat="47.07223" lon="6.45051">
        <ele>871.2</ele>
        <time>2020-05-22T15:55:09Z</time>
      </trkpt>
      <trkpt lat="47.07221" lon="6.45048">
        <ele>871.6</ele>
        <time>2020-05-22T15:55:10Z</time>
      </trkpt>
      <trkpt lat="47.07219" lon="6.45045">
        <ele>871.6</ele>
        <time>2020-05-22T15:55:11Z</time>
      </trkpt>
      <trkpt lat="47.07218" lon="6.45042">
        <ele>871.8</ele>
        <time>2020-05-22T15:55:12Z</time>
      </trkpt>
      <trkpt lat="47.07216" lon="6.45039">
        <ele>871.8</ele>
        <time>2020-05-22T15:55:13Z</time>
      </trkpt>
      <trkpt lat="47.07215" lon="6.45036">
        <ele>872.2</ele>
        <time>2020-05-22T15:55:14Z</time>
      </trkpt>
      <trkpt lat="47.07214" lon="6.45033">
        <ele>872.2</ele>
        <time>2020-05-22T15:55:15Z</time>
      </trkpt>
      <trkpt lat="47.07213" lon="6.4503">
        <ele>872.6</ele>
        <time>2020-05-22T15:55:16Z</time>
      </trkpt>
      <trkpt lat="47.07212" lon="6.45027">
        <ele>872.6</ele>
        <time>2020-05-22T15:55:17Z</time>
      </trkpt>
      <trkpt lat="47.07211" lon="6.45024">
        <ele>872.8</ele>
        <time>2020-05-22T15:55:18Z</time>
      </trkpt>
      <trkpt lat="47.0721" lon="6.45021">
        <ele>872.8</ele>
        <time>2020-05-22T15:55:19Z</time>
      </trkpt>
      <trkpt lat="47.07209" lon="6.45018">
        <ele>873.2</ele>
        <time>2020-05-22T15:55:20Z</time>
      </trkpt>
      <trkpt lat="47.07208" lon="6.45015">
        <ele>873.2</ele>
        <time>2020-05-22T15:55:21Z</time>
      </trkpt>
      <trkpt lat="47.07207" lon="6.45013">
        <ele>873.4</ele>
        <time>2020-05-22T15:55:22Z</time>
      </trkpt>
      <trkpt lat="47.07206" lon="6.45011">
        <ele>873.4</ele>
        <time>2020-05-22T15:55:23Z</time>
      </trkpt>
      <trkpt lat="47.07205" lon="6.45008">
        <ele>873.6</ele>
        <time>2020-05-22T15:55:24Z</time>
      </trkpt>
      <trkpt lat="47.07204" lon="6.45006">
        <ele>873.6</ele>
        <time>2020-05-22T15:55:25Z</time>
      </trkpt>
      <trkpt lat="47.07203" lon="6.45003">
        <ele>873.6</ele>
        <time>2020-05-22T15:55:26Z</time>
      </trkpt>
      <trkpt lat="47.07203" lon="6.45">
        <ele>873.8</ele>
        <time>2020-05-22T15:55:27Z</time>
      </trkpt>
      <trkpt lat="47.07202" lon="6.44997">
        <ele>873.8</ele>
        <time>2020-05-22T15:55:28Z</time>
      </trkpt>
      <trkpt lat="47.07201" lon="6.44994">
        <ele>873.8</ele>
        <time>2020-05-22T15:55:29Z</time>
      </trkpt>
      <trkpt lat="47.072" lon="6.44991">
        <ele>873.8</ele>
        <time>2020-05-22T15:55:30Z</time>
      </trkpt>
      <trkpt lat="47.07199" lon="6.44988">
        <ele>874.2</ele>
        <time>2020-05-22T15:55:31Z</time>
      </trkpt>
      <trkpt lat="47.07198" lon="6.44985">
        <ele>874.2</ele>
        <time>2020-05-22T15:55:32Z</time>
      </trkpt>
      <trkpt lat="47.07197" lon="6.44982">
        <ele>874.2</ele>
        <time>2020-05-22T15:55:33Z</time>
      </trkpt>
      <trkpt lat="47.07196" lon="6.44979">
        <ele>874.4</ele>
        <time>2020-05-22T15:55:34Z</time>
      </trkpt>
      <trkpt lat="47.07195" lon="6.44976">
        <ele>874.4</ele>
        <time>2020-05-22T15:55:35Z</time>
      </trkpt>
      <trkpt lat="47.07194" lon="6.44973">
        <ele>874.6</ele>
        <time>2020-05-22T15:55:36Z</time>
      </trkpt>
      <trkpt lat="47.07193" lon="6.4497">
        <ele>874.6</ele>
        <time>2020-05-22T15:55:37Z</time>
      </trkpt>
      <trkpt lat="47.07192" lon="6.44967">
        <ele>875</ele>
        <time>2020-05-22T15:55:38Z</time>
      </trkpt>
      <trkpt lat="47.0719" lon="6.44964">
        <ele>875</ele>
        <time>2020-05-22T15:55:39Z</time>
      </trkpt>
      <trkpt lat="47.07189" lon="6.44962">
        <ele>875.2</ele>
        <time>2020-05-22T15:55:40Z</time>
      </trkpt>
      <trkpt lat="47.07188" lon="6.44959">
        <ele>875.2</ele>
        <time>2020-05-22T15:55:41Z</time>
      </trkpt>
      <trkpt lat="47.07186" lon="6.44957">
        <ele>875.2</ele>
        <time>2020-05-22T15:55:42Z</time>
      </trkpt>
      <trkpt lat="47.07185" lon="6.44954">
        <ele>875.2</ele>
        <time>2020-05-22T15:55:43Z</time>
      </trkpt>
      <trkpt lat="47.07184" lon="6.44952">
        <ele>875.4</ele>
        <time>2020-05-22T15:55:44Z</time>
      </trkpt>
      <trkpt lat="47.07183" lon="6.44949">
        <ele>875.4</ele>
        <time>2020-05-22T15:55:45Z</time>
      </trkpt>
      <trkpt lat="47.07181" lon="6.44946">
        <ele>875.4</ele>
        <time>2020-05-22T15:55:46Z</time>
      </trkpt>
      <trkpt lat="47.0718" lon="6.44944">
        <ele>875.6</ele>
        <time>2020-05-22T15:55:47Z</time>
      </trkpt>
      <trkpt lat="47.07179" lon="6.44941">
        <ele>875.6</ele>
        <time>2020-05-22T15:55:48Z</time>
      </trkpt>
      <trkpt lat="47.07178" lon="6.44937">
        <ele>875.6</ele>
        <time>2020-05-22T15:55:49Z</time>
      </trkpt>
      <trkpt lat="47.07177" lon="6.44934">
        <ele>875.6</ele>
        <time>2020-05-22T15:55:50Z</time>
      </trkpt>
      <trkpt lat="47.07175" lon="6.4493">
        <ele>875.6</ele>
        <time>2020-05-22T15:55:51Z</time>
      </trkpt>
      <trkpt lat="47.07174" lon="6.44927">
        <ele>875.8</ele>
        <time>2020-05-22T15:55:52Z</time>
      </trkpt>
      <trkpt lat="47.07172" lon="6.44924">
        <ele>875.8</ele>
        <time>2020-05-22T15:55:53Z</time>
      </trkpt>
      <trkpt lat="47.0717" lon="6.44921">
        <ele>875.8</ele>
        <time>2020-05-22T15:55:54Z</time>
      </trkpt>
      <trkpt lat="47.07169" lon="6.44919">
        <ele>876.2</ele>
        <time>2020-05-22T15:55:55Z</time>
      </trkpt>
      <trkpt lat="47.07167" lon="6.44916">
        <ele>876.2</ele>
        <time>2020-05-22T15:55:56Z</time>
      </trkpt>
      <trkpt lat="47.07166" lon="6.44913">
        <ele>876.2</ele>
        <time>2020-05-22T15:55:57Z</time>
      </trkpt>
      <trkpt lat="47.07164" lon="6.44911">
        <ele>876.4</ele>
        <time>2020-05-22T15:55:58Z</time>
      </trkpt>
      <trkpt lat="47.07163" lon="6.44908">
        <ele>876.4</ele>
        <time>2020-05-22T15:55:59Z</time>
      </trkpt>
      <trkpt lat="47.07161" lon="6.44905">
        <ele>876.8</ele>
        <time>2020-05-22T15:56:00Z</time>
      </trkpt>
      <trkpt lat="47.07159" lon="6.44902">
        <ele>876.8</ele>
        <time>2020-05-22T15:56:01Z</time>
      </trkpt>
      <trkpt lat="47.07158" lon="6.449">
        <ele>876.8</ele>
        <time>2020-05-22T15:56:02Z</time>
      </trkpt>
      <trkpt lat="47.07156" lon="6.44897">
        <ele>877</ele>
        <time>2020-05-22T15:56:03Z</time>
      </trkpt>
      <trkpt lat="47.07154" lon="6.44895">
        <ele>877</ele>
        <time>2020-05-22T15:56:04Z</time>
      </trkpt>
      <trkpt lat="47.07152" lon="6.44892">
        <ele>877</ele>
        <time>2020-05-22T15:56:05Z</time>
      </trkpt>
      <trkpt lat="47.07151" lon="6.4489">
        <ele>877</ele>
        <time>2020-05-22T15:56:06Z</time>
      </trkpt>
      <trkpt lat="47.07149" lon="6.44887">
        <ele>877.2</ele>
        <time>2020-05-22T15:56:07Z</time>
      </trkpt>
      <trkpt lat="47.07146" lon="6.44885">
        <ele>877.2</ele>
        <time>2020-05-22T15:56:08Z</time>
      </trkpt>
      <trkpt lat="47.07144" lon="6.44883">
        <ele>877.2</ele>
        <time>2020-05-22T15:56:09Z</time>
      </trkpt>
      <trkpt lat="47.07142" lon="6.4488">
        <ele>877.6</ele>
        <time>2020-05-22T15:56:10Z</time>
      </trkpt>
      <trkpt lat="47.0714" lon="6.44878">
        <ele>877.6</ele>
        <time>2020-05-22T15:56:11Z</time>
      </trkpt>
      <trkpt lat="47.07138" lon="6.44876">
        <ele>877.8</ele>
        <time>2020-05-22T15:56:12Z</time>
      </trkpt>
      <trkpt lat="47.07136" lon="6.44874">
        <ele>877.8</ele>
        <time>2020-05-22T15:56:13Z</time>
      </trkpt>
      <trkpt lat="47.07134" lon="6.44872">
        <ele>877.8</ele>
        <time>2020-05-22T15:56:14Z</time>
      </trkpt>
      <trkpt lat="47.07132" lon="6.4487">
        <ele>878</ele>
        <time>2020-05-22T15:56:15Z</time>
      </trkpt>
      <trkpt lat="47.0713" lon="6.44868">
        <ele>878</ele>
        <time>2020-05-22T15:56:16Z</time>
      </trkpt>
      <trkpt lat="47.07128" lon="6.44866">
        <ele>878.4</ele>
        <time>2020-05-22T15:56:17Z</time>
      </trkpt>
      <trkpt lat="47.07126" lon="6.44864">
        <ele>878.4</ele>
        <time>2020-05-22T15:56:18Z</time>
      </trkpt>
      <trkpt lat="47.07124" lon="6.44862">
        <ele>878.6</ele>
        <time>2020-05-22T15:56:19Z</time>
      </trkpt>
      <trkpt lat="47.07122" lon="6.4486">
        <ele>878.6</ele>
        <time>2020-05-22T15:56:20Z</time>
      </trkpt>
      <trkpt lat="47.0712" lon="6.44858">
        <ele>878.8</ele>
        <time>2020-05-22T15:56:21Z</time>
      </trkpt>
      <trkpt lat="47.07118" lon="6.44856">
        <ele>878.8</ele>
        <time>2020-05-22T15:56:22Z</time>
      </trkpt>
      <trkpt lat="47.07116" lon="6.44855">
        <ele>879</ele>
        <time>2020-05-22T15:56:23Z</time>
      </trkpt>
      <trkpt lat="47.07114" lon="6.44854">
        <ele>879</ele>
        <time>2020-05-22T15:56:24Z</time>
      </trkpt>
      <trkpt lat="47.07112" lon="6.44852">
        <ele>879.2</ele>
        <time>2020-05-22T15:56:25Z</time>
      </trkpt>
      <trkpt lat="47.0711" lon="6.4485">
        <ele>879.2</ele>
        <time>2020-05-22T15:56:26Z</time>
      </trkpt>
      <trkpt lat="47.07108" lon="6.44849">
        <ele>879.6</ele>
        <time>2020-05-22T15:56:27Z</time>
      </trkpt>
      <trkpt lat="47.07106" lon="6.44848">
        <ele>879.6</ele>
        <time>2020-05-22T15:56:28Z</time>
      </trkpt>
      <trkpt lat="47.07104" lon="6.44847">
        <ele>879.6</ele>
        <time>2020-05-22T15:56:29Z</time>
      </trkpt>
      <trkpt lat="47.07102" lon="6.44845">
        <ele>879.6</ele>
        <time>2020-05-22T15:56:30Z</time>
      </trkpt>
      <trkpt lat="47.071" lon="6.44844">
        <ele>879.8</ele>
        <time>2020-05-22T15:56:31Z</time>
      </trkpt>
      <trkpt lat="47.07098" lon="6.44842">
        <ele>879.8</ele>
        <time>2020-05-22T15:56:32Z</time>
      </trkpt>
      <trkpt lat="47.07096" lon="6.4484">
        <ele>880</ele>
        <time>2020-05-22T15:56:33Z</time>
      </trkpt>
      <trkpt lat="47.07094" lon="6.44838">
        <ele>880</ele>
        <time>2020-05-22T15:56:34Z</time>
      </trkpt>
      <trkpt lat="47.07092" lon="6.44836">
        <ele>880</ele>
        <time>2020-05-22T15:56:35Z</time>
      </trkpt>
      <trkpt lat="47.0709" lon="6.44834">
        <ele>880.2</ele>
        <time>2020-05-22T15:56:36Z</time>
      </trkpt>
      <trkpt lat="47.07088" lon="6.44831">
        <ele>880.2</ele>
        <time>2020-05-22T15:56:37Z</time>
      </trkpt>
      <trkpt lat="47.07086" lon="6.44829">
        <ele>880.2</ele>
        <time>2020-05-22T15:56:38Z</time>
      </trkpt>
      <trkpt lat="47.07084" lon="6.44827">
        <ele>880.6</ele>
        <time>2020-05-22T15:56:39Z</time>
      </trkpt>
      <trkpt lat="47.07082" lon="6.44825">
        <ele>880.6</ele>
        <time>2020-05-22T15:56:40Z</time>
      </trkpt>
      <trkpt lat="47.07081" lon="6.44822">
        <ele>880.6</ele>
        <time>2020-05-22T15:56:41Z</time>
      </trkpt>
      <trkpt lat="47.07079" lon="6.4482">
        <ele>880.8</ele>
        <time>2020-05-22T15:56:42Z</time>
      </trkpt>
      <trkpt lat="47.07077" lon="6.44818">
        <ele>880.8</ele>
        <time>2020-05-22T15:56:43Z</time>
      </trkpt>
      <trkpt lat="47.07075" lon="6.44815">
        <ele>880.8</ele>
        <time>2020-05-22T15:56:44Z</time>
      </trkpt>
      <trkpt lat="47.07074" lon="6.44813">
        <ele>881</ele>
        <time>2020-05-22T15:56:45Z</time>
      </trkpt>
      <trkpt lat="47.07072" lon="6.4481">
        <ele>881</ele>
        <time>2020-05-22T15:56:46Z</time>
      </trkpt>
      <trkpt lat="47.07071" lon="6.44808">
        <ele>881</ele>
        <time>2020-05-22T15:56:47Z</time>
      </trkpt>
      <trkpt lat="47.07069" lon="6.44805">
        <ele>881.2</ele>
        <time>2020-05-22T15:56:48Z</time>
      </trkpt>
      <trkpt lat="47.07067" lon="6.44803">
        <ele>881.2</ele>
        <time>2020-05-22T15:56:49Z</time>
      </trkpt>
      <trkpt lat="47.07066" lon="6.448">
        <ele>881.6</ele>
        <time>2020-05-22T15:56:50Z</time>
      </trkpt>
      <trkpt lat="47.07064" lon="6.44798">
        <ele>881.6</ele>
        <time>2020-05-22T15:56:51Z</time>
      </trkpt>
      <trkpt lat="47.07063" lon="6.44795">
        <ele>881.6</ele>
        <time>2020-05-22T15:56:52Z</time>
      </trkpt>
      <trkpt lat="47.07061" lon="6.44792">
        <ele>881.8</ele>
        <time>2020-05-22T15:56:53Z</time>
      </trkpt>
      <trkpt lat="47.0706" lon="6.44789">
        <ele>881.8</ele>
        <time>2020-05-22T15:56:54Z</time>
      </trkpt>
      <trkpt lat="47.07058" lon="6.44786">
        <ele>882</ele>
        <time>2020-05-22T15:56:55Z</time>
      </trkpt>
      <trkpt lat="47.07057" lon="6.44784">
        <ele>882</ele>
        <time>2020-05-22T15:56:56Z</time>
      </trkpt>
      <trkpt lat="47.07055" lon="6.44781">
        <ele>882.2</ele>
        <time>2020-05-22T15:56:57Z</time>
      </trkpt>
      <trkpt lat="47.07054" lon="6.44778">
        <ele>882.2</ele>
        <time>2020-05-22T15:56:58Z</time>
      </trkpt>
      <trkpt lat="47.07052" lon="6.44775">
        <ele>882.4</ele>
        <time>2020-05-22T15:56:59Z</time>
      </trkpt>
      <trkpt lat="47.07051" lon="6.44773">
        <ele>882.4</ele>
        <time>2020-05-22T15:57:00Z</time>
      </trkpt>
      <trkpt lat="47.0705" lon="6.4477">
        <ele>882.8</ele>
        <time>2020-05-22T15:57:01Z</time>
      </trkpt>
      <trkpt lat="47.07048" lon="6.44767">
        <ele>882.8</ele>
        <time>2020-05-22T15:57:02Z</time>
      </trkpt>
      <trkpt lat="47.07047" lon="6.44764">
        <ele>883</ele>
        <time>2020-05-22T15:57:03Z</time>
      </trkpt>
      <trkpt lat="47.07046" lon="6.44762">
        <ele>883</ele>
        <time>2020-05-22T15:57:04Z</time>
      </trkpt>
      <trkpt lat="47.07044" lon="6.44759">
        <ele>883.2</ele>
        <time>2020-05-22T15:57:05Z</time>
      </trkpt>
      <trkpt lat="47.07043" lon="6.44756">
        <ele>883.2</ele>
        <time>2020-05-22T15:57:06Z</time>
      </trkpt>
      <trkpt lat="47.07042" lon="6.44753">
        <ele>883.4</ele>
        <time>2020-05-22T15:57:07Z</time>
      </trkpt>
      <trkpt lat="47.0704" lon="6.44751">
        <ele>883.4</ele>
        <time>2020-05-22T15:57:08Z</time>
      </trkpt>
      <trkpt lat="47.07039" lon="6.44748">
        <ele>883.4</ele>
        <time>2020-05-22T15:57:09Z</time>
      </trkpt>
      <trkpt lat="47.07037" lon="6.44745">
        <ele>883.8</ele>
        <time>2020-05-22T15:57:10Z</time>
      </trkpt>
      <trkpt lat="47.07036" lon="6.44742">
        <ele>883.8</ele>
        <time>2020-05-22T15:57:11Z</time>
      </trkpt>
      <trkpt lat="47.07034" lon="6.44739">
        <ele>883.8</ele>
        <time>2020-05-22T15:57:12Z</time>
      </trkpt>
      <trkpt lat="47.07032" lon="6.44737">
        <ele>884.2</ele>
        <time>2020-05-22T15:57:13Z</time>
      </trkpt>
      <trkpt lat="47.07031" lon="6.44734">
        <ele>884.2</ele>
        <time>2020-05-22T15:57:14Z</time>
      </trkpt>
      <trkpt lat="47.0703" lon="6.44731">
        <ele>884.4</ele>
        <time>2020-05-22T15:57:15Z</time>
      </trkpt>
      <trkpt lat="47.07028" lon="6.44728">
        <ele>884.4</ele>
        <time>2020-05-22T15:57:16Z</time>
      </trkpt>
      <trkpt lat="47.07027" lon="6.44725">
        <ele>884.4</ele>
        <time>2020-05-22T15:57:17Z</time>
      </trkpt>
      <trkpt lat="47.07025" lon="6.44722">
        <ele>884.6</ele>
        <time>2020-05-22T15:57:18Z</time>
      </trkpt>
      <trkpt lat="47.07024" lon="6.44719">
        <ele>884.6</ele>
        <time>2020-05-22T15:57:19Z</time>
      </trkpt>
      <trkpt lat="47.07022" lon="6.44716">
        <ele>884.6</ele>
        <time>2020-05-22T15:57:20Z</time>
      </trkpt>
      <trkpt lat="47.07021" lon="6.44714">
        <ele>884.8</ele>
        <time>2020-05-22T15:57:21Z</time>
      </trkpt>
      <trkpt lat="47.0702" lon="6.44711">
        <ele>884.8</ele>
        <time>2020-05-22T15:57:22Z</time>
      </trkpt>
      <trkpt lat="47.07018" lon="6.44709">
        <ele>885</ele>
        <time>2020-05-22T15:57:23Z</time>
      </trkpt>
      <trkpt lat="47.07017" lon="6.44706">
        <ele>885</ele>
        <time>2020-05-22T15:57:24Z</time>
      </trkpt>
      <trkpt lat="47.07016" lon="6.44704">
        <ele>885.4</ele>
        <time>2020-05-22T15:57:25Z</time>
      </trkpt>
      <trkpt lat="47.07014" lon="6.44701">
        <ele>885.4</ele>
        <time>2020-05-22T15:57:26Z</time>
      </trkpt>
      <trkpt lat="47.07013" lon="6.44699">
        <ele>885.4</ele>
        <time>2020-05-22T15:57:27Z</time>
      </trkpt>
      <trkpt lat="47.07012" lon="6.44696">
        <ele>885.6</ele>
        <time>2020-05-22T15:57:28Z</time>
      </trkpt>
      <trkpt lat="47.0701" lon="6.44694">
        <ele>885.6</ele>
        <time>2020-05-22T15:57:29Z</time>
      </trkpt>
      <trkpt lat="47.07009" lon="6.44691">
        <ele>885.6</ele>
        <time>2020-05-22T15:57:30Z</time>
      </trkpt>
      <trkpt lat="47.07008" lon="6.44689">
        <ele>886</ele>
        <time>2020-05-22T15:57:31Z</time>
      </trkpt>
      <trkpt lat="47.07006" lon="6.44686">
        <ele>886</ele>
        <time>2020-05-22T15:57:32Z</time>
      </trkpt>
      <trkpt lat="47.07005" lon="6.44683">
        <ele>886.2</ele>
        <time>2020-05-22T15:57:33Z</time>
      </trkpt>
      <trkpt lat="47.07003" lon="6.4468">
        <ele>886.2</ele>
        <time>2020-05-22T15:57:34Z</time>
      </trkpt>
      <trkpt lat="47.07002" lon="6.44677">
        <ele>886.2</ele>
        <time>2020-05-22T15:57:35Z</time>
      </trkpt>
      <trkpt lat="47.07" lon="6.44674">
        <ele>886.2</ele>
        <time>2020-05-22T15:57:36Z</time>
      </trkpt>
      <trkpt lat="47.06999" lon="6.44671">
        <ele>886.2</ele>
        <time>2020-05-22T15:57:37Z</time>
      </trkpt>
      <trkpt lat="47.06997" lon="6.44668">
        <ele>886.2</ele>
        <time>2020-05-22T15:57:38Z</time>
      </trkpt>
      <trkpt lat="47.06996" lon="6.44664">
        <ele>886.2</ele>
        <time>2020-05-22T15:57:39Z</time>
      </trkpt>
      <trkpt lat="47.06994" lon="6.44661">
        <ele>886.2</ele>
        <time>2020-05-22T15:57:40Z</time>
      </trkpt>
      <trkpt lat="47.06993" lon="6.44657">
        <ele>886.2</ele>
        <time>2020-05-22T15:57:41Z</time>
      </trkpt>
      <trkpt lat="47.06991" lon="6.44653">
        <ele>886.2</ele>
        <time>2020-05-22T15:57:42Z</time>
      </trkpt>
      <trkpt lat="47.06989" lon="6.4465">
        <ele>886.2</ele>
        <time>2020-05-22T15:57:43Z</time>
      </trkpt>
      <trkpt lat="47.06988" lon="6.44646">
        <ele>886.2</ele>
        <time>2020-05-22T15:57:44Z</time>
      </trkpt>
      <trkpt lat="47.06986" lon="6.44641">
        <ele>886.2</ele>
        <time>2020-05-22T15:57:45Z</time>
      </trkpt>
      <trkpt lat="47.06985" lon="6.44637">
        <ele>886.2</ele>
        <time>2020-05-22T15:57:46Z</time>
      </trkpt>
      <trkpt lat="47.06984" lon="6.44632">
        <ele>886.2</ele>
        <time>2020-05-22T15:57:47Z</time>
      </trkpt>
      <trkpt lat="47.06982" lon="6.44627">
        <ele>886.2</ele>
        <time>2020-05-22T15:57:48Z</time>
      </trkpt>
      <trkpt lat="47.06981" lon="6.44622">
        <ele>886.2</ele>
        <time>2020-05-22T15:57:49Z</time>
      </trkpt>
      <trkpt lat="47.0698" lon="6.44617">
        <ele>886.2</ele>
        <time>2020-05-22T15:57:50Z</time>
      </trkpt>
      <trkpt lat="47.06978" lon="6.44613">
        <ele>886.2</ele>
        <time>2020-05-22T15:57:51Z</time>
      </trkpt>
      <trkpt lat="47.06977" lon="6.44608">
        <ele>886.2</ele>
        <time>2020-05-22T15:57:52Z</time>
      </trkpt>
      <trkpt lat="47.06976" lon="6.44603">
        <ele>886.2</ele>
        <time>2020-05-22T15:57:53Z</time>
      </trkpt>
      <trkpt lat="47.06974" lon="6.44597">
        <ele>886.2</ele>
        <time>2020-05-22T15:57:54Z</time>
      </trkpt>
      <trkpt lat="47.06973" lon="6.44592">
        <ele>886.2</ele>
        <time>2020-05-22T15:57:55Z</time>
      </trkpt>
      <trkpt lat="47.06972" lon="6.44587">
        <ele>886.2</ele>
        <time>2020-05-22T15:57:56Z</time>
      </trkpt>
      <trkpt lat="47.06971" lon="6.44581">
        <ele>886.2</ele>
        <time>2020-05-22T15:57:57Z</time>
      </trkpt>
      <trkpt lat="47.06969" lon="6.44576">
        <ele>886.2</ele>
        <time>2020-05-22T15:57:58Z</time>
      </trkpt>
      <trkpt lat="47.06968" lon="6.4457">
        <ele>886.2</ele>
        <time>2020-05-22T15:57:59Z</time>
      </trkpt>
      <trkpt lat="47.06966" lon="6.44564">
        <ele>886.2</ele>
        <time>2020-05-22T15:58:00Z</time>
      </trkpt>
      <trkpt lat="47.06965" lon="6.44559">
        <ele>886.2</ele>
        <time>2020-05-22T15:58:01Z</time>
      </trkpt>
      <trkpt lat="47.06964" lon="6.44553">
        <ele>886.2</ele>
        <time>2020-05-22T15:58:02Z</time>
      </trkpt>
      <trkpt lat="47.06962" lon="6.44547">
        <ele>886.2</ele>
        <time>2020-05-22T15:58:03Z</time>
      </trkpt>
      <trkpt lat="47.06961" lon="6.44541">
        <ele>886.2</ele>
        <time>2020-05-22T15:58:04Z</time>
      </trkpt>
      <trkpt lat="47.06959" lon="6.44535">
        <ele>886.2</ele>
        <time>2020-05-22T15:58:05Z</time>
      </trkpt>
      <trkpt lat="47.06958" lon="6.44529">
        <ele>886.2</ele>
        <time>2020-05-22T15:58:06Z</time>
      </trkpt>
      <trkpt lat="47.06956" lon="6.44523">
        <ele>886.2</ele>
        <time>2020-05-22T15:58:07Z</time>
      </trkpt>
      <trkpt lat="47.06955" lon="6.44517">
        <ele>886.2</ele>
        <time>2020-05-22T15:58:08Z</time>
      </trkpt>
      <trkpt lat="47.06953" lon="6.44511">
        <ele>886.2</ele>
        <time>2020-05-22T15:58:09Z</time>
      </trkpt>
      <trkpt lat="47.06951" lon="6.44505">
        <ele>886.2</ele>
        <time>2020-05-22T15:58:10Z</time>
      </trkpt>
      <trkpt lat="47.06949" lon="6.44499">
        <ele>886.2</ele>
        <time>2020-05-22T15:58:11Z</time>
      </trkpt>
      <trkpt lat="47.06947" lon="6.44494">
        <ele>886.2</ele>
        <time>2020-05-22T15:58:12Z</time>
      </trkpt>
      <trkpt lat="47.06945" lon="6.44488">
        <ele>886.2</ele>
        <time>2020-05-22T15:58:13Z</time>
      </trkpt>
      <trkpt lat="47.06942" lon="6.44482">
        <ele>886</ele>
        <time>2020-05-22T15:58:14Z</time>
      </trkpt>
      <trkpt lat="47.0694" lon="6.44477">
        <ele>886</ele>
        <time>2020-05-22T15:58:15Z</time>
      </trkpt>
      <trkpt lat="47.06938" lon="6.44472">
        <ele>886</ele>
        <time>2020-05-22T15:58:16Z</time>
      </trkpt>
      <trkpt lat="47.06936" lon="6.44467">
        <ele>886</ele>
        <time>2020-05-22T15:58:17Z</time>
      </trkpt>
      <trkpt lat="47.06933" lon="6.44462">
        <ele>886</ele>
        <time>2020-05-22T15:58:18Z</time>
      </trkpt>
      <trkpt lat="47.06931" lon="6.44457">
        <ele>886</ele>
        <time>2020-05-22T15:58:19Z</time>
      </trkpt>
      <trkpt lat="47.06928" lon="6.44452">
        <ele>886</ele>
        <time>2020-05-22T15:58:20Z</time>
      </trkpt>
      <trkpt lat="47.06926" lon="6.44447">
        <ele>886</ele>
        <time>2020-05-22T15:58:21Z</time>
      </trkpt>
      <trkpt lat="47.06923" lon="6.44442">
        <ele>886</ele>
        <time>2020-05-22T15:58:22Z</time>
      </trkpt>
      <trkpt lat="47.06921" lon="6.44436">
        <ele>886</ele>
        <time>2020-05-22T15:58:23Z</time>
      </trkpt>
      <trkpt lat="47.06918" lon="6.44431">
        <ele>886</ele>
        <time>2020-05-22T15:58:24Z</time>
      </trkpt>
      <trkpt lat="47.06916" lon="6.44425">
        <ele>886</ele>
        <time>2020-05-22T15:58:25Z</time>
      </trkpt>
      <trkpt lat="47.06914" lon="6.44419">
        <ele>886</ele>
        <time>2020-05-22T15:58:26Z</time>
      </trkpt>
      <trkpt lat="47.06912" lon="6.44413">
        <ele>886</ele>
        <time>2020-05-22T15:58:27Z</time>
      </trkpt>
      <trkpt lat="47.0691" lon="6.44407">
        <ele>886</ele>
        <time>2020-05-22T15:58:28Z</time>
      </trkpt>
      <trkpt lat="47.06909" lon="6.44401">
        <ele>886</ele>
        <time>2020-05-22T15:58:29Z</time>
      </trkpt>
      <trkpt lat="47.06908" lon="6.44395">
        <ele>886</ele>
        <time>2020-05-22T15:58:30Z</time>
      </trkpt>
      <trkpt lat="47.06907" lon="6.44389">
        <ele>886.2</ele>
        <time>2020-05-22T15:58:31Z</time>
      </trkpt>
      <trkpt lat="47.06906" lon="6.44384">
        <ele>886.2</ele>
        <time>2020-05-22T15:58:32Z</time>
      </trkpt>
      <trkpt lat="47.06905" lon="6.44379">
        <ele>886.4</ele>
        <time>2020-05-22T15:58:33Z</time>
      </trkpt>
      <trkpt lat="47.06905" lon="6.44375">
        <ele>886.4</ele>
        <time>2020-05-22T15:58:34Z</time>
      </trkpt>
      <trkpt lat="47.06904" lon="6.4437">
        <ele>886.4</ele>
        <time>2020-05-22T15:58:35Z</time>
      </trkpt>
      <trkpt lat="47.06904" lon="6.44365">
        <ele>886.4</ele>
        <time>2020-05-22T15:58:36Z</time>
      </trkpt>
      <trkpt lat="47.06903" lon="6.44361">
        <ele>886.8</ele>
        <time>2020-05-22T15:58:37Z</time>
      </trkpt>
      <trkpt lat="47.06903" lon="6.44357">
        <ele>886.8</ele>
        <time>2020-05-22T15:58:38Z</time>
      </trkpt>
      <trkpt lat="47.06903" lon="6.44352">
        <ele>886.8</ele>
        <time>2020-05-22T15:58:39Z</time>
      </trkpt>
      <trkpt lat="47.06902" lon="6.44347">
        <ele>886.8</ele>
        <time>2020-05-22T15:58:40Z</time>
      </trkpt>
      <trkpt lat="47.06902" lon="6.44343">
        <ele>887</ele>
        <time>2020-05-22T15:58:41Z</time>
      </trkpt>
      <trkpt lat="47.06901" lon="6.44338">
        <ele>887</ele>
        <time>2020-05-22T15:58:42Z</time>
      </trkpt>
      <trkpt lat="47.06901" lon="6.44333">
        <ele>887</ele>
        <time>2020-05-22T15:58:43Z</time>
      </trkpt>
      <trkpt lat="47.06901" lon="6.44328">
        <ele>887.2</ele>
        <time>2020-05-22T15:58:44Z</time>
      </trkpt>
      <trkpt lat="47.069" lon="6.44323">
        <ele>887.2</ele>
        <time>2020-05-22T15:58:45Z</time>
      </trkpt>
      <trkpt lat="47.069" lon="6.44318">
        <ele>887.2</ele>
        <time>2020-05-22T15:58:46Z</time>
      </trkpt>
      <trkpt lat="47.06899" lon="6.44313">
        <ele>887.2</ele>
        <time>2020-05-22T15:58:47Z</time>
      </trkpt>
      <trkpt lat="47.06899" lon="6.44308">
        <ele>887.6</ele>
        <time>2020-05-22T15:58:48Z</time>
      </trkpt>
      <trkpt lat="47.06899" lon="6.44303">
        <ele>887.6</ele>
        <time>2020-05-22T15:58:49Z</time>
      </trkpt>
      <trkpt lat="47.06898" lon="6.44298">
        <ele>887.6</ele>
        <time>2020-05-22T15:58:50Z</time>
      </trkpt>
      <trkpt lat="47.06898" lon="6.44294">
        <ele>887.8</ele>
        <time>2020-05-22T15:58:51Z</time>
      </trkpt>
      <trkpt lat="47.06897" lon="6.44289">
        <ele>887.8</ele>
        <time>2020-05-22T15:58:52Z</time>
      </trkpt>
      <trkpt lat="47.06896" lon="6.44284">
        <ele>887.8</ele>
        <time>2020-05-22T15:58:53Z</time>
      </trkpt>
      <trkpt lat="47.06896" lon="6.44279">
        <ele>887.8</ele>
        <time>2020-05-22T15:58:54Z</time>
      </trkpt>
      <trkpt lat="47.06895" lon="6.44274">
        <ele>887.8</ele>
        <time>2020-05-22T15:58:55Z</time>
      </trkpt>
      <trkpt lat="47.06894" lon="6.44269">
        <ele>887.8</ele>
        <time>2020-05-22T15:58:56Z</time>
      </trkpt>
      <trkpt lat="47.06893" lon="6.44264">
        <ele>887.8</ele>
        <time>2020-05-22T15:58:57Z</time>
      </trkpt>
      <trkpt lat="47.06892" lon="6.44259">
        <ele>887.8</ele>
        <time>2020-05-22T15:58:58Z</time>
      </trkpt>
      <trkpt lat="47.06891" lon="6.44255">
        <ele>887.8</ele>
        <time>2020-05-22T15:58:59Z</time>
      </trkpt>
      <trkpt lat="47.0689" lon="6.4425">
        <ele>888</ele>
        <time>2020-05-22T15:59:00Z</time>
      </trkpt>
      <trkpt lat="47.06888" lon="6.44245">
        <ele>888</ele>
        <time>2020-05-22T15:59:01Z</time>
      </trkpt>
      <trkpt lat="47.06887" lon="6.44241">
        <ele>888</ele>
        <time>2020-05-22T15:59:02Z</time>
      </trkpt>
      <trkpt lat="47.06885" lon="6.44237">
        <ele>888</ele>
        <time>2020-05-22T15:59:03Z</time>
      </trkpt>
      <trkpt lat="47.06884" lon="6.44233">
        <ele>888.4</ele>
        <time>2020-05-22T15:59:04Z</time>
      </trkpt>
      <trkpt lat="47.06882" lon="6.44229">
        <ele>888.4</ele>
        <time>2020-05-22T15:59:05Z</time>
      </trkpt>
      <trkpt lat="47.06881" lon="6.44225">
        <ele>888.4</ele>
        <time>2020-05-22T15:59:06Z</time>
      </trkpt>
      <trkpt lat="47.0688" lon="6.44221">
        <ele>888.6</ele>
        <time>2020-05-22T15:59:07Z</time>
      </trkpt>
      <trkpt lat="47.06878" lon="6.44218">
        <ele>888.6</ele>
        <time>2020-05-22T15:59:08Z</time>
      </trkpt>
      <trkpt lat="47.06877" lon="6.44214">
        <ele>888.6</ele>
        <time>2020-05-22T15:59:09Z</time>
      </trkpt>
      <trkpt lat="47.06875" lon="6.4421">
        <ele>888.8</ele>
        <time>2020-05-22T15:59:10Z</time>
      </trkpt>
      <trkpt lat="47.06873" lon="6.44206">
        <ele>888.8</ele>
        <time>2020-05-22T15:59:11Z</time>
      </trkpt>
      <trkpt lat="47.06871" lon="6.44202">
        <ele>889</ele>
        <time>2020-05-22T15:59:12Z</time>
      </trkpt>
      <trkpt lat="47.06869" lon="6.44199">
        <ele>889</ele>
        <time>2020-05-22T15:59:13Z</time>
      </trkpt>
      <trkpt lat="47.06867" lon="6.44195">
        <ele>889.4</ele>
        <time>2020-05-22T15:59:14Z</time>
      </trkpt>
      <trkpt lat="47.06865" lon="6.44192">
        <ele>889.4</ele>
        <time>2020-05-22T15:59:15Z</time>
      </trkpt>
      <trkpt lat="47.06863" lon="6.44189">
        <ele>889.4</ele>
        <time>2020-05-22T15:59:16Z</time>
      </trkpt>
      <trkpt lat="47.06862" lon="6.44185">
        <ele>889.6</ele>
        <time>2020-05-22T15:59:17Z</time>
      </trkpt>
      <trkpt lat="47.0686" lon="6.44182">
        <ele>889.6</ele>
        <time>2020-05-22T15:59:18Z</time>
      </trkpt>
      <trkpt lat="47.06858" lon="6.44178">
        <ele>889.6</ele>
        <time>2020-05-22T15:59:19Z</time>
      </trkpt>
      <trkpt lat="47.06856" lon="6.44174">
        <ele>889.6</ele>
        <time>2020-05-22T15:59:20Z</time>
      </trkpt>
      <trkpt lat="47.06854" lon="6.44171">
        <ele>889.6</ele>
        <time>2020-05-22T15:59:21Z</time>
      </trkpt>
      <trkpt lat="47.06852" lon="6.44167">
        <ele>889.8</ele>
        <time>2020-05-22T15:59:22Z</time>
      </trkpt>
      <trkpt lat="47.0685" lon="6.44163">
        <ele>889.8</ele>
        <time>2020-05-22T15:59:23Z</time>
      </trkpt>
      <trkpt lat="47.06848" lon="6.44159">
        <ele>889.8</ele>
        <time>2020-05-22T15:59:24Z</time>
      </trkpt>
      <trkpt lat="47.06846" lon="6.44156">
        <ele>889.8</ele>
        <time>2020-05-22T15:59:25Z</time>
      </trkpt>
      <trkpt lat="47.06843" lon="6.44152">
        <ele>889.8</ele>
        <time>2020-05-22T15:59:26Z</time>
      </trkpt>
      <trkpt lat="47.06841" lon="6.44147">
        <ele>889.8</ele>
        <time>2020-05-22T15:59:27Z</time>
      </trkpt>
      <trkpt lat="47.06839" lon="6.44143">
        <ele>889.8</ele>
        <time>2020-05-22T15:59:28Z</time>
      </trkpt>
      <trkpt lat="47.06836" lon="6.44138">
        <ele>889.8</ele>
        <time>2020-05-22T15:59:29Z</time>
      </trkpt>
      <trkpt lat="47.06833" lon="6.44134">
        <ele>889.8</ele>
        <time>2020-05-22T15:59:30Z</time>
      </trkpt>
      <trkpt lat="47.06831" lon="6.44129">
        <ele>889.8</ele>
        <time>2020-05-22T15:59:31Z</time>
      </trkpt>
      <trkpt lat="47.06829" lon="6.44124">
        <ele>889.8</ele>
        <time>2020-05-22T15:59:32Z</time>
      </trkpt>
      <trkpt lat="47.06827" lon="6.44119">
        <ele>889.8</ele>
        <time>2020-05-22T15:59:33Z</time>
      </trkpt>
      <trkpt lat="47.06825" lon="6.44115">
        <ele>889.8</ele>
        <time>2020-05-22T15:59:34Z</time>
      </trkpt>
      <trkpt lat="47.06822" lon="6.4411">
        <ele>889.8</ele>
        <time>2020-05-22T15:59:35Z</time>
      </trkpt>
      <trkpt lat="47.0682" lon="6.44106">
        <ele>889.8</ele>
        <time>2020-05-22T15:59:36Z</time>
      </trkpt>
      <trkpt lat="47.06818" lon="6.44101">
        <ele>889.6</ele>
        <time>2020-05-22T15:59:37Z</time>
      </trkpt>
      <trkpt lat="47.06816" lon="6.44097">
        <ele>889.6</ele>
        <time>2020-05-22T15:59:38Z</time>
      </trkpt>
      <trkpt lat="47.06813" lon="6.44092">
        <ele>889.6</ele>
        <time>2020-05-22T15:59:39Z</time>
      </trkpt>
      <trkpt lat="47.06811" lon="6.44087">
        <ele>889.6</ele>
        <time>2020-05-22T15:59:40Z</time>
      </trkpt>
      <trkpt lat="47.06808" lon="6.44082">
        <ele>889.4</ele>
        <time>2020-05-22T15:59:41Z</time>
      </trkpt>
      <trkpt lat="47.06805" lon="6.44077">
        <ele>889.4</ele>
        <time>2020-05-22T15:59:42Z</time>
      </trkpt>
      <trkpt lat="47.06803" lon="6.44071">
        <ele>889.4</ele>
        <time>2020-05-22T15:59:43Z</time>
      </trkpt>
      <trkpt lat="47.068" lon="6.44066">
        <ele>889.4</ele>
        <time>2020-05-22T15:59:44Z</time>
      </trkpt>
      <trkpt lat="47.06798" lon="6.4406">
        <ele>889.4</ele>
        <time>2020-05-22T15:59:45Z</time>
      </trkpt>
      <trkpt lat="47.06795" lon="6.44054">
        <ele>889.4</ele>
        <time>2020-05-22T15:59:46Z</time>
      </trkpt>
      <trkpt lat="47.06793" lon="6.44048">
        <ele>889.4</ele>
        <time>2020-05-22T15:59:47Z</time>
      </trkpt>
      <trkpt lat="47.06791" lon="6.44042">
        <ele>889.4</ele>
        <time>2020-05-22T15:59:48Z</time>
      </trkpt>
      <trkpt lat="47.06788" lon="6.44036">
        <ele>889.4</ele>
        <time>2020-05-22T15:59:49Z</time>
      </trkpt>
      <trkpt lat="47.06786" lon="6.44029">
        <ele>889.4</ele>
        <time>2020-05-22T15:59:50Z</time>
      </trkpt>
      <trkpt lat="47.06784" lon="6.44023">
        <ele>889.4</ele>
        <time>2020-05-22T15:59:51Z</time>
      </trkpt>
      <trkpt lat="47.06782" lon="6.44017">
        <ele>889.4</ele>
        <time>2020-05-22T15:59:52Z</time>
      </trkpt>
      <trkpt lat="47.0678" lon="6.44011">
        <ele>889.4</ele>
        <time>2020-05-22T15:59:53Z</time>
      </trkpt>
      <trkpt lat="47.06778" lon="6.44004">
        <ele>889.4</ele>
        <time>2020-05-22T15:59:54Z</time>
      </trkpt>
      <trkpt lat="47.06776" lon="6.43998">
        <ele>889.4</ele>
        <time>2020-05-22T15:59:55Z</time>
      </trkpt>
      <trkpt lat="47.06774" lon="6.43991">
        <ele>889.4</ele>
        <time>2020-05-22T15:59:56Z</time>
      </trkpt>
      <trkpt lat="47.06772" lon="6.43985">
        <ele>889</ele>
        <time>2020-05-22T15:59:57Z</time>
      </trkpt>
      <trkpt lat="47.0677" lon="6.43978">
        <ele>889</ele>
        <time>2020-05-22T15:59:58Z</time>
      </trkpt>
      <trkpt lat="47.06768" lon="6.43972">
        <ele>889</ele>
        <time>2020-05-22T15:59:59Z</time>
      </trkpt>
      <trkpt lat="47.06766" lon="6.43966">
        <ele>889</ele>
        <time>2020-05-22T16:00:00Z</time>
      </trkpt>
      <trkpt lat="47.06764" lon="6.4396">
        <ele>889</ele>
        <time>2020-05-22T16:00:01Z</time>
      </trkpt>
      <trkpt lat="47.06763" lon="6.43953">
        <ele>888.8</ele>
        <time>2020-05-22T16:00:02Z</time>
      </trkpt>
      <trkpt lat="47.06761" lon="6.43947">
        <ele>888.8</ele>
        <time>2020-05-22T16:00:03Z</time>
      </trkpt>
      <trkpt lat="47.0676" lon="6.43941">
        <ele>888.8</ele>
        <time>2020-05-22T16:00:04Z</time>
      </trkpt>
      <trkpt lat="47.06758" lon="6.43935">
        <ele>888.4</ele>
        <time>2020-05-22T16:00:05Z</time>
      </trkpt>
      <trkpt lat="47.06756" lon="6.43929">
        <ele>888.4</ele>
        <time>2020-05-22T16:00:06Z</time>
      </trkpt>
      <trkpt lat="47.06754" lon="6.43922">
        <ele>888.2</ele>
        <time>2020-05-22T16:00:07Z</time>
      </trkpt>
      <trkpt lat="47.06753" lon="6.43916">
        <ele>888.2</ele>
        <time>2020-05-22T16:00:08Z</time>
      </trkpt>
      <trkpt lat="47.06751" lon="6.4391">
        <ele>888.2</ele>
        <time>2020-05-22T16:00:09Z</time>
      </trkpt>
      <trkpt lat="47.0675" lon="6.43904">
        <ele>888</ele>
        <time>2020-05-22T16:00:10Z</time>
      </trkpt>
      <trkpt lat="47.06748" lon="6.43897">
        <ele>888</ele>
        <time>2020-05-22T16:00:11Z</time>
      </trkpt>
      <trkpt lat="47.06746" lon="6.4389">
        <ele>888</ele>
        <time>2020-05-22T16:00:12Z</time>
      </trkpt>
      <trkpt lat="47.06744" lon="6.43883">
        <ele>887.8</ele>
        <time>2020-05-22T16:00:13Z</time>
      </trkpt>
      <trkpt lat="47.06742" lon="6.43876">
        <ele>887.8</ele>
        <time>2020-05-22T16:00:14Z</time>
      </trkpt>
      <trkpt lat="47.0674" lon="6.43868">
        <ele>887.8</ele>
        <time>2020-05-22T16:00:15Z</time>
      </trkpt>
      <trkpt lat="47.06738" lon="6.43861">
        <ele>887.8</ele>
        <time>2020-05-22T16:00:16Z</time>
      </trkpt>
      <trkpt lat="47.06736" lon="6.43854">
        <ele>887.8</ele>
        <time>2020-05-22T16:00:17Z</time>
      </trkpt>
      <trkpt lat="47.06734" lon="6.43846">
        <ele>887.8</ele>
        <time>2020-05-22T16:00:18Z</time>
      </trkpt>
      <trkpt lat="47.06731" lon="6.43839">
        <ele>887.8</ele>
        <time>2020-05-22T16:00:19Z</time>
      </trkpt>
      <trkpt lat="47.06729" lon="6.43832">
        <ele>887.8</ele>
        <time>2020-05-22T16:00:20Z</time>
      </trkpt>
      <trkpt lat="47.06727" lon="6.43824">
        <ele>887.6</ele>
        <time>2020-05-22T16:00:21Z</time>
      </trkpt>
      <trkpt lat="47.06725" lon="6.43817">
        <ele>887.6</ele>
        <time>2020-05-22T16:00:22Z</time>
      </trkpt>
      <trkpt lat="47.06723" lon="6.4381">
        <ele>887.6</ele>
        <time>2020-05-22T16:00:23Z</time>
      </trkpt>
      <trkpt lat="47.06721" lon="6.43802">
        <ele>887.4</ele>
        <time>2020-05-22T16:00:24Z</time>
      </trkpt>
      <trkpt lat="47.06719" lon="6.43795">
        <ele>887.4</ele>
        <time>2020-05-22T16:00:25Z</time>
      </trkpt>
      <trkpt lat="47.06717" lon="6.43787">
        <ele>887.4</ele>
        <time>2020-05-22T16:00:26Z</time>
      </trkpt>
      <trkpt lat="47.06715" lon="6.4378">
        <ele>887.4</ele>
        <time>2020-05-22T16:00:27Z</time>
      </trkpt>
      <trkpt lat="47.06713" lon="6.43773">
        <ele>887.4</ele>
        <time>2020-05-22T16:00:28Z</time>
      </trkpt>
      <trkpt lat="47.06711" lon="6.43766">
        <ele>887.4</ele>
        <time>2020-05-22T16:00:29Z</time>
      </trkpt>
      <trkpt lat="47.06708" lon="6.43758">
        <ele>887.4</ele>
        <time>2020-05-22T16:00:30Z</time>
      </trkpt>
      <trkpt lat="47.06706" lon="6.43751">
        <ele>887</ele>
        <time>2020-05-22T16:00:31Z</time>
      </trkpt>
      <trkpt lat="47.06704" lon="6.43744">
        <ele>887</ele>
        <time>2020-05-22T16:00:32Z</time>
      </trkpt>
      <trkpt lat="47.06702" lon="6.43737">
        <ele>887</ele>
        <time>2020-05-22T16:00:33Z</time>
      </trkpt>
      <trkpt lat="47.067" lon="6.4373">
        <ele>887</ele>
        <time>2020-05-22T16:00:34Z</time>
      </trkpt>
      <trkpt lat="47.06698" lon="6.43722">
        <ele>887</ele>
        <time>2020-05-22T16:00:35Z</time>
      </trkpt>
      <trkpt lat="47.06695" lon="6.43714">
        <ele>886.8</ele>
        <time>2020-05-22T16:00:36Z</time>
      </trkpt>
      <trkpt lat="47.06693" lon="6.43705">
        <ele>886.8</ele>
        <time>2020-05-22T16:00:37Z</time>
      </trkpt>
      <trkpt lat="47.06691" lon="6.43697">
        <ele>886.6</ele>
        <time>2020-05-22T16:00:38Z</time>
      </trkpt>
      <trkpt lat="47.06688" lon="6.43688">
        <ele>886.6</ele>
        <time>2020-05-22T16:00:39Z</time>
      </trkpt>
      <trkpt lat="47.06685" lon="6.4368">
        <ele>886.2</ele>
        <time>2020-05-22T16:00:40Z</time>
      </trkpt>
      <trkpt lat="47.06683" lon="6.43671">
        <ele>886.2</ele>
        <time>2020-05-22T16:00:41Z</time>
      </trkpt>
      <trkpt lat="47.0668" lon="6.43662">
        <ele>885.8</ele>
        <time>2020-05-22T16:00:42Z</time>
      </trkpt>
      <trkpt lat="47.06678" lon="6.43653">
        <ele>885.8</ele>
        <time>2020-05-22T16:00:43Z</time>
      </trkpt>
      <trkpt lat="47.06675" lon="6.43644">
        <ele>885.6</ele>
        <time>2020-05-22T16:00:44Z</time>
      </trkpt>
      <trkpt lat="47.06672" lon="6.43634">
        <ele>885.6</ele>
        <time>2020-05-22T16:00:45Z</time>
      </trkpt>
      <trkpt lat="47.06669" lon="6.43625">
        <ele>885.2</ele>
        <time>2020-05-22T16:00:46Z</time>
      </trkpt>
      <trkpt lat="47.06667" lon="6.43615">
        <ele>885.2</ele>
        <time>2020-05-22T16:00:47Z</time>
      </trkpt>
      <trkpt lat="47.06664" lon="6.43606">
        <ele>885</ele>
        <time>2020-05-22T16:00:48Z</time>
      </trkpt>
      <trkpt lat="47.06661" lon="6.43596">
        <ele>885</ele>
        <time>2020-05-22T16:00:49Z</time>
      </trkpt>
      <trkpt lat="47.06658" lon="6.43587">
        <ele>884.6</ele>
        <time>2020-05-22T16:00:50Z</time>
      </trkpt>
      <trkpt lat="47.06656" lon="6.43577">
        <ele>884.6</ele>
        <time>2020-05-22T16:00:51Z</time>
      </trkpt>
      <trkpt lat="47.06653" lon="6.43568">
        <ele>884.4</ele>
        <time>2020-05-22T16:00:52Z</time>
      </trkpt>
      <trkpt lat="47.0665" lon="6.43558">
        <ele>884.2</ele>
        <time>2020-05-22T16:00:53Z</time>
      </trkpt>
      <trkpt lat="47.06647" lon="6.43549">
        <ele>884.2</ele>
        <time>2020-05-22T16:00:54Z</time>
      </trkpt>
      <trkpt lat="47.06645" lon="6.43539">
        <ele>883.8</ele>
        <time>2020-05-22T16:00:55Z</time>
      </trkpt>
      <trkpt lat="47.06642" lon="6.4353">
        <ele>883.8</ele>
        <time>2020-05-22T16:00:56Z</time>
      </trkpt>
      <trkpt lat="47.0664" lon="6.4352">
        <ele>883.6</ele>
        <time>2020-05-22T16:00:57Z</time>
      </trkpt>
      <trkpt lat="47.06637" lon="6.4351">
        <ele>883.6</ele>
        <time>2020-05-22T16:00:58Z</time>
      </trkpt>
      <trkpt lat="47.06634" lon="6.435">
        <ele>883.4</ele>
        <time>2020-05-22T16:00:59Z</time>
      </trkpt>
      <trkpt lat="47.06631" lon="6.43489">
        <ele>883.4</ele>
        <time>2020-05-22T16:01:00Z</time>
      </trkpt>
      <trkpt lat="47.06628" lon="6.43479">
        <ele>883</ele>
        <time>2020-05-22T16:01:01Z</time>
      </trkpt>
      <trkpt lat="47.06626" lon="6.43468">
        <ele>883</ele>
        <time>2020-05-22T16:01:02Z</time>
      </trkpt>
      <trkpt lat="47.06623" lon="6.43458">
        <ele>882.6</ele>
        <time>2020-05-22T16:01:03Z</time>
      </trkpt>
      <trkpt lat="47.0662" lon="6.43448">
        <ele>882.6</ele>
        <time>2020-05-22T16:01:04Z</time>
      </trkpt>
      <trkpt lat="47.06618" lon="6.43438">
        <ele>882.2</ele>
        <time>2020-05-22T16:01:05Z</time>
      </trkpt>
      <trkpt lat="47.06616" lon="6.43428">
        <ele>882.2</ele>
        <time>2020-05-22T16:01:06Z</time>
      </trkpt>
      <trkpt lat="47.06614" lon="6.43419">
        <ele>882</ele>
        <time>2020-05-22T16:01:07Z</time>
      </trkpt>
      <trkpt lat="47.06611" lon="6.43411">
        <ele>882</ele>
        <time>2020-05-22T16:01:08Z</time>
      </trkpt>
      <trkpt lat="47.06609" lon="6.43402">
        <ele>882</ele>
        <time>2020-05-22T16:01:09Z</time>
      </trkpt>
      <trkpt lat="47.06606" lon="6.43394">
        <ele>882</ele>
        <time>2020-05-22T16:01:10Z</time>
      </trkpt>
      <trkpt lat="47.06604" lon="6.43386">
        <ele>882</ele>
        <time>2020-05-22T16:01:11Z</time>
      </trkpt>
      <trkpt lat="47.06601" lon="6.43378">
        <ele>882</ele>
        <time>2020-05-22T16:01:12Z</time>
      </trkpt>
      <trkpt lat="47.066" lon="6.4337">
        <ele>882</ele>
        <time>2020-05-22T16:01:13Z</time>
      </trkpt>
      <trkpt lat="47.06598" lon="6.43361">
        <ele>881.8</ele>
        <time>2020-05-22T16:01:14Z</time>
      </trkpt>
      <trkpt lat="47.06596" lon="6.43352">
        <ele>881.8</ele>
        <time>2020-05-22T16:01:15Z</time>
      </trkpt>
      <trkpt lat="47.06594" lon="6.43343">
        <ele>881.8</ele>
        <time>2020-05-22T16:01:16Z</time>
      </trkpt>
      <trkpt lat="47.06593" lon="6.43334">
        <ele>881.4</ele>
        <time>2020-05-22T16:01:17Z</time>
      </trkpt>
      <trkpt lat="47.06591" lon="6.43326">
        <ele>881.4</ele>
        <time>2020-05-22T16:01:18Z</time>
      </trkpt>
      <trkpt lat="47.0659" lon="6.43317">
        <ele>881.4</ele>
        <time>2020-05-22T16:01:19Z</time>
      </trkpt>
      <trkpt lat="47.06588" lon="6.43308">
        <ele>881.2</ele>
        <time>2020-05-22T16:01:20Z</time>
      </trkpt>
      <trkpt lat="47.06587" lon="6.43299">
        <ele>881.2</ele>
        <time>2020-05-22T16:01:21Z</time>
      </trkpt>
      <trkpt lat="47.06585" lon="6.4329">
        <ele>881.2</ele>
        <time>2020-05-22T16:01:22Z</time>
      </trkpt>
      <trkpt lat="47.06583" lon="6.43281">
        <ele>881</ele>
        <time>2020-05-22T16:01:23Z</time>
      </trkpt>
      <trkpt lat="47.06582" lon="6.43272">
        <ele>880.8</ele>
        <time>2020-05-22T16:01:24Z</time>
      </trkpt>
      <trkpt lat="47.0658" lon="6.43262">
        <ele>880.8</ele>
        <time>2020-05-22T16:01:25Z</time>
      </trkpt>
      <trkpt lat="47.06578" lon="6.43253">
        <ele>880.4</ele>
        <time>2020-05-22T16:01:26Z</time>
      </trkpt>
      <trkpt lat="47.06576" lon="6.43243">
        <ele>880.4</ele>
        <time>2020-05-22T16:01:27Z</time>
      </trkpt>
      <trkpt lat="47.06574" lon="6.43233">
        <ele>880</ele>
        <time>2020-05-22T16:01:28Z</time>
      </trkpt>
      <trkpt lat="47.06572" lon="6.43223">
        <ele>880</ele>
        <time>2020-05-22T16:01:29Z</time>
      </trkpt>
      <trkpt lat="47.0657" lon="6.43213">
        <ele>879.8</ele>
        <time>2020-05-22T16:01:30Z</time>
      </trkpt>
      <trkpt lat="47.06568" lon="6.43203">
        <ele>879.8</ele>
        <time>2020-05-22T16:01:31Z</time>
      </trkpt>
      <trkpt lat="47.06566" lon="6.43193">
        <ele>879.6</ele>
        <time>2020-05-22T16:01:32Z</time>
      </trkpt>
      <trkpt lat="47.06564" lon="6.43182">
        <ele>879.4</ele>
        <time>2020-05-22T16:01:33Z</time>
      </trkpt>
      <trkpt lat="47.06562" lon="6.43172">
        <ele>879.4</ele>
        <time>2020-05-22T16:01:34Z</time>
      </trkpt>
      <trkpt lat="47.0656" lon="6.43162">
        <ele>879</ele>
        <time>2020-05-22T16:01:35Z</time>
      </trkpt>
      <trkpt lat="47.06557" lon="6.43152">
        <ele>879</ele>
        <time>2020-05-22T16:01:36Z</time>
      </trkpt>
      <trkpt lat="47.06555" lon="6.43142">
        <ele>879</ele>
        <time>2020-05-22T16:01:37Z</time>
      </trkpt>
      <trkpt lat="47.06553" lon="6.43131">
        <ele>878.8</ele>
        <time>2020-05-22T16:01:38Z</time>
      </trkpt>
      <trkpt lat="47.06551" lon="6.43121">
        <ele>878.8</ele>
        <time>2020-05-22T16:01:39Z</time>
      </trkpt>
      <trkpt lat="47.06549" lon="6.43111">
        <ele>878.4</ele>
        <time>2020-05-22T16:01:40Z</time>
      </trkpt>
      <trkpt lat="47.06547" lon="6.43101">
        <ele>878.4</ele>
        <time>2020-05-22T16:01:41Z</time>
      </trkpt>
      <trkpt lat="47.06545" lon="6.43091">
        <ele>878</ele>
        <time>2020-05-22T16:01:42Z</time>
      </trkpt>
      <trkpt lat="47.06543" lon="6.4308">
        <ele>878</ele>
        <time>2020-05-22T16:01:43Z</time>
      </trkpt>
      <trkpt lat="47.06541" lon="6.4307">
        <ele>877.8</ele>
        <time>2020-05-22T16:01:44Z</time>
      </trkpt>
      <trkpt lat="47.06539" lon="6.4306">
        <ele>877.8</ele>
        <time>2020-05-22T16:01:45Z</time>
      </trkpt>
      <trkpt lat="47.06537" lon="6.4305">
        <ele>877.6</ele>
        <time>2020-05-22T16:01:46Z</time>
      </trkpt>
      <trkpt lat="47.06534" lon="6.43039">
        <ele>877.6</ele>
        <time>2020-05-22T16:01:47Z</time>
      </trkpt>
      <trkpt lat="47.06532" lon="6.43029">
        <ele>877.2</ele>
        <time>2020-05-22T16:01:48Z</time>
      </trkpt>
      <trkpt lat="47.0653" lon="6.43019">
        <ele>877</ele>
        <time>2020-05-22T16:01:49Z</time>
      </trkpt>
      <trkpt lat="47.06528" lon="6.43009">
        <ele>876.8</ele>
        <time>2020-05-22T16:01:50Z</time>
      </trkpt>
      <trkpt lat="47.06525" lon="6.42999">
        <ele>876.8</ele>
        <time>2020-05-22T16:01:51Z</time>
      </trkpt>
      <trkpt lat="47.06523" lon="6.42988">
        <ele>876.4</ele>
        <time>2020-05-22T16:01:52Z</time>
      </trkpt>
      <trkpt lat="47.0652" lon="6.42978">
        <ele>876.2</ele>
        <time>2020-05-22T16:01:53Z</time>
      </trkpt>
      <trkpt lat="47.06518" lon="6.42968">
        <ele>875.8</ele>
        <time>2020-05-22T16:01:54Z</time>
      </trkpt>
      <trkpt lat="47.06516" lon="6.42958">
        <ele>875.6</ele>
        <time>2020-05-22T16:01:55Z</time>
      </trkpt>
      <trkpt lat="47.06513" lon="6.42946">
        <ele>875.6</ele>
        <time>2020-05-22T16:01:56Z</time>
      </trkpt>
      <trkpt lat="47.0651" lon="6.42935">
        <ele>875.4</ele>
        <time>2020-05-22T16:01:57Z</time>
      </trkpt>
      <trkpt lat="47.06507" lon="6.42924">
        <ele>875.2</ele>
        <time>2020-05-22T16:01:58Z</time>
      </trkpt>
      <trkpt lat="47.06505" lon="6.42913">
        <ele>875.2</ele>
        <time>2020-05-22T16:01:59Z</time>
      </trkpt>
      <trkpt lat="47.06501" lon="6.42901">
        <ele>874.6</ele>
        <time>2020-05-22T16:02:00Z</time>
      </trkpt>
      <trkpt lat="47.06499" lon="6.42889">
        <ele>874.4</ele>
        <time>2020-05-22T16:02:01Z</time>
      </trkpt>
      <trkpt lat="47.06496" lon="6.42877">
        <ele>874.2</ele>
        <time>2020-05-22T16:02:02Z</time>
      </trkpt>
      <trkpt lat="47.06492" lon="6.42865">
        <ele>873.8</ele>
        <time>2020-05-22T16:02:03Z</time>
      </trkpt>
      <trkpt lat="47.06489" lon="6.42853">
        <ele>873.4</ele>
        <time>2020-05-22T16:02:04Z</time>
      </trkpt>
      <trkpt lat="47.06487" lon="6.42841">
        <ele>873</ele>
        <time>2020-05-22T16:02:05Z</time>
      </trkpt>
      <trkpt lat="47.06484" lon="6.42829">
        <ele>872.6</ele>
        <time>2020-05-22T16:02:06Z</time>
      </trkpt>
      <trkpt lat="47.06481" lon="6.42816">
        <ele>872.2</ele>
        <time>2020-05-22T16:02:07Z</time>
      </trkpt>
      <trkpt lat="47.06478" lon="6.42803">
        <ele>871.6</ele>
        <time>2020-05-22T16:02:08Z</time>
      </trkpt>
      <trkpt lat="47.06475" lon="6.4279">
        <ele>871.2</ele>
        <time>2020-05-22T16:02:09Z</time>
      </trkpt>
      <trkpt lat="47.06472" lon="6.42777">
        <ele>870.6</ele>
        <time>2020-05-22T16:02:10Z</time>
      </trkpt>
      <trkpt lat="47.06469" lon="6.42763">
        <ele>870.4</ele>
        <time>2020-05-22T16:02:11Z</time>
      </trkpt>
      <trkpt lat="47.06466" lon="6.42751">
        <ele>870.2</ele>
        <time>2020-05-22T16:02:12Z</time>
      </trkpt>
      <trkpt lat="47.06463" lon="6.42738">
        <ele>870.2</ele>
        <time>2020-05-22T16:02:13Z</time>
      </trkpt>
      <trkpt lat="47.0646" lon="6.42726">
        <ele>869.8</ele>
        <time>2020-05-22T16:02:14Z</time>
      </trkpt>
      <trkpt lat="47.06458" lon="6.42713">
        <ele>869.4</ele>
        <time>2020-05-22T16:02:15Z</time>
      </trkpt>
      <trkpt lat="47.06455" lon="6.427">
        <ele>869.2</ele>
        <time>2020-05-22T16:02:16Z</time>
      </trkpt>
      <trkpt lat="47.06452" lon="6.42688">
        <ele>868.8</ele>
        <time>2020-05-22T16:02:17Z</time>
      </trkpt>
      <trkpt lat="47.06449" lon="6.42675">
        <ele>868.6</ele>
        <time>2020-05-22T16:02:18Z</time>
      </trkpt>
      <trkpt lat="47.06447" lon="6.42662">
        <ele>868.4</ele>
        <time>2020-05-22T16:02:19Z</time>
      </trkpt>
      <trkpt lat="47.06444" lon="6.42649">
        <ele>868</ele>
        <time>2020-05-22T16:02:20Z</time>
      </trkpt>
      <trkpt lat="47.06441" lon="6.42636">
        <ele>867.8</ele>
        <time>2020-05-22T16:02:21Z</time>
      </trkpt>
      <trkpt lat="47.06438" lon="6.42624">
        <ele>867.4</ele>
        <time>2020-05-22T16:02:22Z</time>
      </trkpt>
      <trkpt lat="47.06435" lon="6.4261">
        <ele>867</ele>
        <time>2020-05-22T16:02:23Z</time>
      </trkpt>
      <trkpt lat="47.06432" lon="6.42597">
        <ele>866.6</ele>
        <time>2020-05-22T16:02:24Z</time>
      </trkpt>
      <trkpt lat="47.0643" lon="6.42585">
        <ele>866.2</ele>
        <time>2020-05-22T16:02:25Z</time>
      </trkpt>
      <trkpt lat="47.06427" lon="6.42571">
        <ele>865.8</ele>
        <time>2020-05-22T16:02:26Z</time>
      </trkpt>
      <trkpt lat="47.06424" lon="6.42557">
        <ele>865.6</ele>
        <time>2020-05-22T16:02:27Z</time>
      </trkpt>
      <trkpt lat="47.06421" lon="6.42544">
        <ele>865.2</ele>
        <time>2020-05-22T16:02:28Z</time>
      </trkpt>
      <trkpt lat="47.06419" lon="6.4253">
        <ele>865</ele>
        <time>2020-05-22T16:02:29Z</time>
      </trkpt>
      <trkpt lat="47.06416" lon="6.42517">
        <ele>864.6</ele>
        <time>2020-05-22T16:02:30Z</time>
      </trkpt>
      <trkpt lat="47.06413" lon="6.42504">
        <ele>864.2</ele>
        <time>2020-05-22T16:02:31Z</time>
      </trkpt>
      <trkpt lat="47.0641" lon="6.4249">
        <ele>863.8</ele>
        <time>2020-05-22T16:02:32Z</time>
      </trkpt>
      <trkpt lat="47.06406" lon="6.42476">
        <ele>863.2</ele>
        <time>2020-05-22T16:02:33Z</time>
      </trkpt>
      <trkpt lat="47.06403" lon="6.42462">
        <ele>862.6</ele>
        <time>2020-05-22T16:02:34Z</time>
      </trkpt>
      <trkpt lat="47.06399" lon="6.42449">
        <ele>862.2</ele>
        <time>2020-05-22T16:02:35Z</time>
      </trkpt>
      <trkpt lat="47.06396" lon="6.42436">
        <ele>861.6</ele>
        <time>2020-05-22T16:02:36Z</time>
      </trkpt>
      <trkpt lat="47.06394" lon="6.42423">
        <ele>861.2</ele>
        <time>2020-05-22T16:02:37Z</time>
      </trkpt>
      <trkpt lat="47.06392" lon="6.42409">
        <ele>861</ele>
        <time>2020-05-22T16:02:38Z</time>
      </trkpt>
      <trkpt lat="47.06389" lon="6.42395">
        <ele>860.6</ele>
        <time>2020-05-22T16:02:39Z</time>
      </trkpt>
      <trkpt lat="47.06386" lon="6.42382">
        <ele>860.2</ele>
        <time>2020-05-22T16:02:40Z</time>
      </trkpt>
      <trkpt lat="47.06383" lon="6.42369">
        <ele>859.8</ele>
        <time>2020-05-22T16:02:41Z</time>
      </trkpt>
      <trkpt lat="47.0638" lon="6.42356">
        <ele>859.4</ele>
        <time>2020-05-22T16:02:42Z</time>
      </trkpt>
      <trkpt lat="47.06377" lon="6.42344">
        <ele>859</ele>
        <time>2020-05-22T16:02:43Z</time>
      </trkpt>
      <trkpt lat="47.06374" lon="6.42331">
        <ele>858.6</ele>
        <time>2020-05-22T16:02:44Z</time>
      </trkpt>
      <trkpt lat="47.06371" lon="6.42318">
        <ele>858</ele>
        <time>2020-05-22T16:02:45Z</time>
      </trkpt>
      <trkpt lat="47.06368" lon="6.42304">
        <ele>857.6</ele>
        <time>2020-05-22T16:02:46Z</time>
      </trkpt>
      <trkpt lat="47.06365" lon="6.4229">
        <ele>857.2</ele>
        <time>2020-05-22T16:02:47Z</time>
      </trkpt>
      <trkpt lat="47.06362" lon="6.42277">
        <ele>857</ele>
        <time>2020-05-22T16:02:48Z</time>
      </trkpt>
      <trkpt lat="47.06359" lon="6.42263">
        <ele>856.6</ele>
        <time>2020-05-22T16:02:49Z</time>
      </trkpt>
      <trkpt lat="47.06356" lon="6.42251">
        <ele>856.2</ele>
        <time>2020-05-22T16:02:50Z</time>
      </trkpt>
      <trkpt lat="47.06353" lon="6.42238">
        <ele>856</ele>
        <time>2020-05-22T16:02:51Z</time>
      </trkpt>
      <trkpt lat="47.0635" lon="6.42226">
        <ele>855.6</ele>
        <time>2020-05-22T16:02:52Z</time>
      </trkpt>
      <trkpt lat="47.06348" lon="6.42213">
        <ele>855</ele>
        <time>2020-05-22T16:02:53Z</time>
      </trkpt>
      <trkpt lat="47.06346" lon="6.422">
        <ele>854.6</ele>
        <time>2020-05-22T16:02:54Z</time>
      </trkpt>
      <trkpt lat="47.06343" lon="6.42189">
        <ele>854.4</ele>
        <time>2020-05-22T16:02:55Z</time>
      </trkpt>
      <trkpt lat="47.06341" lon="6.42176">
        <ele>854</ele>
        <time>2020-05-22T16:02:56Z</time>
      </trkpt>
      <trkpt lat="47.06339" lon="6.42164">
        <ele>853.6</ele>
        <time>2020-05-22T16:02:57Z</time>
      </trkpt>
      <trkpt lat="47.06337" lon="6.42152">
        <ele>853.6</ele>
        <time>2020-05-22T16:02:58Z</time>
      </trkpt>
      <trkpt lat="47.06335" lon="6.42141">
        <ele>853.2</ele>
        <time>2020-05-22T16:02:59Z</time>
      </trkpt>
      <trkpt lat="47.06333" lon="6.4213">
        <ele>853.2</ele>
        <time>2020-05-22T16:03:00Z</time>
      </trkpt>
      <trkpt lat="47.06331" lon="6.42119">
        <ele>853</ele>
        <time>2020-05-22T16:03:01Z</time>
      </trkpt>
      <trkpt lat="47.06329" lon="6.42108">
        <ele>853</ele>
        <time>2020-05-22T16:03:02Z</time>
      </trkpt>
      <trkpt lat="47.06327" lon="6.42097">
        <ele>852.6</ele>
        <time>2020-05-22T16:03:03Z</time>
      </trkpt>
      <trkpt lat="47.06326" lon="6.42087">
        <ele>852.6</ele>
        <time>2020-05-22T16:03:04Z</time>
      </trkpt>
      <trkpt lat="47.06324" lon="6.42076">
        <ele>852.6</ele>
        <time>2020-05-22T16:03:05Z</time>
      </trkpt>
      <trkpt lat="47.06322" lon="6.42065">
        <ele>852.2</ele>
        <time>2020-05-22T16:03:06Z</time>
      </trkpt>
      <trkpt lat="47.0632" lon="6.42055">
        <ele>852.2</ele>
        <time>2020-05-22T16:03:07Z</time>
      </trkpt>
      <trkpt lat="47.06318" lon="6.42045">
        <ele>852.2</ele>
        <time>2020-05-22T16:03:08Z</time>
      </trkpt>
      <trkpt lat="47.06316" lon="6.42035">
        <ele>852</ele>
        <time>2020-05-22T16:03:09Z</time>
      </trkpt>
      <trkpt lat="47.06315" lon="6.42025">
        <ele>852</ele>
        <time>2020-05-22T16:03:10Z</time>
      </trkpt>
      <trkpt lat="47.06313" lon="6.42016">
        <ele>852</ele>
        <time>2020-05-22T16:03:11Z</time>
      </trkpt>
      <trkpt lat="47.06312" lon="6.42007">
        <ele>852.2</ele>
        <time>2020-05-22T16:03:12Z</time>
      </trkpt>
      <trkpt lat="47.0631" lon="6.41998">
        <ele>852.2</ele>
        <time>2020-05-22T16:03:13Z</time>
      </trkpt>
      <trkpt lat="47.06309" lon="6.41989">
        <ele>852.6</ele>
        <time>2020-05-22T16:03:14Z</time>
      </trkpt>
      <trkpt lat="47.06307" lon="6.41981">
        <ele>852.6</ele>
        <time>2020-05-22T16:03:15Z</time>
      </trkpt>
      <trkpt lat="47.06306" lon="6.41973">
        <ele>853</ele>
        <time>2020-05-22T16:03:16Z</time>
      </trkpt>
      <trkpt lat="47.06304" lon="6.41964">
        <ele>853</ele>
        <time>2020-05-22T16:03:17Z</time>
      </trkpt>
      <trkpt lat="47.06303" lon="6.41957">
        <ele>853.2</ele>
        <time>2020-05-22T16:03:18Z</time>
      </trkpt>
      <trkpt lat="47.06301" lon="6.41949">
        <ele>853.2</ele>
        <time>2020-05-22T16:03:19Z</time>
      </trkpt>
      <trkpt lat="47.063" lon="6.41941">
        <ele>853.2</ele>
        <time>2020-05-22T16:03:20Z</time>
      </trkpt>
      <trkpt lat="47.06298" lon="6.41933">
        <ele>853.2</ele>
        <time>2020-05-22T16:03:21Z</time>
      </trkpt>
      <trkpt lat="47.06297" lon="6.41925">
        <ele>853.2</ele>
        <time>2020-05-22T16:03:22Z</time>
      </trkpt>
      <trkpt lat="47.06295" lon="6.41918">
        <ele>853.2</ele>
        <time>2020-05-22T16:03:23Z</time>
      </trkpt>
      <trkpt lat="47.06294" lon="6.4191">
        <ele>853.2</ele>
        <time>2020-05-22T16:03:24Z</time>
      </trkpt>
      <trkpt lat="47.06293" lon="6.41902">
        <ele>853.2</ele>
        <time>2020-05-22T16:03:25Z</time>
      </trkpt>
      <trkpt lat="47.06292" lon="6.41894">
        <ele>853.2</ele>
        <time>2020-05-22T16:03:26Z</time>
      </trkpt>
      <trkpt lat="47.0629" lon="6.41886">
        <ele>853</ele>
        <time>2020-05-22T16:03:27Z</time>
      </trkpt>
      <trkpt lat="47.06289" lon="6.41878">
        <ele>853</ele>
        <time>2020-05-22T16:03:28Z</time>
      </trkpt>
      <trkpt lat="47.06288" lon="6.4187">
        <ele>853</ele>
        <time>2020-05-22T16:03:29Z</time>
      </trkpt>
      <trkpt lat="47.06287" lon="6.41862">
        <ele>853</ele>
        <time>2020-05-22T16:03:30Z</time>
      </trkpt>
      <trkpt lat="47.06285" lon="6.41854">
        <ele>853</ele>
        <time>2020-05-22T16:03:31Z</time>
      </trkpt>
      <trkpt lat="47.06284" lon="6.41847">
        <ele>853</ele>
        <time>2020-05-22T16:03:32Z</time>
      </trkpt>
      <trkpt lat="47.06283" lon="6.41839">
        <ele>853</ele>
        <time>2020-05-22T16:03:33Z</time>
      </trkpt>
      <trkpt lat="47.06282" lon="6.41831">
        <ele>853</ele>
        <time>2020-05-22T16:03:34Z</time>
      </trkpt>
      <trkpt lat="47.06281" lon="6.41824">
        <ele>853</ele>
        <time>2020-05-22T16:03:35Z</time>
      </trkpt>
      <trkpt lat="47.0628" lon="6.41816">
        <ele>853</ele>
        <time>2020-05-22T16:03:36Z</time>
      </trkpt>
      <trkpt lat="47.06279" lon="6.41808">
        <ele>853</ele>
        <time>2020-05-22T16:03:37Z</time>
      </trkpt>
      <trkpt lat="47.06278" lon="6.418">
        <ele>853</ele>
        <time>2020-05-22T16:03:38Z</time>
      </trkpt>
      <trkpt lat="47.06277" lon="6.41792">
        <ele>852.8</ele>
        <time>2020-05-22T16:03:39Z</time>
      </trkpt>
      <trkpt lat="47.06277" lon="6.41784">
        <ele>852.8</ele>
        <time>2020-05-22T16:03:40Z</time>
      </trkpt>
      <trkpt lat="47.06276" lon="6.41776">
        <ele>852.8</ele>
        <time>2020-05-22T16:03:41Z</time>
      </trkpt>
      <trkpt lat="47.06276" lon="6.41768">
        <ele>852.8</ele>
        <time>2020-05-22T16:03:42Z</time>
      </trkpt>
      <trkpt lat="47.06276" lon="6.4176">
        <ele>852.8</ele>
        <time>2020-05-22T16:03:43Z</time>
      </trkpt>
      <trkpt lat="47.06276" lon="6.41753">
        <ele>852.8</ele>
        <time>2020-05-22T16:03:44Z</time>
      </trkpt>
      <trkpt lat="47.06276" lon="6.41745">
        <ele>852.8</ele>
        <time>2020-05-22T16:03:45Z</time>
      </trkpt>
      <trkpt lat="47.06275" lon="6.41738">
        <ele>852.8</ele>
        <time>2020-05-22T16:03:46Z</time>
      </trkpt>
      <trkpt lat="47.06275" lon="6.4173">
        <ele>852.8</ele>
        <time>2020-05-22T16:03:47Z</time>
      </trkpt>
      <trkpt lat="47.06275" lon="6.41723">
        <ele>852.8</ele>
        <time>2020-05-22T16:03:48Z</time>
      </trkpt>
      <trkpt lat="47.06275" lon="6.41715">
        <ele>852.8</ele>
        <time>2020-05-22T16:03:49Z</time>
      </trkpt>
      <trkpt lat="47.06274" lon="6.41707">
        <ele>852.8</ele>
        <time>2020-05-22T16:03:50Z</time>
      </trkpt>
      <trkpt lat="47.06274" lon="6.417">
        <ele>852.6</ele>
        <time>2020-05-22T16:03:51Z</time>
      </trkpt>
      <trkpt lat="47.06274" lon="6.41692">
        <ele>852.6</ele>
        <time>2020-05-22T16:03:52Z</time>
      </trkpt>
      <trkpt lat="47.06273" lon="6.41684">
        <ele>852.6</ele>
        <time>2020-05-22T16:03:53Z</time>
      </trkpt>
      <trkpt lat="47.06273" lon="6.41676">
        <ele>852.6</ele>
        <time>2020-05-22T16:03:54Z</time>
      </trkpt>
      <trkpt lat="47.06273" lon="6.41669">
        <ele>852.6</ele>
        <time>2020-05-22T16:03:55Z</time>
      </trkpt>
      <trkpt lat="47.06272" lon="6.41661">
        <ele>852.6</ele>
        <time>2020-05-22T16:03:56Z</time>
      </trkpt>
      <trkpt lat="47.06272" lon="6.41654">
        <ele>852.6</ele>
        <time>2020-05-22T16:03:57Z</time>
      </trkpt>
      <trkpt lat="47.06271" lon="6.41646">
        <ele>852.2</ele>
        <time>2020-05-22T16:03:58Z</time>
      </trkpt>
      <trkpt lat="47.06271" lon="6.41638">
        <ele>852.2</ele>
        <time>2020-05-22T16:03:59Z</time>
      </trkpt>
      <trkpt lat="47.06271" lon="6.4163">
        <ele>852.2</ele>
        <time>2020-05-22T16:04:00Z</time>
      </trkpt>
      <trkpt lat="47.06271" lon="6.41622">
        <ele>852.2</ele>
        <time>2020-05-22T16:04:01Z</time>
      </trkpt>
      <trkpt lat="47.0627" lon="6.41614">
        <ele>852.2</ele>
        <time>2020-05-22T16:04:02Z</time>
      </trkpt>
      <trkpt lat="47.0627" lon="6.41606">
        <ele>852.2</ele>
        <time>2020-05-22T16:04:03Z</time>
      </trkpt>
      <trkpt lat="47.0627" lon="6.41598">
        <ele>852</ele>
        <time>2020-05-22T16:04:04Z</time>
      </trkpt>
      <trkpt lat="47.0627" lon="6.41589">
        <ele>852</ele>
        <time>2020-05-22T16:04:05Z</time>
      </trkpt>
      <trkpt lat="47.0627" lon="6.41581">
        <ele>852</ele>
        <time>2020-05-22T16:04:06Z</time>
      </trkpt>
      <trkpt lat="47.0627" lon="6.41572">
        <ele>851.8</ele>
        <time>2020-05-22T16:04:07Z</time>
      </trkpt>
      <trkpt lat="47.0627" lon="6.41563">
        <ele>851.8</ele>
        <time>2020-05-22T16:04:08Z</time>
      </trkpt>
      <trkpt lat="47.06269" lon="6.41554">
        <ele>851.6</ele>
        <time>2020-05-22T16:04:09Z</time>
      </trkpt>
      <trkpt lat="47.06269" lon="6.41544">
        <ele>851.6</ele>
        <time>2020-05-22T16:04:10Z</time>
      </trkpt>
      <trkpt lat="47.06269" lon="6.41535">
        <ele>851.6</ele>
        <time>2020-05-22T16:04:11Z</time>
      </trkpt>
      <trkpt lat="47.06269" lon="6.41525">
        <ele>851.2</ele>
        <time>2020-05-22T16:04:12Z</time>
      </trkpt>
      <trkpt lat="47.06268" lon="6.41515">
        <ele>851.2</ele>
        <time>2020-05-22T16:04:13Z</time>
      </trkpt>
      <trkpt lat="47.06268" lon="6.41504">
        <ele>851</ele>
        <time>2020-05-22T16:04:14Z</time>
      </trkpt>
      <trkpt lat="47.06268" lon="6.41494">
        <ele>850.8</ele>
        <time>2020-05-22T16:04:15Z</time>
      </trkpt>
      <trkpt lat="47.06268" lon="6.41483">
        <ele>850.4</ele>
        <time>2020-05-22T16:04:16Z</time>
      </trkpt>
      <trkpt lat="47.06267" lon="6.41472">
        <ele>850.2</ele>
        <time>2020-05-22T16:04:17Z</time>
      </trkpt>
      <trkpt lat="47.06267" lon="6.4146">
        <ele>849.8</ele>
        <time>2020-05-22T16:04:18Z</time>
      </trkpt>
      <trkpt lat="47.06267" lon="6.41448">
        <ele>849.4</ele>
        <time>2020-05-22T16:04:19Z</time>
      </trkpt>
      <trkpt lat="47.06267" lon="6.41436">
        <ele>849</ele>
        <time>2020-05-22T16:04:20Z</time>
      </trkpt>
      <trkpt lat="47.06266" lon="6.41423">
        <ele>848.6</ele>
        <time>2020-05-22T16:04:21Z</time>
      </trkpt>
      <trkpt lat="47.06266" lon="6.4141">
        <ele>848.2</ele>
        <time>2020-05-22T16:04:22Z</time>
      </trkpt>
      <trkpt lat="47.06266" lon="6.41397">
        <ele>847.6</ele>
        <time>2020-05-22T16:04:23Z</time>
      </trkpt>
      <trkpt lat="47.06265" lon="6.41384">
        <ele>847.2</ele>
        <time>2020-05-22T16:04:24Z</time>
      </trkpt>
      <trkpt lat="47.06265" lon="6.41369">
        <ele>846.8</ele>
        <time>2020-05-22T16:04:25Z</time>
      </trkpt>
      <trkpt lat="47.06264" lon="6.41355">
        <ele>846.4</ele>
        <time>2020-05-22T16:04:26Z</time>
      </trkpt>
      <trkpt lat="47.06264" lon="6.41341">
        <ele>846</ele>
        <time>2020-05-22T16:04:27Z</time>
      </trkpt>
      <trkpt lat="47.06264" lon="6.41327">
        <ele>845.4</ele>
        <time>2020-05-22T16:04:28Z</time>
      </trkpt>
      <trkpt lat="47.06264" lon="6.41313">
        <ele>845</ele>
        <time>2020-05-22T16:04:29Z</time>
      </trkpt>
      <trkpt lat="47.06263" lon="6.41298">
        <ele>844.6</ele>
        <time>2020-05-22T16:04:30Z</time>
      </trkpt>
      <trkpt lat="47.06263" lon="6.41283">
        <ele>844.2</ele>
        <time>2020-05-22T16:04:31Z</time>
      </trkpt>
      <trkpt lat="47.06262" lon="6.4127">
        <ele>843.8</ele>
        <time>2020-05-22T16:04:32Z</time>
      </trkpt>
      <trkpt lat="47.06262" lon="6.41257">
        <ele>843.2</ele>
        <time>2020-05-22T16:04:33Z</time>
      </trkpt>
      <trkpt lat="47.06261" lon="6.41243">
        <ele>843</ele>
        <time>2020-05-22T16:04:34Z</time>
      </trkpt>
      <trkpt lat="47.06261" lon="6.41231">
        <ele>842.6</ele>
        <time>2020-05-22T16:04:35Z</time>
      </trkpt>
      <trkpt lat="47.0626" lon="6.41218">
        <ele>842.6</ele>
        <time>2020-05-22T16:04:36Z</time>
      </trkpt>
      <trkpt lat="47.06259" lon="6.41207">
        <ele>842.2</ele>
        <time>2020-05-22T16:04:37Z</time>
      </trkpt>
      <trkpt lat="47.06259" lon="6.41195">
        <ele>842.2</ele>
        <time>2020-05-22T16:04:38Z</time>
      </trkpt>
      <trkpt lat="47.06259" lon="6.41184">
        <ele>842.2</ele>
        <time>2020-05-22T16:04:39Z</time>
      </trkpt>
      <trkpt lat="47.06258" lon="6.41173">
        <ele>841.8</ele>
        <time>2020-05-22T16:04:40Z</time>
      </trkpt>
      <trkpt lat="47.06258" lon="6.41163">
        <ele>841.4</ele>
        <time>2020-05-22T16:04:41Z</time>
      </trkpt>
      <trkpt lat="47.06258" lon="6.41152">
        <ele>841.4</ele>
        <time>2020-05-22T16:04:42Z</time>
      </trkpt>
      <trkpt lat="47.06258" lon="6.41142">
        <ele>841.2</ele>
        <time>2020-05-22T16:04:43Z</time>
      </trkpt>
      <trkpt lat="47.06257" lon="6.41132">
        <ele>841</ele>
        <time>2020-05-22T16:04:44Z</time>
      </trkpt>
      <trkpt lat="47.06257" lon="6.41122">
        <ele>841</ele>
        <time>2020-05-22T16:04:45Z</time>
      </trkpt>
      <trkpt lat="47.06256" lon="6.41112">
        <ele>840.6</ele>
        <time>2020-05-22T16:04:46Z</time>
      </trkpt>
      <trkpt lat="47.06254" lon="6.41101">
        <ele>840.4</ele>
        <time>2020-05-22T16:04:47Z</time>
      </trkpt>
      <trkpt lat="47.06253" lon="6.41091">
        <ele>840.4</ele>
        <time>2020-05-22T16:04:48Z</time>
      </trkpt>
      <trkpt lat="47.0625" lon="6.41082">
        <ele>840</ele>
        <time>2020-05-22T16:04:49Z</time>
      </trkpt>
      <trkpt lat="47.06248" lon="6.41073">
        <ele>839.8</ele>
        <time>2020-05-22T16:04:50Z</time>
      </trkpt>
      <trkpt lat="47.06245" lon="6.41064">
        <ele>839.8</ele>
        <time>2020-05-22T16:04:51Z</time>
      </trkpt>
      <trkpt lat="47.06241" lon="6.41056">
        <ele>839.4</ele>
        <time>2020-05-22T16:04:52Z</time>
      </trkpt>
      <trkpt lat="47.06238" lon="6.41048">
        <ele>839.4</ele>
        <time>2020-05-22T16:04:53Z</time>
      </trkpt>
      <trkpt lat="47.06235" lon="6.41041">
        <ele>839.4</ele>
        <time>2020-05-22T16:04:54Z</time>
      </trkpt>
      <trkpt lat="47.06231" lon="6.41033">
        <ele>839.4</ele>
        <time>2020-05-22T16:04:55Z</time>
      </trkpt>
      <trkpt lat="47.06228" lon="6.41026">
        <ele>839</ele>
        <time>2020-05-22T16:04:56Z</time>
      </trkpt>
      <trkpt lat="47.06225" lon="6.41019">
        <ele>839</ele>
        <time>2020-05-22T16:04:57Z</time>
      </trkpt>
      <trkpt lat="47.06222" lon="6.41011">
        <ele>838.8</ele>
        <time>2020-05-22T16:04:58Z</time>
      </trkpt>
      <trkpt lat="47.06218" lon="6.41004">
        <ele>838.8</ele>
        <time>2020-05-22T16:04:59Z</time>
      </trkpt>
      <trkpt lat="47.06215" lon="6.40996">
        <ele>838.4</ele>
        <time>2020-05-22T16:05:00Z</time>
      </trkpt>
      <trkpt lat="47.06211" lon="6.40989">
        <ele>838.4</ele>
        <time>2020-05-22T16:05:01Z</time>
      </trkpt>
      <trkpt lat="47.06207" lon="6.40981">
        <ele>838</ele>
        <time>2020-05-22T16:05:02Z</time>
      </trkpt>
      <trkpt lat="47.06203" lon="6.40974">
        <ele>838</ele>
        <time>2020-05-22T16:05:03Z</time>
      </trkpt>
      <trkpt lat="47.06198" lon="6.40967">
        <ele>837.8</ele>
        <time>2020-05-22T16:05:04Z</time>
      </trkpt>
      <trkpt lat="47.06194" lon="6.4096">
        <ele>837.8</ele>
        <time>2020-05-22T16:05:05Z</time>
      </trkpt>
      <trkpt lat="47.0619" lon="6.40954">
        <ele>837.6</ele>
        <time>2020-05-22T16:05:06Z</time>
      </trkpt>
      <trkpt lat="47.06185" lon="6.40947">
        <ele>837.4</ele>
        <time>2020-05-22T16:05:07Z</time>
      </trkpt>
      <trkpt lat="47.0618" lon="6.4094">
        <ele>837</ele>
        <time>2020-05-22T16:05:08Z</time>
      </trkpt>
      <trkpt lat="47.06175" lon="6.40933">
        <ele>836.8</ele>
        <time>2020-05-22T16:05:09Z</time>
      </trkpt>
      <trkpt lat="47.0617" lon="6.40926">
        <ele>836.4</ele>
        <time>2020-05-22T16:05:10Z</time>
      </trkpt>
      <trkpt lat="47.06165" lon="6.40919">
        <ele>836</ele>
        <time>2020-05-22T16:05:11Z</time>
      </trkpt>
      <trkpt lat="47.06159" lon="6.40911">
        <ele>835.8</ele>
        <time>2020-05-22T16:05:12Z</time>
      </trkpt>
      <trkpt lat="47.06154" lon="6.40904">
        <ele>835.4</ele>
        <time>2020-05-22T16:05:13Z</time>
      </trkpt>
      <trkpt lat="47.06148" lon="6.40896">
        <ele>835</ele>
        <time>2020-05-22T16:05:14Z</time>
      </trkpt>
      <trkpt lat="47.06142" lon="6.40887">
        <ele>834.6</ele>
        <time>2020-05-22T16:05:15Z</time>
      </trkpt>
      <trkpt lat="47.06137" lon="6.40879">
        <ele>834.4</ele>
        <time>2020-05-22T16:05:16Z</time>
      </trkpt>
      <trkpt lat="47.06131" lon="6.4087">
        <ele>834</ele>
        <time>2020-05-22T16:05:17Z</time>
      </trkpt>
      <trkpt lat="47.06125" lon="6.40862">
        <ele>833.6</ele>
        <time>2020-05-22T16:05:18Z</time>
      </trkpt>
      <trkpt lat="47.06119" lon="6.40854">
        <ele>833.4</ele>
        <time>2020-05-22T16:05:19Z</time>
      </trkpt>
      <trkpt lat="47.06113" lon="6.40846">
        <ele>833.2</ele>
        <time>2020-05-22T16:05:20Z</time>
      </trkpt>
      <trkpt lat="47.06107" lon="6.40838">
        <ele>832.8</ele>
        <time>2020-05-22T16:05:21Z</time>
      </trkpt>
      <trkpt lat="47.06101" lon="6.4083">
        <ele>832.6</ele>
        <time>2020-05-22T16:05:22Z</time>
      </trkpt>
      <trkpt lat="47.06095" lon="6.40821">
        <ele>832.2</ele>
        <time>2020-05-22T16:05:23Z</time>
      </trkpt>
      <trkpt lat="47.0609" lon="6.40813">
        <ele>831.8</ele>
        <time>2020-05-22T16:05:24Z</time>
      </trkpt>
      <trkpt lat="47.06084" lon="6.40805">
        <ele>831.6</ele>
        <time>2020-05-22T16:05:25Z</time>
      </trkpt>
      <trkpt lat="47.06078" lon="6.40797">
        <ele>831.6</ele>
        <time>2020-05-22T16:05:26Z</time>
      </trkpt>
      <trkpt lat="47.06072" lon="6.40789">
        <ele>831.2</ele>
        <time>2020-05-22T16:05:27Z</time>
      </trkpt>
      <trkpt lat="47.06066" lon="6.40782">
        <ele>831.2</ele>
        <time>2020-05-22T16:05:28Z</time>
      </trkpt>
      <trkpt lat="47.0606" lon="6.40775">
        <ele>831.2</ele>
        <time>2020-05-22T16:05:29Z</time>
      </trkpt>
      <trkpt lat="47.06054" lon="6.40767">
        <ele>830.8</ele>
        <time>2020-05-22T16:05:30Z</time>
      </trkpt>
      <trkpt lat="47.06048" lon="6.4076">
        <ele>830.8</ele>
        <time>2020-05-22T16:05:31Z</time>
      </trkpt>
      <trkpt lat="47.06042" lon="6.40754">
        <ele>830.4</ele>
        <time>2020-05-22T16:05:32Z</time>
      </trkpt>
      <trkpt lat="47.06035" lon="6.40747">
        <ele>830.2</ele>
        <time>2020-05-22T16:05:33Z</time>
      </trkpt>
      <trkpt lat="47.06029" lon="6.4074">
        <ele>830</ele>
        <time>2020-05-22T16:05:34Z</time>
      </trkpt>
      <trkpt lat="47.06022" lon="6.40734">
        <ele>829.6</ele>
        <time>2020-05-22T16:05:35Z</time>
      </trkpt>
      <trkpt lat="47.06016" lon="6.40728">
        <ele>829.2</ele>
        <time>2020-05-22T16:05:36Z</time>
      </trkpt>
      <trkpt lat="47.06009" lon="6.40721">
        <ele>828.8</ele>
        <time>2020-05-22T16:05:37Z</time>
      </trkpt>
      <trkpt lat="47.06002" lon="6.40715">
        <ele>828.4</ele>
        <time>2020-05-22T16:05:38Z</time>
      </trkpt>
      <trkpt lat="47.05995" lon="6.40709">
        <ele>828</ele>
        <time>2020-05-22T16:05:39Z</time>
      </trkpt>
      <trkpt lat="47.05988" lon="6.40702">
        <ele>827.6</ele>
        <time>2020-05-22T16:05:40Z</time>
      </trkpt>
      <trkpt lat="47.05981" lon="6.40696">
        <ele>827.2</ele>
        <time>2020-05-22T16:05:41Z</time>
      </trkpt>
      <trkpt lat="47.05973" lon="6.4069">
        <ele>826.8</ele>
        <time>2020-05-22T16:05:42Z</time>
      </trkpt>
      <trkpt lat="47.05966" lon="6.40683">
        <ele>826.4</ele>
        <time>2020-05-22T16:05:43Z</time>
      </trkpt>
      <trkpt lat="47.05959" lon="6.40676">
        <ele>826</ele>
        <time>2020-05-22T16:05:44Z</time>
      </trkpt>
      <trkpt lat="47.05951" lon="6.4067">
        <ele>825.8</ele>
        <time>2020-05-22T16:05:45Z</time>
      </trkpt>
      <trkpt lat="47.05944" lon="6.40663">
        <ele>825.4</ele>
        <time>2020-05-22T16:05:46Z</time>
      </trkpt>
      <trkpt lat="47.05937" lon="6.40657">
        <ele>825</ele>
        <time>2020-05-22T16:05:47Z</time>
      </trkpt>
      <trkpt lat="47.0593" lon="6.40651">
        <ele>824.6</ele>
        <time>2020-05-22T16:05:48Z</time>
      </trkpt>
      <trkpt lat="47.05923" lon="6.40644">
        <ele>824.4</ele>
        <time>2020-05-22T16:05:49Z</time>
      </trkpt>
      <trkpt lat="47.05917" lon="6.40638">
        <ele>824.4</ele>
        <time>2020-05-22T16:05:50Z</time>
      </trkpt>
      <trkpt lat="47.0591" lon="6.40633">
        <ele>824.2</ele>
        <time>2020-05-22T16:05:51Z</time>
      </trkpt>
      <trkpt lat="47.05905" lon="6.40628">
        <ele>824.2</ele>
        <time>2020-05-22T16:05:52Z</time>
      </trkpt>
      <trkpt lat="47.05899" lon="6.40622">
        <ele>824.2</ele>
        <time>2020-05-22T16:05:53Z</time>
      </trkpt>
      <trkpt lat="47.05894" lon="6.40617">
        <ele>824.2</ele>
        <time>2020-05-22T16:05:54Z</time>
      </trkpt>
      <trkpt lat="47.05889" lon="6.40612">
        <ele>824.2</ele>
        <time>2020-05-22T16:05:55Z</time>
      </trkpt>
      <trkpt lat="47.05884" lon="6.40607">
        <ele>824</ele>
        <time>2020-05-22T16:05:56Z</time>
      </trkpt>
      <trkpt lat="47.0588" lon="6.40601">
        <ele>824</ele>
        <time>2020-05-22T16:05:57Z</time>
      </trkpt>
      <trkpt lat="47.0588" lon="6.40601">
        <ele>824</ele>
        <time>2020-05-22T16:05:58Z</time>
      </trkpt>
      <trkpt lat="47.05873" lon="6.40589">
        <ele>824</ele>
        <time>2020-05-22T16:05:59Z</time>
      </trkpt>
      <trkpt lat="47.05869" lon="6.40583">
        <ele>824</ele>
        <time>2020-05-22T16:06:00Z</time>
      </trkpt>
      <trkpt lat="47.05866" lon="6.40577">
        <ele>824</ele>
        <time>2020-05-22T16:06:01Z</time>
      </trkpt>
      <trkpt lat="47.05863" lon="6.40571">
        <ele>824</ele>
        <time>2020-05-22T16:06:02Z</time>
      </trkpt>
      <trkpt lat="47.0586" lon="6.40564">
        <ele>824</ele>
        <time>2020-05-22T16:06:03Z</time>
      </trkpt>
      <trkpt lat="47.05858" lon="6.40557">
        <ele>824</ele>
        <time>2020-05-22T16:06:04Z</time>
      </trkpt>
      <trkpt lat="47.05855" lon="6.40551">
        <ele>823.8</ele>
        <time>2020-05-22T16:06:05Z</time>
      </trkpt>
      <trkpt lat="47.05852" lon="6.40544">
        <ele>823.8</ele>
        <time>2020-05-22T16:06:06Z</time>
      </trkpt>
      <trkpt lat="47.0585" lon="6.40537">
        <ele>823.6</ele>
        <time>2020-05-22T16:06:07Z</time>
      </trkpt>
      <trkpt lat="47.05847" lon="6.4053">
        <ele>823.6</ele>
        <time>2020-05-22T16:06:08Z</time>
      </trkpt>
      <trkpt lat="47.05845" lon="6.40523">
        <ele>823.2</ele>
        <time>2020-05-22T16:06:09Z</time>
      </trkpt>
      <trkpt lat="47.05842" lon="6.40516">
        <ele>823.2</ele>
        <time>2020-05-22T16:06:10Z</time>
      </trkpt>
      <trkpt lat="47.0584" lon="6.40509">
        <ele>823.2</ele>
        <time>2020-05-22T16:06:11Z</time>
      </trkpt>
      <trkpt lat="47.05837" lon="6.40501">
        <ele>823</ele>
        <time>2020-05-22T16:06:12Z</time>
      </trkpt>
      <trkpt lat="47.05834" lon="6.40494">
        <ele>823</ele>
        <time>2020-05-22T16:06:13Z</time>
      </trkpt>
      <trkpt lat="47.05831" lon="6.40486">
        <ele>822.6</ele>
        <time>2020-05-22T16:06:14Z</time>
      </trkpt>
      <trkpt lat="47.05828" lon="6.40479">
        <ele>822.4</ele>
        <time>2020-05-22T16:06:15Z</time>
      </trkpt>
      <trkpt lat="47.05825" lon="6.4047">
        <ele>822.4</ele>
        <time>2020-05-22T16:06:16Z</time>
      </trkpt>
      <trkpt lat="47.05822" lon="6.40462">
        <ele>822</ele>
        <time>2020-05-22T16:06:17Z</time>
      </trkpt>
      <trkpt lat="47.05819" lon="6.40454">
        <ele>822</ele>
        <time>2020-05-22T16:06:18Z</time>
      </trkpt>
      <trkpt lat="47.05816" lon="6.40445">
        <ele>821.6</ele>
        <time>2020-05-22T16:06:19Z</time>
      </trkpt>
      <trkpt lat="47.05812" lon="6.40436">
        <ele>821.4</ele>
        <time>2020-05-22T16:06:20Z</time>
      </trkpt>
      <trkpt lat="47.05809" lon="6.40427">
        <ele>821.2</ele>
        <time>2020-05-22T16:06:21Z</time>
      </trkpt>
      <trkpt lat="47.05805" lon="6.40418">
        <ele>821</ele>
        <time>2020-05-22T16:06:22Z</time>
      </trkpt>
      <trkpt lat="47.05802" lon="6.40408">
        <ele>821</ele>
        <time>2020-05-22T16:06:23Z</time>
      </trkpt>
      <trkpt lat="47.05798" lon="6.40398">
        <ele>820.6</ele>
        <time>2020-05-22T16:06:24Z</time>
      </trkpt>
      <trkpt lat="47.05795" lon="6.40389">
        <ele>820.2</ele>
        <time>2020-05-22T16:06:25Z</time>
      </trkpt>
      <trkpt lat="47.0579" lon="6.40379">
        <ele>819.8</ele>
        <time>2020-05-22T16:06:26Z</time>
      </trkpt>
      <trkpt lat="47.05786" lon="6.4037">
        <ele>819.8</ele>
        <time>2020-05-22T16:06:27Z</time>
      </trkpt>
      <trkpt lat="47.05781" lon="6.40361">
        <ele>819.8</ele>
        <time>2020-05-22T16:06:28Z</time>
      </trkpt>
      <trkpt lat="47.05776" lon="6.40352">
        <ele>819.4</ele>
        <time>2020-05-22T16:06:29Z</time>
      </trkpt>
      <trkpt lat="47.0577" lon="6.40344">
        <ele>819.4</ele>
        <time>2020-05-22T16:06:30Z</time>
      </trkpt>
      <trkpt lat="47.05764" lon="6.40337">
        <ele>819</ele>
        <time>2020-05-22T16:06:31Z</time>
      </trkpt>
      <trkpt lat="47.05757" lon="6.40331">
        <ele>818.8</ele>
        <time>2020-05-22T16:06:32Z</time>
      </trkpt>
      <trkpt lat="47.05751" lon="6.40325">
        <ele>818.4</ele>
        <time>2020-05-22T16:06:33Z</time>
      </trkpt>
      <trkpt lat="47.05744" lon="6.4032">
        <ele>818.2</ele>
        <time>2020-05-22T16:06:34Z</time>
      </trkpt>
      <trkpt lat="47.05737" lon="6.40315">
        <ele>817.8</ele>
        <time>2020-05-22T16:06:35Z</time>
      </trkpt>
      <trkpt lat="47.05731" lon="6.4031">
        <ele>817.8</ele>
        <time>2020-05-22T16:06:36Z</time>
      </trkpt>
      <trkpt lat="47.05724" lon="6.40305">
        <ele>817.4</ele>
        <time>2020-05-22T16:06:37Z</time>
      </trkpt>
      <trkpt lat="47.05717" lon="6.40301">
        <ele>817.4</ele>
        <time>2020-05-22T16:06:38Z</time>
      </trkpt>
      <trkpt lat="47.05711" lon="6.40296">
        <ele>817.2</ele>
        <time>2020-05-22T16:06:39Z</time>
      </trkpt>
      <trkpt lat="47.05705" lon="6.40292">
        <ele>817.2</ele>
        <time>2020-05-22T16:06:40Z</time>
      </trkpt>
      <trkpt lat="47.05698" lon="6.40288">
        <ele>817</ele>
        <time>2020-05-22T16:06:41Z</time>
      </trkpt>
      <trkpt lat="47.05692" lon="6.40283">
        <ele>817</ele>
        <time>2020-05-22T16:06:42Z</time>
      </trkpt>
      <trkpt lat="47.05686" lon="6.40279">
        <ele>816.6</ele>
        <time>2020-05-22T16:06:43Z</time>
      </trkpt>
      <trkpt lat="47.0568" lon="6.40275">
        <ele>816.6</ele>
        <time>2020-05-22T16:06:44Z</time>
      </trkpt>
      <trkpt lat="47.05673" lon="6.40271">
        <ele>816.4</ele>
        <time>2020-05-22T16:06:45Z</time>
      </trkpt>
      <trkpt lat="47.05667" lon="6.40267">
        <ele>816.4</ele>
        <time>2020-05-22T16:06:46Z</time>
      </trkpt>
      <trkpt lat="47.05661" lon="6.40263">
        <ele>816.2</ele>
        <time>2020-05-22T16:06:47Z</time>
      </trkpt>
      <trkpt lat="47.05656" lon="6.40259">
        <ele>816.2</ele>
        <time>2020-05-22T16:06:48Z</time>
      </trkpt>
      <trkpt lat="47.0565" lon="6.40254">
        <ele>816.2</ele>
        <time>2020-05-22T16:06:49Z</time>
      </trkpt>
      <trkpt lat="47.05644" lon="6.4025">
        <ele>816.4</ele>
        <time>2020-05-22T16:06:50Z</time>
      </trkpt>
      <trkpt lat="47.05638" lon="6.40246">
        <ele>816.4</ele>
        <time>2020-05-22T16:06:51Z</time>
      </trkpt>
      <trkpt lat="47.05632" lon="6.40242">
        <ele>816.4</ele>
        <time>2020-05-22T16:06:52Z</time>
      </trkpt>
      <trkpt lat="47.05626" lon="6.40238">
        <ele>816</ele>
        <time>2020-05-22T16:06:53Z</time>
      </trkpt>
      <trkpt lat="47.05621" lon="6.40234">
        <ele>816</ele>
        <time>2020-05-22T16:06:54Z</time>
      </trkpt>
      <trkpt lat="47.05615" lon="6.4023">
        <ele>816</ele>
        <time>2020-05-22T16:06:55Z</time>
      </trkpt>
      <trkpt lat="47.0561" lon="6.40226">
        <ele>816</ele>
        <time>2020-05-22T16:06:56Z</time>
      </trkpt>
      <trkpt lat="47.05604" lon="6.40222">
        <ele>815.6</ele>
        <time>2020-05-22T16:06:57Z</time>
      </trkpt>
      <trkpt lat="47.05599" lon="6.40218">
        <ele>815.6</ele>
        <time>2020-05-22T16:06:58Z</time>
      </trkpt>
      <trkpt lat="47.05594" lon="6.40214">
        <ele>815.4</ele>
        <time>2020-05-22T16:06:59Z</time>
      </trkpt>
      <trkpt lat="47.05589" lon="6.40211">
        <ele>815.4</ele>
        <time>2020-05-22T16:07:00Z</time>
      </trkpt>
      <trkpt lat="47.05584" lon="6.40207">
        <ele>815.4</ele>
        <time>2020-05-22T16:07:01Z</time>
      </trkpt>
      <trkpt lat="47.05579" lon="6.40204">
        <ele>815.2</ele>
        <time>2020-05-22T16:07:02Z</time>
      </trkpt>
      <trkpt lat="47.05574" lon="6.40201">
        <ele>815.2</ele>
        <time>2020-05-22T16:07:03Z</time>
      </trkpt>
      <trkpt lat="47.0557" lon="6.40198">
        <ele>815.2</ele>
        <time>2020-05-22T16:07:04Z</time>
      </trkpt>
      <trkpt lat="47.05565" lon="6.40195">
        <ele>815.2</ele>
        <time>2020-05-22T16:07:05Z</time>
      </trkpt>
      <trkpt lat="47.05561" lon="6.40191">
        <ele>815.2</ele>
        <time>2020-05-22T16:07:06Z</time>
      </trkpt>
      <trkpt lat="47.05556" lon="6.40188">
        <ele>815.2</ele>
        <time>2020-05-22T16:07:07Z</time>
      </trkpt>
      <trkpt lat="47.05552" lon="6.40185">
        <ele>815.2</ele>
        <time>2020-05-22T16:07:08Z</time>
      </trkpt>
      <trkpt lat="47.05547" lon="6.40182">
        <ele>815.2</ele>
        <time>2020-05-22T16:07:09Z</time>
      </trkpt>
      <trkpt lat="47.05543" lon="6.40179">
        <ele>815.2</ele>
        <time>2020-05-22T16:07:10Z</time>
      </trkpt>
      <trkpt lat="47.05538" lon="6.40176">
        <ele>815.2</ele>
        <time>2020-05-22T16:07:11Z</time>
      </trkpt>
      <trkpt lat="47.05534" lon="6.40173">
        <ele>815.2</ele>
        <time>2020-05-22T16:07:12Z</time>
      </trkpt>
      <trkpt lat="47.05529" lon="6.4017">
        <ele>815.4</ele>
        <time>2020-05-22T16:07:13Z</time>
      </trkpt>
      <trkpt lat="47.05525" lon="6.40167">
        <ele>815.4</ele>
        <time>2020-05-22T16:07:14Z</time>
      </trkpt>
      <trkpt lat="47.0552" lon="6.40164">
        <ele>815.4</ele>
        <time>2020-05-22T16:07:15Z</time>
      </trkpt>
      <trkpt lat="47.05516" lon="6.40161">
        <ele>815.4</ele>
        <time>2020-05-22T16:07:16Z</time>
      </trkpt>
      <trkpt lat="47.05512" lon="6.40159">
        <ele>815.4</ele>
        <time>2020-05-22T16:07:17Z</time>
      </trkpt>
      <trkpt lat="47.05508" lon="6.40156">
        <ele>815.4</ele>
        <time>2020-05-22T16:07:18Z</time>
      </trkpt>
      <trkpt lat="47.05504" lon="6.40153">
        <ele>815.4</ele>
        <time>2020-05-22T16:07:19Z</time>
      </trkpt>
      <trkpt lat="47.05499" lon="6.4015">
        <ele>815.4</ele>
        <time>2020-05-22T16:07:20Z</time>
      </trkpt>
      <trkpt lat="47.05495" lon="6.40147">
        <ele>815.4</ele>
        <time>2020-05-22T16:07:21Z</time>
      </trkpt>
      <trkpt lat="47.05491" lon="6.40144">
        <ele>815.4</ele>
        <time>2020-05-22T16:07:22Z</time>
      </trkpt>
      <trkpt lat="47.05487" lon="6.40141">
        <ele>815.4</ele>
        <time>2020-05-22T16:07:23Z</time>
      </trkpt>
      <trkpt lat="47.05483" lon="6.40138">
        <ele>815.4</ele>
        <time>2020-05-22T16:07:24Z</time>
      </trkpt>
      <trkpt lat="47.05479" lon="6.40136">
        <ele>815.8</ele>
        <time>2020-05-22T16:07:25Z</time>
      </trkpt>
      <trkpt lat="47.05475" lon="6.40133">
        <ele>815.8</ele>
        <time>2020-05-22T16:07:26Z</time>
      </trkpt>
      <trkpt lat="47.05471" lon="6.4013">
        <ele>816</ele>
        <time>2020-05-22T16:07:27Z</time>
      </trkpt>
      <trkpt lat="47.05467" lon="6.40127">
        <ele>816</ele>
        <time>2020-05-22T16:07:28Z</time>
      </trkpt>
      <trkpt lat="47.05463" lon="6.40124">
        <ele>816</ele>
        <time>2020-05-22T16:07:29Z</time>
      </trkpt>
      <trkpt lat="47.05458" lon="6.40121">
        <ele>816</ele>
        <time>2020-05-22T16:07:30Z</time>
      </trkpt>
      <trkpt lat="47.05454" lon="6.40119">
        <ele>816</ele>
        <time>2020-05-22T16:07:31Z</time>
      </trkpt>
      <trkpt lat="47.0545" lon="6.40116">
        <ele>816</ele>
        <time>2020-05-22T16:07:32Z</time>
      </trkpt>
      <trkpt lat="47.05446" lon="6.40113">
        <ele>816</ele>
        <time>2020-05-22T16:07:33Z</time>
      </trkpt>
      <trkpt lat="47.05442" lon="6.4011">
        <ele>816</ele>
        <time>2020-05-22T16:07:34Z</time>
      </trkpt>
      <trkpt lat="47.05438" lon="6.40107">
        <ele>816</ele>
        <time>2020-05-22T16:07:35Z</time>
      </trkpt>
      <trkpt lat="47.05434" lon="6.40104">
        <ele>816</ele>
        <time>2020-05-22T16:07:36Z</time>
      </trkpt>
      <trkpt lat="47.0543" lon="6.40101">
        <ele>816</ele>
        <time>2020-05-22T16:07:37Z</time>
      </trkpt>
      <trkpt lat="47.05425" lon="6.40098">
        <ele>816</ele>
        <time>2020-05-22T16:07:38Z</time>
      </trkpt>
      <trkpt lat="47.05421" lon="6.40094">
        <ele>816</ele>
        <time>2020-05-22T16:07:39Z</time>
      </trkpt>
      <trkpt lat="47.05417" lon="6.40091">
        <ele>816</ele>
        <time>2020-05-22T16:07:40Z</time>
      </trkpt>
      <trkpt lat="47.05413" lon="6.40087">
        <ele>816.2</ele>
        <time>2020-05-22T16:07:41Z</time>
      </trkpt>
      <trkpt lat="47.05409" lon="6.40083">
        <ele>816.2</ele>
        <time>2020-05-22T16:07:42Z</time>
      </trkpt>
      <trkpt lat="47.05406" lon="6.40079">
        <ele>816.2</ele>
        <time>2020-05-22T16:07:43Z</time>
      </trkpt>
      <trkpt lat="47.05402" lon="6.40074">
        <ele>816.2</ele>
        <time>2020-05-22T16:07:44Z</time>
      </trkpt>
      <trkpt lat="47.05399" lon="6.40069">
        <ele>816.2</ele>
        <time>2020-05-22T16:07:45Z</time>
      </trkpt>
      <trkpt lat="47.05395" lon="6.40064">
        <ele>816.2</ele>
        <time>2020-05-22T16:07:46Z</time>
      </trkpt>
      <trkpt lat="47.05392" lon="6.40059">
        <ele>816.2</ele>
        <time>2020-05-22T16:07:47Z</time>
      </trkpt>
      <trkpt lat="47.05389" lon="6.40053">
        <ele>816.2</ele>
        <time>2020-05-22T16:07:48Z</time>
      </trkpt>
      <trkpt lat="47.05386" lon="6.40048">
        <ele>816.2</ele>
        <time>2020-05-22T16:07:49Z</time>
      </trkpt>
      <trkpt lat="47.05383" lon="6.40042">
        <ele>816.2</ele>
        <time>2020-05-22T16:07:50Z</time>
      </trkpt>
      <trkpt lat="47.0538" lon="6.40035">
        <ele>816.2</ele>
        <time>2020-05-22T16:07:51Z</time>
      </trkpt>
      <trkpt lat="47.05378" lon="6.40029">
        <ele>816.2</ele>
        <time>2020-05-22T16:07:52Z</time>
      </trkpt>
      <trkpt lat="47.05376" lon="6.40022">
        <ele>816.2</ele>
        <time>2020-05-22T16:07:53Z</time>
      </trkpt>
      <trkpt lat="47.05374" lon="6.40015">
        <ele>816.2</ele>
        <time>2020-05-22T16:07:54Z</time>
      </trkpt>
      <trkpt lat="47.05372" lon="6.40007">
        <ele>816.2</ele>
        <time>2020-05-22T16:07:55Z</time>
      </trkpt>
      <trkpt lat="47.05371" lon="6.4">
        <ele>816.2</ele>
        <time>2020-05-22T16:07:56Z</time>
      </trkpt>
      <trkpt lat="47.05369" lon="6.39992">
        <ele>815.8</ele>
        <time>2020-05-22T16:07:57Z</time>
      </trkpt>
      <trkpt lat="47.05368" lon="6.39985">
        <ele>815.8</ele>
        <time>2020-05-22T16:07:58Z</time>
      </trkpt>
      <trkpt lat="47.05366" lon="6.39977">
        <ele>815.8</ele>
        <time>2020-05-22T16:07:59Z</time>
      </trkpt>
      <trkpt lat="47.05365" lon="6.39969">
        <ele>815.6</ele>
        <time>2020-05-22T16:08:00Z</time>
      </trkpt>
      <trkpt lat="47.05364" lon="6.39961">
        <ele>815.6</ele>
        <time>2020-05-22T16:08:01Z</time>
      </trkpt>
      <trkpt lat="47.05362" lon="6.39953">
        <ele>815.6</ele>
        <time>2020-05-22T16:08:02Z</time>
      </trkpt>
      <trkpt lat="47.05361" lon="6.39945">
        <ele>815.6</ele>
        <time>2020-05-22T16:08:03Z</time>
      </trkpt>
      <trkpt lat="47.05359" lon="6.39937">
        <ele>815.2</ele>
        <time>2020-05-22T16:08:04Z</time>
      </trkpt>
      <trkpt lat="47.05358" lon="6.39928">
        <ele>815.2</ele>
        <time>2020-05-22T16:08:05Z</time>
      </trkpt>
      <trkpt lat="47.05356" lon="6.39919">
        <ele>815</ele>
        <time>2020-05-22T16:08:06Z</time>
      </trkpt>
      <trkpt lat="47.05355" lon="6.3991">
        <ele>815</ele>
        <time>2020-05-22T16:08:07Z</time>
      </trkpt>
      <trkpt lat="47.05353" lon="6.39902">
        <ele>814.8</ele>
        <time>2020-05-22T16:08:08Z</time>
      </trkpt>
      <trkpt lat="47.05351" lon="6.39893">
        <ele>814.8</ele>
        <time>2020-05-22T16:08:09Z</time>
      </trkpt>
      <trkpt lat="47.0535" lon="6.39884">
        <ele>814.8</ele>
        <time>2020-05-22T16:08:10Z</time>
      </trkpt>
      <trkpt lat="47.05348" lon="6.39875">
        <ele>814.4</ele>
        <time>2020-05-22T16:08:11Z</time>
      </trkpt>
      <trkpt lat="47.05346" lon="6.39866">
        <ele>814.4</ele>
        <time>2020-05-22T16:08:12Z</time>
      </trkpt>
      <trkpt lat="47.05345" lon="6.39858">
        <ele>814.2</ele>
        <time>2020-05-22T16:08:13Z</time>
      </trkpt>
      <trkpt lat="47.05343" lon="6.39849">
        <ele>814.2</ele>
        <time>2020-05-22T16:08:14Z</time>
      </trkpt>
      <trkpt lat="47.05342" lon="6.3984">
        <ele>813.8</ele>
        <time>2020-05-22T16:08:15Z</time>
      </trkpt>
      <trkpt lat="47.0534" lon="6.39832">
        <ele>813.6</ele>
        <time>2020-05-22T16:08:16Z</time>
      </trkpt>
      <trkpt lat="47.05338" lon="6.39823">
        <ele>813.6</ele>
        <time>2020-05-22T16:08:17Z</time>
      </trkpt>
      <trkpt lat="47.05337" lon="6.39815">
        <ele>813.4</ele>
        <time>2020-05-22T16:08:18Z</time>
      </trkpt>
      <trkpt lat="47.05335" lon="6.39806">
        <ele>813.4</ele>
        <time>2020-05-22T16:08:19Z</time>
      </trkpt>
      <trkpt lat="47.05334" lon="6.39797">
        <ele>813.2</ele>
        <time>2020-05-22T16:08:20Z</time>
      </trkpt>
      <trkpt lat="47.05332" lon="6.39789">
        <ele>813.2</ele>
        <time>2020-05-22T16:08:21Z</time>
      </trkpt>
      <trkpt lat="47.0533" lon="6.3978">
        <ele>813</ele>
        <time>2020-05-22T16:08:22Z</time>
      </trkpt>
      <trkpt lat="47.05329" lon="6.39772">
        <ele>813</ele>
        <time>2020-05-22T16:08:23Z</time>
      </trkpt>
      <trkpt lat="47.05327" lon="6.39763">
        <ele>812.6</ele>
        <time>2020-05-22T16:08:24Z</time>
      </trkpt>
      <trkpt lat="47.05325" lon="6.39755">
        <ele>812.6</ele>
        <time>2020-05-22T16:08:25Z</time>
      </trkpt>
      <trkpt lat="47.05323" lon="6.39746">
        <ele>812.2</ele>
        <time>2020-05-22T16:08:26Z</time>
      </trkpt>
      <trkpt lat="47.05322" lon="6.39738">
        <ele>812.2</ele>
        <time>2020-05-22T16:08:27Z</time>
      </trkpt>
      <trkpt lat="47.0532" lon="6.39729">
        <ele>812</ele>
        <time>2020-05-22T16:08:28Z</time>
      </trkpt>
      <trkpt lat="47.05319" lon="6.39721">
        <ele>811.8</ele>
        <time>2020-05-22T16:08:29Z</time>
      </trkpt>
      <trkpt lat="47.05317" lon="6.39713">
        <ele>811.8</ele>
        <time>2020-05-22T16:08:30Z</time>
      </trkpt>
      <trkpt lat="47.05316" lon="6.39705">
        <ele>811.6</ele>
        <time>2020-05-22T16:08:31Z</time>
      </trkpt>
      <trkpt lat="47.05314" lon="6.39697">
        <ele>811.6</ele>
        <time>2020-05-22T16:08:32Z</time>
      </trkpt>
      <trkpt lat="47.05313" lon="6.39688">
        <ele>811.2</ele>
        <time>2020-05-22T16:08:33Z</time>
      </trkpt>
      <trkpt lat="47.05311" lon="6.3968">
        <ele>811.2</ele>
        <time>2020-05-22T16:08:34Z</time>
      </trkpt>
      <trkpt lat="47.0531" lon="6.39671">
        <ele>811</ele>
        <time>2020-05-22T16:08:35Z</time>
      </trkpt>
      <trkpt lat="47.05308" lon="6.39663">
        <ele>811</ele>
        <time>2020-05-22T16:08:36Z</time>
      </trkpt>
      <trkpt lat="47.05307" lon="6.39654">
        <ele>810.8</ele>
        <time>2020-05-22T16:08:37Z</time>
      </trkpt>
      <trkpt lat="47.05305" lon="6.39645">
        <ele>810.8</ele>
        <time>2020-05-22T16:08:38Z</time>
      </trkpt>
      <trkpt lat="47.05304" lon="6.39636">
        <ele>810.4</ele>
        <time>2020-05-22T16:08:39Z</time>
      </trkpt>
      <trkpt lat="47.05302" lon="6.39626">
        <ele>810.4</ele>
        <time>2020-05-22T16:08:40Z</time>
      </trkpt>
      <trkpt lat="47.05301" lon="6.39617">
        <ele>810.2</ele>
        <time>2020-05-22T16:08:41Z</time>
      </trkpt>
      <trkpt lat="47.05299" lon="6.39607">
        <ele>810.2</ele>
        <time>2020-05-22T16:08:42Z</time>
      </trkpt>
      <trkpt lat="47.05298" lon="6.39598">
        <ele>809.8</ele>
        <time>2020-05-22T16:08:43Z</time>
      </trkpt>
      <trkpt lat="47.05296" lon="6.39588">
        <ele>809.8</ele>
        <time>2020-05-22T16:08:44Z</time>
      </trkpt>
      <trkpt lat="47.05295" lon="6.39579">
        <ele>809.6</ele>
        <time>2020-05-22T16:08:45Z</time>
      </trkpt>
      <trkpt lat="47.05293" lon="6.3957">
        <ele>809.6</ele>
        <time>2020-05-22T16:08:46Z</time>
      </trkpt>
      <trkpt lat="47.05292" lon="6.39561">
        <ele>809.2</ele>
        <time>2020-05-22T16:08:47Z</time>
      </trkpt>
      <trkpt lat="47.0529" lon="6.39552">
        <ele>809.2</ele>
        <time>2020-05-22T16:08:48Z</time>
      </trkpt>
      <trkpt lat="47.05289" lon="6.39543">
        <ele>808.8</ele>
        <time>2020-05-22T16:08:49Z</time>
      </trkpt>
      <trkpt lat="47.05287" lon="6.39534">
        <ele>808.8</ele>
        <time>2020-05-22T16:08:50Z</time>
      </trkpt>
      <trkpt lat="47.05286" lon="6.39525">
        <ele>808.6</ele>
        <time>2020-05-22T16:08:51Z</time>
      </trkpt>
      <trkpt lat="47.05285" lon="6.39516">
        <ele>808.6</ele>
        <time>2020-05-22T16:08:52Z</time>
      </trkpt>
      <trkpt lat="47.05283" lon="6.39507">
        <ele>808.4</ele>
        <time>2020-05-22T16:08:53Z</time>
      </trkpt>
      <trkpt lat="47.05282" lon="6.39498">
        <ele>808.4</ele>
        <time>2020-05-22T16:08:54Z</time>
      </trkpt>
      <trkpt lat="47.05281" lon="6.39489">
        <ele>808.2</ele>
        <time>2020-05-22T16:08:55Z</time>
      </trkpt>
      <trkpt lat="47.05279" lon="6.3948">
        <ele>808.2</ele>
        <time>2020-05-22T16:08:56Z</time>
      </trkpt>
      <trkpt lat="47.05278" lon="6.39471">
        <ele>807.8</ele>
        <time>2020-05-22T16:08:57Z</time>
      </trkpt>
      <trkpt lat="47.05276" lon="6.39462">
        <ele>807.8</ele>
        <time>2020-05-22T16:08:58Z</time>
      </trkpt>
      <trkpt lat="47.05275" lon="6.39453">
        <ele>807.6</ele>
        <time>2020-05-22T16:08:59Z</time>
      </trkpt>
      <trkpt lat="47.05273" lon="6.39443">
        <ele>807.6</ele>
        <time>2020-05-22T16:09:00Z</time>
      </trkpt>
      <trkpt lat="47.05272" lon="6.39434">
        <ele>807.6</ele>
        <time>2020-05-22T16:09:01Z</time>
      </trkpt>
      <trkpt lat="47.0527" lon="6.39425">
        <ele>807.6</ele>
        <time>2020-05-22T16:09:02Z</time>
      </trkpt>
      <trkpt lat="47.05269" lon="6.39416">
        <ele>807.4</ele>
        <time>2020-05-22T16:09:03Z</time>
      </trkpt>
      <trkpt lat="47.05268" lon="6.39406">
        <ele>807.4</ele>
        <time>2020-05-22T16:09:04Z</time>
      </trkpt>
      <trkpt lat="47.05266" lon="6.39397">
        <ele>807.4</ele>
        <time>2020-05-22T16:09:05Z</time>
      </trkpt>
      <trkpt lat="47.05265" lon="6.39388">
        <ele>807</ele>
        <time>2020-05-22T16:09:06Z</time>
      </trkpt>
      <trkpt lat="47.05263" lon="6.39379">
        <ele>806.8</ele>
        <time>2020-05-22T16:09:07Z</time>
      </trkpt>
      <trkpt lat="47.05262" lon="6.39369">
        <ele>806.8</ele>
        <time>2020-05-22T16:09:08Z</time>
      </trkpt>
      <trkpt lat="47.05261" lon="6.3936">
        <ele>806.6</ele>
        <time>2020-05-22T16:09:09Z</time>
      </trkpt>
      <trkpt lat="47.05259" lon="6.3935">
        <ele>806.6</ele>
        <time>2020-05-22T16:09:10Z</time>
      </trkpt>
      <trkpt lat="47.05258" lon="6.39341">
        <ele>806.2</ele>
        <time>2020-05-22T16:09:11Z</time>
      </trkpt>
      <trkpt lat="47.05256" lon="6.39331">
        <ele>806.2</ele>
        <time>2020-05-22T16:09:12Z</time>
      </trkpt>
      <trkpt lat="47.05255" lon="6.39321">
        <ele>806.2</ele>
        <time>2020-05-22T16:09:13Z</time>
      </trkpt>
      <trkpt lat="47.05253" lon="6.39312">
        <ele>806</ele>
        <time>2020-05-22T16:09:14Z</time>
      </trkpt>
      <trkpt lat="47.05252" lon="6.39303">
        <ele>806</ele>
        <time>2020-05-22T16:09:15Z</time>
      </trkpt>
      <trkpt lat="47.0525" lon="6.39294">
        <ele>805.8</ele>
        <time>2020-05-22T16:09:16Z</time>
      </trkpt>
      <trkpt lat="47.05249" lon="6.39285">
        <ele>805.8</ele>
        <time>2020-05-22T16:09:17Z</time>
      </trkpt>
      <trkpt lat="47.05248" lon="6.39277">
        <ele>805.4</ele>
        <time>2020-05-22T16:09:18Z</time>
      </trkpt>
      <trkpt lat="47.05247" lon="6.39268">
        <ele>805.4</ele>
        <time>2020-05-22T16:09:19Z</time>
      </trkpt>
      <trkpt lat="47.05246" lon="6.39259">
        <ele>805.2</ele>
        <time>2020-05-22T16:09:20Z</time>
      </trkpt>
      <trkpt lat="47.05244" lon="6.39251">
        <ele>805.2</ele>
        <time>2020-05-22T16:09:21Z</time>
      </trkpt>
      <trkpt lat="47.05243" lon="6.39242">
        <ele>805.2</ele>
        <time>2020-05-22T16:09:22Z</time>
      </trkpt>
      <trkpt lat="47.05242" lon="6.39234">
        <ele>805</ele>
        <time>2020-05-22T16:09:23Z</time>
      </trkpt>
      <trkpt lat="47.0524" lon="6.39225">
        <ele>805</ele>
        <time>2020-05-22T16:09:24Z</time>
      </trkpt>
      <trkpt lat="47.05239" lon="6.39216">
        <ele>805</ele>
        <time>2020-05-22T16:09:25Z</time>
      </trkpt>
      <trkpt lat="47.05238" lon="6.39208">
        <ele>805</ele>
        <time>2020-05-22T16:09:26Z</time>
      </trkpt>
      <trkpt lat="47.05237" lon="6.39199">
        <ele>804.8</ele>
        <time>2020-05-22T16:09:27Z</time>
      </trkpt>
      <trkpt lat="47.05236" lon="6.3919">
        <ele>804.8</ele>
        <time>2020-05-22T16:09:28Z</time>
      </trkpt>
      <trkpt lat="47.05235" lon="6.39181">
        <ele>804.8</ele>
        <time>2020-05-22T16:09:29Z</time>
      </trkpt>
      <trkpt lat="47.05234" lon="6.39172">
        <ele>804.8</ele>
        <time>2020-05-22T16:09:30Z</time>
      </trkpt>
      <trkpt lat="47.05233" lon="6.39163">
        <ele>804.4</ele>
        <time>2020-05-22T16:09:31Z</time>
      </trkpt>
      <trkpt lat="47.05233" lon="6.39154">
        <ele>804.4</ele>
        <time>2020-05-22T16:09:32Z</time>
      </trkpt>
      <trkpt lat="47.05233" lon="6.39145">
        <ele>804.4</ele>
        <time>2020-05-22T16:09:33Z</time>
      </trkpt>
      <trkpt lat="47.05233" lon="6.39136">
        <ele>804.4</ele>
        <time>2020-05-22T16:09:34Z</time>
      </trkpt>
      <trkpt lat="47.05233" lon="6.39127">
        <ele>804.4</ele>
        <time>2020-05-22T16:09:35Z</time>
      </trkpt>
      <trkpt lat="47.05233" lon="6.39119">
        <ele>804.4</ele>
        <time>2020-05-22T16:09:36Z</time>
      </trkpt>
      <trkpt lat="47.05234" lon="6.39111">
        <ele>804.4</ele>
        <time>2020-05-22T16:09:37Z</time>
      </trkpt>
      <trkpt lat="47.05235" lon="6.39102">
        <ele>804.2</ele>
        <time>2020-05-22T16:09:38Z</time>
      </trkpt>
      <trkpt lat="47.05235" lon="6.39094">
        <ele>804.2</ele>
        <time>2020-05-22T16:09:39Z</time>
      </trkpt>
      <trkpt lat="47.05235" lon="6.39086">
        <ele>804</ele>
        <time>2020-05-22T16:09:40Z</time>
      </trkpt>
      <trkpt lat="47.05236" lon="6.39078">
        <ele>804</ele>
        <time>2020-05-22T16:09:41Z</time>
      </trkpt>
      <trkpt lat="47.05236" lon="6.3907">
        <ele>804</ele>
        <time>2020-05-22T16:09:42Z</time>
      </trkpt>
      <trkpt lat="47.05237" lon="6.39062">
        <ele>803.6</ele>
        <time>2020-05-22T16:09:43Z</time>
      </trkpt>
      <trkpt lat="47.05237" lon="6.39055">
        <ele>803.6</ele>
        <time>2020-05-22T16:09:44Z</time>
      </trkpt>
      <trkpt lat="47.05238" lon="6.39047">
        <ele>803.4</ele>
        <time>2020-05-22T16:09:45Z</time>
      </trkpt>
      <trkpt lat="47.05238" lon="6.39039">
        <ele>803.4</ele>
        <time>2020-05-22T16:09:46Z</time>
      </trkpt>
      <trkpt lat="47.05239" lon="6.39032">
        <ele>803.4</ele>
        <time>2020-05-22T16:09:47Z</time>
      </trkpt>
      <trkpt lat="47.0524" lon="6.39024">
        <ele>803.4</ele>
        <time>2020-05-22T16:09:48Z</time>
      </trkpt>
      <trkpt lat="47.0524" lon="6.39017">
        <ele>803.4</ele>
        <time>2020-05-22T16:09:49Z</time>
      </trkpt>
      <trkpt lat="47.05241" lon="6.3901">
        <ele>803.4</ele>
        <time>2020-05-22T16:09:50Z</time>
      </trkpt>
      <trkpt lat="47.05241" lon="6.39003">
        <ele>803.4</ele>
        <time>2020-05-22T16:09:51Z</time>
      </trkpt>
      <trkpt lat="47.05242" lon="6.38996">
        <ele>803.4</ele>
        <time>2020-05-22T16:09:52Z</time>
      </trkpt>
      <trkpt lat="47.05243" lon="6.38989">
        <ele>803.4</ele>
        <time>2020-05-22T16:09:53Z</time>
      </trkpt>
      <trkpt lat="47.05243" lon="6.38982">
        <ele>803.2</ele>
        <time>2020-05-22T16:09:54Z</time>
      </trkpt>
      <trkpt lat="47.05244" lon="6.38975">
        <ele>803.2</ele>
        <time>2020-05-22T16:09:55Z</time>
      </trkpt>
      <trkpt lat="47.05245" lon="6.38968">
        <ele>803.2</ele>
        <time>2020-05-22T16:09:56Z</time>
      </trkpt>
      <trkpt lat="47.05245" lon="6.38961">
        <ele>803.2</ele>
        <time>2020-05-22T16:09:57Z</time>
      </trkpt>
      <trkpt lat="47.05245" lon="6.38954">
        <ele>803.2</ele>
        <time>2020-05-22T16:09:58Z</time>
      </trkpt>
      <trkpt lat="47.05246" lon="6.38947">
        <ele>803.2</ele>
        <time>2020-05-22T16:09:59Z</time>
      </trkpt>
      <trkpt lat="47.05247" lon="6.38941">
        <ele>803.2</ele>
        <time>2020-05-22T16:10:00Z</time>
      </trkpt>
      <trkpt lat="47.05247" lon="6.38934">
        <ele>803.2</ele>
        <time>2020-05-22T16:10:01Z</time>
      </trkpt>
      <trkpt lat="47.05248" lon="6.38927">
        <ele>803.2</ele>
        <time>2020-05-22T16:10:02Z</time>
      </trkpt>
      <trkpt lat="47.05248" lon="6.3892">
        <ele>803.2</ele>
        <time>2020-05-22T16:10:03Z</time>
      </trkpt>
      <trkpt lat="47.05249" lon="6.38914">
        <ele>803.2</ele>
        <time>2020-05-22T16:10:04Z</time>
      </trkpt>
      <trkpt lat="47.05249" lon="6.38907">
        <ele>803.2</ele>
        <time>2020-05-22T16:10:05Z</time>
      </trkpt>
      <trkpt lat="47.05249" lon="6.389">
        <ele>803.2</ele>
        <time>2020-05-22T16:10:06Z</time>
      </trkpt>
      <trkpt lat="47.0525" lon="6.38894">
        <ele>803.2</ele>
        <time>2020-05-22T16:10:07Z</time>
      </trkpt>
      <trkpt lat="47.0525" lon="6.38888">
        <ele>803.2</ele>
        <time>2020-05-22T16:10:08Z</time>
      </trkpt>
      <trkpt lat="47.0525" lon="6.38881">
        <ele>803.2</ele>
        <time>2020-05-22T16:10:09Z</time>
      </trkpt>
      <trkpt lat="47.0525" lon="6.38875">
        <ele>803.2</ele>
        <time>2020-05-22T16:10:10Z</time>
      </trkpt>
      <trkpt lat="47.0525" lon="6.38869">
        <ele>803.6</ele>
        <time>2020-05-22T16:10:11Z</time>
      </trkpt>
      <trkpt lat="47.05251" lon="6.38863">
        <ele>803.6</ele>
        <time>2020-05-22T16:10:12Z</time>
      </trkpt>
      <trkpt lat="47.05251" lon="6.38857">
        <ele>803.6</ele>
        <time>2020-05-22T16:10:13Z</time>
      </trkpt>
      <trkpt lat="47.05251" lon="6.3885">
        <ele>803.6</ele>
        <time>2020-05-22T16:10:14Z</time>
      </trkpt>
      <trkpt lat="47.05251" lon="6.38844">
        <ele>803.6</ele>
        <time>2020-05-22T16:10:15Z</time>
      </trkpt>
      <trkpt lat="47.05251" lon="6.38837">
        <ele>803.8</ele>
        <time>2020-05-22T16:10:16Z</time>
      </trkpt>
      <trkpt lat="47.05252" lon="6.38831">
        <ele>803.8</ele>
        <time>2020-05-22T16:10:17Z</time>
      </trkpt>
      <trkpt lat="47.05252" lon="6.38824">
        <ele>803.8</ele>
        <time>2020-05-22T16:10:18Z</time>
      </trkpt>
      <trkpt lat="47.05252" lon="6.38817">
        <ele>803.8</ele>
        <time>2020-05-22T16:10:19Z</time>
      </trkpt>
      <trkpt lat="47.05251" lon="6.3881">
        <ele>803.8</ele>
        <time>2020-05-22T16:10:20Z</time>
      </trkpt>
      <trkpt lat="47.05251" lon="6.38803">
        <ele>803.8</ele>
        <time>2020-05-22T16:10:21Z</time>
      </trkpt>
      <trkpt lat="47.05251" lon="6.38796">
        <ele>803.6</ele>
        <time>2020-05-22T16:10:22Z</time>
      </trkpt>
      <trkpt lat="47.05251" lon="6.38789">
        <ele>803.6</ele>
        <time>2020-05-22T16:10:23Z</time>
      </trkpt>
      <trkpt lat="47.05251" lon="6.38782">
        <ele>803.6</ele>
        <time>2020-05-22T16:10:24Z</time>
      </trkpt>
      <trkpt lat="47.05251" lon="6.38775">
        <ele>803.6</ele>
        <time>2020-05-22T16:10:25Z</time>
      </trkpt>
      <trkpt lat="47.05251" lon="6.38768">
        <ele>803.6</ele>
        <time>2020-05-22T16:10:26Z</time>
      </trkpt>
      <trkpt lat="47.05251" lon="6.38761">
        <ele>803.6</ele>
        <time>2020-05-22T16:10:27Z</time>
      </trkpt>
      <trkpt lat="47.05252" lon="6.38754">
        <ele>803.6</ele>
        <time>2020-05-22T16:10:28Z</time>
      </trkpt>
      <trkpt lat="47.05252" lon="6.38747">
        <ele>803.6</ele>
        <time>2020-05-22T16:10:29Z</time>
      </trkpt>
      <trkpt lat="47.05252" lon="6.38741">
        <ele>803.6</ele>
        <time>2020-05-22T16:10:30Z</time>
      </trkpt>
      <trkpt lat="47.05252" lon="6.38734">
        <ele>803.6</ele>
        <time>2020-05-22T16:10:31Z</time>
      </trkpt>
      <trkpt lat="47.05252" lon="6.38727">
        <ele>803.6</ele>
        <time>2020-05-22T16:10:32Z</time>
      </trkpt>
      <trkpt lat="47.05252" lon="6.38721">
        <ele>803.6</ele>
        <time>2020-05-22T16:10:33Z</time>
      </trkpt>
      <trkpt lat="47.05252" lon="6.38714">
        <ele>803.6</ele>
        <time>2020-05-22T16:10:34Z</time>
      </trkpt>
      <trkpt lat="47.05252" lon="6.38707">
        <ele>803.6</ele>
        <time>2020-05-22T16:10:35Z</time>
      </trkpt>
      <trkpt lat="47.05253" lon="6.38701">
        <ele>803.6</ele>
        <time>2020-05-22T16:10:36Z</time>
      </trkpt>
      <trkpt lat="47.05253" lon="6.38694">
        <ele>803.6</ele>
        <time>2020-05-22T16:10:37Z</time>
      </trkpt>
      <trkpt lat="47.05253" lon="6.38687">
        <ele>803.6</ele>
        <time>2020-05-22T16:10:38Z</time>
      </trkpt>
      <trkpt lat="47.05253" lon="6.3868">
        <ele>803.6</ele>
        <time>2020-05-22T16:10:39Z</time>
      </trkpt>
      <trkpt lat="47.05253" lon="6.38673">
        <ele>803.6</ele>
        <time>2020-05-22T16:10:40Z</time>
      </trkpt>
      <trkpt lat="47.05253" lon="6.38666">
        <ele>803.6</ele>
        <time>2020-05-22T16:10:41Z</time>
      </trkpt>
      <trkpt lat="47.05253" lon="6.38659">
        <ele>803.6</ele>
        <time>2020-05-22T16:10:42Z</time>
      </trkpt>
      <trkpt lat="47.05253" lon="6.38652">
        <ele>803.6</ele>
        <time>2020-05-22T16:10:43Z</time>
      </trkpt>
      <trkpt lat="47.05253" lon="6.38645">
        <ele>803.6</ele>
        <time>2020-05-22T16:10:44Z</time>
      </trkpt>
      <trkpt lat="47.05254" lon="6.38639">
        <ele>803.6</ele>
        <time>2020-05-22T16:10:45Z</time>
      </trkpt>
      <trkpt lat="47.05254" lon="6.38632">
        <ele>803.4</ele>
        <time>2020-05-22T16:10:46Z</time>
      </trkpt>
      <trkpt lat="47.05254" lon="6.38625">
        <ele>803.4</ele>
        <time>2020-05-22T16:10:47Z</time>
      </trkpt>
      <trkpt lat="47.05254" lon="6.38619">
        <ele>803.4</ele>
        <time>2020-05-22T16:10:48Z</time>
      </trkpt>
      <trkpt lat="47.05254" lon="6.38612">
        <ele>803.2</ele>
        <time>2020-05-22T16:10:49Z</time>
      </trkpt>
      <trkpt lat="47.05254" lon="6.38605">
        <ele>803.2</ele>
        <time>2020-05-22T16:10:50Z</time>
      </trkpt>
      <trkpt lat="47.05254" lon="6.38598">
        <ele>803.2</ele>
        <time>2020-05-22T16:10:51Z</time>
      </trkpt>
      <trkpt lat="47.05254" lon="6.38592">
        <ele>803.2</ele>
        <time>2020-05-22T16:10:52Z</time>
      </trkpt>
      <trkpt lat="47.05255" lon="6.38585">
        <ele>803.2</ele>
        <time>2020-05-22T16:10:53Z</time>
      </trkpt>
      <trkpt lat="47.05255" lon="6.38579">
        <ele>803.2</ele>
        <time>2020-05-22T16:10:54Z</time>
      </trkpt>
      <trkpt lat="47.05255" lon="6.38573">
        <ele>803.2</ele>
        <time>2020-05-22T16:10:55Z</time>
      </trkpt>
      <trkpt lat="47.05255" lon="6.38566">
        <ele>803.2</ele>
        <time>2020-05-22T16:10:56Z</time>
      </trkpt>
      <trkpt lat="47.05255" lon="6.3856">
        <ele>803.2</ele>
        <time>2020-05-22T16:10:57Z</time>
      </trkpt>
      <trkpt lat="47.05255" lon="6.38553">
        <ele>803.2</ele>
        <time>2020-05-22T16:10:58Z</time>
      </trkpt>
      <trkpt lat="47.05255" lon="6.38547">
        <ele>803.2</ele>
        <time>2020-05-22T16:10:59Z</time>
      </trkpt>
      <trkpt lat="47.05256" lon="6.38541">
        <ele>803.2</ele>
        <time>2020-05-22T16:11:00Z</time>
      </trkpt>
      <trkpt lat="47.05256" lon="6.38535">
        <ele>803.2</ele>
        <time>2020-05-22T16:11:01Z</time>
      </trkpt>
      <trkpt lat="47.05256" lon="6.38529">
        <ele>803.2</ele>
        <time>2020-05-22T16:11:02Z</time>
      </trkpt>
      <trkpt lat="47.05256" lon="6.38522">
        <ele>803.2</ele>
        <time>2020-05-22T16:11:03Z</time>
      </trkpt>
      <trkpt lat="47.05256" lon="6.38516">
        <ele>803.4</ele>
        <time>2020-05-22T16:11:04Z</time>
      </trkpt>
      <trkpt lat="47.05256" lon="6.3851">
        <ele>803.4</ele>
        <time>2020-05-22T16:11:05Z</time>
      </trkpt>
      <trkpt lat="47.05257" lon="6.38504">
        <ele>803.4</ele>
        <time>2020-05-22T16:11:06Z</time>
      </trkpt>
      <trkpt lat="47.05257" lon="6.38497">
        <ele>803.4</ele>
        <time>2020-05-22T16:11:07Z</time>
      </trkpt>
      <trkpt lat="47.05257" lon="6.38491">
        <ele>803.4</ele>
        <time>2020-05-22T16:11:08Z</time>
      </trkpt>
      <trkpt lat="47.05257" lon="6.38484">
        <ele>803.4</ele>
        <time>2020-05-22T16:11:09Z</time>
      </trkpt>
      <trkpt lat="47.05257" lon="6.38477">
        <ele>803.4</ele>
        <time>2020-05-22T16:11:10Z</time>
      </trkpt>
      <trkpt lat="47.05257" lon="6.3847">
        <ele>803</ele>
        <time>2020-05-22T16:11:11Z</time>
      </trkpt>
      <trkpt lat="47.05257" lon="6.38463">
        <ele>803</ele>
        <time>2020-05-22T16:11:12Z</time>
      </trkpt>
      <trkpt lat="47.05258" lon="6.38456">
        <ele>803</ele>
        <time>2020-05-22T16:11:13Z</time>
      </trkpt>
      <trkpt lat="47.05258" lon="6.38449">
        <ele>802.8</ele>
        <time>2020-05-22T16:11:14Z</time>
      </trkpt>
      <trkpt lat="47.05258" lon="6.38442">
        <ele>802.8</ele>
        <time>2020-05-22T16:11:15Z</time>
      </trkpt>
      <trkpt lat="47.05258" lon="6.38436">
        <ele>802.8</ele>
        <time>2020-05-22T16:11:16Z</time>
      </trkpt>
      <trkpt lat="47.05258" lon="6.38429">
        <ele>802.8</ele>
        <time>2020-05-22T16:11:17Z</time>
      </trkpt>
      <trkpt lat="47.05258" lon="6.38423">
        <ele>802.8</ele>
        <time>2020-05-22T16:11:18Z</time>
      </trkpt>
      <trkpt lat="47.05258" lon="6.38418">
        <ele>802.8</ele>
        <time>2020-05-22T16:11:19Z</time>
      </trkpt>
      <trkpt lat="47.05258" lon="6.38412">
        <ele>802.8</ele>
        <time>2020-05-22T16:11:20Z</time>
      </trkpt>
      <trkpt lat="47.05258" lon="6.38407">
        <ele>802.8</ele>
        <time>2020-05-22T16:11:21Z</time>
      </trkpt>
      <trkpt lat="47.05258" lon="6.38401">
        <ele>802.8</ele>
        <time>2020-05-22T16:11:22Z</time>
      </trkpt>
      <trkpt lat="47.05258" lon="6.38395">
        <ele>802.8</ele>
        <time>2020-05-22T16:11:23Z</time>
      </trkpt>
      <trkpt lat="47.05258" lon="6.3839">
        <ele>802.8</ele>
        <time>2020-05-22T16:11:24Z</time>
      </trkpt>
      <trkpt lat="47.05258" lon="6.38384">
        <ele>802.8</ele>
        <time>2020-05-22T16:11:25Z</time>
      </trkpt>
      <trkpt lat="47.05258" lon="6.38378">
        <ele>802.8</ele>
        <time>2020-05-22T16:11:26Z</time>
      </trkpt>
      <trkpt lat="47.05258" lon="6.38373">
        <ele>802.8</ele>
        <time>2020-05-22T16:11:27Z</time>
      </trkpt>
      <trkpt lat="47.05258" lon="6.38367">
        <ele>802.8</ele>
        <time>2020-05-22T16:11:28Z</time>
      </trkpt>
      <trkpt lat="47.05258" lon="6.38362">
        <ele>803.2</ele>
        <time>2020-05-22T16:11:29Z</time>
      </trkpt>
      <trkpt lat="47.05258" lon="6.38357">
        <ele>803.2</ele>
        <time>2020-05-22T16:11:30Z</time>
      </trkpt>
      <trkpt lat="47.05258" lon="6.38352">
        <ele>803.2</ele>
        <time>2020-05-22T16:11:31Z</time>
      </trkpt>
      <trkpt lat="47.05258" lon="6.38346">
        <ele>803.2</ele>
        <time>2020-05-22T16:11:32Z</time>
      </trkpt>
      <trkpt lat="47.05258" lon="6.38341">
        <ele>803.2</ele>
        <time>2020-05-22T16:11:33Z</time>
      </trkpt>
      <trkpt lat="47.05258" lon="6.38336">
        <ele>803.4</ele>
        <time>2020-05-22T16:11:34Z</time>
      </trkpt>
      <trkpt lat="47.05257" lon="6.38331">
        <ele>803.4</ele>
        <time>2020-05-22T16:11:35Z</time>
      </trkpt>
      <trkpt lat="47.05257" lon="6.38326">
        <ele>803.6</ele>
        <time>2020-05-22T16:11:36Z</time>
      </trkpt>
      <trkpt lat="47.05256" lon="6.38321">
        <ele>803.6</ele>
        <time>2020-05-22T16:11:37Z</time>
      </trkpt>
      <trkpt lat="47.05255" lon="6.38317">
        <ele>804</ele>
        <time>2020-05-22T16:11:38Z</time>
      </trkpt>
      <trkpt lat="47.05254" lon="6.38312">
        <ele>804</ele>
        <time>2020-05-22T16:11:39Z</time>
      </trkpt>
      <trkpt lat="47.05254" lon="6.38308">
        <ele>804</ele>
        <time>2020-05-22T16:11:40Z</time>
      </trkpt>
      <trkpt lat="47.05253" lon="6.38303">
        <ele>804.2</ele>
        <time>2020-05-22T16:11:41Z</time>
      </trkpt>
      <trkpt lat="47.05252" lon="6.38299">
        <ele>804.2</ele>
        <time>2020-05-22T16:11:42Z</time>
      </trkpt>
      <trkpt lat="47.05251" lon="6.38295">
        <ele>804.2</ele>
        <time>2020-05-22T16:11:43Z</time>
      </trkpt>
      <trkpt lat="47.0525" lon="6.3829">
        <ele>804.6</ele>
        <time>2020-05-22T16:11:44Z</time>
      </trkpt>
      <trkpt lat="47.05249" lon="6.38285">
        <ele>804.6</ele>
        <time>2020-05-22T16:11:45Z</time>
      </trkpt>
      <trkpt lat="47.05248" lon="6.3828">
        <ele>804.6</ele>
        <time>2020-05-22T16:11:46Z</time>
      </trkpt>
      <trkpt lat="47.05247" lon="6.38275">
        <ele>804.6</ele>
        <time>2020-05-22T16:11:47Z</time>
      </trkpt>
      <trkpt lat="47.05246" lon="6.3827">
        <ele>804.6</ele>
        <time>2020-05-22T16:11:48Z</time>
      </trkpt>
      <trkpt lat="47.05245" lon="6.38265">
        <ele>804.8</ele>
        <time>2020-05-22T16:11:49Z</time>
      </trkpt>
      <trkpt lat="47.05244" lon="6.3826">
        <ele>804.8</ele>
        <time>2020-05-22T16:11:50Z</time>
      </trkpt>
      <trkpt lat="47.05243" lon="6.38255">
        <ele>804.8</ele>
        <time>2020-05-22T16:11:51Z</time>
      </trkpt>
      <trkpt lat="47.05242" lon="6.38249">
        <ele>804.8</ele>
        <time>2020-05-22T16:11:52Z</time>
      </trkpt>
      <trkpt lat="47.05241" lon="6.38244">
        <ele>805</ele>
        <time>2020-05-22T16:11:53Z</time>
      </trkpt>
      <trkpt lat="47.0524" lon="6.38239">
        <ele>805</ele>
        <time>2020-05-22T16:11:54Z</time>
      </trkpt>
      <trkpt lat="47.05239" lon="6.38234">
        <ele>805</ele>
        <time>2020-05-22T16:11:55Z</time>
      </trkpt>
      <trkpt lat="47.05238" lon="6.38229">
        <ele>805.2</ele>
        <time>2020-05-22T16:11:56Z</time>
      </trkpt>
      <trkpt lat="47.05237" lon="6.38223">
        <ele>805.2</ele>
        <time>2020-05-22T16:11:57Z</time>
      </trkpt>
      <trkpt lat="47.05236" lon="6.38218">
        <ele>805.2</ele>
        <time>2020-05-22T16:11:58Z</time>
      </trkpt>
      <trkpt lat="47.05235" lon="6.38213">
        <ele>805.6</ele>
        <time>2020-05-22T16:11:59Z</time>
      </trkpt>
      <trkpt lat="47.05234" lon="6.38208">
        <ele>805.6</ele>
        <time>2020-05-22T16:12:00Z</time>
      </trkpt>
      <trkpt lat="47.05233" lon="6.38203">
        <ele>805.6</ele>
        <time>2020-05-22T16:12:01Z</time>
      </trkpt>
      <trkpt lat="47.05232" lon="6.38198">
        <ele>805.6</ele>
        <time>2020-05-22T16:12:02Z</time>
      </trkpt>
      <trkpt lat="47.05231" lon="6.38193">
        <ele>805.6</ele>
        <time>2020-05-22T16:12:03Z</time>
      </trkpt>
      <trkpt lat="47.0523" lon="6.38188">
        <ele>805.6</ele>
        <time>2020-05-22T16:12:04Z</time>
      </trkpt>
      <trkpt lat="47.05229" lon="6.38183">
        <ele>805.8</ele>
        <time>2020-05-22T16:12:05Z</time>
      </trkpt>
      <trkpt lat="47.05228" lon="6.38179">
        <ele>805.8</ele>
        <time>2020-05-22T16:12:06Z</time>
      </trkpt>
      <trkpt lat="47.05228" lon="6.38174">
        <ele>805.8</ele>
        <time>2020-05-22T16:12:07Z</time>
      </trkpt>
      <trkpt lat="47.05227" lon="6.38169">
        <ele>805.8</ele>
        <time>2020-05-22T16:12:08Z</time>
      </trkpt>
      <trkpt lat="47.05226" lon="6.38165">
        <ele>805.8</ele>
        <time>2020-05-22T16:12:09Z</time>
      </trkpt>
      <trkpt lat="47.05226" lon="6.3816">
        <ele>805.8</ele>
        <time>2020-05-22T16:12:10Z</time>
      </trkpt>
      <trkpt lat="47.05225" lon="6.38156">
        <ele>805.8</ele>
        <time>2020-05-22T16:12:11Z</time>
      </trkpt>
      <trkpt lat="47.05224" lon="6.38152">
        <ele>805.8</ele>
        <time>2020-05-22T16:12:12Z</time>
      </trkpt>
      <trkpt lat="47.05223" lon="6.38148">
        <ele>805.8</ele>
        <time>2020-05-22T16:12:13Z</time>
      </trkpt>
      <trkpt lat="47.05222" lon="6.38144">
        <ele>805.8</ele>
        <time>2020-05-22T16:12:14Z</time>
      </trkpt>
      <trkpt lat="47.0522" lon="6.3814">
        <ele>805.8</ele>
        <time>2020-05-22T16:12:15Z</time>
      </trkpt>
      <trkpt lat="47.05218" lon="6.38137">
        <ele>805.4</ele>
        <time>2020-05-22T16:12:16Z</time>
      </trkpt>
      <trkpt lat="47.05216" lon="6.38133">
        <ele>805.4</ele>
        <time>2020-05-22T16:12:17Z</time>
      </trkpt>
      <trkpt lat="47.05215" lon="6.38129">
        <ele>805.4</ele>
        <time>2020-05-22T16:12:18Z</time>
      </trkpt>
      <trkpt lat="47.05213" lon="6.38125">
        <ele>805.4</ele>
        <time>2020-05-22T16:12:19Z</time>
      </trkpt>
      <trkpt lat="47.05213" lon="6.3812">
        <ele>805.2</ele>
        <time>2020-05-22T16:12:20Z</time>
      </trkpt>
      <trkpt lat="47.05211" lon="6.38116">
        <ele>805.2</ele>
        <time>2020-05-22T16:12:21Z</time>
      </trkpt>
      <trkpt lat="47.0521" lon="6.38111">
        <ele>805.2</ele>
        <time>2020-05-22T16:12:22Z</time>
      </trkpt>
      <trkpt lat="47.05208" lon="6.38107">
        <ele>805</ele>
        <time>2020-05-22T16:12:23Z</time>
      </trkpt>
      <trkpt lat="47.05207" lon="6.38103">
        <ele>805</ele>
        <time>2020-05-22T16:12:24Z</time>
      </trkpt>
      <trkpt lat="47.05205" lon="6.38098">
        <ele>805</ele>
        <time>2020-05-22T16:12:25Z</time>
      </trkpt>
      <trkpt lat="47.05203" lon="6.38093">
        <ele>805</ele>
        <time>2020-05-22T16:12:26Z</time>
      </trkpt>
      <trkpt lat="47.05202" lon="6.38088">
        <ele>804.8</ele>
        <time>2020-05-22T16:12:27Z</time>
      </trkpt>
      <trkpt lat="47.052" lon="6.38083">
        <ele>804.8</ele>
        <time>2020-05-22T16:12:28Z</time>
      </trkpt>
      <trkpt lat="47.05199" lon="6.38078">
        <ele>804.8</ele>
        <time>2020-05-22T16:12:29Z</time>
      </trkpt>
      <trkpt lat="47.05197" lon="6.38073">
        <ele>804.6</ele>
        <time>2020-05-22T16:12:30Z</time>
      </trkpt>
      <trkpt lat="47.05196" lon="6.38068">
        <ele>804.6</ele>
        <time>2020-05-22T16:12:31Z</time>
      </trkpt>
      <trkpt lat="47.05194" lon="6.38064">
        <ele>804.4</ele>
        <time>2020-05-22T16:12:32Z</time>
      </trkpt>
      <trkpt lat="47.05193" lon="6.38059">
        <ele>804.4</ele>
        <time>2020-05-22T16:12:33Z</time>
      </trkpt>
      <trkpt lat="47.05191" lon="6.38055">
        <ele>804</ele>
        <time>2020-05-22T16:12:34Z</time>
      </trkpt>
      <trkpt lat="47.0519" lon="6.38051">
        <ele>804</ele>
        <time>2020-05-22T16:12:35Z</time>
      </trkpt>
      <trkpt lat="47.05189" lon="6.38047">
        <ele>804</ele>
        <time>2020-05-22T16:12:36Z</time>
      </trkpt>
      <trkpt lat="47.05187" lon="6.38044">
        <ele>803.6</ele>
        <time>2020-05-22T16:12:37Z</time>
      </trkpt>
      <trkpt lat="47.05186" lon="6.38041">
        <ele>803.6</ele>
        <time>2020-05-22T16:12:38Z</time>
      </trkpt>
      <trkpt lat="47.05185" lon="6.38038">
        <ele>803.4</ele>
        <time>2020-05-22T16:12:39Z</time>
      </trkpt>
      <trkpt lat="47.05184" lon="6.38036">
        <ele>803.4</ele>
        <time>2020-05-22T16:12:40Z</time>
      </trkpt>
      <trkpt lat="47.05182" lon="6.38034">
        <ele>803.4</ele>
        <time>2020-05-22T16:12:41Z</time>
      </trkpt>
      <trkpt lat="47.05181" lon="6.38033">
        <ele>803.2</ele>
        <time>2020-05-22T16:12:42Z</time>
      </trkpt>
      <trkpt lat="47.05179" lon="6.38032">
        <ele>803.2</ele>
        <time>2020-05-22T16:12:43Z</time>
      </trkpt>
      <trkpt lat="47.05177" lon="6.38032">
        <ele>803.2</ele>
        <time>2020-05-22T16:12:44Z</time>
      </trkpt>
      <trkpt lat="47.05177" lon="6.38032">
        <ele>802.8</ele>
        <time>2020-05-22T16:12:45Z</time>
      </trkpt>
      <trkpt lat="47.05177" lon="6.38032">
        <ele>802.8</ele>
        <time>2020-05-22T16:12:46Z</time>
      </trkpt>
      <trkpt lat="47.05178" lon="6.38032">
        <ele>802.8</ele>
        <time>2020-05-22T16:12:47Z</time>
      </trkpt>
      <trkpt lat="47.05178" lon="6.38033">
        <ele>802.6</ele>
        <time>2020-05-22T16:16:48Z</time>
      </trkpt>
      <trkpt lat="47.05178" lon="6.38033">
        <ele>802.6</ele>
        <time>2020-05-22T16:16:49Z</time>
      </trkpt>
      <trkpt lat="47.05178" lon="6.38033">
        <ele>802.6</ele>
        <time>2020-05-22T16:16:50Z</time>
      </trkpt>
      <trkpt lat="47.05178" lon="6.38033">
        <ele>803.2</ele>
        <time>2020-05-22T16:53:09Z</time>
      </trkpt>
      <trkpt lat="47.05178" lon="6.38033">
        <ele>803.2</ele>
        <time>2020-05-22T16:53:10Z</time>
      </trkpt>
      <trkpt lat="47.05178" lon="6.38034">
        <ele>803.2</ele>
        <time>2020-05-22T16:53:11Z</time>
      </trkpt>
      <trkpt lat="47.05178" lon="6.38034">
        <ele>803.2</ele>
        <time>2020-05-22T16:53:12Z</time>
      </trkpt>
      <trkpt lat="47.05178" lon="6.38034">
        <ele>803.2</ele>
        <time>2020-05-22T16:53:13Z</time>
      </trkpt>
      <trkpt lat="47.05178" lon="6.38034">
        <ele>803.2</ele>
        <time>2020-05-22T16:53:14Z</time>
      </trkpt>
      <trkpt lat="47.05178" lon="6.38034">
        <ele>803.2</ele>
        <time>2020-05-22T16:53:15Z</time>
      </trkpt>
      <trkpt lat="47.05178" lon="6.38035">
        <ele>803.2</ele>
        <time>2020-05-22T16:53:16Z</time>
      </trkpt>
      <trkpt lat="47.05178" lon="6.38035">
        <ele>803.2</ele>
        <time>2020-05-22T16:53:17Z</time>
      </trkpt>
      <trkpt lat="47.05178" lon="6.38035">
        <ele>803.2</ele>
        <time>2020-05-22T16:53:18Z</time>
      </trkpt>
      <trkpt lat="47.05179" lon="6.38035">
        <ele>803.2</ele>
        <time>2020-05-22T16:53:19Z</time>
      </trkpt>
      <trkpt lat="47.05179" lon="6.38036">
        <ele>803.2</ele>
        <time>2020-05-22T16:53:20Z</time>
      </trkpt>
      <trkpt lat="47.05179" lon="6.38036">
        <ele>803.2</ele>
        <time>2020-05-22T16:53:21Z</time>
      </trkpt>
      <trkpt lat="47.05179" lon="6.38036">
        <ele>803.2</ele>
        <time>2020-05-22T16:53:22Z</time>
      </trkpt>
      <trkpt lat="47.05179" lon="6.38036">
        <ele>803.2</ele>
        <time>2020-05-22T16:53:23Z</time>
      </trkpt>
      <trkpt lat="47.05179" lon="6.38036">
        <ele>803.2</ele>
        <time>2020-05-22T16:53:24Z</time>
      </trkpt>
      <trkpt lat="47.05179" lon="6.38037">
        <ele>803.2</ele>
        <time>2020-05-22T16:53:25Z</time>
      </trkpt>
      <trkpt lat="47.05179" lon="6.38037">
        <ele>803.2</ele>
        <time>2020-05-22T16:53:26Z</time>
      </trkpt>
      <trkpt lat="47.05179" lon="6.38037">
        <ele>803.4</ele>
        <time>2020-05-22T16:53:27Z</time>
      </trkpt>
      <trkpt lat="47.05179" lon="6.38037">
        <ele>803.4</ele>
        <time>2020-05-22T16:53:28Z</time>
      </trkpt>
      <trkpt lat="47.05179" lon="6.38037">
        <ele>803.4</ele>
        <time>2020-05-22T16:53:29Z</time>
      </trkpt>
      <trkpt lat="47.05179" lon="6.38038">
        <ele>803.4</ele>
        <time>2020-05-22T16:53:30Z</time>
      </trkpt>
      <trkpt lat="47.05179" lon="6.38038">
        <ele>803.4</ele>
        <time>2020-05-22T16:53:31Z</time>
      </trkpt>
      <trkpt lat="47.05179" lon="6.38038">
        <ele>803.4</ele>
        <time>2020-05-22T16:53:32Z</time>
      </trkpt>
      <trkpt lat="47.0518" lon="6.38038">
        <ele>803.4</ele>
        <time>2020-05-22T16:53:33Z</time>
      </trkpt>
      <trkpt lat="47.0518" lon="6.38038">
        <ele>803.4</ele>
        <time>2020-05-22T16:53:34Z</time>
      </trkpt>
      <trkpt lat="47.0518" lon="6.38039">
        <ele>803.4</ele>
        <time>2020-05-22T16:53:35Z</time>
      </trkpt>
      <trkpt lat="47.0518" lon="6.38039">
        <ele>803.4</ele>
        <time>2020-05-22T16:53:36Z</time>
      </trkpt>
      <trkpt lat="47.0518" lon="6.38039">
        <ele>803.4</ele>
        <time>2020-05-22T16:53:37Z</time>
      </trkpt>
      <trkpt lat="47.0518" lon="6.38039">
        <ele>803.4</ele>
        <time>2020-05-22T16:53:38Z</time>
      </trkpt>
      <trkpt lat="47.0518" lon="6.3804">
        <ele>803.4</ele>
        <time>2020-05-22T16:53:39Z</time>
      </trkpt>
      <trkpt lat="47.0518" lon="6.3804">
        <ele>803.4</ele>
        <time>2020-05-22T16:53:40Z</time>
      </trkpt>
      <trkpt lat="47.0518" lon="6.3804">
        <ele>803.4</ele>
        <time>2020-05-22T16:53:41Z</time>
      </trkpt>
      <trkpt lat="47.0518" lon="6.3804">
        <ele>803.2</ele>
        <time>2020-05-22T16:53:42Z</time>
      </trkpt>
      <trkpt lat="47.0518" lon="6.3804">
        <ele>803.2</ele>
        <time>2020-05-22T16:53:43Z</time>
      </trkpt>
      <trkpt lat="47.0518" lon="6.38041">
        <ele>803.2</ele>
        <time>2020-05-22T16:53:44Z</time>
      </trkpt>
      <trkpt lat="47.0518" lon="6.38041">
        <ele>803.2</ele>
        <time>2020-05-22T16:53:45Z</time>
      </trkpt>
      <trkpt lat="47.05181" lon="6.38041">
        <ele>803.2</ele>
        <time>2020-05-22T16:53:46Z</time>
      </trkpt>
      <trkpt lat="47.05181" lon="6.38041">
        <ele>803.2</ele>
        <time>2020-05-22T16:53:47Z</time>
      </trkpt>
      <trkpt lat="47.05181" lon="6.38041">
        <ele>803.2</ele>
        <time>2020-05-22T16:53:48Z</time>
      </trkpt>
      <trkpt lat="47.05181" lon="6.38042">
        <ele>803.2</ele>
        <time>2020-05-22T16:53:49Z</time>
      </trkpt>
      <trkpt lat="47.05181" lon="6.38042">
        <ele>803.2</ele>
        <time>2020-05-22T16:53:50Z</time>
      </trkpt>
      <trkpt lat="47.05181" lon="6.38042">
        <ele>803.2</ele>
        <time>2020-05-22T16:53:51Z</time>
      </trkpt>
      <trkpt lat="47.05181" lon="6.38042">
        <ele>803.2</ele>
        <time>2020-05-22T16:53:52Z</time>
      </trkpt>
      <trkpt lat="47.05181" lon="6.38042">
        <ele>803.2</ele>
        <time>2020-05-22T16:53:53Z</time>
      </trkpt>
      <trkpt lat="47.05181" lon="6.38043">
        <ele>803.2</ele>
        <time>2020-05-22T16:53:54Z</time>
      </trkpt>
      <trkpt lat="47.05181" lon="6.38043">
        <ele>803.2</ele>
        <time>2020-05-22T16:53:55Z</time>
      </trkpt>
      <trkpt lat="47.05181" lon="6.38043">
        <ele>803.2</ele>
        <time>2020-05-22T16:53:56Z</time>
      </trkpt>
      <trkpt lat="47.05181" lon="6.38043">
        <ele>803.2</ele>
        <time>2020-05-22T16:53:57Z</time>
      </trkpt>
      <trkpt lat="47.05181" lon="6.38044">
        <ele>803.2</ele>
        <time>2020-05-22T16:53:58Z</time>
      </trkpt>
      <trkpt lat="47.05181" lon="6.38044">
        <ele>803.2</ele>
        <time>2020-05-22T16:53:59Z</time>
      </trkpt>
      <trkpt lat="47.05182" lon="6.38044">
        <ele>803.2</ele>
        <time>2020-05-22T16:54:00Z</time>
      </trkpt>
      <trkpt lat="47.05182" lon="6.38044">
        <ele>803.2</ele>
        <time>2020-05-22T16:54:01Z</time>
      </trkpt>
      <trkpt lat="47.05182" lon="6.38044">
        <ele>803.2</ele>
        <time>2020-05-22T16:54:02Z</time>
      </trkpt>
      <trkpt lat="47.05182" lon="6.38045">
        <ele>803.2</ele>
        <time>2020-05-22T16:54:03Z</time>
      </trkpt>
      <trkpt lat="47.05182" lon="6.38045">
        <ele>803.2</ele>
        <time>2020-05-22T16:54:04Z</time>
      </trkpt>
      <trkpt lat="47.05182" lon="6.38045">
        <ele>803.4</ele>
        <time>2020-05-22T16:54:05Z</time>
      </trkpt>
      <trkpt lat="47.05182" lon="6.38045">
        <ele>803.4</ele>
        <time>2020-05-22T16:54:06Z</time>
      </trkpt>
      <trkpt lat="47.05182" lon="6.38045">
        <ele>803.4</ele>
        <time>2020-05-22T16:54:07Z</time>
      </trkpt>
      <trkpt lat="47.05182" lon="6.38046">
        <ele>803.4</ele>
        <time>2020-05-22T16:54:08Z</time>
      </trkpt>
      <trkpt lat="47.05182" lon="6.38046">
        <ele>803.4</ele>
        <time>2020-05-22T16:54:09Z</time>
      </trkpt>
      <trkpt lat="47.05182" lon="6.38046">
        <ele>803.4</ele>
        <time>2020-05-22T16:54:10Z</time>
      </trkpt>
      <trkpt lat="47.05182" lon="6.38046">
        <ele>803.4</ele>
        <time>2020-05-22T16:54:18Z</time>
      </trkpt>
      <trkpt lat="47.05182" lon="6.38046">
        <ele>803.4</ele>
        <time>2020-05-22T16:54:19Z</time>
      </trkpt>
      <trkpt lat="47.05182" lon="6.38047">
        <ele>803.4</ele>
        <time>2020-05-22T16:54:20Z</time>
      </trkpt>
      <trkpt lat="47.05183" lon="6.38047">
        <ele>803.4</ele>
        <time>2020-05-22T16:54:21Z</time>
      </trkpt>
      <trkpt lat="47.05183" lon="6.38047">
        <ele>803.4</ele>
        <time>2020-05-22T16:54:22Z</time>
      </trkpt>
      <trkpt lat="47.05183" lon="6.38047">
        <ele>803.4</ele>
        <time>2020-05-22T16:54:23Z</time>
      </trkpt>
      <trkpt lat="47.05183" lon="6.38048">
        <ele>803.4</ele>
        <time>2020-05-22T16:54:24Z</time>
      </trkpt>
      <trkpt lat="47.05183" lon="6.38048">
        <ele>803.4</ele>
        <time>2020-05-22T16:54:25Z</time>
      </trkpt>
      <trkpt lat="47.05183" lon="6.38048">
        <ele>803.4</ele>
        <time>2020-05-22T16:54:26Z</time>
      </trkpt>
      <trkpt lat="47.05183" lon="6.38048">
        <ele>803.4</ele>
        <time>2020-05-22T16:54:27Z</time>
      </trkpt>
      <trkpt lat="47.05183" lon="6.38048">
        <ele>803.6</ele>
        <time>2020-05-22T16:54:28Z</time>
      </trkpt>
      <trkpt lat="47.05183" lon="6.38048">
        <ele>803.6</ele>
        <time>2020-05-22T16:54:29Z</time>
      </trkpt>
      <trkpt lat="47.05183" lon="6.38049">
        <ele>803.6</ele>
        <time>2020-05-22T16:54:30Z</time>
      </trkpt>
      <trkpt lat="47.05183" lon="6.38049">
        <ele>803.6</ele>
        <time>2020-05-22T16:54:31Z</time>
      </trkpt>
      <trkpt lat="47.05183" lon="6.38049">
        <ele>803.6</ele>
        <time>2020-05-22T16:54:32Z</time>
      </trkpt>
      <trkpt lat="47.05183" lon="6.38049">
        <ele>803.6</ele>
        <time>2020-05-22T16:54:33Z</time>
      </trkpt>
      <trkpt lat="47.05183" lon="6.38049">
        <ele>803.6</ele>
        <time>2020-05-22T16:54:35Z</time>
      </trkpt>
      <trkpt lat="47.05183" lon="6.38049">
        <ele>803.6</ele>
        <time>2020-05-22T16:54:36Z</time>
      </trkpt>
      <trkpt lat="47.05183" lon="6.38049">
        <ele>803.6</ele>
        <time>2020-05-22T16:54:37Z</time>
      </trkpt>
      <trkpt lat="47.05183" lon="6.38034">
        <ele>804</ele>
        <time>2020-05-22T16:57:09Z</time>
      </trkpt>
      <trkpt lat="47.05182" lon="6.38031">
        <ele>804</ele>
        <time>2020-05-22T16:57:10Z</time>
      </trkpt>
      <trkpt lat="47.05182" lon="6.38028">
        <ele>803.8</ele>
        <time>2020-05-22T16:57:11Z</time>
      </trkpt>
      <trkpt lat="47.05181" lon="6.38024">
        <ele>803.8</ele>
        <time>2020-05-22T16:57:12Z</time>
      </trkpt>
      <trkpt lat="47.0518" lon="6.3802">
        <ele>803.8</ele>
        <time>2020-05-22T16:57:13Z</time>
      </trkpt>
      <trkpt lat="47.05178" lon="6.38016">
        <ele>803.4</ele>
        <time>2020-05-22T16:57:14Z</time>
      </trkpt>
      <trkpt lat="47.05176" lon="6.38011">
        <ele>803.4</ele>
        <time>2020-05-22T16:57:15Z</time>
      </trkpt>
      <trkpt lat="47.05174" lon="6.38006">
        <ele>803.4</ele>
        <time>2020-05-22T16:57:16Z</time>
      </trkpt>
      <trkpt lat="47.05173" lon="6.38">
        <ele>803.2</ele>
        <time>2020-05-22T16:57:17Z</time>
      </trkpt>
      <trkpt lat="47.05171" lon="6.37993">
        <ele>803.2</ele>
        <time>2020-05-22T16:57:18Z</time>
      </trkpt>
      <trkpt lat="47.05169" lon="6.37987">
        <ele>803</ele>
        <time>2020-05-22T16:57:19Z</time>
      </trkpt>
      <trkpt lat="47.05167" lon="6.3798">
        <ele>802.6</ele>
        <time>2020-05-22T16:57:20Z</time>
      </trkpt>
      <trkpt lat="47.05164" lon="6.37972">
        <ele>802.6</ele>
        <time>2020-05-22T16:57:21Z</time>
      </trkpt>
      <trkpt lat="47.05161" lon="6.37965">
        <ele>802.4</ele>
        <time>2020-05-22T16:57:22Z</time>
      </trkpt>
      <trkpt lat="47.05158" lon="6.37957">
        <ele>802.2</ele>
        <time>2020-05-22T16:57:23Z</time>
      </trkpt>
      <trkpt lat="47.05155" lon="6.37949">
        <ele>801.8</ele>
        <time>2020-05-22T16:57:24Z</time>
      </trkpt>
      <trkpt lat="47.05152" lon="6.37941">
        <ele>801.6</ele>
        <time>2020-05-22T16:57:25Z</time>
      </trkpt>
      <trkpt lat="47.05148" lon="6.37932">
        <ele>801.4</ele>
        <time>2020-05-22T16:57:26Z</time>
      </trkpt>
      <trkpt lat="47.05145" lon="6.37924">
        <ele>801</ele>
        <time>2020-05-22T16:57:27Z</time>
      </trkpt>
      <trkpt lat="47.05142" lon="6.37915">
        <ele>800.8</ele>
        <time>2020-05-22T16:57:28Z</time>
      </trkpt>
      <trkpt lat="47.05139" lon="6.37906">
        <ele>800.4</ele>
        <time>2020-05-22T16:57:29Z</time>
      </trkpt>
      <trkpt lat="47.05136" lon="6.37896">
        <ele>800</ele>
        <time>2020-05-22T16:57:30Z</time>
      </trkpt>
      <trkpt lat="47.05133" lon="6.37886">
        <ele>799.6</ele>
        <time>2020-05-22T16:57:31Z</time>
      </trkpt>
      <trkpt lat="47.0513" lon="6.37876">
        <ele>799.4</ele>
        <time>2020-05-22T16:57:32Z</time>
      </trkpt>
      <trkpt lat="47.05127" lon="6.37866">
        <ele>799</ele>
        <time>2020-05-22T16:57:33Z</time>
      </trkpt>
      <trkpt lat="47.05125" lon="6.37855">
        <ele>798.6</ele>
        <time>2020-05-22T16:57:34Z</time>
      </trkpt>
      <trkpt lat="47.05122" lon="6.37845">
        <ele>798.2</ele>
        <time>2020-05-22T16:57:35Z</time>
      </trkpt>
      <trkpt lat="47.05119" lon="6.37835">
        <ele>797.8</ele>
        <time>2020-05-22T16:57:36Z</time>
      </trkpt>
      <trkpt lat="47.05116" lon="6.37824">
        <ele>797.6</ele>
        <time>2020-05-22T16:57:37Z</time>
      </trkpt>
      <trkpt lat="47.05112" lon="6.37813">
        <ele>797.2</ele>
        <time>2020-05-22T16:57:38Z</time>
      </trkpt>
      <trkpt lat="47.05109" lon="6.37802">
        <ele>796.8</ele>
        <time>2020-05-22T16:57:39Z</time>
      </trkpt>
      <trkpt lat="47.05106" lon="6.37792">
        <ele>796.6</ele>
        <time>2020-05-22T16:57:40Z</time>
      </trkpt>
      <trkpt lat="47.05103" lon="6.37781">
        <ele>796.2</ele>
        <time>2020-05-22T16:57:41Z</time>
      </trkpt>
      <trkpt lat="47.05099" lon="6.3777">
        <ele>795.8</ele>
        <time>2020-05-22T16:57:42Z</time>
      </trkpt>
      <trkpt lat="47.05096" lon="6.3776">
        <ele>795.6</ele>
        <time>2020-05-22T16:57:43Z</time>
      </trkpt>
      <trkpt lat="47.05092" lon="6.3775">
        <ele>795.4</ele>
        <time>2020-05-22T16:57:44Z</time>
      </trkpt>
      <trkpt lat="47.05089" lon="6.3774">
        <ele>795.4</ele>
        <time>2020-05-22T16:57:45Z</time>
      </trkpt>
      <trkpt lat="47.05086" lon="6.3773">
        <ele>795.4</ele>
        <time>2020-05-22T16:57:46Z</time>
      </trkpt>
      <trkpt lat="47.05083" lon="6.37721">
        <ele>795</ele>
        <time>2020-05-22T16:57:47Z</time>
      </trkpt>
      <trkpt lat="47.0508" lon="6.37712">
        <ele>795</ele>
        <time>2020-05-22T16:57:48Z</time>
      </trkpt>
      <trkpt lat="47.05077" lon="6.37703">
        <ele>795</ele>
        <time>2020-05-22T16:57:49Z</time>
      </trkpt>
      <trkpt lat="47.05074" lon="6.37694">
        <ele>794.6</ele>
        <time>2020-05-22T16:57:50Z</time>
      </trkpt>
      <trkpt lat="47.05071" lon="6.37686">
        <ele>794.6</ele>
        <time>2020-05-22T16:57:51Z</time>
      </trkpt>
      <trkpt lat="47.05068" lon="6.37678">
        <ele>794.6</ele>
        <time>2020-05-22T16:57:52Z</time>
      </trkpt>
      <trkpt lat="47.05065" lon="6.3767">
        <ele>794.6</ele>
        <time>2020-05-22T16:57:53Z</time>
      </trkpt>
      <trkpt lat="47.05063" lon="6.37662">
        <ele>794.2</ele>
        <time>2020-05-22T16:57:54Z</time>
      </trkpt>
      <trkpt lat="47.0506" lon="6.37654">
        <ele>794.2</ele>
        <time>2020-05-22T16:57:55Z</time>
      </trkpt>
      <trkpt lat="47.05058" lon="6.37646">
        <ele>794.2</ele>
        <time>2020-05-22T16:57:56Z</time>
      </trkpt>
      <trkpt lat="47.05055" lon="6.37638">
        <ele>794.2</ele>
        <time>2020-05-22T16:57:57Z</time>
      </trkpt>
      <trkpt lat="47.05052" lon="6.37631">
        <ele>794.2</ele>
        <time>2020-05-22T16:57:58Z</time>
      </trkpt>
      <trkpt lat="47.0505" lon="6.37623">
        <ele>794.2</ele>
        <time>2020-05-22T16:57:59Z</time>
      </trkpt>
      <trkpt lat="47.05047" lon="6.37615">
        <ele>794.2</ele>
        <time>2020-05-22T16:58:00Z</time>
      </trkpt>
      <trkpt lat="47.05045" lon="6.37607">
        <ele>794</ele>
        <time>2020-05-22T16:58:01Z</time>
      </trkpt>
      <trkpt lat="47.05042" lon="6.376">
        <ele>794</ele>
        <time>2020-05-22T16:58:02Z</time>
      </trkpt>
      <trkpt lat="47.05039" lon="6.37592">
        <ele>793.8</ele>
        <time>2020-05-22T16:58:03Z</time>
      </trkpt>
      <trkpt lat="47.05036" lon="6.37585">
        <ele>793.8</ele>
        <time>2020-05-22T16:58:04Z</time>
      </trkpt>
      <trkpt lat="47.05034" lon="6.37577">
        <ele>793.8</ele>
        <time>2020-05-22T16:58:05Z</time>
      </trkpt>
      <trkpt lat="47.05031" lon="6.37569">
        <ele>793.6</ele>
        <time>2020-05-22T16:58:06Z</time>
      </trkpt>
      <trkpt lat="47.05028" lon="6.37562">
        <ele>793.6</ele>
        <time>2020-05-22T16:58:07Z</time>
      </trkpt>
      <trkpt lat="47.05026" lon="6.37554">
        <ele>793.6</ele>
        <time>2020-05-22T16:58:08Z</time>
      </trkpt>
      <trkpt lat="47.05023" lon="6.37547">
        <ele>793.6</ele>
        <time>2020-05-22T16:58:09Z</time>
      </trkpt>
      <trkpt lat="47.0502" lon="6.37539">
        <ele>793.6</ele>
        <time>2020-05-22T16:58:10Z</time>
      </trkpt>
      <trkpt lat="47.05017" lon="6.37532">
        <ele>793.6</ele>
        <time>2020-05-22T16:58:11Z</time>
      </trkpt>
      <trkpt lat="47.05014" lon="6.37525">
        <ele>793.6</ele>
        <time>2020-05-22T16:58:12Z</time>
      </trkpt>
      <trkpt lat="47.05012" lon="6.37517">
        <ele>793.6</ele>
        <time>2020-05-22T16:58:13Z</time>
      </trkpt>
      <trkpt lat="47.05009" lon="6.3751">
        <ele>793.4</ele>
        <time>2020-05-22T16:58:14Z</time>
      </trkpt>
      <trkpt lat="47.05006" lon="6.37503">
        <ele>793.4</ele>
        <time>2020-05-22T16:58:15Z</time>
      </trkpt>
      <trkpt lat="47.05003" lon="6.37495">
        <ele>793.4</ele>
        <time>2020-05-22T16:58:16Z</time>
      </trkpt>
      <trkpt lat="47.05001" lon="6.37488">
        <ele>793.4</ele>
        <time>2020-05-22T16:58:17Z</time>
      </trkpt>
      <trkpt lat="47.04998" lon="6.37481">
        <ele>793.4</ele>
        <time>2020-05-22T16:58:18Z</time>
      </trkpt>
      <trkpt lat="47.04996" lon="6.37473">
        <ele>793</ele>
        <time>2020-05-22T16:58:19Z</time>
      </trkpt>
      <trkpt lat="47.04994" lon="6.37466">
        <ele>793</ele>
        <time>2020-05-22T16:58:20Z</time>
      </trkpt>
      <trkpt lat="47.04991" lon="6.37458">
        <ele>793</ele>
        <time>2020-05-22T16:58:21Z</time>
      </trkpt>
      <trkpt lat="47.04988" lon="6.37451">
        <ele>793</ele>
        <time>2020-05-22T16:58:22Z</time>
      </trkpt>
      <trkpt lat="47.04985" lon="6.37443">
        <ele>793</ele>
        <time>2020-05-22T16:58:23Z</time>
      </trkpt>
      <trkpt lat="47.04983" lon="6.37436">
        <ele>793</ele>
        <time>2020-05-22T16:58:24Z</time>
      </trkpt>
      <trkpt lat="47.0498" lon="6.37428">
        <ele>792.8</ele>
        <time>2020-05-22T16:58:25Z</time>
      </trkpt>
      <trkpt lat="47.04977" lon="6.37421">
        <ele>792.8</ele>
        <time>2020-05-22T16:58:26Z</time>
      </trkpt>
      <trkpt lat="47.04975" lon="6.37413">
        <ele>792.6</ele>
        <time>2020-05-22T16:58:27Z</time>
      </trkpt>
      <trkpt lat="47.04972" lon="6.37406">
        <ele>792.6</ele>
        <time>2020-05-22T16:58:28Z</time>
      </trkpt>
      <trkpt lat="47.0497" lon="6.37398">
        <ele>792.6</ele>
        <time>2020-05-22T16:58:29Z</time>
      </trkpt>
      <trkpt lat="47.04967" lon="6.3739">
        <ele>792.6</ele>
        <time>2020-05-22T16:58:30Z</time>
      </trkpt>
      <trkpt lat="47.04965" lon="6.37383">
        <ele>792.6</ele>
        <time>2020-05-22T16:58:31Z</time>
      </trkpt>
      <trkpt lat="47.04962" lon="6.37375">
        <ele>792.4</ele>
        <time>2020-05-22T16:58:32Z</time>
      </trkpt>
      <trkpt lat="47.04959" lon="6.37368">
        <ele>792.4</ele>
        <time>2020-05-22T16:58:33Z</time>
      </trkpt>
      <trkpt lat="47.04957" lon="6.3736">
        <ele>792.4</ele>
        <time>2020-05-22T16:58:34Z</time>
      </trkpt>
      <trkpt lat="47.04954" lon="6.37353">
        <ele>792.4</ele>
        <time>2020-05-22T16:58:35Z</time>
      </trkpt>
      <trkpt lat="47.04951" lon="6.37345">
        <ele>792.4</ele>
        <time>2020-05-22T16:58:36Z</time>
      </trkpt>
      <trkpt lat="47.04948" lon="6.37337">
        <ele>792.4</ele>
        <time>2020-05-22T16:58:37Z</time>
      </trkpt>
      <trkpt lat="47.04946" lon="6.3733">
        <ele>792</ele>
        <time>2020-05-22T16:58:38Z</time>
      </trkpt>
      <trkpt lat="47.04943" lon="6.37322">
        <ele>792</ele>
        <time>2020-05-22T16:58:39Z</time>
      </trkpt>
      <trkpt lat="47.04941" lon="6.37315">
        <ele>792</ele>
        <time>2020-05-22T16:58:40Z</time>
      </trkpt>
      <trkpt lat="47.04938" lon="6.37307">
        <ele>792</ele>
        <time>2020-05-22T16:58:41Z</time>
      </trkpt>
      <trkpt lat="47.04936" lon="6.373">
        <ele>792</ele>
        <time>2020-05-22T16:58:42Z</time>
      </trkpt>
      <trkpt lat="47.04934" lon="6.37293">
        <ele>791.8</ele>
        <time>2020-05-22T16:58:43Z</time>
      </trkpt>
      <trkpt lat="47.04931" lon="6.37286">
        <ele>791.8</ele>
        <time>2020-05-22T16:58:44Z</time>
      </trkpt>
      <trkpt lat="47.04929" lon="6.3728">
        <ele>791.8</ele>
        <time>2020-05-22T16:58:45Z</time>
      </trkpt>
      <trkpt lat="47.04927" lon="6.37273">
        <ele>791.8</ele>
        <time>2020-05-22T16:58:46Z</time>
      </trkpt>
      <trkpt lat="47.04925" lon="6.37267">
        <ele>791.8</ele>
        <time>2020-05-22T16:58:47Z</time>
      </trkpt>
      <trkpt lat="47.04923" lon="6.37261">
        <ele>791.8</ele>
        <time>2020-05-22T16:58:48Z</time>
      </trkpt>
      <trkpt lat="47.04921" lon="6.37255">
        <ele>791.8</ele>
        <time>2020-05-22T16:58:49Z</time>
      </trkpt>
      <trkpt lat="47.04919" lon="6.3725">
        <ele>792.2</ele>
        <time>2020-05-22T16:58:50Z</time>
      </trkpt>
      <trkpt lat="47.04917" lon="6.37244">
        <ele>792.2</ele>
        <time>2020-05-22T16:58:51Z</time>
      </trkpt>
      <trkpt lat="47.04914" lon="6.37239">
        <ele>792.2</ele>
        <time>2020-05-22T16:58:52Z</time>
      </trkpt>
      <trkpt lat="47.04912" lon="6.37233">
        <ele>792.2</ele>
        <time>2020-05-22T16:58:53Z</time>
      </trkpt>
      <trkpt lat="47.04911" lon="6.37227">
        <ele>792.4</ele>
        <time>2020-05-22T16:58:54Z</time>
      </trkpt>
      <trkpt lat="47.04909" lon="6.37222">
        <ele>792.4</ele>
        <time>2020-05-22T16:58:55Z</time>
      </trkpt>
      <trkpt lat="47.04907" lon="6.37216">
        <ele>792.4</ele>
        <time>2020-05-22T16:58:56Z</time>
      </trkpt>
      <trkpt lat="47.04905" lon="6.37211">
        <ele>792.4</ele>
        <time>2020-05-22T16:58:57Z</time>
      </trkpt>
      <trkpt lat="47.04903" lon="6.37206">
        <ele>792.4</ele>
        <time>2020-05-22T16:58:58Z</time>
      </trkpt>
      <trkpt lat="47.04901" lon="6.37201">
        <ele>792.4</ele>
        <time>2020-05-22T16:58:59Z</time>
      </trkpt>
      <trkpt lat="47.04899" lon="6.37196">
        <ele>792.4</ele>
        <time>2020-05-22T16:59:00Z</time>
      </trkpt>
      <trkpt lat="47.04898" lon="6.37191">
        <ele>792.6</ele>
        <time>2020-05-22T16:59:01Z</time>
      </trkpt>
      <trkpt lat="47.04896" lon="6.37186">
        <ele>792.6</ele>
        <time>2020-05-22T16:59:02Z</time>
      </trkpt>
      <trkpt lat="47.04894" lon="6.37182">
        <ele>792.8</ele>
        <time>2020-05-22T16:59:03Z</time>
      </trkpt>
      <trkpt lat="47.04893" lon="6.37178">
        <ele>792.8</ele>
        <time>2020-05-22T16:59:04Z</time>
      </trkpt>
      <trkpt lat="47.04891" lon="6.37174">
        <ele>793.2</ele>
        <time>2020-05-22T16:59:05Z</time>
      </trkpt>
      <trkpt lat="47.04889" lon="6.3717">
        <ele>793.4</ele>
        <time>2020-05-22T16:59:06Z</time>
      </trkpt>
      <trkpt lat="47.04888" lon="6.37166">
        <ele>793.4</ele>
        <time>2020-05-22T16:59:07Z</time>
      </trkpt>
      <trkpt lat="47.04886" lon="6.37162">
        <ele>793.4</ele>
        <time>2020-05-22T16:59:08Z</time>
      </trkpt>
      <trkpt lat="47.04884" lon="6.37159">
        <ele>793.8</ele>
        <time>2020-05-22T16:59:09Z</time>
      </trkpt>
      <trkpt lat="47.04883" lon="6.37156">
        <ele>793.8</ele>
        <time>2020-05-22T16:59:10Z</time>
      </trkpt>
      <trkpt lat="47.04882" lon="6.37153">
        <ele>794</ele>
        <time>2020-05-22T16:59:11Z</time>
      </trkpt>
      <trkpt lat="47.04881" lon="6.3715">
        <ele>794.2</ele>
        <time>2020-05-22T16:59:12Z</time>
      </trkpt>
      <trkpt lat="47.04879" lon="6.37147">
        <ele>794.2</ele>
        <time>2020-05-22T16:59:13Z</time>
      </trkpt>
      <trkpt lat="47.04878" lon="6.37144">
        <ele>794.2</ele>
        <time>2020-05-22T16:59:14Z</time>
      </trkpt>
      <trkpt lat="47.04877" lon="6.37141">
        <ele>794.2</ele>
        <time>2020-05-22T16:59:15Z</time>
      </trkpt>
      <trkpt lat="47.04876" lon="6.37138">
        <ele>794.2</ele>
        <time>2020-05-22T16:59:16Z</time>
      </trkpt>
      <trkpt lat="47.04874" lon="6.37136">
        <ele>794.2</ele>
        <time>2020-05-22T16:59:17Z</time>
      </trkpt>
      <trkpt lat="47.04873" lon="6.37133">
        <ele>794.4</ele>
        <time>2020-05-22T16:59:18Z</time>
      </trkpt>
      <trkpt lat="47.04872" lon="6.3713">
        <ele>794.4</ele>
        <time>2020-05-22T16:59:19Z</time>
      </trkpt>
      <trkpt lat="47.04871" lon="6.37127">
        <ele>794.4</ele>
        <time>2020-05-22T16:59:20Z</time>
      </trkpt>
      <trkpt lat="47.0487" lon="6.37125">
        <ele>794.4</ele>
        <time>2020-05-22T16:59:21Z</time>
      </trkpt>
      <trkpt lat="47.04869" lon="6.37122">
        <ele>794.8</ele>
        <time>2020-05-22T16:59:22Z</time>
      </trkpt>
      <trkpt lat="47.04868" lon="6.37119">
        <ele>794.8</ele>
        <time>2020-05-22T16:59:23Z</time>
      </trkpt>
      <trkpt lat="47.04868" lon="6.37119">
        <ele>795</ele>
        <time>2020-05-22T16:59:24Z</time>
      </trkpt>
      <trkpt lat="47.04865" lon="6.37113">
        <ele>795</ele>
        <time>2020-05-22T16:59:25Z</time>
      </trkpt>
      <trkpt lat="47.04864" lon="6.3711">
        <ele>795.2</ele>
        <time>2020-05-22T16:59:26Z</time>
      </trkpt>
      <trkpt lat="47.04863" lon="6.37107">
        <ele>795.2</ele>
        <time>2020-05-22T16:59:27Z</time>
      </trkpt>
      <trkpt lat="47.04861" lon="6.37104">
        <ele>795.4</ele>
        <time>2020-05-22T16:59:28Z</time>
      </trkpt>
      <trkpt lat="47.0486" lon="6.37101">
        <ele>795.4</ele>
        <time>2020-05-22T16:59:29Z</time>
      </trkpt>
      <trkpt lat="47.04859" lon="6.37099">
        <ele>795.8</ele>
        <time>2020-05-22T16:59:30Z</time>
      </trkpt>
      <trkpt lat="47.04857" lon="6.37096">
        <ele>795.8</ele>
        <time>2020-05-22T16:59:31Z</time>
      </trkpt>
      <trkpt lat="47.04856" lon="6.37093">
        <ele>796</ele>
        <time>2020-05-22T16:59:32Z</time>
      </trkpt>
      <trkpt lat="47.04855" lon="6.3709">
        <ele>796</ele>
        <time>2020-05-22T16:59:33Z</time>
      </trkpt>
      <trkpt lat="47.04854" lon="6.37087">
        <ele>796.4</ele>
        <time>2020-05-22T16:59:34Z</time>
      </trkpt>
      <trkpt lat="47.04853" lon="6.37085">
        <ele>796.4</ele>
        <time>2020-05-22T16:59:35Z</time>
      </trkpt>
      <trkpt lat="47.04852" lon="6.37082">
        <ele>796.6</ele>
        <time>2020-05-22T16:59:36Z</time>
      </trkpt>
      <trkpt lat="47.04851" lon="6.37079">
        <ele>796.6</ele>
        <time>2020-05-22T16:59:37Z</time>
      </trkpt>
      <trkpt lat="47.0485" lon="6.37077">
        <ele>797</ele>
        <time>2020-05-22T16:59:38Z</time>
      </trkpt>
      <trkpt lat="47.04848" lon="6.37074">
        <ele>797</ele>
        <time>2020-05-22T16:59:39Z</time>
      </trkpt>
      <trkpt lat="47.04847" lon="6.37072">
        <ele>797</ele>
        <time>2020-05-22T16:59:40Z</time>
      </trkpt>
      <trkpt lat="47.04846" lon="6.37069">
        <ele>797.2</ele>
        <time>2020-05-22T16:59:41Z</time>
      </trkpt>
      <trkpt lat="47.04845" lon="6.37067">
        <ele>797.2</ele>
        <time>2020-05-22T16:59:42Z</time>
      </trkpt>
      <trkpt lat="47.04844" lon="6.37064">
        <ele>797.2</ele>
        <time>2020-05-22T16:59:43Z</time>
      </trkpt>
      <trkpt lat="47.04843" lon="6.37061">
        <ele>797.6</ele>
        <time>2020-05-22T16:59:44Z</time>
      </trkpt>
      <trkpt lat="47.04842" lon="6.37059">
        <ele>797.6</ele>
        <time>2020-05-22T16:59:45Z</time>
      </trkpt>
      <trkpt lat="47.04841" lon="6.37056">
        <ele>797.8</ele>
        <time>2020-05-22T16:59:46Z</time>
      </trkpt>
      <trkpt lat="47.04839" lon="6.37053">
        <ele>797.8</ele>
        <time>2020-05-22T16:59:47Z</time>
      </trkpt>
      <trkpt lat="47.04838" lon="6.3705">
        <ele>798</ele>
        <time>2020-05-22T16:59:48Z</time>
      </trkpt>
      <trkpt lat="47.04837" lon="6.37048">
        <ele>798</ele>
        <time>2020-05-22T16:59:49Z</time>
      </trkpt>
      <trkpt lat="47.04836" lon="6.37045">
        <ele>798.2</ele>
        <time>2020-05-22T16:59:50Z</time>
      </trkpt>
      <trkpt lat="47.04835" lon="6.37042">
        <ele>798.2</ele>
        <time>2020-05-22T16:59:51Z</time>
      </trkpt>
      <trkpt lat="47.04834" lon="6.3704">
        <ele>798.2</ele>
        <time>2020-05-22T16:59:52Z</time>
      </trkpt>
      <trkpt lat="47.04833" lon="6.37037">
        <ele>798.6</ele>
        <time>2020-05-22T16:59:53Z</time>
      </trkpt>
      <trkpt lat="47.04831" lon="6.37034">
        <ele>798.6</ele>
        <time>2020-05-22T16:59:54Z</time>
      </trkpt>
      <trkpt lat="47.0483" lon="6.37031">
        <ele>798.8</ele>
        <time>2020-05-22T16:59:55Z</time>
      </trkpt>
      <trkpt lat="47.04829" lon="6.37029">
        <ele>798.8</ele>
        <time>2020-05-22T16:59:56Z</time>
      </trkpt>
      <trkpt lat="47.04828" lon="6.37026">
        <ele>798.8</ele>
        <time>2020-05-22T16:59:57Z</time>
      </trkpt>
      <trkpt lat="47.04827" lon="6.37023">
        <ele>799</ele>
        <time>2020-05-22T16:59:58Z</time>
      </trkpt>
      <trkpt lat="47.04826" lon="6.37021">
        <ele>799</ele>
        <time>2020-05-22T16:59:59Z</time>
      </trkpt>
      <trkpt lat="47.04825" lon="6.37018">
        <ele>799.2</ele>
        <time>2020-05-22T17:00:00Z</time>
      </trkpt>
      <trkpt lat="47.04824" lon="6.37015">
        <ele>799.2</ele>
        <time>2020-05-22T17:00:01Z</time>
      </trkpt>
      <trkpt lat="47.04823" lon="6.37013">
        <ele>799.4</ele>
        <time>2020-05-22T17:00:02Z</time>
      </trkpt>
      <trkpt lat="47.04822" lon="6.3701">
        <ele>799.8</ele>
        <time>2020-05-22T17:00:03Z</time>
      </trkpt>
      <trkpt lat="47.04822" lon="6.3701">
        <ele>799.8</ele>
        <time>2020-05-22T17:00:04Z</time>
      </trkpt>
      <trkpt lat="47.0482" lon="6.37004">
        <ele>799.8</ele>
        <time>2020-05-22T17:00:05Z</time>
      </trkpt>
      <trkpt lat="47.04819" lon="6.37002">
        <ele>800</ele>
        <time>2020-05-22T17:00:06Z</time>
      </trkpt>
      <trkpt lat="47.04818" lon="6.36999">
        <ele>800</ele>
        <time>2020-05-22T17:00:07Z</time>
      </trkpt>
      <trkpt lat="47.04817" lon="6.36996">
        <ele>800.4</ele>
        <time>2020-05-22T17:00:08Z</time>
      </trkpt>
      <trkpt lat="47.04816" lon="6.36994">
        <ele>800.4</ele>
        <time>2020-05-22T17:00:09Z</time>
      </trkpt>
      <trkpt lat="47.04815" lon="6.36991">
        <ele>800.6</ele>
        <time>2020-05-22T17:00:10Z</time>
      </trkpt>
      <trkpt lat="47.04814" lon="6.36988">
        <ele>800.6</ele>
        <time>2020-05-22T17:00:11Z</time>
      </trkpt>
      <trkpt lat="47.04812" lon="6.36986">
        <ele>800.8</ele>
        <time>2020-05-22T17:00:12Z</time>
      </trkpt>
      <trkpt lat="47.04811" lon="6.36983">
        <ele>800.8</ele>
        <time>2020-05-22T17:00:13Z</time>
      </trkpt>
      <trkpt lat="47.0481" lon="6.3698">
        <ele>801</ele>
        <time>2020-05-22T17:00:14Z</time>
      </trkpt>
      <trkpt lat="47.04809" lon="6.36976">
        <ele>801</ele>
        <time>2020-05-22T17:00:15Z</time>
      </trkpt>
      <trkpt lat="47.04808" lon="6.36973">
        <ele>801.2</ele>
        <time>2020-05-22T17:00:16Z</time>
      </trkpt>
      <trkpt lat="47.04807" lon="6.3697">
        <ele>801.2</ele>
        <time>2020-05-22T17:00:17Z</time>
      </trkpt>
      <trkpt lat="47.04806" lon="6.36967">
        <ele>801.2</ele>
        <time>2020-05-22T17:00:18Z</time>
      </trkpt>
      <trkpt lat="47.04806" lon="6.36964">
        <ele>801.2</ele>
        <time>2020-05-22T17:00:19Z</time>
      </trkpt>
      <trkpt lat="47.04805" lon="6.36961">
        <ele>801.6</ele>
        <time>2020-05-22T17:00:20Z</time>
      </trkpt>
      <trkpt lat="47.04804" lon="6.36958">
        <ele>801.6</ele>
        <time>2020-05-22T17:00:21Z</time>
      </trkpt>
      <trkpt lat="47.04803" lon="6.36955">
        <ele>801.8</ele>
        <time>2020-05-22T17:00:22Z</time>
      </trkpt>
      <trkpt lat="47.04802" lon="6.36952">
        <ele>801.8</ele>
        <time>2020-05-22T17:00:23Z</time>
      </trkpt>
      <trkpt lat="47.04801" lon="6.36948">
        <ele>801.8</ele>
        <time>2020-05-22T17:00:24Z</time>
      </trkpt>
      <trkpt lat="47.048" lon="6.36945">
        <ele>802</ele>
        <time>2020-05-22T17:00:25Z</time>
      </trkpt>
      <trkpt lat="47.048" lon="6.36942">
        <ele>802</ele>
        <time>2020-05-22T17:00:26Z</time>
      </trkpt>
      <trkpt lat="47.04799" lon="6.36939">
        <ele>802</ele>
        <time>2020-05-22T17:00:27Z</time>
      </trkpt>
      <trkpt lat="47.04798" lon="6.36936">
        <ele>802</ele>
        <time>2020-05-22T17:00:28Z</time>
      </trkpt>
      <trkpt lat="47.04797" lon="6.36933">
        <ele>802.2</ele>
        <time>2020-05-22T17:00:29Z</time>
      </trkpt>
      <trkpt lat="47.04797" lon="6.36929">
        <ele>802.2</ele>
        <time>2020-05-22T17:00:30Z</time>
      </trkpt>
      <trkpt lat="47.04796" lon="6.36926">
        <ele>802.2</ele>
        <time>2020-05-22T17:00:31Z</time>
      </trkpt>
      <trkpt lat="47.04795" lon="6.36923">
        <ele>802.4</ele>
        <time>2020-05-22T17:00:32Z</time>
      </trkpt>
      <trkpt lat="47.04794" lon="6.36919">
        <ele>802.4</ele>
        <time>2020-05-22T17:00:33Z</time>
      </trkpt>
      <trkpt lat="47.04794" lon="6.36916">
        <ele>802.8</ele>
        <time>2020-05-22T17:00:34Z</time>
      </trkpt>
      <trkpt lat="47.04793" lon="6.36913">
        <ele>802.8</ele>
        <time>2020-05-22T17:00:35Z</time>
      </trkpt>
      <trkpt lat="47.04792" lon="6.3691">
        <ele>802.8</ele>
        <time>2020-05-22T17:00:36Z</time>
      </trkpt>
      <trkpt lat="47.04792" lon="6.36906">
        <ele>802.8</ele>
        <time>2020-05-22T17:00:37Z</time>
      </trkpt>
      <trkpt lat="47.04791" lon="6.36903">
        <ele>802.8</ele>
        <time>2020-05-22T17:00:38Z</time>
      </trkpt>
      <trkpt lat="47.0479" lon="6.369">
        <ele>803</ele>
        <time>2020-05-22T17:00:39Z</time>
      </trkpt>
      <trkpt lat="47.0479" lon="6.36896">
        <ele>803</ele>
        <time>2020-05-22T17:00:40Z</time>
      </trkpt>
      <trkpt lat="47.04789" lon="6.36893">
        <ele>803</ele>
        <time>2020-05-22T17:00:41Z</time>
      </trkpt>
      <trkpt lat="47.04789" lon="6.36889">
        <ele>803.2</ele>
        <time>2020-05-22T17:00:42Z</time>
      </trkpt>
      <trkpt lat="47.04788" lon="6.36885">
        <ele>803.2</ele>
        <time>2020-05-22T17:00:43Z</time>
      </trkpt>
      <trkpt lat="47.04787" lon="6.36881">
        <ele>803.2</ele>
        <time>2020-05-22T17:00:44Z</time>
      </trkpt>
      <trkpt lat="47.04787" lon="6.36876">
        <ele>803.2</ele>
        <time>2020-05-22T17:00:45Z</time>
      </trkpt>
      <trkpt lat="47.04787" lon="6.36872">
        <ele>803.2</ele>
        <time>2020-05-22T17:00:46Z</time>
      </trkpt>
      <trkpt lat="47.04786" lon="6.36868">
        <ele>803.2</ele>
        <time>2020-05-22T17:00:47Z</time>
      </trkpt>
      <trkpt lat="47.04786" lon="6.36864">
        <ele>803.2</ele>
        <time>2020-05-22T17:00:48Z</time>
      </trkpt>
      <trkpt lat="47.04785" lon="6.3686">
        <ele>803.6</ele>
        <time>2020-05-22T17:00:49Z</time>
      </trkpt>
      <trkpt lat="47.04784" lon="6.36855">
        <ele>803.6</ele>
        <time>2020-05-22T17:00:50Z</time>
      </trkpt>
      <trkpt lat="47.04784" lon="6.36851">
        <ele>803.6</ele>
        <time>2020-05-22T17:00:51Z</time>
      </trkpt>
      <trkpt lat="47.04783" lon="6.36847">
        <ele>803.6</ele>
        <time>2020-05-22T17:00:52Z</time>
      </trkpt>
      <trkpt lat="47.04783" lon="6.36842">
        <ele>803.8</ele>
        <time>2020-05-22T17:00:53Z</time>
      </trkpt>
      <trkpt lat="47.04782" lon="6.36838">
        <ele>803.8</ele>
        <time>2020-05-22T17:00:54Z</time>
      </trkpt>
      <trkpt lat="47.04782" lon="6.36833">
        <ele>803.8</ele>
        <time>2020-05-22T17:00:55Z</time>
      </trkpt>
      <trkpt lat="47.04781" lon="6.36827">
        <ele>803.8</ele>
        <time>2020-05-22T17:00:56Z</time>
      </trkpt>
      <trkpt lat="47.04781" lon="6.36822">
        <ele>803.8</ele>
        <time>2020-05-22T17:00:57Z</time>
      </trkpt>
      <trkpt lat="47.04781" lon="6.36816">
        <ele>803.8</ele>
        <time>2020-05-22T17:00:58Z</time>
      </trkpt>
      <trkpt lat="47.0478" lon="6.36811">
        <ele>803.8</ele>
        <time>2020-05-22T17:00:59Z</time>
      </trkpt>
      <trkpt lat="47.0478" lon="6.36805">
        <ele>803.8</ele>
        <time>2020-05-22T17:01:00Z</time>
      </trkpt>
      <trkpt lat="47.04779" lon="6.36799">
        <ele>803.8</ele>
        <time>2020-05-22T17:01:01Z</time>
      </trkpt>
      <trkpt lat="47.04779" lon="6.36792">
        <ele>803.8</ele>
        <time>2020-05-22T17:01:02Z</time>
      </trkpt>
      <trkpt lat="47.04779" lon="6.36786">
        <ele>803.4</ele>
        <time>2020-05-22T17:01:03Z</time>
      </trkpt>
      <trkpt lat="47.04778" lon="6.36779">
        <ele>803.4</ele>
        <time>2020-05-22T17:01:04Z</time>
      </trkpt>
      <trkpt lat="47.04778" lon="6.36773">
        <ele>803.4</ele>
        <time>2020-05-22T17:01:05Z</time>
      </trkpt>
      <trkpt lat="47.04778" lon="6.36766">
        <ele>803.4</ele>
        <time>2020-05-22T17:01:06Z</time>
      </trkpt>
      <trkpt lat="47.04777" lon="6.36759">
        <ele>803.4</ele>
        <time>2020-05-22T17:01:07Z</time>
      </trkpt>
      <trkpt lat="47.04777" lon="6.36752">
        <ele>803.2</ele>
        <time>2020-05-22T17:01:08Z</time>
      </trkpt>
      <trkpt lat="47.04776" lon="6.36745">
        <ele>803.2</ele>
        <time>2020-05-22T17:01:09Z</time>
      </trkpt>
      <trkpt lat="47.04775" lon="6.36737">
        <ele>803.2</ele>
        <time>2020-05-22T17:01:10Z</time>
      </trkpt>
      <trkpt lat="47.04774" lon="6.36729">
        <ele>802.8</ele>
        <time>2020-05-22T17:01:11Z</time>
      </trkpt>
      <trkpt lat="47.04773" lon="6.36721">
        <ele>802.8</ele>
        <time>2020-05-22T17:01:12Z</time>
      </trkpt>
      <trkpt lat="47.04772" lon="6.36712">
        <ele>802.6</ele>
        <time>2020-05-22T17:01:13Z</time>
      </trkpt>
      <trkpt lat="47.04771" lon="6.36704">
        <ele>802.6</ele>
        <time>2020-05-22T17:01:14Z</time>
      </trkpt>
      <trkpt lat="47.04769" lon="6.36695">
        <ele>802.4</ele>
        <time>2020-05-22T17:01:15Z</time>
      </trkpt>
      <trkpt lat="47.04767" lon="6.36686">
        <ele>802</ele>
        <time>2020-05-22T17:01:16Z</time>
      </trkpt>
      <trkpt lat="47.04764" lon="6.36676">
        <ele>802</ele>
        <time>2020-05-22T17:01:17Z</time>
      </trkpt>
      <trkpt lat="47.04762" lon="6.36667">
        <ele>801.6</ele>
        <time>2020-05-22T17:01:18Z</time>
      </trkpt>
      <trkpt lat="47.04759" lon="6.36658">
        <ele>801.4</ele>
        <time>2020-05-22T17:01:19Z</time>
      </trkpt>
      <trkpt lat="47.04756" lon="6.36648">
        <ele>801.4</ele>
        <time>2020-05-22T17:01:20Z</time>
      </trkpt>
      <trkpt lat="47.04753" lon="6.36639">
        <ele>801</ele>
        <time>2020-05-22T17:01:21Z</time>
      </trkpt>
      <trkpt lat="47.0475" lon="6.36629">
        <ele>801</ele>
        <time>2020-05-22T17:01:22Z</time>
      </trkpt>
      <trkpt lat="47.04747" lon="6.36619">
        <ele>800.6</ele>
        <time>2020-05-22T17:01:23Z</time>
      </trkpt>
      <trkpt lat="47.04744" lon="6.36609">
        <ele>800.4</ele>
        <time>2020-05-22T17:01:24Z</time>
      </trkpt>
      <trkpt lat="47.04741" lon="6.36599">
        <ele>800.2</ele>
        <time>2020-05-22T17:01:25Z</time>
      </trkpt>
      <trkpt lat="47.04738" lon="6.36588">
        <ele>800</ele>
        <time>2020-05-22T17:01:26Z</time>
      </trkpt>
      <trkpt lat="47.04734" lon="6.36578">
        <ele>799.8</ele>
        <time>2020-05-22T17:01:27Z</time>
      </trkpt>
      <trkpt lat="47.04731" lon="6.36567">
        <ele>799.8</ele>
        <time>2020-05-22T17:01:28Z</time>
      </trkpt>
      <trkpt lat="47.04728" lon="6.36557">
        <ele>799.4</ele>
        <time>2020-05-22T17:01:29Z</time>
      </trkpt>
      <trkpt lat="47.04724" lon="6.36546">
        <ele>799</ele>
        <time>2020-05-22T17:01:30Z</time>
      </trkpt>
      <trkpt lat="47.04721" lon="6.36536">
        <ele>798.8</ele>
        <time>2020-05-22T17:01:31Z</time>
      </trkpt>
      <trkpt lat="47.04717" lon="6.36526">
        <ele>798.4</ele>
        <time>2020-05-22T17:01:32Z</time>
      </trkpt>
      <trkpt lat="47.04712" lon="6.36516">
        <ele>798.2</ele>
        <time>2020-05-22T17:01:33Z</time>
      </trkpt>
      <trkpt lat="47.04708" lon="6.36506">
        <ele>797.8</ele>
        <time>2020-05-22T17:01:34Z</time>
      </trkpt>
      <trkpt lat="47.04704" lon="6.36496">
        <ele>797.6</ele>
        <time>2020-05-22T17:01:35Z</time>
      </trkpt>
      <trkpt lat="47.047" lon="6.36486">
        <ele>797.4</ele>
        <time>2020-05-22T17:01:36Z</time>
      </trkpt>
      <trkpt lat="47.04696" lon="6.36476">
        <ele>797.4</ele>
        <time>2020-05-22T17:01:37Z</time>
      </trkpt>
      <trkpt lat="47.04691" lon="6.36466">
        <ele>797</ele>
        <time>2020-05-22T17:01:38Z</time>
      </trkpt>
      <trkpt lat="47.04687" lon="6.36455">
        <ele>796.6</ele>
        <time>2020-05-22T17:01:39Z</time>
      </trkpt>
      <trkpt lat="47.04683" lon="6.36445">
        <ele>796.4</ele>
        <time>2020-05-22T17:01:40Z</time>
      </trkpt>
      <trkpt lat="47.0468" lon="6.36435">
        <ele>796.4</ele>
        <time>2020-05-22T17:01:41Z</time>
      </trkpt>
      <trkpt lat="47.04677" lon="6.36424">
        <ele>796.2</ele>
        <time>2020-05-22T17:01:42Z</time>
      </trkpt>
      <trkpt lat="47.04673" lon="6.36414">
        <ele>796.2</ele>
        <time>2020-05-22T17:01:43Z</time>
      </trkpt>
      <trkpt lat="47.0467" lon="6.36403">
        <ele>795.8</ele>
        <time>2020-05-22T17:01:44Z</time>
      </trkpt>
      <trkpt lat="47.04668" lon="6.36393">
        <ele>795.8</ele>
        <time>2020-05-22T17:01:45Z</time>
      </trkpt>
      <trkpt lat="47.04665" lon="6.36383">
        <ele>795.8</ele>
        <time>2020-05-22T17:01:46Z</time>
      </trkpt>
      <trkpt lat="47.04662" lon="6.36373">
        <ele>795.8</ele>
        <time>2020-05-22T17:01:47Z</time>
      </trkpt>
      <trkpt lat="47.0466" lon="6.36363">
        <ele>795.6</ele>
        <time>2020-05-22T17:01:48Z</time>
      </trkpt>
      <trkpt lat="47.04658" lon="6.36354">
        <ele>795.6</ele>
        <time>2020-05-22T17:01:49Z</time>
      </trkpt>
      <trkpt lat="47.04656" lon="6.36344">
        <ele>795.6</ele>
        <time>2020-05-22T17:01:50Z</time>
      </trkpt>
      <trkpt lat="47.04654" lon="6.36334">
        <ele>795.4</ele>
        <time>2020-05-22T17:01:51Z</time>
      </trkpt>
      <trkpt lat="47.04652" lon="6.36325">
        <ele>795.4</ele>
        <time>2020-05-22T17:01:52Z</time>
      </trkpt>
      <trkpt lat="47.04651" lon="6.36316">
        <ele>795.2</ele>
        <time>2020-05-22T17:01:53Z</time>
      </trkpt>
      <trkpt lat="47.04649" lon="6.36306">
        <ele>795.2</ele>
        <time>2020-05-22T17:01:54Z</time>
      </trkpt>
      <trkpt lat="47.04647" lon="6.36297">
        <ele>795</ele>
        <time>2020-05-22T17:01:55Z</time>
      </trkpt>
      <trkpt lat="47.04645" lon="6.36288">
        <ele>795</ele>
        <time>2020-05-22T17:01:56Z</time>
      </trkpt>
      <trkpt lat="47.04643" lon="6.36278">
        <ele>794.6</ele>
        <time>2020-05-22T17:01:57Z</time>
      </trkpt>
      <trkpt lat="47.04641" lon="6.36269">
        <ele>794.6</ele>
        <time>2020-05-22T17:01:58Z</time>
      </trkpt>
      <trkpt lat="47.04639" lon="6.36259">
        <ele>794.4</ele>
        <time>2020-05-22T17:01:59Z</time>
      </trkpt>
      <trkpt lat="47.04636" lon="6.3625">
        <ele>794.4</ele>
        <time>2020-05-22T17:02:00Z</time>
      </trkpt>
      <trkpt lat="47.04635" lon="6.3624">
        <ele>794.2</ele>
        <time>2020-05-22T17:02:01Z</time>
      </trkpt>
      <trkpt lat="47.04633" lon="6.36231">
        <ele>794.2</ele>
        <time>2020-05-22T17:02:02Z</time>
      </trkpt>
      <trkpt lat="47.04631" lon="6.36221">
        <ele>794</ele>
        <time>2020-05-22T17:02:03Z</time>
      </trkpt>
      <trkpt lat="47.04628" lon="6.36212">
        <ele>794</ele>
        <time>2020-05-22T17:02:04Z</time>
      </trkpt>
      <trkpt lat="47.04626" lon="6.36202">
        <ele>793.6</ele>
        <time>2020-05-22T17:02:05Z</time>
      </trkpt>
      <trkpt lat="47.04624" lon="6.36192">
        <ele>793.6</ele>
        <time>2020-05-22T17:02:06Z</time>
      </trkpt>
      <trkpt lat="47.04622" lon="6.36183">
        <ele>793.4</ele>
        <time>2020-05-22T17:02:07Z</time>
      </trkpt>
      <trkpt lat="47.0462" lon="6.36173">
        <ele>793.4</ele>
        <time>2020-05-22T17:02:08Z</time>
      </trkpt>
      <trkpt lat="47.04617" lon="6.36163">
        <ele>793.2</ele>
        <time>2020-05-22T17:02:09Z</time>
      </trkpt>
      <trkpt lat="47.04615" lon="6.36153">
        <ele>793</ele>
        <time>2020-05-22T17:02:10Z</time>
      </trkpt>
      <trkpt lat="47.04613" lon="6.36142">
        <ele>792.8</ele>
        <time>2020-05-22T17:02:11Z</time>
      </trkpt>
      <trkpt lat="47.04611" lon="6.36132">
        <ele>792.8</ele>
        <time>2020-05-22T17:02:12Z</time>
      </trkpt>
      <trkpt lat="47.04608" lon="6.36121">
        <ele>792.4</ele>
        <time>2020-05-22T17:02:13Z</time>
      </trkpt>
      <trkpt lat="47.04606" lon="6.36111">
        <ele>792.2</ele>
        <time>2020-05-22T17:02:14Z</time>
      </trkpt>
      <trkpt lat="47.04604" lon="6.361">
        <ele>792.2</ele>
        <time>2020-05-22T17:02:15Z</time>
      </trkpt>
      <trkpt lat="47.04602" lon="6.36089">
        <ele>791.8</ele>
        <time>2020-05-22T17:02:16Z</time>
      </trkpt>
      <trkpt lat="47.04599" lon="6.36078">
        <ele>791.6</ele>
        <time>2020-05-22T17:02:17Z</time>
      </trkpt>
      <trkpt lat="47.04597" lon="6.36068">
        <ele>791.6</ele>
        <time>2020-05-22T17:02:18Z</time>
      </trkpt>
      <trkpt lat="47.04595" lon="6.36058">
        <ele>791.4</ele>
        <time>2020-05-22T17:02:19Z</time>
      </trkpt>
      <trkpt lat="47.04593" lon="6.36047">
        <ele>791.4</ele>
        <time>2020-05-22T17:02:20Z</time>
      </trkpt>
      <trkpt lat="47.04591" lon="6.36037">
        <ele>791</ele>
        <time>2020-05-22T17:02:21Z</time>
      </trkpt>
      <trkpt lat="47.04589" lon="6.36027">
        <ele>791</ele>
        <time>2020-05-22T17:02:22Z</time>
      </trkpt>
      <trkpt lat="47.04586" lon="6.36018">
        <ele>791</ele>
        <time>2020-05-22T17:02:23Z</time>
      </trkpt>
      <trkpt lat="47.04584" lon="6.36008">
        <ele>791</ele>
        <time>2020-05-22T17:02:24Z</time>
      </trkpt>
      <trkpt lat="47.04583" lon="6.35999">
        <ele>791</ele>
        <time>2020-05-22T17:02:25Z</time>
      </trkpt>
      <trkpt lat="47.04581" lon="6.3599">
        <ele>791</ele>
        <time>2020-05-22T17:02:26Z</time>
      </trkpt>
      <trkpt lat="47.04579" lon="6.35982">
        <ele>791</ele>
        <time>2020-05-22T17:02:27Z</time>
      </trkpt>
      <trkpt lat="47.04577" lon="6.35973">
        <ele>791</ele>
        <time>2020-05-22T17:02:28Z</time>
      </trkpt>
      <trkpt lat="47.04576" lon="6.35965">
        <ele>791</ele>
        <time>2020-05-22T17:02:29Z</time>
      </trkpt>
      <trkpt lat="47.04574" lon="6.35958">
        <ele>791</ele>
        <time>2020-05-22T17:02:30Z</time>
      </trkpt>
      <trkpt lat="47.04572" lon="6.3595">
        <ele>791</ele>
        <time>2020-05-22T17:02:31Z</time>
      </trkpt>
      <trkpt lat="47.04571" lon="6.35943">
        <ele>791</ele>
        <time>2020-05-22T17:02:32Z</time>
      </trkpt>
      <trkpt lat="47.04569" lon="6.35935">
        <ele>791</ele>
        <time>2020-05-22T17:02:33Z</time>
      </trkpt>
      <trkpt lat="47.04568" lon="6.35928">
        <ele>791.2</ele>
        <time>2020-05-22T17:02:34Z</time>
      </trkpt>
      <trkpt lat="47.04567" lon="6.35921">
        <ele>791.2</ele>
        <time>2020-05-22T17:02:35Z</time>
      </trkpt>
      <trkpt lat="47.04565" lon="6.35914">
        <ele>791.2</ele>
        <time>2020-05-22T17:02:36Z</time>
      </trkpt>
      <trkpt lat="47.04564" lon="6.35907">
        <ele>791.4</ele>
        <time>2020-05-22T17:02:37Z</time>
      </trkpt>
      <trkpt lat="47.04562" lon="6.35901">
        <ele>791.4</ele>
        <time>2020-05-22T17:02:38Z</time>
      </trkpt>
      <trkpt lat="47.04561" lon="6.35895">
        <ele>791.8</ele>
        <time>2020-05-22T17:02:39Z</time>
      </trkpt>
      <trkpt lat="47.0456" lon="6.35889">
        <ele>791.8</ele>
        <time>2020-05-22T17:02:40Z</time>
      </trkpt>
      <trkpt lat="47.04559" lon="6.35883">
        <ele>792</ele>
        <time>2020-05-22T17:02:41Z</time>
      </trkpt>
      <trkpt lat="47.04558" lon="6.35878">
        <ele>792</ele>
        <time>2020-05-22T17:02:42Z</time>
      </trkpt>
      <trkpt lat="47.04557" lon="6.35873">
        <ele>792.2</ele>
        <time>2020-05-22T17:02:43Z</time>
      </trkpt>
      <trkpt lat="47.04556" lon="6.35868">
        <ele>792.2</ele>
        <time>2020-05-22T17:02:44Z</time>
      </trkpt>
      <trkpt lat="47.04555" lon="6.35864">
        <ele>792.6</ele>
        <time>2020-05-22T17:02:45Z</time>
      </trkpt>
      <trkpt lat="47.04554" lon="6.35859">
        <ele>792.6</ele>
        <time>2020-05-22T17:02:46Z</time>
      </trkpt>
      <trkpt lat="47.04553" lon="6.35855">
        <ele>792.8</ele>
        <time>2020-05-22T17:02:47Z</time>
      </trkpt>
      <trkpt lat="47.04552" lon="6.35851">
        <ele>792.8</ele>
        <time>2020-05-22T17:02:48Z</time>
      </trkpt>
      <trkpt lat="47.04551" lon="6.35847">
        <ele>793.2</ele>
        <time>2020-05-22T17:02:49Z</time>
      </trkpt>
      <trkpt lat="47.04551" lon="6.35844">
        <ele>793.4</ele>
        <time>2020-05-22T17:02:50Z</time>
      </trkpt>
      <trkpt lat="47.0455" lon="6.3584">
        <ele>793.4</ele>
        <time>2020-05-22T17:02:51Z</time>
      </trkpt>
      <trkpt lat="47.04549" lon="6.35837">
        <ele>793.6</ele>
        <time>2020-05-22T17:02:52Z</time>
      </trkpt>
      <trkpt lat="47.04548" lon="6.35833">
        <ele>793.6</ele>
        <time>2020-05-22T17:02:53Z</time>
      </trkpt>
      <trkpt lat="47.04547" lon="6.3583">
        <ele>793.8</ele>
        <time>2020-05-22T17:02:54Z</time>
      </trkpt>
      <trkpt lat="47.04546" lon="6.35826">
        <ele>794.2</ele>
        <time>2020-05-22T17:02:55Z</time>
      </trkpt>
      <trkpt lat="47.04546" lon="6.35823">
        <ele>794.2</ele>
        <time>2020-05-22T17:02:56Z</time>
      </trkpt>
      <trkpt lat="47.04545" lon="6.3582">
        <ele>794.4</ele>
        <time>2020-05-22T17:02:57Z</time>
      </trkpt>
      <trkpt lat="47.04544" lon="6.35816">
        <ele>794.4</ele>
        <time>2020-05-22T17:02:58Z</time>
      </trkpt>
      <trkpt lat="47.04543" lon="6.35813">
        <ele>794.6</ele>
        <time>2020-05-22T17:02:59Z</time>
      </trkpt>
      <trkpt lat="47.04542" lon="6.35811">
        <ele>794.6</ele>
        <time>2020-05-22T17:03:00Z</time>
      </trkpt>
      <trkpt lat="47.04541" lon="6.35808">
        <ele>794.8</ele>
        <time>2020-05-22T17:03:01Z</time>
      </trkpt>
      <trkpt lat="47.0454" lon="6.35805">
        <ele>794.8</ele>
        <time>2020-05-22T17:03:02Z</time>
      </trkpt>
      <trkpt lat="47.04539" lon="6.35802">
        <ele>794.8</ele>
        <time>2020-05-22T17:03:03Z</time>
      </trkpt>
      <trkpt lat="47.04538" lon="6.35799">
        <ele>794.8</ele>
        <time>2020-05-22T17:03:04Z</time>
      </trkpt>
      <trkpt lat="47.04537" lon="6.35796">
        <ele>794.8</ele>
        <time>2020-05-22T17:03:05Z</time>
      </trkpt>
      <trkpt lat="47.04536" lon="6.35793">
        <ele>795.2</ele>
        <time>2020-05-22T17:03:06Z</time>
      </trkpt>
      <trkpt lat="47.04535" lon="6.35791">
        <ele>795.2</ele>
        <time>2020-05-22T17:03:07Z</time>
      </trkpt>
      <trkpt lat="47.04534" lon="6.35788">
        <ele>795.2</ele>
        <time>2020-05-22T17:03:08Z</time>
      </trkpt>
      <trkpt lat="47.04534" lon="6.35786">
        <ele>795.2</ele>
        <time>2020-05-22T17:03:09Z</time>
      </trkpt>
      <trkpt lat="47.04534" lon="6.35785">
        <ele>795.4</ele>
        <time>2020-05-22T17:03:10Z</time>
      </trkpt>
      <trkpt lat="47.04534" lon="6.35784">
        <ele>795.4</ele>
        <time>2020-05-22T17:03:11Z</time>
      </trkpt>
      <trkpt lat="47.04529" lon="6.35772">
        <ele>795.4</ele>
        <time>2020-05-22T17:05:40Z</time>
      </trkpt>
      <trkpt lat="47.04528" lon="6.35769">
        <ele>795.4</ele>
        <time>2020-05-22T17:05:41Z</time>
      </trkpt>
      <trkpt lat="47.04527" lon="6.35767">
        <ele>795.6</ele>
        <time>2020-05-22T17:05:42Z</time>
      </trkpt>
      <trkpt lat="47.04525" lon="6.35764">
        <ele>795.6</ele>
        <time>2020-05-22T17:05:43Z</time>
      </trkpt>
      <trkpt lat="47.04524" lon="6.35761">
        <ele>795.6</ele>
        <time>2020-05-22T17:05:44Z</time>
      </trkpt>
      <trkpt lat="47.04522" lon="6.35758">
        <ele>795.6</ele>
        <time>2020-05-22T17:05:45Z</time>
      </trkpt>
      <trkpt lat="47.0452" lon="6.35755">
        <ele>795.6</ele>
        <time>2020-05-22T17:05:46Z</time>
      </trkpt>
      <trkpt lat="47.04519" lon="6.35751">
        <ele>796</ele>
        <time>2020-05-22T17:05:47Z</time>
      </trkpt>
      <trkpt lat="47.04517" lon="6.35747">
        <ele>796</ele>
        <time>2020-05-22T17:05:48Z</time>
      </trkpt>
      <trkpt lat="47.04515" lon="6.35743">
        <ele>796</ele>
        <time>2020-05-22T17:05:49Z</time>
      </trkpt>
      <trkpt lat="47.04513" lon="6.35739">
        <ele>796.2</ele>
        <time>2020-05-22T17:05:50Z</time>
      </trkpt>
      <trkpt lat="47.04511" lon="6.35735">
        <ele>796.2</ele>
        <time>2020-05-22T17:05:51Z</time>
      </trkpt>
      <trkpt lat="47.04508" lon="6.35731">
        <ele>796.2</ele>
        <time>2020-05-22T17:05:52Z</time>
      </trkpt>
      <trkpt lat="47.04506" lon="6.35727">
        <ele>796.4</ele>
        <time>2020-05-22T17:05:53Z</time>
      </trkpt>
      <trkpt lat="47.04504" lon="6.35723">
        <ele>796.4</ele>
        <time>2020-05-22T17:05:54Z</time>
      </trkpt>
      <trkpt lat="47.04502" lon="6.35719">
        <ele>796.6</ele>
        <time>2020-05-22T17:05:55Z</time>
      </trkpt>
      <trkpt lat="47.045" lon="6.35715">
        <ele>796.6</ele>
        <time>2020-05-22T17:05:56Z</time>
      </trkpt>
      <trkpt lat="47.04497" lon="6.35711">
        <ele>797</ele>
        <time>2020-05-22T17:05:57Z</time>
      </trkpt>
      <trkpt lat="47.04495" lon="6.35707">
        <ele>797</ele>
        <time>2020-05-22T17:05:58Z</time>
      </trkpt>
      <trkpt lat="47.04493" lon="6.35703">
        <ele>797</ele>
        <time>2020-05-22T17:05:59Z</time>
      </trkpt>
      <trkpt lat="47.0449" lon="6.35698">
        <ele>797.2</ele>
        <time>2020-05-22T17:06:00Z</time>
      </trkpt>
      <trkpt lat="47.04488" lon="6.35694">
        <ele>797.2</ele>
        <time>2020-05-22T17:06:01Z</time>
      </trkpt>
      <trkpt lat="47.04486" lon="6.3569">
        <ele>797.2</ele>
        <time>2020-05-22T17:06:02Z</time>
      </trkpt>
      <trkpt lat="47.04484" lon="6.35686">
        <ele>797.2</ele>
        <time>2020-05-22T17:06:03Z</time>
      </trkpt>
      <trkpt lat="47.04484" lon="6.35686">
        <ele>797.4</ele>
        <time>2020-05-22T17:06:04Z</time>
      </trkpt>
      <trkpt lat="47.04479" lon="6.35677">
        <ele>797.4</ele>
        <time>2020-05-22T17:06:05Z</time>
      </trkpt>
      <trkpt lat="47.04477" lon="6.35673">
        <ele>797.4</ele>
        <time>2020-05-22T17:06:06Z</time>
      </trkpt>
      <trkpt lat="47.04475" lon="6.35669">
        <ele>797.6</ele>
        <time>2020-05-22T17:06:07Z</time>
      </trkpt>
      <trkpt lat="47.04473" lon="6.35665">
        <ele>797.6</ele>
        <time>2020-05-22T17:06:08Z</time>
      </trkpt>
      <trkpt lat="47.04471" lon="6.35661">
        <ele>797.6</ele>
        <time>2020-05-22T17:06:09Z</time>
      </trkpt>
      <trkpt lat="47.04469" lon="6.35657">
        <ele>797.6</ele>
        <time>2020-05-22T17:06:10Z</time>
      </trkpt>
      <trkpt lat="47.04467" lon="6.35653">
        <ele>797.6</ele>
        <time>2020-05-22T17:06:11Z</time>
      </trkpt>
      <trkpt lat="47.04465" lon="6.35649">
        <ele>797.6</ele>
        <time>2020-05-22T17:06:12Z</time>
      </trkpt>
      <trkpt lat="47.04463" lon="6.35645">
        <ele>798</ele>
        <time>2020-05-22T17:06:13Z</time>
      </trkpt>
      <trkpt lat="47.04461" lon="6.35641">
        <ele>798</ele>
        <time>2020-05-22T17:06:14Z</time>
      </trkpt>
      <trkpt lat="47.04459" lon="6.35637">
        <ele>798</ele>
        <time>2020-05-22T17:06:15Z</time>
      </trkpt>
      <trkpt lat="47.04457" lon="6.35633">
        <ele>798</ele>
        <time>2020-05-22T17:06:16Z</time>
      </trkpt>
      <trkpt lat="47.04456" lon="6.35629">
        <ele>798</ele>
        <time>2020-05-22T17:06:17Z</time>
      </trkpt>
      <trkpt lat="47.04454" lon="6.35625">
        <ele>798</ele>
        <time>2020-05-22T17:06:18Z</time>
      </trkpt>
      <trkpt lat="47.04453" lon="6.3562">
        <ele>798</ele>
        <time>2020-05-22T17:06:19Z</time>
      </trkpt>
      <trkpt lat="47.04452" lon="6.35616">
        <ele>798</ele>
        <time>2020-05-22T17:06:20Z</time>
      </trkpt>
      <trkpt lat="47.0445" lon="6.35612">
        <ele>798</ele>
        <time>2020-05-22T17:06:21Z</time>
      </trkpt>
      <trkpt lat="47.04449" lon="6.35608">
        <ele>798</ele>
        <time>2020-05-22T17:06:22Z</time>
      </trkpt>
      <trkpt lat="47.04448" lon="6.35604">
        <ele>798</ele>
        <time>2020-05-22T17:06:23Z</time>
      </trkpt>
      <trkpt lat="47.04447" lon="6.356">
        <ele>798</ele>
        <time>2020-05-22T17:06:24Z</time>
      </trkpt>
      <trkpt lat="47.04445" lon="6.35596">
        <ele>798</ele>
        <time>2020-05-22T17:06:25Z</time>
      </trkpt>
      <trkpt lat="47.04444" lon="6.35593">
        <ele>798</ele>
        <time>2020-05-22T17:06:26Z</time>
      </trkpt>
      <trkpt lat="47.04443" lon="6.35589">
        <ele>798</ele>
        <time>2020-05-22T17:06:27Z</time>
      </trkpt>
      <trkpt lat="47.04443" lon="6.35585">
        <ele>798</ele>
        <time>2020-05-22T17:06:28Z</time>
      </trkpt>
      <trkpt lat="47.04442" lon="6.35581">
        <ele>798</ele>
        <time>2020-05-22T17:06:29Z</time>
      </trkpt>
      <trkpt lat="47.04441" lon="6.35578">
        <ele>798</ele>
        <time>2020-05-22T17:06:30Z</time>
      </trkpt>
      <trkpt lat="47.04441" lon="6.35574">
        <ele>798</ele>
        <time>2020-05-22T17:06:31Z</time>
      </trkpt>
      <trkpt lat="47.0444" lon="6.3557">
        <ele>798</ele>
        <time>2020-05-22T17:06:32Z</time>
      </trkpt>
      <trkpt lat="47.04439" lon="6.35567">
        <ele>798</ele>
        <time>2020-05-22T17:06:33Z</time>
      </trkpt>
      <trkpt lat="47.04438" lon="6.35563">
        <ele>798</ele>
        <time>2020-05-22T17:06:34Z</time>
      </trkpt>
      <trkpt lat="47.04438" lon="6.3556">
        <ele>798</ele>
        <time>2020-05-22T17:06:35Z</time>
      </trkpt>
      <trkpt lat="47.04437" lon="6.35556">
        <ele>798</ele>
        <time>2020-05-22T17:06:36Z</time>
      </trkpt>
      <trkpt lat="47.04436" lon="6.35553">
        <ele>798</ele>
        <time>2020-05-22T17:06:37Z</time>
      </trkpt>
      <trkpt lat="47.04436" lon="6.3555">
        <ele>797.6</ele>
        <time>2020-05-22T17:06:38Z</time>
      </trkpt>
      <trkpt lat="47.04435" lon="6.35547">
        <ele>797.6</ele>
        <time>2020-05-22T17:06:39Z</time>
      </trkpt>
      <trkpt lat="47.04435" lon="6.35544">
        <ele>797.4</ele>
        <time>2020-05-22T17:06:40Z</time>
      </trkpt>
      <trkpt lat="47.04435" lon="6.35541">
        <ele>797.4</ele>
        <time>2020-05-22T17:06:41Z</time>
      </trkpt>
      <trkpt lat="47.04435" lon="6.35539">
        <ele>797.2</ele>
        <time>2020-05-22T17:06:42Z</time>
      </trkpt>
      <trkpt lat="47.04436" lon="6.35537">
        <ele>797.2</ele>
        <time>2020-05-22T17:06:43Z</time>
      </trkpt>
      <trkpt lat="47.04437" lon="6.35535">
        <ele>797.2</ele>
        <time>2020-05-22T17:06:44Z</time>
      </trkpt>
      <trkpt lat="47.04439" lon="6.35533">
        <ele>796.8</ele>
        <time>2020-05-22T17:06:45Z</time>
      </trkpt>
      <trkpt lat="47.04441" lon="6.35532">
        <ele>796.8</ele>
        <time>2020-05-22T17:06:46Z</time>
      </trkpt>
      <trkpt lat="47.04443" lon="6.3553">
        <ele>796.6</ele>
        <time>2020-05-22T17:06:47Z</time>
      </trkpt>
      <trkpt lat="47.04445" lon="6.35528">
        <ele>796.4</ele>
        <time>2020-05-22T17:06:48Z</time>
      </trkpt>
      <trkpt lat="47.04446" lon="6.35526">
        <ele>796.4</ele>
        <time>2020-05-22T17:06:49Z</time>
      </trkpt>
      <trkpt lat="47.04448" lon="6.35524">
        <ele>796</ele>
        <time>2020-05-22T17:06:50Z</time>
      </trkpt>
      <trkpt lat="47.0445" lon="6.35522">
        <ele>795.8</ele>
        <time>2020-05-22T17:06:51Z</time>
      </trkpt>
      <trkpt lat="47.04452" lon="6.3552">
        <ele>795.4</ele>
        <time>2020-05-22T17:06:52Z</time>
      </trkpt>
      <trkpt lat="47.04454" lon="6.35517">
        <ele>795.2</ele>
        <time>2020-05-22T17:06:53Z</time>
      </trkpt>
      <trkpt lat="47.04455" lon="6.35515">
        <ele>795</ele>
        <time>2020-05-22T17:06:54Z</time>
      </trkpt>
      <trkpt lat="47.04456" lon="6.35512">
        <ele>794.8</ele>
        <time>2020-05-22T17:06:55Z</time>
      </trkpt>
      <trkpt lat="47.04458" lon="6.35509">
        <ele>794.6</ele>
        <time>2020-05-22T17:06:56Z</time>
      </trkpt>
      <trkpt lat="47.0446" lon="6.35507">
        <ele>794.2</ele>
        <time>2020-05-22T17:06:57Z</time>
      </trkpt>
      <trkpt lat="47.04461" lon="6.35504">
        <ele>794.2</ele>
        <time>2020-05-22T17:06:58Z</time>
      </trkpt>
      <trkpt lat="47.04463" lon="6.35501">
        <ele>793.8</ele>
        <time>2020-05-22T17:06:59Z</time>
      </trkpt>
      <trkpt lat="47.04465" lon="6.35498">
        <ele>793.6</ele>
        <time>2020-05-22T17:07:00Z</time>
      </trkpt>
      <trkpt lat="47.04466" lon="6.35495">
        <ele>793.2</ele>
        <time>2020-05-22T17:07:01Z</time>
      </trkpt>
      <trkpt lat="47.04468" lon="6.35491">
        <ele>793</ele>
        <time>2020-05-22T17:07:02Z</time>
      </trkpt>
      <trkpt lat="47.0447" lon="6.35488">
        <ele>792.6</ele>
        <time>2020-05-22T17:07:03Z</time>
      </trkpt>
      <trkpt lat="47.04471" lon="6.35485">
        <ele>792.4</ele>
        <time>2020-05-22T17:07:04Z</time>
      </trkpt>
      <trkpt lat="47.04472" lon="6.35481">
        <ele>792.4</ele>
        <time>2020-05-22T17:07:05Z</time>
      </trkpt>
      <trkpt lat="47.04474" lon="6.35479">
        <ele>792</ele>
        <time>2020-05-22T17:07:06Z</time>
      </trkpt>
      <trkpt lat="47.04475" lon="6.35476">
        <ele>791.8</ele>
        <time>2020-05-22T17:07:07Z</time>
      </trkpt>
      <trkpt lat="47.04476" lon="6.35472">
        <ele>791.6</ele>
        <time>2020-05-22T17:07:08Z</time>
      </trkpt>
      <trkpt lat="47.04476" lon="6.35469">
        <ele>791.4</ele>
        <time>2020-05-22T17:07:09Z</time>
      </trkpt>
      <trkpt lat="47.04477" lon="6.35466">
        <ele>791</ele>
        <time>2020-05-22T17:07:10Z</time>
      </trkpt>
      <trkpt lat="47.04477" lon="6.35462">
        <ele>790.6</ele>
        <time>2020-05-22T17:07:11Z</time>
      </trkpt>
      <trkpt lat="47.04477" lon="6.35459">
        <ele>790.4</ele>
        <time>2020-05-22T17:07:12Z</time>
      </trkpt>
      <trkpt lat="47.04477" lon="6.35456">
        <ele>790</ele>
        <time>2020-05-22T17:07:13Z</time>
      </trkpt>
      <trkpt lat="47.04476" lon="6.35452">
        <ele>789.8</ele>
        <time>2020-05-22T17:07:14Z</time>
      </trkpt>
      <trkpt lat="47.04477" lon="6.35449">
        <ele>789.6</ele>
        <time>2020-05-22T17:07:15Z</time>
      </trkpt>
      <trkpt lat="47.04477" lon="6.35447">
        <ele>789.2</ele>
        <time>2020-05-22T17:07:16Z</time>
      </trkpt>
      <trkpt lat="47.04477" lon="6.35444">
        <ele>788.8</ele>
        <time>2020-05-22T17:07:17Z</time>
      </trkpt>
      <trkpt lat="47.04477" lon="6.35442">
        <ele>788.6</ele>
        <time>2020-05-22T17:07:18Z</time>
      </trkpt>
      <trkpt lat="47.04477" lon="6.35439">
        <ele>788.2</ele>
        <time>2020-05-22T17:07:19Z</time>
      </trkpt>
      <trkpt lat="47.04477" lon="6.35436">
        <ele>787.8</ele>
        <time>2020-05-22T17:07:20Z</time>
      </trkpt>
      <trkpt lat="47.04478" lon="6.35433">
        <ele>787.6</ele>
        <time>2020-05-22T17:07:21Z</time>
      </trkpt>
      <trkpt lat="47.04478" lon="6.35431">
        <ele>787.4</ele>
        <time>2020-05-22T17:07:22Z</time>
      </trkpt>
      <trkpt lat="47.04479" lon="6.35429">
        <ele>787.2</ele>
        <time>2020-05-22T17:07:23Z</time>
      </trkpt>
      <trkpt lat="47.04479" lon="6.35427">
        <ele>787</ele>
        <time>2020-05-22T17:07:24Z</time>
      </trkpt>
      <trkpt lat="47.04477" lon="6.35417">
        <ele>786.4</ele>
        <time>2020-05-22T17:07:27Z</time>
      </trkpt>
      <trkpt lat="47.04478" lon="6.35414">
        <ele>786</ele>
        <time>2020-05-22T17:07:28Z</time>
      </trkpt>
      <trkpt lat="47.04478" lon="6.35411">
        <ele>785.8</ele>
        <time>2020-05-22T17:07:29Z</time>
      </trkpt>
      <trkpt lat="47.04479" lon="6.35408">
        <ele>785.8</ele>
        <time>2020-05-22T17:07:30Z</time>
      </trkpt>
      <trkpt lat="47.04477" lon="6.35403">
        <ele>785.6</ele>
        <time>2020-05-22T17:07:31Z</time>
      </trkpt>
      <trkpt lat="47.04477" lon="6.35399">
        <ele>785.6</ele>
        <time>2020-05-22T17:07:32Z</time>
      </trkpt>
      <trkpt lat="47.04477" lon="6.35396">
        <ele>785.2</ele>
        <time>2020-05-22T17:07:33Z</time>
      </trkpt>
      <trkpt lat="47.04477" lon="6.35392">
        <ele>785</ele>
        <time>2020-05-22T17:07:34Z</time>
      </trkpt>
      <trkpt lat="47.04477" lon="6.35388">
        <ele>785</ele>
        <time>2020-05-22T17:07:35Z</time>
      </trkpt>
      <trkpt lat="47.04477" lon="6.35384">
        <ele>784.6</ele>
        <time>2020-05-22T17:07:36Z</time>
      </trkpt>
      <trkpt lat="47.04477" lon="6.35382">
        <ele>784.4</ele>
        <time>2020-05-22T17:07:37Z</time>
      </trkpt>
      <trkpt lat="47.04477" lon="6.35378">
        <ele>784.2</ele>
        <time>2020-05-22T17:07:38Z</time>
      </trkpt>
      <trkpt lat="47.04477" lon="6.35375">
        <ele>783.8</ele>
        <time>2020-05-22T17:07:39Z</time>
      </trkpt>
      <trkpt lat="47.04477" lon="6.35372">
        <ele>783.8</ele>
        <time>2020-05-22T17:07:40Z</time>
      </trkpt>
      <trkpt lat="47.04477" lon="6.35369">
        <ele>783.4</ele>
        <time>2020-05-22T17:07:41Z</time>
      </trkpt>
      <trkpt lat="47.04476" lon="6.35365">
        <ele>783.2</ele>
        <time>2020-05-22T17:07:42Z</time>
      </trkpt>
      <trkpt lat="47.04476" lon="6.35362">
        <ele>783.2</ele>
        <time>2020-05-22T17:07:43Z</time>
      </trkpt>
      <trkpt lat="47.04474" lon="6.35358">
        <ele>782.8</ele>
        <time>2020-05-22T17:07:44Z</time>
      </trkpt>
      <trkpt lat="47.04473" lon="6.35354">
        <ele>782.6</ele>
        <time>2020-05-22T17:07:45Z</time>
      </trkpt>
      <trkpt lat="47.04471" lon="6.35348">
        <ele>782.4</ele>
        <time>2020-05-22T17:07:46Z</time>
      </trkpt>
      <trkpt lat="47.04471" lon="6.35343">
        <ele>782.4</ele>
        <time>2020-05-22T17:07:47Z</time>
      </trkpt>
      <trkpt lat="47.0447" lon="6.35338">
        <ele>782</ele>
        <time>2020-05-22T17:07:48Z</time>
      </trkpt>
      <trkpt lat="47.04469" lon="6.35334">
        <ele>782</ele>
        <time>2020-05-22T17:07:49Z</time>
      </trkpt>
      <trkpt lat="47.04467" lon="6.35329">
        <ele>781.6</ele>
        <time>2020-05-22T17:07:50Z</time>
      </trkpt>
      <trkpt lat="47.04467" lon="6.35325">
        <ele>781.6</ele>
        <time>2020-05-22T17:07:51Z</time>
      </trkpt>
      <trkpt lat="47.04466" lon="6.35322">
        <ele>781.2</ele>
        <time>2020-05-22T17:07:52Z</time>
      </trkpt>
      <trkpt lat="47.04465" lon="6.35317">
        <ele>781</ele>
        <time>2020-05-22T17:07:53Z</time>
      </trkpt>
      <trkpt lat="47.04462" lon="6.35313">
        <ele>780.8</ele>
        <time>2020-05-22T17:07:54Z</time>
      </trkpt>
      <trkpt lat="47.04462" lon="6.3531">
        <ele>780.6</ele>
        <time>2020-05-22T17:07:55Z</time>
      </trkpt>
      <trkpt lat="47.04461" lon="6.35306">
        <ele>780.2</ele>
        <time>2020-05-22T17:07:56Z</time>
      </trkpt>
      <trkpt lat="47.04461" lon="6.35303">
        <ele>780</ele>
        <time>2020-05-22T17:07:57Z</time>
      </trkpt>
      <trkpt lat="47.04459" lon="6.35299">
        <ele>779.8</ele>
        <time>2020-05-22T17:07:58Z</time>
      </trkpt>
      <trkpt lat="47.04457" lon="6.35295">
        <ele>779.4</ele>
        <time>2020-05-22T17:07:59Z</time>
      </trkpt>
      <trkpt lat="47.04456" lon="6.35291">
        <ele>779.2</ele>
        <time>2020-05-22T17:08:00Z</time>
      </trkpt>
      <trkpt lat="47.04455" lon="6.35288">
        <ele>779</ele>
        <time>2020-05-22T17:08:01Z</time>
      </trkpt>
      <trkpt lat="47.04454" lon="6.35285">
        <ele>778.6</ele>
        <time>2020-05-22T17:08:02Z</time>
      </trkpt>
      <trkpt lat="47.04453" lon="6.35282">
        <ele>778.4</ele>
        <time>2020-05-22T17:08:03Z</time>
      </trkpt>
      <trkpt lat="47.04452" lon="6.35278">
        <ele>778.2</ele>
        <time>2020-05-22T17:08:04Z</time>
      </trkpt>
      <trkpt lat="47.04451" lon="6.35275">
        <ele>778</ele>
        <time>2020-05-22T17:08:05Z</time>
      </trkpt>
      <trkpt lat="47.0445" lon="6.35272">
        <ele>777.8</ele>
        <time>2020-05-22T17:08:06Z</time>
      </trkpt>
      <trkpt lat="47.04448" lon="6.35268">
        <ele>777.6</ele>
        <time>2020-05-22T17:08:07Z</time>
      </trkpt>
      <trkpt lat="47.04447" lon="6.35266">
        <ele>777.2</ele>
        <time>2020-05-22T17:08:08Z</time>
      </trkpt>
      <trkpt lat="47.04446" lon="6.35263">
        <ele>777</ele>
        <time>2020-05-22T17:08:09Z</time>
      </trkpt>
      <trkpt lat="47.04446" lon="6.35259">
        <ele>776.6</ele>
        <time>2020-05-22T17:08:10Z</time>
      </trkpt>
      <trkpt lat="47.04445" lon="6.35255">
        <ele>776.4</ele>
        <time>2020-05-22T17:08:11Z</time>
      </trkpt>
      <trkpt lat="47.04444" lon="6.35252">
        <ele>776</ele>
        <time>2020-05-22T17:08:12Z</time>
      </trkpt>
      <trkpt lat="47.04442" lon="6.35248">
        <ele>775.8</ele>
        <time>2020-05-22T17:08:13Z</time>
      </trkpt>
      <trkpt lat="47.04441" lon="6.35244">
        <ele>775.4</ele>
        <time>2020-05-22T17:08:14Z</time>
      </trkpt>
      <trkpt lat="47.04438" lon="6.35239">
        <ele>775</ele>
        <time>2020-05-22T17:08:15Z</time>
      </trkpt>
      <trkpt lat="47.04436" lon="6.35234">
        <ele>774.6</ele>
        <time>2020-05-22T17:08:16Z</time>
      </trkpt>
      <trkpt lat="47.04434" lon="6.35229">
        <ele>774.2</ele>
        <time>2020-05-22T17:08:17Z</time>
      </trkpt>
      <trkpt lat="47.04432" lon="6.35225">
        <ele>773.6</ele>
        <time>2020-05-22T17:08:18Z</time>
      </trkpt>
      <trkpt lat="47.04429" lon="6.3522">
        <ele>773.2</ele>
        <time>2020-05-22T17:08:19Z</time>
      </trkpt>
      <trkpt lat="47.04427" lon="6.35216">
        <ele>772.6</ele>
        <time>2020-05-22T17:08:20Z</time>
      </trkpt>
      <trkpt lat="47.04425" lon="6.35212">
        <ele>772.2</ele>
        <time>2020-05-22T17:08:21Z</time>
      </trkpt>
      <trkpt lat="47.04422" lon="6.35208">
        <ele>771.8</ele>
        <time>2020-05-22T17:08:22Z</time>
      </trkpt>
      <trkpt lat="47.0442" lon="6.35204">
        <ele>771.2</ele>
        <time>2020-05-22T17:08:23Z</time>
      </trkpt>
      <trkpt lat="47.04417" lon="6.352">
        <ele>770.8</ele>
        <time>2020-05-22T17:08:24Z</time>
      </trkpt>
      <trkpt lat="47.04415" lon="6.35196">
        <ele>770.4</ele>
        <time>2020-05-22T17:08:25Z</time>
      </trkpt>
      <trkpt lat="47.04413" lon="6.35192">
        <ele>770</ele>
        <time>2020-05-22T17:08:26Z</time>
      </trkpt>
      <trkpt lat="47.0441" lon="6.35189">
        <ele>769.6</ele>
        <time>2020-05-22T17:08:27Z</time>
      </trkpt>
      <trkpt lat="47.04409" lon="6.35186">
        <ele>769.2</ele>
        <time>2020-05-22T17:08:28Z</time>
      </trkpt>
      <trkpt lat="47.04407" lon="6.35184">
        <ele>769</ele>
        <time>2020-05-22T17:08:29Z</time>
      </trkpt>
      <trkpt lat="47.04405" lon="6.35181">
        <ele>768.8</ele>
        <time>2020-05-22T17:08:30Z</time>
      </trkpt>
      <trkpt lat="47.04403" lon="6.35179">
        <ele>768.4</ele>
        <time>2020-05-22T17:08:31Z</time>
      </trkpt>
      <trkpt lat="47.04402" lon="6.35175">
        <ele>768</ele>
        <time>2020-05-22T17:08:32Z</time>
      </trkpt>
      <trkpt lat="47.04401" lon="6.35172">
        <ele>767.8</ele>
        <time>2020-05-22T17:08:33Z</time>
      </trkpt>
      <trkpt lat="47.044" lon="6.35168">
        <ele>767.4</ele>
        <time>2020-05-22T17:08:34Z</time>
      </trkpt>
      <trkpt lat="47.04398" lon="6.35165">
        <ele>767</ele>
        <time>2020-05-22T17:08:35Z</time>
      </trkpt>
      <trkpt lat="47.04396" lon="6.35161">
        <ele>766.8</ele>
        <time>2020-05-22T17:08:36Z</time>
      </trkpt>
      <trkpt lat="47.04395" lon="6.35157">
        <ele>766.4</ele>
        <time>2020-05-22T17:08:37Z</time>
      </trkpt>
      <trkpt lat="47.04393" lon="6.35152">
        <ele>766</ele>
        <time>2020-05-22T17:08:38Z</time>
      </trkpt>
      <trkpt lat="47.04391" lon="6.35147">
        <ele>765.6</ele>
        <time>2020-05-22T17:08:39Z</time>
      </trkpt>
      <trkpt lat="47.04388" lon="6.35143">
        <ele>765.2</ele>
        <time>2020-05-22T17:08:40Z</time>
      </trkpt>
      <trkpt lat="47.04386" lon="6.35138">
        <ele>764.6</ele>
        <time>2020-05-22T17:08:41Z</time>
      </trkpt>
      <trkpt lat="47.04383" lon="6.35132">
        <ele>764.2</ele>
        <time>2020-05-22T17:08:42Z</time>
      </trkpt>
      <trkpt lat="47.04381" lon="6.35127">
        <ele>763.8</ele>
        <time>2020-05-22T17:08:43Z</time>
      </trkpt>
      <trkpt lat="47.04379" lon="6.35121">
        <ele>763.2</ele>
        <time>2020-05-22T17:08:44Z</time>
      </trkpt>
      <trkpt lat="47.04377" lon="6.35116">
        <ele>762.8</ele>
        <time>2020-05-22T17:08:45Z</time>
      </trkpt>
      <trkpt lat="47.04375" lon="6.35112">
        <ele>762.2</ele>
        <time>2020-05-22T17:08:46Z</time>
      </trkpt>
      <trkpt lat="47.04374" lon="6.35108">
        <ele>761.8</ele>
        <time>2020-05-22T17:08:47Z</time>
      </trkpt>
      <trkpt lat="47.04373" lon="6.35104">
        <ele>761.2</ele>
        <time>2020-05-22T17:08:48Z</time>
      </trkpt>
      <trkpt lat="47.04372" lon="6.351">
        <ele>760.8</ele>
        <time>2020-05-22T17:08:49Z</time>
      </trkpt>
      <trkpt lat="47.04371" lon="6.35096">
        <ele>760.4</ele>
        <time>2020-05-22T17:08:50Z</time>
      </trkpt>
      <trkpt lat="47.04369" lon="6.35092">
        <ele>760</ele>
        <time>2020-05-22T17:08:51Z</time>
      </trkpt>
      <trkpt lat="47.04368" lon="6.35088">
        <ele>759.6</ele>
        <time>2020-05-22T17:08:52Z</time>
      </trkpt>
      <trkpt lat="47.04367" lon="6.35085">
        <ele>759.2</ele>
        <time>2020-05-22T17:08:53Z</time>
      </trkpt>
      <trkpt lat="47.04365" lon="6.35082">
        <ele>758.8</ele>
        <time>2020-05-22T17:08:54Z</time>
      </trkpt>
      <trkpt lat="47.04363" lon="6.35079">
        <ele>758.6</ele>
        <time>2020-05-22T17:08:55Z</time>
      </trkpt>
      <trkpt lat="47.04361" lon="6.35075">
        <ele>758.2</ele>
        <time>2020-05-22T17:08:56Z</time>
      </trkpt>
      <trkpt lat="47.0436" lon="6.35071">
        <ele>757.8</ele>
        <time>2020-05-22T17:08:57Z</time>
      </trkpt>
      <trkpt lat="47.04358" lon="6.35067">
        <ele>757.2</ele>
        <time>2020-05-22T17:08:58Z</time>
      </trkpt>
      <trkpt lat="47.04356" lon="6.35062">
        <ele>756.8</ele>
        <time>2020-05-22T17:08:59Z</time>
      </trkpt>
      <trkpt lat="47.04354" lon="6.35058">
        <ele>756.4</ele>
        <time>2020-05-22T17:09:00Z</time>
      </trkpt>
      <trkpt lat="47.04352" lon="6.35054">
        <ele>756</ele>
        <time>2020-05-22T17:09:01Z</time>
      </trkpt>
      <trkpt lat="47.0435" lon="6.35049">
        <ele>755.6</ele>
        <time>2020-05-22T17:09:02Z</time>
      </trkpt>
      <trkpt lat="47.04348" lon="6.35045">
        <ele>755.4</ele>
        <time>2020-05-22T17:09:03Z</time>
      </trkpt>
      <trkpt lat="47.04347" lon="6.35041">
        <ele>755</ele>
        <time>2020-05-22T17:09:04Z</time>
      </trkpt>
      <trkpt lat="47.04345" lon="6.35036">
        <ele>754.6</ele>
        <time>2020-05-22T17:09:05Z</time>
      </trkpt>
      <trkpt lat="47.04343" lon="6.35033">
        <ele>754.2</ele>
        <time>2020-05-22T17:09:06Z</time>
      </trkpt>
      <trkpt lat="47.04342" lon="6.35029">
        <ele>753.8</ele>
        <time>2020-05-22T17:09:07Z</time>
      </trkpt>
      <trkpt lat="47.0434" lon="6.35025">
        <ele>753.4</ele>
        <time>2020-05-22T17:09:08Z</time>
      </trkpt>
      <trkpt lat="47.04339" lon="6.35022">
        <ele>752.8</ele>
        <time>2020-05-22T17:09:09Z</time>
      </trkpt>
      <trkpt lat="47.04338" lon="6.35018">
        <ele>752.4</ele>
        <time>2020-05-22T17:09:10Z</time>
      </trkpt>
      <trkpt lat="47.04337" lon="6.35014">
        <ele>752.2</ele>
        <time>2020-05-22T17:09:11Z</time>
      </trkpt>
      <trkpt lat="47.04336" lon="6.3501">
        <ele>751.8</ele>
        <time>2020-05-22T17:09:12Z</time>
      </trkpt>
      <trkpt lat="47.04335" lon="6.35005">
        <ele>751.4</ele>
        <time>2020-05-22T17:09:13Z</time>
      </trkpt>
      <trkpt lat="47.04334" lon="6.35">
        <ele>751.2</ele>
        <time>2020-05-22T17:09:14Z</time>
      </trkpt>
      <trkpt lat="47.04333" lon="6.34993">
        <ele>750.8</ele>
        <time>2020-05-22T17:09:15Z</time>
      </trkpt>
      <trkpt lat="47.04333" lon="6.34987">
        <ele>750.4</ele>
        <time>2020-05-22T17:09:16Z</time>
      </trkpt>
      <trkpt lat="47.04332" lon="6.3498">
        <ele>749.8</ele>
        <time>2020-05-22T17:09:17Z</time>
      </trkpt>
      <trkpt lat="47.04332" lon="6.34973">
        <ele>749.4</ele>
        <time>2020-05-22T17:09:18Z</time>
      </trkpt>
      <trkpt lat="47.04332" lon="6.34966">
        <ele>749</ele>
        <time>2020-05-22T17:09:19Z</time>
      </trkpt>
      <trkpt lat="47.04333" lon="6.3496">
        <ele>748.4</ele>
        <time>2020-05-22T17:09:20Z</time>
      </trkpt>
      <trkpt lat="47.04332" lon="6.34955">
        <ele>748</ele>
        <time>2020-05-22T17:09:21Z</time>
      </trkpt>
      <trkpt lat="47.04333" lon="6.3495">
        <ele>747.4</ele>
        <time>2020-05-22T17:09:22Z</time>
      </trkpt>
      <trkpt lat="47.04333" lon="6.34945">
        <ele>747.2</ele>
        <time>2020-05-22T17:09:23Z</time>
      </trkpt>
      <trkpt lat="47.04334" lon="6.34941">
        <ele>746.6</ele>
        <time>2020-05-22T17:09:24Z</time>
      </trkpt>
      <trkpt lat="47.04335" lon="6.34937">
        <ele>746.2</ele>
        <time>2020-05-22T17:09:25Z</time>
      </trkpt>
      <trkpt lat="47.04335" lon="6.34932">
        <ele>745.8</ele>
        <time>2020-05-22T17:09:26Z</time>
      </trkpt>
      <trkpt lat="47.04336" lon="6.34928">
        <ele>745.6</ele>
        <time>2020-05-22T17:09:27Z</time>
      </trkpt>
      <trkpt lat="47.04337" lon="6.34924">
        <ele>745</ele>
        <time>2020-05-22T17:09:28Z</time>
      </trkpt>
      <trkpt lat="47.04338" lon="6.3492">
        <ele>744.8</ele>
        <time>2020-05-22T17:09:29Z</time>
      </trkpt>
      <trkpt lat="47.04339" lon="6.34917">
        <ele>744.4</ele>
        <time>2020-05-22T17:09:30Z</time>
      </trkpt>
      <trkpt lat="47.0434" lon="6.34914">
        <ele>744</ele>
        <time>2020-05-22T17:09:31Z</time>
      </trkpt>
      <trkpt lat="47.04341" lon="6.3491">
        <ele>743.8</ele>
        <time>2020-05-22T17:09:32Z</time>
      </trkpt>
      <trkpt lat="47.04342" lon="6.34907">
        <ele>743.4</ele>
        <time>2020-05-22T17:09:33Z</time>
      </trkpt>
      <trkpt lat="47.04344" lon="6.34904">
        <ele>743.2</ele>
        <time>2020-05-22T17:09:34Z</time>
      </trkpt>
      <trkpt lat="47.04345" lon="6.349">
        <ele>742.8</ele>
        <time>2020-05-22T17:09:35Z</time>
      </trkpt>
      <trkpt lat="47.04348" lon="6.34895">
        <ele>742.6</ele>
        <time>2020-05-22T17:09:36Z</time>
      </trkpt>
      <trkpt lat="47.0435" lon="6.34889">
        <ele>742.2</ele>
        <time>2020-05-22T17:09:37Z</time>
      </trkpt>
      <trkpt lat="47.04352" lon="6.34883">
        <ele>741.8</ele>
        <time>2020-05-22T17:09:38Z</time>
      </trkpt>
      <trkpt lat="47.04355" lon="6.34875">
        <ele>741.4</ele>
        <time>2020-05-22T17:09:39Z</time>
      </trkpt>
      <trkpt lat="47.04356" lon="6.34867">
        <ele>740.8</ele>
        <time>2020-05-22T17:09:40Z</time>
      </trkpt>
      <trkpt lat="47.04357" lon="6.34858">
        <ele>740.4</ele>
        <time>2020-05-22T17:09:41Z</time>
      </trkpt>
      <trkpt lat="47.04358" lon="6.34849">
        <ele>740.2</ele>
        <time>2020-05-22T17:09:42Z</time>
      </trkpt>
      <trkpt lat="47.04359" lon="6.34838">
        <ele>739.8</ele>
        <time>2020-05-22T17:09:43Z</time>
      </trkpt>
      <trkpt lat="47.04359" lon="6.34828">
        <ele>739.4</ele>
        <time>2020-05-22T17:09:44Z</time>
      </trkpt>
      <trkpt lat="47.0436" lon="6.34817">
        <ele>739</ele>
        <time>2020-05-22T17:09:45Z</time>
      </trkpt>
      <trkpt lat="47.0436" lon="6.34806">
        <ele>738.6</ele>
        <time>2020-05-22T17:09:46Z</time>
      </trkpt>
      <trkpt lat="47.0436" lon="6.34795">
        <ele>738.2</ele>
        <time>2020-05-22T17:09:47Z</time>
      </trkpt>
      <trkpt lat="47.04361" lon="6.34784">
        <ele>738.2</ele>
        <time>2020-05-22T17:09:48Z</time>
      </trkpt>
      <trkpt lat="47.04361" lon="6.34773">
        <ele>737.8</ele>
        <time>2020-05-22T17:09:49Z</time>
      </trkpt>
      <trkpt lat="47.04361" lon="6.34763">
        <ele>737.6</ele>
        <time>2020-05-22T17:09:50Z</time>
      </trkpt>
      <trkpt lat="47.04362" lon="6.34752">
        <ele>737.4</ele>
        <time>2020-05-22T17:09:51Z</time>
      </trkpt>
      <trkpt lat="47.04362" lon="6.34742">
        <ele>737.4</ele>
        <time>2020-05-22T17:09:52Z</time>
      </trkpt>
      <trkpt lat="47.04363" lon="6.34732">
        <ele>737</ele>
        <time>2020-05-22T17:09:53Z</time>
      </trkpt>
      <trkpt lat="47.04363" lon="6.34723">
        <ele>737</ele>
        <time>2020-05-22T17:09:54Z</time>
      </trkpt>
      <trkpt lat="47.04364" lon="6.34714">
        <ele>736.6</ele>
        <time>2020-05-22T17:09:55Z</time>
      </trkpt>
      <trkpt lat="47.04365" lon="6.34706">
        <ele>736.6</ele>
        <time>2020-05-22T17:09:56Z</time>
      </trkpt>
      <trkpt lat="47.04365" lon="6.34698">
        <ele>736.6</ele>
        <time>2020-05-22T17:09:57Z</time>
      </trkpt>
      <trkpt lat="47.04366" lon="6.34691">
        <ele>736.4</ele>
        <time>2020-05-22T17:09:58Z</time>
      </trkpt>
      <trkpt lat="47.04367" lon="6.34684">
        <ele>736.4</ele>
        <time>2020-05-22T17:09:59Z</time>
      </trkpt>
      <trkpt lat="47.04368" lon="6.34677">
        <ele>736.4</ele>
        <time>2020-05-22T17:10:00Z</time>
      </trkpt>
      <trkpt lat="47.04369" lon="6.34671">
        <ele>736.2</ele>
        <time>2020-05-22T17:10:01Z</time>
      </trkpt>
      <trkpt lat="47.0437" lon="6.34665">
        <ele>736.2</ele>
        <time>2020-05-22T17:10:02Z</time>
      </trkpt>
      <trkpt lat="47.04372" lon="6.34659">
        <ele>736.2</ele>
        <time>2020-05-22T17:10:03Z</time>
      </trkpt>
      <trkpt lat="47.04373" lon="6.34654">
        <ele>736.2</ele>
        <time>2020-05-22T17:10:04Z</time>
      </trkpt>
      <trkpt lat="47.04374" lon="6.34649">
        <ele>736.2</ele>
        <time>2020-05-22T17:10:05Z</time>
      </trkpt>
      <trkpt lat="47.04375" lon="6.34644">
        <ele>736.2</ele>
        <time>2020-05-22T17:10:06Z</time>
      </trkpt>
      <trkpt lat="47.04376" lon="6.34639">
        <ele>736.2</ele>
        <time>2020-05-22T17:10:07Z</time>
      </trkpt>
      <trkpt lat="47.04377" lon="6.34634">
        <ele>736.2</ele>
        <time>2020-05-22T17:10:08Z</time>
      </trkpt>
      <trkpt lat="47.04379" lon="6.3463">
        <ele>736.2</ele>
        <time>2020-05-22T17:10:09Z</time>
      </trkpt>
      <trkpt lat="47.0438" lon="6.34626">
        <ele>736.2</ele>
        <time>2020-05-22T17:10:10Z</time>
      </trkpt>
      <trkpt lat="47.04382" lon="6.34621">
        <ele>736.2</ele>
        <time>2020-05-22T17:10:11Z</time>
      </trkpt>
      <trkpt lat="47.04383" lon="6.34616">
        <ele>736.2</ele>
        <time>2020-05-22T17:10:12Z</time>
      </trkpt>
      <trkpt lat="47.04385" lon="6.34612">
        <ele>736.2</ele>
        <time>2020-05-22T17:10:13Z</time>
      </trkpt>
      <trkpt lat="47.04386" lon="6.34607">
        <ele>736.2</ele>
        <time>2020-05-22T17:10:14Z</time>
      </trkpt>
      <trkpt lat="47.04387" lon="6.34602">
        <ele>736.2</ele>
        <time>2020-05-22T17:10:15Z</time>
      </trkpt>
      <trkpt lat="47.04388" lon="6.34597">
        <ele>736.2</ele>
        <time>2020-05-22T17:10:16Z</time>
      </trkpt>
      <trkpt lat="47.04389" lon="6.34592">
        <ele>736.2</ele>
        <time>2020-05-22T17:10:17Z</time>
      </trkpt>
      <trkpt lat="47.04391" lon="6.34586">
        <ele>736.2</ele>
        <time>2020-05-22T17:10:18Z</time>
      </trkpt>
      <trkpt lat="47.04392" lon="6.34582">
        <ele>736.2</ele>
        <time>2020-05-22T17:10:19Z</time>
      </trkpt>
      <trkpt lat="47.04394" lon="6.34577">
        <ele>736.2</ele>
        <time>2020-05-22T17:10:20Z</time>
      </trkpt>
      <trkpt lat="47.04395" lon="6.34572">
        <ele>736.2</ele>
        <time>2020-05-22T17:10:21Z</time>
      </trkpt>
      <trkpt lat="47.04396" lon="6.34567">
        <ele>736.4</ele>
        <time>2020-05-22T17:10:22Z</time>
      </trkpt>
      <trkpt lat="47.04397" lon="6.34563">
        <ele>736.4</ele>
        <time>2020-05-22T17:10:23Z</time>
      </trkpt>
      <trkpt lat="47.04399" lon="6.34559">
        <ele>736.4</ele>
        <time>2020-05-22T17:10:24Z</time>
      </trkpt>
      <trkpt lat="47.044" lon="6.34555">
        <ele>736.4</ele>
        <time>2020-05-22T17:10:25Z</time>
      </trkpt>
      <trkpt lat="47.04401" lon="6.34551">
        <ele>736.4</ele>
        <time>2020-05-22T17:10:26Z</time>
      </trkpt>
      <trkpt lat="47.04402" lon="6.34547">
        <ele>736.4</ele>
        <time>2020-05-22T17:10:27Z</time>
      </trkpt>
      <trkpt lat="47.04403" lon="6.34544">
        <ele>736.4</ele>
        <time>2020-05-22T17:10:28Z</time>
      </trkpt>
      <trkpt lat="47.04404" lon="6.3454">
        <ele>736.4</ele>
        <time>2020-05-22T17:10:29Z</time>
      </trkpt>
      <trkpt lat="47.04405" lon="6.34536">
        <ele>736.4</ele>
        <time>2020-05-22T17:10:30Z</time>
      </trkpt>
      <trkpt lat="47.04405" lon="6.34533">
        <ele>736.4</ele>
        <time>2020-05-22T17:10:31Z</time>
      </trkpt>
      <trkpt lat="47.04406" lon="6.34529">
        <ele>736.4</ele>
        <time>2020-05-22T17:10:32Z</time>
      </trkpt>
      <trkpt lat="47.04407" lon="6.34526">
        <ele>736.4</ele>
        <time>2020-05-22T17:10:33Z</time>
      </trkpt>
      <trkpt lat="47.04407" lon="6.34523">
        <ele>736.4</ele>
        <time>2020-05-22T17:10:34Z</time>
      </trkpt>
      <trkpt lat="47.04408" lon="6.3452">
        <ele>736.4</ele>
        <time>2020-05-22T17:10:35Z</time>
      </trkpt>
      <trkpt lat="47.04408" lon="6.34517">
        <ele>736.6</ele>
        <time>2020-05-22T17:10:36Z</time>
      </trkpt>
      <trkpt lat="47.04408" lon="6.34514">
        <ele>736.6</ele>
        <time>2020-05-22T17:10:37Z</time>
      </trkpt>
      <trkpt lat="47.04409" lon="6.3451">
        <ele>737</ele>
        <time>2020-05-22T17:10:38Z</time>
      </trkpt>
      <trkpt lat="47.04409" lon="6.34506">
        <ele>737</ele>
        <time>2020-05-22T17:10:39Z</time>
      </trkpt>
      <trkpt lat="47.04409" lon="6.34502">
        <ele>737</ele>
        <time>2020-05-22T17:10:40Z</time>
      </trkpt>
      <trkpt lat="47.0441" lon="6.34497">
        <ele>737</ele>
        <time>2020-05-22T17:10:41Z</time>
      </trkpt>
      <trkpt lat="47.04411" lon="6.34493">
        <ele>737</ele>
        <time>2020-05-22T17:10:42Z</time>
      </trkpt>
      <trkpt lat="47.04412" lon="6.3449">
        <ele>737</ele>
        <time>2020-05-22T17:10:43Z</time>
      </trkpt>
      <trkpt lat="47.04413" lon="6.34487">
        <ele>737</ele>
        <time>2020-05-22T17:10:44Z</time>
      </trkpt>
      <trkpt lat="47.04414" lon="6.34484">
        <ele>737.2</ele>
        <time>2020-05-22T17:10:45Z</time>
      </trkpt>
      <trkpt lat="47.04414" lon="6.34481">
        <ele>737.4</ele>
        <time>2020-05-22T17:10:46Z</time>
      </trkpt>
      <trkpt lat="47.04416" lon="6.34479">
        <ele>737.8</ele>
        <time>2020-05-22T17:10:47Z</time>
      </trkpt>
      <trkpt lat="47.04417" lon="6.34477">
        <ele>738</ele>
        <time>2020-05-22T17:10:48Z</time>
      </trkpt>
      <trkpt lat="47.04418" lon="6.34474">
        <ele>738.2</ele>
        <time>2020-05-22T17:10:49Z</time>
      </trkpt>
      <trkpt lat="47.04419" lon="6.34472">
        <ele>738.4</ele>
        <time>2020-05-22T17:10:50Z</time>
      </trkpt>
      <trkpt lat="47.0442" lon="6.34469">
        <ele>738.8</ele>
        <time>2020-05-22T17:10:51Z</time>
      </trkpt>
      <trkpt lat="47.04421" lon="6.34466">
        <ele>739</ele>
        <time>2020-05-22T17:10:52Z</time>
      </trkpt>
      <trkpt lat="47.04421" lon="6.34464">
        <ele>739.2</ele>
        <time>2020-05-22T17:10:53Z</time>
      </trkpt>
      <trkpt lat="47.04422" lon="6.34461">
        <ele>739.6</ele>
        <time>2020-05-22T17:10:54Z</time>
      </trkpt>
      <trkpt lat="47.04423" lon="6.34459">
        <ele>739.8</ele>
        <time>2020-05-22T17:10:55Z</time>
      </trkpt>
      <trkpt lat="47.04424" lon="6.34457">
        <ele>740</ele>
        <time>2020-05-22T17:10:56Z</time>
      </trkpt>
      <trkpt lat="47.04425" lon="6.34454">
        <ele>740.2</ele>
        <time>2020-05-22T17:10:57Z</time>
      </trkpt>
      <trkpt lat="47.04425" lon="6.34452">
        <ele>740.2</ele>
        <time>2020-05-22T17:10:58Z</time>
      </trkpt>
      <trkpt lat="47.04426" lon="6.3445">
        <ele>740.6</ele>
        <time>2020-05-22T17:10:59Z</time>
      </trkpt>
      <trkpt lat="47.04426" lon="6.34448">
        <ele>740.6</ele>
        <time>2020-05-22T17:11:00Z</time>
      </trkpt>
      <trkpt lat="47.04427" lon="6.34446">
        <ele>741</ele>
        <time>2020-05-22T17:11:01Z</time>
      </trkpt>
      <trkpt lat="47.04428" lon="6.34443">
        <ele>741</ele>
        <time>2020-05-22T17:11:02Z</time>
      </trkpt>
      <trkpt lat="47.04429" lon="6.34441">
        <ele>741.2</ele>
        <time>2020-05-22T17:11:03Z</time>
      </trkpt>
      <trkpt lat="47.04429" lon="6.34439">
        <ele>741.2</ele>
        <time>2020-05-22T17:11:04Z</time>
      </trkpt>
      <trkpt lat="47.0443" lon="6.34437">
        <ele>741.4</ele>
        <time>2020-05-22T17:11:05Z</time>
      </trkpt>
      <trkpt lat="47.0443" lon="6.34435">
        <ele>741.4</ele>
        <time>2020-05-22T17:11:06Z</time>
      </trkpt>
      <trkpt lat="47.04431" lon="6.34432">
        <ele>741.6</ele>
        <time>2020-05-22T17:11:07Z</time>
      </trkpt>
      <trkpt lat="47.04431" lon="6.3443">
        <ele>741.6</ele>
        <time>2020-05-22T17:11:08Z</time>
      </trkpt>
      <trkpt lat="47.04432" lon="6.34428">
        <ele>741.8</ele>
        <time>2020-05-22T17:11:09Z</time>
      </trkpt>
      <trkpt lat="47.04433" lon="6.34426">
        <ele>741.8</ele>
        <time>2020-05-22T17:11:10Z</time>
      </trkpt>
      <trkpt lat="47.04433" lon="6.34424">
        <ele>742.2</ele>
        <time>2020-05-22T17:11:11Z</time>
      </trkpt>
      <trkpt lat="47.04434" lon="6.34422">
        <ele>742.2</ele>
        <time>2020-05-22T17:11:12Z</time>
      </trkpt>
      <trkpt lat="47.04435" lon="6.34419">
        <ele>742.2</ele>
        <time>2020-05-22T17:11:13Z</time>
      </trkpt>
      <trkpt lat="47.04435" lon="6.34417">
        <ele>742.4</ele>
        <time>2020-05-22T17:11:14Z</time>
      </trkpt>
      <trkpt lat="47.04436" lon="6.34415">
        <ele>742.4</ele>
        <time>2020-05-22T17:11:15Z</time>
      </trkpt>
      <trkpt lat="47.04436" lon="6.34413">
        <ele>742.4</ele>
        <time>2020-05-22T17:11:16Z</time>
      </trkpt>
      <trkpt lat="47.04437" lon="6.34411">
        <ele>742.4</ele>
        <time>2020-05-22T17:11:17Z</time>
      </trkpt>
      <trkpt lat="47.04438" lon="6.34409">
        <ele>742.6</ele>
        <time>2020-05-22T17:11:18Z</time>
      </trkpt>
      <trkpt lat="47.04438" lon="6.34407">
        <ele>742.6</ele>
        <time>2020-05-22T17:11:19Z</time>
      </trkpt>
      <trkpt lat="47.04439" lon="6.34404">
        <ele>742.6</ele>
        <time>2020-05-22T17:11:20Z</time>
      </trkpt>
      <trkpt lat="47.04439" lon="6.34402">
        <ele>743</ele>
        <time>2020-05-22T17:11:21Z</time>
      </trkpt>
      <trkpt lat="47.0444" lon="6.344">
        <ele>743</ele>
        <time>2020-05-22T17:11:22Z</time>
      </trkpt>
      <trkpt lat="47.04441" lon="6.34398">
        <ele>743</ele>
        <time>2020-05-22T17:11:23Z</time>
      </trkpt>
      <trkpt lat="47.04442" lon="6.34397">
        <ele>743.2</ele>
        <time>2020-05-22T17:11:24Z</time>
      </trkpt>
      <trkpt lat="47.04442" lon="6.34396">
        <ele>743.2</ele>
        <time>2020-05-22T17:11:25Z</time>
      </trkpt>
      <trkpt lat="47.04442" lon="6.34394">
        <ele>743.4</ele>
        <time>2020-05-22T17:11:26Z</time>
      </trkpt>
      <trkpt lat="47.04443" lon="6.34392">
        <ele>743.4</ele>
        <time>2020-05-22T17:11:27Z</time>
      </trkpt>
      <trkpt lat="47.04443" lon="6.3439">
        <ele>743.4</ele>
        <time>2020-05-22T17:11:28Z</time>
      </trkpt>
      <trkpt lat="47.04444" lon="6.34388">
        <ele>743.4</ele>
        <time>2020-05-22T17:11:29Z</time>
      </trkpt>
      <trkpt lat="47.04444" lon="6.34385">
        <ele>743.8</ele>
        <time>2020-05-22T17:11:30Z</time>
      </trkpt>
      <trkpt lat="47.04445" lon="6.34383">
        <ele>743.8</ele>
        <time>2020-05-22T17:11:31Z</time>
      </trkpt>
      <trkpt lat="47.04446" lon="6.34381">
        <ele>743.8</ele>
        <time>2020-05-22T17:11:32Z</time>
      </trkpt>
      <trkpt lat="47.04447" lon="6.34378">
        <ele>743.8</ele>
        <time>2020-05-22T17:11:33Z</time>
      </trkpt>
      <trkpt lat="47.04448" lon="6.34375">
        <ele>744</ele>
        <time>2020-05-22T17:11:34Z</time>
      </trkpt>
      <trkpt lat="47.04449" lon="6.34372">
        <ele>744</ele>
        <time>2020-05-22T17:11:35Z</time>
      </trkpt>
      <trkpt lat="47.0445" lon="6.3437">
        <ele>744.2</ele>
        <time>2020-05-22T17:11:36Z</time>
      </trkpt>
      <trkpt lat="47.04451" lon="6.34367">
        <ele>744.2</ele>
        <time>2020-05-22T17:11:37Z</time>
      </trkpt>
      <trkpt lat="47.04451" lon="6.34364">
        <ele>744.2</ele>
        <time>2020-05-22T17:11:38Z</time>
      </trkpt>
      <trkpt lat="47.04452" lon="6.34361">
        <ele>744.6</ele>
        <time>2020-05-22T17:11:39Z</time>
      </trkpt>
      <trkpt lat="47.04453" lon="6.34358">
        <ele>744.6</ele>
        <time>2020-05-22T17:11:40Z</time>
      </trkpt>
      <trkpt lat="47.04453" lon="6.34355">
        <ele>744.6</ele>
        <time>2020-05-22T17:11:41Z</time>
      </trkpt>
      <trkpt lat="47.04454" lon="6.34352">
        <ele>744.6</ele>
        <time>2020-05-22T17:11:42Z</time>
      </trkpt>
      <trkpt lat="47.04455" lon="6.34349">
        <ele>744.6</ele>
        <time>2020-05-22T17:11:43Z</time>
      </trkpt>
      <trkpt lat="47.04456" lon="6.34346">
        <ele>744.8</ele>
        <time>2020-05-22T17:11:44Z</time>
      </trkpt>
      <trkpt lat="47.04456" lon="6.34342">
        <ele>744.8</ele>
        <time>2020-05-22T17:11:45Z</time>
      </trkpt>
      <trkpt lat="47.04457" lon="6.34339">
        <ele>744.8</ele>
        <time>2020-05-22T17:11:46Z</time>
      </trkpt>
      <trkpt lat="47.04458" lon="6.34336">
        <ele>744.8</ele>
        <time>2020-05-22T17:11:47Z</time>
      </trkpt>
      <trkpt lat="47.04458" lon="6.34332">
        <ele>745</ele>
        <time>2020-05-22T17:11:48Z</time>
      </trkpt>
      <trkpt lat="47.04459" lon="6.34329">
        <ele>745</ele>
        <time>2020-05-22T17:11:49Z</time>
      </trkpt>
      <trkpt lat="47.04459" lon="6.34326">
        <ele>745</ele>
        <time>2020-05-22T17:11:50Z</time>
      </trkpt>
      <trkpt lat="47.04459" lon="6.34322">
        <ele>745</ele>
        <time>2020-05-22T17:11:51Z</time>
      </trkpt>
      <trkpt lat="47.04459" lon="6.34318">
        <ele>745</ele>
        <time>2020-05-22T17:11:52Z</time>
      </trkpt>
      <trkpt lat="47.04459" lon="6.34315">
        <ele>745.2</ele>
        <time>2020-05-22T17:11:53Z</time>
      </trkpt>
      <trkpt lat="47.04458" lon="6.34311">
        <ele>745.2</ele>
        <time>2020-05-22T17:11:54Z</time>
      </trkpt>
      <trkpt lat="47.04458" lon="6.34307">
        <ele>745.2</ele>
        <time>2020-05-22T17:11:55Z</time>
      </trkpt>
      <trkpt lat="47.04457" lon="6.34303">
        <ele>745.2</ele>
        <time>2020-05-22T17:11:56Z</time>
      </trkpt>
      <trkpt lat="47.04457" lon="6.34298">
        <ele>745.2</ele>
        <time>2020-05-22T17:11:57Z</time>
      </trkpt>
      <trkpt lat="47.04456" lon="6.34294">
        <ele>745.2</ele>
        <time>2020-05-22T17:11:58Z</time>
      </trkpt>
      <trkpt lat="47.04455" lon="6.3429">
        <ele>745.2</ele>
        <time>2020-05-22T17:11:59Z</time>
      </trkpt>
      <trkpt lat="47.04454" lon="6.34286">
        <ele>745.2</ele>
        <time>2020-05-22T17:12:00Z</time>
      </trkpt>
      <trkpt lat="47.04452" lon="6.34282">
        <ele>745.2</ele>
        <time>2020-05-22T17:12:01Z</time>
      </trkpt>
      <trkpt lat="47.04451" lon="6.34278">
        <ele>745.2</ele>
        <time>2020-05-22T17:12:02Z</time>
      </trkpt>
      <trkpt lat="47.0445" lon="6.34273">
        <ele>745.2</ele>
        <time>2020-05-22T17:12:03Z</time>
      </trkpt>
      <trkpt lat="47.04449" lon="6.34269">
        <ele>745.2</ele>
        <time>2020-05-22T17:12:04Z</time>
      </trkpt>
      <trkpt lat="47.04447" lon="6.34265">
        <ele>745.2</ele>
        <time>2020-05-22T17:12:05Z</time>
      </trkpt>
      <trkpt lat="47.04445" lon="6.34261">
        <ele>745.2</ele>
        <time>2020-05-22T17:12:06Z</time>
      </trkpt>
      <trkpt lat="47.04443" lon="6.34256">
        <ele>745.2</ele>
        <time>2020-05-22T17:12:07Z</time>
      </trkpt>
      <trkpt lat="47.04442" lon="6.34252">
        <ele>745.2</ele>
        <time>2020-05-22T17:12:08Z</time>
      </trkpt>
      <trkpt lat="47.0444" lon="6.34248">
        <ele>745.2</ele>
        <time>2020-05-22T17:12:09Z</time>
      </trkpt>
      <trkpt lat="47.04439" lon="6.34243">
        <ele>745.2</ele>
        <time>2020-05-22T17:12:10Z</time>
      </trkpt>
      <trkpt lat="47.04437" lon="6.34239">
        <ele>745</ele>
        <time>2020-05-22T17:12:11Z</time>
      </trkpt>
      <trkpt lat="47.04436" lon="6.34235">
        <ele>745</ele>
        <time>2020-05-22T17:12:12Z</time>
      </trkpt>
      <trkpt lat="47.04435" lon="6.34231">
        <ele>745</ele>
        <time>2020-05-22T17:12:13Z</time>
      </trkpt>
      <trkpt lat="47.04434" lon="6.34228">
        <ele>745</ele>
        <time>2020-05-22T17:12:14Z</time>
      </trkpt>
      <trkpt lat="47.04433" lon="6.34225">
        <ele>745</ele>
        <time>2020-05-22T17:12:15Z</time>
      </trkpt>
      <trkpt lat="47.04433" lon="6.34223">
        <ele>744.8</ele>
        <time>2020-05-22T17:12:16Z</time>
      </trkpt>
      <trkpt lat="47.04433" lon="6.34221">
        <ele>744.8</ele>
        <time>2020-05-22T17:12:17Z</time>
      </trkpt>
      <trkpt lat="47.04432" lon="6.3422">
        <ele>744.8</ele>
        <time>2020-05-22T17:12:18Z</time>
      </trkpt>
      <trkpt lat="47.04432" lon="6.3422">
        <ele>744.8</ele>
        <time>2020-05-22T17:12:19Z</time>
      </trkpt>
      <trkpt lat="47.04431" lon="6.34217">
        <ele>744.4</ele>
        <time>2020-05-22T17:13:16Z</time>
      </trkpt>
      <trkpt lat="47.0443" lon="6.34214">
        <ele>744.4</ele>
        <time>2020-05-22T17:13:17Z</time>
      </trkpt>
      <trkpt lat="47.04428" lon="6.34212">
        <ele>744.2</ele>
        <time>2020-05-22T17:13:18Z</time>
      </trkpt>
      <trkpt lat="47.04426" lon="6.34209">
        <ele>744.2</ele>
        <time>2020-05-22T17:13:19Z</time>
      </trkpt>
      <trkpt lat="47.04424" lon="6.34204">
        <ele>744.2</ele>
        <time>2020-05-22T17:13:20Z</time>
      </trkpt>
      <trkpt lat="47.04423" lon="6.34199">
        <ele>744</ele>
        <time>2020-05-22T17:13:21Z</time>
      </trkpt>
      <trkpt lat="47.04421" lon="6.34192">
        <ele>743.8</ele>
        <time>2020-05-22T17:13:22Z</time>
      </trkpt>
      <trkpt lat="47.0442" lon="6.34186">
        <ele>743.8</ele>
        <time>2020-05-22T17:13:23Z</time>
      </trkpt>
      <trkpt lat="47.04418" lon="6.34179">
        <ele>743.2</ele>
        <time>2020-05-22T17:13:24Z</time>
      </trkpt>
      <trkpt lat="47.04416" lon="6.34172">
        <ele>742.8</ele>
        <time>2020-05-22T17:13:25Z</time>
      </trkpt>
      <trkpt lat="47.04414" lon="6.34164">
        <ele>742.4</ele>
        <time>2020-05-22T17:13:26Z</time>
      </trkpt>
      <trkpt lat="47.04412" lon="6.34156">
        <ele>741.8</ele>
        <time>2020-05-22T17:13:27Z</time>
      </trkpt>
      <trkpt lat="47.0441" lon="6.34148">
        <ele>741.2</ele>
        <time>2020-05-22T17:13:28Z</time>
      </trkpt>
      <trkpt lat="47.04407" lon="6.3414">
        <ele>740.6</ele>
        <time>2020-05-22T17:13:29Z</time>
      </trkpt>
      <trkpt lat="47.04404" lon="6.34132">
        <ele>739.8</ele>
        <time>2020-05-22T17:13:30Z</time>
      </trkpt>
      <trkpt lat="47.044" lon="6.34125">
        <ele>739</ele>
        <time>2020-05-22T17:13:31Z</time>
      </trkpt>
      <trkpt lat="47.04396" lon="6.34117">
        <ele>738.4</ele>
        <time>2020-05-22T17:13:32Z</time>
      </trkpt>
      <trkpt lat="47.04391" lon="6.3411">
        <ele>737.8</ele>
        <time>2020-05-22T17:13:33Z</time>
      </trkpt>
      <trkpt lat="47.04385" lon="6.34103">
        <ele>737</ele>
        <time>2020-05-22T17:13:34Z</time>
      </trkpt>
      <trkpt lat="47.04379" lon="6.34096">
        <ele>736.2</ele>
        <time>2020-05-22T17:13:35Z</time>
      </trkpt>
      <trkpt lat="47.04373" lon="6.34089">
        <ele>735.6</ele>
        <time>2020-05-22T17:13:36Z</time>
      </trkpt>
      <trkpt lat="47.04368" lon="6.34081">
        <ele>734.8</ele>
        <time>2020-05-22T17:13:37Z</time>
      </trkpt>
      <trkpt lat="47.04362" lon="6.34073">
        <ele>734.2</ele>
        <time>2020-05-22T17:13:38Z</time>
      </trkpt>
      <trkpt lat="47.04357" lon="6.34066">
        <ele>733.6</ele>
        <time>2020-05-22T17:13:39Z</time>
      </trkpt>
      <trkpt lat="47.04353" lon="6.34059">
        <ele>733</ele>
        <time>2020-05-22T17:13:40Z</time>
      </trkpt>
      <trkpt lat="47.04348" lon="6.34052">
        <ele>732.4</ele>
        <time>2020-05-22T17:13:41Z</time>
      </trkpt>
      <trkpt lat="47.04343" lon="6.34044">
        <ele>731.8</ele>
        <time>2020-05-22T17:13:42Z</time>
      </trkpt>
      <trkpt lat="47.04337" lon="6.34035">
        <ele>731.2</ele>
        <time>2020-05-22T17:13:43Z</time>
      </trkpt>
      <trkpt lat="47.04331" lon="6.34027">
        <ele>730.6</ele>
        <time>2020-05-22T17:13:44Z</time>
      </trkpt>
      <trkpt lat="47.04325" lon="6.3402">
        <ele>730.2</ele>
        <time>2020-05-22T17:13:45Z</time>
      </trkpt>
      <trkpt lat="47.04319" lon="6.34012">
        <ele>729.6</ele>
        <time>2020-05-22T17:13:46Z</time>
      </trkpt>
      <trkpt lat="47.04313" lon="6.34005">
        <ele>728.8</ele>
        <time>2020-05-22T17:13:47Z</time>
      </trkpt>
      <trkpt lat="47.04308" lon="6.33997">
        <ele>728.2</ele>
        <time>2020-05-22T17:13:48Z</time>
      </trkpt>
      <trkpt lat="47.04302" lon="6.3399">
        <ele>727.4</ele>
        <time>2020-05-22T17:13:49Z</time>
      </trkpt>
      <trkpt lat="47.04297" lon="6.33981">
        <ele>726.4</ele>
        <time>2020-05-22T17:13:50Z</time>
      </trkpt>
      <trkpt lat="47.04292" lon="6.33973">
        <ele>725.6</ele>
        <time>2020-05-22T17:13:51Z</time>
      </trkpt>
      <trkpt lat="47.04287" lon="6.33964">
        <ele>724.4</ele>
        <time>2020-05-22T17:13:52Z</time>
      </trkpt>
      <trkpt lat="47.04281" lon="6.33955">
        <ele>723.4</ele>
        <time>2020-05-22T17:13:53Z</time>
      </trkpt>
      <trkpt lat="47.04275" lon="6.33945">
        <ele>722.4</ele>
        <time>2020-05-22T17:13:54Z</time>
      </trkpt>
      <trkpt lat="47.04269" lon="6.33936">
        <ele>721.2</ele>
        <time>2020-05-22T17:13:55Z</time>
      </trkpt>
      <trkpt lat="47.04262" lon="6.33925">
        <ele>719.8</ele>
        <time>2020-05-22T17:13:56Z</time>
      </trkpt>
      <trkpt lat="47.04255" lon="6.33915">
        <ele>718.6</ele>
        <time>2020-05-22T17:13:57Z</time>
      </trkpt>
      <trkpt lat="47.04248" lon="6.33905">
        <ele>717.4</ele>
        <time>2020-05-22T17:13:58Z</time>
      </trkpt>
      <trkpt lat="47.04242" lon="6.33895">
        <ele>716.2</ele>
        <time>2020-05-22T17:13:59Z</time>
      </trkpt>
      <trkpt lat="47.04235" lon="6.33885">
        <ele>715</ele>
        <time>2020-05-22T17:14:00Z</time>
      </trkpt>
      <trkpt lat="47.04229" lon="6.33875">
        <ele>713.6</ele>
        <time>2020-05-22T17:14:01Z</time>
      </trkpt>
      <trkpt lat="47.04223" lon="6.33865">
        <ele>712.4</ele>
        <time>2020-05-22T17:14:02Z</time>
      </trkpt>
      <trkpt lat="47.04216" lon="6.33855">
        <ele>711.2</ele>
        <time>2020-05-22T17:14:03Z</time>
      </trkpt>
      <trkpt lat="47.04209" lon="6.33844">
        <ele>710</ele>
        <time>2020-05-22T17:14:04Z</time>
      </trkpt>
      <trkpt lat="47.042" lon="6.33832">
        <ele>709</ele>
        <time>2020-05-22T17:14:05Z</time>
      </trkpt>
      <trkpt lat="47.04191" lon="6.33821">
        <ele>708</ele>
        <time>2020-05-22T17:14:06Z</time>
      </trkpt>
      <trkpt lat="47.04183" lon="6.3381">
        <ele>707.2</ele>
        <time>2020-05-22T17:14:07Z</time>
      </trkpt>
      <trkpt lat="47.04174" lon="6.33801">
        <ele>706.4</ele>
        <time>2020-05-22T17:14:08Z</time>
      </trkpt>
      <trkpt lat="47.04166" lon="6.33793">
        <ele>705.8</ele>
        <time>2020-05-22T17:14:09Z</time>
      </trkpt>
      <trkpt lat="47.04159" lon="6.33784">
        <ele>705</ele>
        <time>2020-05-22T17:14:10Z</time>
      </trkpt>
      <trkpt lat="47.04151" lon="6.33775">
        <ele>704.4</ele>
        <time>2020-05-22T17:14:11Z</time>
      </trkpt>
      <trkpt lat="47.04144" lon="6.33766">
        <ele>703.6</ele>
        <time>2020-05-22T17:14:12Z</time>
      </trkpt>
      <trkpt lat="47.04137" lon="6.33755">
        <ele>703</ele>
        <time>2020-05-22T17:14:13Z</time>
      </trkpt>
      <trkpt lat="47.0413" lon="6.33744">
        <ele>702.2</ele>
        <time>2020-05-22T17:14:14Z</time>
      </trkpt>
      <trkpt lat="47.04122" lon="6.33732">
        <ele>701.6</ele>
        <time>2020-05-22T17:14:15Z</time>
      </trkpt>
      <trkpt lat="47.04114" lon="6.33721">
        <ele>700.8</ele>
        <time>2020-05-22T17:14:16Z</time>
      </trkpt>
      <trkpt lat="47.04106" lon="6.3371">
        <ele>699.8</ele>
        <time>2020-05-22T17:14:17Z</time>
      </trkpt>
      <trkpt lat="47.04098" lon="6.33697">
        <ele>699</ele>
        <time>2020-05-22T17:14:18Z</time>
      </trkpt>
      <trkpt lat="47.04091" lon="6.33684">
        <ele>698.2</ele>
        <time>2020-05-22T17:14:19Z</time>
      </trkpt>
      <trkpt lat="47.04084" lon="6.33672">
        <ele>697.4</ele>
        <time>2020-05-22T17:14:20Z</time>
      </trkpt>
      <trkpt lat="47.04077" lon="6.33659">
        <ele>696.6</ele>
        <time>2020-05-22T17:14:21Z</time>
      </trkpt>
      <trkpt lat="47.0407" lon="6.33646">
        <ele>695.6</ele>
        <time>2020-05-22T17:14:22Z</time>
      </trkpt>
      <trkpt lat="47.04062" lon="6.33633">
        <ele>694.8</ele>
        <time>2020-05-22T17:14:23Z</time>
      </trkpt>
      <trkpt lat="47.04053" lon="6.33619">
        <ele>693.8</ele>
        <time>2020-05-22T17:14:24Z</time>
      </trkpt>
      <trkpt lat="47.04044" lon="6.33605">
        <ele>693</ele>
        <time>2020-05-22T17:14:25Z</time>
      </trkpt>
      <trkpt lat="47.04035" lon="6.33593">
        <ele>692.4</ele>
        <time>2020-05-22T17:14:26Z</time>
      </trkpt>
      <trkpt lat="47.04026" lon="6.33581">
        <ele>691.6</ele>
        <time>2020-05-22T17:14:27Z</time>
      </trkpt>
      <trkpt lat="47.04017" lon="6.3357">
        <ele>691</ele>
        <time>2020-05-22T17:14:28Z</time>
      </trkpt>
      <trkpt lat="47.04008" lon="6.33559">
        <ele>690.4</ele>
        <time>2020-05-22T17:14:29Z</time>
      </trkpt>
      <trkpt lat="47.04" lon="6.33548">
        <ele>689.6</ele>
        <time>2020-05-22T17:14:30Z</time>
      </trkpt>
      <trkpt lat="47.03991" lon="6.33536">
        <ele>688.8</ele>
        <time>2020-05-22T17:14:31Z</time>
      </trkpt>
      <trkpt lat="47.03983" lon="6.33525">
        <ele>688.2</ele>
        <time>2020-05-22T17:14:32Z</time>
      </trkpt>
      <trkpt lat="47.03975" lon="6.33513">
        <ele>687.4</ele>
        <time>2020-05-22T17:14:33Z</time>
      </trkpt>
      <trkpt lat="47.03966" lon="6.335">
        <ele>686.4</ele>
        <time>2020-05-22T17:14:34Z</time>
      </trkpt>
      <trkpt lat="47.03957" lon="6.33486">
        <ele>685.4</ele>
        <time>2020-05-22T17:14:35Z</time>
      </trkpt>
      <trkpt lat="47.03948" lon="6.33473">
        <ele>684.4</ele>
        <time>2020-05-22T17:14:36Z</time>
      </trkpt>
      <trkpt lat="47.03939" lon="6.3346">
        <ele>683.8</ele>
        <time>2020-05-22T17:14:37Z</time>
      </trkpt>
      <trkpt lat="47.0393" lon="6.33448">
        <ele>683</ele>
        <time>2020-05-22T17:14:38Z</time>
      </trkpt>
      <trkpt lat="47.03921" lon="6.33436">
        <ele>682.2</ele>
        <time>2020-05-22T17:14:39Z</time>
      </trkpt>
      <trkpt lat="47.03913" lon="6.33425">
        <ele>681.4</ele>
        <time>2020-05-22T17:14:40Z</time>
      </trkpt>
      <trkpt lat="47.03904" lon="6.33415">
        <ele>680.6</ele>
        <time>2020-05-22T17:14:41Z</time>
      </trkpt>
      <trkpt lat="47.03896" lon="6.33405">
        <ele>679.8</ele>
        <time>2020-05-22T17:14:42Z</time>
      </trkpt>
      <trkpt lat="47.03889" lon="6.33397">
        <ele>679.2</ele>
        <time>2020-05-22T17:14:43Z</time>
      </trkpt>
      <trkpt lat="47.03883" lon="6.3339">
        <ele>678.6</ele>
        <time>2020-05-22T17:14:44Z</time>
      </trkpt>
      <trkpt lat="47.03877" lon="6.33384">
        <ele>678</ele>
        <time>2020-05-22T17:14:45Z</time>
      </trkpt>
      <trkpt lat="47.03872" lon="6.33376">
        <ele>677.6</ele>
        <time>2020-05-22T17:14:46Z</time>
      </trkpt>
      <trkpt lat="47.03868" lon="6.33367">
        <ele>677.2</ele>
        <time>2020-05-22T17:14:47Z</time>
      </trkpt>
      <trkpt lat="47.03866" lon="6.33358">
        <ele>677</ele>
        <time>2020-05-22T17:14:48Z</time>
      </trkpt>
      <trkpt lat="47.03866" lon="6.33348">
        <ele>676.6</ele>
        <time>2020-05-22T17:14:49Z</time>
      </trkpt>
      <trkpt lat="47.03868" lon="6.33338">
        <ele>676.6</ele>
        <time>2020-05-22T17:14:50Z</time>
      </trkpt>
      <trkpt lat="47.03869" lon="6.33329">
        <ele>676.4</ele>
        <time>2020-05-22T17:14:51Z</time>
      </trkpt>
      <trkpt lat="47.0387" lon="6.3332">
        <ele>676.4</ele>
        <time>2020-05-22T17:14:52Z</time>
      </trkpt>
      <trkpt lat="47.0387" lon="6.33312">
        <ele>676.2</ele>
        <time>2020-05-22T17:14:53Z</time>
      </trkpt>
      <trkpt lat="47.0387" lon="6.33304">
        <ele>676.2</ele>
        <time>2020-05-22T17:14:54Z</time>
      </trkpt>
      <trkpt lat="47.03868" lon="6.33298">
        <ele>676.2</ele>
        <time>2020-05-22T17:14:55Z</time>
      </trkpt>
      <trkpt lat="47.03866" lon="6.33293">
        <ele>676.2</ele>
        <time>2020-05-22T17:14:56Z</time>
      </trkpt>
      <trkpt lat="47.03864" lon="6.33288">
        <ele>676.4</ele>
        <time>2020-05-22T17:14:57Z</time>
      </trkpt>
      <trkpt lat="47.03861" lon="6.33284">
        <ele>676.4</ele>
        <time>2020-05-22T17:14:58Z</time>
      </trkpt>
      <trkpt lat="47.03859" lon="6.3328">
        <ele>676.6</ele>
        <time>2020-05-22T17:14:59Z</time>
      </trkpt>
      <trkpt lat="47.03857" lon="6.33276">
        <ele>676.6</ele>
        <time>2020-05-22T17:15:00Z</time>
      </trkpt>
      <trkpt lat="47.03855" lon="6.33272">
        <ele>677</ele>
        <time>2020-05-22T17:15:01Z</time>
      </trkpt>
      <trkpt lat="47.03853" lon="6.33268">
        <ele>677</ele>
        <time>2020-05-22T17:15:02Z</time>
      </trkpt>
      <trkpt lat="47.0385" lon="6.33265">
        <ele>677.2</ele>
        <time>2020-05-22T17:15:03Z</time>
      </trkpt>
      <trkpt lat="47.03847" lon="6.33262">
        <ele>677.2</ele>
        <time>2020-05-22T17:15:04Z</time>
      </trkpt>
      <trkpt lat="47.03844" lon="6.33258">
        <ele>677.4</ele>
        <time>2020-05-22T17:15:05Z</time>
      </trkpt>
      <trkpt lat="47.03842" lon="6.33255">
        <ele>677.4</ele>
        <time>2020-05-22T17:15:06Z</time>
      </trkpt>
      <trkpt lat="47.03839" lon="6.33252">
        <ele>677.8</ele>
        <time>2020-05-22T17:15:07Z</time>
      </trkpt>
      <trkpt lat="47.03836" lon="6.33248">
        <ele>677.8</ele>
        <time>2020-05-22T17:15:08Z</time>
      </trkpt>
      <trkpt lat="47.03833" lon="6.33245">
        <ele>678</ele>
        <time>2020-05-22T17:15:09Z</time>
      </trkpt>
      <trkpt lat="47.03831" lon="6.33241">
        <ele>678</ele>
        <time>2020-05-22T17:15:10Z</time>
      </trkpt>
      <trkpt lat="47.03828" lon="6.33238">
        <ele>678.2</ele>
        <time>2020-05-22T17:15:11Z</time>
      </trkpt>
      <trkpt lat="47.03825" lon="6.33234">
        <ele>678.2</ele>
        <time>2020-05-22T17:15:12Z</time>
      </trkpt>
      <trkpt lat="47.03822" lon="6.33231">
        <ele>678.2</ele>
        <time>2020-05-22T17:15:13Z</time>
      </trkpt>
      <trkpt lat="47.0382" lon="6.33227">
        <ele>678.6</ele>
        <time>2020-05-22T17:15:14Z</time>
      </trkpt>
      <trkpt lat="47.03817" lon="6.33223">
        <ele>678.6</ele>
        <time>2020-05-22T17:15:15Z</time>
      </trkpt>
      <trkpt lat="47.03815" lon="6.3322">
        <ele>678.8</ele>
        <time>2020-05-22T17:15:16Z</time>
      </trkpt>
      <trkpt lat="47.03812" lon="6.33216">
        <ele>678.8</ele>
        <time>2020-05-22T17:15:17Z</time>
      </trkpt>
      <trkpt lat="47.03809" lon="6.33213">
        <ele>679</ele>
        <time>2020-05-22T17:15:18Z</time>
      </trkpt>
      <trkpt lat="47.03807" lon="6.3321">
        <ele>679</ele>
        <time>2020-05-22T17:15:19Z</time>
      </trkpt>
      <trkpt lat="47.03804" lon="6.33207">
        <ele>679.4</ele>
        <time>2020-05-22T17:15:20Z</time>
      </trkpt>
      <trkpt lat="47.03802" lon="6.33204">
        <ele>679.4</ele>
        <time>2020-05-22T17:15:21Z</time>
      </trkpt>
      <trkpt lat="47.038" lon="6.33202">
        <ele>679.8</ele>
        <time>2020-05-22T17:15:22Z</time>
      </trkpt>
      <trkpt lat="47.03798" lon="6.33199">
        <ele>679.8</ele>
        <time>2020-05-22T17:15:23Z</time>
      </trkpt>
      <trkpt lat="47.03796" lon="6.33197">
        <ele>680</ele>
        <time>2020-05-22T17:15:24Z</time>
      </trkpt>
      <trkpt lat="47.03794" lon="6.33194">
        <ele>680</ele>
        <time>2020-05-22T17:15:25Z</time>
      </trkpt>
      <trkpt lat="47.03792" lon="6.33192">
        <ele>680.2</ele>
        <time>2020-05-22T17:15:26Z</time>
      </trkpt>
      <trkpt lat="47.0379" lon="6.33189">
        <ele>680.2</ele>
        <time>2020-05-22T17:15:27Z</time>
      </trkpt>
      <trkpt lat="47.03788" lon="6.33186">
        <ele>680.6</ele>
        <time>2020-05-22T17:15:28Z</time>
      </trkpt>
      <trkpt lat="47.03786" lon="6.33183">
        <ele>680.6</ele>
        <time>2020-05-22T17:15:29Z</time>
      </trkpt>
      <trkpt lat="47.03784" lon="6.3318">
        <ele>680.6</ele>
        <time>2020-05-22T17:15:30Z</time>
      </trkpt>
      <trkpt lat="47.03781" lon="6.33177">
        <ele>680.6</ele>
        <time>2020-05-22T17:15:31Z</time>
      </trkpt>
      <trkpt lat="47.03779" lon="6.33173">
        <ele>680.6</ele>
        <time>2020-05-22T17:15:32Z</time>
      </trkpt>
      <trkpt lat="47.03776" lon="6.33171">
        <ele>680.6</ele>
        <time>2020-05-22T17:15:33Z</time>
      </trkpt>
      <trkpt lat="47.03773" lon="6.33167">
        <ele>680.6</ele>
        <time>2020-05-22T17:15:34Z</time>
      </trkpt>
      <trkpt lat="47.0377" lon="6.33164">
        <ele>680.8</ele>
        <time>2020-05-22T17:15:35Z</time>
      </trkpt>
      <trkpt lat="47.03767" lon="6.33161">
        <ele>680.8</ele>
        <time>2020-05-22T17:15:36Z</time>
      </trkpt>
      <trkpt lat="47.03765" lon="6.33158">
        <ele>680.8</ele>
        <time>2020-05-22T17:15:37Z</time>
      </trkpt>
      <trkpt lat="47.03762" lon="6.33155">
        <ele>680.8</ele>
        <time>2020-05-22T17:15:38Z</time>
      </trkpt>
      <trkpt lat="47.0376" lon="6.33151">
        <ele>681</ele>
        <time>2020-05-22T17:15:39Z</time>
      </trkpt>
      <trkpt lat="47.03758" lon="6.33149">
        <ele>681</ele>
        <time>2020-05-22T17:15:40Z</time>
      </trkpt>
      <trkpt lat="47.03755" lon="6.33146">
        <ele>681</ele>
        <time>2020-05-22T17:15:41Z</time>
      </trkpt>
      <trkpt lat="47.03752" lon="6.33143">
        <ele>681</ele>
        <time>2020-05-22T17:15:42Z</time>
      </trkpt>
      <trkpt lat="47.0375" lon="6.3314">
        <ele>681</ele>
        <time>2020-05-22T17:15:43Z</time>
      </trkpt>
      <trkpt lat="47.03748" lon="6.33138">
        <ele>681.4</ele>
        <time>2020-05-22T17:15:44Z</time>
      </trkpt>
      <trkpt lat="47.03746" lon="6.33134">
        <ele>681.4</ele>
        <time>2020-05-22T17:15:45Z</time>
      </trkpt>
      <trkpt lat="47.03744" lon="6.33131">
        <ele>681.4</ele>
        <time>2020-05-22T17:15:46Z</time>
      </trkpt>
      <trkpt lat="47.03742" lon="6.33128">
        <ele>681.6</ele>
        <time>2020-05-22T17:15:47Z</time>
      </trkpt>
      <trkpt lat="47.0374" lon="6.33124">
        <ele>681.6</ele>
        <time>2020-05-22T17:15:48Z</time>
      </trkpt>
      <trkpt lat="47.03738" lon="6.33121">
        <ele>681.6</ele>
        <time>2020-05-22T17:15:49Z</time>
      </trkpt>
      <trkpt lat="47.03736" lon="6.33118">
        <ele>681.6</ele>
        <time>2020-05-22T17:15:50Z</time>
      </trkpt>
      <trkpt lat="47.03734" lon="6.33115">
        <ele>681.6</ele>
        <time>2020-05-22T17:15:51Z</time>
      </trkpt>
      <trkpt lat="47.03732" lon="6.33112">
        <ele>681.6</ele>
        <time>2020-05-22T17:15:52Z</time>
      </trkpt>
      <trkpt lat="47.03731" lon="6.33109">
        <ele>681.6</ele>
        <time>2020-05-22T17:15:53Z</time>
      </trkpt>
      <trkpt lat="47.03729" lon="6.33105">
        <ele>681.6</ele>
        <time>2020-05-22T17:15:54Z</time>
      </trkpt>
      <trkpt lat="47.03727" lon="6.33102">
        <ele>681.6</ele>
        <time>2020-05-22T17:15:55Z</time>
      </trkpt>
      <trkpt lat="47.03725" lon="6.33098">
        <ele>681.8</ele>
        <time>2020-05-22T17:15:56Z</time>
      </trkpt>
      <trkpt lat="47.03723" lon="6.33094">
        <ele>681.8</ele>
        <time>2020-05-22T17:15:57Z</time>
      </trkpt>
      <trkpt lat="47.03722" lon="6.3309">
        <ele>681.8</ele>
        <time>2020-05-22T17:15:58Z</time>
      </trkpt>
      <trkpt lat="47.0372" lon="6.33087">
        <ele>681.8</ele>
        <time>2020-05-22T17:15:59Z</time>
      </trkpt>
      <trkpt lat="47.03718" lon="6.33083">
        <ele>681.8</ele>
        <time>2020-05-22T17:16:00Z</time>
      </trkpt>
      <trkpt lat="47.03716" lon="6.33079">
        <ele>681.8</ele>
        <time>2020-05-22T17:16:01Z</time>
      </trkpt>
      <trkpt lat="47.03714" lon="6.33075">
        <ele>681.8</ele>
        <time>2020-05-22T17:16:02Z</time>
      </trkpt>
      <trkpt lat="47.03712" lon="6.3307">
        <ele>681.8</ele>
        <time>2020-05-22T17:16:03Z</time>
      </trkpt>
      <trkpt lat="47.03711" lon="6.33065">
        <ele>681.8</ele>
        <time>2020-05-22T17:16:04Z</time>
      </trkpt>
      <trkpt lat="47.03709" lon="6.33061">
        <ele>681.8</ele>
        <time>2020-05-22T17:16:05Z</time>
      </trkpt>
      <trkpt lat="47.03707" lon="6.33056">
        <ele>681.8</ele>
        <time>2020-05-22T17:16:06Z</time>
      </trkpt>
      <trkpt lat="47.03706" lon="6.33051">
        <ele>681.8</ele>
        <time>2020-05-22T17:16:07Z</time>
      </trkpt>
      <trkpt lat="47.03704" lon="6.33046">
        <ele>681.6</ele>
        <time>2020-05-22T17:16:08Z</time>
      </trkpt>
      <trkpt lat="47.03702" lon="6.33041">
        <ele>681.6</ele>
        <time>2020-05-22T17:16:09Z</time>
      </trkpt>
      <trkpt lat="47.03701" lon="6.33036">
        <ele>681.6</ele>
        <time>2020-05-22T17:16:10Z</time>
      </trkpt>
      <trkpt lat="47.03699" lon="6.33032">
        <ele>681.4</ele>
        <time>2020-05-22T17:16:11Z</time>
      </trkpt>
      <trkpt lat="47.03697" lon="6.33027">
        <ele>681.4</ele>
        <time>2020-05-22T17:16:12Z</time>
      </trkpt>
      <trkpt lat="47.03695" lon="6.33022">
        <ele>681.2</ele>
        <time>2020-05-22T17:16:13Z</time>
      </trkpt>
      <trkpt lat="47.03694" lon="6.33016">
        <ele>681.2</ele>
        <time>2020-05-22T17:16:14Z</time>
      </trkpt>
      <trkpt lat="47.03693" lon="6.33011">
        <ele>681.2</ele>
        <time>2020-05-22T17:16:15Z</time>
      </trkpt>
      <trkpt lat="47.03692" lon="6.33005">
        <ele>681.2</ele>
        <time>2020-05-22T17:16:16Z</time>
      </trkpt>
      <trkpt lat="47.03691" lon="6.32999">
        <ele>681.2</ele>
        <time>2020-05-22T17:16:17Z</time>
      </trkpt>
      <trkpt lat="47.03689" lon="6.32993">
        <ele>681.2</ele>
        <time>2020-05-22T17:16:18Z</time>
      </trkpt>
      <trkpt lat="47.03688" lon="6.32987">
        <ele>681.2</ele>
        <time>2020-05-22T17:16:19Z</time>
      </trkpt>
      <trkpt lat="47.03686" lon="6.32981">
        <ele>681.2</ele>
        <time>2020-05-22T17:16:20Z</time>
      </trkpt>
      <trkpt lat="47.03685" lon="6.32975">
        <ele>681</ele>
        <time>2020-05-22T17:16:21Z</time>
      </trkpt>
      <trkpt lat="47.03684" lon="6.32969">
        <ele>681</ele>
        <time>2020-05-22T17:16:22Z</time>
      </trkpt>
      <trkpt lat="47.03683" lon="6.32962">
        <ele>680.8</ele>
        <time>2020-05-22T17:16:23Z</time>
      </trkpt>
      <trkpt lat="47.03682" lon="6.32956">
        <ele>680.8</ele>
        <time>2020-05-22T17:16:24Z</time>
      </trkpt>
      <trkpt lat="47.03681" lon="6.32949">
        <ele>680.8</ele>
        <time>2020-05-22T17:16:25Z</time>
      </trkpt>
      <trkpt lat="47.0368" lon="6.32942">
        <ele>680.8</ele>
        <time>2020-05-22T17:16:26Z</time>
      </trkpt>
      <trkpt lat="47.03679" lon="6.32935">
        <ele>680.8</ele>
        <time>2020-05-22T17:16:27Z</time>
      </trkpt>
      <trkpt lat="47.03678" lon="6.32928">
        <ele>680.8</ele>
        <time>2020-05-22T17:16:28Z</time>
      </trkpt>
      <trkpt lat="47.03677" lon="6.32922">
        <ele>680.8</ele>
        <time>2020-05-22T17:16:29Z</time>
      </trkpt>
      <trkpt lat="47.03677" lon="6.32915">
        <ele>680.8</ele>
        <time>2020-05-22T17:16:30Z</time>
      </trkpt>
      <trkpt lat="47.03676" lon="6.32909">
        <ele>680.8</ele>
        <time>2020-05-22T17:16:31Z</time>
      </trkpt>
      <trkpt lat="47.03675" lon="6.32903">
        <ele>680.8</ele>
        <time>2020-05-22T17:16:32Z</time>
      </trkpt>
      <trkpt lat="47.03675" lon="6.32898">
        <ele>680.8</ele>
        <time>2020-05-22T17:16:33Z</time>
      </trkpt>
      <trkpt lat="47.03674" lon="6.32893">
        <ele>681</ele>
        <time>2020-05-22T17:16:34Z</time>
      </trkpt>
      <trkpt lat="47.03674" lon="6.32888">
        <ele>681</ele>
        <time>2020-05-22T17:16:35Z</time>
      </trkpt>
      <trkpt lat="47.03674" lon="6.32883">
        <ele>681.2</ele>
        <time>2020-05-22T17:16:36Z</time>
      </trkpt>
      <trkpt lat="47.03673" lon="6.32878">
        <ele>681.2</ele>
        <time>2020-05-22T17:16:37Z</time>
      </trkpt>
      <trkpt lat="47.03673" lon="6.32873">
        <ele>681.2</ele>
        <time>2020-05-22T17:16:38Z</time>
      </trkpt>
      <trkpt lat="47.03673" lon="6.32868">
        <ele>681.2</ele>
        <time>2020-05-22T17:16:39Z</time>
      </trkpt>
      <trkpt lat="47.03673" lon="6.32864">
        <ele>681.4</ele>
        <time>2020-05-22T17:16:40Z</time>
      </trkpt>
      <trkpt lat="47.03673" lon="6.3286">
        <ele>681.4</ele>
        <time>2020-05-22T17:16:41Z</time>
      </trkpt>
      <trkpt lat="47.03673" lon="6.32857">
        <ele>681.8</ele>
        <time>2020-05-22T17:16:42Z</time>
      </trkpt>
      <trkpt lat="47.03673" lon="6.32853">
        <ele>681.8</ele>
        <time>2020-05-22T17:16:43Z</time>
      </trkpt>
      <trkpt lat="47.03672" lon="6.3285">
        <ele>681.8</ele>
        <time>2020-05-22T17:16:44Z</time>
      </trkpt>
      <trkpt lat="47.03672" lon="6.32846">
        <ele>682</ele>
        <time>2020-05-22T17:16:45Z</time>
      </trkpt>
      <trkpt lat="47.03672" lon="6.32842">
        <ele>682</ele>
        <time>2020-05-22T17:16:46Z</time>
      </trkpt>
      <trkpt lat="47.03671" lon="6.32838">
        <ele>682</ele>
        <time>2020-05-22T17:16:47Z</time>
      </trkpt>
      <trkpt lat="47.03671" lon="6.32834">
        <ele>682</ele>
        <time>2020-05-22T17:16:48Z</time>
      </trkpt>
      <trkpt lat="47.0367" lon="6.3283">
        <ele>682.4</ele>
        <time>2020-05-22T17:16:49Z</time>
      </trkpt>
      <trkpt lat="47.0367" lon="6.32826">
        <ele>682.4</ele>
        <time>2020-05-22T17:16:50Z</time>
      </trkpt>
      <trkpt lat="47.03669" lon="6.32822">
        <ele>682.4</ele>
        <time>2020-05-22T17:16:51Z</time>
      </trkpt>
      <trkpt lat="47.03668" lon="6.32817">
        <ele>682.4</ele>
        <time>2020-05-22T17:16:52Z</time>
      </trkpt>
      <trkpt lat="47.03667" lon="6.32813">
        <ele>682.6</ele>
        <time>2020-05-22T17:16:53Z</time>
      </trkpt>
      <trkpt lat="47.03666" lon="6.32809">
        <ele>682.6</ele>
        <time>2020-05-22T17:16:54Z</time>
      </trkpt>
      <trkpt lat="47.03665" lon="6.32805">
        <ele>682.6</ele>
        <time>2020-05-22T17:16:55Z</time>
      </trkpt>
      <trkpt lat="47.03664" lon="6.32801">
        <ele>682.8</ele>
        <time>2020-05-22T17:16:56Z</time>
      </trkpt>
      <trkpt lat="47.03663" lon="6.32797">
        <ele>682.8</ele>
        <time>2020-05-22T17:16:57Z</time>
      </trkpt>
      <trkpt lat="47.03662" lon="6.32793">
        <ele>682.8</ele>
        <time>2020-05-22T17:16:58Z</time>
      </trkpt>
      <trkpt lat="47.03661" lon="6.32789">
        <ele>682.8</ele>
        <time>2020-05-22T17:16:59Z</time>
      </trkpt>
      <trkpt lat="47.0366" lon="6.32785">
        <ele>682.8</ele>
        <time>2020-05-22T17:17:00Z</time>
      </trkpt>
      <trkpt lat="47.03659" lon="6.3278">
        <ele>682.8</ele>
        <time>2020-05-22T17:17:01Z</time>
      </trkpt>
      <trkpt lat="47.03657" lon="6.32776">
        <ele>682.8</ele>
        <time>2020-05-22T17:17:02Z</time>
      </trkpt>
      <trkpt lat="47.03656" lon="6.32771">
        <ele>682.8</ele>
        <time>2020-05-22T17:17:03Z</time>
      </trkpt>
      <trkpt lat="47.03654" lon="6.32766">
        <ele>682.8</ele>
        <time>2020-05-22T17:17:04Z</time>
      </trkpt>
      <trkpt lat="47.03653" lon="6.32761">
        <ele>682.8</ele>
        <time>2020-05-22T17:17:05Z</time>
      </trkpt>
      <trkpt lat="47.03652" lon="6.32756">
        <ele>682.8</ele>
        <time>2020-05-22T17:17:06Z</time>
      </trkpt>
      <trkpt lat="47.03651" lon="6.32752">
        <ele>682.8</ele>
        <time>2020-05-22T17:17:07Z</time>
      </trkpt>
      <trkpt lat="47.0365" lon="6.32748">
        <ele>682.8</ele>
        <time>2020-05-22T17:17:08Z</time>
      </trkpt>
      <trkpt lat="47.03648" lon="6.32744">
        <ele>682.8</ele>
        <time>2020-05-22T17:17:09Z</time>
      </trkpt>
      <trkpt lat="47.03646" lon="6.3274">
        <ele>682.8</ele>
        <time>2020-05-22T17:17:10Z</time>
      </trkpt>
      <trkpt lat="47.03644" lon="6.32735">
        <ele>682.6</ele>
        <time>2020-05-22T17:17:11Z</time>
      </trkpt>
      <trkpt lat="47.03642" lon="6.3273">
        <ele>682.6</ele>
        <time>2020-05-22T17:17:12Z</time>
      </trkpt>
      <trkpt lat="47.03639" lon="6.32725">
        <ele>682.2</ele>
        <time>2020-05-22T17:17:13Z</time>
      </trkpt>
      <trkpt lat="47.03636" lon="6.3272">
        <ele>682.2</ele>
        <time>2020-05-22T17:17:14Z</time>
      </trkpt>
      <trkpt lat="47.03634" lon="6.32715">
        <ele>682</ele>
        <time>2020-05-22T17:17:15Z</time>
      </trkpt>
      <trkpt lat="47.03631" lon="6.3271">
        <ele>682</ele>
        <time>2020-05-22T17:17:16Z</time>
      </trkpt>
      <trkpt lat="47.03629" lon="6.32704">
        <ele>681.6</ele>
        <time>2020-05-22T17:17:17Z</time>
      </trkpt>
      <trkpt lat="47.03627" lon="6.32699">
        <ele>681.6</ele>
        <time>2020-05-22T17:17:18Z</time>
      </trkpt>
      <trkpt lat="47.03624" lon="6.32693">
        <ele>681.4</ele>
        <time>2020-05-22T17:17:19Z</time>
      </trkpt>
      <trkpt lat="47.03621" lon="6.32689">
        <ele>681.4</ele>
        <time>2020-05-22T17:17:20Z</time>
      </trkpt>
      <trkpt lat="47.03619" lon="6.32684">
        <ele>681.2</ele>
        <time>2020-05-22T17:17:21Z</time>
      </trkpt>
      <trkpt lat="47.03617" lon="6.3268">
        <ele>681</ele>
        <time>2020-05-22T17:17:22Z</time>
      </trkpt>
      <trkpt lat="47.03616" lon="6.32677">
        <ele>681</ele>
        <time>2020-05-22T17:17:23Z</time>
      </trkpt>
      <trkpt lat="47.03615" lon="6.32675">
        <ele>681</ele>
        <time>2020-05-22T17:17:24Z</time>
      </trkpt>
      <trkpt lat="47.03615" lon="6.32673">
        <ele>680.6</ele>
        <time>2020-05-22T17:17:25Z</time>
      </trkpt>
      <trkpt lat="47.03615" lon="6.32672">
        <ele>680.6</ele>
        <time>2020-05-22T17:17:26Z</time>
      </trkpt>
      <trkpt lat="47.03615" lon="6.32672">
        <ele>680.4</ele>
        <time>2020-05-22T17:17:27Z</time>
      </trkpt>
      <trkpt lat="47.03611" lon="6.32667">
        <ele>680.4</ele>
        <time>2020-05-22T17:18:42Z</time>
      </trkpt>
      <trkpt lat="47.03609" lon="6.32664">
        <ele>680.4</ele>
        <time>2020-05-22T17:18:43Z</time>
      </trkpt>
      <trkpt lat="47.03608" lon="6.32661">
        <ele>680.4</ele>
        <time>2020-05-22T17:18:44Z</time>
      </trkpt>
      <trkpt lat="47.03607" lon="6.32657">
        <ele>680.4</ele>
        <time>2020-05-22T17:18:45Z</time>
      </trkpt>
      <trkpt lat="47.03605" lon="6.32653">
        <ele>680.4</ele>
        <time>2020-05-22T17:18:46Z</time>
      </trkpt>
      <trkpt lat="47.03604" lon="6.32649">
        <ele>680.4</ele>
        <time>2020-05-22T17:18:47Z</time>
      </trkpt>
      <trkpt lat="47.03602" lon="6.32645">
        <ele>680.4</ele>
        <time>2020-05-22T17:18:48Z</time>
      </trkpt>
      <trkpt lat="47.03599" lon="6.32641">
        <ele>680.4</ele>
        <time>2020-05-22T17:18:49Z</time>
      </trkpt>
      <trkpt lat="47.03596" lon="6.32636">
        <ele>680.2</ele>
        <time>2020-05-22T17:18:50Z</time>
      </trkpt>
      <trkpt lat="47.03594" lon="6.3263">
        <ele>680.2</ele>
        <time>2020-05-22T17:18:51Z</time>
      </trkpt>
      <trkpt lat="47.03592" lon="6.32624">
        <ele>680</ele>
        <time>2020-05-22T17:18:52Z</time>
      </trkpt>
      <trkpt lat="47.03591" lon="6.32617">
        <ele>680</ele>
        <time>2020-05-22T17:18:53Z</time>
      </trkpt>
      <trkpt lat="47.03589" lon="6.32611">
        <ele>680</ele>
        <time>2020-05-22T17:18:54Z</time>
      </trkpt>
      <trkpt lat="47.03587" lon="6.32605">
        <ele>679.6</ele>
        <time>2020-05-22T17:18:55Z</time>
      </trkpt>
      <trkpt lat="47.03586" lon="6.326">
        <ele>679.6</ele>
        <time>2020-05-22T17:18:56Z</time>
      </trkpt>
      <trkpt lat="47.03584" lon="6.32594">
        <ele>679.6</ele>
        <time>2020-05-22T17:18:57Z</time>
      </trkpt>
      <trkpt lat="47.03583" lon="6.32588">
        <ele>679.2</ele>
        <time>2020-05-22T17:18:58Z</time>
      </trkpt>
      <trkpt lat="47.03582" lon="6.32582">
        <ele>679.2</ele>
        <time>2020-05-22T17:18:59Z</time>
      </trkpt>
      <trkpt lat="47.03581" lon="6.32577">
        <ele>679</ele>
        <time>2020-05-22T17:19:00Z</time>
      </trkpt>
      <trkpt lat="47.03581" lon="6.32572">
        <ele>679</ele>
        <time>2020-05-22T17:19:01Z</time>
      </trkpt>
      <trkpt lat="47.03582" lon="6.32567">
        <ele>679</ele>
        <time>2020-05-22T17:19:02Z</time>
      </trkpt>
      <trkpt lat="47.03582" lon="6.32562">
        <ele>679</ele>
        <time>2020-05-22T17:19:03Z</time>
      </trkpt>
      <trkpt lat="47.03582" lon="6.32558">
        <ele>679</ele>
        <time>2020-05-22T17:19:04Z</time>
      </trkpt>
      <trkpt lat="47.03582" lon="6.32554">
        <ele>679</ele>
        <time>2020-05-22T17:19:05Z</time>
      </trkpt>
      <trkpt lat="47.03581" lon="6.3255">
        <ele>679</ele>
        <time>2020-05-22T17:19:06Z</time>
      </trkpt>
      <trkpt lat="47.03581" lon="6.32547">
        <ele>679</ele>
        <time>2020-05-22T17:19:07Z</time>
      </trkpt>
      <trkpt lat="47.03581" lon="6.32543">
        <ele>679</ele>
        <time>2020-05-22T17:19:08Z</time>
      </trkpt>
      <trkpt lat="47.03581" lon="6.3254">
        <ele>679</ele>
        <time>2020-05-22T17:19:09Z</time>
      </trkpt>
      <trkpt lat="47.03581" lon="6.32538">
        <ele>678.8</ele>
        <time>2020-05-22T17:19:10Z</time>
      </trkpt>
      <trkpt lat="47.03581" lon="6.32535">
        <ele>678.8</ele>
        <time>2020-05-22T17:19:11Z</time>
      </trkpt>
      <trkpt lat="47.03581" lon="6.32533">
        <ele>678.4</ele>
        <time>2020-05-22T17:19:12Z</time>
      </trkpt>
      <trkpt lat="47.03582" lon="6.32532">
        <ele>678.4</ele>
        <time>2020-05-22T17:19:13Z</time>
      </trkpt>
      <trkpt lat="47.03582" lon="6.32531">
        <ele>678.2</ele>
        <time>2020-05-22T17:19:14Z</time>
      </trkpt>
      <trkpt lat="47.03581" lon="6.32546">
        <ele>678.8</ele>
        <time>2020-05-22T17:20:51Z</time>
      </trkpt>
      <trkpt lat="47.03582" lon="6.32548">
        <ele>678.8</ele>
        <time>2020-05-22T17:20:52Z</time>
      </trkpt>
      <trkpt lat="47.03582" lon="6.32549">
        <ele>678.8</ele>
        <time>2020-05-22T17:20:53Z</time>
      </trkpt>
      <trkpt lat="47.03583" lon="6.32552">
        <ele>678.8</ele>
        <time>2020-05-22T17:20:54Z</time>
      </trkpt>
      <trkpt lat="47.03582" lon="6.32555">
        <ele>678.8</ele>
        <time>2020-05-22T17:20:55Z</time>
      </trkpt>
      <trkpt lat="47.03581" lon="6.32557">
        <ele>678.8</ele>
        <time>2020-05-22T17:20:56Z</time>
      </trkpt>
      <trkpt lat="47.03579" lon="6.3256">
        <ele>678.6</ele>
        <time>2020-05-22T17:20:57Z</time>
      </trkpt>
      <trkpt lat="47.03576" lon="6.32564">
        <ele>678.6</ele>
        <time>2020-05-22T17:20:58Z</time>
      </trkpt>
      <trkpt lat="47.03574" lon="6.32567">
        <ele>678.2</ele>
        <time>2020-05-22T17:20:59Z</time>
      </trkpt>
      <trkpt lat="47.03572" lon="6.3257">
        <ele>678.2</ele>
        <time>2020-05-22T17:21:00Z</time>
      </trkpt>
      <trkpt lat="47.03569" lon="6.32574">
        <ele>678</ele>
        <time>2020-05-22T17:21:01Z</time>
      </trkpt>
      <trkpt lat="47.03567" lon="6.32578">
        <ele>678</ele>
        <time>2020-05-22T17:21:02Z</time>
      </trkpt>
      <trkpt lat="47.03565" lon="6.32582">
        <ele>677.6</ele>
        <time>2020-05-22T17:21:03Z</time>
      </trkpt>
      <trkpt lat="47.03564" lon="6.32586">
        <ele>677.6</ele>
        <time>2020-05-22T17:21:04Z</time>
      </trkpt>
      <trkpt lat="47.03561" lon="6.32589">
        <ele>677.2</ele>
        <time>2020-05-22T17:21:05Z</time>
      </trkpt>
      <trkpt lat="47.03559" lon="6.32592">
        <ele>677.2</ele>
        <time>2020-05-22T17:21:06Z</time>
      </trkpt>
      <trkpt lat="47.03557" lon="6.32596">
        <ele>676.8</ele>
        <time>2020-05-22T17:21:07Z</time>
      </trkpt>
      <trkpt lat="47.03554" lon="6.326">
        <ele>676.8</ele>
        <time>2020-05-22T17:21:08Z</time>
      </trkpt>
      <trkpt lat="47.03551" lon="6.32604">
        <ele>676.8</ele>
        <time>2020-05-22T17:21:09Z</time>
      </trkpt>
      <trkpt lat="47.03548" lon="6.32608">
        <ele>676.6</ele>
        <time>2020-05-22T17:21:10Z</time>
      </trkpt>
      <trkpt lat="47.03544" lon="6.32611">
        <ele>676.6</ele>
        <time>2020-05-22T17:21:11Z</time>
      </trkpt>
      <trkpt lat="47.0354" lon="6.32614">
        <ele>676.2</ele>
        <time>2020-05-22T17:21:12Z</time>
      </trkpt>
      <trkpt lat="47.03536" lon="6.32618">
        <ele>676</ele>
        <time>2020-05-22T17:21:13Z</time>
      </trkpt>
      <trkpt lat="47.03532" lon="6.32622">
        <ele>675.8</ele>
        <time>2020-05-22T17:21:14Z</time>
      </trkpt>
      <trkpt lat="47.03529" lon="6.32626">
        <ele>675.6</ele>
        <time>2020-05-22T17:21:15Z</time>
      </trkpt>
      <trkpt lat="47.03525" lon="6.3263">
        <ele>675.2</ele>
        <time>2020-05-22T17:21:16Z</time>
      </trkpt>
      <trkpt lat="47.03521" lon="6.32633">
        <ele>675</ele>
        <time>2020-05-22T17:21:17Z</time>
      </trkpt>
      <trkpt lat="47.03518" lon="6.32637">
        <ele>674.6</ele>
        <time>2020-05-22T17:21:18Z</time>
      </trkpt>
      <trkpt lat="47.03515" lon="6.32641">
        <ele>674.4</ele>
        <time>2020-05-22T17:21:19Z</time>
      </trkpt>
      <trkpt lat="47.03512" lon="6.32646">
        <ele>674</ele>
        <time>2020-05-22T17:21:20Z</time>
      </trkpt>
      <trkpt lat="47.03509" lon="6.3265">
        <ele>673.8</ele>
        <time>2020-05-22T17:21:21Z</time>
      </trkpt>
      <trkpt lat="47.03506" lon="6.32655">
        <ele>673.4</ele>
        <time>2020-05-22T17:21:22Z</time>
      </trkpt>
      <trkpt lat="47.03504" lon="6.3266">
        <ele>673</ele>
        <time>2020-05-22T17:21:23Z</time>
      </trkpt>
      <trkpt lat="47.03501" lon="6.32665">
        <ele>672.8</ele>
        <time>2020-05-22T17:21:24Z</time>
      </trkpt>
      <trkpt lat="47.03499" lon="6.32669">
        <ele>672.2</ele>
        <time>2020-05-22T17:21:25Z</time>
      </trkpt>
      <trkpt lat="47.03496" lon="6.32674">
        <ele>672</ele>
        <time>2020-05-22T17:21:26Z</time>
      </trkpt>
      <trkpt lat="47.03494" lon="6.32678">
        <ele>671.4</ele>
        <time>2020-05-22T17:21:27Z</time>
      </trkpt>
      <trkpt lat="47.03492" lon="6.32682">
        <ele>671.2</ele>
        <time>2020-05-22T17:21:28Z</time>
      </trkpt>
      <trkpt lat="47.0349" lon="6.32685">
        <ele>670.6</ele>
        <time>2020-05-22T17:21:29Z</time>
      </trkpt>
      <trkpt lat="47.03488" lon="6.32688">
        <ele>670.4</ele>
        <time>2020-05-22T17:21:30Z</time>
      </trkpt>
      <trkpt lat="47.03488" lon="6.32691">
        <ele>670</ele>
        <time>2020-05-22T17:21:31Z</time>
      </trkpt>
      <trkpt lat="47.03488" lon="6.32694">
        <ele>670</ele>
        <time>2020-05-22T17:21:32Z</time>
      </trkpt>
      <trkpt lat="47.0349" lon="6.32696">
        <ele>669.8</ele>
        <time>2020-05-22T17:21:33Z</time>
      </trkpt>
      <trkpt lat="47.03491" lon="6.32698">
        <ele>669.8</ele>
        <time>2020-05-22T17:21:34Z</time>
      </trkpt>
      <trkpt lat="47.03493" lon="6.327">
        <ele>669.8</ele>
        <time>2020-05-22T17:21:35Z</time>
      </trkpt>
      <trkpt lat="47.03495" lon="6.32702">
        <ele>669.4</ele>
        <time>2020-05-22T17:21:36Z</time>
      </trkpt>
      <trkpt lat="47.03496" lon="6.32704">
        <ele>669.4</ele>
        <time>2020-05-22T17:21:37Z</time>
      </trkpt>
      <trkpt lat="47.03498" lon="6.32705">
        <ele>669.4</ele>
        <time>2020-05-22T17:21:38Z</time>
      </trkpt>
      <trkpt lat="47.03499" lon="6.32706">
        <ele>669.4</ele>
        <time>2020-05-22T17:21:39Z</time>
      </trkpt>
      <trkpt lat="47.035" lon="6.32706">
        <ele>669.4</ele>
        <time>2020-05-22T17:21:40Z</time>
      </trkpt>
      <trkpt lat="47.03501" lon="6.32705">
        <ele>669.4</ele>
        <time>2020-05-22T17:21:41Z</time>
      </trkpt>
      <trkpt lat="47.03501" lon="6.32706">
        <ele>669.4</ele>
        <time>2020-05-22T17:21:42Z</time>
      </trkpt>
      <trkpt lat="47.03498" lon="6.32703">
        <ele>669.4</ele>
        <time>2020-05-22T17:22:11Z</time>
      </trkpt>
      <trkpt lat="47.03497" lon="6.32702">
        <ele>669.4</ele>
        <time>2020-05-22T17:22:12Z</time>
      </trkpt>
      <trkpt lat="47.03495" lon="6.32701">
        <ele>669.4</ele>
        <time>2020-05-22T17:22:13Z</time>
      </trkpt>
      <trkpt lat="47.03493" lon="6.327">
        <ele>669.4</ele>
        <time>2020-05-22T17:22:14Z</time>
      </trkpt>
      <trkpt lat="47.03491" lon="6.32699">
        <ele>669.4</ele>
        <time>2020-05-22T17:22:15Z</time>
      </trkpt>
      <trkpt lat="47.03489" lon="6.32699">
        <ele>669.4</ele>
        <time>2020-05-22T17:22:16Z</time>
      </trkpt>
      <trkpt lat="47.03486" lon="6.327">
        <ele>669.4</ele>
        <time>2020-05-22T17:22:17Z</time>
      </trkpt>
      <trkpt lat="47.03484" lon="6.32701">
        <ele>669.4</ele>
        <time>2020-05-22T17:22:18Z</time>
      </trkpt>
      <trkpt lat="47.03481" lon="6.32702">
        <ele>669.2</ele>
        <time>2020-05-22T17:22:19Z</time>
      </trkpt>
      <trkpt lat="47.03477" lon="6.32702">
        <ele>669.2</ele>
        <time>2020-05-22T17:22:20Z</time>
      </trkpt>
      <trkpt lat="47.03473" lon="6.32702">
        <ele>669</ele>
        <time>2020-05-22T17:22:21Z</time>
      </trkpt>
      <trkpt lat="47.03469" lon="6.32701">
        <ele>669</ele>
        <time>2020-05-22T17:22:22Z</time>
      </trkpt>
      <trkpt lat="47.03464" lon="6.327">
        <ele>668.4</ele>
        <time>2020-05-22T17:22:23Z</time>
      </trkpt>
      <trkpt lat="47.03459" lon="6.32699">
        <ele>668.2</ele>
        <time>2020-05-22T17:22:24Z</time>
      </trkpt>
      <trkpt lat="47.03453" lon="6.32698">
        <ele>668</ele>
        <time>2020-05-22T17:22:25Z</time>
      </trkpt>
      <trkpt lat="47.03448" lon="6.32697">
        <ele>667.8</ele>
        <time>2020-05-22T17:22:26Z</time>
      </trkpt>
      <trkpt lat="47.03442" lon="6.32695">
        <ele>667.4</ele>
        <time>2020-05-22T17:22:27Z</time>
      </trkpt>
      <trkpt lat="47.03436" lon="6.32692">
        <ele>667</ele>
        <time>2020-05-22T17:22:28Z</time>
      </trkpt>
      <trkpt lat="47.0343" lon="6.32689">
        <ele>666.6</ele>
        <time>2020-05-22T17:22:29Z</time>
      </trkpt>
      <trkpt lat="47.03424" lon="6.32686">
        <ele>666.2</ele>
        <time>2020-05-22T17:22:30Z</time>
      </trkpt>
      <trkpt lat="47.03418" lon="6.32682">
        <ele>666</ele>
        <time>2020-05-22T17:22:31Z</time>
      </trkpt>
      <trkpt lat="47.03413" lon="6.32678">
        <ele>665.6</ele>
        <time>2020-05-22T17:22:32Z</time>
      </trkpt>
      <trkpt lat="47.03407" lon="6.32674">
        <ele>665.4</ele>
        <time>2020-05-22T17:22:33Z</time>
      </trkpt>
      <trkpt lat="47.03402" lon="6.32669">
        <ele>665.2</ele>
        <time>2020-05-22T17:22:34Z</time>
      </trkpt>
      <trkpt lat="47.03397" lon="6.32664">
        <ele>665</ele>
        <time>2020-05-22T17:22:35Z</time>
      </trkpt>
      <trkpt lat="47.03392" lon="6.32661">
        <ele>665</ele>
        <time>2020-05-22T17:22:36Z</time>
      </trkpt>
      <trkpt lat="47.03386" lon="6.32659">
        <ele>664.6</ele>
        <time>2020-05-22T17:22:37Z</time>
      </trkpt>
      <trkpt lat="47.03381" lon="6.32658">
        <ele>664.6</ele>
        <time>2020-05-22T17:22:38Z</time>
      </trkpt>
      <trkpt lat="47.03376" lon="6.32658">
        <ele>664.4</ele>
        <time>2020-05-22T17:22:39Z</time>
      </trkpt>
      <trkpt lat="47.03371" lon="6.32658">
        <ele>664.4</ele>
        <time>2020-05-22T17:22:40Z</time>
      </trkpt>
      <trkpt lat="47.03365" lon="6.32658">
        <ele>664.4</ele>
        <time>2020-05-22T17:22:41Z</time>
      </trkpt>
      <trkpt lat="47.0336" lon="6.32658">
        <ele>664.2</ele>
        <time>2020-05-22T17:22:42Z</time>
      </trkpt>
      <trkpt lat="47.03355" lon="6.32657">
        <ele>664.2</ele>
        <time>2020-05-22T17:22:43Z</time>
      </trkpt>
      <trkpt lat="47.03351" lon="6.32657">
        <ele>664.2</ele>
        <time>2020-05-22T17:22:44Z</time>
      </trkpt>
      <trkpt lat="47.03346" lon="6.32657">
        <ele>664.2</ele>
        <time>2020-05-22T17:22:45Z</time>
      </trkpt>
      <trkpt lat="47.03341" lon="6.32657">
        <ele>664.2</ele>
        <time>2020-05-22T17:22:46Z</time>
      </trkpt>
      <trkpt lat="47.03336" lon="6.32656">
        <ele>664.2</ele>
        <time>2020-05-22T17:22:47Z</time>
      </trkpt>
      <trkpt lat="47.03332" lon="6.32654">
        <ele>664.2</ele>
        <time>2020-05-22T17:22:48Z</time>
      </trkpt>
      <trkpt lat="47.03327" lon="6.32652">
        <ele>664.2</ele>
        <time>2020-05-22T17:22:49Z</time>
      </trkpt>
      <trkpt lat="47.03323" lon="6.3265">
        <ele>664.2</ele>
        <time>2020-05-22T17:22:50Z</time>
      </trkpt>
      <trkpt lat="47.0332" lon="6.32648">
        <ele>664.2</ele>
        <time>2020-05-22T17:22:51Z</time>
      </trkpt>
      <trkpt lat="47.03316" lon="6.32647">
        <ele>664.4</ele>
        <time>2020-05-22T17:22:52Z</time>
      </trkpt>
      <trkpt lat="47.03313" lon="6.32645">
        <ele>664.4</ele>
        <time>2020-05-22T17:22:53Z</time>
      </trkpt>
      <trkpt lat="47.0331" lon="6.32643">
        <ele>664.4</ele>
        <time>2020-05-22T17:22:54Z</time>
      </trkpt>
      <trkpt lat="47.03308" lon="6.32641">
        <ele>664.6</ele>
        <time>2020-05-22T17:22:55Z</time>
      </trkpt>
      <trkpt lat="47.03305" lon="6.32639">
        <ele>664.6</ele>
        <time>2020-05-22T17:22:56Z</time>
      </trkpt>
      <trkpt lat="47.03302" lon="6.32637">
        <ele>665</ele>
        <time>2020-05-22T17:22:57Z</time>
      </trkpt>
      <trkpt lat="47.03299" lon="6.32635">
        <ele>665</ele>
        <time>2020-05-22T17:22:58Z</time>
      </trkpt>
      <trkpt lat="47.03296" lon="6.32634">
        <ele>665.4</ele>
        <time>2020-05-22T17:22:59Z</time>
      </trkpt>
      <trkpt lat="47.03293" lon="6.32632">
        <ele>665.4</ele>
        <time>2020-05-22T17:23:00Z</time>
      </trkpt>
      <trkpt lat="47.03291" lon="6.3263">
        <ele>665.8</ele>
        <time>2020-05-22T17:23:01Z</time>
      </trkpt>
      <trkpt lat="47.03288" lon="6.32627">
        <ele>665.8</ele>
        <time>2020-05-22T17:23:02Z</time>
      </trkpt>
      <trkpt lat="47.03285" lon="6.32624">
        <ele>666.2</ele>
        <time>2020-05-22T17:23:03Z</time>
      </trkpt>
      <trkpt lat="47.03282" lon="6.32622">
        <ele>666.4</ele>
        <time>2020-05-22T17:23:04Z</time>
      </trkpt>
      <trkpt lat="47.0328" lon="6.32619">
        <ele>666.6</ele>
        <time>2020-05-22T17:23:05Z</time>
      </trkpt>
      <trkpt lat="47.03277" lon="6.32616">
        <ele>666.6</ele>
        <time>2020-05-22T17:23:06Z</time>
      </trkpt>
      <trkpt lat="47.03274" lon="6.32614">
        <ele>666.8</ele>
        <time>2020-05-22T17:23:07Z</time>
      </trkpt>
      <trkpt lat="47.03272" lon="6.32611">
        <ele>666.8</ele>
        <time>2020-05-22T17:23:08Z</time>
      </trkpt>
      <trkpt lat="47.03269" lon="6.32608">
        <ele>667.2</ele>
        <time>2020-05-22T17:23:09Z</time>
      </trkpt>
      <trkpt lat="47.03267" lon="6.32605">
        <ele>667.2</ele>
        <time>2020-05-22T17:23:10Z</time>
      </trkpt>
      <trkpt lat="47.03265" lon="6.32602">
        <ele>667.6</ele>
        <time>2020-05-22T17:23:11Z</time>
      </trkpt>
      <trkpt lat="47.03263" lon="6.32598">
        <ele>667.6</ele>
        <time>2020-05-22T17:23:12Z</time>
      </trkpt>
      <trkpt lat="47.03261" lon="6.32594">
        <ele>668</ele>
        <time>2020-05-22T17:23:13Z</time>
      </trkpt>
      <trkpt lat="47.03259" lon="6.32591">
        <ele>668</ele>
        <time>2020-05-22T17:23:14Z</time>
      </trkpt>
      <trkpt lat="47.03258" lon="6.32588">
        <ele>668.4</ele>
        <time>2020-05-22T17:23:15Z</time>
      </trkpt>
      <trkpt lat="47.03257" lon="6.32585">
        <ele>668.6</ele>
        <time>2020-05-22T17:23:16Z</time>
      </trkpt>
      <trkpt lat="47.03256" lon="6.32582">
        <ele>668.8</ele>
        <time>2020-05-22T17:23:17Z</time>
      </trkpt>
      <trkpt lat="47.03255" lon="6.32578">
        <ele>668.8</ele>
        <time>2020-05-22T17:23:18Z</time>
      </trkpt>
      <trkpt lat="47.03254" lon="6.32575">
        <ele>669</ele>
        <time>2020-05-22T17:23:19Z</time>
      </trkpt>
      <trkpt lat="47.03254" lon="6.32571">
        <ele>669</ele>
        <time>2020-05-22T17:23:20Z</time>
      </trkpt>
      <trkpt lat="47.03253" lon="6.32568">
        <ele>669.2</ele>
        <time>2020-05-22T17:23:21Z</time>
      </trkpt>
      <trkpt lat="47.03253" lon="6.32564">
        <ele>669.2</ele>
        <time>2020-05-22T17:23:22Z</time>
      </trkpt>
      <trkpt lat="47.03252" lon="6.3256">
        <ele>669.6</ele>
        <time>2020-05-22T17:23:23Z</time>
      </trkpt>
      <trkpt lat="47.03252" lon="6.32557">
        <ele>669.6</ele>
        <time>2020-05-22T17:23:24Z</time>
      </trkpt>
      <trkpt lat="47.03252" lon="6.32553">
        <ele>670</ele>
        <time>2020-05-22T17:23:25Z</time>
      </trkpt>
      <trkpt lat="47.03251" lon="6.3255">
        <ele>670</ele>
        <time>2020-05-22T17:23:26Z</time>
      </trkpt>
      <trkpt lat="47.03251" lon="6.32546">
        <ele>670.2</ele>
        <time>2020-05-22T17:23:27Z</time>
      </trkpt>
      <trkpt lat="47.0325" lon="6.32542">
        <ele>670.2</ele>
        <time>2020-05-22T17:23:28Z</time>
      </trkpt>
      <trkpt lat="47.0325" lon="6.32539">
        <ele>670.4</ele>
        <time>2020-05-22T17:23:29Z</time>
      </trkpt>
      <trkpt lat="47.03249" lon="6.32535">
        <ele>670.4</ele>
        <time>2020-05-22T17:23:30Z</time>
      </trkpt>
      <trkpt lat="47.03249" lon="6.32532">
        <ele>670.6</ele>
        <time>2020-05-22T17:23:31Z</time>
      </trkpt>
      <trkpt lat="47.03248" lon="6.32528">
        <ele>670.6</ele>
        <time>2020-05-22T17:23:32Z</time>
      </trkpt>
      <trkpt lat="47.03248" lon="6.32525">
        <ele>670.6</ele>
        <time>2020-05-22T17:23:33Z</time>
      </trkpt>
      <trkpt lat="47.03248" lon="6.32521">
        <ele>671</ele>
        <time>2020-05-22T17:23:34Z</time>
      </trkpt>
      <trkpt lat="47.03247" lon="6.32518">
        <ele>671</ele>
        <time>2020-05-22T17:23:35Z</time>
      </trkpt>
      <trkpt lat="47.03246" lon="6.32515">
        <ele>671</ele>
        <time>2020-05-22T17:23:36Z</time>
      </trkpt>
      <trkpt lat="47.03246" lon="6.32511">
        <ele>671.2</ele>
        <time>2020-05-22T17:23:37Z</time>
      </trkpt>
      <trkpt lat="47.03245" lon="6.32508">
        <ele>671.2</ele>
        <time>2020-05-22T17:23:38Z</time>
      </trkpt>
      <trkpt lat="47.03245" lon="6.32505">
        <ele>671.2</ele>
        <time>2020-05-22T17:23:39Z</time>
      </trkpt>
      <trkpt lat="47.03244" lon="6.32502">
        <ele>671.2</ele>
        <time>2020-05-22T17:23:40Z</time>
      </trkpt>
      <trkpt lat="47.03244" lon="6.32499">
        <ele>671.4</ele>
        <time>2020-05-22T17:23:41Z</time>
      </trkpt>
      <trkpt lat="47.03243" lon="6.32496">
        <ele>671.4</ele>
        <time>2020-05-22T17:23:42Z</time>
      </trkpt>
      <trkpt lat="47.03242" lon="6.32493">
        <ele>671.4</ele>
        <time>2020-05-22T17:23:43Z</time>
      </trkpt>
      <trkpt lat="47.03242" lon="6.32489">
        <ele>671.4</ele>
        <time>2020-05-22T17:23:44Z</time>
      </trkpt>
      <trkpt lat="47.03241" lon="6.32486">
        <ele>671.4</ele>
        <time>2020-05-22T17:23:45Z</time>
      </trkpt>
      <trkpt lat="47.03239" lon="6.32483">
        <ele>671.8</ele>
        <time>2020-05-22T17:23:46Z</time>
      </trkpt>
      <trkpt lat="47.03238" lon="6.32479">
        <ele>671.8</ele>
        <time>2020-05-22T17:23:47Z</time>
      </trkpt>
      <trkpt lat="47.03237" lon="6.32476">
        <ele>671.8</ele>
        <time>2020-05-22T17:23:48Z</time>
      </trkpt>
      <trkpt lat="47.03235" lon="6.32473">
        <ele>671.8</ele>
        <time>2020-05-22T17:23:49Z</time>
      </trkpt>
      <trkpt lat="47.03233" lon="6.32471">
        <ele>672</ele>
        <time>2020-05-22T17:23:50Z</time>
      </trkpt>
      <trkpt lat="47.03231" lon="6.32468">
        <ele>672</ele>
        <time>2020-05-22T17:23:51Z</time>
      </trkpt>
      <trkpt lat="47.03228" lon="6.32466">
        <ele>672.2</ele>
        <time>2020-05-22T17:23:52Z</time>
      </trkpt>
      <trkpt lat="47.03226" lon="6.32464">
        <ele>672.2</ele>
        <time>2020-05-22T17:23:53Z</time>
      </trkpt>
      <trkpt lat="47.03224" lon="6.32462">
        <ele>672.2</ele>
        <time>2020-05-22T17:23:54Z</time>
      </trkpt>
      <trkpt lat="47.03221" lon="6.32461">
        <ele>672.4</ele>
        <time>2020-05-22T17:23:55Z</time>
      </trkpt>
      <trkpt lat="47.03219" lon="6.3246">
        <ele>672.4</ele>
        <time>2020-05-22T17:23:56Z</time>
      </trkpt>
      <trkpt lat="47.03216" lon="6.32459">
        <ele>672.4</ele>
        <time>2020-05-22T17:23:57Z</time>
      </trkpt>
      <trkpt lat="47.03213" lon="6.32459">
        <ele>672.4</ele>
        <time>2020-05-22T17:23:58Z</time>
      </trkpt>
      <trkpt lat="47.0321" lon="6.32458">
        <ele>672.4</ele>
        <time>2020-05-22T17:23:59Z</time>
      </trkpt>
      <trkpt lat="47.03207" lon="6.32458">
        <ele>672.6</ele>
        <time>2020-05-22T17:24:00Z</time>
      </trkpt>
      <trkpt lat="47.03204" lon="6.32458">
        <ele>672.6</ele>
        <time>2020-05-22T17:24:01Z</time>
      </trkpt>
      <trkpt lat="47.03201" lon="6.32457">
        <ele>672.6</ele>
        <time>2020-05-22T17:24:02Z</time>
      </trkpt>
      <trkpt lat="47.03197" lon="6.32457">
        <ele>672.6</ele>
        <time>2020-05-22T17:24:03Z</time>
      </trkpt>
      <trkpt lat="47.03194" lon="6.32457">
        <ele>672.6</ele>
        <time>2020-05-22T17:24:04Z</time>
      </trkpt>
      <trkpt lat="47.03191" lon="6.32456">
        <ele>672.6</ele>
        <time>2020-05-22T17:24:05Z</time>
      </trkpt>
      <trkpt lat="47.03187" lon="6.32454">
        <ele>672.6</ele>
        <time>2020-05-22T17:24:06Z</time>
      </trkpt>
      <trkpt lat="47.03184" lon="6.32453">
        <ele>672.6</ele>
        <time>2020-05-22T17:24:07Z</time>
      </trkpt>
      <trkpt lat="47.0318" lon="6.32451">
        <ele>672.6</ele>
        <time>2020-05-22T17:24:08Z</time>
      </trkpt>
      <trkpt lat="47.03176" lon="6.32449">
        <ele>672.6</ele>
        <time>2020-05-22T17:24:09Z</time>
      </trkpt>
      <trkpt lat="47.03172" lon="6.32447">
        <ele>672.6</ele>
        <time>2020-05-22T17:24:10Z</time>
      </trkpt>
      <trkpt lat="47.03167" lon="6.32445">
        <ele>672.6</ele>
        <time>2020-05-22T17:24:11Z</time>
      </trkpt>
      <trkpt lat="47.03163" lon="6.32443">
        <ele>672.2</ele>
        <time>2020-05-22T17:24:12Z</time>
      </trkpt>
      <trkpt lat="47.03158" lon="6.3244">
        <ele>672.2</ele>
        <time>2020-05-22T17:24:13Z</time>
      </trkpt>
      <trkpt lat="47.03153" lon="6.32438">
        <ele>672</ele>
        <time>2020-05-22T17:24:14Z</time>
      </trkpt>
      <trkpt lat="47.03148" lon="6.32435">
        <ele>672</ele>
        <time>2020-05-22T17:24:15Z</time>
      </trkpt>
      <trkpt lat="47.03142" lon="6.32433">
        <ele>671.6</ele>
        <time>2020-05-22T17:24:16Z</time>
      </trkpt>
      <trkpt lat="47.03136" lon="6.32431">
        <ele>671.6</ele>
        <time>2020-05-22T17:24:17Z</time>
      </trkpt>
      <trkpt lat="47.0313" lon="6.32429">
        <ele>671.2</ele>
        <time>2020-05-22T17:24:18Z</time>
      </trkpt>
      <trkpt lat="47.03123" lon="6.32428">
        <ele>671</ele>
        <time>2020-05-22T17:24:19Z</time>
      </trkpt>
      <trkpt lat="47.03116" lon="6.32426">
        <ele>670.6</ele>
        <time>2020-05-22T17:24:20Z</time>
      </trkpt>
      <trkpt lat="47.03109" lon="6.32425">
        <ele>670.4</ele>
        <time>2020-05-22T17:24:21Z</time>
      </trkpt>
      <trkpt lat="47.03101" lon="6.32424">
        <ele>670</ele>
        <time>2020-05-22T17:24:22Z</time>
      </trkpt>
      <trkpt lat="47.03093" lon="6.32424">
        <ele>669.6</ele>
        <time>2020-05-22T17:24:23Z</time>
      </trkpt>
      <trkpt lat="47.03084" lon="6.32422">
        <ele>669</ele>
        <time>2020-05-22T17:24:24Z</time>
      </trkpt>
      <trkpt lat="47.03076" lon="6.32421">
        <ele>668.6</ele>
        <time>2020-05-22T17:24:25Z</time>
      </trkpt>
      <trkpt lat="47.03067" lon="6.3242">
        <ele>668</ele>
        <time>2020-05-22T17:24:26Z</time>
      </trkpt>
      <trkpt lat="47.03057" lon="6.32418">
        <ele>667.6</ele>
        <time>2020-05-22T17:24:27Z</time>
      </trkpt>
      <trkpt lat="47.03047" lon="6.32417">
        <ele>667</ele>
        <time>2020-05-22T17:24:28Z</time>
      </trkpt>
      <trkpt lat="47.03037" lon="6.32416">
        <ele>666.6</ele>
        <time>2020-05-22T17:24:29Z</time>
      </trkpt>
      <trkpt lat="47.03027" lon="6.32413">
        <ele>666.2</ele>
        <time>2020-05-22T17:24:30Z</time>
      </trkpt>
      <trkpt lat="47.03018" lon="6.32408">
        <ele>665.6</ele>
        <time>2020-05-22T17:24:31Z</time>
      </trkpt>
      <trkpt lat="47.03009" lon="6.32403">
        <ele>665.2</ele>
        <time>2020-05-22T17:24:32Z</time>
      </trkpt>
      <trkpt lat="47.03" lon="6.32397">
        <ele>664.8</ele>
        <time>2020-05-22T17:24:33Z</time>
      </trkpt>
      <trkpt lat="47.02992" lon="6.32392">
        <ele>664.6</ele>
        <time>2020-05-22T17:24:34Z</time>
      </trkpt>
      <trkpt lat="47.02984" lon="6.32387">
        <ele>664.4</ele>
        <time>2020-05-22T17:24:35Z</time>
      </trkpt>
      <trkpt lat="47.02976" lon="6.32381">
        <ele>664</ele>
        <time>2020-05-22T17:24:36Z</time>
      </trkpt>
      <trkpt lat="47.02969" lon="6.32376">
        <ele>664</ele>
        <time>2020-05-22T17:24:37Z</time>
      </trkpt>
      <trkpt lat="47.02962" lon="6.32371">
        <ele>663.8</ele>
        <time>2020-05-22T17:24:38Z</time>
      </trkpt>
      <trkpt lat="47.02955" lon="6.32366">
        <ele>663.8</ele>
        <time>2020-05-22T17:24:39Z</time>
      </trkpt>
      <trkpt lat="47.02948" lon="6.32361">
        <ele>663.8</ele>
        <time>2020-05-22T17:24:40Z</time>
      </trkpt>
      <trkpt lat="47.02942" lon="6.32356">
        <ele>663.6</ele>
        <time>2020-05-22T17:24:41Z</time>
      </trkpt>
      <trkpt lat="47.02936" lon="6.32352">
        <ele>663.6</ele>
        <time>2020-05-22T17:24:42Z</time>
      </trkpt>
      <trkpt lat="47.0293" lon="6.32347">
        <ele>663.2</ele>
        <time>2020-05-22T17:24:43Z</time>
      </trkpt>
      <trkpt lat="47.02924" lon="6.32343">
        <ele>663.2</ele>
        <time>2020-05-22T17:24:44Z</time>
      </trkpt>
      <trkpt lat="47.02918" lon="6.32339">
        <ele>663</ele>
        <time>2020-05-22T17:24:45Z</time>
      </trkpt>
      <trkpt lat="47.02913" lon="6.32335">
        <ele>663</ele>
        <time>2020-05-22T17:24:46Z</time>
      </trkpt>
      <trkpt lat="47.02907" lon="6.32332">
        <ele>663</ele>
        <time>2020-05-22T17:24:47Z</time>
      </trkpt>
      <trkpt lat="47.02901" lon="6.32328">
        <ele>663</ele>
        <time>2020-05-22T17:24:48Z</time>
      </trkpt>
      <trkpt lat="47.02896" lon="6.32324">
        <ele>663</ele>
        <time>2020-05-22T17:24:49Z</time>
      </trkpt>
      <trkpt lat="47.0289" lon="6.32321">
        <ele>663</ele>
        <time>2020-05-22T17:24:50Z</time>
      </trkpt>
      <trkpt lat="47.02885" lon="6.32317">
        <ele>663</ele>
        <time>2020-05-22T17:24:51Z</time>
      </trkpt>
      <trkpt lat="47.0288" lon="6.32314">
        <ele>663</ele>
        <time>2020-05-22T17:24:52Z</time>
      </trkpt>
      <trkpt lat="47.02874" lon="6.3231">
        <ele>663</ele>
        <time>2020-05-22T17:24:53Z</time>
      </trkpt>
      <trkpt lat="47.02869" lon="6.32307">
        <ele>663</ele>
        <time>2020-05-22T17:24:54Z</time>
      </trkpt>
      <trkpt lat="47.02864" lon="6.32304">
        <ele>663</ele>
        <time>2020-05-22T17:24:55Z</time>
      </trkpt>
      <trkpt lat="47.02859" lon="6.32301">
        <ele>663</ele>
        <time>2020-05-22T17:24:56Z</time>
      </trkpt>
      <trkpt lat="47.02855" lon="6.32298">
        <ele>663</ele>
        <time>2020-05-22T17:24:57Z</time>
      </trkpt>
      <trkpt lat="47.0285" lon="6.32295">
        <ele>663.2</ele>
        <time>2020-05-22T17:24:58Z</time>
      </trkpt>
      <trkpt lat="47.02846" lon="6.32292">
        <ele>663.2</ele>
        <time>2020-05-22T17:24:59Z</time>
      </trkpt>
      <trkpt lat="47.02842" lon="6.32289">
        <ele>663.6</ele>
        <time>2020-05-22T17:25:00Z</time>
      </trkpt>
      <trkpt lat="47.02838" lon="6.32287">
        <ele>663.6</ele>
        <time>2020-05-22T17:25:01Z</time>
      </trkpt>
      <trkpt lat="47.02834" lon="6.32284">
        <ele>663.8</ele>
        <time>2020-05-22T17:25:02Z</time>
      </trkpt>
      <trkpt lat="47.0283" lon="6.32281">
        <ele>663.8</ele>
        <time>2020-05-22T17:25:03Z</time>
      </trkpt>
      <trkpt lat="47.02826" lon="6.32279">
        <ele>664.2</ele>
        <time>2020-05-22T17:25:04Z</time>
      </trkpt>
      <trkpt lat="47.02822" lon="6.32277">
        <ele>664.2</ele>
        <time>2020-05-22T17:25:05Z</time>
      </trkpt>
      <trkpt lat="47.02819" lon="6.32276">
        <ele>664.4</ele>
        <time>2020-05-22T17:25:06Z</time>
      </trkpt>
      <trkpt lat="47.02815" lon="6.32275">
        <ele>664.4</ele>
        <time>2020-05-22T17:25:07Z</time>
      </trkpt>
      <trkpt lat="47.02812" lon="6.32273">
        <ele>664.4</ele>
        <time>2020-05-22T17:25:08Z</time>
      </trkpt>
      <trkpt lat="47.02809" lon="6.32271">
        <ele>664.8</ele>
        <time>2020-05-22T17:25:09Z</time>
      </trkpt>
      <trkpt lat="47.02806" lon="6.3227">
        <ele>664.8</ele>
        <time>2020-05-22T17:25:10Z</time>
      </trkpt>
      <trkpt lat="47.02804" lon="6.32268">
        <ele>665</ele>
        <time>2020-05-22T17:25:11Z</time>
      </trkpt>
      <trkpt lat="47.02801" lon="6.32266">
        <ele>665</ele>
        <time>2020-05-22T17:25:12Z</time>
      </trkpt>
      <trkpt lat="47.02799" lon="6.32264">
        <ele>665.2</ele>
        <time>2020-05-22T17:25:13Z</time>
      </trkpt>
      <trkpt lat="47.02796" lon="6.32263">
        <ele>665.4</ele>
        <time>2020-05-22T17:25:14Z</time>
      </trkpt>
      <trkpt lat="47.02794" lon="6.32262">
        <ele>665.4</ele>
        <time>2020-05-22T17:25:15Z</time>
      </trkpt>
      <trkpt lat="47.02792" lon="6.3226">
        <ele>665.6</ele>
        <time>2020-05-22T17:25:16Z</time>
      </trkpt>
      <trkpt lat="47.02789" lon="6.32259">
        <ele>665.6</ele>
        <time>2020-05-22T17:25:17Z</time>
      </trkpt>
      <trkpt lat="47.02787" lon="6.32258">
        <ele>666</ele>
        <time>2020-05-22T17:25:18Z</time>
      </trkpt>
      <trkpt lat="47.02785" lon="6.32256">
        <ele>666</ele>
        <time>2020-05-22T17:25:19Z</time>
      </trkpt>
      <trkpt lat="47.02783" lon="6.32255">
        <ele>666</ele>
        <time>2020-05-22T17:25:20Z</time>
      </trkpt>
      <trkpt lat="47.0278" lon="6.32254">
        <ele>666.2</ele>
        <time>2020-05-22T17:25:21Z</time>
      </trkpt>
      <trkpt lat="47.02778" lon="6.32253">
        <ele>666.2</ele>
        <time>2020-05-22T17:25:22Z</time>
      </trkpt>
      <trkpt lat="47.02776" lon="6.32251">
        <ele>666.2</ele>
        <time>2020-05-22T17:25:23Z</time>
      </trkpt>
      <trkpt lat="47.02774" lon="6.3225">
        <ele>666.6</ele>
        <time>2020-05-22T17:25:24Z</time>
      </trkpt>
      <trkpt lat="47.02772" lon="6.32248">
        <ele>666.6</ele>
        <time>2020-05-22T17:25:25Z</time>
      </trkpt>
      <trkpt lat="47.0277" lon="6.32246">
        <ele>666.8</ele>
        <time>2020-05-22T17:25:26Z</time>
      </trkpt>
      <trkpt lat="47.02767" lon="6.32245">
        <ele>666.8</ele>
        <time>2020-05-22T17:25:27Z</time>
      </trkpt>
      <trkpt lat="47.02765" lon="6.32243">
        <ele>667.2</ele>
        <time>2020-05-22T17:25:28Z</time>
      </trkpt>
      <trkpt lat="47.02763" lon="6.32241">
        <ele>667.2</ele>
        <time>2020-05-22T17:25:29Z</time>
      </trkpt>
      <trkpt lat="47.02761" lon="6.3224">
        <ele>667.4</ele>
        <time>2020-05-22T17:25:30Z</time>
      </trkpt>
      <trkpt lat="47.02759" lon="6.32238">
        <ele>667.4</ele>
        <time>2020-05-22T17:25:31Z</time>
      </trkpt>
      <trkpt lat="47.02757" lon="6.32237">
        <ele>667.6</ele>
        <time>2020-05-22T17:25:32Z</time>
      </trkpt>
      <trkpt lat="47.02756" lon="6.32235">
        <ele>667.6</ele>
        <time>2020-05-22T17:25:33Z</time>
      </trkpt>
      <trkpt lat="47.02754" lon="6.32233">
        <ele>667.8</ele>
        <time>2020-05-22T17:25:34Z</time>
      </trkpt>
      <trkpt lat="47.02752" lon="6.32231">
        <ele>667.8</ele>
        <time>2020-05-22T17:25:35Z</time>
      </trkpt>
      <trkpt lat="47.02751" lon="6.32229">
        <ele>668</ele>
        <time>2020-05-22T17:25:36Z</time>
      </trkpt>
      <trkpt lat="47.02749" lon="6.32227">
        <ele>668</ele>
        <time>2020-05-22T17:25:37Z</time>
      </trkpt>
      <trkpt lat="47.02747" lon="6.32226">
        <ele>668.4</ele>
        <time>2020-05-22T17:25:38Z</time>
      </trkpt>
      <trkpt lat="47.02746" lon="6.32224">
        <ele>668.4</ele>
        <time>2020-05-22T17:25:39Z</time>
      </trkpt>
      <trkpt lat="47.02744" lon="6.32222">
        <ele>668.6</ele>
        <time>2020-05-22T17:25:40Z</time>
      </trkpt>
      <trkpt lat="47.02743" lon="6.3222">
        <ele>668.6</ele>
        <time>2020-05-22T17:25:41Z</time>
      </trkpt>
      <trkpt lat="47.02741" lon="6.32217">
        <ele>668.8</ele>
        <time>2020-05-22T17:25:42Z</time>
      </trkpt>
      <trkpt lat="47.0274" lon="6.32215">
        <ele>668.8</ele>
        <time>2020-05-22T17:25:43Z</time>
      </trkpt>
      <trkpt lat="47.02739" lon="6.32213">
        <ele>668.8</ele>
        <time>2020-05-22T17:25:44Z</time>
      </trkpt>
      <trkpt lat="47.02737" lon="6.32211">
        <ele>669.2</ele>
        <time>2020-05-22T17:25:45Z</time>
      </trkpt>
      <trkpt lat="47.02736" lon="6.3221">
        <ele>669.2</ele>
        <time>2020-05-22T17:25:46Z</time>
      </trkpt>
      <trkpt lat="47.02735" lon="6.32207">
        <ele>669.4</ele>
        <time>2020-05-22T17:25:47Z</time>
      </trkpt>
      <trkpt lat="47.02734" lon="6.32205">
        <ele>669.4</ele>
        <time>2020-05-22T17:25:48Z</time>
      </trkpt>
      <trkpt lat="47.02733" lon="6.32202">
        <ele>669.8</ele>
        <time>2020-05-22T17:25:49Z</time>
      </trkpt>
      <trkpt lat="47.02732" lon="6.322">
        <ele>669.8</ele>
        <time>2020-05-22T17:25:50Z</time>
      </trkpt>
      <trkpt lat="47.02731" lon="6.32198">
        <ele>669.8</ele>
        <time>2020-05-22T17:25:51Z</time>
      </trkpt>
      <trkpt lat="47.0273" lon="6.32195">
        <ele>670</ele>
        <time>2020-05-22T17:25:52Z</time>
      </trkpt>
      <trkpt lat="47.02729" lon="6.32193">
        <ele>670</ele>
        <time>2020-05-22T17:25:53Z</time>
      </trkpt>
      <trkpt lat="47.02728" lon="6.3219">
        <ele>670.2</ele>
        <time>2020-05-22T17:25:54Z</time>
      </trkpt>
      <trkpt lat="47.02727" lon="6.32188">
        <ele>670.2</ele>
        <time>2020-05-22T17:25:55Z</time>
      </trkpt>
      <trkpt lat="47.02725" lon="6.32186">
        <ele>670.6</ele>
        <time>2020-05-22T17:25:56Z</time>
      </trkpt>
      <trkpt lat="47.02724" lon="6.32184">
        <ele>670.6</ele>
        <time>2020-05-22T17:25:57Z</time>
      </trkpt>
      <trkpt lat="47.02723" lon="6.32181">
        <ele>670.8</ele>
        <time>2020-05-22T17:25:58Z</time>
      </trkpt>
      <trkpt lat="47.02723" lon="6.32179">
        <ele>670.8</ele>
        <time>2020-05-22T17:25:59Z</time>
      </trkpt>
      <trkpt lat="47.02722" lon="6.32176">
        <ele>671</ele>
        <time>2020-05-22T17:26:00Z</time>
      </trkpt>
      <trkpt lat="47.02721" lon="6.32174">
        <ele>671</ele>
        <time>2020-05-22T17:26:01Z</time>
      </trkpt>
      <trkpt lat="47.0272" lon="6.32171">
        <ele>671</ele>
        <time>2020-05-22T17:26:02Z</time>
      </trkpt>
      <trkpt lat="47.02719" lon="6.32168">
        <ele>671.4</ele>
        <time>2020-05-22T17:26:03Z</time>
      </trkpt>
      <trkpt lat="47.02718" lon="6.32166">
        <ele>671.4</ele>
        <time>2020-05-22T17:26:04Z</time>
      </trkpt>
      <trkpt lat="47.02717" lon="6.32164">
        <ele>671.4</ele>
        <time>2020-05-22T17:26:05Z</time>
      </trkpt>
      <trkpt lat="47.02717" lon="6.32161">
        <ele>671.6</ele>
        <time>2020-05-22T17:26:06Z</time>
      </trkpt>
      <trkpt lat="47.02716" lon="6.32159">
        <ele>671.6</ele>
        <time>2020-05-22T17:26:07Z</time>
      </trkpt>
      <trkpt lat="47.02715" lon="6.32156">
        <ele>671.8</ele>
        <time>2020-05-22T17:26:08Z</time>
      </trkpt>
      <trkpt lat="47.02715" lon="6.32154">
        <ele>671.8</ele>
        <time>2020-05-22T17:26:09Z</time>
      </trkpt>
      <trkpt lat="47.02714" lon="6.32151">
        <ele>671.8</ele>
        <time>2020-05-22T17:26:10Z</time>
      </trkpt>
      <trkpt lat="47.02712" lon="6.32149">
        <ele>672.2</ele>
        <time>2020-05-22T17:26:11Z</time>
      </trkpt>
      <trkpt lat="47.02712" lon="6.32146">
        <ele>672.2</ele>
        <time>2020-05-22T17:26:12Z</time>
      </trkpt>
      <trkpt lat="47.02711" lon="6.32144">
        <ele>672.2</ele>
        <time>2020-05-22T17:26:13Z</time>
      </trkpt>
      <trkpt lat="47.0271" lon="6.32141">
        <ele>672.4</ele>
        <time>2020-05-22T17:26:14Z</time>
      </trkpt>
      <trkpt lat="47.02709" lon="6.32139">
        <ele>672.4</ele>
        <time>2020-05-22T17:26:15Z</time>
      </trkpt>
      <trkpt lat="47.02708" lon="6.32136">
        <ele>672.4</ele>
        <time>2020-05-22T17:26:16Z</time>
      </trkpt>
      <trkpt lat="47.02707" lon="6.32134">
        <ele>672.6</ele>
        <time>2020-05-22T17:26:17Z</time>
      </trkpt>
      <trkpt lat="47.02706" lon="6.32131">
        <ele>672.6</ele>
        <time>2020-05-22T17:26:18Z</time>
      </trkpt>
      <trkpt lat="47.02705" lon="6.32129">
        <ele>672.8</ele>
        <time>2020-05-22T17:26:19Z</time>
      </trkpt>
      <trkpt lat="47.02704" lon="6.32127">
        <ele>672.8</ele>
        <time>2020-05-22T17:26:20Z</time>
      </trkpt>
      <trkpt lat="47.02703" lon="6.32124">
        <ele>672.8</ele>
        <time>2020-05-22T17:26:21Z</time>
      </trkpt>
      <trkpt lat="47.02702" lon="6.32121">
        <ele>673.2</ele>
        <time>2020-05-22T17:26:22Z</time>
      </trkpt>
      <trkpt lat="47.02702" lon="6.32119">
        <ele>673.2</ele>
        <time>2020-05-22T17:26:23Z</time>
      </trkpt>
      <trkpt lat="47.02701" lon="6.32116">
        <ele>673.2</ele>
        <time>2020-05-22T17:26:24Z</time>
      </trkpt>
      <trkpt lat="47.027" lon="6.32113">
        <ele>673.6</ele>
        <time>2020-05-22T17:26:25Z</time>
      </trkpt>
      <trkpt lat="47.02699" lon="6.32111">
        <ele>673.6</ele>
        <time>2020-05-22T17:26:26Z</time>
      </trkpt>
      <trkpt lat="47.02698" lon="6.32108">
        <ele>673.6</ele>
        <time>2020-05-22T17:26:27Z</time>
      </trkpt>
      <trkpt lat="47.02697" lon="6.32105">
        <ele>673.8</ele>
        <time>2020-05-22T17:26:28Z</time>
      </trkpt>
      <trkpt lat="47.02697" lon="6.32103">
        <ele>673.8</ele>
        <time>2020-05-22T17:26:29Z</time>
      </trkpt>
      <trkpt lat="47.02696" lon="6.321">
        <ele>674</ele>
        <time>2020-05-22T17:26:30Z</time>
      </trkpt>
      <trkpt lat="47.02695" lon="6.32097">
        <ele>674</ele>
        <time>2020-05-22T17:26:31Z</time>
      </trkpt>
      <trkpt lat="47.02694" lon="6.32095">
        <ele>674.4</ele>
        <time>2020-05-22T17:26:32Z</time>
      </trkpt>
      <trkpt lat="47.02693" lon="6.32092">
        <ele>674.4</ele>
        <time>2020-05-22T17:26:33Z</time>
      </trkpt>
      <trkpt lat="47.02692" lon="6.3209">
        <ele>674.4</ele>
        <time>2020-05-22T17:26:34Z</time>
      </trkpt>
      <trkpt lat="47.02691" lon="6.32087">
        <ele>674.8</ele>
        <time>2020-05-22T17:26:35Z</time>
      </trkpt>
      <trkpt lat="47.02691" lon="6.32084">
        <ele>674.8</ele>
        <time>2020-05-22T17:26:36Z</time>
      </trkpt>
      <trkpt lat="47.0269" lon="6.32081">
        <ele>674.8</ele>
        <time>2020-05-22T17:26:37Z</time>
      </trkpt>
      <trkpt lat="47.02689" lon="6.32079">
        <ele>675</ele>
        <time>2020-05-22T17:26:38Z</time>
      </trkpt>
      <trkpt lat="47.02688" lon="6.32076">
        <ele>675</ele>
        <time>2020-05-22T17:26:39Z</time>
      </trkpt>
      <trkpt lat="47.02687" lon="6.32073">
        <ele>675.4</ele>
        <time>2020-05-22T17:26:40Z</time>
      </trkpt>
      <trkpt lat="47.02685" lon="6.32071">
        <ele>675.4</ele>
        <time>2020-05-22T17:26:41Z</time>
      </trkpt>
      <trkpt lat="47.02684" lon="6.32068">
        <ele>675.6</ele>
        <time>2020-05-22T17:26:42Z</time>
      </trkpt>
      <trkpt lat="47.02683" lon="6.32066">
        <ele>675.6</ele>
        <time>2020-05-22T17:26:43Z</time>
      </trkpt>
      <trkpt lat="47.02682" lon="6.32063">
        <ele>675.8</ele>
        <time>2020-05-22T17:26:44Z</time>
      </trkpt>
      <trkpt lat="47.02681" lon="6.32061">
        <ele>675.8</ele>
        <time>2020-05-22T17:26:45Z</time>
      </trkpt>
      <trkpt lat="47.0268" lon="6.32058">
        <ele>676</ele>
        <time>2020-05-22T17:26:46Z</time>
      </trkpt>
      <trkpt lat="47.0268" lon="6.32055">
        <ele>676</ele>
        <time>2020-05-22T17:26:47Z</time>
      </trkpt>
      <trkpt lat="47.02679" lon="6.32052">
        <ele>676.2</ele>
        <time>2020-05-22T17:26:48Z</time>
      </trkpt>
      <trkpt lat="47.02678" lon="6.32049">
        <ele>676.2</ele>
        <time>2020-05-22T17:26:49Z</time>
      </trkpt>
      <trkpt lat="47.02677" lon="6.32047">
        <ele>676.6</ele>
        <time>2020-05-22T17:26:50Z</time>
      </trkpt>
      <trkpt lat="47.02676" lon="6.32044">
        <ele>676.6</ele>
        <time>2020-05-22T17:26:51Z</time>
      </trkpt>
      <trkpt lat="47.02675" lon="6.32042">
        <ele>676.8</ele>
        <time>2020-05-22T17:26:52Z</time>
      </trkpt>
      <trkpt lat="47.02674" lon="6.32039">
        <ele>676.8</ele>
        <time>2020-05-22T17:26:53Z</time>
      </trkpt>
      <trkpt lat="47.02673" lon="6.32036">
        <ele>676.8</ele>
        <time>2020-05-22T17:26:54Z</time>
      </trkpt>
      <trkpt lat="47.02672" lon="6.32034">
        <ele>677</ele>
        <time>2020-05-22T17:26:55Z</time>
      </trkpt>
      <trkpt lat="47.02671" lon="6.32031">
        <ele>677</ele>
        <time>2020-05-22T17:26:56Z</time>
      </trkpt>
      <trkpt lat="47.0267" lon="6.32029">
        <ele>677.2</ele>
        <time>2020-05-22T17:26:57Z</time>
      </trkpt>
      <trkpt lat="47.02669" lon="6.32027">
        <ele>677.2</ele>
        <time>2020-05-22T17:26:58Z</time>
      </trkpt>
      <trkpt lat="47.02668" lon="6.32025">
        <ele>677.4</ele>
        <time>2020-05-22T17:26:59Z</time>
      </trkpt>
      <trkpt lat="47.02667" lon="6.32023">
        <ele>677.4</ele>
        <time>2020-05-22T17:27:00Z</time>
      </trkpt>
      <trkpt lat="47.02666" lon="6.3202">
        <ele>677.4</ele>
        <time>2020-05-22T17:27:01Z</time>
      </trkpt>
      <trkpt lat="47.02665" lon="6.32018">
        <ele>677.8</ele>
        <time>2020-05-22T17:27:02Z</time>
      </trkpt>
      <trkpt lat="47.02664" lon="6.32016">
        <ele>677.8</ele>
        <time>2020-05-22T17:27:03Z</time>
      </trkpt>
      <trkpt lat="47.02663" lon="6.32013">
        <ele>677.8</ele>
        <time>2020-05-22T17:27:04Z</time>
      </trkpt>
      <trkpt lat="47.02662" lon="6.32011">
        <ele>677.8</ele>
        <time>2020-05-22T17:27:05Z</time>
      </trkpt>
      <trkpt lat="47.02661" lon="6.32009">
        <ele>677.8</ele>
        <time>2020-05-22T17:27:06Z</time>
      </trkpt>
      <trkpt lat="47.0266" lon="6.32007">
        <ele>678</ele>
        <time>2020-05-22T17:27:07Z</time>
      </trkpt>
      <trkpt lat="47.02659" lon="6.32005">
        <ele>678</ele>
        <time>2020-05-22T17:27:08Z</time>
      </trkpt>
      <trkpt lat="47.02658" lon="6.32002">
        <ele>678.2</ele>
        <time>2020-05-22T17:27:09Z</time>
      </trkpt>
      <trkpt lat="47.02657" lon="6.32">
        <ele>678.2</ele>
        <time>2020-05-22T17:27:10Z</time>
      </trkpt>
      <trkpt lat="47.02655" lon="6.31998">
        <ele>678.2</ele>
        <time>2020-05-22T17:27:11Z</time>
      </trkpt>
      <trkpt lat="47.02654" lon="6.31996">
        <ele>678.6</ele>
        <time>2020-05-22T17:27:12Z</time>
      </trkpt>
      <trkpt lat="47.02653" lon="6.31994">
        <ele>678.6</ele>
        <time>2020-05-22T17:27:13Z</time>
      </trkpt>
      <trkpt lat="47.02651" lon="6.31992">
        <ele>678.8</ele>
        <time>2020-05-22T17:27:14Z</time>
      </trkpt>
      <trkpt lat="47.0265" lon="6.31991">
        <ele>678.8</ele>
        <time>2020-05-22T17:27:15Z</time>
      </trkpt>
      <trkpt lat="47.02648" lon="6.31989">
        <ele>678.8</ele>
        <time>2020-05-22T17:27:16Z</time>
      </trkpt>
      <trkpt lat="47.02647" lon="6.31987">
        <ele>679.2</ele>
        <time>2020-05-22T17:27:17Z</time>
      </trkpt>
      <trkpt lat="47.02645" lon="6.31986">
        <ele>679.2</ele>
        <time>2020-05-22T17:27:18Z</time>
      </trkpt>
      <trkpt lat="47.02644" lon="6.31985">
        <ele>679.2</ele>
        <time>2020-05-22T17:27:19Z</time>
      </trkpt>
      <trkpt lat="47.02642" lon="6.31984">
        <ele>679.4</ele>
        <time>2020-05-22T17:27:20Z</time>
      </trkpt>
      <trkpt lat="47.0264" lon="6.31983">
        <ele>679.4</ele>
        <time>2020-05-22T17:27:21Z</time>
      </trkpt>
      <trkpt lat="47.02638" lon="6.31981">
        <ele>679.8</ele>
        <time>2020-05-22T17:27:22Z</time>
      </trkpt>
      <trkpt lat="47.02636" lon="6.31981">
        <ele>679.8</ele>
        <time>2020-05-22T17:27:23Z</time>
      </trkpt>
      <trkpt lat="47.02634" lon="6.3198">
        <ele>679.8</ele>
        <time>2020-05-22T17:27:24Z</time>
      </trkpt>
      <trkpt lat="47.02633" lon="6.31979">
        <ele>680</ele>
        <time>2020-05-22T17:27:25Z</time>
      </trkpt>
      <trkpt lat="47.02631" lon="6.31978">
        <ele>680</ele>
        <time>2020-05-22T17:27:26Z</time>
      </trkpt>
      <trkpt lat="47.02629" lon="6.31978">
        <ele>680.4</ele>
        <time>2020-05-22T17:27:27Z</time>
      </trkpt>
      <trkpt lat="47.02627" lon="6.31978">
        <ele>680.4</ele>
        <time>2020-05-22T17:27:28Z</time>
      </trkpt>
      <trkpt lat="47.02625" lon="6.31979">
        <ele>680.6</ele>
        <time>2020-05-22T17:27:29Z</time>
      </trkpt>
      <trkpt lat="47.02624" lon="6.31981">
        <ele>680.6</ele>
        <time>2020-05-22T17:27:30Z</time>
      </trkpt>
      <trkpt lat="47.02622" lon="6.31983">
        <ele>680.8</ele>
        <time>2020-05-22T17:27:31Z</time>
      </trkpt>
      <trkpt lat="47.0262" lon="6.31984">
        <ele>680.8</ele>
        <time>2020-05-22T17:27:32Z</time>
      </trkpt>
      <trkpt lat="47.02619" lon="6.31986">
        <ele>681</ele>
        <time>2020-05-22T17:27:33Z</time>
      </trkpt>
      <trkpt lat="47.02617" lon="6.31988">
        <ele>681</ele>
        <time>2020-05-22T17:27:34Z</time>
      </trkpt>
      <trkpt lat="47.02616" lon="6.31989">
        <ele>681</ele>
        <time>2020-05-22T17:27:35Z</time>
      </trkpt>
      <trkpt lat="47.02615" lon="6.31992">
        <ele>681.2</ele>
        <time>2020-05-22T17:27:36Z</time>
      </trkpt>
      <trkpt lat="47.02614" lon="6.31994">
        <ele>681.2</ele>
        <time>2020-05-22T17:27:37Z</time>
      </trkpt>
      <trkpt lat="47.02614" lon="6.31997">
        <ele>681.2</ele>
        <time>2020-05-22T17:27:38Z</time>
      </trkpt>
      <trkpt lat="47.02613" lon="6.31999">
        <ele>681.6</ele>
        <time>2020-05-22T17:27:39Z</time>
      </trkpt>
      <trkpt lat="47.02613" lon="6.32002">
        <ele>681.6</ele>
        <time>2020-05-22T17:27:40Z</time>
      </trkpt>
      <trkpt lat="47.02613" lon="6.32005">
        <ele>681.6</ele>
        <time>2020-05-22T17:27:41Z</time>
      </trkpt>
      <trkpt lat="47.02613" lon="6.32008">
        <ele>681.8</ele>
        <time>2020-05-22T17:27:42Z</time>
      </trkpt>
      <trkpt lat="47.02613" lon="6.32011">
        <ele>681.8</ele>
        <time>2020-05-22T17:27:43Z</time>
      </trkpt>
      <trkpt lat="47.02613" lon="6.32014">
        <ele>682</ele>
        <time>2020-05-22T17:27:44Z</time>
      </trkpt>
      <trkpt lat="47.02613" lon="6.32016">
        <ele>682</ele>
        <time>2020-05-22T17:27:45Z</time>
      </trkpt>
      <trkpt lat="47.02613" lon="6.32019">
        <ele>682.2</ele>
        <time>2020-05-22T17:27:46Z</time>
      </trkpt>
      <trkpt lat="47.02614" lon="6.32022">
        <ele>682.2</ele>
        <time>2020-05-22T17:27:47Z</time>
      </trkpt>
      <trkpt lat="47.02615" lon="6.32025">
        <ele>682.2</ele>
        <time>2020-05-22T17:27:48Z</time>
      </trkpt>
      <trkpt lat="47.02615" lon="6.32028">
        <ele>682.6</ele>
        <time>2020-05-22T17:27:49Z</time>
      </trkpt>
      <trkpt lat="47.02616" lon="6.32031">
        <ele>682.6</ele>
        <time>2020-05-22T17:27:50Z</time>
      </trkpt>
      <trkpt lat="47.02616" lon="6.32034">
        <ele>682.6</ele>
        <time>2020-05-22T17:27:51Z</time>
      </trkpt>
      <trkpt lat="47.02617" lon="6.32037">
        <ele>682.8</ele>
        <time>2020-05-22T17:27:52Z</time>
      </trkpt>
      <trkpt lat="47.02618" lon="6.3204">
        <ele>682.8</ele>
        <time>2020-05-22T17:27:53Z</time>
      </trkpt>
      <trkpt lat="47.02618" lon="6.32042">
        <ele>682.8</ele>
        <time>2020-05-22T17:27:54Z</time>
      </trkpt>
      <trkpt lat="47.02619" lon="6.32045">
        <ele>683</ele>
        <time>2020-05-22T17:27:55Z</time>
      </trkpt>
      <trkpt lat="47.02619" lon="6.32048">
        <ele>683</ele>
        <time>2020-05-22T17:27:56Z</time>
      </trkpt>
      <trkpt lat="47.0262" lon="6.32051">
        <ele>683</ele>
        <time>2020-05-22T17:27:57Z</time>
      </trkpt>
      <trkpt lat="47.0262" lon="6.32054">
        <ele>683.2</ele>
        <time>2020-05-22T17:27:58Z</time>
      </trkpt>
      <trkpt lat="47.02621" lon="6.32057">
        <ele>683.2</ele>
        <time>2020-05-22T17:27:59Z</time>
      </trkpt>
      <trkpt lat="47.02621" lon="6.3206">
        <ele>683.6</ele>
        <time>2020-05-22T17:28:00Z</time>
      </trkpt>
      <trkpt lat="47.02622" lon="6.32063">
        <ele>683.6</ele>
        <time>2020-05-22T17:28:01Z</time>
      </trkpt>
      <trkpt lat="47.02622" lon="6.32066">
        <ele>683.6</ele>
        <time>2020-05-22T17:28:02Z</time>
      </trkpt>
      <trkpt lat="47.02623" lon="6.32069">
        <ele>683.8</ele>
        <time>2020-05-22T17:28:03Z</time>
      </trkpt>
      <trkpt lat="47.02623" lon="6.32071">
        <ele>683.8</ele>
        <time>2020-05-22T17:28:04Z</time>
      </trkpt>
      <trkpt lat="47.02624" lon="6.32074">
        <ele>683.8</ele>
        <time>2020-05-22T17:28:05Z</time>
      </trkpt>
      <trkpt lat="47.02625" lon="6.32077">
        <ele>684</ele>
        <time>2020-05-22T17:28:06Z</time>
      </trkpt>
      <trkpt lat="47.02625" lon="6.32079">
        <ele>684</ele>
        <time>2020-05-22T17:28:07Z</time>
      </trkpt>
      <trkpt lat="47.02625" lon="6.32082">
        <ele>684.2</ele>
        <time>2020-05-22T17:28:08Z</time>
      </trkpt>
      <trkpt lat="47.02626" lon="6.32085">
        <ele>684.2</ele>
        <time>2020-05-22T17:28:09Z</time>
      </trkpt>
      <trkpt lat="47.02626" lon="6.32088">
        <ele>684.4</ele>
        <time>2020-05-22T17:28:10Z</time>
      </trkpt>
      <trkpt lat="47.02627" lon="6.3209">
        <ele>684.4</ele>
        <time>2020-05-22T17:28:11Z</time>
      </trkpt>
      <trkpt lat="47.02627" lon="6.32093">
        <ele>684.4</ele>
        <time>2020-05-22T17:28:12Z</time>
      </trkpt>
      <trkpt lat="47.02628" lon="6.32096">
        <ele>684.8</ele>
        <time>2020-05-22T17:28:13Z</time>
      </trkpt>
      <trkpt lat="47.02628" lon="6.32099">
        <ele>684.8</ele>
        <time>2020-05-22T17:28:14Z</time>
      </trkpt>
      <trkpt lat="47.02629" lon="6.32102">
        <ele>685</ele>
        <time>2020-05-22T17:28:15Z</time>
      </trkpt>
      <trkpt lat="47.02629" lon="6.32105">
        <ele>685</ele>
        <time>2020-05-22T17:28:16Z</time>
      </trkpt>
      <trkpt lat="47.02629" lon="6.32108">
        <ele>685.2</ele>
        <time>2020-05-22T17:28:17Z</time>
      </trkpt>
      <trkpt lat="47.0263" lon="6.3211">
        <ele>685.2</ele>
        <time>2020-05-22T17:28:18Z</time>
      </trkpt>
      <trkpt lat="47.0263" lon="6.32113">
        <ele>685.2</ele>
        <time>2020-05-22T17:28:19Z</time>
      </trkpt>
      <trkpt lat="47.02631" lon="6.32116">
        <ele>685.4</ele>
        <time>2020-05-22T17:28:20Z</time>
      </trkpt>
      <trkpt lat="47.02631" lon="6.32119">
        <ele>685.4</ele>
        <time>2020-05-22T17:28:21Z</time>
      </trkpt>
      <trkpt lat="47.02631" lon="6.32122">
        <ele>685.4</ele>
        <time>2020-05-22T17:28:22Z</time>
      </trkpt>
      <trkpt lat="47.02631" lon="6.32125">
        <ele>685.6</ele>
        <time>2020-05-22T17:28:23Z</time>
      </trkpt>
      <trkpt lat="47.02631" lon="6.32128">
        <ele>685.6</ele>
        <time>2020-05-22T17:28:24Z</time>
      </trkpt>
      <trkpt lat="47.02632" lon="6.32131">
        <ele>685.6</ele>
        <time>2020-05-22T17:28:25Z</time>
      </trkpt>
      <trkpt lat="47.02632" lon="6.32134">
        <ele>686</ele>
        <time>2020-05-22T17:28:26Z</time>
      </trkpt>
      <trkpt lat="47.02632" lon="6.32137">
        <ele>686</ele>
        <time>2020-05-22T17:28:27Z</time>
      </trkpt>
      <trkpt lat="47.02632" lon="6.3214">
        <ele>686.2</ele>
        <time>2020-05-22T17:28:28Z</time>
      </trkpt>
      <trkpt lat="47.02633" lon="6.32142">
        <ele>686.2</ele>
        <time>2020-05-22T17:28:29Z</time>
      </trkpt>
      <trkpt lat="47.02633" lon="6.32145">
        <ele>686.4</ele>
        <time>2020-05-22T17:28:30Z</time>
      </trkpt>
      <trkpt lat="47.02633" lon="6.32148">
        <ele>686.4</ele>
        <time>2020-05-22T17:28:31Z</time>
      </trkpt>
      <trkpt lat="47.02633" lon="6.32151">
        <ele>686.4</ele>
        <time>2020-05-22T17:28:32Z</time>
      </trkpt>
      <trkpt lat="47.02634" lon="6.32154">
        <ele>686.6</ele>
        <time>2020-05-22T17:28:33Z</time>
      </trkpt>
      <trkpt lat="47.02634" lon="6.32157">
        <ele>686.6</ele>
        <time>2020-05-22T17:28:34Z</time>
      </trkpt>
      <trkpt lat="47.02634" lon="6.32159">
        <ele>687</ele>
        <time>2020-05-22T17:28:35Z</time>
      </trkpt>
      <trkpt lat="47.02633" lon="6.32162">
        <ele>687</ele>
        <time>2020-05-22T17:28:36Z</time>
      </trkpt>
      <trkpt lat="47.02633" lon="6.32165">
        <ele>687</ele>
        <time>2020-05-22T17:28:37Z</time>
      </trkpt>
      <trkpt lat="47.02633" lon="6.32168">
        <ele>687.2</ele>
        <time>2020-05-22T17:28:38Z</time>
      </trkpt>
      <trkpt lat="47.02633" lon="6.3217">
        <ele>687.2</ele>
        <time>2020-05-22T17:28:39Z</time>
      </trkpt>
      <trkpt lat="47.02633" lon="6.32173">
        <ele>687.4</ele>
        <time>2020-05-22T17:28:40Z</time>
      </trkpt>
      <trkpt lat="47.02633" lon="6.32176">
        <ele>687.4</ele>
        <time>2020-05-22T17:28:41Z</time>
      </trkpt>
      <trkpt lat="47.02632" lon="6.32179">
        <ele>687.4</ele>
        <time>2020-05-22T17:28:42Z</time>
      </trkpt>
      <trkpt lat="47.02632" lon="6.32182">
        <ele>687.6</ele>
        <time>2020-05-22T17:28:43Z</time>
      </trkpt>
      <trkpt lat="47.02632" lon="6.32185">
        <ele>687.6</ele>
        <time>2020-05-22T17:28:44Z</time>
      </trkpt>
      <trkpt lat="47.02632" lon="6.32187">
        <ele>687.6</ele>
        <time>2020-05-22T17:28:45Z</time>
      </trkpt>
      <trkpt lat="47.02631" lon="6.3219">
        <ele>687.8</ele>
        <time>2020-05-22T17:28:46Z</time>
      </trkpt>
      <trkpt lat="47.02631" lon="6.32192">
        <ele>687.8</ele>
        <time>2020-05-22T17:28:47Z</time>
      </trkpt>
      <trkpt lat="47.0263" lon="6.32195">
        <ele>688</ele>
        <time>2020-05-22T17:28:48Z</time>
      </trkpt>
      <trkpt lat="47.0263" lon="6.32197">
        <ele>688</ele>
        <time>2020-05-22T17:28:49Z</time>
      </trkpt>
      <trkpt lat="47.02629" lon="6.322">
        <ele>688</ele>
        <time>2020-05-22T17:28:50Z</time>
      </trkpt>
      <trkpt lat="47.02629" lon="6.32203">
        <ele>688.4</ele>
        <time>2020-05-22T17:28:51Z</time>
      </trkpt>
      <trkpt lat="47.02629" lon="6.32206">
        <ele>688.4</ele>
        <time>2020-05-22T17:28:52Z</time>
      </trkpt>
      <trkpt lat="47.02628" lon="6.32208">
        <ele>688.6</ele>
        <time>2020-05-22T17:28:53Z</time>
      </trkpt>
      <trkpt lat="47.02628" lon="6.32211">
        <ele>688.6</ele>
        <time>2020-05-22T17:28:54Z</time>
      </trkpt>
      <trkpt lat="47.02627" lon="6.32214">
        <ele>688.6</ele>
        <time>2020-05-22T17:28:55Z</time>
      </trkpt>
      <trkpt lat="47.02627" lon="6.32217">
        <ele>688.6</ele>
        <time>2020-05-22T17:28:56Z</time>
      </trkpt>
      <trkpt lat="47.02627" lon="6.32219">
        <ele>688.8</ele>
        <time>2020-05-22T17:28:57Z</time>
      </trkpt>
      <trkpt lat="47.02626" lon="6.32222">
        <ele>688.8</ele>
        <time>2020-05-22T17:28:58Z</time>
      </trkpt>
      <trkpt lat="47.02626" lon="6.32224">
        <ele>688.8</ele>
        <time>2020-05-22T17:28:59Z</time>
      </trkpt>
      <trkpt lat="47.02625" lon="6.32227">
        <ele>689.2</ele>
        <time>2020-05-22T17:29:00Z</time>
      </trkpt>
      <trkpt lat="47.02624" lon="6.3223">
        <ele>689.2</ele>
        <time>2020-05-22T17:29:01Z</time>
      </trkpt>
      <trkpt lat="47.02624" lon="6.32233">
        <ele>689.6</ele>
        <time>2020-05-22T17:29:02Z</time>
      </trkpt>
      <trkpt lat="47.02623" lon="6.32235">
        <ele>689.6</ele>
        <time>2020-05-22T17:29:03Z</time>
      </trkpt>
      <trkpt lat="47.02623" lon="6.32238">
        <ele>689.8</ele>
        <time>2020-05-22T17:29:04Z</time>
      </trkpt>
      <trkpt lat="47.02622" lon="6.32241">
        <ele>690</ele>
        <time>2020-05-22T17:29:05Z</time>
      </trkpt>
      <trkpt lat="47.02621" lon="6.32244">
        <ele>690</ele>
        <time>2020-05-22T17:29:06Z</time>
      </trkpt>
      <trkpt lat="47.02621" lon="6.32247">
        <ele>690.4</ele>
        <time>2020-05-22T17:29:07Z</time>
      </trkpt>
      <trkpt lat="47.0262" lon="6.32251">
        <ele>690.4</ele>
        <time>2020-05-22T17:29:08Z</time>
      </trkpt>
      <trkpt lat="47.02619" lon="6.32254">
        <ele>690.4</ele>
        <time>2020-05-22T17:29:09Z</time>
      </trkpt>
      <trkpt lat="47.02618" lon="6.32257">
        <ele>690.6</ele>
        <time>2020-05-22T17:29:10Z</time>
      </trkpt>
      <trkpt lat="47.02618" lon="6.32261">
        <ele>690.8</ele>
        <time>2020-05-22T17:29:11Z</time>
      </trkpt>
      <trkpt lat="47.02617" lon="6.32264">
        <ele>690.8</ele>
        <time>2020-05-22T17:29:12Z</time>
      </trkpt>
      <trkpt lat="47.02616" lon="6.32267">
        <ele>691</ele>
        <time>2020-05-22T17:29:13Z</time>
      </trkpt>
      <trkpt lat="47.02615" lon="6.3227">
        <ele>691</ele>
        <time>2020-05-22T17:29:14Z</time>
      </trkpt>
      <trkpt lat="47.02614" lon="6.32273">
        <ele>691.4</ele>
        <time>2020-05-22T17:29:15Z</time>
      </trkpt>
      <trkpt lat="47.02614" lon="6.32276">
        <ele>691.4</ele>
        <time>2020-05-22T17:29:16Z</time>
      </trkpt>
      <trkpt lat="47.02613" lon="6.32279">
        <ele>691.6</ele>
        <time>2020-05-22T17:29:17Z</time>
      </trkpt>
      <trkpt lat="47.02612" lon="6.32282">
        <ele>691.6</ele>
        <time>2020-05-22T17:29:18Z</time>
      </trkpt>
      <trkpt lat="47.02611" lon="6.32285">
        <ele>691.8</ele>
        <time>2020-05-22T17:29:19Z</time>
      </trkpt>
      <trkpt lat="47.0261" lon="6.32288">
        <ele>691.8</ele>
        <time>2020-05-22T17:29:20Z</time>
      </trkpt>
      <trkpt lat="47.02609" lon="6.32291">
        <ele>691.8</ele>
        <time>2020-05-22T17:29:21Z</time>
      </trkpt>
      <trkpt lat="47.02608" lon="6.32294">
        <ele>692.2</ele>
        <time>2020-05-22T17:29:22Z</time>
      </trkpt>
      <trkpt lat="47.02607" lon="6.32297">
        <ele>692.2</ele>
        <time>2020-05-22T17:29:23Z</time>
      </trkpt>
      <trkpt lat="47.02607" lon="6.323">
        <ele>692.4</ele>
        <time>2020-05-22T17:29:24Z</time>
      </trkpt>
      <trkpt lat="47.02606" lon="6.32303">
        <ele>692.4</ele>
        <time>2020-05-22T17:29:25Z</time>
      </trkpt>
      <trkpt lat="47.02605" lon="6.32306">
        <ele>692.4</ele>
        <time>2020-05-22T17:29:26Z</time>
      </trkpt>
      <trkpt lat="47.02604" lon="6.32309">
        <ele>692.6</ele>
        <time>2020-05-22T17:29:27Z</time>
      </trkpt>
      <trkpt lat="47.02603" lon="6.32312">
        <ele>692.6</ele>
        <time>2020-05-22T17:29:28Z</time>
      </trkpt>
      <trkpt lat="47.02602" lon="6.32315">
        <ele>692.6</ele>
        <time>2020-05-22T17:29:29Z</time>
      </trkpt>
      <trkpt lat="47.02602" lon="6.32318">
        <ele>693</ele>
        <time>2020-05-22T17:29:30Z</time>
      </trkpt>
      <trkpt lat="47.02601" lon="6.32321">
        <ele>693</ele>
        <time>2020-05-22T17:29:31Z</time>
      </trkpt>
      <trkpt lat="47.026" lon="6.32324">
        <ele>693</ele>
        <time>2020-05-22T17:29:32Z</time>
      </trkpt>
      <trkpt lat="47.026" lon="6.32327">
        <ele>693.2</ele>
        <time>2020-05-22T17:29:33Z</time>
      </trkpt>
      <trkpt lat="47.02599" lon="6.3233">
        <ele>693.2</ele>
        <time>2020-05-22T17:29:34Z</time>
      </trkpt>
      <trkpt lat="47.02598" lon="6.32333">
        <ele>693.4</ele>
        <time>2020-05-22T17:29:35Z</time>
      </trkpt>
      <trkpt lat="47.02597" lon="6.32336">
        <ele>693.4</ele>
        <time>2020-05-22T17:29:36Z</time>
      </trkpt>
      <trkpt lat="47.02596" lon="6.32339">
        <ele>693.6</ele>
        <time>2020-05-22T17:29:37Z</time>
      </trkpt>
      <trkpt lat="47.02595" lon="6.32342">
        <ele>693.6</ele>
        <time>2020-05-22T17:29:38Z</time>
      </trkpt>
      <trkpt lat="47.02595" lon="6.32346">
        <ele>693.6</ele>
        <time>2020-05-22T17:29:39Z</time>
      </trkpt>
      <trkpt lat="47.02595" lon="6.32349">
        <ele>694</ele>
        <time>2020-05-22T17:29:40Z</time>
      </trkpt>
      <trkpt lat="47.02594" lon="6.32353">
        <ele>694</ele>
        <time>2020-05-22T17:29:41Z</time>
      </trkpt>
      <trkpt lat="47.02594" lon="6.32356">
        <ele>694.2</ele>
        <time>2020-05-22T17:29:42Z</time>
      </trkpt>
      <trkpt lat="47.02594" lon="6.3236">
        <ele>694.2</ele>
        <time>2020-05-22T17:29:43Z</time>
      </trkpt>
      <trkpt lat="47.02594" lon="6.32363">
        <ele>694.4</ele>
        <time>2020-05-22T17:29:44Z</time>
      </trkpt>
      <trkpt lat="47.02593" lon="6.32366">
        <ele>694.4</ele>
        <time>2020-05-22T17:29:45Z</time>
      </trkpt>
      <trkpt lat="47.02593" lon="6.3237">
        <ele>694.8</ele>
        <time>2020-05-22T17:29:46Z</time>
      </trkpt>
      <trkpt lat="47.02593" lon="6.32373">
        <ele>694.8</ele>
        <time>2020-05-22T17:29:47Z</time>
      </trkpt>
      <trkpt lat="47.02593" lon="6.32376">
        <ele>694.8</ele>
        <time>2020-05-22T17:29:48Z</time>
      </trkpt>
      <trkpt lat="47.02592" lon="6.32379">
        <ele>695</ele>
        <time>2020-05-22T17:29:49Z</time>
      </trkpt>
      <trkpt lat="47.02592" lon="6.32382">
        <ele>695</ele>
        <time>2020-05-22T17:29:50Z</time>
      </trkpt>
      <trkpt lat="47.02592" lon="6.32385">
        <ele>695.2</ele>
        <time>2020-05-22T17:29:51Z</time>
      </trkpt>
      <trkpt lat="47.02591" lon="6.32388">
        <ele>695.2</ele>
        <time>2020-05-22T17:29:52Z</time>
      </trkpt>
      <trkpt lat="47.02591" lon="6.32391">
        <ele>695.2</ele>
        <time>2020-05-22T17:29:53Z</time>
      </trkpt>
      <trkpt lat="47.0259" lon="6.32394">
        <ele>695.6</ele>
        <time>2020-05-22T17:29:54Z</time>
      </trkpt>
      <trkpt lat="47.0259" lon="6.32396">
        <ele>695.6</ele>
        <time>2020-05-22T17:29:55Z</time>
      </trkpt>
      <trkpt lat="47.02589" lon="6.32399">
        <ele>695.8</ele>
        <time>2020-05-22T17:29:56Z</time>
      </trkpt>
      <trkpt lat="47.02588" lon="6.32402">
        <ele>695.8</ele>
        <time>2020-05-22T17:29:57Z</time>
      </trkpt>
      <trkpt lat="47.02588" lon="6.32404">
        <ele>696</ele>
        <time>2020-05-22T17:29:58Z</time>
      </trkpt>
      <trkpt lat="47.02587" lon="6.32407">
        <ele>696</ele>
        <time>2020-05-22T17:29:59Z</time>
      </trkpt>
      <trkpt lat="47.02586" lon="6.32409">
        <ele>696.2</ele>
        <time>2020-05-22T17:30:00Z</time>
      </trkpt>
      <trkpt lat="47.02584" lon="6.32411">
        <ele>696.2</ele>
        <time>2020-05-22T17:30:01Z</time>
      </trkpt>
      <trkpt lat="47.02583" lon="6.32413">
        <ele>696.6</ele>
        <time>2020-05-22T17:30:02Z</time>
      </trkpt>
      <trkpt lat="47.02581" lon="6.32415">
        <ele>696.6</ele>
        <time>2020-05-22T17:30:03Z</time>
      </trkpt>
      <trkpt lat="47.0258" lon="6.32416">
        <ele>696.8</ele>
        <time>2020-05-22T17:30:04Z</time>
      </trkpt>
      <trkpt lat="47.02578" lon="6.32418">
        <ele>696.8</ele>
        <time>2020-05-22T17:30:05Z</time>
      </trkpt>
      <trkpt lat="47.02576" lon="6.3242">
        <ele>696.8</ele>
        <time>2020-05-22T17:30:06Z</time>
      </trkpt>
      <trkpt lat="47.02574" lon="6.32421">
        <ele>697</ele>
        <time>2020-05-22T17:30:07Z</time>
      </trkpt>
      <trkpt lat="47.02572" lon="6.32423">
        <ele>697</ele>
        <time>2020-05-22T17:30:08Z</time>
      </trkpt>
      <trkpt lat="47.02571" lon="6.32424">
        <ele>697.2</ele>
        <time>2020-05-22T17:30:09Z</time>
      </trkpt>
      <trkpt lat="47.02569" lon="6.32426">
        <ele>697.2</ele>
        <time>2020-05-22T17:30:10Z</time>
      </trkpt>
      <trkpt lat="47.02567" lon="6.32427">
        <ele>697.2</ele>
        <time>2020-05-22T17:30:11Z</time>
      </trkpt>
      <trkpt lat="47.02565" lon="6.32428">
        <ele>697.4</ele>
        <time>2020-05-22T17:30:12Z</time>
      </trkpt>
      <trkpt lat="47.02563" lon="6.32429">
        <ele>697.4</ele>
        <time>2020-05-22T17:30:13Z</time>
      </trkpt>
      <trkpt lat="47.0256" lon="6.3243">
        <ele>697.4</ele>
        <time>2020-05-22T17:30:14Z</time>
      </trkpt>
      <trkpt lat="47.02558" lon="6.32431">
        <ele>697.8</ele>
        <time>2020-05-22T17:30:15Z</time>
      </trkpt>
      <trkpt lat="47.02556" lon="6.32431">
        <ele>697.8</ele>
        <time>2020-05-22T17:30:16Z</time>
      </trkpt>
      <trkpt lat="47.02554" lon="6.32432">
        <ele>698</ele>
        <time>2020-05-22T17:30:17Z</time>
      </trkpt>
      <trkpt lat="47.02552" lon="6.32432">
        <ele>698</ele>
        <time>2020-05-22T17:30:18Z</time>
      </trkpt>
      <trkpt lat="47.0255" lon="6.32432">
        <ele>698</ele>
        <time>2020-05-22T17:30:19Z</time>
      </trkpt>
      <trkpt lat="47.02548" lon="6.32433">
        <ele>698.4</ele>
        <time>2020-05-22T17:30:20Z</time>
      </trkpt>
      <trkpt lat="47.02546" lon="6.32433">
        <ele>698.4</ele>
        <time>2020-05-22T17:30:21Z</time>
      </trkpt>
      <trkpt lat="47.02544" lon="6.32433">
        <ele>698.4</ele>
        <time>2020-05-22T17:30:22Z</time>
      </trkpt>
      <trkpt lat="47.02542" lon="6.32432">
        <ele>698.4</ele>
        <time>2020-05-22T17:30:23Z</time>
      </trkpt>
      <trkpt lat="47.0254" lon="6.32432">
        <ele>698.6</ele>
        <time>2020-05-22T17:30:24Z</time>
      </trkpt>
      <trkpt lat="47.02538" lon="6.32432">
        <ele>698.6</ele>
        <time>2020-05-22T17:30:25Z</time>
      </trkpt>
      <trkpt lat="47.02536" lon="6.32432">
        <ele>698.6</ele>
        <time>2020-05-22T17:30:26Z</time>
      </trkpt>
      <trkpt lat="47.02533" lon="6.32431">
        <ele>699</ele>
        <time>2020-05-22T17:30:27Z</time>
      </trkpt>
      <trkpt lat="47.02531" lon="6.3243">
        <ele>699</ele>
        <time>2020-05-22T17:30:28Z</time>
      </trkpt>
      <trkpt lat="47.02529" lon="6.32429">
        <ele>699</ele>
        <time>2020-05-22T17:30:29Z</time>
      </trkpt>
      <trkpt lat="47.02526" lon="6.32429">
        <ele>699</ele>
        <time>2020-05-22T17:30:30Z</time>
      </trkpt>
      <trkpt lat="47.02524" lon="6.32428">
        <ele>699.2</ele>
        <time>2020-05-22T17:30:31Z</time>
      </trkpt>
      <trkpt lat="47.02522" lon="6.32427">
        <ele>699.2</ele>
        <time>2020-05-22T17:30:32Z</time>
      </trkpt>
      <trkpt lat="47.02519" lon="6.32425">
        <ele>699.2</ele>
        <time>2020-05-22T17:30:33Z</time>
      </trkpt>
      <trkpt lat="47.02517" lon="6.32424">
        <ele>699.2</ele>
        <time>2020-05-22T17:30:34Z</time>
      </trkpt>
      <trkpt lat="47.02514" lon="6.32423">
        <ele>699.2</ele>
        <time>2020-05-22T17:30:35Z</time>
      </trkpt>
      <trkpt lat="47.02512" lon="6.32422">
        <ele>699.6</ele>
        <time>2020-05-22T17:30:36Z</time>
      </trkpt>
      <trkpt lat="47.02509" lon="6.32421">
        <ele>699.6</ele>
        <time>2020-05-22T17:30:37Z</time>
      </trkpt>
      <trkpt lat="47.02506" lon="6.3242">
        <ele>699.6</ele>
        <time>2020-05-22T17:30:38Z</time>
      </trkpt>
      <trkpt lat="47.02504" lon="6.32419">
        <ele>699.8</ele>
        <time>2020-05-22T17:30:39Z</time>
      </trkpt>
      <trkpt lat="47.02501" lon="6.32418">
        <ele>699.8</ele>
        <time>2020-05-22T17:30:40Z</time>
      </trkpt>
      <trkpt lat="47.02499" lon="6.32417">
        <ele>699.8</ele>
        <time>2020-05-22T17:30:41Z</time>
      </trkpt>
      <trkpt lat="47.02496" lon="6.32416">
        <ele>699.8</ele>
        <time>2020-05-22T17:30:42Z</time>
      </trkpt>
      <trkpt lat="47.02494" lon="6.32415">
        <ele>700</ele>
        <time>2020-05-22T17:30:43Z</time>
      </trkpt>
      <trkpt lat="47.02491" lon="6.32414">
        <ele>700</ele>
        <time>2020-05-22T17:30:44Z</time>
      </trkpt>
      <trkpt lat="47.02489" lon="6.32413">
        <ele>700</ele>
        <time>2020-05-22T17:30:45Z</time>
      </trkpt>
      <trkpt lat="47.02486" lon="6.32412">
        <ele>700</ele>
        <time>2020-05-22T17:30:46Z</time>
      </trkpt>
      <trkpt lat="47.02483" lon="6.32411">
        <ele>700</ele>
        <time>2020-05-22T17:30:47Z</time>
      </trkpt>
      <trkpt lat="47.0248" lon="6.32411">
        <ele>700.2</ele>
        <time>2020-05-22T17:30:48Z</time>
      </trkpt>
      <trkpt lat="47.02478" lon="6.3241">
        <ele>700.2</ele>
        <time>2020-05-22T17:30:49Z</time>
      </trkpt>
      <trkpt lat="47.02475" lon="6.32409">
        <ele>700.2</ele>
        <time>2020-05-22T17:30:50Z</time>
      </trkpt>
      <trkpt lat="47.02473" lon="6.32408">
        <ele>700.6</ele>
        <time>2020-05-22T17:30:51Z</time>
      </trkpt>
      <trkpt lat="47.0247" lon="6.32407">
        <ele>700.6</ele>
        <time>2020-05-22T17:30:52Z</time>
      </trkpt>
      <trkpt lat="47.02468" lon="6.32405">
        <ele>700.6</ele>
        <time>2020-05-22T17:30:53Z</time>
      </trkpt>
      <trkpt lat="47.02465" lon="6.32404">
        <ele>700.6</ele>
        <time>2020-05-22T17:30:54Z</time>
      </trkpt>
      <trkpt lat="47.02462" lon="6.32404">
        <ele>700.8</ele>
        <time>2020-05-22T17:30:55Z</time>
      </trkpt>
      <trkpt lat="47.02459" lon="6.32403">
        <ele>700.8</ele>
        <time>2020-05-22T17:30:56Z</time>
      </trkpt>
      <trkpt lat="47.02457" lon="6.32402">
        <ele>700.8</ele>
        <time>2020-05-22T17:30:57Z</time>
      </trkpt>
      <trkpt lat="47.02454" lon="6.32401">
        <ele>700.8</ele>
        <time>2020-05-22T17:30:58Z</time>
      </trkpt>
      <trkpt lat="47.02451" lon="6.324">
        <ele>701</ele>
        <time>2020-05-22T17:30:59Z</time>
      </trkpt>
      <trkpt lat="47.02448" lon="6.32398">
        <ele>701</ele>
        <time>2020-05-22T17:31:00Z</time>
      </trkpt>
      <trkpt lat="47.02445" lon="6.32396">
        <ele>701</ele>
        <time>2020-05-22T17:31:01Z</time>
      </trkpt>
      <trkpt lat="47.02442" lon="6.32395">
        <ele>701</ele>
        <time>2020-05-22T17:31:02Z</time>
      </trkpt>
      <trkpt lat="47.02439" lon="6.32394">
        <ele>701</ele>
        <time>2020-05-22T17:31:03Z</time>
      </trkpt>
      <trkpt lat="47.02437" lon="6.32392">
        <ele>701</ele>
        <time>2020-05-22T17:31:04Z</time>
      </trkpt>
      <trkpt lat="47.02434" lon="6.3239">
        <ele>701</ele>
        <time>2020-05-22T17:31:05Z</time>
      </trkpt>
      <trkpt lat="47.02431" lon="6.32388">
        <ele>701.2</ele>
        <time>2020-05-22T17:31:06Z</time>
      </trkpt>
      <trkpt lat="47.02428" lon="6.32386">
        <ele>701.2</ele>
        <time>2020-05-22T17:31:07Z</time>
      </trkpt>
      <trkpt lat="47.02425" lon="6.32384">
        <ele>701.2</ele>
        <time>2020-05-22T17:31:08Z</time>
      </trkpt>
      <trkpt lat="47.02423" lon="6.32382">
        <ele>701.2</ele>
        <time>2020-05-22T17:31:09Z</time>
      </trkpt>
      <trkpt lat="47.0242" lon="6.32379">
        <ele>701.2</ele>
        <time>2020-05-22T17:31:10Z</time>
      </trkpt>
      <trkpt lat="47.02418" lon="6.32376">
        <ele>701.2</ele>
        <time>2020-05-22T17:31:11Z</time>
      </trkpt>
      <trkpt lat="47.02416" lon="6.32373">
        <ele>701.2</ele>
        <time>2020-05-22T17:31:12Z</time>
      </trkpt>
      <trkpt lat="47.02413" lon="6.3237">
        <ele>701.2</ele>
        <time>2020-05-22T17:31:13Z</time>
      </trkpt>
      <trkpt lat="47.02411" lon="6.32367">
        <ele>701.2</ele>
        <time>2020-05-22T17:31:14Z</time>
      </trkpt>
      <trkpt lat="47.02409" lon="6.32364">
        <ele>701.4</ele>
        <time>2020-05-22T17:31:15Z</time>
      </trkpt>
      <trkpt lat="47.02406" lon="6.32361">
        <ele>701.4</ele>
        <time>2020-05-22T17:31:16Z</time>
      </trkpt>
      <trkpt lat="47.02404" lon="6.32358">
        <ele>701.4</ele>
        <time>2020-05-22T17:31:17Z</time>
      </trkpt>
      <trkpt lat="47.02401" lon="6.32354">
        <ele>701.4</ele>
        <time>2020-05-22T17:31:18Z</time>
      </trkpt>
      <trkpt lat="47.02399" lon="6.32351">
        <ele>701.6</ele>
        <time>2020-05-22T17:31:19Z</time>
      </trkpt>
      <trkpt lat="47.02397" lon="6.32348">
        <ele>701.6</ele>
        <time>2020-05-22T17:31:20Z</time>
      </trkpt>
      <trkpt lat="47.02394" lon="6.32345">
        <ele>701.6</ele>
        <time>2020-05-22T17:31:21Z</time>
      </trkpt>
      <trkpt lat="47.02392" lon="6.32341">
        <ele>701.6</ele>
        <time>2020-05-22T17:31:22Z</time>
      </trkpt>
      <trkpt lat="47.0239" lon="6.32338">
        <ele>701.6</ele>
        <time>2020-05-22T17:31:23Z</time>
      </trkpt>
      <trkpt lat="47.02387" lon="6.32334">
        <ele>701.6</ele>
        <time>2020-05-22T17:31:24Z</time>
      </trkpt>
      <trkpt lat="47.02385" lon="6.32331">
        <ele>701.6</ele>
        <time>2020-05-22T17:31:25Z</time>
      </trkpt>
      <trkpt lat="47.02382" lon="6.32328">
        <ele>701.6</ele>
        <time>2020-05-22T17:31:26Z</time>
      </trkpt>
      <trkpt lat="47.0238" lon="6.32324">
        <ele>701.6</ele>
        <time>2020-05-22T17:31:27Z</time>
      </trkpt>
      <trkpt lat="47.02378" lon="6.32321">
        <ele>701.6</ele>
        <time>2020-05-22T17:31:28Z</time>
      </trkpt>
      <trkpt lat="47.02375" lon="6.32317">
        <ele>701.6</ele>
        <time>2020-05-22T17:31:29Z</time>
      </trkpt>
      <trkpt lat="47.02372" lon="6.32314">
        <ele>701.6</ele>
        <time>2020-05-22T17:31:30Z</time>
      </trkpt>
      <trkpt lat="47.0237" lon="6.32311">
        <ele>701.6</ele>
        <time>2020-05-22T17:31:31Z</time>
      </trkpt>
      <trkpt lat="47.02367" lon="6.32307">
        <ele>701.6</ele>
        <time>2020-05-22T17:31:32Z</time>
      </trkpt>
      <trkpt lat="47.02364" lon="6.32304">
        <ele>701.6</ele>
        <time>2020-05-22T17:31:33Z</time>
      </trkpt>
      <trkpt lat="47.02362" lon="6.32301">
        <ele>701.6</ele>
        <time>2020-05-22T17:31:34Z</time>
      </trkpt>
      <trkpt lat="47.02359" lon="6.32298">
        <ele>701.6</ele>
        <time>2020-05-22T17:31:35Z</time>
      </trkpt>
      <trkpt lat="47.02356" lon="6.32294">
        <ele>701.6</ele>
        <time>2020-05-22T17:31:36Z</time>
      </trkpt>
      <trkpt lat="47.02354" lon="6.32291">
        <ele>701.8</ele>
        <time>2020-05-22T17:31:37Z</time>
      </trkpt>
      <trkpt lat="47.02352" lon="6.32287">
        <ele>701.8</ele>
        <time>2020-05-22T17:31:38Z</time>
      </trkpt>
      <trkpt lat="47.0235" lon="6.32284">
        <ele>701.8</ele>
        <time>2020-05-22T17:31:39Z</time>
      </trkpt>
      <trkpt lat="47.02348" lon="6.32282">
        <ele>701.8</ele>
        <time>2020-05-22T17:31:40Z</time>
      </trkpt>
      <trkpt lat="47.02346" lon="6.32279">
        <ele>701.8</ele>
        <time>2020-05-22T17:31:41Z</time>
      </trkpt>
      <trkpt lat="47.02344" lon="6.32277">
        <ele>701.8</ele>
        <time>2020-05-22T17:31:42Z</time>
      </trkpt>
      <trkpt lat="47.02342" lon="6.32274">
        <ele>701.8</ele>
        <time>2020-05-22T17:31:43Z</time>
      </trkpt>
      <trkpt lat="47.0234" lon="6.32271">
        <ele>701.8</ele>
        <time>2020-05-22T17:31:44Z</time>
      </trkpt>
      <trkpt lat="47.02337" lon="6.32268">
        <ele>701.8</ele>
        <time>2020-05-22T17:31:45Z</time>
      </trkpt>
      <trkpt lat="47.02335" lon="6.32265">
        <ele>701.8</ele>
        <time>2020-05-22T17:31:46Z</time>
      </trkpt>
      <trkpt lat="47.02332" lon="6.32263">
        <ele>701.8</ele>
        <time>2020-05-22T17:31:47Z</time>
      </trkpt>
      <trkpt lat="47.02329" lon="6.3226">
        <ele>701.8</ele>
        <time>2020-05-22T17:31:48Z</time>
      </trkpt>
      <trkpt lat="47.02326" lon="6.32259">
        <ele>701.8</ele>
        <time>2020-05-22T17:31:49Z</time>
      </trkpt>
      <trkpt lat="47.02322" lon="6.32259">
        <ele>701.8</ele>
        <time>2020-05-22T17:31:50Z</time>
      </trkpt>
      <trkpt lat="47.02319" lon="6.3226">
        <ele>701.8</ele>
        <time>2020-05-22T17:31:51Z</time>
      </trkpt>
      <trkpt lat="47.02315" lon="6.32263">
        <ele>701.8</ele>
        <time>2020-05-22T17:31:52Z</time>
      </trkpt>
      <trkpt lat="47.02312" lon="6.32265">
        <ele>701.8</ele>
        <time>2020-05-22T17:31:53Z</time>
      </trkpt>
      <trkpt lat="47.02309" lon="6.32269">
        <ele>701.6</ele>
        <time>2020-05-22T17:31:54Z</time>
      </trkpt>
      <trkpt lat="47.02306" lon="6.32273">
        <ele>701.6</ele>
        <time>2020-05-22T17:31:55Z</time>
      </trkpt>
      <trkpt lat="47.02303" lon="6.32277">
        <ele>701.2</ele>
        <time>2020-05-22T17:31:56Z</time>
      </trkpt>
      <trkpt lat="47.02299" lon="6.32281">
        <ele>701.2</ele>
        <time>2020-05-22T17:31:57Z</time>
      </trkpt>
      <trkpt lat="47.02296" lon="6.32285">
        <ele>701</ele>
        <time>2020-05-22T17:31:58Z</time>
      </trkpt>
      <trkpt lat="47.02292" lon="6.32288">
        <ele>701</ele>
        <time>2020-05-22T17:31:59Z</time>
      </trkpt>
      <trkpt lat="47.02287" lon="6.32291">
        <ele>700.8</ele>
        <time>2020-05-22T17:32:00Z</time>
      </trkpt>
      <trkpt lat="47.02283" lon="6.32293">
        <ele>700.8</ele>
        <time>2020-05-22T17:32:01Z</time>
      </trkpt>
      <trkpt lat="47.02279" lon="6.32295">
        <ele>700.4</ele>
        <time>2020-05-22T17:32:02Z</time>
      </trkpt>
      <trkpt lat="47.02276" lon="6.32297">
        <ele>700.4</ele>
        <time>2020-05-22T17:32:03Z</time>
      </trkpt>
      <trkpt lat="47.02272" lon="6.32299">
        <ele>700.4</ele>
        <time>2020-05-22T17:32:04Z</time>
      </trkpt>
      <trkpt lat="47.02269" lon="6.323">
        <ele>700.2</ele>
        <time>2020-05-22T17:32:05Z</time>
      </trkpt>
      <trkpt lat="47.02265" lon="6.323">
        <ele>700.2</ele>
        <time>2020-05-22T17:32:06Z</time>
      </trkpt>
      <trkpt lat="47.02262" lon="6.32299">
        <ele>700</ele>
        <time>2020-05-22T17:32:07Z</time>
      </trkpt>
      <trkpt lat="47.0226" lon="6.32297">
        <ele>700</ele>
        <time>2020-05-22T17:32:08Z</time>
      </trkpt>
      <trkpt lat="47.02258" lon="6.32295">
        <ele>700</ele>
        <time>2020-05-22T17:32:09Z</time>
      </trkpt>
      <trkpt lat="47.02257" lon="6.32292">
        <ele>700</ele>
        <time>2020-05-22T17:32:10Z</time>
      </trkpt>
      <trkpt lat="47.02255" lon="6.32288">
        <ele>700</ele>
        <time>2020-05-22T17:32:11Z</time>
      </trkpt>
      <trkpt lat="47.02255" lon="6.32285">
        <ele>699.8</ele>
        <time>2020-05-22T17:32:12Z</time>
      </trkpt>
      <trkpt lat="47.02254" lon="6.32281">
        <ele>699.8</ele>
        <time>2020-05-22T17:32:13Z</time>
      </trkpt>
      <trkpt lat="47.02254" lon="6.32277">
        <ele>699.8</ele>
        <time>2020-05-22T17:32:14Z</time>
      </trkpt>
      <trkpt lat="47.02254" lon="6.32274">
        <ele>699.8</ele>
        <time>2020-05-22T17:32:15Z</time>
      </trkpt>
      <trkpt lat="47.02254" lon="6.3227">
        <ele>699.8</ele>
        <time>2020-05-22T17:32:16Z</time>
      </trkpt>
      <trkpt lat="47.02254" lon="6.32266">
        <ele>699.8</ele>
        <time>2020-05-22T17:32:17Z</time>
      </trkpt>
      <trkpt lat="47.02254" lon="6.32262">
        <ele>699.8</ele>
        <time>2020-05-22T17:32:18Z</time>
      </trkpt>
      <trkpt lat="47.02254" lon="6.32259">
        <ele>699.8</ele>
        <time>2020-05-22T17:32:19Z</time>
      </trkpt>
      <trkpt lat="47.02254" lon="6.32255">
        <ele>699.8</ele>
        <time>2020-05-22T17:32:20Z</time>
      </trkpt>
      <trkpt lat="47.02254" lon="6.32251">
        <ele>699.8</ele>
        <time>2020-05-22T17:32:21Z</time>
      </trkpt>
      <trkpt lat="47.02254" lon="6.32247">
        <ele>699.8</ele>
        <time>2020-05-22T17:32:22Z</time>
      </trkpt>
      <trkpt lat="47.02254" lon="6.32243">
        <ele>699.8</ele>
        <time>2020-05-22T17:32:23Z</time>
      </trkpt>
      <trkpt lat="47.02254" lon="6.3224">
        <ele>699.8</ele>
        <time>2020-05-22T17:32:24Z</time>
      </trkpt>
      <trkpt lat="47.02253" lon="6.32237">
        <ele>699.8</ele>
        <time>2020-05-22T17:32:25Z</time>
      </trkpt>
      <trkpt lat="47.02253" lon="6.32234">
        <ele>699.8</ele>
        <time>2020-05-22T17:32:26Z</time>
      </trkpt>
      <trkpt lat="47.02253" lon="6.32232">
        <ele>699.8</ele>
        <time>2020-05-22T17:32:27Z</time>
      </trkpt>
      <trkpt lat="47.02253" lon="6.3223">
        <ele>699.8</ele>
        <time>2020-05-22T17:32:28Z</time>
      </trkpt>
      <trkpt lat="47.02252" lon="6.3223">
        <ele>699.8</ele>
        <time>2020-05-22T17:32:29Z</time>
      </trkpt>
      <trkpt lat="47.02251" lon="6.32226">
        <ele>699.6</ele>
        <time>2020-05-22T17:33:33Z</time>
      </trkpt>
      <trkpt lat="47.02249" lon="6.32224">
        <ele>699.8</ele>
        <time>2020-05-22T17:33:34Z</time>
      </trkpt>
      <trkpt lat="47.02248" lon="6.32223">
        <ele>699.8</ele>
        <time>2020-05-22T17:33:35Z</time>
      </trkpt>
      <trkpt lat="47.02245" lon="6.32221">
        <ele>699.8</ele>
        <time>2020-05-22T17:33:36Z</time>
      </trkpt>
      <trkpt lat="47.02242" lon="6.32219">
        <ele>699.8</ele>
        <time>2020-05-22T17:33:37Z</time>
      </trkpt>
      <trkpt lat="47.02239" lon="6.32218">
        <ele>699.6</ele>
        <time>2020-05-22T17:33:38Z</time>
      </trkpt>
      <trkpt lat="47.02235" lon="6.32218">
        <ele>699.6</ele>
        <time>2020-05-22T17:33:39Z</time>
      </trkpt>
      <trkpt lat="47.02231" lon="6.32218">
        <ele>699.6</ele>
        <time>2020-05-22T17:33:40Z</time>
      </trkpt>
      <trkpt lat="47.02227" lon="6.32218">
        <ele>699.6</ele>
        <time>2020-05-22T17:33:41Z</time>
      </trkpt>
      <trkpt lat="47.02223" lon="6.32218">
        <ele>699.4</ele>
        <time>2020-05-22T17:33:42Z</time>
      </trkpt>
      <trkpt lat="47.02219" lon="6.32219">
        <ele>699.4</ele>
        <time>2020-05-22T17:33:43Z</time>
      </trkpt>
      <trkpt lat="47.02215" lon="6.32219">
        <ele>699.4</ele>
        <time>2020-05-22T17:33:44Z</time>
      </trkpt>
      <trkpt lat="47.02211" lon="6.32219">
        <ele>699.4</ele>
        <time>2020-05-22T17:33:45Z</time>
      </trkpt>
      <trkpt lat="47.02207" lon="6.3222">
        <ele>699.2</ele>
        <time>2020-05-22T17:33:46Z</time>
      </trkpt>
      <trkpt lat="47.02203" lon="6.3222">
        <ele>699.2</ele>
        <time>2020-05-22T17:33:47Z</time>
      </trkpt>
      <trkpt lat="47.02198" lon="6.32221">
        <ele>698.8</ele>
        <time>2020-05-22T17:33:48Z</time>
      </trkpt>
      <trkpt lat="47.02194" lon="6.32222">
        <ele>698.8</ele>
        <time>2020-05-22T17:33:49Z</time>
      </trkpt>
      <trkpt lat="47.0219" lon="6.32223">
        <ele>698.8</ele>
        <time>2020-05-22T17:33:50Z</time>
      </trkpt>
      <trkpt lat="47.02185" lon="6.32223">
        <ele>698.8</ele>
        <time>2020-05-22T17:33:51Z</time>
      </trkpt>
      <trkpt lat="47.02181" lon="6.32224">
        <ele>698.8</ele>
        <time>2020-05-22T17:33:52Z</time>
      </trkpt>
      <trkpt lat="47.02177" lon="6.32225">
        <ele>698.8</ele>
        <time>2020-05-22T17:33:53Z</time>
      </trkpt>
      <trkpt lat="47.02173" lon="6.32226">
        <ele>698.8</ele>
        <time>2020-05-22T17:33:54Z</time>
      </trkpt>
      <trkpt lat="47.02169" lon="6.32226">
        <ele>698.8</ele>
        <time>2020-05-22T17:33:55Z</time>
      </trkpt>
      <trkpt lat="47.02165" lon="6.32227">
        <ele>698.8</ele>
        <time>2020-05-22T17:33:56Z</time>
      </trkpt>
      <trkpt lat="47.0216" lon="6.32227">
        <ele>698.8</ele>
        <time>2020-05-22T17:33:57Z</time>
      </trkpt>
      <trkpt lat="47.02156" lon="6.32227">
        <ele>698.8</ele>
        <time>2020-05-22T17:33:58Z</time>
      </trkpt>
      <trkpt lat="47.02152" lon="6.32228">
        <ele>698.8</ele>
        <time>2020-05-22T17:33:59Z</time>
      </trkpt>
      <trkpt lat="47.02147" lon="6.32228">
        <ele>698.8</ele>
        <time>2020-05-22T17:34:00Z</time>
      </trkpt>
      <trkpt lat="47.02143" lon="6.32229">
        <ele>698.8</ele>
        <time>2020-05-22T17:34:01Z</time>
      </trkpt>
      <trkpt lat="47.02138" lon="6.3223">
        <ele>698.6</ele>
        <time>2020-05-22T17:34:02Z</time>
      </trkpt>
      <trkpt lat="47.02134" lon="6.3223">
        <ele>698.6</ele>
        <time>2020-05-22T17:34:03Z</time>
      </trkpt>
      <trkpt lat="47.02129" lon="6.32231">
        <ele>698.6</ele>
        <time>2020-05-22T17:34:04Z</time>
      </trkpt>
      <trkpt lat="47.02125" lon="6.32232">
        <ele>698.6</ele>
        <time>2020-05-22T17:34:05Z</time>
      </trkpt>
      <trkpt lat="47.02121" lon="6.32233">
        <ele>698.6</ele>
        <time>2020-05-22T17:34:06Z</time>
      </trkpt>
      <trkpt lat="47.02117" lon="6.32233">
        <ele>698.6</ele>
        <time>2020-05-22T17:34:07Z</time>
      </trkpt>
      <trkpt lat="47.02112" lon="6.32234">
        <ele>698.6</ele>
        <time>2020-05-22T17:34:08Z</time>
      </trkpt>
      <trkpt lat="47.02108" lon="6.32235">
        <ele>698.6</ele>
        <time>2020-05-22T17:34:09Z</time>
      </trkpt>
      <trkpt lat="47.02104" lon="6.32235">
        <ele>698.6</ele>
        <time>2020-05-22T17:34:10Z</time>
      </trkpt>
      <trkpt lat="47.021" lon="6.32236">
        <ele>698.6</ele>
        <time>2020-05-22T17:34:11Z</time>
      </trkpt>
      <trkpt lat="47.02096" lon="6.32237">
        <ele>698.8</ele>
        <time>2020-05-22T17:34:12Z</time>
      </trkpt>
      <trkpt lat="47.02092" lon="6.32237">
        <ele>698.8</ele>
        <time>2020-05-22T17:34:13Z</time>
      </trkpt>
      <trkpt lat="47.02088" lon="6.32238">
        <ele>698.8</ele>
        <time>2020-05-22T17:34:14Z</time>
      </trkpt>
      <trkpt lat="47.02085" lon="6.32238">
        <ele>698.8</ele>
        <time>2020-05-22T17:34:15Z</time>
      </trkpt>
      <trkpt lat="47.02081" lon="6.32239">
        <ele>699</ele>
        <time>2020-05-22T17:34:16Z</time>
      </trkpt>
      <trkpt lat="47.02078" lon="6.32239">
        <ele>699</ele>
        <time>2020-05-22T17:34:17Z</time>
      </trkpt>
      <trkpt lat="47.02074" lon="6.32239">
        <ele>699</ele>
        <time>2020-05-22T17:34:18Z</time>
      </trkpt>
      <trkpt lat="47.02071" lon="6.3224">
        <ele>699.4</ele>
        <time>2020-05-22T17:34:19Z</time>
      </trkpt>
      <trkpt lat="47.02068" lon="6.32241">
        <ele>699.4</ele>
        <time>2020-05-22T17:34:20Z</time>
      </trkpt>
      <trkpt lat="47.02065" lon="6.32242">
        <ele>699.6</ele>
        <time>2020-05-22T17:34:21Z</time>
      </trkpt>
      <trkpt lat="47.02063" lon="6.32242">
        <ele>699.6</ele>
        <time>2020-05-22T17:34:22Z</time>
      </trkpt>
      <trkpt lat="47.0206" lon="6.32243">
        <ele>699.8</ele>
        <time>2020-05-22T17:34:23Z</time>
      </trkpt>
      <trkpt lat="47.02057" lon="6.32243">
        <ele>699.8</ele>
        <time>2020-05-22T17:34:24Z</time>
      </trkpt>
      <trkpt lat="47.02055" lon="6.32243">
        <ele>699.8</ele>
        <time>2020-05-22T17:34:25Z</time>
      </trkpt>
      <trkpt lat="47.02052" lon="6.32243">
        <ele>700.2</ele>
        <time>2020-05-22T17:34:26Z</time>
      </trkpt>
      <trkpt lat="47.0205" lon="6.32244">
        <ele>700.2</ele>
        <time>2020-05-22T17:34:27Z</time>
      </trkpt>
      <trkpt lat="47.02047" lon="6.32244">
        <ele>700.2</ele>
        <time>2020-05-22T17:34:28Z</time>
      </trkpt>
      <trkpt lat="47.02045" lon="6.32245">
        <ele>700.4</ele>
        <time>2020-05-22T17:34:29Z</time>
      </trkpt>
      <trkpt lat="47.02042" lon="6.32245">
        <ele>700.4</ele>
        <time>2020-05-22T17:34:30Z</time>
      </trkpt>
      <trkpt lat="47.0204" lon="6.32246">
        <ele>700.4</ele>
        <time>2020-05-22T17:34:31Z</time>
      </trkpt>
      <trkpt lat="47.02037" lon="6.32246">
        <ele>700.4</ele>
        <time>2020-05-22T17:34:32Z</time>
      </trkpt>
      <trkpt lat="47.02034" lon="6.32246">
        <ele>700.6</ele>
        <time>2020-05-22T17:34:33Z</time>
      </trkpt>
      <trkpt lat="47.02031" lon="6.32247">
        <ele>700.6</ele>
        <time>2020-05-22T17:34:34Z</time>
      </trkpt>
      <trkpt lat="47.02028" lon="6.32248">
        <ele>700.6</ele>
        <time>2020-05-22T17:34:35Z</time>
      </trkpt>
      <trkpt lat="47.02025" lon="6.32248">
        <ele>700.6</ele>
        <time>2020-05-22T17:34:36Z</time>
      </trkpt>
      <trkpt lat="47.02022" lon="6.32249">
        <ele>700.6</ele>
        <time>2020-05-22T17:34:37Z</time>
      </trkpt>
      <trkpt lat="47.02018" lon="6.3225">
        <ele>700.6</ele>
        <time>2020-05-22T17:34:38Z</time>
      </trkpt>
      <trkpt lat="47.02014" lon="6.3225">
        <ele>700.6</ele>
        <time>2020-05-22T17:34:39Z</time>
      </trkpt>
      <trkpt lat="47.02011" lon="6.32251">
        <ele>700.6</ele>
        <time>2020-05-22T17:34:40Z</time>
      </trkpt>
      <trkpt lat="47.02007" lon="6.32252">
        <ele>700.6</ele>
        <time>2020-05-22T17:34:41Z</time>
      </trkpt>
      <trkpt lat="47.02003" lon="6.32253">
        <ele>700.6</ele>
        <time>2020-05-22T17:34:42Z</time>
      </trkpt>
      <trkpt lat="47.01998" lon="6.32254">
        <ele>700.6</ele>
        <time>2020-05-22T17:34:43Z</time>
      </trkpt>
      <trkpt lat="47.01994" lon="6.32254">
        <ele>700.4</ele>
        <time>2020-05-22T17:34:44Z</time>
      </trkpt>
      <trkpt lat="47.0199" lon="6.32255">
        <ele>700.4</ele>
        <time>2020-05-22T17:34:45Z</time>
      </trkpt>
      <trkpt lat="47.01985" lon="6.32256">
        <ele>700.2</ele>
        <time>2020-05-22T17:34:46Z</time>
      </trkpt>
      <trkpt lat="47.0198" lon="6.32256">
        <ele>700.2</ele>
        <time>2020-05-22T17:34:47Z</time>
      </trkpt>
      <trkpt lat="47.01975" lon="6.32257">
        <ele>700.2</ele>
        <time>2020-05-22T17:34:48Z</time>
      </trkpt>
      <trkpt lat="47.0197" lon="6.32257">
        <ele>699.8</ele>
        <time>2020-05-22T17:34:49Z</time>
      </trkpt>
      <trkpt lat="47.01964" lon="6.32257">
        <ele>699.8</ele>
        <time>2020-05-22T17:34:50Z</time>
      </trkpt>
      <trkpt lat="47.01959" lon="6.32256">
        <ele>699.4</ele>
        <time>2020-05-22T17:34:51Z</time>
      </trkpt>
      <trkpt lat="47.01953" lon="6.32256">
        <ele>699.4</ele>
        <time>2020-05-22T17:34:52Z</time>
      </trkpt>
      <trkpt lat="47.01947" lon="6.32256">
        <ele>699.2</ele>
        <time>2020-05-22T17:34:53Z</time>
      </trkpt>
      <trkpt lat="47.01941" lon="6.32255">
        <ele>698.8</ele>
        <time>2020-05-22T17:34:54Z</time>
      </trkpt>
      <trkpt lat="47.01935" lon="6.32254">
        <ele>698.6</ele>
        <time>2020-05-22T17:34:55Z</time>
      </trkpt>
      <trkpt lat="47.01929" lon="6.32254">
        <ele>698.4</ele>
        <time>2020-05-22T17:34:56Z</time>
      </trkpt>
      <trkpt lat="47.01923" lon="6.32254">
        <ele>698.4</ele>
        <time>2020-05-22T17:34:57Z</time>
      </trkpt>
      <trkpt lat="47.01917" lon="6.32253">
        <ele>698</ele>
        <time>2020-05-22T17:34:58Z</time>
      </trkpt>
      <trkpt lat="47.01911" lon="6.32252">
        <ele>698</ele>
        <time>2020-05-22T17:34:59Z</time>
      </trkpt>
      <trkpt lat="47.01905" lon="6.32251">
        <ele>698</ele>
        <time>2020-05-22T17:35:00Z</time>
      </trkpt>
      <trkpt lat="47.01899" lon="6.32251">
        <ele>698</ele>
        <time>2020-05-22T17:35:01Z</time>
      </trkpt>
      <trkpt lat="47.01894" lon="6.3225">
        <ele>697.8</ele>
        <time>2020-05-22T17:35:02Z</time>
      </trkpt>
      <trkpt lat="47.01889" lon="6.32249">
        <ele>697.8</ele>
        <time>2020-05-22T17:35:03Z</time>
      </trkpt>
      <trkpt lat="47.01883" lon="6.32248">
        <ele>697.8</ele>
        <time>2020-05-22T17:35:04Z</time>
      </trkpt>
      <trkpt lat="47.01878" lon="6.32248">
        <ele>697.6</ele>
        <time>2020-05-22T17:35:05Z</time>
      </trkpt>
      <trkpt lat="47.01873" lon="6.32247">
        <ele>697.6</ele>
        <time>2020-05-22T17:35:06Z</time>
      </trkpt>
      <trkpt lat="47.01869" lon="6.32246">
        <ele>697.6</ele>
        <time>2020-05-22T17:35:07Z</time>
      </trkpt>
      <trkpt lat="47.01864" lon="6.32244">
        <ele>697.6</ele>
        <time>2020-05-22T17:35:08Z</time>
      </trkpt>
      <trkpt lat="47.01859" lon="6.32243">
        <ele>697.6</ele>
        <time>2020-05-22T17:35:09Z</time>
      </trkpt>
      <trkpt lat="47.01855" lon="6.32242">
        <ele>697.6</ele>
        <time>2020-05-22T17:35:10Z</time>
      </trkpt>
      <trkpt lat="47.0185" lon="6.32241">
        <ele>697.6</ele>
        <time>2020-05-22T17:35:11Z</time>
      </trkpt>
      <trkpt lat="47.01846" lon="6.3224">
        <ele>697.6</ele>
        <time>2020-05-22T17:35:12Z</time>
      </trkpt>
      <trkpt lat="47.01842" lon="6.32239">
        <ele>697.6</ele>
        <time>2020-05-22T17:35:13Z</time>
      </trkpt>
      <trkpt lat="47.01838" lon="6.32238">
        <ele>697.6</ele>
        <time>2020-05-22T17:35:14Z</time>
      </trkpt>
      <trkpt lat="47.01834" lon="6.32236">
        <ele>697.6</ele>
        <time>2020-05-22T17:35:15Z</time>
      </trkpt>
      <trkpt lat="47.0183" lon="6.32235">
        <ele>697.6</ele>
        <time>2020-05-22T17:35:16Z</time>
      </trkpt>
      <trkpt lat="47.01826" lon="6.32235">
        <ele>697.8</ele>
        <time>2020-05-22T17:35:17Z</time>
      </trkpt>
      <trkpt lat="47.01823" lon="6.32233">
        <ele>697.8</ele>
        <time>2020-05-22T17:35:18Z</time>
      </trkpt>
      <trkpt lat="47.01819" lon="6.32232">
        <ele>697.8</ele>
        <time>2020-05-22T17:35:19Z</time>
      </trkpt>
      <trkpt lat="47.01816" lon="6.32231">
        <ele>697.8</ele>
        <time>2020-05-22T17:35:20Z</time>
      </trkpt>
      <trkpt lat="47.01812" lon="6.32231">
        <ele>697.8</ele>
        <time>2020-05-22T17:35:21Z</time>
      </trkpt>
      <trkpt lat="47.01808" lon="6.3223">
        <ele>697.8</ele>
        <time>2020-05-22T17:35:22Z</time>
      </trkpt>
      <trkpt lat="47.01804" lon="6.32229">
        <ele>697.8</ele>
        <time>2020-05-22T17:35:23Z</time>
      </trkpt>
      <trkpt lat="47.018" lon="6.32229">
        <ele>697.8</ele>
        <time>2020-05-22T17:35:24Z</time>
      </trkpt>
      <trkpt lat="47.01796" lon="6.32228">
        <ele>697.8</ele>
        <time>2020-05-22T17:35:25Z</time>
      </trkpt>
      <trkpt lat="47.01792" lon="6.32228">
        <ele>697.8</ele>
        <time>2020-05-22T17:35:26Z</time>
      </trkpt>
      <trkpt lat="47.01788" lon="6.32227">
        <ele>697.8</ele>
        <time>2020-05-22T17:35:27Z</time>
      </trkpt>
      <trkpt lat="47.01784" lon="6.32227">
        <ele>697.8</ele>
        <time>2020-05-22T17:35:28Z</time>
      </trkpt>
      <trkpt lat="47.01781" lon="6.32227">
        <ele>697.8</ele>
        <time>2020-05-22T17:35:29Z</time>
      </trkpt>
      <trkpt lat="47.01778" lon="6.32226">
        <ele>697.8</ele>
        <time>2020-05-22T17:35:30Z</time>
      </trkpt>
      <trkpt lat="47.01774" lon="6.32225">
        <ele>697.8</ele>
        <time>2020-05-22T17:35:31Z</time>
      </trkpt>
      <trkpt lat="47.01771" lon="6.32224">
        <ele>697.8</ele>
        <time>2020-05-22T17:35:32Z</time>
      </trkpt>
      <trkpt lat="47.01768" lon="6.32223">
        <ele>697.8</ele>
        <time>2020-05-22T17:35:33Z</time>
      </trkpt>
      <trkpt lat="47.01766" lon="6.32221">
        <ele>697.8</ele>
        <time>2020-05-22T17:35:34Z</time>
      </trkpt>
      <trkpt lat="47.01764" lon="6.32219">
        <ele>697.8</ele>
        <time>2020-05-22T17:35:35Z</time>
      </trkpt>
      <trkpt lat="47.01763" lon="6.32218">
        <ele>697.8</ele>
        <time>2020-05-22T17:35:36Z</time>
      </trkpt>
      <trkpt lat="47.01761" lon="6.32216">
        <ele>697.8</ele>
        <time>2020-05-22T17:35:37Z</time>
      </trkpt>
      <trkpt lat="47.0176" lon="6.32214">
        <ele>697.8</ele>
        <time>2020-05-22T17:35:38Z</time>
      </trkpt>
      <trkpt lat="47.01759" lon="6.32211">
        <ele>697.8</ele>
        <time>2020-05-22T17:35:39Z</time>
      </trkpt>
      <trkpt lat="47.01757" lon="6.32209">
        <ele>697.8</ele>
        <time>2020-05-22T17:35:40Z</time>
      </trkpt>
      <trkpt lat="47.01756" lon="6.32206">
        <ele>697.8</ele>
        <time>2020-05-22T17:35:41Z</time>
      </trkpt>
      <trkpt lat="47.01754" lon="6.32204">
        <ele>697.8</ele>
        <time>2020-05-22T17:35:42Z</time>
      </trkpt>
      <trkpt lat="47.01752" lon="6.32201">
        <ele>697.8</ele>
        <time>2020-05-22T17:35:43Z</time>
      </trkpt>
      <trkpt lat="47.0175" lon="6.32199">
        <ele>697.6</ele>
        <time>2020-05-22T17:35:44Z</time>
      </trkpt>
      <trkpt lat="47.01748" lon="6.32196">
        <ele>697.6</ele>
        <time>2020-05-22T17:35:45Z</time>
      </trkpt>
      <trkpt lat="47.01745" lon="6.32192">
        <ele>697.6</ele>
        <time>2020-05-22T17:35:46Z</time>
      </trkpt>
      <trkpt lat="47.01743" lon="6.32188">
        <ele>697.6</ele>
        <time>2020-05-22T17:35:47Z</time>
      </trkpt>
      <trkpt lat="47.0174" lon="6.32183">
        <ele>697.6</ele>
        <time>2020-05-22T17:35:48Z</time>
      </trkpt>
      <trkpt lat="47.01738" lon="6.32177">
        <ele>697.4</ele>
        <time>2020-05-22T17:35:49Z</time>
      </trkpt>
      <trkpt lat="47.01735" lon="6.32172">
        <ele>697.4</ele>
        <time>2020-05-22T17:35:50Z</time>
      </trkpt>
      <trkpt lat="47.01733" lon="6.32165">
        <ele>697.4</ele>
        <time>2020-05-22T17:35:51Z</time>
      </trkpt>
      <trkpt lat="47.0173" lon="6.32159">
        <ele>697</ele>
        <time>2020-05-22T17:35:52Z</time>
      </trkpt>
      <trkpt lat="47.01727" lon="6.32152">
        <ele>696.8</ele>
        <time>2020-05-22T17:35:53Z</time>
      </trkpt>
      <trkpt lat="47.01724" lon="6.32145">
        <ele>696.8</ele>
        <time>2020-05-22T17:35:54Z</time>
      </trkpt>
      <trkpt lat="47.01721" lon="6.32138">
        <ele>696.6</ele>
        <time>2020-05-22T17:35:55Z</time>
      </trkpt>
      <trkpt lat="47.01718" lon="6.3213">
        <ele>696.6</ele>
        <time>2020-05-22T17:35:56Z</time>
      </trkpt>
      <trkpt lat="47.01715" lon="6.32123">
        <ele>696</ele>
        <time>2020-05-22T17:35:57Z</time>
      </trkpt>
      <trkpt lat="47.01711" lon="6.32115">
        <ele>695.8</ele>
        <time>2020-05-22T17:35:58Z</time>
      </trkpt>
      <trkpt lat="47.01708" lon="6.32107">
        <ele>695.8</ele>
        <time>2020-05-22T17:35:59Z</time>
      </trkpt>
      <trkpt lat="47.01704" lon="6.32099">
        <ele>695.6</ele>
        <time>2020-05-22T17:36:00Z</time>
      </trkpt>
      <trkpt lat="47.017" lon="6.3209">
        <ele>695.4</ele>
        <time>2020-05-22T17:36:01Z</time>
      </trkpt>
      <trkpt lat="47.01697" lon="6.32082">
        <ele>695.4</ele>
        <time>2020-05-22T17:36:02Z</time>
      </trkpt>
      <trkpt lat="47.01693" lon="6.32073">
        <ele>695</ele>
        <time>2020-05-22T17:36:03Z</time>
      </trkpt>
      <trkpt lat="47.01689" lon="6.32065">
        <ele>694.8</ele>
        <time>2020-05-22T17:36:04Z</time>
      </trkpt>
      <trkpt lat="47.01685" lon="6.32056">
        <ele>694.8</ele>
        <time>2020-05-22T17:36:05Z</time>
      </trkpt>
      <trkpt lat="47.01681" lon="6.32047">
        <ele>694.4</ele>
        <time>2020-05-22T17:36:06Z</time>
      </trkpt>
      <trkpt lat="47.01677" lon="6.32038">
        <ele>694.2</ele>
        <time>2020-05-22T17:36:07Z</time>
      </trkpt>
      <trkpt lat="47.01673" lon="6.32029">
        <ele>694.2</ele>
        <time>2020-05-22T17:36:08Z</time>
      </trkpt>
      <trkpt lat="47.01669" lon="6.3202">
        <ele>693.8</ele>
        <time>2020-05-22T17:36:09Z</time>
      </trkpt>
      <trkpt lat="47.01665" lon="6.32012">
        <ele>693.8</ele>
        <time>2020-05-22T17:36:10Z</time>
      </trkpt>
      <trkpt lat="47.01661" lon="6.32002">
        <ele>693.4</ele>
        <time>2020-05-22T17:36:11Z</time>
      </trkpt>
      <trkpt lat="47.01657" lon="6.31993">
        <ele>693.4</ele>
        <time>2020-05-22T17:36:12Z</time>
      </trkpt>
      <trkpt lat="47.01653" lon="6.31984">
        <ele>693</ele>
        <time>2020-05-22T17:36:13Z</time>
      </trkpt>
      <trkpt lat="47.01649" lon="6.31975">
        <ele>692.6</ele>
        <time>2020-05-22T17:36:14Z</time>
      </trkpt>
      <trkpt lat="47.01645" lon="6.31965">
        <ele>692.4</ele>
        <time>2020-05-22T17:36:15Z</time>
      </trkpt>
      <trkpt lat="47.01641" lon="6.31956">
        <ele>692.2</ele>
        <time>2020-05-22T17:36:16Z</time>
      </trkpt>
      <trkpt lat="47.01636" lon="6.31947">
        <ele>692</ele>
        <time>2020-05-22T17:36:17Z</time>
      </trkpt>
      <trkpt lat="47.01632" lon="6.31939">
        <ele>691.6</ele>
        <time>2020-05-22T17:36:18Z</time>
      </trkpt>
      <trkpt lat="47.01627" lon="6.3193">
        <ele>691.4</ele>
        <time>2020-05-22T17:36:19Z</time>
      </trkpt>
      <trkpt lat="47.01622" lon="6.31921">
        <ele>691</ele>
        <time>2020-05-22T17:36:20Z</time>
      </trkpt>
      <trkpt lat="47.01616" lon="6.31912">
        <ele>690.8</ele>
        <time>2020-05-22T17:36:21Z</time>
      </trkpt>
      <trkpt lat="47.01611" lon="6.31904">
        <ele>690.6</ele>
        <time>2020-05-22T17:36:22Z</time>
      </trkpt>
      <trkpt lat="47.01606" lon="6.31896">
        <ele>690.4</ele>
        <time>2020-05-22T17:36:23Z</time>
      </trkpt>
      <trkpt lat="47.016" lon="6.31888">
        <ele>690</ele>
        <time>2020-05-22T17:36:24Z</time>
      </trkpt>
      <trkpt lat="47.01595" lon="6.3188">
        <ele>690</ele>
        <time>2020-05-22T17:36:25Z</time>
      </trkpt>
      <trkpt lat="47.01589" lon="6.31872">
        <ele>689.4</ele>
        <time>2020-05-22T17:36:26Z</time>
      </trkpt>
      <trkpt lat="47.01584" lon="6.31864">
        <ele>689.2</ele>
        <time>2020-05-22T17:36:27Z</time>
      </trkpt>
      <trkpt lat="47.01577" lon="6.31857">
        <ele>689</ele>
        <time>2020-05-22T17:36:28Z</time>
      </trkpt>
      <trkpt lat="47.01571" lon="6.3185">
        <ele>688.6</ele>
        <time>2020-05-22T17:36:29Z</time>
      </trkpt>
      <trkpt lat="47.01564" lon="6.31842">
        <ele>688.4</ele>
        <time>2020-05-22T17:36:30Z</time>
      </trkpt>
      <trkpt lat="47.01557" lon="6.31836">
        <ele>688.2</ele>
        <time>2020-05-22T17:36:31Z</time>
      </trkpt>
      <trkpt lat="47.0155" lon="6.31829">
        <ele>687.8</ele>
        <time>2020-05-22T17:36:32Z</time>
      </trkpt>
      <trkpt lat="47.01542" lon="6.31822">
        <ele>687.4</ele>
        <time>2020-05-22T17:36:33Z</time>
      </trkpt>
      <trkpt lat="47.01535" lon="6.31816">
        <ele>687.2</ele>
        <time>2020-05-22T17:36:34Z</time>
      </trkpt>
      <trkpt lat="47.01527" lon="6.31809">
        <ele>686.8</ele>
        <time>2020-05-22T17:36:35Z</time>
      </trkpt>
      <trkpt lat="47.01519" lon="6.31803">
        <ele>686.2</ele>
        <time>2020-05-22T17:36:36Z</time>
      </trkpt>
      <trkpt lat="47.01511" lon="6.31797">
        <ele>685.8</ele>
        <time>2020-05-22T17:36:37Z</time>
      </trkpt>
      <trkpt lat="47.01503" lon="6.31791">
        <ele>685.6</ele>
        <time>2020-05-22T17:36:38Z</time>
      </trkpt>
      <trkpt lat="47.01495" lon="6.31785">
        <ele>685.2</ele>
        <time>2020-05-22T17:36:39Z</time>
      </trkpt>
      <trkpt lat="47.01486" lon="6.3178">
        <ele>684.6</ele>
        <time>2020-05-22T17:36:40Z</time>
      </trkpt>
      <trkpt lat="47.01477" lon="6.31774">
        <ele>684.2</ele>
        <time>2020-05-22T17:36:41Z</time>
      </trkpt>
      <trkpt lat="47.01468" lon="6.31768">
        <ele>683.6</ele>
        <time>2020-05-22T17:36:42Z</time>
      </trkpt>
      <trkpt lat="47.0146" lon="6.31761">
        <ele>683.2</ele>
        <time>2020-05-22T17:36:43Z</time>
      </trkpt>
      <trkpt lat="47.01451" lon="6.31755">
        <ele>682.8</ele>
        <time>2020-05-22T17:36:44Z</time>
      </trkpt>
      <trkpt lat="47.01443" lon="6.31749">
        <ele>682.4</ele>
        <time>2020-05-22T17:36:45Z</time>
      </trkpt>
      <trkpt lat="47.01434" lon="6.31743">
        <ele>682</ele>
        <time>2020-05-22T17:36:46Z</time>
      </trkpt>
      <trkpt lat="47.01426" lon="6.31736">
        <ele>681.4</ele>
        <time>2020-05-22T17:36:47Z</time>
      </trkpt>
      <trkpt lat="47.01418" lon="6.3173">
        <ele>681</ele>
        <time>2020-05-22T17:36:48Z</time>
      </trkpt>
      <trkpt lat="47.01409" lon="6.31722">
        <ele>680.4</ele>
        <time>2020-05-22T17:36:49Z</time>
      </trkpt>
      <trkpt lat="47.01401" lon="6.31715">
        <ele>679.8</ele>
        <time>2020-05-22T17:36:50Z</time>
      </trkpt>
      <trkpt lat="47.01392" lon="6.31708">
        <ele>679.2</ele>
        <time>2020-05-22T17:36:51Z</time>
      </trkpt>
      <trkpt lat="47.01383" lon="6.31699">
        <ele>678.6</ele>
        <time>2020-05-22T17:36:52Z</time>
      </trkpt>
      <trkpt lat="47.01374" lon="6.31692">
        <ele>678.2</ele>
        <time>2020-05-22T17:36:53Z</time>
      </trkpt>
      <trkpt lat="47.01365" lon="6.31683">
        <ele>677.6</ele>
        <time>2020-05-22T17:36:54Z</time>
      </trkpt>
      <trkpt lat="47.01356" lon="6.31674">
        <ele>677</ele>
        <time>2020-05-22T17:36:55Z</time>
      </trkpt>
      <trkpt lat="47.01347" lon="6.31666">
        <ele>676.4</ele>
        <time>2020-05-22T17:36:56Z</time>
      </trkpt>
      <trkpt lat="47.01338" lon="6.31656">
        <ele>675.6</ele>
        <time>2020-05-22T17:36:57Z</time>
      </trkpt>
      <trkpt lat="47.01329" lon="6.31646">
        <ele>674.8</ele>
        <time>2020-05-22T17:36:58Z</time>
      </trkpt>
      <trkpt lat="47.0132" lon="6.31636">
        <ele>674.2</ele>
        <time>2020-05-22T17:36:59Z</time>
      </trkpt>
      <trkpt lat="47.0131" lon="6.31625">
        <ele>673.4</ele>
        <time>2020-05-22T17:37:00Z</time>
      </trkpt>
      <trkpt lat="47.01301" lon="6.31614">
        <ele>672.6</ele>
        <time>2020-05-22T17:37:01Z</time>
      </trkpt>
      <trkpt lat="47.01292" lon="6.31603">
        <ele>671.8</ele>
        <time>2020-05-22T17:37:02Z</time>
      </trkpt>
      <trkpt lat="47.01283" lon="6.31591">
        <ele>671.2</ele>
        <time>2020-05-22T17:37:03Z</time>
      </trkpt>
      <trkpt lat="47.01274" lon="6.3158">
        <ele>670.4</ele>
        <time>2020-05-22T17:37:04Z</time>
      </trkpt>
      <trkpt lat="47.01265" lon="6.3157">
        <ele>669.8</ele>
        <time>2020-05-22T17:37:05Z</time>
      </trkpt>
      <trkpt lat="47.01256" lon="6.3156">
        <ele>669.2</ele>
        <time>2020-05-22T17:37:06Z</time>
      </trkpt>
      <trkpt lat="47.01246" lon="6.31551">
        <ele>668.6</ele>
        <time>2020-05-22T17:37:07Z</time>
      </trkpt>
      <trkpt lat="47.01237" lon="6.31542">
        <ele>668.2</ele>
        <time>2020-05-22T17:37:08Z</time>
      </trkpt>
      <trkpt lat="47.01228" lon="6.31535">
        <ele>667.8</ele>
        <time>2020-05-22T17:37:09Z</time>
      </trkpt>
      <trkpt lat="47.01219" lon="6.31528">
        <ele>667.6</ele>
        <time>2020-05-22T17:37:10Z</time>
      </trkpt>
      <trkpt lat="47.01209" lon="6.31523">
        <ele>667.4</ele>
        <time>2020-05-22T17:37:11Z</time>
      </trkpt>
      <trkpt lat="47.012" lon="6.31518">
        <ele>667</ele>
        <time>2020-05-22T17:37:12Z</time>
      </trkpt>
      <trkpt lat="47.01192" lon="6.31512">
        <ele>666.8</ele>
        <time>2020-05-22T17:37:13Z</time>
      </trkpt>
      <trkpt lat="47.01183" lon="6.31507">
        <ele>666.6</ele>
        <time>2020-05-22T17:37:14Z</time>
      </trkpt>
      <trkpt lat="47.01175" lon="6.31502">
        <ele>666.4</ele>
        <time>2020-05-22T17:37:15Z</time>
      </trkpt>
      <trkpt lat="47.01167" lon="6.31497">
        <ele>666.4</ele>
        <time>2020-05-22T17:37:16Z</time>
      </trkpt>
      <trkpt lat="47.01159" lon="6.31493">
        <ele>666</ele>
        <time>2020-05-22T17:37:17Z</time>
      </trkpt>
      <trkpt lat="47.01152" lon="6.31488">
        <ele>666</ele>
        <time>2020-05-22T17:37:18Z</time>
      </trkpt>
      <trkpt lat="47.01145" lon="6.31483">
        <ele>665.8</ele>
        <time>2020-05-22T17:37:19Z</time>
      </trkpt>
      <trkpt lat="47.01138" lon="6.31479">
        <ele>665.8</ele>
        <time>2020-05-22T17:37:20Z</time>
      </trkpt>
      <trkpt lat="47.01131" lon="6.31475">
        <ele>665.6</ele>
        <time>2020-05-22T17:37:21Z</time>
      </trkpt>
      <trkpt lat="47.01125" lon="6.31471">
        <ele>665.6</ele>
        <time>2020-05-22T17:37:22Z</time>
      </trkpt>
      <trkpt lat="47.01118" lon="6.31466">
        <ele>665.6</ele>
        <time>2020-05-22T17:37:23Z</time>
      </trkpt>
      <trkpt lat="47.01112" lon="6.31461">
        <ele>665.6</ele>
        <time>2020-05-22T17:37:24Z</time>
      </trkpt>
      <trkpt lat="47.01106" lon="6.31457">
        <ele>665.6</ele>
        <time>2020-05-22T17:37:25Z</time>
      </trkpt>
      <trkpt lat="47.011" lon="6.31453">
        <ele>665.6</ele>
        <time>2020-05-22T17:37:26Z</time>
      </trkpt>
      <trkpt lat="47.01094" lon="6.31449">
        <ele>665.2</ele>
        <time>2020-05-22T17:37:27Z</time>
      </trkpt>
      <trkpt lat="47.01088" lon="6.31444">
        <ele>665.2</ele>
        <time>2020-05-22T17:37:28Z</time>
      </trkpt>
      <trkpt lat="47.01082" lon="6.3144">
        <ele>665.2</ele>
        <time>2020-05-22T17:37:29Z</time>
      </trkpt>
      <trkpt lat="47.01077" lon="6.31435">
        <ele>665.2</ele>
        <time>2020-05-22T17:37:30Z</time>
      </trkpt>
      <trkpt lat="47.01071" lon="6.31431">
        <ele>665</ele>
        <time>2020-05-22T17:37:31Z</time>
      </trkpt>
      <trkpt lat="47.01066" lon="6.31426">
        <ele>665</ele>
        <time>2020-05-22T17:37:32Z</time>
      </trkpt>
      <trkpt lat="47.01061" lon="6.31422">
        <ele>664.8</ele>
        <time>2020-05-22T17:37:33Z</time>
      </trkpt>
      <trkpt lat="47.01056" lon="6.31417">
        <ele>664.8</ele>
        <time>2020-05-22T17:37:34Z</time>
      </trkpt>
      <trkpt lat="47.0105" lon="6.31412">
        <ele>664.8</ele>
        <time>2020-05-22T17:37:35Z</time>
      </trkpt>
      <trkpt lat="47.01045" lon="6.31407">
        <ele>664.6</ele>
        <time>2020-05-22T17:37:36Z</time>
      </trkpt>
      <trkpt lat="47.0104" lon="6.31402">
        <ele>664.6</ele>
        <time>2020-05-22T17:37:37Z</time>
      </trkpt>
      <trkpt lat="47.01035" lon="6.31397">
        <ele>664.2</ele>
        <time>2020-05-22T17:37:38Z</time>
      </trkpt>
      <trkpt lat="47.01029" lon="6.31392">
        <ele>664.2</ele>
        <time>2020-05-22T17:37:39Z</time>
      </trkpt>
      <trkpt lat="47.01024" lon="6.31387">
        <ele>664</ele>
        <time>2020-05-22T17:37:40Z</time>
      </trkpt>
      <trkpt lat="47.01019" lon="6.31382">
        <ele>664</ele>
        <time>2020-05-22T17:37:41Z</time>
      </trkpt>
      <trkpt lat="47.01014" lon="6.31377">
        <ele>663.8</ele>
        <time>2020-05-22T17:37:42Z</time>
      </trkpt>
      <trkpt lat="47.01009" lon="6.31372">
        <ele>663.8</ele>
        <time>2020-05-22T17:37:43Z</time>
      </trkpt>
      <trkpt lat="47.01004" lon="6.31368">
        <ele>663.4</ele>
        <time>2020-05-22T17:37:44Z</time>
      </trkpt>
      <trkpt lat="47.00999" lon="6.31363">
        <ele>663.4</ele>
        <time>2020-05-22T17:37:45Z</time>
      </trkpt>
      <trkpt lat="47.00994" lon="6.31358">
        <ele>663.2</ele>
        <time>2020-05-22T17:37:46Z</time>
      </trkpt>
      <trkpt lat="47.00989" lon="6.31353">
        <ele>663.2</ele>
        <time>2020-05-22T17:37:47Z</time>
      </trkpt>
      <trkpt lat="47.00984" lon="6.31348">
        <ele>662.8</ele>
        <time>2020-05-22T17:37:48Z</time>
      </trkpt>
      <trkpt lat="47.00978" lon="6.31342">
        <ele>662.8</ele>
        <time>2020-05-22T17:37:49Z</time>
      </trkpt>
      <trkpt lat="47.00973" lon="6.31337">
        <ele>662.4</ele>
        <time>2020-05-22T17:37:50Z</time>
      </trkpt>
      <trkpt lat="47.00967" lon="6.31331">
        <ele>662.2</ele>
        <time>2020-05-22T17:37:51Z</time>
      </trkpt>
      <trkpt lat="47.00961" lon="6.31326">
        <ele>662</ele>
        <time>2020-05-22T17:37:52Z</time>
      </trkpt>
      <trkpt lat="47.00955" lon="6.3132">
        <ele>661.6</ele>
        <time>2020-05-22T17:37:53Z</time>
      </trkpt>
      <trkpt lat="47.00949" lon="6.31314">
        <ele>661.2</ele>
        <time>2020-05-22T17:37:54Z</time>
      </trkpt>
      <trkpt lat="47.00942" lon="6.31308">
        <ele>660.8</ele>
        <time>2020-05-22T17:37:55Z</time>
      </trkpt>
      <trkpt lat="47.00936" lon="6.31302">
        <ele>660.6</ele>
        <time>2020-05-22T17:37:56Z</time>
      </trkpt>
      <trkpt lat="47.00929" lon="6.31297">
        <ele>660.2</ele>
        <time>2020-05-22T17:37:57Z</time>
      </trkpt>
      <trkpt lat="47.00921" lon="6.31291">
        <ele>659.8</ele>
        <time>2020-05-22T17:37:58Z</time>
      </trkpt>
      <trkpt lat="47.00914" lon="6.31285">
        <ele>659.4</ele>
        <time>2020-05-22T17:37:59Z</time>
      </trkpt>
      <trkpt lat="47.00906" lon="6.3128">
        <ele>659</ele>
        <time>2020-05-22T17:38:00Z</time>
      </trkpt>
      <trkpt lat="47.00899" lon="6.31274">
        <ele>658.8</ele>
        <time>2020-05-22T17:38:01Z</time>
      </trkpt>
      <trkpt lat="47.00891" lon="6.31269">
        <ele>658.4</ele>
        <time>2020-05-22T17:38:02Z</time>
      </trkpt>
      <trkpt lat="47.00883" lon="6.31264">
        <ele>658.2</ele>
        <time>2020-05-22T17:38:03Z</time>
      </trkpt>
      <trkpt lat="47.00875" lon="6.3126">
        <ele>657.8</ele>
        <time>2020-05-22T17:38:04Z</time>
      </trkpt>
      <trkpt lat="47.00867" lon="6.31255">
        <ele>657.4</ele>
        <time>2020-05-22T17:38:05Z</time>
      </trkpt>
      <trkpt lat="47.00859" lon="6.31251">
        <ele>657</ele>
        <time>2020-05-22T17:38:06Z</time>
      </trkpt>
      <trkpt lat="47.00851" lon="6.31246">
        <ele>656.8</ele>
        <time>2020-05-22T17:38:07Z</time>
      </trkpt>
      <trkpt lat="47.00844" lon="6.31242">
        <ele>656.4</ele>
        <time>2020-05-22T17:38:08Z</time>
      </trkpt>
      <trkpt lat="47.00836" lon="6.31239">
        <ele>656.2</ele>
        <time>2020-05-22T17:38:09Z</time>
      </trkpt>
      <trkpt lat="47.00828" lon="6.31235">
        <ele>655.8</ele>
        <time>2020-05-22T17:38:10Z</time>
      </trkpt>
      <trkpt lat="47.00821" lon="6.31231">
        <ele>655.8</ele>
        <time>2020-05-22T17:38:11Z</time>
      </trkpt>
      <trkpt lat="47.00813" lon="6.31226">
        <ele>655.4</ele>
        <time>2020-05-22T17:38:12Z</time>
      </trkpt>
      <trkpt lat="47.00806" lon="6.31222">
        <ele>655.2</ele>
        <time>2020-05-22T17:38:13Z</time>
      </trkpt>
      <trkpt lat="47.00798" lon="6.31219">
        <ele>655</ele>
        <time>2020-05-22T17:38:14Z</time>
      </trkpt>
      <trkpt lat="47.0079" lon="6.31215">
        <ele>654.6</ele>
        <time>2020-05-22T17:38:15Z</time>
      </trkpt>
      <trkpt lat="47.00783" lon="6.31211">
        <ele>654.2</ele>
        <time>2020-05-22T17:38:16Z</time>
      </trkpt>
      <trkpt lat="47.00775" lon="6.31207">
        <ele>654</ele>
        <time>2020-05-22T17:38:17Z</time>
      </trkpt>
      <trkpt lat="47.00767" lon="6.31203">
        <ele>653.6</ele>
        <time>2020-05-22T17:38:18Z</time>
      </trkpt>
      <trkpt lat="47.00759" lon="6.312">
        <ele>653.2</ele>
        <time>2020-05-22T17:38:19Z</time>
      </trkpt>
      <trkpt lat="47.00751" lon="6.31197">
        <ele>653</ele>
        <time>2020-05-22T17:38:20Z</time>
      </trkpt>
      <trkpt lat="47.00743" lon="6.31195">
        <ele>652.8</ele>
        <time>2020-05-22T17:38:21Z</time>
      </trkpt>
      <trkpt lat="47.00735" lon="6.31192">
        <ele>652.6</ele>
        <time>2020-05-22T17:38:22Z</time>
      </trkpt>
      <trkpt lat="47.00727" lon="6.3119">
        <ele>652.2</ele>
        <time>2020-05-22T17:38:23Z</time>
      </trkpt>
      <trkpt lat="47.00719" lon="6.31187">
        <ele>651.8</ele>
        <time>2020-05-22T17:38:24Z</time>
      </trkpt>
      <trkpt lat="47.00711" lon="6.31185">
        <ele>651.6</ele>
        <time>2020-05-22T17:38:25Z</time>
      </trkpt>
      <trkpt lat="47.00703" lon="6.31183">
        <ele>651.2</ele>
        <time>2020-05-22T17:38:26Z</time>
      </trkpt>
      <trkpt lat="47.00695" lon="6.31182">
        <ele>651</ele>
        <time>2020-05-22T17:38:27Z</time>
      </trkpt>
      <trkpt lat="47.00687" lon="6.31181">
        <ele>650.8</ele>
        <time>2020-05-22T17:38:28Z</time>
      </trkpt>
      <trkpt lat="47.00679" lon="6.3118">
        <ele>650.6</ele>
        <time>2020-05-22T17:38:29Z</time>
      </trkpt>
      <trkpt lat="47.00671" lon="6.31179">
        <ele>650.4</ele>
        <time>2020-05-22T17:38:30Z</time>
      </trkpt>
      <trkpt lat="47.00663" lon="6.31178">
        <ele>650.4</ele>
        <time>2020-05-22T17:38:31Z</time>
      </trkpt>
      <trkpt lat="47.00656" lon="6.31177">
        <ele>650</ele>
        <time>2020-05-22T17:38:32Z</time>
      </trkpt>
      <trkpt lat="47.00649" lon="6.31176">
        <ele>650</ele>
        <time>2020-05-22T17:38:33Z</time>
      </trkpt>
      <trkpt lat="47.00642" lon="6.31175">
        <ele>649.6</ele>
        <time>2020-05-22T17:38:34Z</time>
      </trkpt>
      <trkpt lat="47.00635" lon="6.31174">
        <ele>649.6</ele>
        <time>2020-05-22T17:38:35Z</time>
      </trkpt>
      <trkpt lat="47.00628" lon="6.31173">
        <ele>649.4</ele>
        <time>2020-05-22T17:38:36Z</time>
      </trkpt>
      <trkpt lat="47.00621" lon="6.31172">
        <ele>649.4</ele>
        <time>2020-05-22T17:38:37Z</time>
      </trkpt>
      <trkpt lat="47.00614" lon="6.31172">
        <ele>649</ele>
        <time>2020-05-22T17:38:38Z</time>
      </trkpt>
      <trkpt lat="47.00608" lon="6.31171">
        <ele>649</ele>
        <time>2020-05-22T17:38:39Z</time>
      </trkpt>
      <trkpt lat="47.00602" lon="6.3117">
        <ele>648.8</ele>
        <time>2020-05-22T17:38:40Z</time>
      </trkpt>
      <trkpt lat="47.00595" lon="6.3117">
        <ele>648.8</ele>
        <time>2020-05-22T17:38:41Z</time>
      </trkpt>
      <trkpt lat="47.00589" lon="6.31169">
        <ele>648.6</ele>
        <time>2020-05-22T17:38:42Z</time>
      </trkpt>
      <trkpt lat="47.00582" lon="6.31168">
        <ele>648.6</ele>
        <time>2020-05-22T17:38:43Z</time>
      </trkpt>
      <trkpt lat="47.00576" lon="6.31167">
        <ele>648.4</ele>
        <time>2020-05-22T17:38:44Z</time>
      </trkpt>
      <trkpt lat="47.00569" lon="6.31166">
        <ele>648.4</ele>
        <time>2020-05-22T17:38:45Z</time>
      </trkpt>
      <trkpt lat="47.00562" lon="6.31166">
        <ele>648</ele>
        <time>2020-05-22T17:38:46Z</time>
      </trkpt>
      <trkpt lat="47.00556" lon="6.31165">
        <ele>648</ele>
        <time>2020-05-22T17:38:47Z</time>
      </trkpt>
      <trkpt lat="47.00549" lon="6.31164">
        <ele>647.8</ele>
        <time>2020-05-22T17:38:48Z</time>
      </trkpt>
      <trkpt lat="47.00543" lon="6.31164">
        <ele>647.8</ele>
        <time>2020-05-22T17:38:49Z</time>
      </trkpt>
      <trkpt lat="47.00536" lon="6.31163">
        <ele>647.4</ele>
        <time>2020-05-22T17:38:50Z</time>
      </trkpt>
      <trkpt lat="47.00529" lon="6.31162">
        <ele>647.4</ele>
        <time>2020-05-22T17:38:51Z</time>
      </trkpt>
      <trkpt lat="47.00523" lon="6.31162">
        <ele>647</ele>
        <time>2020-05-22T17:38:52Z</time>
      </trkpt>
      <trkpt lat="47.00516" lon="6.31161">
        <ele>647</ele>
        <time>2020-05-22T17:38:53Z</time>
      </trkpt>
      <trkpt lat="47.0051" lon="6.3116">
        <ele>646.8</ele>
        <time>2020-05-22T17:38:54Z</time>
      </trkpt>
      <trkpt lat="47.00503" lon="6.31159">
        <ele>646.6</ele>
        <time>2020-05-22T17:38:55Z</time>
      </trkpt>
      <trkpt lat="47.00497" lon="6.31159">
        <ele>646.6</ele>
        <time>2020-05-22T17:38:56Z</time>
      </trkpt>
      <trkpt lat="47.0049" lon="6.31158">
        <ele>646.2</ele>
        <time>2020-05-22T17:38:57Z</time>
      </trkpt>
      <trkpt lat="47.00484" lon="6.31157">
        <ele>646.2</ele>
        <time>2020-05-22T17:38:58Z</time>
      </trkpt>
      <trkpt lat="47.00477" lon="6.31157">
        <ele>645.8</ele>
        <time>2020-05-22T17:38:59Z</time>
      </trkpt>
      <trkpt lat="47.0047" lon="6.31156">
        <ele>645.8</ele>
        <time>2020-05-22T17:39:00Z</time>
      </trkpt>
      <trkpt lat="47.00463" lon="6.31156">
        <ele>645.6</ele>
        <time>2020-05-22T17:39:01Z</time>
      </trkpt>
      <trkpt lat="47.00456" lon="6.31156">
        <ele>645.6</ele>
        <time>2020-05-22T17:39:02Z</time>
      </trkpt>
      <trkpt lat="47.00449" lon="6.31156">
        <ele>645.2</ele>
        <time>2020-05-22T17:39:03Z</time>
      </trkpt>
      <trkpt lat="47.00442" lon="6.31156">
        <ele>645</ele>
        <time>2020-05-22T17:39:04Z</time>
      </trkpt>
      <trkpt lat="47.00435" lon="6.31158">
        <ele>644.6</ele>
        <time>2020-05-22T17:39:05Z</time>
      </trkpt>
      <trkpt lat="47.00428" lon="6.31159">
        <ele>644.4</ele>
        <time>2020-05-22T17:39:06Z</time>
      </trkpt>
      <trkpt lat="47.00421" lon="6.31161">
        <ele>644.2</ele>
        <time>2020-05-22T17:39:07Z</time>
      </trkpt>
      <trkpt lat="47.00414" lon="6.31163">
        <ele>644</ele>
        <time>2020-05-22T17:39:08Z</time>
      </trkpt>
      <trkpt lat="47.00407" lon="6.31164">
        <ele>643.6</ele>
        <time>2020-05-22T17:39:09Z</time>
      </trkpt>
      <trkpt lat="47.00399" lon="6.31166">
        <ele>643.4</ele>
        <time>2020-05-22T17:39:10Z</time>
      </trkpt>
      <trkpt lat="47.00392" lon="6.31168">
        <ele>643.2</ele>
        <time>2020-05-22T17:39:11Z</time>
      </trkpt>
      <trkpt lat="47.00384" lon="6.3117">
        <ele>642.8</ele>
        <time>2020-05-22T17:39:12Z</time>
      </trkpt>
      <trkpt lat="47.00377" lon="6.31172">
        <ele>642.6</ele>
        <time>2020-05-22T17:39:13Z</time>
      </trkpt>
      <trkpt lat="47.00369" lon="6.31174">
        <ele>642.2</ele>
        <time>2020-05-22T17:39:14Z</time>
      </trkpt>
      <trkpt lat="47.00361" lon="6.31177">
        <ele>642</ele>
        <time>2020-05-22T17:39:15Z</time>
      </trkpt>
      <trkpt lat="47.00354" lon="6.31179">
        <ele>641.6</ele>
        <time>2020-05-22T17:39:16Z</time>
      </trkpt>
      <trkpt lat="47.00346" lon="6.31181">
        <ele>641.4</ele>
        <time>2020-05-22T17:39:17Z</time>
      </trkpt>
      <trkpt lat="47.00338" lon="6.31183">
        <ele>641</ele>
        <time>2020-05-22T17:39:18Z</time>
      </trkpt>
      <trkpt lat="47.0033" lon="6.31185">
        <ele>641</ele>
        <time>2020-05-22T17:39:19Z</time>
      </trkpt>
      <trkpt lat="47.00322" lon="6.31187">
        <ele>640.6</ele>
        <time>2020-05-22T17:39:20Z</time>
      </trkpt>
      <trkpt lat="47.00315" lon="6.31189">
        <ele>640.4</ele>
        <time>2020-05-22T17:39:21Z</time>
      </trkpt>
      <trkpt lat="47.00307" lon="6.31191">
        <ele>640</ele>
        <time>2020-05-22T17:39:22Z</time>
      </trkpt>
      <trkpt lat="47.00299" lon="6.31192">
        <ele>639.8</ele>
        <time>2020-05-22T17:39:23Z</time>
      </trkpt>
      <trkpt lat="47.0029" lon="6.31193">
        <ele>639.4</ele>
        <time>2020-05-22T17:39:24Z</time>
      </trkpt>
      <trkpt lat="47.00282" lon="6.31193">
        <ele>639.2</ele>
        <time>2020-05-22T17:39:25Z</time>
      </trkpt>
      <trkpt lat="47.00274" lon="6.31192">
        <ele>638.8</ele>
        <time>2020-05-22T17:39:26Z</time>
      </trkpt>
      <trkpt lat="47.00266" lon="6.31191">
        <ele>638.4</ele>
        <time>2020-05-22T17:39:27Z</time>
      </trkpt>
      <trkpt lat="47.00257" lon="6.31189">
        <ele>638.2</ele>
        <time>2020-05-22T17:39:28Z</time>
      </trkpt>
      <trkpt lat="47.00249" lon="6.31188">
        <ele>637.8</ele>
        <time>2020-05-22T17:39:29Z</time>
      </trkpt>
      <trkpt lat="47.00241" lon="6.31186">
        <ele>637.6</ele>
        <time>2020-05-22T17:39:30Z</time>
      </trkpt>
      <trkpt lat="47.00232" lon="6.31184">
        <ele>637.2</ele>
        <time>2020-05-22T17:39:31Z</time>
      </trkpt>
      <trkpt lat="47.00223" lon="6.31181">
        <ele>636.8</ele>
        <time>2020-05-22T17:39:32Z</time>
      </trkpt>
      <trkpt lat="47.00215" lon="6.31178">
        <ele>636.4</ele>
        <time>2020-05-22T17:39:33Z</time>
      </trkpt>
      <trkpt lat="47.00206" lon="6.31173">
        <ele>636.2</ele>
        <time>2020-05-22T17:39:34Z</time>
      </trkpt>
      <trkpt lat="47.00198" lon="6.31167">
        <ele>635.8</ele>
        <time>2020-05-22T17:39:35Z</time>
      </trkpt>
      <trkpt lat="47.0019" lon="6.3116">
        <ele>635.6</ele>
        <time>2020-05-22T17:39:36Z</time>
      </trkpt>
      <trkpt lat="47.00182" lon="6.31154">
        <ele>635.2</ele>
        <time>2020-05-22T17:39:37Z</time>
      </trkpt>
      <trkpt lat="47.00174" lon="6.31148">
        <ele>635</ele>
        <time>2020-05-22T17:39:38Z</time>
      </trkpt>
      <trkpt lat="47.00167" lon="6.31142">
        <ele>634.6</ele>
        <time>2020-05-22T17:39:39Z</time>
      </trkpt>
      <trkpt lat="47.0016" lon="6.31135">
        <ele>634.6</ele>
        <time>2020-05-22T17:39:40Z</time>
      </trkpt>
      <trkpt lat="47.00154" lon="6.31128">
        <ele>634.2</ele>
        <time>2020-05-22T17:39:41Z</time>
      </trkpt>
      <trkpt lat="47.00148" lon="6.3112">
        <ele>634</ele>
        <time>2020-05-22T17:39:42Z</time>
      </trkpt>
      <trkpt lat="47.00143" lon="6.31111">
        <ele>633.6</ele>
        <time>2020-05-22T17:39:43Z</time>
      </trkpt>
      <trkpt lat="47.00138" lon="6.31102">
        <ele>633.6</ele>
        <time>2020-05-22T17:39:44Z</time>
      </trkpt>
      <trkpt lat="47.00133" lon="6.31093">
        <ele>633.4</ele>
        <time>2020-05-22T17:39:45Z</time>
      </trkpt>
      <trkpt lat="47.00129" lon="6.31084">
        <ele>633.2</ele>
        <time>2020-05-22T17:39:46Z</time>
      </trkpt>
      <trkpt lat="47.00124" lon="6.31075">
        <ele>633.2</ele>
        <time>2020-05-22T17:39:47Z</time>
      </trkpt>
      <trkpt lat="47.00121" lon="6.31064">
        <ele>632.8</ele>
        <time>2020-05-22T17:39:48Z</time>
      </trkpt>
      <trkpt lat="47.00118" lon="6.31053">
        <ele>632.8</ele>
        <time>2020-05-22T17:39:49Z</time>
      </trkpt>
      <trkpt lat="47.00116" lon="6.31042">
        <ele>632.6</ele>
        <time>2020-05-22T17:39:50Z</time>
      </trkpt>
      <trkpt lat="47.00113" lon="6.31032">
        <ele>632.6</ele>
        <time>2020-05-22T17:39:51Z</time>
      </trkpt>
      <trkpt lat="47.00111" lon="6.31022">
        <ele>632.2</ele>
        <time>2020-05-22T17:39:52Z</time>
      </trkpt>
      <trkpt lat="47.00109" lon="6.31012">
        <ele>632.2</ele>
        <time>2020-05-22T17:39:53Z</time>
      </trkpt>
      <trkpt lat="47.00107" lon="6.31002">
        <ele>632</ele>
        <time>2020-05-22T17:39:54Z</time>
      </trkpt>
      <trkpt lat="47.00104" lon="6.30992">
        <ele>632</ele>
        <time>2020-05-22T17:39:55Z</time>
      </trkpt>
      <trkpt lat="47.00102" lon="6.30983">
        <ele>632</ele>
        <time>2020-05-22T17:39:56Z</time>
      </trkpt>
      <trkpt lat="47.001" lon="6.30973">
        <ele>631.8</ele>
        <time>2020-05-22T17:39:57Z</time>
      </trkpt>
      <trkpt lat="47.00098" lon="6.30964">
        <ele>631.8</ele>
        <time>2020-05-22T17:39:58Z</time>
      </trkpt>
      <trkpt lat="47.00096" lon="6.30954">
        <ele>631.4</ele>
        <time>2020-05-22T17:39:59Z</time>
      </trkpt>
      <trkpt lat="47.00094" lon="6.30944">
        <ele>631.4</ele>
        <time>2020-05-22T17:40:00Z</time>
      </trkpt>
      <trkpt lat="47.00093" lon="6.30935">
        <ele>631.4</ele>
        <time>2020-05-22T17:40:01Z</time>
      </trkpt>
      <trkpt lat="47.00091" lon="6.30925">
        <ele>631.2</ele>
        <time>2020-05-22T17:40:02Z</time>
      </trkpt>
      <trkpt lat="47.0009" lon="6.30916">
        <ele>631.2</ele>
        <time>2020-05-22T17:40:03Z</time>
      </trkpt>
      <trkpt lat="47.00089" lon="6.30907">
        <ele>631.2</ele>
        <time>2020-05-22T17:40:04Z</time>
      </trkpt>
      <trkpt lat="47.00088" lon="6.30898">
        <ele>630.8</ele>
        <time>2020-05-22T17:40:05Z</time>
      </trkpt>
      <trkpt lat="47.00087" lon="6.30888">
        <ele>630.8</ele>
        <time>2020-05-22T17:40:06Z</time>
      </trkpt>
      <trkpt lat="47.00086" lon="6.30879">
        <ele>630.6</ele>
        <time>2020-05-22T17:40:07Z</time>
      </trkpt>
      <trkpt lat="47.00086" lon="6.3087">
        <ele>630.6</ele>
        <time>2020-05-22T17:40:08Z</time>
      </trkpt>
      <trkpt lat="47.00086" lon="6.30861">
        <ele>630.4</ele>
        <time>2020-05-22T17:40:09Z</time>
      </trkpt>
      <trkpt lat="47.00086" lon="6.30852">
        <ele>630.4</ele>
        <time>2020-05-22T17:40:10Z</time>
      </trkpt>
      <trkpt lat="47.00086" lon="6.30843">
        <ele>630.2</ele>
        <time>2020-05-22T17:40:11Z</time>
      </trkpt>
      <trkpt lat="47.00086" lon="6.30834">
        <ele>630.2</ele>
        <time>2020-05-22T17:40:12Z</time>
      </trkpt>
      <trkpt lat="47.00086" lon="6.30824">
        <ele>630.2</ele>
        <time>2020-05-22T17:40:13Z</time>
      </trkpt>
      <trkpt lat="47.00087" lon="6.30815">
        <ele>630</ele>
        <time>2020-05-22T17:40:14Z</time>
      </trkpt>
      <trkpt lat="47.00087" lon="6.30806">
        <ele>630</ele>
        <time>2020-05-22T17:40:15Z</time>
      </trkpt>
      <trkpt lat="47.00087" lon="6.30797">
        <ele>630</ele>
        <time>2020-05-22T17:40:16Z</time>
      </trkpt>
      <trkpt lat="47.00088" lon="6.30787">
        <ele>629.8</ele>
        <time>2020-05-22T17:40:17Z</time>
      </trkpt>
      <trkpt lat="47.00088" lon="6.30778">
        <ele>629.8</ele>
        <time>2020-05-22T17:40:18Z</time>
      </trkpt>
      <trkpt lat="47.00088" lon="6.30769">
        <ele>629.4</ele>
        <time>2020-05-22T17:40:19Z</time>
      </trkpt>
      <trkpt lat="47.00089" lon="6.3076">
        <ele>629.2</ele>
        <time>2020-05-22T17:40:20Z</time>
      </trkpt>
      <trkpt lat="47.00089" lon="6.3075">
        <ele>629.2</ele>
        <time>2020-05-22T17:40:21Z</time>
      </trkpt>
      <trkpt lat="47.0009" lon="6.30741">
        <ele>629</ele>
        <time>2020-05-22T17:40:22Z</time>
      </trkpt>
      <trkpt lat="47.0009" lon="6.30732">
        <ele>629</ele>
        <time>2020-05-22T17:40:23Z</time>
      </trkpt>
      <trkpt lat="47.0009" lon="6.30723">
        <ele>628.8</ele>
        <time>2020-05-22T17:40:24Z</time>
      </trkpt>
      <trkpt lat="47.0009" lon="6.30714">
        <ele>628.8</ele>
        <time>2020-05-22T17:40:25Z</time>
      </trkpt>
      <trkpt lat="47.00091" lon="6.30705">
        <ele>628.4</ele>
        <time>2020-05-22T17:40:26Z</time>
      </trkpt>
      <trkpt lat="47.00091" lon="6.30696">
        <ele>628.4</ele>
        <time>2020-05-22T17:40:27Z</time>
      </trkpt>
      <trkpt lat="47.00091" lon="6.30687">
        <ele>628.2</ele>
        <time>2020-05-22T17:40:28Z</time>
      </trkpt>
      <trkpt lat="47.00092" lon="6.30678">
        <ele>628.2</ele>
        <time>2020-05-22T17:40:29Z</time>
      </trkpt>
      <trkpt lat="47.00092" lon="6.30668">
        <ele>628</ele>
        <time>2020-05-22T17:40:30Z</time>
      </trkpt>
      <trkpt lat="47.00092" lon="6.30659">
        <ele>627.8</ele>
        <time>2020-05-22T17:40:31Z</time>
      </trkpt>
      <trkpt lat="47.00092" lon="6.30649">
        <ele>627.8</ele>
        <time>2020-05-22T17:40:32Z</time>
      </trkpt>
      <trkpt lat="47.00092" lon="6.30639">
        <ele>627.4</ele>
        <time>2020-05-22T17:40:33Z</time>
      </trkpt>
      <trkpt lat="47.00092" lon="6.30629">
        <ele>627.4</ele>
        <time>2020-05-22T17:40:34Z</time>
      </trkpt>
      <trkpt lat="47.00092" lon="6.30619">
        <ele>627.4</ele>
        <time>2020-05-22T17:40:35Z</time>
      </trkpt>
      <trkpt lat="47.00091" lon="6.30609">
        <ele>627.2</ele>
        <time>2020-05-22T17:40:36Z</time>
      </trkpt>
      <trkpt lat="47.00091" lon="6.30599">
        <ele>627.2</ele>
        <time>2020-05-22T17:40:37Z</time>
      </trkpt>
      <trkpt lat="47.0009" lon="6.30589">
        <ele>626.8</ele>
        <time>2020-05-22T17:40:38Z</time>
      </trkpt>
      <trkpt lat="47.0009" lon="6.30579">
        <ele>626.6</ele>
        <time>2020-05-22T17:40:39Z</time>
      </trkpt>
      <trkpt lat="47.00089" lon="6.30569">
        <ele>626.6</ele>
        <time>2020-05-22T17:40:40Z</time>
      </trkpt>
      <trkpt lat="47.00089" lon="6.30559">
        <ele>626.6</ele>
        <time>2020-05-22T17:40:41Z</time>
      </trkpt>
      <trkpt lat="47.00088" lon="6.30549">
        <ele>626.4</ele>
        <time>2020-05-22T17:40:42Z</time>
      </trkpt>
      <trkpt lat="47.00088" lon="6.30539">
        <ele>626.4</ele>
        <time>2020-05-22T17:40:43Z</time>
      </trkpt>
      <trkpt lat="47.00087" lon="6.30529">
        <ele>626.4</ele>
        <time>2020-05-22T17:40:44Z</time>
      </trkpt>
      <trkpt lat="47.00087" lon="6.30519">
        <ele>626</ele>
        <time>2020-05-22T17:40:45Z</time>
      </trkpt>
      <trkpt lat="47.00087" lon="6.30509">
        <ele>626</ele>
        <time>2020-05-22T17:40:46Z</time>
      </trkpt>
      <trkpt lat="47.00087" lon="6.30499">
        <ele>626</ele>
        <time>2020-05-22T17:40:47Z</time>
      </trkpt>
      <trkpt lat="47.00087" lon="6.30489">
        <ele>625.6</ele>
        <time>2020-05-22T17:40:48Z</time>
      </trkpt>
      <trkpt lat="47.00087" lon="6.30479">
        <ele>625.6</ele>
        <time>2020-05-22T17:40:49Z</time>
      </trkpt>
      <trkpt lat="47.00088" lon="6.3047">
        <ele>625.6</ele>
        <time>2020-05-22T17:40:50Z</time>
      </trkpt>
      <trkpt lat="47.00088" lon="6.3046">
        <ele>625.4</ele>
        <time>2020-05-22T17:40:51Z</time>
      </trkpt>
      <trkpt lat="47.00088" lon="6.30451">
        <ele>625.4</ele>
        <time>2020-05-22T17:40:52Z</time>
      </trkpt>
      <trkpt lat="47.00089" lon="6.30441">
        <ele>625.4</ele>
        <time>2020-05-22T17:40:53Z</time>
      </trkpt>
      <trkpt lat="47.00089" lon="6.30432">
        <ele>625.2</ele>
        <time>2020-05-22T17:40:54Z</time>
      </trkpt>
      <trkpt lat="47.0009" lon="6.30423">
        <ele>625.2</ele>
        <time>2020-05-22T17:40:55Z</time>
      </trkpt>
      <trkpt lat="47.00091" lon="6.30415">
        <ele>625.2</ele>
        <time>2020-05-22T17:40:56Z</time>
      </trkpt>
      <trkpt lat="47.00092" lon="6.30406">
        <ele>625.2</ele>
        <time>2020-05-22T17:40:57Z</time>
      </trkpt>
      <trkpt lat="47.00093" lon="6.30397">
        <ele>625.2</ele>
        <time>2020-05-22T17:40:58Z</time>
      </trkpt>
      <trkpt lat="47.00093" lon="6.30389">
        <ele>625.2</ele>
        <time>2020-05-22T17:40:59Z</time>
      </trkpt>
      <trkpt lat="47.00094" lon="6.3038">
        <ele>625.2</ele>
        <time>2020-05-22T17:41:00Z</time>
      </trkpt>
      <trkpt lat="47.00095" lon="6.30371">
        <ele>625</ele>
        <time>2020-05-22T17:41:01Z</time>
      </trkpt>
      <trkpt lat="47.00096" lon="6.30363">
        <ele>625</ele>
        <time>2020-05-22T17:41:02Z</time>
      </trkpt>
      <trkpt lat="47.00097" lon="6.30354">
        <ele>625</ele>
        <time>2020-05-22T17:41:03Z</time>
      </trkpt>
      <trkpt lat="47.00097" lon="6.30346">
        <ele>625</ele>
        <time>2020-05-22T17:41:04Z</time>
      </trkpt>
      <trkpt lat="47.00098" lon="6.30338">
        <ele>625</ele>
        <time>2020-05-22T17:41:05Z</time>
      </trkpt>
      <trkpt lat="47.00099" lon="6.3033">
        <ele>625</ele>
        <time>2020-05-22T17:41:06Z</time>
      </trkpt>
      <trkpt lat="47.00099" lon="6.30323">
        <ele>625</ele>
        <time>2020-05-22T17:41:07Z</time>
      </trkpt>
      <trkpt lat="47.001" lon="6.30315">
        <ele>624.8</ele>
        <time>2020-05-22T17:41:08Z</time>
      </trkpt>
      <trkpt lat="47.00101" lon="6.30308">
        <ele>624.8</ele>
        <time>2020-05-22T17:41:09Z</time>
      </trkpt>
      <trkpt lat="47.00101" lon="6.303">
        <ele>624.8</ele>
        <time>2020-05-22T17:41:10Z</time>
      </trkpt>
      <trkpt lat="47.00102" lon="6.30293">
        <ele>624.8</ele>
        <time>2020-05-22T17:41:11Z</time>
      </trkpt>
      <trkpt lat="47.00102" lon="6.30286">
        <ele>624.8</ele>
        <time>2020-05-22T17:41:12Z</time>
      </trkpt>
      <trkpt lat="47.00103" lon="6.30278">
        <ele>624.6</ele>
        <time>2020-05-22T17:41:13Z</time>
      </trkpt>
      <trkpt lat="47.00103" lon="6.30271">
        <ele>624.6</ele>
        <time>2020-05-22T17:41:14Z</time>
      </trkpt>
      <trkpt lat="47.00103" lon="6.30263">
        <ele>624.6</ele>
        <time>2020-05-22T17:41:15Z</time>
      </trkpt>
      <trkpt lat="47.00103" lon="6.30255">
        <ele>624.6</ele>
        <time>2020-05-22T17:41:16Z</time>
      </trkpt>
      <trkpt lat="47.00103" lon="6.30247">
        <ele>624.6</ele>
        <time>2020-05-22T17:41:17Z</time>
      </trkpt>
      <trkpt lat="47.00102" lon="6.30239">
        <ele>624.4</ele>
        <time>2020-05-22T17:41:18Z</time>
      </trkpt>
      <trkpt lat="47.00101" lon="6.30231">
        <ele>624.4</ele>
        <time>2020-05-22T17:41:19Z</time>
      </trkpt>
      <trkpt lat="47.00099" lon="6.30223">
        <ele>624</ele>
        <time>2020-05-22T17:41:20Z</time>
      </trkpt>
      <trkpt lat="47.00096" lon="6.30215">
        <ele>624</ele>
        <time>2020-05-22T17:41:21Z</time>
      </trkpt>
      <trkpt lat="47.00092" lon="6.30207">
        <ele>623.8</ele>
        <time>2020-05-22T17:41:22Z</time>
      </trkpt>
      <trkpt lat="47.00088" lon="6.30199">
        <ele>623.8</ele>
        <time>2020-05-22T17:41:23Z</time>
      </trkpt>
      <trkpt lat="47.00084" lon="6.30192">
        <ele>623.4</ele>
        <time>2020-05-22T17:41:24Z</time>
      </trkpt>
      <trkpt lat="47.00078" lon="6.30185">
        <ele>623.4</ele>
        <time>2020-05-22T17:41:25Z</time>
      </trkpt>
      <trkpt lat="47.00073" lon="6.3018">
        <ele>623</ele>
        <time>2020-05-22T17:41:26Z</time>
      </trkpt>
      <trkpt lat="47.00067" lon="6.30175">
        <ele>623</ele>
        <time>2020-05-22T17:41:27Z</time>
      </trkpt>
      <trkpt lat="47.0006" lon="6.30171">
        <ele>622.8</ele>
        <time>2020-05-22T17:41:28Z</time>
      </trkpt>
      <trkpt lat="47.00054" lon="6.30167">
        <ele>622.8</ele>
        <time>2020-05-22T17:41:29Z</time>
      </trkpt>
      <trkpt lat="47.00047" lon="6.30164">
        <ele>622.8</ele>
        <time>2020-05-22T17:41:30Z</time>
      </trkpt>
      <trkpt lat="47.0004" lon="6.30162">
        <ele>622.4</ele>
        <time>2020-05-22T17:41:31Z</time>
      </trkpt>
      <trkpt lat="47.00033" lon="6.3016">
        <ele>622.2</ele>
        <time>2020-05-22T17:41:32Z</time>
      </trkpt>
      <trkpt lat="47.00026" lon="6.30158">
        <ele>622</ele>
        <time>2020-05-22T17:41:33Z</time>
      </trkpt>
      <trkpt lat="47.00019" lon="6.30156">
        <ele>621.8</ele>
        <time>2020-05-22T17:41:34Z</time>
      </trkpt>
      <trkpt lat="47.00012" lon="6.30153">
        <ele>621.6</ele>
        <time>2020-05-22T17:41:35Z</time>
      </trkpt>
      <trkpt lat="47.00005" lon="6.30151">
        <ele>621.2</ele>
        <time>2020-05-22T17:41:36Z</time>
      </trkpt>
      <trkpt lat="46.99998" lon="6.30149">
        <ele>621</ele>
        <time>2020-05-22T17:41:37Z</time>
      </trkpt>
      <trkpt lat="46.99991" lon="6.30147">
        <ele>620.8</ele>
        <time>2020-05-22T17:41:38Z</time>
      </trkpt>
      <trkpt lat="46.99983" lon="6.30145">
        <ele>620.8</ele>
        <time>2020-05-22T17:41:39Z</time>
      </trkpt>
      <trkpt lat="46.99976" lon="6.30142">
        <ele>620.4</ele>
        <time>2020-05-22T17:41:40Z</time>
      </trkpt>
      <trkpt lat="46.99969" lon="6.3014">
        <ele>620.2</ele>
        <time>2020-05-22T17:41:41Z</time>
      </trkpt>
      <trkpt lat="46.99961" lon="6.30137">
        <ele>620</ele>
        <time>2020-05-22T17:41:42Z</time>
      </trkpt>
      <trkpt lat="46.99954" lon="6.30135">
        <ele>620</ele>
        <time>2020-05-22T17:41:43Z</time>
      </trkpt>
      <trkpt lat="46.99947" lon="6.30133">
        <ele>619.4</ele>
        <time>2020-05-22T17:41:44Z</time>
      </trkpt>
      <trkpt lat="46.99939" lon="6.3013">
        <ele>619.2</ele>
        <time>2020-05-22T17:41:45Z</time>
      </trkpt>
      <trkpt lat="46.99932" lon="6.30127">
        <ele>619.2</ele>
        <time>2020-05-22T17:41:46Z</time>
      </trkpt>
      <trkpt lat="46.99924" lon="6.30124">
        <ele>618.8</ele>
        <time>2020-05-22T17:41:47Z</time>
      </trkpt>
      <trkpt lat="46.99917" lon="6.30121">
        <ele>618.8</ele>
        <time>2020-05-22T17:41:48Z</time>
      </trkpt>
      <trkpt lat="46.9991" lon="6.30118">
        <ele>618.4</ele>
        <time>2020-05-22T17:41:49Z</time>
      </trkpt>
      <trkpt lat="46.99902" lon="6.30115">
        <ele>618.2</ele>
        <time>2020-05-22T17:41:50Z</time>
      </trkpt>
      <trkpt lat="46.99896" lon="6.30111">
        <ele>618</ele>
        <time>2020-05-22T17:41:51Z</time>
      </trkpt>
      <trkpt lat="46.9989" lon="6.30108">
        <ele>618</ele>
        <time>2020-05-22T17:41:52Z</time>
      </trkpt>
      <trkpt lat="46.99884" lon="6.30104">
        <ele>617.4</ele>
        <time>2020-05-22T17:41:53Z</time>
      </trkpt>
      <trkpt lat="46.99879" lon="6.301">
        <ele>617.2</ele>
        <time>2020-05-22T17:41:54Z</time>
      </trkpt>
      <trkpt lat="46.99876" lon="6.30096">
        <ele>617.2</ele>
        <time>2020-05-22T17:41:55Z</time>
      </trkpt>
      <trkpt lat="46.99873" lon="6.30092">
        <ele>616.8</ele>
        <time>2020-05-22T17:41:56Z</time>
      </trkpt>
      <trkpt lat="46.99871" lon="6.30089">
        <ele>616.8</ele>
        <time>2020-05-22T17:41:57Z</time>
      </trkpt>
      <trkpt lat="46.99869" lon="6.30085">
        <ele>616.4</ele>
        <time>2020-05-22T17:41:58Z</time>
      </trkpt>
      <trkpt lat="46.99869" lon="6.30081">
        <ele>616.4</ele>
        <time>2020-05-22T17:41:59Z</time>
      </trkpt>
      <trkpt lat="46.99868" lon="6.30077">
        <ele>616.4</ele>
        <time>2020-05-22T17:42:00Z</time>
      </trkpt>
      <trkpt lat="46.99869" lon="6.30073">
        <ele>616.2</ele>
        <time>2020-05-22T17:42:01Z</time>
      </trkpt>
      <trkpt lat="46.99871" lon="6.30069">
        <ele>616.2</ele>
        <time>2020-05-22T17:42:02Z</time>
      </trkpt>
      <trkpt lat="46.99873" lon="6.30066">
        <ele>616.2</ele>
        <time>2020-05-22T17:42:03Z</time>
      </trkpt>
      <trkpt lat="46.99875" lon="6.30062">
        <ele>616.2</ele>
        <time>2020-05-22T17:42:04Z</time>
      </trkpt>
      <trkpt lat="46.99877" lon="6.30058">
        <ele>616.2</ele>
        <time>2020-05-22T17:42:05Z</time>
      </trkpt>
      <trkpt lat="46.99878" lon="6.30053">
        <ele>616.2</ele>
        <time>2020-05-22T17:42:06Z</time>
      </trkpt>
      <trkpt lat="46.99878" lon="6.30049">
        <ele>616.2</ele>
        <time>2020-05-22T17:42:07Z</time>
      </trkpt>
      <trkpt lat="46.99879" lon="6.30044">
        <ele>616.2</ele>
        <time>2020-05-22T17:42:08Z</time>
      </trkpt>
      <trkpt lat="46.99879" lon="6.30039">
        <ele>616.2</ele>
        <time>2020-05-22T17:42:09Z</time>
      </trkpt>
      <trkpt lat="46.9988" lon="6.30035">
        <ele>616.2</ele>
        <time>2020-05-22T17:42:10Z</time>
      </trkpt>
      <trkpt lat="46.99881" lon="6.3003">
        <ele>616.2</ele>
        <time>2020-05-22T17:42:11Z</time>
      </trkpt>
      <trkpt lat="46.99882" lon="6.30026">
        <ele>616.2</ele>
        <time>2020-05-22T17:42:12Z</time>
      </trkpt>
      <trkpt lat="46.99883" lon="6.30021">
        <ele>616.2</ele>
        <time>2020-05-22T17:42:13Z</time>
      </trkpt>
      <trkpt lat="46.99883" lon="6.30017">
        <ele>616.2</ele>
        <time>2020-05-22T17:42:14Z</time>
      </trkpt>
      <trkpt lat="46.99883" lon="6.30012">
        <ele>616.2</ele>
        <time>2020-05-22T17:42:15Z</time>
      </trkpt>
      <trkpt lat="46.99884" lon="6.30007">
        <ele>616.2</ele>
        <time>2020-05-22T17:42:16Z</time>
      </trkpt>
      <trkpt lat="46.99885" lon="6.30003">
        <ele>616.2</ele>
        <time>2020-05-22T17:42:17Z</time>
      </trkpt>
      <trkpt lat="46.99886" lon="6.29999">
        <ele>616.2</ele>
        <time>2020-05-22T17:42:18Z</time>
      </trkpt>
      <trkpt lat="46.99887" lon="6.29995">
        <ele>616.4</ele>
        <time>2020-05-22T17:42:19Z</time>
      </trkpt>
      <trkpt lat="46.99888" lon="6.29991">
        <ele>616.4</ele>
        <time>2020-05-22T17:42:20Z</time>
      </trkpt>
      <trkpt lat="46.99888" lon="6.29988">
        <ele>616.4</ele>
        <time>2020-05-22T17:42:21Z</time>
      </trkpt>
      <trkpt lat="46.99889" lon="6.29984">
        <ele>616.6</ele>
        <time>2020-05-22T17:42:22Z</time>
      </trkpt>
      <trkpt lat="46.9989" lon="6.2998">
        <ele>616.6</ele>
        <time>2020-05-22T17:42:23Z</time>
      </trkpt>
      <trkpt lat="46.99891" lon="6.29977">
        <ele>616.6</ele>
        <time>2020-05-22T17:42:24Z</time>
      </trkpt>
      <trkpt lat="46.99892" lon="6.29973">
        <ele>617</ele>
        <time>2020-05-22T17:42:25Z</time>
      </trkpt>
      <trkpt lat="46.99893" lon="6.2997">
        <ele>617</ele>
        <time>2020-05-22T17:42:26Z</time>
      </trkpt>
      <trkpt lat="46.99893" lon="6.29966">
        <ele>617.2</ele>
        <time>2020-05-22T17:42:27Z</time>
      </trkpt>
      <trkpt lat="46.99894" lon="6.29963">
        <ele>617.2</ele>
        <time>2020-05-22T17:42:28Z</time>
      </trkpt>
      <trkpt lat="46.99895" lon="6.2996">
        <ele>617.4</ele>
        <time>2020-05-22T17:42:29Z</time>
      </trkpt>
      <trkpt lat="46.99897" lon="6.29957">
        <ele>617.4</ele>
        <time>2020-05-22T17:42:30Z</time>
      </trkpt>
      <trkpt lat="46.99898" lon="6.29954">
        <ele>617.4</ele>
        <time>2020-05-22T17:42:31Z</time>
      </trkpt>
      <trkpt lat="46.99899" lon="6.2995">
        <ele>617.6</ele>
        <time>2020-05-22T17:42:32Z</time>
      </trkpt>
      <trkpt lat="46.999" lon="6.29947">
        <ele>617.6</ele>
        <time>2020-05-22T17:42:33Z</time>
      </trkpt>
      <trkpt lat="46.99901" lon="6.29944">
        <ele>618</ele>
        <time>2020-05-22T17:42:34Z</time>
      </trkpt>
      <trkpt lat="46.99902" lon="6.2994">
        <ele>618</ele>
        <time>2020-05-22T17:42:35Z</time>
      </trkpt>
      <trkpt lat="46.99903" lon="6.29938">
        <ele>618</ele>
        <time>2020-05-22T17:42:36Z</time>
      </trkpt>
      <trkpt lat="46.99905" lon="6.29935">
        <ele>618</ele>
        <time>2020-05-22T17:42:37Z</time>
      </trkpt>
      <trkpt lat="46.99906" lon="6.29932">
        <ele>618.2</ele>
        <time>2020-05-22T17:42:38Z</time>
      </trkpt>
      <trkpt lat="46.99908" lon="6.29929">
        <ele>618.2</ele>
        <time>2020-05-22T17:42:39Z</time>
      </trkpt>
      <trkpt lat="46.99909" lon="6.29925">
        <ele>618.4</ele>
        <time>2020-05-22T17:42:40Z</time>
      </trkpt>
      <trkpt lat="46.99911" lon="6.29922">
        <ele>618.4</ele>
        <time>2020-05-22T17:42:41Z</time>
      </trkpt>
      <trkpt lat="46.99913" lon="6.29919">
        <ele>618.4</ele>
        <time>2020-05-22T17:42:42Z</time>
      </trkpt>
      <trkpt lat="46.99914" lon="6.29916">
        <ele>618.8</ele>
        <time>2020-05-22T17:42:43Z</time>
      </trkpt>
      <trkpt lat="46.99916" lon="6.29913">
        <ele>618.8</ele>
        <time>2020-05-22T17:42:44Z</time>
      </trkpt>
      <trkpt lat="46.99917" lon="6.2991">
        <ele>618.8</ele>
        <time>2020-05-22T17:42:45Z</time>
      </trkpt>
      <trkpt lat="46.99918" lon="6.29906">
        <ele>618.8</ele>
        <time>2020-05-22T17:42:46Z</time>
      </trkpt>
      <trkpt lat="46.9992" lon="6.29903">
        <ele>619</ele>
        <time>2020-05-22T17:42:47Z</time>
      </trkpt>
      <trkpt lat="46.99922" lon="6.299">
        <ele>619</ele>
        <time>2020-05-22T17:42:48Z</time>
      </trkpt>
      <trkpt lat="46.99923" lon="6.29896">
        <ele>619</ele>
        <time>2020-05-22T17:42:49Z</time>
      </trkpt>
      <trkpt lat="46.99925" lon="6.29893">
        <ele>619</ele>
        <time>2020-05-22T17:42:50Z</time>
      </trkpt>
      <trkpt lat="46.99927" lon="6.29889">
        <ele>619</ele>
        <time>2020-05-22T17:42:51Z</time>
      </trkpt>
      <trkpt lat="46.99928" lon="6.29885">
        <ele>619</ele>
        <time>2020-05-22T17:42:52Z</time>
      </trkpt>
      <trkpt lat="46.9993" lon="6.29882">
        <ele>619</ele>
        <time>2020-05-22T17:42:53Z</time>
      </trkpt>
      <trkpt lat="46.99932" lon="6.29878">
        <ele>619</ele>
        <time>2020-05-22T17:42:54Z</time>
      </trkpt>
      <trkpt lat="46.99934" lon="6.29874">
        <ele>619</ele>
        <time>2020-05-22T17:42:55Z</time>
      </trkpt>
      <trkpt lat="46.99935" lon="6.2987">
        <ele>619</ele>
        <time>2020-05-22T17:42:56Z</time>
      </trkpt>
      <trkpt lat="46.99938" lon="6.29867">
        <ele>619</ele>
        <time>2020-05-22T17:42:57Z</time>
      </trkpt>
      <trkpt lat="46.9994" lon="6.29863">
        <ele>619</ele>
        <time>2020-05-22T17:42:58Z</time>
      </trkpt>
      <trkpt lat="46.99942" lon="6.2986">
        <ele>619</ele>
        <time>2020-05-22T17:42:59Z</time>
      </trkpt>
      <trkpt lat="46.99945" lon="6.29856">
        <ele>619</ele>
        <time>2020-05-22T17:43:00Z</time>
      </trkpt>
      <trkpt lat="46.99947" lon="6.29851">
        <ele>619</ele>
        <time>2020-05-22T17:43:01Z</time>
      </trkpt>
      <trkpt lat="46.99949" lon="6.29846">
        <ele>618.8</ele>
        <time>2020-05-22T17:43:02Z</time>
      </trkpt>
      <trkpt lat="46.99952" lon="6.29841">
        <ele>618.8</ele>
        <time>2020-05-22T17:43:03Z</time>
      </trkpt>
      <trkpt lat="46.99955" lon="6.29836">
        <ele>618.4</ele>
        <time>2020-05-22T17:43:04Z</time>
      </trkpt>
      <trkpt lat="46.99959" lon="6.2983">
        <ele>618.4</ele>
        <time>2020-05-22T17:43:05Z</time>
      </trkpt>
      <trkpt lat="46.99963" lon="6.29824">
        <ele>618</ele>
        <time>2020-05-22T17:43:06Z</time>
      </trkpt>
      <trkpt lat="46.99966" lon="6.29819">
        <ele>618</ele>
        <time>2020-05-22T17:43:07Z</time>
      </trkpt>
      <trkpt lat="46.99971" lon="6.29813">
        <ele>617.6</ele>
        <time>2020-05-22T17:43:08Z</time>
      </trkpt>
      <trkpt lat="46.99975" lon="6.29807">
        <ele>617.6</ele>
        <time>2020-05-22T17:43:09Z</time>
      </trkpt>
      <trkpt lat="46.99979" lon="6.29801">
        <ele>617.4</ele>
        <time>2020-05-22T17:43:10Z</time>
      </trkpt>
      <trkpt lat="46.99983" lon="6.29795">
        <ele>617.4</ele>
        <time>2020-05-22T17:43:11Z</time>
      </trkpt>
      <trkpt lat="46.99988" lon="6.29788">
        <ele>617.2</ele>
        <time>2020-05-22T17:43:12Z</time>
      </trkpt>
      <trkpt lat="46.99993" lon="6.29782">
        <ele>617.2</ele>
        <time>2020-05-22T17:43:13Z</time>
      </trkpt>
      <trkpt lat="46.99997" lon="6.29776">
        <ele>616.8</ele>
        <time>2020-05-22T17:43:14Z</time>
      </trkpt>
      <trkpt lat="47.00002" lon="6.29769">
        <ele>616.8</ele>
        <time>2020-05-22T17:43:15Z</time>
      </trkpt>
      <trkpt lat="47.00007" lon="6.29763">
        <ele>616.6</ele>
        <time>2020-05-22T17:43:16Z</time>
      </trkpt>
      <trkpt lat="47.00012" lon="6.29756">
        <ele>616.6</ele>
        <time>2020-05-22T17:43:17Z</time>
      </trkpt>
      <trkpt lat="47.00016" lon="6.2975">
        <ele>616.2</ele>
        <time>2020-05-22T17:43:18Z</time>
      </trkpt>
      <trkpt lat="47.00021" lon="6.29744">
        <ele>616.2</ele>
        <time>2020-05-22T17:43:19Z</time>
      </trkpt>
      <trkpt lat="47.00025" lon="6.29738">
        <ele>616</ele>
        <time>2020-05-22T17:43:20Z</time>
      </trkpt>
      <trkpt lat="47.0003" lon="6.29732">
        <ele>616</ele>
        <time>2020-05-22T17:43:21Z</time>
      </trkpt>
      <trkpt lat="47.00034" lon="6.29727">
        <ele>615.6</ele>
        <time>2020-05-22T17:43:22Z</time>
      </trkpt>
      <trkpt lat="47.00039" lon="6.29722">
        <ele>615.6</ele>
        <time>2020-05-22T17:43:23Z</time>
      </trkpt>
      <trkpt lat="47.00044" lon="6.29716">
        <ele>615.4</ele>
        <time>2020-05-22T17:43:24Z</time>
      </trkpt>
      <trkpt lat="47.00048" lon="6.29711">
        <ele>615.4</ele>
        <time>2020-05-22T17:43:25Z</time>
      </trkpt>
      <trkpt lat="47.00053" lon="6.29706">
        <ele>615.4</ele>
        <time>2020-05-22T17:43:26Z</time>
      </trkpt>
      <trkpt lat="47.00057" lon="6.29701">
        <ele>615</ele>
        <time>2020-05-22T17:43:27Z</time>
      </trkpt>
      <trkpt lat="47.00062" lon="6.29697">
        <ele>615</ele>
        <time>2020-05-22T17:43:28Z</time>
      </trkpt>
      <trkpt lat="47.00066" lon="6.29692">
        <ele>615</ele>
        <time>2020-05-22T17:43:29Z</time>
      </trkpt>
      <trkpt lat="47.00071" lon="6.29688">
        <ele>615</ele>
        <time>2020-05-22T17:43:30Z</time>
      </trkpt>
      <trkpt lat="47.00075" lon="6.29683">
        <ele>615</ele>
        <time>2020-05-22T17:43:31Z</time>
      </trkpt>
      <trkpt lat="47.00079" lon="6.29679">
        <ele>615</ele>
        <time>2020-05-22T17:43:32Z</time>
      </trkpt>
      <trkpt lat="47.00084" lon="6.29675">
        <ele>615</ele>
        <time>2020-05-22T17:43:33Z</time>
      </trkpt>
      <trkpt lat="47.00088" lon="6.29671">
        <ele>615</ele>
        <time>2020-05-22T17:43:34Z</time>
      </trkpt>
      <trkpt lat="47.00092" lon="6.29667">
        <ele>615</ele>
        <time>2020-05-22T17:43:35Z</time>
      </trkpt>
      <trkpt lat="47.00095" lon="6.29663">
        <ele>615</ele>
        <time>2020-05-22T17:43:36Z</time>
      </trkpt>
      <trkpt lat="47.00099" lon="6.29659">
        <ele>615</ele>
        <time>2020-05-22T17:43:37Z</time>
      </trkpt>
      <trkpt lat="47.00102" lon="6.29656">
        <ele>615</ele>
        <time>2020-05-22T17:43:38Z</time>
      </trkpt>
      <trkpt lat="47.00105" lon="6.29653">
        <ele>615</ele>
        <time>2020-05-22T17:43:39Z</time>
      </trkpt>
      <trkpt lat="47.00108" lon="6.29651">
        <ele>615.4</ele>
        <time>2020-05-22T17:43:40Z</time>
      </trkpt>
      <trkpt lat="47.00111" lon="6.29649">
        <ele>615.4</ele>
        <time>2020-05-22T17:43:41Z</time>
      </trkpt>
      <trkpt lat="47.00114" lon="6.29646">
        <ele>615.4</ele>
        <time>2020-05-22T17:43:42Z</time>
      </trkpt>
      <trkpt lat="47.00116" lon="6.29643">
        <ele>615.6</ele>
        <time>2020-05-22T17:43:43Z</time>
      </trkpt>
      <trkpt lat="47.00118" lon="6.29641">
        <ele>615.6</ele>
        <time>2020-05-22T17:43:44Z</time>
      </trkpt>
      <trkpt lat="47.00121" lon="6.29639">
        <ele>615.8</ele>
        <time>2020-05-22T17:43:45Z</time>
      </trkpt>
      <trkpt lat="47.00123" lon="6.29637">
        <ele>615.8</ele>
        <time>2020-05-22T17:43:46Z</time>
      </trkpt>
      <trkpt lat="47.00125" lon="6.29635">
        <ele>616</ele>
        <time>2020-05-22T17:43:47Z</time>
      </trkpt>
      <trkpt lat="47.00128" lon="6.29633">
        <ele>616</ele>
        <time>2020-05-22T17:43:48Z</time>
      </trkpt>
      <trkpt lat="47.0013" lon="6.29632">
        <ele>616</ele>
        <time>2020-05-22T17:43:49Z</time>
      </trkpt>
      <trkpt lat="47.00132" lon="6.2963">
        <ele>616.4</ele>
        <time>2020-05-22T17:43:50Z</time>
      </trkpt>
      <trkpt lat="47.00133" lon="6.29628">
        <ele>616.4</ele>
        <time>2020-05-22T17:43:51Z</time>
      </trkpt>
      <trkpt lat="47.00135" lon="6.29626">
        <ele>616.6</ele>
        <time>2020-05-22T17:43:52Z</time>
      </trkpt>
      <trkpt lat="47.00137" lon="6.29625">
        <ele>616.6</ele>
        <time>2020-05-22T17:43:53Z</time>
      </trkpt>
      <trkpt lat="47.00139" lon="6.29623">
        <ele>616.8</ele>
        <time>2020-05-22T17:43:54Z</time>
      </trkpt>
      <trkpt lat="47.00141" lon="6.29621">
        <ele>616.8</ele>
        <time>2020-05-22T17:43:55Z</time>
      </trkpt>
      <trkpt lat="47.00142" lon="6.29619">
        <ele>617.2</ele>
        <time>2020-05-22T17:43:56Z</time>
      </trkpt>
      <trkpt lat="47.00144" lon="6.29617">
        <ele>617.2</ele>
        <time>2020-05-22T17:43:57Z</time>
      </trkpt>
      <trkpt lat="47.00146" lon="6.29616">
        <ele>617.4</ele>
        <time>2020-05-22T17:43:58Z</time>
      </trkpt>
      <trkpt lat="47.00148" lon="6.29615">
        <ele>617.4</ele>
        <time>2020-05-22T17:43:59Z</time>
      </trkpt>
      <trkpt lat="47.0015" lon="6.29613">
        <ele>617.4</ele>
        <time>2020-05-22T17:44:00Z</time>
      </trkpt>
      <trkpt lat="47.00152" lon="6.29612">
        <ele>617.6</ele>
        <time>2020-05-22T17:44:01Z</time>
      </trkpt>
      <trkpt lat="47.00154" lon="6.29611">
        <ele>617.6</ele>
        <time>2020-05-22T17:44:02Z</time>
      </trkpt>
      <trkpt lat="47.00156" lon="6.29609">
        <ele>617.8</ele>
        <time>2020-05-22T17:44:03Z</time>
      </trkpt>
      <trkpt lat="47.00158" lon="6.29609">
        <ele>617.8</ele>
        <time>2020-05-22T17:44:04Z</time>
      </trkpt>
      <trkpt lat="47.0016" lon="6.29608">
        <ele>617.8</ele>
        <time>2020-05-22T17:44:05Z</time>
      </trkpt>
      <trkpt lat="47.00162" lon="6.29607">
        <ele>617.8</ele>
        <time>2020-05-22T17:44:06Z</time>
      </trkpt>
      <trkpt lat="47.00164" lon="6.29606">
        <ele>618.2</ele>
        <time>2020-05-22T17:44:07Z</time>
      </trkpt>
      <trkpt lat="47.00166" lon="6.29605">
        <ele>618.2</ele>
        <time>2020-05-22T17:44:08Z</time>
      </trkpt>
      <trkpt lat="47.00168" lon="6.29603">
        <ele>618.2</ele>
        <time>2020-05-22T17:44:09Z</time>
      </trkpt>
      <trkpt lat="47.0017" lon="6.29602">
        <ele>618.4</ele>
        <time>2020-05-22T17:44:10Z</time>
      </trkpt>
      <trkpt lat="47.00173" lon="6.29601">
        <ele>618.4</ele>
        <time>2020-05-22T17:44:11Z</time>
      </trkpt>
      <trkpt lat="47.00175" lon="6.296">
        <ele>618.4</ele>
        <time>2020-05-22T17:44:12Z</time>
      </trkpt>
      <trkpt lat="47.00177" lon="6.29599">
        <ele>618.4</ele>
        <time>2020-05-22T17:44:13Z</time>
      </trkpt>
      <trkpt lat="47.0018" lon="6.29598">
        <ele>618.4</ele>
        <time>2020-05-22T17:44:14Z</time>
      </trkpt>
      <trkpt lat="47.00182" lon="6.29597">
        <ele>618.4</ele>
        <time>2020-05-22T17:44:15Z</time>
      </trkpt>
      <trkpt lat="47.00185" lon="6.29596">
        <ele>618.4</ele>
        <time>2020-05-22T17:44:16Z</time>
      </trkpt>
      <trkpt lat="47.00188" lon="6.29595">
        <ele>618.4</ele>
        <time>2020-05-22T17:44:17Z</time>
      </trkpt>
      <trkpt lat="47.00191" lon="6.29595">
        <ele>618.4</ele>
        <time>2020-05-22T17:44:18Z</time>
      </trkpt>
      <trkpt lat="47.00194" lon="6.29594">
        <ele>618.4</ele>
        <time>2020-05-22T17:44:19Z</time>
      </trkpt>
      <trkpt lat="47.00198" lon="6.29594">
        <ele>618.4</ele>
        <time>2020-05-22T17:44:20Z</time>
      </trkpt>
      <trkpt lat="47.00198" lon="6.29594">
        <ele>618.4</ele>
        <time>2020-05-22T17:44:21Z</time>
      </trkpt>
      <trkpt lat="47.00205" lon="6.29594">
        <ele>618.2</ele>
        <time>2020-05-22T17:44:22Z</time>
      </trkpt>
      <trkpt lat="47.00209" lon="6.29594">
        <ele>618.2</ele>
        <time>2020-05-22T17:44:23Z</time>
      </trkpt>
      <trkpt lat="47.00214" lon="6.29595">
        <ele>618.2</ele>
        <time>2020-05-22T17:44:24Z</time>
      </trkpt>
      <trkpt lat="47.00218" lon="6.29595">
        <ele>618.2</ele>
        <time>2020-05-22T17:44:25Z</time>
      </trkpt>
      <trkpt lat="47.00221" lon="6.29596">
        <ele>618.2</ele>
        <time>2020-05-22T17:44:26Z</time>
      </trkpt>
      <trkpt lat="47.00225" lon="6.29598">
        <ele>618.2</ele>
        <time>2020-05-22T17:44:27Z</time>
      </trkpt>
      <trkpt lat="47.00229" lon="6.296">
        <ele>618.2</ele>
        <time>2020-05-22T17:44:28Z</time>
      </trkpt>
      <trkpt lat="47.00233" lon="6.29602">
        <ele>618.2</ele>
        <time>2020-05-22T17:44:29Z</time>
      </trkpt>
      <trkpt lat="47.00237" lon="6.29604">
        <ele>618.2</ele>
        <time>2020-05-22T17:44:30Z</time>
      </trkpt>
      <trkpt lat="47.00241" lon="6.29606">
        <ele>618.2</ele>
        <time>2020-05-22T17:44:31Z</time>
      </trkpt>
      <trkpt lat="47.00245" lon="6.29608">
        <ele>618.2</ele>
        <time>2020-05-22T17:44:32Z</time>
      </trkpt>
      <trkpt lat="47.00249" lon="6.2961">
        <ele>618.2</ele>
        <time>2020-05-22T17:44:33Z</time>
      </trkpt>
      <trkpt lat="47.00253" lon="6.29612">
        <ele>618.2</ele>
        <time>2020-05-22T17:44:34Z</time>
      </trkpt>
      <trkpt lat="47.00257" lon="6.29614">
        <ele>618.2</ele>
        <time>2020-05-22T17:44:35Z</time>
      </trkpt>
      <trkpt lat="47.00261" lon="6.29616">
        <ele>618.2</ele>
        <time>2020-05-22T17:44:36Z</time>
      </trkpt>
      <trkpt lat="47.00265" lon="6.29618">
        <ele>618.2</ele>
        <time>2020-05-22T17:44:37Z</time>
      </trkpt>
      <trkpt lat="47.00269" lon="6.2962">
        <ele>618.2</ele>
        <time>2020-05-22T17:44:38Z</time>
      </trkpt>
      <trkpt lat="47.00273" lon="6.29622">
        <ele>618.2</ele>
        <time>2020-05-22T17:44:39Z</time>
      </trkpt>
      <trkpt lat="47.00276" lon="6.29624">
        <ele>618.2</ele>
        <time>2020-05-22T17:44:40Z</time>
      </trkpt>
      <trkpt lat="47.00279" lon="6.29626">
        <ele>618.2</ele>
        <time>2020-05-22T17:44:41Z</time>
      </trkpt>
      <trkpt lat="47.00283" lon="6.29628">
        <ele>618.2</ele>
        <time>2020-05-22T17:44:42Z</time>
      </trkpt>
      <trkpt lat="47.00286" lon="6.2963">
        <ele>618.2</ele>
        <time>2020-05-22T17:44:43Z</time>
      </trkpt>
      <trkpt lat="47.0029" lon="6.29632">
        <ele>618.2</ele>
        <time>2020-05-22T17:44:44Z</time>
      </trkpt>
      <trkpt lat="47.00294" lon="6.29634">
        <ele>618.2</ele>
        <time>2020-05-22T17:44:45Z</time>
      </trkpt>
      <trkpt lat="47.00297" lon="6.29636">
        <ele>618.2</ele>
        <time>2020-05-22T17:44:46Z</time>
      </trkpt>
      <trkpt lat="47.00301" lon="6.29638">
        <ele>618.2</ele>
        <time>2020-05-22T17:44:47Z</time>
      </trkpt>
      <trkpt lat="47.00305" lon="6.2964">
        <ele>618.2</ele>
        <time>2020-05-22T17:44:48Z</time>
      </trkpt>
      <trkpt lat="47.00309" lon="6.29643">
        <ele>618.2</ele>
        <time>2020-05-22T17:44:49Z</time>
      </trkpt>
      <trkpt lat="47.00313" lon="6.29644">
        <ele>618.2</ele>
        <time>2020-05-22T17:44:50Z</time>
      </trkpt>
      <trkpt lat="47.00317" lon="6.29646">
        <ele>618.2</ele>
        <time>2020-05-22T17:44:51Z</time>
      </trkpt>
      <trkpt lat="47.00321" lon="6.29648">
        <ele>618.2</ele>
        <time>2020-05-22T17:44:52Z</time>
      </trkpt>
      <trkpt lat="47.00325" lon="6.2965">
        <ele>618.2</ele>
        <time>2020-05-22T17:44:53Z</time>
      </trkpt>
      <trkpt lat="47.00329" lon="6.29652">
        <ele>618.2</ele>
        <time>2020-05-22T17:44:54Z</time>
      </trkpt>
      <trkpt lat="47.00333" lon="6.29654">
        <ele>618.2</ele>
        <time>2020-05-22T17:44:55Z</time>
      </trkpt>
      <trkpt lat="47.00338" lon="6.29655">
        <ele>618.2</ele>
        <time>2020-05-22T17:44:56Z</time>
      </trkpt>
      <trkpt lat="47.00342" lon="6.29657">
        <ele>618.2</ele>
        <time>2020-05-22T17:44:57Z</time>
      </trkpt>
      <trkpt lat="47.00346" lon="6.29659">
        <ele>618.2</ele>
        <time>2020-05-22T17:44:58Z</time>
      </trkpt>
      <trkpt lat="47.0035" lon="6.29661">
        <ele>618.2</ele>
        <time>2020-05-22T17:44:59Z</time>
      </trkpt>
      <trkpt lat="47.00354" lon="6.29663">
        <ele>618.2</ele>
        <time>2020-05-22T17:45:00Z</time>
      </trkpt>
      <trkpt lat="47.00358" lon="6.29665">
        <ele>618.2</ele>
        <time>2020-05-22T17:45:01Z</time>
      </trkpt>
      <trkpt lat="47.00362" lon="6.29667">
        <ele>618.2</ele>
        <time>2020-05-22T17:45:02Z</time>
      </trkpt>
      <trkpt lat="47.00365" lon="6.29668">
        <ele>618.2</ele>
        <time>2020-05-22T17:45:03Z</time>
      </trkpt>
      <trkpt lat="47.00369" lon="6.2967">
        <ele>618.4</ele>
        <time>2020-05-22T17:45:04Z</time>
      </trkpt>
      <trkpt lat="47.00373" lon="6.29672">
        <ele>618.4</ele>
        <time>2020-05-22T17:45:05Z</time>
      </trkpt>
      <trkpt lat="47.00377" lon="6.29674">
        <ele>618.4</ele>
        <time>2020-05-22T17:45:06Z</time>
      </trkpt>
      <trkpt lat="47.0038" lon="6.29676">
        <ele>618.4</ele>
        <time>2020-05-22T17:45:07Z</time>
      </trkpt>
      <trkpt lat="47.00384" lon="6.29678">
        <ele>618.4</ele>
        <time>2020-05-22T17:45:08Z</time>
      </trkpt>
      <trkpt lat="47.00388" lon="6.2968">
        <ele>618.4</ele>
        <time>2020-05-22T17:45:09Z</time>
      </trkpt>
      <trkpt lat="47.00391" lon="6.29681">
        <ele>618.6</ele>
        <time>2020-05-22T17:45:10Z</time>
      </trkpt>
      <trkpt lat="47.00394" lon="6.29683">
        <ele>618.6</ele>
        <time>2020-05-22T17:45:11Z</time>
      </trkpt>
      <trkpt lat="47.00397" lon="6.29684">
        <ele>618.6</ele>
        <time>2020-05-22T17:45:12Z</time>
      </trkpt>
      <trkpt lat="47.004" lon="6.29685">
        <ele>618.6</ele>
        <time>2020-05-22T17:45:13Z</time>
      </trkpt>
      <trkpt lat="47.00403" lon="6.29686">
        <ele>619</ele>
        <time>2020-05-22T17:45:14Z</time>
      </trkpt>
      <trkpt lat="47.00406" lon="6.29687">
        <ele>619</ele>
        <time>2020-05-22T17:45:15Z</time>
      </trkpt>
      <trkpt lat="47.00408" lon="6.29689">
        <ele>619.2</ele>
        <time>2020-05-22T17:45:16Z</time>
      </trkpt>
      <trkpt lat="47.00411" lon="6.29691">
        <ele>619.2</ele>
        <time>2020-05-22T17:45:17Z</time>
      </trkpt>
      <trkpt lat="47.00414" lon="6.29693">
        <ele>619.2</ele>
        <time>2020-05-22T17:45:18Z</time>
      </trkpt>
      <trkpt lat="47.00417" lon="6.29695">
        <ele>619.2</ele>
        <time>2020-05-22T17:45:19Z</time>
      </trkpt>
      <trkpt lat="47.00419" lon="6.29698">
        <ele>619.2</ele>
        <time>2020-05-22T17:45:20Z</time>
      </trkpt>
      <trkpt lat="47.00422" lon="6.297">
        <ele>619.2</ele>
        <time>2020-05-22T17:45:21Z</time>
      </trkpt>
      <trkpt lat="47.00425" lon="6.29703">
        <ele>619.2</ele>
        <time>2020-05-22T17:45:22Z</time>
      </trkpt>
      <trkpt lat="47.00428" lon="6.29705">
        <ele>619.2</ele>
        <time>2020-05-22T17:45:23Z</time>
      </trkpt>
      <trkpt lat="47.0043" lon="6.29707">
        <ele>619.2</ele>
        <time>2020-05-22T17:45:24Z</time>
      </trkpt>
      <trkpt lat="47.00432" lon="6.2971">
        <ele>619.2</ele>
        <time>2020-05-22T17:45:25Z</time>
      </trkpt>
      <trkpt lat="47.00435" lon="6.29713">
        <ele>619.2</ele>
        <time>2020-05-22T17:45:26Z</time>
      </trkpt>
      <trkpt lat="47.00438" lon="6.29715">
        <ele>619.2</ele>
        <time>2020-05-22T17:45:27Z</time>
      </trkpt>
      <trkpt lat="47.00442" lon="6.29718">
        <ele>619.2</ele>
        <time>2020-05-22T17:45:28Z</time>
      </trkpt>
      <trkpt lat="47.00446" lon="6.29721">
        <ele>618.8</ele>
        <time>2020-05-22T17:45:29Z</time>
      </trkpt>
      <trkpt lat="47.00449" lon="6.29725">
        <ele>618.8</ele>
        <time>2020-05-22T17:45:30Z</time>
      </trkpt>
      <trkpt lat="47.00453" lon="6.29728">
        <ele>618.6</ele>
        <time>2020-05-22T17:45:31Z</time>
      </trkpt>
      <trkpt lat="47.00456" lon="6.29732">
        <ele>618.6</ele>
        <time>2020-05-22T17:45:32Z</time>
      </trkpt>
      <trkpt lat="47.0046" lon="6.29737">
        <ele>618.2</ele>
        <time>2020-05-22T17:45:33Z</time>
      </trkpt>
      <trkpt lat="47.00464" lon="6.29741">
        <ele>618</ele>
        <time>2020-05-22T17:45:34Z</time>
      </trkpt>
      <trkpt lat="47.00468" lon="6.29746">
        <ele>617.8</ele>
        <time>2020-05-22T17:45:35Z</time>
      </trkpt>
      <trkpt lat="47.00472" lon="6.29751">
        <ele>617.4</ele>
        <time>2020-05-22T17:45:36Z</time>
      </trkpt>
      <trkpt lat="47.00477" lon="6.29757">
        <ele>617.2</ele>
        <time>2020-05-22T17:45:37Z</time>
      </trkpt>
      <trkpt lat="47.00482" lon="6.29762">
        <ele>617</ele>
        <time>2020-05-22T17:45:38Z</time>
      </trkpt>
      <trkpt lat="47.00489" lon="6.29767">
        <ele>616.6</ele>
        <time>2020-05-22T17:45:39Z</time>
      </trkpt>
      <trkpt lat="47.00495" lon="6.29772">
        <ele>616.4</ele>
        <time>2020-05-22T17:45:40Z</time>
      </trkpt>
      <trkpt lat="47.00502" lon="6.29777">
        <ele>616</ele>
        <time>2020-05-22T17:45:41Z</time>
      </trkpt>
      <trkpt lat="47.00508" lon="6.29783">
        <ele>615.6</ele>
        <time>2020-05-22T17:45:42Z</time>
      </trkpt>
      <trkpt lat="47.00515" lon="6.2979">
        <ele>615.2</ele>
        <time>2020-05-22T17:45:43Z</time>
      </trkpt>
      <trkpt lat="47.00522" lon="6.29797">
        <ele>614.8</ele>
        <time>2020-05-22T17:45:44Z</time>
      </trkpt>
      <trkpt lat="47.00529" lon="6.29805">
        <ele>614.2</ele>
        <time>2020-05-22T17:45:45Z</time>
      </trkpt>
      <trkpt lat="47.00536" lon="6.29813">
        <ele>613.8</ele>
        <time>2020-05-22T17:45:46Z</time>
      </trkpt>
      <trkpt lat="47.00544" lon="6.29824">
        <ele>613.2</ele>
        <time>2020-05-22T17:45:47Z</time>
      </trkpt>
      <trkpt lat="47.00553" lon="6.29834">
        <ele>612.6</ele>
        <time>2020-05-22T17:45:48Z</time>
      </trkpt>
      <trkpt lat="47.00562" lon="6.29846">
        <ele>612</ele>
        <time>2020-05-22T17:45:49Z</time>
      </trkpt>
      <trkpt lat="47.00571" lon="6.29858">
        <ele>611.4</ele>
        <time>2020-05-22T17:45:50Z</time>
      </trkpt>
      <trkpt lat="47.00579" lon="6.29869">
        <ele>610.8</ele>
        <time>2020-05-22T17:45:51Z</time>
      </trkpt>
      <trkpt lat="47.00589" lon="6.2988">
        <ele>610.2</ele>
        <time>2020-05-22T17:45:52Z</time>
      </trkpt>
      <trkpt lat="47.00597" lon="6.2989">
        <ele>609.4</ele>
        <time>2020-05-22T17:45:53Z</time>
      </trkpt>
      <trkpt lat="47.00606" lon="6.299">
        <ele>608.8</ele>
        <time>2020-05-22T17:45:54Z</time>
      </trkpt>
      <trkpt lat="47.00613" lon="6.2991">
        <ele>608.4</ele>
        <time>2020-05-22T17:45:55Z</time>
      </trkpt>
      <trkpt lat="47.00621" lon="6.29919">
        <ele>607.8</ele>
        <time>2020-05-22T17:45:56Z</time>
      </trkpt>
      <trkpt lat="47.00628" lon="6.29928">
        <ele>607.2</ele>
        <time>2020-05-22T17:45:57Z</time>
      </trkpt>
      <trkpt lat="47.00634" lon="6.29936">
        <ele>606.8</ele>
        <time>2020-05-22T17:45:58Z</time>
      </trkpt>
      <trkpt lat="47.0064" lon="6.29944">
        <ele>606.2</ele>
        <time>2020-05-22T17:45:59Z</time>
      </trkpt>
      <trkpt lat="47.00647" lon="6.29952">
        <ele>605.6</ele>
        <time>2020-05-22T17:46:00Z</time>
      </trkpt>
      <trkpt lat="47.00652" lon="6.29959">
        <ele>605</ele>
        <time>2020-05-22T17:46:01Z</time>
      </trkpt>
      <trkpt lat="47.00658" lon="6.29965">
        <ele>604.2</ele>
        <time>2020-05-22T17:46:02Z</time>
      </trkpt>
      <trkpt lat="47.00664" lon="6.2997">
        <ele>603.6</ele>
        <time>2020-05-22T17:46:03Z</time>
      </trkpt>
      <trkpt lat="47.00669" lon="6.29975">
        <ele>602.8</ele>
        <time>2020-05-22T17:46:04Z</time>
      </trkpt>
      <trkpt lat="47.00674" lon="6.2998">
        <ele>602.2</ele>
        <time>2020-05-22T17:46:05Z</time>
      </trkpt>
      <trkpt lat="47.00679" lon="6.29984">
        <ele>601.6</ele>
        <time>2020-05-22T17:46:06Z</time>
      </trkpt>
      <trkpt lat="47.00684" lon="6.29988">
        <ele>600.8</ele>
        <time>2020-05-22T17:46:07Z</time>
      </trkpt>
      <trkpt lat="47.00688" lon="6.2999">
        <ele>600</ele>
        <time>2020-05-22T17:46:08Z</time>
      </trkpt>
      <trkpt lat="47.00693" lon="6.29992">
        <ele>599.4</ele>
        <time>2020-05-22T17:46:09Z</time>
      </trkpt>
      <trkpt lat="47.00697" lon="6.29995">
        <ele>598.6</ele>
        <time>2020-05-22T17:46:10Z</time>
      </trkpt>
      <trkpt lat="47.00702" lon="6.29997">
        <ele>598</ele>
        <time>2020-05-22T17:46:11Z</time>
      </trkpt>
      <trkpt lat="47.00706" lon="6.29999">
        <ele>597.4</ele>
        <time>2020-05-22T17:46:12Z</time>
      </trkpt>
      <trkpt lat="47.0071" lon="6.30002">
        <ele>596.8</ele>
        <time>2020-05-22T17:46:13Z</time>
      </trkpt>
      <trkpt lat="47.00713" lon="6.30004">
        <ele>596.2</ele>
        <time>2020-05-22T17:46:14Z</time>
      </trkpt>
      <trkpt lat="47.00717" lon="6.30004">
        <ele>595.6</ele>
        <time>2020-05-22T17:46:15Z</time>
      </trkpt>
      <trkpt lat="47.0072" lon="6.30004">
        <ele>595.2</ele>
        <time>2020-05-22T17:46:16Z</time>
      </trkpt>
      <trkpt lat="47.00723" lon="6.30003">
        <ele>594.8</ele>
        <time>2020-05-22T17:46:17Z</time>
      </trkpt>
      <trkpt lat="47.00726" lon="6.30002">
        <ele>594.4</ele>
        <time>2020-05-22T17:46:18Z</time>
      </trkpt>
      <trkpt lat="47.00728" lon="6.29999">
        <ele>594</ele>
        <time>2020-05-22T17:46:19Z</time>
      </trkpt>
      <trkpt lat="47.00729" lon="6.29995">
        <ele>593.6</ele>
        <time>2020-05-22T17:46:20Z</time>
      </trkpt>
      <trkpt lat="47.00729" lon="6.29991">
        <ele>593.4</ele>
        <time>2020-05-22T17:46:21Z</time>
      </trkpt>
      <trkpt lat="47.00728" lon="6.29988">
        <ele>593.4</ele>
        <time>2020-05-22T17:46:22Z</time>
      </trkpt>
      <trkpt lat="47.00727" lon="6.29985">
        <ele>593.2</ele>
        <time>2020-05-22T17:46:23Z</time>
      </trkpt>
      <trkpt lat="47.00725" lon="6.29983">
        <ele>593.4</ele>
        <time>2020-05-22T17:46:24Z</time>
      </trkpt>
      <trkpt lat="47.00724" lon="6.29982">
        <ele>593.4</ele>
        <time>2020-05-22T17:46:25Z</time>
      </trkpt>
      <trkpt lat="47.00723" lon="6.2998">
        <ele>593.2</ele>
        <time>2020-05-22T17:46:26Z</time>
      </trkpt>
      <trkpt lat="47.00722" lon="6.29979">
        <ele>593.2</ele>
        <time>2020-05-22T17:46:27Z</time>
      </trkpt>
      <trkpt lat="47.00721" lon="6.29978">
        <ele>592.8</ele>
        <time>2020-05-22T17:46:28Z</time>
      </trkpt>
      <trkpt lat="47.00721" lon="6.29978">
        <ele>592.8</ele>
        <time>2020-05-22T17:46:29Z</time>
      </trkpt>
      <trkpt lat="47.00721" lon="6.29979">
        <ele>592.6</ele>
        <time>2020-05-22T17:46:30Z</time>
      </trkpt>
      <trkpt lat="47.00729" lon="6.29985">
        <ele>592.4</ele>
        <time>2020-05-22T17:48:37Z</time>
      </trkpt>
      <trkpt lat="47.00731" lon="6.29987">
        <ele>592.4</ele>
        <time>2020-05-22T17:48:38Z</time>
      </trkpt>
      <trkpt lat="47.00733" lon="6.2999">
        <ele>592.4</ele>
        <time>2020-05-22T17:48:39Z</time>
      </trkpt>
      <trkpt lat="47.00735" lon="6.29991">
        <ele>592.4</ele>
        <time>2020-05-22T17:48:40Z</time>
      </trkpt>
      <trkpt lat="47.00737" lon="6.29993">
        <ele>592.4</ele>
        <time>2020-05-22T17:48:41Z</time>
      </trkpt>
      <trkpt lat="47.0074" lon="6.29993">
        <ele>592.4</ele>
        <time>2020-05-22T17:48:42Z</time>
      </trkpt>
      <trkpt lat="47.00743" lon="6.29994">
        <ele>592.4</ele>
        <time>2020-05-22T17:48:43Z</time>
      </trkpt>
      <trkpt lat="47.00745" lon="6.29994">
        <ele>592.4</ele>
        <time>2020-05-22T17:48:44Z</time>
      </trkpt>
      <trkpt lat="47.00748" lon="6.29994">
        <ele>592.4</ele>
        <time>2020-05-22T17:48:45Z</time>
      </trkpt>
      <trkpt lat="47.00751" lon="6.29995">
        <ele>592.4</ele>
        <time>2020-05-22T17:48:46Z</time>
      </trkpt>
      <trkpt lat="47.00754" lon="6.29996">
        <ele>592.4</ele>
        <time>2020-05-22T17:48:47Z</time>
      </trkpt>
      <trkpt lat="47.00757" lon="6.29996">
        <ele>592.4</ele>
        <time>2020-05-22T17:48:48Z</time>
      </trkpt>
      <trkpt lat="47.0076" lon="6.29998">
        <ele>592.4</ele>
        <time>2020-05-22T17:48:49Z</time>
      </trkpt>
      <trkpt lat="47.00764" lon="6.29999">
        <ele>592.4</ele>
        <time>2020-05-22T17:48:50Z</time>
      </trkpt>
      <trkpt lat="47.00767" lon="6.3">
        <ele>592.4</ele>
        <time>2020-05-22T17:48:51Z</time>
      </trkpt>
      <trkpt lat="47.0077" lon="6.30002">
        <ele>592.4</ele>
        <time>2020-05-22T17:48:52Z</time>
      </trkpt>
      <trkpt lat="47.00773" lon="6.30003">
        <ele>592.4</ele>
        <time>2020-05-22T17:48:53Z</time>
      </trkpt>
      <trkpt lat="47.00776" lon="6.30006">
        <ele>592.4</ele>
        <time>2020-05-22T17:48:54Z</time>
      </trkpt>
      <trkpt lat="47.0078" lon="6.30007">
        <ele>592.4</ele>
        <time>2020-05-22T17:48:55Z</time>
      </trkpt>
      <trkpt lat="47.00784" lon="6.30009">
        <ele>592.2</ele>
        <time>2020-05-22T17:48:56Z</time>
      </trkpt>
      <trkpt lat="47.00787" lon="6.30011">
        <ele>592.2</ele>
        <time>2020-05-22T17:48:57Z</time>
      </trkpt>
      <trkpt lat="47.00791" lon="6.30012">
        <ele>592.2</ele>
        <time>2020-05-22T17:48:58Z</time>
      </trkpt>
      <trkpt lat="47.00794" lon="6.30014">
        <ele>592.2</ele>
        <time>2020-05-22T17:48:59Z</time>
      </trkpt>
      <trkpt lat="47.00798" lon="6.30015">
        <ele>592.2</ele>
        <time>2020-05-22T17:49:00Z</time>
      </trkpt>
      <trkpt lat="47.00802" lon="6.30016">
        <ele>592.2</ele>
        <time>2020-05-22T17:49:01Z</time>
      </trkpt>
      <trkpt lat="47.00806" lon="6.30017">
        <ele>591.8</ele>
        <time>2020-05-22T17:49:02Z</time>
      </trkpt>
      <trkpt lat="47.0081" lon="6.30018">
        <ele>591.8</ele>
        <time>2020-05-22T17:49:03Z</time>
      </trkpt>
      <trkpt lat="47.00814" lon="6.30019">
        <ele>591.8</ele>
        <time>2020-05-22T17:49:04Z</time>
      </trkpt>
      <trkpt lat="47.00817" lon="6.3002">
        <ele>591.6</ele>
        <time>2020-05-22T17:49:05Z</time>
      </trkpt>
      <trkpt lat="47.00822" lon="6.3002">
        <ele>591.6</ele>
        <time>2020-05-22T17:49:06Z</time>
      </trkpt>
      <trkpt lat="47.00826" lon="6.30021">
        <ele>591.4</ele>
        <time>2020-05-22T17:49:07Z</time>
      </trkpt>
      <trkpt lat="47.0083" lon="6.30021">
        <ele>591.4</ele>
        <time>2020-05-22T17:49:08Z</time>
      </trkpt>
      <trkpt lat="47.00833" lon="6.30021">
        <ele>591.2</ele>
        <time>2020-05-22T17:49:09Z</time>
      </trkpt>
      <trkpt lat="47.00837" lon="6.3002">
        <ele>591.2</ele>
        <time>2020-05-22T17:49:10Z</time>
      </trkpt>
      <trkpt lat="47.00841" lon="6.30019">
        <ele>590.8</ele>
        <time>2020-05-22T17:49:11Z</time>
      </trkpt>
      <trkpt lat="47.00844" lon="6.30019">
        <ele>590.8</ele>
        <time>2020-05-22T17:49:12Z</time>
      </trkpt>
      <trkpt lat="47.00847" lon="6.30017">
        <ele>590.6</ele>
        <time>2020-05-22T17:49:13Z</time>
      </trkpt>
      <trkpt lat="47.00851" lon="6.30016">
        <ele>590.6</ele>
        <time>2020-05-22T17:49:14Z</time>
      </trkpt>
      <trkpt lat="47.00854" lon="6.30015">
        <ele>590.2</ele>
        <time>2020-05-22T17:49:15Z</time>
      </trkpt>
      <trkpt lat="47.00858" lon="6.30014">
        <ele>590.2</ele>
        <time>2020-05-22T17:49:16Z</time>
      </trkpt>
      <trkpt lat="47.00861" lon="6.30013">
        <ele>590</ele>
        <time>2020-05-22T17:49:17Z</time>
      </trkpt>
      <trkpt lat="47.00865" lon="6.30012">
        <ele>590</ele>
        <time>2020-05-22T17:49:18Z</time>
      </trkpt>
      <trkpt lat="47.00868" lon="6.30012">
        <ele>589.6</ele>
        <time>2020-05-22T17:49:19Z</time>
      </trkpt>
      <trkpt lat="47.00871" lon="6.3001">
        <ele>589.6</ele>
        <time>2020-05-22T17:49:20Z</time>
      </trkpt>
      <trkpt lat="47.00875" lon="6.30008">
        <ele>589.4</ele>
        <time>2020-05-22T17:49:21Z</time>
      </trkpt>
      <trkpt lat="47.00878" lon="6.30005">
        <ele>589.4</ele>
        <time>2020-05-22T17:49:22Z</time>
      </trkpt>
      <trkpt lat="47.00882" lon="6.30003">
        <ele>589</ele>
        <time>2020-05-22T17:49:23Z</time>
      </trkpt>
      <trkpt lat="47.00886" lon="6.3">
        <ele>588.8</ele>
        <time>2020-05-22T17:49:24Z</time>
      </trkpt>
      <trkpt lat="47.00889" lon="6.29996">
        <ele>588.8</ele>
        <time>2020-05-22T17:49:25Z</time>
      </trkpt>
      <trkpt lat="47.00891" lon="6.29993">
        <ele>588.6</ele>
        <time>2020-05-22T17:49:26Z</time>
      </trkpt>
      <trkpt lat="47.00894" lon="6.29989">
        <ele>588.6</ele>
        <time>2020-05-22T17:49:27Z</time>
      </trkpt>
      <trkpt lat="47.00897" lon="6.29986">
        <ele>588.2</ele>
        <time>2020-05-22T17:49:28Z</time>
      </trkpt>
      <trkpt lat="47.009" lon="6.29983">
        <ele>588.2</ele>
        <time>2020-05-22T17:49:29Z</time>
      </trkpt>
      <trkpt lat="47.00902" lon="6.2998">
        <ele>587.8</ele>
        <time>2020-05-22T17:49:30Z</time>
      </trkpt>
      <trkpt lat="47.00905" lon="6.29977">
        <ele>587.8</ele>
        <time>2020-05-22T17:49:31Z</time>
      </trkpt>
      <trkpt lat="47.00908" lon="6.29974">
        <ele>587.6</ele>
        <time>2020-05-22T17:49:32Z</time>
      </trkpt>
      <trkpt lat="47.0091" lon="6.29971">
        <ele>587.6</ele>
        <time>2020-05-22T17:49:33Z</time>
      </trkpt>
      <trkpt lat="47.00912" lon="6.29969">
        <ele>587.4</ele>
        <time>2020-05-22T17:49:34Z</time>
      </trkpt>
      <trkpt lat="47.00914" lon="6.29967">
        <ele>587.4</ele>
        <time>2020-05-22T17:49:35Z</time>
      </trkpt>
      <trkpt lat="47.00916" lon="6.29964">
        <ele>587</ele>
        <time>2020-05-22T17:49:36Z</time>
      </trkpt>
      <trkpt lat="47.00917" lon="6.29962">
        <ele>587</ele>
        <time>2020-05-22T17:49:37Z</time>
      </trkpt>
      <trkpt lat="47.00919" lon="6.29959">
        <ele>586.6</ele>
        <time>2020-05-22T17:49:38Z</time>
      </trkpt>
      <trkpt lat="47.00921" lon="6.29957">
        <ele>586.6</ele>
        <time>2020-05-22T17:49:39Z</time>
      </trkpt>
      <trkpt lat="47.00922" lon="6.29954">
        <ele>586.4</ele>
        <time>2020-05-22T17:49:40Z</time>
      </trkpt>
      <trkpt lat="47.00924" lon="6.29952">
        <ele>586.2</ele>
        <time>2020-05-22T17:49:41Z</time>
      </trkpt>
      <trkpt lat="47.00926" lon="6.2995">
        <ele>586</ele>
        <time>2020-05-22T17:49:42Z</time>
      </trkpt>
      <trkpt lat="47.00928" lon="6.29948">
        <ele>585.6</ele>
        <time>2020-05-22T17:49:43Z</time>
      </trkpt>
      <trkpt lat="47.00931" lon="6.29947">
        <ele>585.4</ele>
        <time>2020-05-22T17:49:44Z</time>
      </trkpt>
      <trkpt lat="47.00933" lon="6.29945">
        <ele>585.2</ele>
        <time>2020-05-22T17:49:45Z</time>
      </trkpt>
      <trkpt lat="47.00935" lon="6.29943">
        <ele>584.8</ele>
        <time>2020-05-22T17:49:46Z</time>
      </trkpt>
      <trkpt lat="47.00938" lon="6.29941">
        <ele>584.6</ele>
        <time>2020-05-22T17:49:47Z</time>
      </trkpt>
      <trkpt lat="47.0094" lon="6.29938">
        <ele>584.2</ele>
        <time>2020-05-22T17:49:48Z</time>
      </trkpt>
      <trkpt lat="47.00942" lon="6.29936">
        <ele>584</ele>
        <time>2020-05-22T17:49:49Z</time>
      </trkpt>
      <trkpt lat="47.00945" lon="6.29933">
        <ele>583.6</ele>
        <time>2020-05-22T17:49:50Z</time>
      </trkpt>
      <trkpt lat="47.00947" lon="6.2993">
        <ele>583.4</ele>
        <time>2020-05-22T17:49:51Z</time>
      </trkpt>
      <trkpt lat="47.00949" lon="6.29928">
        <ele>583.2</ele>
        <time>2020-05-22T17:49:52Z</time>
      </trkpt>
      <trkpt lat="47.00952" lon="6.29926">
        <ele>583</ele>
        <time>2020-05-22T17:49:53Z</time>
      </trkpt>
      <trkpt lat="47.00955" lon="6.29923">
        <ele>582.8</ele>
        <time>2020-05-22T17:49:54Z</time>
      </trkpt>
      <trkpt lat="47.00958" lon="6.29921">
        <ele>582.4</ele>
        <time>2020-05-22T17:49:55Z</time>
      </trkpt>
      <trkpt lat="47.00961" lon="6.29918">
        <ele>582.2</ele>
        <time>2020-05-22T17:49:56Z</time>
      </trkpt>
      <trkpt lat="47.00963" lon="6.29915">
        <ele>581.8</ele>
        <time>2020-05-22T17:49:57Z</time>
      </trkpt>
      <trkpt lat="47.00965" lon="6.29911">
        <ele>581.6</ele>
        <time>2020-05-22T17:49:58Z</time>
      </trkpt>
      <trkpt lat="47.00968" lon="6.29908">
        <ele>581.2</ele>
        <time>2020-05-22T17:49:59Z</time>
      </trkpt>
      <trkpt lat="47.00971" lon="6.29904">
        <ele>580.8</ele>
        <time>2020-05-22T17:50:00Z</time>
      </trkpt>
      <trkpt lat="47.00972" lon="6.29898">
        <ele>580.6</ele>
        <time>2020-05-22T17:50:01Z</time>
      </trkpt>
      <trkpt lat="47.00974" lon="6.29893">
        <ele>580.4</ele>
        <time>2020-05-22T17:50:02Z</time>
      </trkpt>
      <trkpt lat="47.00975" lon="6.29888">
        <ele>580</ele>
        <time>2020-05-22T17:50:03Z</time>
      </trkpt>
      <trkpt lat="47.00977" lon="6.29884">
        <ele>579.8</ele>
        <time>2020-05-22T17:50:04Z</time>
      </trkpt>
      <trkpt lat="47.00979" lon="6.29879">
        <ele>579.4</ele>
        <time>2020-05-22T17:50:05Z</time>
      </trkpt>
      <trkpt lat="47.0098" lon="6.29875">
        <ele>579.2</ele>
        <time>2020-05-22T17:50:06Z</time>
      </trkpt>
      <trkpt lat="47.00981" lon="6.29871">
        <ele>579.2</ele>
        <time>2020-05-22T17:50:07Z</time>
      </trkpt>
      <trkpt lat="47.00982" lon="6.29867">
        <ele>579</ele>
        <time>2020-05-22T17:50:08Z</time>
      </trkpt>
      <trkpt lat="47.00982" lon="6.29862">
        <ele>579</ele>
        <time>2020-05-22T17:50:09Z</time>
      </trkpt>
      <trkpt lat="47.00983" lon="6.29858">
        <ele>578.6</ele>
        <time>2020-05-22T17:50:10Z</time>
      </trkpt>
      <trkpt lat="47.00983" lon="6.29853">
        <ele>578.6</ele>
        <time>2020-05-22T17:50:11Z</time>
      </trkpt>
      <trkpt lat="47.00984" lon="6.29849">
        <ele>578.4</ele>
        <time>2020-05-22T17:50:12Z</time>
      </trkpt>
      <trkpt lat="47.00985" lon="6.29844">
        <ele>578.4</ele>
        <time>2020-05-22T17:50:13Z</time>
      </trkpt>
      <trkpt lat="47.00985" lon="6.29839">
        <ele>578</ele>
        <time>2020-05-22T17:50:14Z</time>
      </trkpt>
      <trkpt lat="47.00985" lon="6.29835">
        <ele>577.8</ele>
        <time>2020-05-22T17:50:15Z</time>
      </trkpt>
      <trkpt lat="47.00986" lon="6.2983">
        <ele>577.4</ele>
        <time>2020-05-22T17:50:16Z</time>
      </trkpt>
      <trkpt lat="47.00987" lon="6.29826">
        <ele>577.2</ele>
        <time>2020-05-22T17:50:17Z</time>
      </trkpt>
      <trkpt lat="47.00988" lon="6.29823">
        <ele>577.2</ele>
        <time>2020-05-22T17:50:18Z</time>
      </trkpt>
      <trkpt lat="47.00989" lon="6.29819">
        <ele>576.8</ele>
        <time>2020-05-22T17:50:19Z</time>
      </trkpt>
      <trkpt lat="47.00989" lon="6.29815">
        <ele>576.6</ele>
        <time>2020-05-22T17:50:20Z</time>
      </trkpt>
      <trkpt lat="47.0099" lon="6.29811">
        <ele>576.4</ele>
        <time>2020-05-22T17:50:21Z</time>
      </trkpt>
      <trkpt lat="47.0099" lon="6.29807">
        <ele>576</ele>
        <time>2020-05-22T17:50:22Z</time>
      </trkpt>
      <trkpt lat="47.00991" lon="6.29803">
        <ele>575.6</ele>
        <time>2020-05-22T17:50:23Z</time>
      </trkpt>
      <trkpt lat="47.00992" lon="6.298">
        <ele>575.2</ele>
        <time>2020-05-22T17:50:24Z</time>
      </trkpt>
      <trkpt lat="47.00992" lon="6.29795">
        <ele>574.8</ele>
        <time>2020-05-22T17:50:25Z</time>
      </trkpt>
      <trkpt lat="47.00992" lon="6.29791">
        <ele>574.4</ele>
        <time>2020-05-22T17:50:26Z</time>
      </trkpt>
      <trkpt lat="47.00993" lon="6.29787">
        <ele>574</ele>
        <time>2020-05-22T17:50:27Z</time>
      </trkpt>
      <trkpt lat="47.00995" lon="6.29783">
        <ele>573.6</ele>
        <time>2020-05-22T17:50:28Z</time>
      </trkpt>
      <trkpt lat="47.00996" lon="6.2978">
        <ele>573.4</ele>
        <time>2020-05-22T17:50:29Z</time>
      </trkpt>
      <trkpt lat="47.00997" lon="6.29777">
        <ele>573</ele>
        <time>2020-05-22T17:50:30Z</time>
      </trkpt>
      <trkpt lat="47.00998" lon="6.29774">
        <ele>572.6</ele>
        <time>2020-05-22T17:50:31Z</time>
      </trkpt>
      <trkpt lat="47.01" lon="6.29771">
        <ele>572.4</ele>
        <time>2020-05-22T17:50:32Z</time>
      </trkpt>
      <trkpt lat="47.01001" lon="6.29768">
        <ele>572</ele>
        <time>2020-05-22T17:50:33Z</time>
      </trkpt>
      <trkpt lat="47.01003" lon="6.29765">
        <ele>571.8</ele>
        <time>2020-05-22T17:50:34Z</time>
      </trkpt>
      <trkpt lat="47.01005" lon="6.29763">
        <ele>571.6</ele>
        <time>2020-05-22T17:50:35Z</time>
      </trkpt>
      <trkpt lat="47.01009" lon="6.29761">
        <ele>571.2</ele>
        <time>2020-05-22T17:50:36Z</time>
      </trkpt>
      <trkpt lat="47.01011" lon="6.2976">
        <ele>571</ele>
        <time>2020-05-22T17:50:37Z</time>
      </trkpt>
      <trkpt lat="47.01014" lon="6.29759">
        <ele>570.8</ele>
        <time>2020-05-22T17:50:38Z</time>
      </trkpt>
      <trkpt lat="47.01017" lon="6.29758">
        <ele>570.4</ele>
        <time>2020-05-22T17:50:39Z</time>
      </trkpt>
      <trkpt lat="47.0102" lon="6.29758">
        <ele>570.2</ele>
        <time>2020-05-22T17:50:40Z</time>
      </trkpt>
      <trkpt lat="47.01022" lon="6.29758">
        <ele>570</ele>
        <time>2020-05-22T17:50:41Z</time>
      </trkpt>
      <trkpt lat="47.01024" lon="6.29757">
        <ele>569.6</ele>
        <time>2020-05-22T17:50:42Z</time>
      </trkpt>
      <trkpt lat="47.01026" lon="6.29756">
        <ele>569.4</ele>
        <time>2020-05-22T17:50:43Z</time>
      </trkpt>
      <trkpt lat="47.01029" lon="6.29757">
        <ele>569.2</ele>
        <time>2020-05-22T17:50:44Z</time>
      </trkpt>
      <trkpt lat="47.01031" lon="6.29757">
        <ele>569</ele>
        <time>2020-05-22T17:50:45Z</time>
      </trkpt>
      <trkpt lat="47.01034" lon="6.29759">
        <ele>568.6</ele>
        <time>2020-05-22T17:50:46Z</time>
      </trkpt>
      <trkpt lat="47.01036" lon="6.29759">
        <ele>568.4</ele>
        <time>2020-05-22T17:50:47Z</time>
      </trkpt>
      <trkpt lat="47.01038" lon="6.2976">
        <ele>568.2</ele>
        <time>2020-05-22T17:50:48Z</time>
      </trkpt>
      <trkpt lat="47.0104" lon="6.2976">
        <ele>567.8</ele>
        <time>2020-05-22T17:50:49Z</time>
      </trkpt>
      <trkpt lat="47.01042" lon="6.29759">
        <ele>567.6</ele>
        <time>2020-05-22T17:50:50Z</time>
      </trkpt>
      <trkpt lat="47.01044" lon="6.2976">
        <ele>567.2</ele>
        <time>2020-05-22T17:50:51Z</time>
      </trkpt>
      <trkpt lat="47.01046" lon="6.29761">
        <ele>567</ele>
        <time>2020-05-22T17:50:52Z</time>
      </trkpt>
      <trkpt lat="47.01048" lon="6.29761">
        <ele>566.6</ele>
        <time>2020-05-22T17:50:53Z</time>
      </trkpt>
      <trkpt lat="47.01051" lon="6.29761">
        <ele>566.4</ele>
        <time>2020-05-22T17:50:54Z</time>
      </trkpt>
      <trkpt lat="47.01053" lon="6.29761">
        <ele>566.2</ele>
        <time>2020-05-22T17:50:55Z</time>
      </trkpt>
      <trkpt lat="47.01055" lon="6.2976">
        <ele>565.8</ele>
        <time>2020-05-22T17:50:56Z</time>
      </trkpt>
      <trkpt lat="47.01057" lon="6.2976">
        <ele>565.6</ele>
        <time>2020-05-22T17:50:57Z</time>
      </trkpt>
      <trkpt lat="47.01059" lon="6.29759">
        <ele>565.2</ele>
        <time>2020-05-22T17:50:58Z</time>
      </trkpt>
      <trkpt lat="47.01062" lon="6.29759">
        <ele>564.8</ele>
        <time>2020-05-22T17:50:59Z</time>
      </trkpt>
      <trkpt lat="47.01064" lon="6.29759">
        <ele>564.4</ele>
        <time>2020-05-22T17:51:00Z</time>
      </trkpt>
      <trkpt lat="47.01066" lon="6.29758">
        <ele>564.2</ele>
        <time>2020-05-22T17:51:01Z</time>
      </trkpt>
      <trkpt lat="47.01068" lon="6.29758">
        <ele>563.8</ele>
        <time>2020-05-22T17:51:02Z</time>
      </trkpt>
      <trkpt lat="47.0107" lon="6.29759">
        <ele>563.4</ele>
        <time>2020-05-22T17:51:03Z</time>
      </trkpt>
      <trkpt lat="47.01072" lon="6.29758">
        <ele>563</ele>
        <time>2020-05-22T17:51:04Z</time>
      </trkpt>
      <trkpt lat="47.01074" lon="6.29758">
        <ele>562.6</ele>
        <time>2020-05-22T17:51:05Z</time>
      </trkpt>
      <trkpt lat="47.01076" lon="6.29759">
        <ele>562.2</ele>
        <time>2020-05-22T17:51:06Z</time>
      </trkpt>
      <trkpt lat="47.01078" lon="6.29762">
        <ele>562</ele>
        <time>2020-05-22T17:51:07Z</time>
      </trkpt>
      <trkpt lat="47.01079" lon="6.29762">
        <ele>561.8</ele>
        <time>2020-05-22T17:51:08Z</time>
      </trkpt>
      <trkpt lat="47.0108" lon="6.29764">
        <ele>561.4</ele>
        <time>2020-05-22T17:51:09Z</time>
      </trkpt>
      <trkpt lat="47.01082" lon="6.29765">
        <ele>561</ele>
        <time>2020-05-22T17:51:10Z</time>
      </trkpt>
      <trkpt lat="47.01084" lon="6.29767">
        <ele>560.8</ele>
        <time>2020-05-22T17:51:11Z</time>
      </trkpt>
      <trkpt lat="47.01085" lon="6.29769">
        <ele>560.4</ele>
        <time>2020-05-22T17:51:12Z</time>
      </trkpt>
      <trkpt lat="47.01087" lon="6.2977">
        <ele>560</ele>
        <time>2020-05-22T17:51:13Z</time>
      </trkpt>
      <trkpt lat="47.01089" lon="6.29772">
        <ele>559.6</ele>
        <time>2020-05-22T17:51:14Z</time>
      </trkpt>
      <trkpt lat="47.01091" lon="6.29773">
        <ele>559.4</ele>
        <time>2020-05-22T17:51:15Z</time>
      </trkpt>
      <trkpt lat="47.01092" lon="6.29774">
        <ele>559</ele>
        <time>2020-05-22T17:51:16Z</time>
      </trkpt>
      <trkpt lat="47.01095" lon="6.29776">
        <ele>558.6</ele>
        <time>2020-05-22T17:51:17Z</time>
      </trkpt>
      <trkpt lat="47.01096" lon="6.29779">
        <ele>558</ele>
        <time>2020-05-22T17:51:18Z</time>
      </trkpt>
      <trkpt lat="47.01099" lon="6.29781">
        <ele>557.6</ele>
        <time>2020-05-22T17:51:19Z</time>
      </trkpt>
      <trkpt lat="47.011" lon="6.29783">
        <ele>557.4</ele>
        <time>2020-05-22T17:51:20Z</time>
      </trkpt>
      <trkpt lat="47.011" lon="6.2978">
        <ele>557.2</ele>
        <time>2020-05-22T17:51:21Z</time>
      </trkpt>
      <trkpt lat="47.01102" lon="6.2978">
        <ele>557.2</ele>
        <time>2020-05-22T17:51:22Z</time>
      </trkpt>
      <trkpt lat="47.01103" lon="6.2978">
        <ele>557</ele>
        <time>2020-05-22T17:51:23Z</time>
      </trkpt>
      <trkpt lat="47.01103" lon="6.2978">
        <ele>557</ele>
        <time>2020-05-22T17:51:24Z</time>
      </trkpt>
      <trkpt lat="47.01104" lon="6.2978">
        <ele>557</ele>
        <time>2020-05-22T17:51:25Z</time>
      </trkpt>
      <trkpt lat="47.01114" lon="6.29782">
        <ele>556.4</ele>
        <time>2020-05-22T17:51:42Z</time>
      </trkpt>
      <trkpt lat="47.01116" lon="6.29783">
        <ele>556.2</ele>
        <time>2020-05-22T17:51:43Z</time>
      </trkpt>
      <trkpt lat="47.01118" lon="6.29784">
        <ele>555.8</ele>
        <time>2020-05-22T17:51:44Z</time>
      </trkpt>
      <trkpt lat="47.0112" lon="6.29786">
        <ele>555.4</ele>
        <time>2020-05-22T17:51:45Z</time>
      </trkpt>
      <trkpt lat="47.01122" lon="6.29788">
        <ele>555.2</ele>
        <time>2020-05-22T17:51:46Z</time>
      </trkpt>
      <trkpt lat="47.01124" lon="6.2979">
        <ele>554.8</ele>
        <time>2020-05-22T17:51:47Z</time>
      </trkpt>
      <trkpt lat="47.01125" lon="6.29792">
        <ele>554.2</ele>
        <time>2020-05-22T17:51:48Z</time>
      </trkpt>
      <trkpt lat="47.01126" lon="6.29795">
        <ele>553.8</ele>
        <time>2020-05-22T17:51:49Z</time>
      </trkpt>
      <trkpt lat="47.01127" lon="6.29799">
        <ele>553.4</ele>
        <time>2020-05-22T17:51:50Z</time>
      </trkpt>
      <trkpt lat="47.01128" lon="6.29804">
        <ele>552.8</ele>
        <time>2020-05-22T17:51:51Z</time>
      </trkpt>
      <trkpt lat="47.01128" lon="6.29808">
        <ele>552.4</ele>
        <time>2020-05-22T17:51:52Z</time>
      </trkpt>
      <trkpt lat="47.01127" lon="6.29813">
        <ele>552</ele>
        <time>2020-05-22T17:51:53Z</time>
      </trkpt>
      <trkpt lat="47.01126" lon="6.29818">
        <ele>551.6</ele>
        <time>2020-05-22T17:51:54Z</time>
      </trkpt>
      <trkpt lat="47.01126" lon="6.29822">
        <ele>551.2</ele>
        <time>2020-05-22T17:51:55Z</time>
      </trkpt>
      <trkpt lat="47.01125" lon="6.29827">
        <ele>550.8</ele>
        <time>2020-05-22T17:51:56Z</time>
      </trkpt>
      <trkpt lat="47.01125" lon="6.29831">
        <ele>550.4</ele>
        <time>2020-05-22T17:51:57Z</time>
      </trkpt>
      <trkpt lat="47.01124" lon="6.29835">
        <ele>550</ele>
        <time>2020-05-22T17:51:58Z</time>
      </trkpt>
      <trkpt lat="47.01124" lon="6.29839">
        <ele>549.6</ele>
        <time>2020-05-22T17:51:59Z</time>
      </trkpt>
      <trkpt lat="47.01124" lon="6.29842">
        <ele>549.2</ele>
        <time>2020-05-22T17:52:00Z</time>
      </trkpt>
      <trkpt lat="47.01125" lon="6.29846">
        <ele>548.8</ele>
        <time>2020-05-22T17:52:01Z</time>
      </trkpt>
      <trkpt lat="47.01126" lon="6.2985">
        <ele>548.6</ele>
        <time>2020-05-22T17:52:02Z</time>
      </trkpt>
      <trkpt lat="47.01127" lon="6.29853">
        <ele>548.2</ele>
        <time>2020-05-22T17:52:03Z</time>
      </trkpt>
      <trkpt lat="47.01128" lon="6.29856">
        <ele>547.8</ele>
        <time>2020-05-22T17:52:04Z</time>
      </trkpt>
      <trkpt lat="47.01129" lon="6.29858">
        <ele>547.4</ele>
        <time>2020-05-22T17:52:05Z</time>
      </trkpt>
      <trkpt lat="47.01131" lon="6.2986">
        <ele>547.2</ele>
        <time>2020-05-22T17:52:06Z</time>
      </trkpt>
      <trkpt lat="47.01132" lon="6.29862">
        <ele>546.8</ele>
        <time>2020-05-22T17:52:07Z</time>
      </trkpt>
      <trkpt lat="47.01133" lon="6.29864">
        <ele>546.6</ele>
        <time>2020-05-22T17:52:08Z</time>
      </trkpt>
      <trkpt lat="47.01134" lon="6.29866">
        <ele>546.2</ele>
        <time>2020-05-22T17:52:09Z</time>
      </trkpt>
      <trkpt lat="47.01135" lon="6.29868">
        <ele>546.2</ele>
        <time>2020-05-22T17:52:10Z</time>
      </trkpt>
      <trkpt lat="47.01135" lon="6.29871">
        <ele>545.8</ele>
        <time>2020-05-22T17:52:11Z</time>
      </trkpt>
      <trkpt lat="47.01134" lon="6.29873">
        <ele>545.8</ele>
        <time>2020-05-22T17:52:12Z</time>
      </trkpt>
      <trkpt lat="47.01132" lon="6.29875">
        <ele>545.4</ele>
        <time>2020-05-22T17:52:13Z</time>
      </trkpt>
      <trkpt lat="47.0113" lon="6.29876">
        <ele>545.4</ele>
        <time>2020-05-22T17:52:14Z</time>
      </trkpt>
      <trkpt lat="47.01128" lon="6.29876">
        <ele>545.2</ele>
        <time>2020-05-22T17:52:15Z</time>
      </trkpt>
      <trkpt lat="47.01126" lon="6.29877">
        <ele>545.2</ele>
        <time>2020-05-22T17:52:16Z</time>
      </trkpt>
      <trkpt lat="47.01126" lon="6.29877">
        <ele>545.2</ele>
        <time>2020-05-22T17:52:17Z</time>
      </trkpt>
      <trkpt lat="47.01125" lon="6.29877">
        <ele>545</ele>
        <time>2020-05-22T17:52:18Z</time>
      </trkpt>
      <trkpt lat="47.01127" lon="6.29863">
        <ele>548</ele>
        <time>2020-05-22T17:56:24Z</time>
      </trkpt>
      <trkpt lat="47.01127" lon="6.29864">
        <ele>548</ele>
        <time>2020-05-22T17:56:25Z</time>
      </trkpt>
      <trkpt lat="47.01128" lon="6.29863">
        <ele>548.2</ele>
        <time>2020-05-22T17:56:26Z</time>
      </trkpt>
      <trkpt lat="47.01128" lon="6.29862">
        <ele>548.2</ele>
        <time>2020-05-22T17:56:27Z</time>
      </trkpt>
      <trkpt lat="47.01129" lon="6.2986">
        <ele>548.2</ele>
        <time>2020-05-22T17:56:28Z</time>
      </trkpt>
      <trkpt lat="47.0113" lon="6.29858">
        <ele>548.4</ele>
        <time>2020-05-22T17:56:29Z</time>
      </trkpt>
      <trkpt lat="47.0113" lon="6.29856">
        <ele>548.4</ele>
        <time>2020-05-22T17:56:30Z</time>
      </trkpt>
      <trkpt lat="47.01131" lon="6.29854">
        <ele>548.4</ele>
        <time>2020-05-22T17:56:31Z</time>
      </trkpt>
      <trkpt lat="47.01135" lon="6.29837">
        <ele>549.4</ele>
        <time>2020-05-22T17:56:40Z</time>
      </trkpt>
      <trkpt lat="47.01134" lon="6.29836">
        <ele>549.4</ele>
        <time>2020-05-22T17:56:41Z</time>
      </trkpt>
      <trkpt lat="47.01133" lon="6.29835">
        <ele>549.6</ele>
        <time>2020-05-22T17:56:42Z</time>
      </trkpt>
      <trkpt lat="47.01132" lon="6.29822">
        <ele>551.4</ele>
        <time>2020-05-22T17:56:54Z</time>
      </trkpt>
      <trkpt lat="47.01131" lon="6.29821">
        <ele>551.4</ele>
        <time>2020-05-22T17:56:55Z</time>
      </trkpt>
      <trkpt lat="47.0113" lon="6.29821">
        <ele>551.8</ele>
        <time>2020-05-22T17:56:56Z</time>
      </trkpt>
      <trkpt lat="47.01126" lon="6.29816">
        <ele>553</ele>
        <time>2020-05-22T17:57:04Z</time>
      </trkpt>
      <trkpt lat="47.01125" lon="6.29816">
        <ele>553</ele>
        <time>2020-05-22T17:57:05Z</time>
      </trkpt>
      <trkpt lat="47.01125" lon="6.29815">
        <ele>553.2</ele>
        <time>2020-05-22T17:57:06Z</time>
      </trkpt>
      <trkpt lat="47.01122" lon="6.29814">
        <ele>554</ele>
        <time>2020-05-22T17:57:09Z</time>
      </trkpt>
      <trkpt lat="47.01121" lon="6.29814">
        <ele>554.2</ele>
        <time>2020-05-22T17:57:10Z</time>
      </trkpt>
      <trkpt lat="47.01112" lon="6.29809">
        <ele>556.8</ele>
        <time>2020-05-22T17:57:26Z</time>
      </trkpt>
      <trkpt lat="47.01112" lon="6.29809">
        <ele>557.2</ele>
        <time>2020-05-22T17:57:27Z</time>
      </trkpt>
      <trkpt lat="47.01112" lon="6.29809">
        <ele>557.2</ele>
        <time>2020-05-22T17:57:28Z</time>
      </trkpt>
      <trkpt lat="47.01108" lon="6.29801">
        <ele>557.4</ele>
        <time>2020-05-22T17:57:41Z</time>
      </trkpt>
      <trkpt lat="47.01108" lon="6.29798">
        <ele>557.4</ele>
        <time>2020-05-22T17:57:42Z</time>
      </trkpt>
      <trkpt lat="47.01109" lon="6.29796">
        <ele>557.4</ele>
        <time>2020-05-22T17:57:43Z</time>
      </trkpt>
      <trkpt lat="47.01108" lon="6.29794">
        <ele>557.4</ele>
        <time>2020-05-22T17:57:44Z</time>
      </trkpt>
      <trkpt lat="47.01107" lon="6.29793">
        <ele>557.4</ele>
        <time>2020-05-22T17:57:45Z</time>
      </trkpt>
      <trkpt lat="47.01106" lon="6.29791">
        <ele>557.6</ele>
        <time>2020-05-22T17:57:46Z</time>
      </trkpt>
      <trkpt lat="47.01106" lon="6.2979">
        <ele>557.6</ele>
        <time>2020-05-22T17:57:47Z</time>
      </trkpt>
      <trkpt lat="47.01106" lon="6.2979">
        <ele>557.6</ele>
        <time>2020-05-22T17:57:48Z</time>
      </trkpt>
      <trkpt lat="47.01105" lon="6.29789">
        <ele>558</ele>
        <time>2020-05-22T17:57:49Z</time>
      </trkpt>
      <trkpt lat="47.01091" lon="6.2976">
        <ele>561.2</ele>
        <time>2020-05-22T17:58:33Z</time>
      </trkpt>
      <trkpt lat="47.01091" lon="6.29759">
        <ele>561.4</ele>
        <time>2020-05-22T17:58:34Z</time>
      </trkpt>
      <trkpt lat="47.0109" lon="6.29758">
        <ele>561.4</ele>
        <time>2020-05-22T17:58:35Z</time>
      </trkpt>
      <trkpt lat="47.0108" lon="6.29753">
        <ele>562.8</ele>
        <time>2020-05-22T17:58:45Z</time>
      </trkpt>
      <trkpt lat="47.01079" lon="6.29754">
        <ele>563.2</ele>
        <time>2020-05-22T17:58:46Z</time>
      </trkpt>
      <trkpt lat="47.01078" lon="6.29754">
        <ele>563.2</ele>
        <time>2020-05-22T17:58:47Z</time>
      </trkpt>
      <trkpt lat="47.01069" lon="6.2975">
        <ele>564.8</ele>
        <time>2020-05-22T17:59:02Z</time>
      </trkpt>
      <trkpt lat="47.01068" lon="6.2975">
        <ele>565.2</ele>
        <time>2020-05-22T17:59:03Z</time>
      </trkpt>
      <trkpt lat="47.01067" lon="6.29751">
        <ele>565.2</ele>
        <time>2020-05-22T17:59:04Z</time>
      </trkpt>
      <trkpt lat="47.01057" lon="6.29749">
        <ele>566.8</ele>
        <time>2020-05-22T17:59:17Z</time>
      </trkpt>
      <trkpt lat="47.01056" lon="6.29749">
        <ele>566.8</ele>
        <time>2020-05-22T17:59:18Z</time>
      </trkpt>
      <trkpt lat="47.01055" lon="6.29749">
        <ele>567</ele>
        <time>2020-05-22T17:59:19Z</time>
      </trkpt>
      <trkpt lat="47.01045" lon="6.2975">
        <ele>567.8</ele>
        <time>2020-05-22T17:59:30Z</time>
      </trkpt>
      <trkpt lat="47.01043" lon="6.29749">
        <ele>568</ele>
        <time>2020-05-22T17:59:31Z</time>
      </trkpt>
      <trkpt lat="47.01042" lon="6.29748">
        <ele>568</ele>
        <time>2020-05-22T17:59:32Z</time>
      </trkpt>
      <trkpt lat="47.01032" lon="6.29744">
        <ele>569</ele>
        <time>2020-05-22T17:59:41Z</time>
      </trkpt>
      <trkpt lat="47.01031" lon="6.29743">
        <ele>569</ele>
        <time>2020-05-22T17:59:42Z</time>
      </trkpt>
      <trkpt lat="47.0103" lon="6.29743">
        <ele>569</ele>
        <time>2020-05-22T17:59:43Z</time>
      </trkpt>
      <trkpt lat="47.0102" lon="6.29738">
        <ele>569.8</ele>
        <time>2020-05-22T17:59:52Z</time>
      </trkpt>
      <trkpt lat="47.01019" lon="6.29739">
        <ele>569.8</ele>
        <time>2020-05-22T17:59:53Z</time>
      </trkpt>
      <trkpt lat="47.01018" lon="6.29739">
        <ele>569.8</ele>
        <time>2020-05-22T17:59:54Z</time>
      </trkpt>
      <trkpt lat="47.01007" lon="6.29738">
        <ele>570.8</ele>
        <time>2020-05-22T18:00:03Z</time>
      </trkpt>
      <trkpt lat="47.01006" lon="6.29738">
        <ele>570.8</ele>
        <time>2020-05-22T18:00:04Z</time>
      </trkpt>
      <trkpt lat="47.01005" lon="6.29738">
        <ele>571.2</ele>
        <time>2020-05-22T18:00:05Z</time>
      </trkpt>
      <trkpt lat="47.00999" lon="6.29744">
        <ele>571.6</ele>
        <time>2020-05-22T18:00:12Z</time>
      </trkpt>
      <trkpt lat="47.00999" lon="6.29745">
        <ele>571.8</ele>
        <time>2020-05-22T18:00:13Z</time>
      </trkpt>
      <trkpt lat="47.00998" lon="6.29746">
        <ele>571.8</ele>
        <time>2020-05-22T18:00:14Z</time>
      </trkpt>
      <trkpt lat="47.00998" lon="6.29747">
        <ele>571.8</ele>
        <time>2020-05-22T18:00:15Z</time>
      </trkpt>
      <trkpt lat="47.00998" lon="6.29749">
        <ele>572</ele>
        <time>2020-05-22T18:00:16Z</time>
      </trkpt>
      <trkpt lat="47.00997" lon="6.2976">
        <ele>572.2</ele>
        <time>2020-05-22T18:00:22Z</time>
      </trkpt>
      <trkpt lat="47.00996" lon="6.29762">
        <ele>572.4</ele>
        <time>2020-05-22T18:00:23Z</time>
      </trkpt>
      <trkpt lat="47.00996" lon="6.29763">
        <ele>572.4</ele>
        <time>2020-05-22T18:00:24Z</time>
      </trkpt>
      <trkpt lat="47.00993" lon="6.2977">
        <ele>572.6</ele>
        <time>2020-05-22T18:00:29Z</time>
      </trkpt>
      <trkpt lat="47.00992" lon="6.29772">
        <ele>573</ele>
        <time>2020-05-22T18:00:30Z</time>
      </trkpt>
      <trkpt lat="47.00991" lon="6.29773">
        <ele>573</ele>
        <time>2020-05-22T18:00:31Z</time>
      </trkpt>
      <trkpt lat="47.00991" lon="6.29774">
        <ele>573</ele>
        <time>2020-05-22T18:00:32Z</time>
      </trkpt>
      <trkpt lat="47.0099" lon="6.29776">
        <ele>573.2</ele>
        <time>2020-05-22T18:00:33Z</time>
      </trkpt>
      <trkpt lat="47.0099" lon="6.29777">
        <ele>573.2</ele>
        <time>2020-05-22T18:00:34Z</time>
      </trkpt>
      <trkpt lat="47.00987" lon="6.29793">
        <ele>574.6</ele>
        <time>2020-05-22T18:01:01Z</time>
      </trkpt>
      <trkpt lat="47.00987" lon="6.29794">
        <ele>575</ele>
        <time>2020-05-22T18:01:02Z</time>
      </trkpt>
      <trkpt lat="47.00986" lon="6.29795">
        <ele>575</ele>
        <time>2020-05-22T18:01:03Z</time>
      </trkpt>
      <trkpt lat="47.00985" lon="6.2981">
        <ele>576.6</ele>
        <time>2020-05-22T18:01:16Z</time>
      </trkpt>
      <trkpt lat="47.00985" lon="6.29811">
        <ele>576.6</ele>
        <time>2020-05-22T18:01:17Z</time>
      </trkpt>
      <trkpt lat="47.00984" lon="6.29812">
        <ele>576.6</ele>
        <time>2020-05-22T18:01:18Z</time>
      </trkpt>
      <trkpt lat="47.00982" lon="6.29827">
        <ele>577.6</ele>
        <time>2020-05-22T18:01:29Z</time>
      </trkpt>
      <trkpt lat="47.00982" lon="6.29829">
        <ele>577.6</ele>
        <time>2020-05-22T18:01:30Z</time>
      </trkpt>
      <trkpt lat="47.00982" lon="6.2983">
        <ele>577.6</ele>
        <time>2020-05-22T18:01:31Z</time>
      </trkpt>
      <trkpt lat="47.00982" lon="6.29832">
        <ele>577.6</ele>
        <time>2020-05-22T18:01:32Z</time>
      </trkpt>
      <trkpt lat="47.00982" lon="6.29833">
        <ele>577.8</ele>
        <time>2020-05-22T18:01:33Z</time>
      </trkpt>
      <trkpt lat="47.00981" lon="6.2985">
        <ele>578.8</ele>
        <time>2020-05-22T18:01:46Z</time>
      </trkpt>
      <trkpt lat="47.00981" lon="6.29851">
        <ele>579</ele>
        <time>2020-05-22T18:01:47Z</time>
      </trkpt>
    </trkseg>
  </trk>
</gpx>